<?xml version="1.0" encoding="UTF-8" standalone="no" ?>
<gpx xmlns="http://www.topografix.com/GPX/1/1" xmlns:xsi="http://www.w3.org/2001/XMLSchema-instance" xsi:schemaLocation="http://www.topografix.com/GPX/1/1 http://www.topografix.com/GPX/1/1/gpx.xsd" version="1.1" creator="VisuGPX - https://www.visugpx.com">
  <metadata>
    <name>GTMC Realise</name>
  </metadata>
  <trk>
    <name><![CDATA[GTMC J1+]]></name>
    <extensions>
      <line xmlns="http://www.topografix.com/GPX/gpx_style/0/2">
        <color>FF0000</color>
        <width>4</width>
      </line>
    </extensions>
    <trkseg>
      <trkpt lat="45.74002" lon="2.96405">
        <ele>987.038759</ele>
        <time>2021-07-06T08:36:51+0200</time>
      </trkpt>
      <trkpt lat="45.74002" lon="2.96405">
        <ele>987.038759</ele>
        <time>2021-07-06T08:36:51+0200</time>
      </trkpt>
      <trkpt lat="45.74002" lon="2.96414">
        <ele>983.793867</ele>
        <time>2021-07-06T08:37:17+0200</time>
      </trkpt>
      <trkpt lat="45.74002" lon="2.96422">
        <ele>984.587803</ele>
        <time>2021-07-06T08:37:21+0200</time>
      </trkpt>
      <trkpt lat="45.74002" lon="2.9643">
        <ele>983.670515</ele>
        <time>2021-07-06T08:37:23+0200</time>
      </trkpt>
      <trkpt lat="45.74004" lon="2.96439">
        <ele>983.709991</ele>
        <time>2021-07-06T08:37:25+0200</time>
      </trkpt>
      <trkpt lat="45.74012" lon="2.96445">
        <ele>984.592038</ele>
        <time>2021-07-06T08:37:27+0200</time>
      </trkpt>
      <trkpt lat="45.7402" lon="2.96449">
        <ele>985.810125</ele>
        <time>2021-07-06T08:37:29+0200</time>
      </trkpt>
      <trkpt lat="45.74028" lon="2.96452">
        <ele>985.347089</ele>
        <time>2021-07-06T08:37:31+0200</time>
      </trkpt>
      <trkpt lat="45.74034" lon="2.96456">
        <ele>985.251502</ele>
        <time>2021-07-06T08:37:33+0200</time>
      </trkpt>
      <trkpt lat="45.74041" lon="2.96458">
        <ele>985.3717</ele>
        <time>2021-07-06T08:37:35+0200</time>
      </trkpt>
      <trkpt lat="45.74047" lon="2.96462">
        <ele>985.528587</ele>
        <time>2021-07-06T08:37:37+0200</time>
      </trkpt>
      <trkpt lat="45.74053" lon="2.96466">
        <ele>986.75251</ele>
        <time>2021-07-06T08:37:40+0200</time>
      </trkpt>
      <trkpt lat="45.74058" lon="2.96471">
        <ele>988.065594</ele>
        <time>2021-07-06T08:37:42+0200</time>
      </trkpt>
      <trkpt lat="45.74064" lon="2.96473">
        <ele>989.376495</ele>
        <time>2021-07-06T08:37:44+0200</time>
      </trkpt>
      <trkpt lat="45.7407" lon="2.96476">
        <ele>990.375929</ele>
        <time>2021-07-06T08:37:46+0200</time>
      </trkpt>
      <trkpt lat="45.74075" lon="2.96479">
        <ele>991.010693</ele>
        <time>2021-07-06T08:37:48+0200</time>
      </trkpt>
      <trkpt lat="45.74081" lon="2.96485">
        <ele>988.465484</ele>
        <time>2021-07-06T08:37:50+0200</time>
      </trkpt>
      <trkpt lat="45.74086" lon="2.96492">
        <ele>988.448354</ele>
        <time>2021-07-06T08:37:52+0200</time>
      </trkpt>
      <trkpt lat="45.74087" lon="2.965">
        <ele>987.014422</ele>
        <time>2021-07-06T08:37:54+0200</time>
      </trkpt>
      <trkpt lat="45.74084" lon="2.96506">
        <ele>985.29105</ele>
        <time>2021-07-06T08:37:56+0200</time>
      </trkpt>
      <trkpt lat="45.74081" lon="2.96512">
        <ele>984.379748</ele>
        <time>2021-07-06T08:37:58+0200</time>
      </trkpt>
      <trkpt lat="45.74075" lon="2.96519">
        <ele>982.815621</ele>
        <time>2021-07-06T08:38:00+0200</time>
      </trkpt>
      <trkpt lat="45.7407" lon="2.9652">
        <ele>981.752636</ele>
        <time>2021-07-06T08:38:02+0200</time>
      </trkpt>
      <trkpt lat="45.74065" lon="2.96527">
        <ele>981.127089</ele>
        <time>2021-07-06T08:38:04+0200</time>
      </trkpt>
      <trkpt lat="45.7406" lon="2.96536">
        <ele>980.444505</ele>
        <time>2021-07-06T08:38:06+0200</time>
      </trkpt>
      <trkpt lat="45.74055" lon="2.96547">
        <ele>980.222131</ele>
        <time>2021-07-06T08:38:08+0200</time>
      </trkpt>
      <trkpt lat="45.7405" lon="2.96558">
        <ele>980.063236</ele>
        <time>2021-07-06T08:38:10+0200</time>
      </trkpt>
      <trkpt lat="45.74048" lon="2.96564">
        <ele>979.67303</ele>
        <time>2021-07-06T08:38:11+0200</time>
      </trkpt>
      <trkpt lat="45.74046" lon="2.9657">
        <ele>979.336278</ele>
        <time>2021-07-06T08:38:12+0200</time>
      </trkpt>
      <trkpt lat="45.74042" lon="2.96581">
        <ele>980.454075</ele>
        <time>2021-07-06T08:38:14+0200</time>
      </trkpt>
      <trkpt lat="45.74039" lon="2.9659">
        <ele>983.522501</ele>
        <time>2021-07-06T08:38:16+0200</time>
      </trkpt>
      <trkpt lat="45.74036" lon="2.96601">
        <ele>983.294566</ele>
        <time>2021-07-06T08:38:18+0200</time>
      </trkpt>
      <trkpt lat="45.74032" lon="2.96611">
        <ele>983.008311</ele>
        <time>2021-07-06T08:38:20+0200</time>
      </trkpt>
      <trkpt lat="45.74029" lon="2.9662">
        <ele>982.663688</ele>
        <time>2021-07-06T08:38:22+0200</time>
      </trkpt>
      <trkpt lat="45.74025" lon="2.96626">
        <ele>981.810309</ele>
        <time>2021-07-06T08:38:24+0200</time>
      </trkpt>
      <trkpt lat="45.74019" lon="2.96627">
        <ele>981.852835</ele>
        <time>2021-07-06T08:38:26+0200</time>
      </trkpt>
      <trkpt lat="45.74014" lon="2.96626">
        <ele>980.437199</ele>
        <time>2021-07-06T08:38:28+0200</time>
      </trkpt>
      <trkpt lat="45.74008" lon="2.96624">
        <ele>980.379961</ele>
        <time>2021-07-06T08:38:30+0200</time>
      </trkpt>
      <trkpt lat="45.74002" lon="2.96623">
        <ele>980.894311</ele>
        <time>2021-07-06T08:38:32+0200</time>
      </trkpt>
      <trkpt lat="45.73998" lon="2.9662">
        <ele>981.022752</ele>
        <time>2021-07-06T08:38:34+0200</time>
      </trkpt>
      <trkpt lat="45.73993" lon="2.96617">
        <ele>981.380738</ele>
        <time>2021-07-06T08:38:36+0200</time>
      </trkpt>
      <trkpt lat="45.73988" lon="2.96613">
        <ele>981.245626</ele>
        <time>2021-07-06T08:38:38+0200</time>
      </trkpt>
      <trkpt lat="45.73985" lon="2.96608">
        <ele>983.524563</ele>
        <time>2021-07-06T08:38:41+0200</time>
      </trkpt>
      <trkpt lat="45.7398" lon="2.9661">
        <ele>984.063361</ele>
        <time>2021-07-06T08:38:44+0200</time>
      </trkpt>
      <trkpt lat="45.73975" lon="2.9661">
        <ele>983.783066</ele>
        <time>2021-07-06T08:38:46+0200</time>
      </trkpt>
      <trkpt lat="45.7397" lon="2.96609">
        <ele>984.8135</ele>
        <time>2021-07-06T08:38:49+0200</time>
      </trkpt>
      <trkpt lat="45.73965" lon="2.96604">
        <ele>986.180877</ele>
        <time>2021-07-06T08:38:52+0200</time>
      </trkpt>
      <trkpt lat="45.73961" lon="2.96601">
        <ele>986.883666</ele>
        <time>2021-07-06T08:38:54+0200</time>
      </trkpt>
      <trkpt lat="45.73957" lon="2.96598">
        <ele>987.122454</ele>
        <time>2021-07-06T08:38:56+0200</time>
      </trkpt>
      <trkpt lat="45.73953" lon="2.96594">
        <ele>987.886388</ele>
        <time>2021-07-06T08:38:58+0200</time>
      </trkpt>
      <trkpt lat="45.73947" lon="2.96592">
        <ele>990.007996</ele>
        <time>2021-07-06T08:39:01+0200</time>
      </trkpt>
      <trkpt lat="45.73941" lon="2.96592">
        <ele>990.616155</ele>
        <time>2021-07-06T08:39:04+0200</time>
      </trkpt>
      <trkpt lat="45.73935" lon="2.9659">
        <ele>992.896342</ele>
        <time>2021-07-06T08:39:07+0200</time>
      </trkpt>
      <trkpt lat="45.7393" lon="2.96591">
        <ele>992.688969</ele>
        <time>2021-07-06T08:39:09+0200</time>
      </trkpt>
      <trkpt lat="45.73925" lon="2.9659">
        <ele>993.532334</ele>
        <time>2021-07-06T08:39:11+0200</time>
      </trkpt>
      <trkpt lat="45.7392" lon="2.96593">
        <ele>993.100346</ele>
        <time>2021-07-06T08:39:14+0200</time>
      </trkpt>
      <trkpt lat="45.73915" lon="2.96595">
        <ele>992.252039</ele>
        <time>2021-07-06T08:39:17+0200</time>
      </trkpt>
      <trkpt lat="45.7391" lon="2.96599">
        <ele>991.13068</ele>
        <time>2021-07-06T08:39:21+0200</time>
      </trkpt>
      <trkpt lat="45.73905" lon="2.96598">
        <ele>990.72486</ele>
        <time>2021-07-06T08:39:23+0200</time>
      </trkpt>
      <trkpt lat="45.73899" lon="2.96598">
        <ele>990.795928</ele>
        <time>2021-07-06T08:39:26+0200</time>
      </trkpt>
      <trkpt lat="45.73894" lon="2.96597">
        <ele>990.840183</ele>
        <time>2021-07-06T08:39:29+0200</time>
      </trkpt>
      <trkpt lat="45.73889" lon="2.96598">
        <ele>991.458299</ele>
        <time>2021-07-06T08:39:33+0200</time>
      </trkpt>
      <trkpt lat="45.73881" lon="2.96597">
        <ele>991.116452</ele>
        <time>2021-07-06T08:39:36+0200</time>
      </trkpt>
      <trkpt lat="45.73877" lon="2.96596">
        <ele>990.767224</ele>
        <time>2021-07-06T08:39:38+0200</time>
      </trkpt>
      <trkpt lat="45.73871" lon="2.96594">
        <ele>991.5107</ele>
        <time>2021-07-06T08:39:41+0200</time>
      </trkpt>
      <trkpt lat="45.73867" lon="2.96593">
        <ele>991.476828</ele>
        <time>2021-07-06T08:39:44+0200</time>
      </trkpt>
      <trkpt lat="45.7386" lon="2.9659">
        <ele>991.32711</ele>
        <time>2021-07-06T08:39:48+0200</time>
      </trkpt>
      <trkpt lat="45.73855" lon="2.96588">
        <ele>991.03813</ele>
        <time>2021-07-06T08:39:50+0200</time>
      </trkpt>
      <trkpt lat="45.73848" lon="2.96586">
        <ele>990.848724</ele>
        <time>2021-07-06T08:39:53+0200</time>
      </trkpt>
      <trkpt lat="45.73841" lon="2.96583">
        <ele>991.286067</ele>
        <time>2021-07-06T08:39:56+0200</time>
      </trkpt>
      <trkpt lat="45.73836" lon="2.9658">
        <ele>991.391478</ele>
        <time>2021-07-06T08:39:59+0200</time>
      </trkpt>
      <trkpt lat="45.7383" lon="2.96578">
        <ele>991.518337</ele>
        <time>2021-07-06T08:40:03+0200</time>
      </trkpt>
      <trkpt lat="45.73825" lon="2.96575">
        <ele>992.481339</ele>
        <time>2021-07-06T08:40:05+0200</time>
      </trkpt>
      <trkpt lat="45.7382" lon="2.96572">
        <ele>993.108585</ele>
        <time>2021-07-06T08:40:09+0200</time>
      </trkpt>
      <trkpt lat="45.73816" lon="2.9657">
        <ele>993.490075</ele>
        <time>2021-07-06T08:40:12+0200</time>
      </trkpt>
      <trkpt lat="45.73811" lon="2.96566">
        <ele>993.741969</ele>
        <time>2021-07-06T08:40:14+0200</time>
      </trkpt>
      <trkpt lat="45.73806" lon="2.9656">
        <ele>994.475266</ele>
        <time>2021-07-06T08:40:17+0200</time>
      </trkpt>
      <trkpt lat="45.73801" lon="2.96559">
        <ele>994.126274</ele>
        <time>2021-07-06T08:40:20+0200</time>
      </trkpt>
      <trkpt lat="45.73796" lon="2.96554">
        <ele>996.484634</ele>
        <time>2021-07-06T08:40:24+0200</time>
      </trkpt>
      <trkpt lat="45.73792" lon="2.96552">
        <ele>997.187561</ele>
        <time>2021-07-06T08:40:28+0200</time>
      </trkpt>
      <trkpt lat="45.73787" lon="2.96549">
        <ele>995.705393</ele>
        <time>2021-07-06T08:40:31+0200</time>
      </trkpt>
      <trkpt lat="45.73781" lon="2.96545">
        <ele>995.407162</ele>
        <time>2021-07-06T08:40:34+0200</time>
      </trkpt>
      <trkpt lat="45.73777" lon="2.9654">
        <ele>995.368643</ele>
        <time>2021-07-06T08:40:38+0200</time>
      </trkpt>
      <trkpt lat="45.73773" lon="2.96536">
        <ele>994.505341</ele>
        <time>2021-07-06T08:40:52+0200</time>
      </trkpt>
      <trkpt lat="45.73767" lon="2.96533">
        <ele>994.679208</ele>
        <time>2021-07-06T08:41:33+0200</time>
      </trkpt>
      <trkpt lat="45.73762" lon="2.9653">
        <ele>995.851318</ele>
        <time>2021-07-06T08:41:36+0200</time>
      </trkpt>
      <trkpt lat="45.73757" lon="2.96527">
        <ele>997.461747</ele>
        <time>2021-07-06T08:41:39+0200</time>
      </trkpt>
      <trkpt lat="45.73752" lon="2.96523">
        <ele>998.233531</ele>
        <time>2021-07-06T08:41:41+0200</time>
      </trkpt>
      <trkpt lat="45.73748" lon="2.96518">
        <ele>997.476845</ele>
        <time>2021-07-06T08:41:43+0200</time>
      </trkpt>
      <trkpt lat="45.73744" lon="2.96513">
        <ele>998.223769</ele>
        <time>2021-07-06T08:41:45+0200</time>
      </trkpt>
      <trkpt lat="45.73738" lon="2.9651">
        <ele>999.399674</ele>
        <time>2021-07-06T08:41:48+0200</time>
      </trkpt>
      <trkpt lat="45.73735" lon="2.96506">
        <ele>1000.08825</ele>
        <time>2021-07-06T08:41:50+0200</time>
      </trkpt>
      <trkpt lat="45.73727" lon="2.96504">
        <ele>997.915628</ele>
        <time>2021-07-06T08:41:52+0200</time>
      </trkpt>
      <trkpt lat="45.73723" lon="2.965">
        <ele>998.234008</ele>
        <time>2021-07-06T08:41:54+0200</time>
      </trkpt>
      <trkpt lat="45.73718" lon="2.96495">
        <ele>998.462451</ele>
        <time>2021-07-06T08:41:59+0200</time>
      </trkpt>
      <trkpt lat="45.73713" lon="2.96493">
        <ele>996.91107</ele>
        <time>2021-07-06T08:42:03+0200</time>
      </trkpt>
      <trkpt lat="45.73708" lon="2.96489">
        <ele>997.589628</ele>
        <time>2021-07-06T08:42:05+0200</time>
      </trkpt>
      <trkpt lat="45.73703" lon="2.96486">
        <ele>997.923561</ele>
        <time>2021-07-06T08:42:07+0200</time>
      </trkpt>
      <trkpt lat="45.73698" lon="2.96483">
        <ele>997.594197</ele>
        <time>2021-07-06T08:42:09+0200</time>
      </trkpt>
      <trkpt lat="45.73694" lon="2.96479">
        <ele>997.879426</ele>
        <time>2021-07-06T08:42:11+0200</time>
      </trkpt>
      <trkpt lat="45.73689" lon="2.96477">
        <ele>998.145639</ele>
        <time>2021-07-06T08:42:14+0200</time>
      </trkpt>
      <trkpt lat="45.73685" lon="2.96476">
        <ele>999.231605</ele>
        <time>2021-07-06T08:42:16+0200</time>
      </trkpt>
      <trkpt lat="45.7368" lon="2.96476">
        <ele>1000.901151</ele>
        <time>2021-07-06T08:42:18+0200</time>
      </trkpt>
      <trkpt lat="45.73675" lon="2.96472">
        <ele>1000.802377</ele>
        <time>2021-07-06T08:42:20+0200</time>
      </trkpt>
      <trkpt lat="45.73669" lon="2.96467">
        <ele>1000.403353</ele>
        <time>2021-07-06T08:42:22+0200</time>
      </trkpt>
      <trkpt lat="45.73663" lon="2.96462">
        <ele>997.934373</ele>
        <time>2021-07-06T08:42:24+0200</time>
      </trkpt>
      <trkpt lat="45.73657" lon="2.96459">
        <ele>997.856665</ele>
        <time>2021-07-06T08:42:26+0200</time>
      </trkpt>
      <trkpt lat="45.73652" lon="2.96452">
        <ele>997.092398</ele>
        <time>2021-07-06T08:42:28+0200</time>
      </trkpt>
      <trkpt lat="45.73646" lon="2.9645">
        <ele>997.65932</ele>
        <time>2021-07-06T08:42:30+0200</time>
      </trkpt>
      <trkpt lat="45.73642" lon="2.96444">
        <ele>997.220353</ele>
        <time>2021-07-06T08:42:32+0200</time>
      </trkpt>
      <trkpt lat="45.73636" lon="2.96441">
        <ele>997.019457</ele>
        <time>2021-07-06T08:42:34+0200</time>
      </trkpt>
      <trkpt lat="45.7363" lon="2.96437">
        <ele>996.17699</ele>
        <time>2021-07-06T08:42:36+0200</time>
      </trkpt>
      <trkpt lat="45.73625" lon="2.96434">
        <ele>995.90848</ele>
        <time>2021-07-06T08:42:38+0200</time>
      </trkpt>
      <trkpt lat="45.73619" lon="2.96431">
        <ele>995.57168</ele>
        <time>2021-07-06T08:42:40+0200</time>
      </trkpt>
      <trkpt lat="45.73613" lon="2.9643">
        <ele>995.876253</ele>
        <time>2021-07-06T08:42:42+0200</time>
      </trkpt>
      <trkpt lat="45.73608" lon="2.96427">
        <ele>996.366704</ele>
        <time>2021-07-06T08:42:44+0200</time>
      </trkpt>
      <trkpt lat="45.73602" lon="2.96424">
        <ele>996.70977</ele>
        <time>2021-07-06T08:42:46+0200</time>
      </trkpt>
      <trkpt lat="45.73597" lon="2.96421">
        <ele>996.467697</ele>
        <time>2021-07-06T08:42:48+0200</time>
      </trkpt>
      <trkpt lat="45.73592" lon="2.96417">
        <ele>996.953584</ele>
        <time>2021-07-06T08:42:50+0200</time>
      </trkpt>
      <trkpt lat="45.73586" lon="2.96414">
        <ele>997.249982</ele>
        <time>2021-07-06T08:42:52+0200</time>
      </trkpt>
      <trkpt lat="45.73581" lon="2.96411">
        <ele>998.208459</ele>
        <time>2021-07-06T08:42:54+0200</time>
      </trkpt>
      <trkpt lat="45.73575" lon="2.96407">
        <ele>998.985193</ele>
        <time>2021-07-06T08:42:56+0200</time>
      </trkpt>
      <trkpt lat="45.7357" lon="2.96405">
        <ele>999.621863</ele>
        <time>2021-07-06T08:42:58+0200</time>
      </trkpt>
      <trkpt lat="45.73565" lon="2.96404">
        <ele>1001.192622</ele>
        <time>2021-07-06T08:43:00+0200</time>
      </trkpt>
      <trkpt lat="45.73559" lon="2.964">
        <ele>1001.258494</ele>
        <time>2021-07-06T08:43:02+0200</time>
      </trkpt>
      <trkpt lat="45.73553" lon="2.96397">
        <ele>1001.206878</ele>
        <time>2021-07-06T08:43:04+0200</time>
      </trkpt>
      <trkpt lat="45.73547" lon="2.96392">
        <ele>1000.136116</ele>
        <time>2021-07-06T08:43:06+0200</time>
      </trkpt>
      <trkpt lat="45.73541" lon="2.96389">
        <ele>999.392248</ele>
        <time>2021-07-06T08:43:08+0200</time>
      </trkpt>
      <trkpt lat="45.73535" lon="2.96386">
        <ele>999.576245</ele>
        <time>2021-07-06T08:43:10+0200</time>
      </trkpt>
      <trkpt lat="45.73529" lon="2.96384">
        <ele>999.756848</ele>
        <time>2021-07-06T08:43:12+0200</time>
      </trkpt>
      <trkpt lat="45.73523" lon="2.96381">
        <ele>999.782745</ele>
        <time>2021-07-06T08:43:14+0200</time>
      </trkpt>
      <trkpt lat="45.73517" lon="2.96378">
        <ele>999.491614</ele>
        <time>2021-07-06T08:43:16+0200</time>
      </trkpt>
      <trkpt lat="45.73511" lon="2.96373">
        <ele>999.07099</ele>
        <time>2021-07-06T08:43:18+0200</time>
      </trkpt>
      <trkpt lat="45.73505" lon="2.96369">
        <ele>998.962492</ele>
        <time>2021-07-06T08:43:20+0200</time>
      </trkpt>
      <trkpt lat="45.73498" lon="2.96367">
        <ele>999.214019</ele>
        <time>2021-07-06T08:43:22+0200</time>
      </trkpt>
      <trkpt lat="45.73491" lon="2.96364">
        <ele>998.357498</ele>
        <time>2021-07-06T08:43:24+0200</time>
      </trkpt>
      <trkpt lat="45.73484" lon="2.96364">
        <ele>999.362782</ele>
        <time>2021-07-06T08:43:26+0200</time>
      </trkpt>
      <trkpt lat="45.73478" lon="2.96361">
        <ele>1000.350532</ele>
        <time>2021-07-06T08:43:28+0200</time>
      </trkpt>
      <trkpt lat="45.73471" lon="2.96359">
        <ele>1000.729518</ele>
        <time>2021-07-06T08:43:30+0200</time>
      </trkpt>
      <trkpt lat="45.73465" lon="2.96356">
        <ele>1001.112544</ele>
        <time>2021-07-06T08:43:32+0200</time>
      </trkpt>
      <trkpt lat="45.7346" lon="2.96352">
        <ele>1000.745262</ele>
        <time>2021-07-06T08:43:34+0200</time>
      </trkpt>
      <trkpt lat="45.73456" lon="2.96349">
        <ele>1000.139943</ele>
        <time>2021-07-06T08:43:36+0200</time>
      </trkpt>
      <trkpt lat="45.73451" lon="2.96343">
        <ele>1000.769848</ele>
        <time>2021-07-06T08:43:39+0200</time>
      </trkpt>
      <trkpt lat="45.73445" lon="2.96341">
        <ele>1002.335101</ele>
        <time>2021-07-06T08:43:41+0200</time>
      </trkpt>
      <trkpt lat="45.7344" lon="2.9634">
        <ele>1002.586846</ele>
        <time>2021-07-06T08:43:44+0200</time>
      </trkpt>
      <trkpt lat="45.73434" lon="2.96336">
        <ele>1002.956164</ele>
        <time>2021-07-06T08:43:47+0200</time>
      </trkpt>
      <trkpt lat="45.73429" lon="2.96334">
        <ele>1003.091624</ele>
        <time>2021-07-06T08:43:50+0200</time>
      </trkpt>
      <trkpt lat="45.73423" lon="2.96333">
        <ele>1003.458862</ele>
        <time>2021-07-06T08:43:52+0200</time>
      </trkpt>
      <trkpt lat="45.73419" lon="2.96329">
        <ele>1003.575643</ele>
        <time>2021-07-06T08:43:54+0200</time>
      </trkpt>
      <trkpt lat="45.73411" lon="2.96327">
        <ele>1005.024886</ele>
        <time>2021-07-06T08:43:56+0200</time>
      </trkpt>
      <trkpt lat="45.73404" lon="2.96325">
        <ele>1006.277044</ele>
        <time>2021-07-06T08:43:58+0200</time>
      </trkpt>
      <trkpt lat="45.73399" lon="2.96323">
        <ele>1007.646749</ele>
        <time>2021-07-06T08:44:00+0200</time>
      </trkpt>
      <trkpt lat="45.73392" lon="2.96321">
        <ele>1006.168115</ele>
        <time>2021-07-06T08:44:02+0200</time>
      </trkpt>
      <trkpt lat="45.73383" lon="2.96318">
        <ele>1003.491063</ele>
        <time>2021-07-06T08:44:03+0200</time>
      </trkpt>
      <trkpt lat="45.73375" lon="2.96316">
        <ele>1002.971316</ele>
        <time>2021-07-06T08:44:05+0200</time>
      </trkpt>
      <trkpt lat="45.73368" lon="2.96311">
        <ele>1001.964111</ele>
        <time>2021-07-06T08:44:07+0200</time>
      </trkpt>
      <trkpt lat="45.73361" lon="2.96307">
        <ele>1001.986872</ele>
        <time>2021-07-06T08:44:09+0200</time>
      </trkpt>
      <trkpt lat="45.73356" lon="2.96303">
        <ele>1004.106405</ele>
        <time>2021-07-06T08:44:11+0200</time>
      </trkpt>
      <trkpt lat="45.73352" lon="2.96299">
        <ele>1005.885836</ele>
        <time>2021-07-06T08:44:13+0200</time>
      </trkpt>
      <trkpt lat="45.73345" lon="2.96295">
        <ele>1004.310632</ele>
        <time>2021-07-06T08:44:15+0200</time>
      </trkpt>
      <trkpt lat="45.7334" lon="2.96294">
        <ele>1003.75998</ele>
        <time>2021-07-06T08:44:16+0200</time>
      </trkpt>
      <trkpt lat="45.73333" lon="2.96292">
        <ele>1005.545774</ele>
        <time>2021-07-06T08:44:18+0200</time>
      </trkpt>
      <trkpt lat="45.73327" lon="2.96289">
        <ele>1005.613266</ele>
        <time>2021-07-06T08:44:20+0200</time>
      </trkpt>
      <trkpt lat="45.73321" lon="2.96292">
        <ele>1004.316973</ele>
        <time>2021-07-06T08:44:22+0200</time>
      </trkpt>
      <trkpt lat="45.73314" lon="2.9629">
        <ele>1005.501208</ele>
        <time>2021-07-06T08:44:24+0200</time>
      </trkpt>
      <trkpt lat="45.73309" lon="2.96288">
        <ele>1006.65081</ele>
        <time>2021-07-06T08:44:26+0200</time>
      </trkpt>
      <trkpt lat="45.73304" lon="2.96286">
        <ele>1006.360709</ele>
        <time>2021-07-06T08:44:28+0200</time>
      </trkpt>
      <trkpt lat="45.73298" lon="2.96283">
        <ele>1006.698379</ele>
        <time>2021-07-06T08:44:30+0200</time>
      </trkpt>
      <trkpt lat="45.73293" lon="2.96278">
        <ele>1006.75757</ele>
        <time>2021-07-06T08:44:32+0200</time>
      </trkpt>
      <trkpt lat="45.73288" lon="2.9627">
        <ele>1004.216767</ele>
        <time>2021-07-06T08:44:34+0200</time>
      </trkpt>
      <trkpt lat="45.73282" lon="2.96264">
        <ele>1002.836576</ele>
        <time>2021-07-06T08:44:36+0200</time>
      </trkpt>
      <trkpt lat="45.73277" lon="2.9626">
        <ele>1002.338105</ele>
        <time>2021-07-06T08:44:38+0200</time>
      </trkpt>
      <trkpt lat="45.73273" lon="2.96258">
        <ele>1002.808112</ele>
        <time>2021-07-06T08:44:40+0200</time>
      </trkpt>
      <trkpt lat="45.73266" lon="2.96256">
        <ele>1003.224014</ele>
        <time>2021-07-06T08:44:42+0200</time>
      </trkpt>
      <trkpt lat="45.73261" lon="2.96253">
        <ele>1004.926491</ele>
        <time>2021-07-06T08:44:44+0200</time>
      </trkpt>
      <trkpt lat="45.73255" lon="2.9625">
        <ele>1005.918359</ele>
        <time>2021-07-06T08:44:47+0200</time>
      </trkpt>
      <trkpt lat="45.73249" lon="2.96247">
        <ele>1006.570589</ele>
        <time>2021-07-06T08:44:49+0200</time>
      </trkpt>
      <trkpt lat="45.73244" lon="2.96245">
        <ele>1007.65299</ele>
        <time>2021-07-06T08:44:51+0200</time>
      </trkpt>
      <trkpt lat="45.7324" lon="2.96242">
        <ele>1007.669595</ele>
        <time>2021-07-06T08:44:53+0200</time>
      </trkpt>
      <trkpt lat="45.73236" lon="2.96236">
        <ele>1007.562595</ele>
        <time>2021-07-06T08:44:55+0200</time>
      </trkpt>
      <trkpt lat="45.7323" lon="2.96233">
        <ele>1009.455341</ele>
        <time>2021-07-06T08:44:58+0200</time>
      </trkpt>
      <trkpt lat="45.73226" lon="2.96229">
        <ele>1009.658656</ele>
        <time>2021-07-06T08:45:00+0200</time>
      </trkpt>
      <trkpt lat="45.73221" lon="2.96224">
        <ele>1009.990698</ele>
        <time>2021-07-06T08:45:02+0200</time>
      </trkpt>
      <trkpt lat="45.73215" lon="2.9622">
        <ele>1009.801301</ele>
        <time>2021-07-06T08:45:04+0200</time>
      </trkpt>
      <trkpt lat="45.7321" lon="2.96214">
        <ele>1010.020869</ele>
        <time>2021-07-06T08:45:06+0200</time>
      </trkpt>
      <trkpt lat="45.73206" lon="2.96211">
        <ele>1011.034812</ele>
        <time>2021-07-06T08:45:08+0200</time>
      </trkpt>
      <trkpt lat="45.73201" lon="2.96206">
        <ele>1011.226757</ele>
        <time>2021-07-06T08:45:10+0200</time>
      </trkpt>
      <trkpt lat="45.73195" lon="2.96203">
        <ele>1011.404321</ele>
        <time>2021-07-06T08:45:12+0200</time>
      </trkpt>
      <trkpt lat="45.73189" lon="2.96197">
        <ele>1011.096572</ele>
        <time>2021-07-06T08:45:14+0200</time>
      </trkpt>
      <trkpt lat="45.73182" lon="2.96194">
        <ele>1011.250497</ele>
        <time>2021-07-06T08:45:16+0200</time>
      </trkpt>
      <trkpt lat="45.73177" lon="2.96188">
        <ele>1010.349109</ele>
        <time>2021-07-06T08:45:18+0200</time>
      </trkpt>
      <trkpt lat="45.73171" lon="2.96183">
        <ele>1010.011906</ele>
        <time>2021-07-06T08:45:20+0200</time>
      </trkpt>
      <trkpt lat="45.73166" lon="2.9618">
        <ele>1010.085966</ele>
        <time>2021-07-06T08:45:22+0200</time>
      </trkpt>
      <trkpt lat="45.73161" lon="2.96177">
        <ele>1008.865392</ele>
        <time>2021-07-06T08:45:24+0200</time>
      </trkpt>
      <trkpt lat="45.73157" lon="2.96174">
        <ele>1008.81567</ele>
        <time>2021-07-06T08:45:26+0200</time>
      </trkpt>
      <trkpt lat="45.73152" lon="2.96169">
        <ele>1009.65731</ele>
        <time>2021-07-06T08:45:28+0200</time>
      </trkpt>
      <trkpt lat="45.73147" lon="2.96166">
        <ele>1009.036558</ele>
        <time>2021-07-06T08:45:30+0200</time>
      </trkpt>
      <trkpt lat="45.73141" lon="2.96167">
        <ele>1008.124337</ele>
        <time>2021-07-06T08:45:32+0200</time>
      </trkpt>
      <trkpt lat="45.73136" lon="2.9617">
        <ele>1008.55384</ele>
        <time>2021-07-06T08:45:34+0200</time>
      </trkpt>
      <trkpt lat="45.73132" lon="2.96166">
        <ele>1009.620117</ele>
        <time>2021-07-06T08:45:36+0200</time>
      </trkpt>
      <trkpt lat="45.73128" lon="2.96164">
        <ele>1008.767092</ele>
        <time>2021-07-06T08:45:42+0200</time>
      </trkpt>
      <trkpt lat="45.73123" lon="2.96162">
        <ele>1007.3965</ele>
        <time>2021-07-06T08:45:47+0200</time>
      </trkpt>
      <trkpt lat="45.73118" lon="2.96159">
        <ele>1008.291175</ele>
        <time>2021-07-06T08:45:51+0200</time>
      </trkpt>
      <trkpt lat="45.73114" lon="2.9616">
        <ele>1011.562561</ele>
        <time>2021-07-06T08:45:56+0200</time>
      </trkpt>
      <trkpt lat="45.73109" lon="2.96164">
        <ele>1015.805135</ele>
        <time>2021-07-06T08:46:01+0200</time>
      </trkpt>
      <trkpt lat="45.73104" lon="2.96162">
        <ele>1017.843129</ele>
        <time>2021-07-06T08:46:05+0200</time>
      </trkpt>
      <trkpt lat="45.73102" lon="2.96154">
        <ele>1020.384417</ele>
        <time>2021-07-06T08:46:13+0200</time>
      </trkpt>
      <trkpt lat="45.73099" lon="2.96159">
        <ele>1020.346135</ele>
        <time>2021-07-06T08:46:47+0200</time>
      </trkpt>
      <trkpt lat="45.73094" lon="2.96158">
        <ele>1019.44432</ele>
        <time>2021-07-06T08:46:51+0200</time>
      </trkpt>
      <trkpt lat="45.73089" lon="2.96154">
        <ele>1019.534652</ele>
        <time>2021-07-06T08:46:54+0200</time>
      </trkpt>
      <trkpt lat="45.73084" lon="2.9615">
        <ele>1019.810506</ele>
        <time>2021-07-06T08:46:58+0200</time>
      </trkpt>
      <trkpt lat="45.73079" lon="2.96146">
        <ele>1021.184344</ele>
        <time>2021-07-06T08:47:01+0200</time>
      </trkpt>
      <trkpt lat="45.73073" lon="2.96143">
        <ele>1023.197291</ele>
        <time>2021-07-06T08:47:04+0200</time>
      </trkpt>
      <trkpt lat="45.73069" lon="2.96139">
        <ele>1024.342092</ele>
        <time>2021-07-06T08:47:07+0200</time>
      </trkpt>
      <trkpt lat="45.73066" lon="2.96135">
        <ele>1023.363953</ele>
        <time>2021-07-06T08:47:10+0200</time>
      </trkpt>
      <trkpt lat="45.73061" lon="2.96131">
        <ele>1025.703065</ele>
        <time>2021-07-06T08:47:14+0200</time>
      </trkpt>
      <trkpt lat="45.73058" lon="2.96126">
        <ele>1025.533979</ele>
        <time>2021-07-06T08:47:16+0200</time>
      </trkpt>
      <trkpt lat="45.73054" lon="2.96123">
        <ele>1025.77459</ele>
        <time>2021-07-06T08:47:18+0200</time>
      </trkpt>
      <trkpt lat="45.7305" lon="2.96118">
        <ele>1025.966804</ele>
        <time>2021-07-06T08:47:20+0200</time>
      </trkpt>
      <trkpt lat="45.73045" lon="2.96117">
        <ele>1026.497141</ele>
        <time>2021-07-06T08:47:22+0200</time>
      </trkpt>
      <trkpt lat="45.73041" lon="2.96111">
        <ele>1024.749788</ele>
        <time>2021-07-06T08:47:25+0200</time>
      </trkpt>
      <trkpt lat="45.73039" lon="2.96106">
        <ele>1024.534057</ele>
        <time>2021-07-06T08:47:27+0200</time>
      </trkpt>
      <trkpt lat="45.73033" lon="2.96102">
        <ele>1026.206078</ele>
        <time>2021-07-06T08:47:30+0200</time>
      </trkpt>
      <trkpt lat="45.73028" lon="2.96096">
        <ele>1027.642561</ele>
        <time>2021-07-06T08:47:32+0200</time>
      </trkpt>
      <trkpt lat="45.73023" lon="2.96091">
        <ele>1029.823192</ele>
        <time>2021-07-06T08:47:36+0200</time>
      </trkpt>
      <trkpt lat="45.73018" lon="2.96087">
        <ele>1030.402778</ele>
        <time>2021-07-06T08:47:39+0200</time>
      </trkpt>
      <trkpt lat="45.73013" lon="2.96084">
        <ele>1030.618217</ele>
        <time>2021-07-06T08:47:41+0200</time>
      </trkpt>
      <trkpt lat="45.73009" lon="2.96077">
        <ele>1032.367445</ele>
        <time>2021-07-06T08:47:44+0200</time>
      </trkpt>
      <trkpt lat="45.73005" lon="2.96069">
        <ele>1032.016271</ele>
        <time>2021-07-06T08:47:47+0200</time>
      </trkpt>
      <trkpt lat="45.73004" lon="2.96063">
        <ele>1033.114128</ele>
        <time>2021-07-06T08:47:50+0200</time>
      </trkpt>
      <trkpt lat="45.73" lon="2.96055">
        <ele>1034.587784</ele>
        <time>2021-07-06T08:47:54+0200</time>
      </trkpt>
      <trkpt lat="45.72998" lon="2.96049">
        <ele>1034.324635</ele>
        <time>2021-07-06T08:47:56+0200</time>
      </trkpt>
      <trkpt lat="45.72996" lon="2.96042">
        <ele>1035.38227</ele>
        <time>2021-07-06T08:47:59+0200</time>
      </trkpt>
      <trkpt lat="45.72994" lon="2.96032">
        <ele>1034.601398</ele>
        <time>2021-07-06T08:48:01+0200</time>
      </trkpt>
      <trkpt lat="45.72991" lon="2.96023">
        <ele>1034.606237</ele>
        <time>2021-07-06T08:48:04+0200</time>
      </trkpt>
      <trkpt lat="45.72988" lon="2.96017">
        <ele>1034.994509</ele>
        <time>2021-07-06T08:48:08+0200</time>
      </trkpt>
      <trkpt lat="45.72985" lon="2.96012">
        <ele>1038.006905</ele>
        <time>2021-07-06T08:48:11+0200</time>
      </trkpt>
      <trkpt lat="45.72981" lon="2.96007">
        <ele>1039.861854</ele>
        <time>2021-07-06T08:48:15+0200</time>
      </trkpt>
      <trkpt lat="45.72978" lon="2.96001">
        <ele>1041.031509</ele>
        <time>2021-07-06T08:48:18+0200</time>
      </trkpt>
      <trkpt lat="45.72974" lon="2.95997">
        <ele>1040.839424</ele>
        <time>2021-07-06T08:48:21+0200</time>
      </trkpt>
      <trkpt lat="45.7297" lon="2.9599">
        <ele>1041.432304</ele>
        <time>2021-07-06T08:48:25+0200</time>
      </trkpt>
      <trkpt lat="45.72966" lon="2.95985">
        <ele>1040.778038</ele>
        <time>2021-07-06T08:48:28+0200</time>
      </trkpt>
      <trkpt lat="45.72962" lon="2.9598">
        <ele>1040.822453</ele>
        <time>2021-07-06T08:48:31+0200</time>
      </trkpt>
      <trkpt lat="45.72958" lon="2.95979">
        <ele>1040.53328</ele>
        <time>2021-07-06T08:48:34+0200</time>
      </trkpt>
      <trkpt lat="45.72952" lon="2.95972">
        <ele>1040.884328</ele>
        <time>2021-07-06T08:48:37+0200</time>
      </trkpt>
      <trkpt lat="45.7295" lon="2.95965">
        <ele>1039.85262</ele>
        <time>2021-07-06T08:48:39+0200</time>
      </trkpt>
      <trkpt lat="45.72946" lon="2.95961">
        <ele>1041.927586</ele>
        <time>2021-07-06T08:48:43+0200</time>
      </trkpt>
      <trkpt lat="45.7294" lon="2.95955">
        <ele>1043.167516</ele>
        <time>2021-07-06T08:48:47+0200</time>
      </trkpt>
      <trkpt lat="45.72936" lon="2.95952">
        <ele>1043.211664</ele>
        <time>2021-07-06T08:48:50+0200</time>
      </trkpt>
      <trkpt lat="45.72932" lon="2.95949">
        <ele>1043.788234</ele>
        <time>2021-07-06T08:48:52+0200</time>
      </trkpt>
      <trkpt lat="45.72928" lon="2.95942">
        <ele>1044.433953</ele>
        <time>2021-07-06T08:48:56+0200</time>
      </trkpt>
      <trkpt lat="45.72924" lon="2.95939">
        <ele>1044.050584</ele>
        <time>2021-07-06T08:48:59+0200</time>
      </trkpt>
      <trkpt lat="45.72919" lon="2.95936">
        <ele>1045.716804</ele>
        <time>2021-07-06T08:49:04+0200</time>
      </trkpt>
      <trkpt lat="45.72915" lon="2.95932">
        <ele>1046.096613</ele>
        <time>2021-07-06T08:49:07+0200</time>
      </trkpt>
      <trkpt lat="45.7291" lon="2.95928">
        <ele>1047.650232</ele>
        <time>2021-07-06T08:49:11+0200</time>
      </trkpt>
      <trkpt lat="45.72906" lon="2.95927">
        <ele>1048.862881</ele>
        <time>2021-07-06T08:49:16+0200</time>
      </trkpt>
      <trkpt lat="45.729" lon="2.95926">
        <ele>1050.110671</ele>
        <time>2021-07-06T08:49:20+0200</time>
      </trkpt>
      <trkpt lat="45.72894" lon="2.95921">
        <ele>1049.727775</ele>
        <time>2021-07-06T08:49:24+0200</time>
      </trkpt>
      <trkpt lat="45.72891" lon="2.95915">
        <ele>1050.491154</ele>
        <time>2021-07-06T08:49:26+0200</time>
      </trkpt>
      <trkpt lat="45.72886" lon="2.95913">
        <ele>1051.65536</ele>
        <time>2021-07-06T08:49:30+0200</time>
      </trkpt>
      <trkpt lat="45.72882" lon="2.95907">
        <ele>1051.588563</ele>
        <time>2021-07-06T08:49:33+0200</time>
      </trkpt>
      <trkpt lat="45.72878" lon="2.95903">
        <ele>1052.530212</ele>
        <time>2021-07-06T08:49:36+0200</time>
      </trkpt>
      <trkpt lat="45.72874" lon="2.95899">
        <ele>1052.129111</ele>
        <time>2021-07-06T08:49:39+0200</time>
      </trkpt>
      <trkpt lat="45.72869" lon="2.959">
        <ele>1051.124818</ele>
        <time>2021-07-06T08:50:13+0200</time>
      </trkpt>
      <trkpt lat="45.72871" lon="2.95907">
        <ele>1053.451067</ele>
        <time>2021-07-06T08:50:22+0200</time>
      </trkpt>
      <trkpt lat="45.72876" lon="2.95903">
        <ele>1058.697303</ele>
        <time>2021-07-06T08:50:31+0200</time>
      </trkpt>
      <trkpt lat="45.72878" lon="2.95898">
        <ele>1058.140486</ele>
        <time>2021-07-06T08:50:37+0200</time>
      </trkpt>
      <trkpt lat="45.72876" lon="2.95892">
        <ele>1057.870649</ele>
        <time>2021-07-06T08:50:49+0200</time>
      </trkpt>
      <trkpt lat="45.72871" lon="2.95889">
        <ele>1055.368106</ele>
        <time>2021-07-06T08:50:52+0200</time>
      </trkpt>
      <trkpt lat="45.72867" lon="2.95886">
        <ele>1054.960329</ele>
        <time>2021-07-06T08:50:54+0200</time>
      </trkpt>
      <trkpt lat="45.72865" lon="2.95877">
        <ele>1051.984774</ele>
        <time>2021-07-06T08:50:56+0200</time>
      </trkpt>
      <trkpt lat="45.72861" lon="2.9587">
        <ele>1052.304882</ele>
        <time>2021-07-06T08:50:58+0200</time>
      </trkpt>
      <trkpt lat="45.72857" lon="2.95863">
        <ele>1052.581267</ele>
        <time>2021-07-06T08:51:00+0200</time>
      </trkpt>
      <trkpt lat="45.72854" lon="2.95857">
        <ele>1052.938689</ele>
        <time>2021-07-06T08:51:03+0200</time>
      </trkpt>
      <trkpt lat="45.72851" lon="2.95851">
        <ele>1054.18185</ele>
        <time>2021-07-06T08:51:05+0200</time>
      </trkpt>
      <trkpt lat="45.72848" lon="2.95843">
        <ele>1053.840683</ele>
        <time>2021-07-06T08:51:07+0200</time>
      </trkpt>
      <trkpt lat="45.72845" lon="2.95838">
        <ele>1052.988385</ele>
        <time>2021-07-06T08:51:09+0200</time>
      </trkpt>
      <trkpt lat="45.72843" lon="2.95831">
        <ele>1054.35817</ele>
        <time>2021-07-06T08:51:12+0200</time>
      </trkpt>
      <trkpt lat="45.72839" lon="2.95827">
        <ele>1054.497113</ele>
        <time>2021-07-06T08:51:14+0200</time>
      </trkpt>
      <trkpt lat="45.72837" lon="2.95821">
        <ele>1055.209333</ele>
        <time>2021-07-06T08:51:16+0200</time>
      </trkpt>
      <trkpt lat="45.72833" lon="2.95815">
        <ele>1055.727373</ele>
        <time>2021-07-06T08:51:18+0200</time>
      </trkpt>
      <trkpt lat="45.72831" lon="2.95809">
        <ele>1055.330072</ele>
        <time>2021-07-06T08:51:21+0200</time>
      </trkpt>
      <trkpt lat="45.72828" lon="2.95802">
        <ele>1055.938658</ele>
        <time>2021-07-06T08:51:23+0200</time>
      </trkpt>
      <trkpt lat="45.72823" lon="2.95798">
        <ele>1055.420446</ele>
        <time>2021-07-06T08:51:25+0200</time>
      </trkpt>
      <trkpt lat="45.7282" lon="2.95794">
        <ele>1056.509085</ele>
        <time>2021-07-06T08:51:27+0200</time>
      </trkpt>
      <trkpt lat="45.72816" lon="2.95787">
        <ele>1056.535168</ele>
        <time>2021-07-06T08:51:29+0200</time>
      </trkpt>
      <trkpt lat="45.72812" lon="2.95781">
        <ele>1058.218718</ele>
        <time>2021-07-06T08:51:31+0200</time>
      </trkpt>
      <trkpt lat="45.72808" lon="2.95776">
        <ele>1058.045577</ele>
        <time>2021-07-06T08:51:33+0200</time>
      </trkpt>
      <trkpt lat="45.72804" lon="2.95772">
        <ele>1059.191911</ele>
        <time>2021-07-06T08:51:35+0200</time>
      </trkpt>
      <trkpt lat="45.72801" lon="2.95765">
        <ele>1058.358902</ele>
        <time>2021-07-06T08:51:37+0200</time>
      </trkpt>
      <trkpt lat="45.72797" lon="2.95761">
        <ele>1058.961035</ele>
        <time>2021-07-06T08:51:39+0200</time>
      </trkpt>
      <trkpt lat="45.72793" lon="2.95752">
        <ele>1059.180119</ele>
        <time>2021-07-06T08:51:42+0200</time>
      </trkpt>
      <trkpt lat="45.72791" lon="2.95746">
        <ele>1058.659354</ele>
        <time>2021-07-06T08:51:43+0200</time>
      </trkpt>
      <trkpt lat="45.72787" lon="2.95741">
        <ele>1058.164393</ele>
        <time>2021-07-06T08:51:45+0200</time>
      </trkpt>
      <trkpt lat="45.72784" lon="2.95735">
        <ele>1058.338525</ele>
        <time>2021-07-06T08:51:47+0200</time>
      </trkpt>
      <trkpt lat="45.7278" lon="2.95731">
        <ele>1058.946348</ele>
        <time>2021-07-06T08:51:49+0200</time>
      </trkpt>
      <trkpt lat="45.72774" lon="2.9572">
        <ele>1058.675719</ele>
        <time>2021-07-06T08:51:52+0200</time>
      </trkpt>
      <trkpt lat="45.7277" lon="2.95714">
        <ele>1060.109152</ele>
        <time>2021-07-06T08:51:54+0200</time>
      </trkpt>
      <trkpt lat="45.72766" lon="2.9571">
        <ele>1060.536404</ele>
        <time>2021-07-06T08:51:57+0200</time>
      </trkpt>
      <trkpt lat="45.72762" lon="2.95703">
        <ele>1061.268844</ele>
        <time>2021-07-06T08:51:59+0200</time>
      </trkpt>
      <trkpt lat="45.72758" lon="2.95698">
        <ele>1062.555568</ele>
        <time>2021-07-06T08:52:02+0200</time>
      </trkpt>
      <trkpt lat="45.72754" lon="2.95693">
        <ele>1062.699368</ele>
        <time>2021-07-06T08:52:04+0200</time>
      </trkpt>
      <trkpt lat="45.7275" lon="2.95688">
        <ele>1062.146332</ele>
        <time>2021-07-06T08:52:06+0200</time>
      </trkpt>
      <trkpt lat="45.72745" lon="2.95684">
        <ele>1061.728303</ele>
        <time>2021-07-06T08:52:09+0200</time>
      </trkpt>
      <trkpt lat="45.72741" lon="2.95679">
        <ele>1062.124741</ele>
        <time>2021-07-06T08:52:11+0200</time>
      </trkpt>
      <trkpt lat="45.72735" lon="2.95674">
        <ele>1061.462176</ele>
        <time>2021-07-06T08:52:14+0200</time>
      </trkpt>
      <trkpt lat="45.72731" lon="2.95669">
        <ele>1060.880134</ele>
        <time>2021-07-06T08:52:16+0200</time>
      </trkpt>
      <trkpt lat="45.72728" lon="2.95664">
        <ele>1061.138716</ele>
        <time>2021-07-06T08:52:18+0200</time>
      </trkpt>
      <trkpt lat="45.72724" lon="2.9566">
        <ele>1062.167715</ele>
        <time>2021-07-06T08:52:21+0200</time>
      </trkpt>
      <trkpt lat="45.7272" lon="2.95653">
        <ele>1061.842829</ele>
        <time>2021-07-06T08:52:23+0200</time>
      </trkpt>
      <trkpt lat="45.72715" lon="2.95648">
        <ele>1062.713529</ele>
        <time>2021-07-06T08:52:27+0200</time>
      </trkpt>
      <trkpt lat="45.72711" lon="2.95644">
        <ele>1060.970392</ele>
        <time>2021-07-06T08:52:29+0200</time>
      </trkpt>
      <trkpt lat="45.72707" lon="2.95646">
        <ele>1061.33845</ele>
        <time>2021-07-06T08:52:31+0200</time>
      </trkpt>
      <trkpt lat="45.72702" lon="2.95645">
        <ele>1062.807952</ele>
        <time>2021-07-06T08:52:34+0200</time>
      </trkpt>
      <trkpt lat="45.72697" lon="2.95643">
        <ele>1061.947884</ele>
        <time>2021-07-06T08:52:36+0200</time>
      </trkpt>
      <trkpt lat="45.72692" lon="2.9564">
        <ele>1061.130763</ele>
        <time>2021-07-06T08:52:39+0200</time>
      </trkpt>
      <trkpt lat="45.72687" lon="2.95638">
        <ele>1060.539262</ele>
        <time>2021-07-06T08:52:41+0200</time>
      </trkpt>
      <trkpt lat="45.72681" lon="2.95638">
        <ele>1061.52368</ele>
        <time>2021-07-06T08:52:44+0200</time>
      </trkpt>
      <trkpt lat="45.72677" lon="2.95637">
        <ele>1061.930489</ele>
        <time>2021-07-06T08:52:46+0200</time>
      </trkpt>
      <trkpt lat="45.72672" lon="2.9564">
        <ele>1062.53916</ele>
        <time>2021-07-06T08:52:50+0200</time>
      </trkpt>
      <trkpt lat="45.72667" lon="2.95643">
        <ele>1062.665798</ele>
        <time>2021-07-06T08:52:53+0200</time>
      </trkpt>
      <trkpt lat="45.72662" lon="2.95647">
        <ele>1062.492191</ele>
        <time>2021-07-06T08:52:55+0200</time>
      </trkpt>
      <trkpt lat="45.72655" lon="2.95648">
        <ele>1062.14971</ele>
        <time>2021-07-06T08:52:57+0200</time>
      </trkpt>
      <trkpt lat="45.72651" lon="2.95648">
        <ele>1063.37663</ele>
        <time>2021-07-06T08:52:58+0200</time>
      </trkpt>
      <trkpt lat="45.72646" lon="2.9565">
        <ele>1064.384762</ele>
        <time>2021-07-06T08:53:00+0200</time>
      </trkpt>
      <trkpt lat="45.72641" lon="2.95649">
        <ele>1063.616062</ele>
        <time>2021-07-06T08:53:02+0200</time>
      </trkpt>
      <trkpt lat="45.72635" lon="2.95646">
        <ele>1063.316382</ele>
        <time>2021-07-06T08:53:04+0200</time>
      </trkpt>
      <trkpt lat="45.72628" lon="2.95645">
        <ele>1063.137925</ele>
        <time>2021-07-06T08:53:07+0200</time>
      </trkpt>
      <trkpt lat="45.72623" lon="2.95642">
        <ele>1063.395572</ele>
        <time>2021-07-06T08:53:09+0200</time>
      </trkpt>
      <trkpt lat="45.72616" lon="2.95643">
        <ele>1062.61655</ele>
        <time>2021-07-06T08:53:11+0200</time>
      </trkpt>
      <trkpt lat="45.72611" lon="2.95641">
        <ele>1062.735057</ele>
        <time>2021-07-06T08:53:13+0200</time>
      </trkpt>
      <trkpt lat="45.72604" lon="2.95638">
        <ele>1062.846556</ele>
        <time>2021-07-06T08:53:16+0200</time>
      </trkpt>
      <trkpt lat="45.72599" lon="2.95637">
        <ele>1062.083241</ele>
        <time>2021-07-06T08:53:19+0200</time>
      </trkpt>
      <trkpt lat="45.72594" lon="2.95636">
        <ele>1063.561266</ele>
        <time>2021-07-06T08:53:21+0200</time>
      </trkpt>
      <trkpt lat="45.72588" lon="2.95636">
        <ele>1064.06469</ele>
        <time>2021-07-06T08:53:24+0200</time>
      </trkpt>
      <trkpt lat="45.72583" lon="2.95632">
        <ele>1065.64992</ele>
        <time>2021-07-06T08:53:26+0200</time>
      </trkpt>
      <trkpt lat="45.72579" lon="2.95629">
        <ele>1066.061879</ele>
        <time>2021-07-06T08:53:28+0200</time>
      </trkpt>
      <trkpt lat="45.72573" lon="2.95624">
        <ele>1065.715522</ele>
        <time>2021-07-06T08:53:31+0200</time>
      </trkpt>
      <trkpt lat="45.72568" lon="2.95617">
        <ele>1065.838447</ele>
        <time>2021-07-06T08:53:34+0200</time>
      </trkpt>
      <trkpt lat="45.72563" lon="2.95614">
        <ele>1066.310143</ele>
        <time>2021-07-06T08:53:36+0200</time>
      </trkpt>
      <trkpt lat="45.72559" lon="2.95608">
        <ele>1066.595392</ele>
        <time>2021-07-06T08:53:38+0200</time>
      </trkpt>
      <trkpt lat="45.72555" lon="2.95605">
        <ele>1067.278252</ele>
        <time>2021-07-06T08:53:40+0200</time>
      </trkpt>
      <trkpt lat="45.7255" lon="2.95603">
        <ele>1069.334223</ele>
        <time>2021-07-06T08:53:44+0200</time>
      </trkpt>
      <trkpt lat="45.72544" lon="2.95598">
        <ele>1069.325611</ele>
        <time>2021-07-06T08:53:47+0200</time>
      </trkpt>
      <trkpt lat="45.7254" lon="2.95593">
        <ele>1069.667064</ele>
        <time>2021-07-06T08:53:49+0200</time>
      </trkpt>
      <trkpt lat="45.72536" lon="2.9559">
        <ele>1070.252641</ele>
        <time>2021-07-06T08:53:51+0200</time>
      </trkpt>
      <trkpt lat="45.72532" lon="2.95587">
        <ele>1070.815652</ele>
        <time>2021-07-06T08:53:53+0200</time>
      </trkpt>
      <trkpt lat="45.72527" lon="2.95579">
        <ele>1069.849469</ele>
        <time>2021-07-06T08:53:55+0200</time>
      </trkpt>
      <trkpt lat="45.72521" lon="2.95571">
        <ele>1068.136233</ele>
        <time>2021-07-06T08:53:57+0200</time>
      </trkpt>
      <trkpt lat="45.72514" lon="2.95567">
        <ele>1066.632519</ele>
        <time>2021-07-06T08:53:59+0200</time>
      </trkpt>
      <trkpt lat="45.7251" lon="2.95563">
        <ele>1066.621678</ele>
        <time>2021-07-06T08:54:01+0200</time>
      </trkpt>
      <trkpt lat="45.72506" lon="2.95558">
        <ele>1067.533169</ele>
        <time>2021-07-06T08:54:03+0200</time>
      </trkpt>
      <trkpt lat="45.72502" lon="2.95556">
        <ele>1070.211721</ele>
        <time>2021-07-06T08:54:06+0200</time>
      </trkpt>
      <trkpt lat="45.72497" lon="2.9555">
        <ele>1071.033736</ele>
        <time>2021-07-06T08:54:09+0200</time>
      </trkpt>
      <trkpt lat="45.72491" lon="2.95549">
        <ele>1072.398101</ele>
        <time>2021-07-06T08:54:12+0200</time>
      </trkpt>
      <trkpt lat="45.72485" lon="2.95542">
        <ele>1070.393603</ele>
        <time>2021-07-06T08:54:16+0200</time>
      </trkpt>
      <trkpt lat="45.72481" lon="2.95535">
        <ele>1069.838857</ele>
        <time>2021-07-06T08:54:19+0200</time>
      </trkpt>
      <trkpt lat="45.72477" lon="2.9553">
        <ele>1070.685782</ele>
        <time>2021-07-06T08:54:22+0200</time>
      </trkpt>
      <trkpt lat="45.72472" lon="2.95528">
        <ele>1070.081855</ele>
        <time>2021-07-06T08:54:25+0200</time>
      </trkpt>
      <trkpt lat="45.72468" lon="2.95525">
        <ele>1071.312806</ele>
        <time>2021-07-06T08:54:28+0200</time>
      </trkpt>
      <trkpt lat="45.72463" lon="2.95522">
        <ele>1072.903234</ele>
        <time>2021-07-06T08:54:31+0200</time>
      </trkpt>
      <trkpt lat="45.72459" lon="2.95519">
        <ele>1073.822407</ele>
        <time>2021-07-06T08:54:34+0200</time>
      </trkpt>
      <trkpt lat="45.7246" lon="2.95511">
        <ele>1071.113461</ele>
        <time>2021-07-06T08:55:04+0200</time>
      </trkpt>
      <trkpt lat="45.72464" lon="2.95507">
        <ele>1067.071727</ele>
        <time>2021-07-06T08:55:32+0200</time>
      </trkpt>
      <trkpt lat="45.72459" lon="2.95506">
        <ele>1073.525687</ele>
        <time>2021-07-06T08:56:08+0200</time>
      </trkpt>
      <trkpt lat="45.72459" lon="2.95513">
        <ele>1070.590974</ele>
        <time>2021-07-06T08:56:36+0200</time>
      </trkpt>
      <trkpt lat="45.72457" lon="2.95519">
        <ele>1066.564544</ele>
        <time>2021-07-06T08:56:50+0200</time>
      </trkpt>
      <trkpt lat="45.72456" lon="2.95512">
        <ele>1066.954402</ele>
        <time>2021-07-06T08:56:55+0200</time>
      </trkpt>
      <trkpt lat="45.72459" lon="2.95518">
        <ele>1069.222204</ele>
        <time>2021-07-06T08:57:05+0200</time>
      </trkpt>
      <trkpt lat="45.72459" lon="2.95524">
        <ele>1069.73232</ele>
        <time>2021-07-06T08:57:12+0200</time>
      </trkpt>
      <trkpt lat="45.7246" lon="2.95532">
        <ele>1070.305528</ele>
        <time>2021-07-06T08:57:15+0200</time>
      </trkpt>
      <trkpt lat="45.72459" lon="2.9554">
        <ele>1068.946249</ele>
        <time>2021-07-06T08:57:21+0200</time>
      </trkpt>
      <trkpt lat="45.72458" lon="2.95549">
        <ele>1068.396687</ele>
        <time>2021-07-06T08:57:23+0200</time>
      </trkpt>
      <trkpt lat="45.72462" lon="2.95543">
        <ele>1067.855243</ele>
        <time>2021-07-06T08:57:26+0200</time>
      </trkpt>
      <trkpt lat="45.72466" lon="2.95543">
        <ele>1067.548555</ele>
        <time>2021-07-06T08:57:31+0200</time>
      </trkpt>
      <trkpt lat="45.72467" lon="2.95529">
        <ele>1067.499152</ele>
        <time>2021-07-06T08:57:34+0200</time>
      </trkpt>
      <trkpt lat="45.72468" lon="2.95522">
        <ele>1067.900433</ele>
        <time>2021-07-06T08:57:35+0200</time>
      </trkpt>
      <trkpt lat="45.72463" lon="2.95523">
        <ele>1069.319376</ele>
        <time>2021-07-06T08:57:38+0200</time>
      </trkpt>
      <trkpt lat="45.72457" lon="2.95521">
        <ele>1069.752201</ele>
        <time>2021-07-06T08:57:40+0200</time>
      </trkpt>
      <trkpt lat="45.72451" lon="2.9552">
        <ele>1070.860201</ele>
        <time>2021-07-06T08:57:44+0200</time>
      </trkpt>
      <trkpt lat="45.72455" lon="2.95515">
        <ele>1071.151472</ele>
        <time>2021-07-06T08:57:46+0200</time>
      </trkpt>
      <trkpt lat="45.72451" lon="2.95519">
        <ele>1071.479907</ele>
        <time>2021-07-06T08:57:52+0200</time>
      </trkpt>
      <trkpt lat="45.72452" lon="2.95512">
        <ele>1070.486667</ele>
        <time>2021-07-06T08:58:03+0200</time>
      </trkpt>
      <trkpt lat="45.72457" lon="2.95508">
        <ele>1070.4708</ele>
        <time>2021-07-06T08:58:07+0200</time>
      </trkpt>
      <trkpt lat="45.72462" lon="2.95504">
        <ele>1071.080121</ele>
        <time>2021-07-06T08:58:11+0200</time>
      </trkpt>
      <trkpt lat="45.72456" lon="2.9551">
        <ele>1071.494146</ele>
        <time>2021-07-06T08:58:18+0200</time>
      </trkpt>
      <trkpt lat="45.7246" lon="2.95516">
        <ele>1072.098248</ele>
        <time>2021-07-06T08:58:21+0200</time>
      </trkpt>
      <trkpt lat="45.72458" lon="2.9551">
        <ele>1071.680336</ele>
        <time>2021-07-06T08:58:28+0200</time>
      </trkpt>
      <trkpt lat="45.72453" lon="2.95508">
        <ele>1072.364236</ele>
        <time>2021-07-06T08:58:34+0200</time>
      </trkpt>
      <trkpt lat="45.72449" lon="2.95505">
        <ele>1073.270361</ele>
        <time>2021-07-06T08:58:37+0200</time>
      </trkpt>
      <trkpt lat="45.72445" lon="2.95498">
        <ele>1073.47013</ele>
        <time>2021-07-06T08:58:40+0200</time>
      </trkpt>
      <trkpt lat="45.7244" lon="2.95497">
        <ele>1075.338439</ele>
        <time>2021-07-06T08:58:44+0200</time>
      </trkpt>
      <trkpt lat="45.72435" lon="2.95492">
        <ele>1075.300813</ele>
        <time>2021-07-06T08:58:47+0200</time>
      </trkpt>
      <trkpt lat="45.72431" lon="2.95488">
        <ele>1074.687854</ele>
        <time>2021-07-06T08:58:49+0200</time>
      </trkpt>
      <trkpt lat="45.72427" lon="2.9548">
        <ele>1073.307664</ele>
        <time>2021-07-06T08:58:52+0200</time>
      </trkpt>
      <trkpt lat="45.72423" lon="2.95476">
        <ele>1074.602618</ele>
        <time>2021-07-06T08:58:55+0200</time>
      </trkpt>
      <trkpt lat="45.7242" lon="2.95471">
        <ele>1074.957214</ele>
        <time>2021-07-06T08:58:59+0200</time>
      </trkpt>
      <trkpt lat="45.72414" lon="2.95466">
        <ele>1075.096888</ele>
        <time>2021-07-06T08:59:03+0200</time>
      </trkpt>
      <trkpt lat="45.7241" lon="2.95462">
        <ele>1076.202157</ele>
        <time>2021-07-06T08:59:06+0200</time>
      </trkpt>
      <trkpt lat="45.72409" lon="2.95456">
        <ele>1076.544357</ele>
        <time>2021-07-06T08:59:08+0200</time>
      </trkpt>
      <trkpt lat="45.72405" lon="2.95449">
        <ele>1077.329175</ele>
        <time>2021-07-06T08:59:10+0200</time>
      </trkpt>
      <trkpt lat="45.72403" lon="2.95444">
        <ele>1076.488645</ele>
        <time>2021-07-06T08:59:12+0200</time>
      </trkpt>
      <trkpt lat="45.72399" lon="2.9544">
        <ele>1077.162654</ele>
        <time>2021-07-06T08:59:15+0200</time>
      </trkpt>
      <trkpt lat="45.72398" lon="2.95432">
        <ele>1076.744901</ele>
        <time>2021-07-06T08:59:17+0200</time>
      </trkpt>
      <trkpt lat="45.72392" lon="2.95432">
        <ele>1077.758127</ele>
        <time>2021-07-06T08:59:21+0200</time>
      </trkpt>
      <trkpt lat="45.72388" lon="2.95428">
        <ele>1078.073313</ele>
        <time>2021-07-06T08:59:25+0200</time>
      </trkpt>
      <trkpt lat="45.72383" lon="2.95425">
        <ele>1080.198751</ele>
        <time>2021-07-06T08:59:30+0200</time>
      </trkpt>
      <trkpt lat="45.72379" lon="2.95421">
        <ele>1079.744305</ele>
        <time>2021-07-06T08:59:36+0200</time>
      </trkpt>
      <trkpt lat="45.72375" lon="2.95413">
        <ele>1079.490915</ele>
        <time>2021-07-06T08:59:38+0200</time>
      </trkpt>
      <trkpt lat="45.72371" lon="2.95409">
        <ele>1079.729147</ele>
        <time>2021-07-06T08:59:40+0200</time>
      </trkpt>
      <trkpt lat="45.72367" lon="2.95405">
        <ele>1079.622449</ele>
        <time>2021-07-06T08:59:43+0200</time>
      </trkpt>
      <trkpt lat="45.72364" lon="2.954">
        <ele>1080.971656</ele>
        <time>2021-07-06T08:59:46+0200</time>
      </trkpt>
      <trkpt lat="45.7236" lon="2.95396">
        <ele>1081.223988</ele>
        <time>2021-07-06T08:59:50+0200</time>
      </trkpt>
      <trkpt lat="45.72356" lon="2.95393">
        <ele>1082.871425</ele>
        <time>2021-07-06T08:59:54+0200</time>
      </trkpt>
      <trkpt lat="45.72352" lon="2.95385">
        <ele>1084.154575</ele>
        <time>2021-07-06T08:59:58+0200</time>
      </trkpt>
      <trkpt lat="45.72348" lon="2.9538">
        <ele>1083.848048</ele>
        <time>2021-07-06T09:00:01+0200</time>
      </trkpt>
      <trkpt lat="45.72346" lon="2.95374">
        <ele>1084.510351</ele>
        <time>2021-07-06T09:00:04+0200</time>
      </trkpt>
      <trkpt lat="45.72342" lon="2.95367">
        <ele>1085.407546</ele>
        <time>2021-07-06T09:00:08+0200</time>
      </trkpt>
      <trkpt lat="45.72339" lon="2.95363">
        <ele>1085.353003</ele>
        <time>2021-07-06T09:00:11+0200</time>
      </trkpt>
      <trkpt lat="45.72334" lon="2.95356">
        <ele>1086.277594</ele>
        <time>2021-07-06T09:00:14+0200</time>
      </trkpt>
      <trkpt lat="45.7233" lon="2.9535">
        <ele>1086.241736</ele>
        <time>2021-07-06T09:00:17+0200</time>
      </trkpt>
      <trkpt lat="45.72325" lon="2.95346">
        <ele>1086.886548</ele>
        <time>2021-07-06T09:00:20+0200</time>
      </trkpt>
      <trkpt lat="45.7232" lon="2.95343">
        <ele>1088.452707</ele>
        <time>2021-07-06T09:00:23+0200</time>
      </trkpt>
      <trkpt lat="45.72316" lon="2.9534">
        <ele>1090.509794</ele>
        <time>2021-07-06T09:00:26+0200</time>
      </trkpt>
      <trkpt lat="45.72311" lon="2.95338">
        <ele>1090.989392</ele>
        <time>2021-07-06T09:00:29+0200</time>
      </trkpt>
      <trkpt lat="45.72306" lon="2.95334">
        <ele>1090.508294</ele>
        <time>2021-07-06T09:00:32+0200</time>
      </trkpt>
      <trkpt lat="45.72303" lon="2.95328">
        <ele>1089.121497</ele>
        <time>2021-07-06T09:00:35+0200</time>
      </trkpt>
      <trkpt lat="45.72299" lon="2.95322">
        <ele>1087.504734</ele>
        <time>2021-07-06T09:00:38+0200</time>
      </trkpt>
      <trkpt lat="45.72294" lon="2.95311">
        <ele>1085.365823</ele>
        <time>2021-07-06T09:00:42+0200</time>
      </trkpt>
      <trkpt lat="45.72291" lon="2.95306">
        <ele>1085.062723</ele>
        <time>2021-07-06T09:00:45+0200</time>
      </trkpt>
      <trkpt lat="45.72286" lon="2.95301">
        <ele>1086.553611</ele>
        <time>2021-07-06T09:00:48+0200</time>
      </trkpt>
      <trkpt lat="45.72281" lon="2.95298">
        <ele>1087.191194</ele>
        <time>2021-07-06T09:00:50+0200</time>
      </trkpt>
      <trkpt lat="45.72276" lon="2.95294">
        <ele>1089.078533</ele>
        <time>2021-07-06T09:00:54+0200</time>
      </trkpt>
      <trkpt lat="45.72272" lon="2.95288">
        <ele>1090.29243</ele>
        <time>2021-07-06T09:00:57+0200</time>
      </trkpt>
      <trkpt lat="45.72269" lon="2.95281">
        <ele>1089.638484</ele>
        <time>2021-07-06T09:01:00+0200</time>
      </trkpt>
      <trkpt lat="45.72266" lon="2.95274">
        <ele>1089.623144</ele>
        <time>2021-07-06T09:01:03+0200</time>
      </trkpt>
      <trkpt lat="45.72264" lon="2.95269">
        <ele>1089.655512</ele>
        <time>2021-07-06T09:01:05+0200</time>
      </trkpt>
      <trkpt lat="45.7226" lon="2.95263">
        <ele>1090.451397</ele>
        <time>2021-07-06T09:01:07+0200</time>
      </trkpt>
      <trkpt lat="45.72253" lon="2.95257">
        <ele>1089.584499</ele>
        <time>2021-07-06T09:01:09+0200</time>
      </trkpt>
      <trkpt lat="45.72244" lon="2.95253">
        <ele>1089.877441</ele>
        <time>2021-07-06T09:01:11+0200</time>
      </trkpt>
      <trkpt lat="45.7224" lon="2.95247">
        <ele>1091.285627</ele>
        <time>2021-07-06T09:01:13+0200</time>
      </trkpt>
      <trkpt lat="45.72233" lon="2.95244">
        <ele>1091.453563</ele>
        <time>2021-07-06T09:01:16+0200</time>
      </trkpt>
      <trkpt lat="45.72227" lon="2.9524">
        <ele>1091.199952</ele>
        <time>2021-07-06T09:01:18+0200</time>
      </trkpt>
      <trkpt lat="45.72223" lon="2.95234">
        <ele>1091.632072</ele>
        <time>2021-07-06T09:01:20+0200</time>
      </trkpt>
      <trkpt lat="45.7222" lon="2.95227">
        <ele>1092.744881</ele>
        <time>2021-07-06T09:01:22+0200</time>
      </trkpt>
      <trkpt lat="45.72217" lon="2.95221">
        <ele>1092.54892</ele>
        <time>2021-07-06T09:01:24+0200</time>
      </trkpt>
      <trkpt lat="45.72213" lon="2.95213">
        <ele>1095.590611</ele>
        <time>2021-07-06T09:01:27+0200</time>
      </trkpt>
      <trkpt lat="45.72211" lon="2.95205">
        <ele>1097.205948</ele>
        <time>2021-07-06T09:01:30+0200</time>
      </trkpt>
      <trkpt lat="45.72205" lon="2.95205">
        <ele>1099.796316</ele>
        <time>2021-07-06T09:01:34+0200</time>
      </trkpt>
      <trkpt lat="45.72202" lon="2.95209">
        <ele>1099.863856</ele>
        <time>2021-07-06T09:01:36+0200</time>
      </trkpt>
      <trkpt lat="45.72197" lon="2.95214">
        <ele>1097.238082</ele>
        <time>2021-07-06T09:01:39+0200</time>
      </trkpt>
      <trkpt lat="45.72193" lon="2.95216">
        <ele>1096.395625</ele>
        <time>2021-07-06T09:01:41+0200</time>
      </trkpt>
      <trkpt lat="45.72188" lon="2.95215">
        <ele>1095.472661</ele>
        <time>2021-07-06T09:01:43+0200</time>
      </trkpt>
      <trkpt lat="45.72182" lon="2.9521">
        <ele>1095.715444</ele>
        <time>2021-07-06T09:01:45+0200</time>
      </trkpt>
      <trkpt lat="45.72179" lon="2.95206">
        <ele>1095.510781</ele>
        <time>2021-07-06T09:01:46+0200</time>
      </trkpt>
      <trkpt lat="45.72172" lon="2.95201">
        <ele>1095.315614</ele>
        <time>2021-07-06T09:01:48+0200</time>
      </trkpt>
      <trkpt lat="45.72168" lon="2.95197">
        <ele>1095.100954</ele>
        <time>2021-07-06T09:01:49+0200</time>
      </trkpt>
      <trkpt lat="45.72162" lon="2.9519">
        <ele>1095.447389</ele>
        <time>2021-07-06T09:01:51+0200</time>
      </trkpt>
      <trkpt lat="45.72158" lon="2.95188">
        <ele>1095.035748</ele>
        <time>2021-07-06T09:01:52+0200</time>
      </trkpt>
      <trkpt lat="45.72151" lon="2.95182">
        <ele>1094.245566</ele>
        <time>2021-07-06T09:01:54+0200</time>
      </trkpt>
      <trkpt lat="45.72146" lon="2.9518">
        <ele>1094.139316</ele>
        <time>2021-07-06T09:01:55+0200</time>
      </trkpt>
      <trkpt lat="45.72141" lon="2.95176">
        <ele>1092.994637</ele>
        <time>2021-07-06T09:01:56+0200</time>
      </trkpt>
      <trkpt lat="45.72136" lon="2.95172">
        <ele>1091.78936</ele>
        <time>2021-07-06T09:01:57+0200</time>
      </trkpt>
      <trkpt lat="45.7213" lon="2.95172">
        <ele>1091.019615</ele>
        <time>2021-07-06T09:01:58+0200</time>
      </trkpt>
      <trkpt lat="45.72125" lon="2.9517">
        <ele>1090.874597</ele>
        <time>2021-07-06T09:01:59+0200</time>
      </trkpt>
      <trkpt lat="45.72121" lon="2.95166">
        <ele>1091.008574</ele>
        <time>2021-07-06T09:02:00+0200</time>
      </trkpt>
      <trkpt lat="45.72118" lon="2.95161">
        <ele>1091.488097</ele>
        <time>2021-07-06T09:02:01+0200</time>
      </trkpt>
      <trkpt lat="45.72112" lon="2.95162">
        <ele>1093.514723</ele>
        <time>2021-07-06T09:02:02+0200</time>
      </trkpt>
      <trkpt lat="45.72104" lon="2.95159">
        <ele>1093.001446</ele>
        <time>2021-07-06T09:02:04+0200</time>
      </trkpt>
      <trkpt lat="45.72096" lon="2.95156">
        <ele>1091.172676</ele>
        <time>2021-07-06T09:02:06+0200</time>
      </trkpt>
      <trkpt lat="45.7209" lon="2.95155">
        <ele>1090.601807</ele>
        <time>2021-07-06T09:02:07+0200</time>
      </trkpt>
      <trkpt lat="45.72086" lon="2.95151">
        <ele>1089.074197</ele>
        <time>2021-07-06T09:02:08+0200</time>
      </trkpt>
      <trkpt lat="45.72078" lon="2.95152">
        <ele>1088.269414</ele>
        <time>2021-07-06T09:02:09+0200</time>
      </trkpt>
      <trkpt lat="45.72074" lon="2.95148">
        <ele>1088.467615</ele>
        <time>2021-07-06T09:02:10+0200</time>
      </trkpt>
      <trkpt lat="45.7207" lon="2.95146">
        <ele>1088.294826</ele>
        <time>2021-07-06T09:02:11+0200</time>
      </trkpt>
      <trkpt lat="45.72065" lon="2.95142">
        <ele>1086.993926</ele>
        <time>2021-07-06T09:02:12+0200</time>
      </trkpt>
      <trkpt lat="45.72059" lon="2.95141">
        <ele>1085.82968</ele>
        <time>2021-07-06T09:02:13+0200</time>
      </trkpt>
      <trkpt lat="45.72052" lon="2.95134">
        <ele>1084.201705</ele>
        <time>2021-07-06T09:02:14+0200</time>
      </trkpt>
      <trkpt lat="45.72046" lon="2.9513">
        <ele>1083.002013</ele>
        <time>2021-07-06T09:02:15+0200</time>
      </trkpt>
      <trkpt lat="45.72041" lon="2.95127">
        <ele>1081.568654</ele>
        <time>2021-07-06T09:02:16+0200</time>
      </trkpt>
      <trkpt lat="45.72035" lon="2.95124">
        <ele>1080.546888</ele>
        <time>2021-07-06T09:02:17+0200</time>
      </trkpt>
      <trkpt lat="45.72027" lon="2.95118">
        <ele>1078.930074</ele>
        <time>2021-07-06T09:02:18+0200</time>
      </trkpt>
      <trkpt lat="45.72023" lon="2.95114">
        <ele>1078.405256</ele>
        <time>2021-07-06T09:02:19+0200</time>
      </trkpt>
      <trkpt lat="45.72015" lon="2.95106">
        <ele>1078.871769</ele>
        <time>2021-07-06T09:02:20+0200</time>
      </trkpt>
      <trkpt lat="45.72007" lon="2.95103">
        <ele>1079.885477</ele>
        <time>2021-07-06T09:02:21+0200</time>
      </trkpt>
      <trkpt lat="45.72002" lon="2.951">
        <ele>1078.876743</ele>
        <time>2021-07-06T09:02:22+0200</time>
      </trkpt>
      <trkpt lat="45.71995" lon="2.95098">
        <ele>1077.526586</ele>
        <time>2021-07-06T09:02:23+0200</time>
      </trkpt>
      <trkpt lat="45.7199" lon="2.95097">
        <ele>1076.600882</ele>
        <time>2021-07-06T09:02:24+0200</time>
      </trkpt>
      <trkpt lat="45.71985" lon="2.95095">
        <ele>1077.405911</ele>
        <time>2021-07-06T09:02:25+0200</time>
      </trkpt>
      <trkpt lat="45.7198" lon="2.95092">
        <ele>1078.67573</ele>
        <time>2021-07-06T09:02:26+0200</time>
      </trkpt>
      <trkpt lat="45.71974" lon="2.95087">
        <ele>1077.538306</ele>
        <time>2021-07-06T09:02:27+0200</time>
      </trkpt>
      <trkpt lat="45.71966" lon="2.95084">
        <ele>1076.243375</ele>
        <time>2021-07-06T09:02:28+0200</time>
      </trkpt>
      <trkpt lat="45.71959" lon="2.9508">
        <ele>1075.267441</ele>
        <time>2021-07-06T09:02:29+0200</time>
      </trkpt>
      <trkpt lat="45.71953" lon="2.95078">
        <ele>1075.357419</ele>
        <time>2021-07-06T09:02:30+0200</time>
      </trkpt>
      <trkpt lat="45.71946" lon="2.95072">
        <ele>1075.423132</ele>
        <time>2021-07-06T09:02:31+0200</time>
      </trkpt>
      <trkpt lat="45.71939" lon="2.95069">
        <ele>1074.974344</ele>
        <time>2021-07-06T09:02:32+0200</time>
      </trkpt>
      <trkpt lat="45.71934" lon="2.95066">
        <ele>1074.471191</ele>
        <time>2021-07-06T09:02:33+0200</time>
      </trkpt>
      <trkpt lat="45.71927" lon="2.95064">
        <ele>1074.019561</ele>
        <time>2021-07-06T09:02:34+0200</time>
      </trkpt>
      <trkpt lat="45.71922" lon="2.95061">
        <ele>1072.407728</ele>
        <time>2021-07-06T09:02:35+0200</time>
      </trkpt>
      <trkpt lat="45.71916" lon="2.95057">
        <ele>1072.497366</ele>
        <time>2021-07-06T09:02:36+0200</time>
      </trkpt>
      <trkpt lat="45.71908" lon="2.95048">
        <ele>1073.462844</ele>
        <time>2021-07-06T09:02:37+0200</time>
      </trkpt>
      <trkpt lat="45.71903" lon="2.95045">
        <ele>1073.515775</ele>
        <time>2021-07-06T09:02:38+0200</time>
      </trkpt>
      <trkpt lat="45.71898" lon="2.95042">
        <ele>1072.651239</ele>
        <time>2021-07-06T09:02:39+0200</time>
      </trkpt>
      <trkpt lat="45.71894" lon="2.95036">
        <ele>1073.286927</ele>
        <time>2021-07-06T09:02:40+0200</time>
      </trkpt>
      <trkpt lat="45.7189" lon="2.95032">
        <ele>1074.57798</ele>
        <time>2021-07-06T09:02:41+0200</time>
      </trkpt>
      <trkpt lat="45.71885" lon="2.9503">
        <ele>1076.039014</ele>
        <time>2021-07-06T09:02:42+0200</time>
      </trkpt>
      <trkpt lat="45.7188" lon="2.95026">
        <ele>1075.984293</ele>
        <time>2021-07-06T09:02:43+0200</time>
      </trkpt>
      <trkpt lat="45.71876" lon="2.95023">
        <ele>1076.735649</ele>
        <time>2021-07-06T09:02:44+0200</time>
      </trkpt>
      <trkpt lat="45.71869" lon="2.95021">
        <ele>1077.061036</ele>
        <time>2021-07-06T09:02:45+0200</time>
      </trkpt>
      <trkpt lat="45.71864" lon="2.95018">
        <ele>1077.608161</ele>
        <time>2021-07-06T09:02:46+0200</time>
      </trkpt>
      <trkpt lat="45.71859" lon="2.95014">
        <ele>1076.436271</ele>
        <time>2021-07-06T09:02:47+0200</time>
      </trkpt>
      <trkpt lat="45.71852" lon="2.95006">
        <ele>1078.049581</ele>
        <time>2021-07-06T09:02:49+0200</time>
      </trkpt>
      <trkpt lat="45.71844" lon="2.95001">
        <ele>1079.278145</ele>
        <time>2021-07-06T09:02:51+0200</time>
      </trkpt>
      <trkpt lat="45.7184" lon="2.94997">
        <ele>1078.50918</ele>
        <time>2021-07-06T09:02:52+0200</time>
      </trkpt>
      <trkpt lat="45.71835" lon="2.94993">
        <ele>1076.330824</ele>
        <time>2021-07-06T09:02:53+0200</time>
      </trkpt>
      <trkpt lat="45.7183" lon="2.94989">
        <ele>1074.461495</ele>
        <time>2021-07-06T09:02:54+0200</time>
      </trkpt>
      <trkpt lat="45.71823" lon="2.94982">
        <ele>1073.828035</ele>
        <time>2021-07-06T09:02:56+0200</time>
      </trkpt>
      <trkpt lat="45.71818" lon="2.94981">
        <ele>1072.366854</ele>
        <time>2021-07-06T09:02:57+0200</time>
      </trkpt>
      <trkpt lat="45.71812" lon="2.94974">
        <ele>1072.550156</ele>
        <time>2021-07-06T09:02:59+0200</time>
      </trkpt>
      <trkpt lat="45.71805" lon="2.9496">
        <ele>1074.60691</ele>
        <time>2021-07-06T09:03:01+0200</time>
      </trkpt>
      <trkpt lat="45.71799" lon="2.94956">
        <ele>1074.627706</ele>
        <time>2021-07-06T09:03:03+0200</time>
      </trkpt>
      <trkpt lat="45.71794" lon="2.94954">
        <ele>1075.766604</ele>
        <time>2021-07-06T09:03:05+0200</time>
      </trkpt>
      <trkpt lat="45.71788" lon="2.94946">
        <ele>1076.24588</ele>
        <time>2021-07-06T09:03:07+0200</time>
      </trkpt>
      <trkpt lat="45.71784" lon="2.94943">
        <ele>1076.917944</ele>
        <time>2021-07-06T09:03:09+0200</time>
      </trkpt>
      <trkpt lat="45.71779" lon="2.94942">
        <ele>1077.891752</ele>
        <time>2021-07-06T09:03:11+0200</time>
      </trkpt>
      <trkpt lat="45.71774" lon="2.94941">
        <ele>1078.379766</ele>
        <time>2021-07-06T09:03:13+0200</time>
      </trkpt>
      <trkpt lat="45.71769" lon="2.94939">
        <ele>1078.033595</ele>
        <time>2021-07-06T09:03:15+0200</time>
      </trkpt>
      <trkpt lat="45.71765" lon="2.94936">
        <ele>1077.568256</ele>
        <time>2021-07-06T09:03:17+0200</time>
      </trkpt>
      <trkpt lat="45.71759" lon="2.9493">
        <ele>1076.791903</ele>
        <time>2021-07-06T09:03:19+0200</time>
      </trkpt>
      <trkpt lat="45.71753" lon="2.94929">
        <ele>1076.121769</ele>
        <time>2021-07-06T09:03:21+0200</time>
      </trkpt>
      <trkpt lat="45.71747" lon="2.94928">
        <ele>1074.81259</ele>
        <time>2021-07-06T09:03:24+0200</time>
      </trkpt>
      <trkpt lat="45.71741" lon="2.94923">
        <ele>1073.922108</ele>
        <time>2021-07-06T09:03:26+0200</time>
      </trkpt>
      <trkpt lat="45.71735" lon="2.94922">
        <ele>1073.669789</ele>
        <time>2021-07-06T09:03:28+0200</time>
      </trkpt>
      <trkpt lat="45.71731" lon="2.94918">
        <ele>1073.970567</ele>
        <time>2021-07-06T09:03:30+0200</time>
      </trkpt>
      <trkpt lat="45.71727" lon="2.94917">
        <ele>1075.38155</ele>
        <time>2021-07-06T09:03:32+0200</time>
      </trkpt>
      <trkpt lat="45.71722" lon="2.94914">
        <ele>1075.914425</ele>
        <time>2021-07-06T09:03:34+0200</time>
      </trkpt>
      <trkpt lat="45.71717" lon="2.94912">
        <ele>1076.909454</ele>
        <time>2021-07-06T09:03:36+0200</time>
      </trkpt>
      <trkpt lat="45.71714" lon="2.94907">
        <ele>1078.882934</ele>
        <time>2021-07-06T09:03:38+0200</time>
      </trkpt>
      <trkpt lat="45.71709" lon="2.94907">
        <ele>1078.362562</ele>
        <time>2021-07-06T09:03:40+0200</time>
      </trkpt>
      <trkpt lat="45.71705" lon="2.94904">
        <ele>1078.679644</ele>
        <time>2021-07-06T09:03:42+0200</time>
      </trkpt>
      <trkpt lat="45.71699" lon="2.94899">
        <ele>1079.420643</ele>
        <time>2021-07-06T09:03:44+0200</time>
      </trkpt>
      <trkpt lat="45.71693" lon="2.94898">
        <ele>1077.973696</ele>
        <time>2021-07-06T09:03:46+0200</time>
      </trkpt>
      <trkpt lat="45.71687" lon="2.94898">
        <ele>1076.862388</ele>
        <time>2021-07-06T09:03:48+0200</time>
      </trkpt>
      <trkpt lat="45.71682" lon="2.94889">
        <ele>1078.85831</ele>
        <time>2021-07-06T09:03:50+0200</time>
      </trkpt>
      <trkpt lat="45.71677" lon="2.94886">
        <ele>1077.639714</ele>
        <time>2021-07-06T09:03:51+0200</time>
      </trkpt>
      <trkpt lat="45.71668" lon="2.94882">
        <ele>1076.27056</ele>
        <time>2021-07-06T09:03:53+0200</time>
      </trkpt>
      <trkpt lat="45.71664" lon="2.94878">
        <ele>1075.682095</ele>
        <time>2021-07-06T09:03:54+0200</time>
      </trkpt>
      <trkpt lat="45.7166" lon="2.94875">
        <ele>1074.990535</ele>
        <time>2021-07-06T09:03:55+0200</time>
      </trkpt>
      <trkpt lat="45.71654" lon="2.94874">
        <ele>1074.462293</ele>
        <time>2021-07-06T09:03:56+0200</time>
      </trkpt>
      <trkpt lat="45.71647" lon="2.94871">
        <ele>1073.777681</ele>
        <time>2021-07-06T09:03:57+0200</time>
      </trkpt>
      <trkpt lat="45.71641" lon="2.9487">
        <ele>1072.699625</ele>
        <time>2021-07-06T09:03:58+0200</time>
      </trkpt>
      <trkpt lat="45.71636" lon="2.9487">
        <ele>1071.26852</ele>
        <time>2021-07-06T09:03:59+0200</time>
      </trkpt>
      <trkpt lat="45.71629" lon="2.94864">
        <ele>1068.504923</ele>
        <time>2021-07-06T09:04:01+0200</time>
      </trkpt>
      <trkpt lat="45.71621" lon="2.94861">
        <ele>1068.867208</ele>
        <time>2021-07-06T09:04:02+0200</time>
      </trkpt>
      <trkpt lat="45.71612" lon="2.9486">
        <ele>1067.623465</ele>
        <time>2021-07-06T09:04:03+0200</time>
      </trkpt>
      <trkpt lat="45.71605" lon="2.94857">
        <ele>1066.328908</ele>
        <time>2021-07-06T09:04:04+0200</time>
      </trkpt>
      <trkpt lat="45.71598" lon="2.94856">
        <ele>1065.205802</ele>
        <time>2021-07-06T09:04:05+0200</time>
      </trkpt>
      <trkpt lat="45.71593" lon="2.94855">
        <ele>1063.816225</ele>
        <time>2021-07-06T09:04:06+0200</time>
      </trkpt>
      <trkpt lat="45.71587" lon="2.94854">
        <ele>1063.470108</ele>
        <time>2021-07-06T09:04:07+0200</time>
      </trkpt>
      <trkpt lat="45.71581" lon="2.9485">
        <ele>1061.986564</ele>
        <time>2021-07-06T09:04:08+0200</time>
      </trkpt>
      <trkpt lat="45.71571" lon="2.94845">
        <ele>1062.943378</ele>
        <time>2021-07-06T09:04:09+0200</time>
      </trkpt>
      <trkpt lat="45.71564" lon="2.94843">
        <ele>1064.209552</ele>
        <time>2021-07-06T09:04:10+0200</time>
      </trkpt>
      <trkpt lat="45.71559" lon="2.94844">
        <ele>1064.131366</ele>
        <time>2021-07-06T09:04:11+0200</time>
      </trkpt>
      <trkpt lat="45.71552" lon="2.94841">
        <ele>1064.498324</ele>
        <time>2021-07-06T09:04:12+0200</time>
      </trkpt>
      <trkpt lat="45.71546" lon="2.9484">
        <ele>1063.082268</ele>
        <time>2021-07-06T09:04:13+0200</time>
      </trkpt>
      <trkpt lat="45.71541" lon="2.94838">
        <ele>1062.347999</ele>
        <time>2021-07-06T09:04:14+0200</time>
      </trkpt>
      <trkpt lat="45.71535" lon="2.94834">
        <ele>1061.776137</ele>
        <time>2021-07-06T09:04:15+0200</time>
      </trkpt>
      <trkpt lat="45.71529" lon="2.94827">
        <ele>1061.870391</ele>
        <time>2021-07-06T09:04:16+0200</time>
      </trkpt>
      <trkpt lat="45.71522" lon="2.94824">
        <ele>1062.373781</ele>
        <time>2021-07-06T09:04:17+0200</time>
      </trkpt>
      <trkpt lat="45.71515" lon="2.94824">
        <ele>1061.179231</ele>
        <time>2021-07-06T09:04:18+0200</time>
      </trkpt>
      <trkpt lat="45.71508" lon="2.94824">
        <ele>1059.824118</ele>
        <time>2021-07-06T09:04:19+0200</time>
      </trkpt>
      <trkpt lat="45.71502" lon="2.94819">
        <ele>1060.493334</ele>
        <time>2021-07-06T09:04:20+0200</time>
      </trkpt>
      <trkpt lat="45.71497" lon="2.94818">
        <ele>1059.760255</ele>
        <time>2021-07-06T09:04:21+0200</time>
      </trkpt>
      <trkpt lat="45.7149" lon="2.94818">
        <ele>1057.653327</ele>
        <time>2021-07-06T09:04:22+0200</time>
      </trkpt>
      <trkpt lat="45.71482" lon="2.94812">
        <ele>1058.765006</ele>
        <time>2021-07-06T09:04:23+0200</time>
      </trkpt>
      <trkpt lat="45.71477" lon="2.94808">
        <ele>1058.251096</ele>
        <time>2021-07-06T09:04:24+0200</time>
      </trkpt>
      <trkpt lat="45.71469" lon="2.94804">
        <ele>1058.399589</ele>
        <time>2021-07-06T09:04:25+0200</time>
      </trkpt>
      <trkpt lat="45.7146" lon="2.94802">
        <ele>1057.724388</ele>
        <time>2021-07-06T09:04:26+0200</time>
      </trkpt>
      <trkpt lat="45.71451" lon="2.94801">
        <ele>1056.254276</ele>
        <time>2021-07-06T09:04:27+0200</time>
      </trkpt>
      <trkpt lat="45.71443" lon="2.94799">
        <ele>1054.909304</ele>
        <time>2021-07-06T09:04:28+0200</time>
      </trkpt>
      <trkpt lat="45.71435" lon="2.94799">
        <ele>1053.784403</ele>
        <time>2021-07-06T09:04:29+0200</time>
      </trkpt>
      <trkpt lat="45.71429" lon="2.94796">
        <ele>1053.565885</ele>
        <time>2021-07-06T09:04:30+0200</time>
      </trkpt>
      <trkpt lat="45.71422" lon="2.94788">
        <ele>1054.317131</ele>
        <time>2021-07-06T09:04:31+0200</time>
      </trkpt>
      <trkpt lat="45.71416" lon="2.94783">
        <ele>1054.001568</ele>
        <time>2021-07-06T09:04:32+0200</time>
      </trkpt>
      <trkpt lat="45.71409" lon="2.94776">
        <ele>1053.998289</ele>
        <time>2021-07-06T09:04:33+0200</time>
      </trkpt>
      <trkpt lat="45.71402" lon="2.94767">
        <ele>1054.067245</ele>
        <time>2021-07-06T09:04:34+0200</time>
      </trkpt>
      <trkpt lat="45.71396" lon="2.94758">
        <ele>1055.352666</ele>
        <time>2021-07-06T09:04:35+0200</time>
      </trkpt>
      <trkpt lat="45.7139" lon="2.94751">
        <ele>1054.61927</ele>
        <time>2021-07-06T09:04:36+0200</time>
      </trkpt>
      <trkpt lat="45.71382" lon="2.94743">
        <ele>1054.78556</ele>
        <time>2021-07-06T09:04:37+0200</time>
      </trkpt>
      <trkpt lat="45.71377" lon="2.94738">
        <ele>1054.53171</ele>
        <time>2021-07-06T09:04:38+0200</time>
      </trkpt>
      <trkpt lat="45.71369" lon="2.9473">
        <ele>1054.222626</ele>
        <time>2021-07-06T09:04:39+0200</time>
      </trkpt>
      <trkpt lat="45.71364" lon="2.94724">
        <ele>1051.951595</ele>
        <time>2021-07-06T09:04:40+0200</time>
      </trkpt>
      <trkpt lat="45.71357" lon="2.94717">
        <ele>1051.371654</ele>
        <time>2021-07-06T09:04:41+0200</time>
      </trkpt>
      <trkpt lat="45.71352" lon="2.94713">
        <ele>1051.70042</ele>
        <time>2021-07-06T09:04:42+0200</time>
      </trkpt>
      <trkpt lat="45.71343" lon="2.9471">
        <ele>1051.794501</ele>
        <time>2021-07-06T09:04:44+0200</time>
      </trkpt>
      <trkpt lat="45.71338" lon="2.94709">
        <ele>1051.441646</ele>
        <time>2021-07-06T09:04:45+0200</time>
      </trkpt>
      <trkpt lat="45.71333" lon="2.94706">
        <ele>1050.350032</ele>
        <time>2021-07-06T09:05:04+0200</time>
      </trkpt>
      <trkpt lat="45.71327" lon="2.94703">
        <ele>1051.024624</ele>
        <time>2021-07-06T09:05:07+0200</time>
      </trkpt>
      <trkpt lat="45.71321" lon="2.94699">
        <ele>1050.871503</ele>
        <time>2021-07-06T09:05:10+0200</time>
      </trkpt>
      <trkpt lat="45.71315" lon="2.94699">
        <ele>1051.3874</ele>
        <time>2021-07-06T09:05:13+0200</time>
      </trkpt>
      <trkpt lat="45.71309" lon="2.94696">
        <ele>1053.008997</ele>
        <time>2021-07-06T09:05:15+0200</time>
      </trkpt>
      <trkpt lat="45.71303" lon="2.94693">
        <ele>1050.731513</ele>
        <time>2021-07-06T09:05:18+0200</time>
      </trkpt>
      <trkpt lat="45.71297" lon="2.94687">
        <ele>1050.153355</ele>
        <time>2021-07-06T09:05:21+0200</time>
      </trkpt>
      <trkpt lat="45.71291" lon="2.94682">
        <ele>1050.75195</ele>
        <time>2021-07-06T09:05:23+0200</time>
      </trkpt>
      <trkpt lat="45.71286" lon="2.94679">
        <ele>1051.572518</ele>
        <time>2021-07-06T09:05:25+0200</time>
      </trkpt>
      <trkpt lat="45.71279" lon="2.94677">
        <ele>1052.380356</ele>
        <time>2021-07-06T09:05:28+0200</time>
      </trkpt>
      <trkpt lat="45.71274" lon="2.94675">
        <ele>1053.149792</ele>
        <time>2021-07-06T09:05:32+0200</time>
      </trkpt>
      <trkpt lat="45.7127" lon="2.94673">
        <ele>1053.998535</ele>
        <time>2021-07-06T09:05:35+0200</time>
      </trkpt>
      <trkpt lat="45.71265" lon="2.94669">
        <ele>1053.6812</ele>
        <time>2021-07-06T09:05:37+0200</time>
      </trkpt>
      <trkpt lat="45.7126" lon="2.94665">
        <ele>1053.366229</ele>
        <time>2021-07-06T09:05:39+0200</time>
      </trkpt>
      <trkpt lat="45.71254" lon="2.94662">
        <ele>1053.916625</ele>
        <time>2021-07-06T09:05:41+0200</time>
      </trkpt>
      <trkpt lat="45.71248" lon="2.94658">
        <ele>1052.030164</ele>
        <time>2021-07-06T09:05:44+0200</time>
      </trkpt>
      <trkpt lat="45.71243" lon="2.94656">
        <ele>1050.388037</ele>
        <time>2021-07-06T09:05:46+0200</time>
      </trkpt>
      <trkpt lat="45.71238" lon="2.94652">
        <ele>1048.708871</ele>
        <time>2021-07-06T09:05:49+0200</time>
      </trkpt>
      <trkpt lat="45.71233" lon="2.94648">
        <ele>1049.471264</ele>
        <time>2021-07-06T09:05:51+0200</time>
      </trkpt>
      <trkpt lat="45.71229" lon="2.94642">
        <ele>1050.91695</ele>
        <time>2021-07-06T09:05:53+0200</time>
      </trkpt>
      <trkpt lat="45.71223" lon="2.94635">
        <ele>1052.107936</ele>
        <time>2021-07-06T09:05:55+0200</time>
      </trkpt>
      <trkpt lat="45.71217" lon="2.94628">
        <ele>1051.232846</ele>
        <time>2021-07-06T09:05:58+0200</time>
      </trkpt>
      <trkpt lat="45.71211" lon="2.9462">
        <ele>1051.421405</ele>
        <time>2021-07-06T09:06:00+0200</time>
      </trkpt>
      <trkpt lat="45.71206" lon="2.94613">
        <ele>1050.576704</ele>
        <time>2021-07-06T09:06:03+0200</time>
      </trkpt>
      <trkpt lat="45.71202" lon="2.94606">
        <ele>1049.990703</ele>
        <time>2021-07-06T09:06:05+0200</time>
      </trkpt>
      <trkpt lat="45.71198" lon="2.94598">
        <ele>1049.641016</ele>
        <time>2021-07-06T09:06:07+0200</time>
      </trkpt>
      <trkpt lat="45.71194" lon="2.94594">
        <ele>1049.068345</ele>
        <time>2021-07-06T09:06:08+0200</time>
      </trkpt>
      <trkpt lat="45.7119" lon="2.94587">
        <ele>1048.552896</ele>
        <time>2021-07-06T09:06:10+0200</time>
      </trkpt>
      <trkpt lat="45.71185" lon="2.94582">
        <ele>1048.784011</ele>
        <time>2021-07-06T09:06:13+0200</time>
      </trkpt>
      <trkpt lat="45.71181" lon="2.94576">
        <ele>1049.77896</ele>
        <time>2021-07-06T09:06:15+0200</time>
      </trkpt>
      <trkpt lat="45.71178" lon="2.94568">
        <ele>1051.151488</ele>
        <time>2021-07-06T09:06:17+0200</time>
      </trkpt>
      <trkpt lat="45.71176" lon="2.9456">
        <ele>1050.585454</ele>
        <time>2021-07-06T09:06:19+0200</time>
      </trkpt>
      <trkpt lat="45.71174" lon="2.94554">
        <ele>1050.422754</ele>
        <time>2021-07-06T09:06:21+0200</time>
      </trkpt>
      <trkpt lat="45.71171" lon="2.94547">
        <ele>1048.39054</ele>
        <time>2021-07-06T09:06:23+0200</time>
      </trkpt>
      <trkpt lat="45.71166" lon="2.94543">
        <ele>1048.102043</ele>
        <time>2021-07-06T09:06:25+0200</time>
      </trkpt>
      <trkpt lat="45.71162" lon="2.94535">
        <ele>1047.840801</ele>
        <time>2021-07-06T09:06:27+0200</time>
      </trkpt>
      <trkpt lat="45.71157" lon="2.94529">
        <ele>1047.96592</ele>
        <time>2021-07-06T09:06:29+0200</time>
      </trkpt>
      <trkpt lat="45.71153" lon="2.9452">
        <ele>1047.23338</ele>
        <time>2021-07-06T09:06:32+0200</time>
      </trkpt>
      <trkpt lat="45.7115" lon="2.94511">
        <ele>1044.997136</ele>
        <time>2021-07-06T09:06:34+0200</time>
      </trkpt>
      <trkpt lat="45.71147" lon="2.94504">
        <ele>1043.69936</ele>
        <time>2021-07-06T09:06:36+0200</time>
      </trkpt>
      <trkpt lat="45.71142" lon="2.945">
        <ele>1043.097223</ele>
        <time>2021-07-06T09:06:38+0200</time>
      </trkpt>
      <trkpt lat="45.7114" lon="2.94492">
        <ele>1042.912743</ele>
        <time>2021-07-06T09:06:39+0200</time>
      </trkpt>
      <trkpt lat="45.71137" lon="2.94487">
        <ele>1043.253104</ele>
        <time>2021-07-06T09:06:40+0200</time>
      </trkpt>
      <trkpt lat="45.71133" lon="2.9448">
        <ele>1042.647663</ele>
        <time>2021-07-06T09:06:42+0200</time>
      </trkpt>
      <trkpt lat="45.71128" lon="2.94474">
        <ele>1043.081342</ele>
        <time>2021-07-06T09:06:44+0200</time>
      </trkpt>
      <trkpt lat="45.71122" lon="2.94466">
        <ele>1043.898919</ele>
        <time>2021-07-06T09:06:46+0200</time>
      </trkpt>
      <trkpt lat="45.71118" lon="2.94462">
        <ele>1043.624992</ele>
        <time>2021-07-06T09:06:48+0200</time>
      </trkpt>
      <trkpt lat="45.71114" lon="2.94451">
        <ele>1042.41938</ele>
        <time>2021-07-06T09:06:50+0200</time>
      </trkpt>
      <trkpt lat="45.7111" lon="2.94442">
        <ele>1042.757045</ele>
        <time>2021-07-06T09:06:52+0200</time>
      </trkpt>
      <trkpt lat="45.71108" lon="2.94435">
        <ele>1042.581085</ele>
        <time>2021-07-06T09:06:53+0200</time>
      </trkpt>
      <trkpt lat="45.71104" lon="2.94428">
        <ele>1042.665419</ele>
        <time>2021-07-06T09:06:55+0200</time>
      </trkpt>
      <trkpt lat="45.71099" lon="2.9442">
        <ele>1043.320136</ele>
        <time>2021-07-06T09:06:57+0200</time>
      </trkpt>
      <trkpt lat="45.71095" lon="2.94412">
        <ele>1044.306224</ele>
        <time>2021-07-06T09:06:59+0200</time>
      </trkpt>
      <trkpt lat="45.71092" lon="2.94404">
        <ele>1043.414035</ele>
        <time>2021-07-06T09:07:01+0200</time>
      </trkpt>
      <trkpt lat="45.71088" lon="2.94397">
        <ele>1042.668412</ele>
        <time>2021-07-06T09:07:03+0200</time>
      </trkpt>
      <trkpt lat="45.71086" lon="2.9439">
        <ele>1042.486006</ele>
        <time>2021-07-06T09:07:04+0200</time>
      </trkpt>
      <trkpt lat="45.71082" lon="2.94382">
        <ele>1042.497422</ele>
        <time>2021-07-06T09:07:05+0200</time>
      </trkpt>
      <trkpt lat="45.71081" lon="2.94375">
        <ele>1041.921569</ele>
        <time>2021-07-06T09:07:06+0200</time>
      </trkpt>
      <trkpt lat="45.71079" lon="2.94367">
        <ele>1040.757407</ele>
        <time>2021-07-06T09:07:07+0200</time>
      </trkpt>
      <trkpt lat="45.71076" lon="2.94356">
        <ele>1041.268959</ele>
        <time>2021-07-06T09:07:08+0200</time>
      </trkpt>
      <trkpt lat="45.71072" lon="2.94348">
        <ele>1042.138123</ele>
        <time>2021-07-06T09:07:09+0200</time>
      </trkpt>
      <trkpt lat="45.71069" lon="2.94341">
        <ele>1041.297561</ele>
        <time>2021-07-06T09:07:10+0200</time>
      </trkpt>
      <trkpt lat="45.71065" lon="2.94335">
        <ele>1041.177399</ele>
        <time>2021-07-06T09:07:11+0200</time>
      </trkpt>
      <trkpt lat="45.7106" lon="2.94328">
        <ele>1040.629017</ele>
        <time>2021-07-06T09:07:12+0200</time>
      </trkpt>
      <trkpt lat="45.71055" lon="2.94324">
        <ele>1040.534061</ele>
        <time>2021-07-06T09:07:13+0200</time>
      </trkpt>
      <trkpt lat="45.71052" lon="2.94317">
        <ele>1039.726432</ele>
        <time>2021-07-06T09:07:15+0200</time>
      </trkpt>
      <trkpt lat="45.7105" lon="2.94311">
        <ele>1041.723725</ele>
        <time>2021-07-06T09:07:17+0200</time>
      </trkpt>
      <trkpt lat="45.71049" lon="2.94304">
        <ele>1043.525821</ele>
        <time>2021-07-06T09:07:20+0200</time>
      </trkpt>
      <trkpt lat="45.71048" lon="2.94297">
        <ele>1042.941477</ele>
        <time>2021-07-06T09:07:23+0200</time>
      </trkpt>
      <trkpt lat="45.71044" lon="2.94293">
        <ele>1042.820576</ele>
        <time>2021-07-06T09:07:25+0200</time>
      </trkpt>
      <trkpt lat="45.71041" lon="2.94288">
        <ele>1043.764388</ele>
        <time>2021-07-06T09:07:27+0200</time>
      </trkpt>
      <trkpt lat="45.71038" lon="2.94283">
        <ele>1041.874529</ele>
        <time>2021-07-06T09:07:30+0200</time>
      </trkpt>
      <trkpt lat="45.71033" lon="2.94277">
        <ele>1040.887992</ele>
        <time>2021-07-06T09:07:33+0200</time>
      </trkpt>
      <trkpt lat="45.71033" lon="2.94271">
        <ele>1042.607247</ele>
        <time>2021-07-06T09:07:35+0200</time>
      </trkpt>
      <trkpt lat="45.71033" lon="2.94278">
        <ele>1043.018178</ele>
        <time>2021-07-06T09:07:39+0200</time>
      </trkpt>
      <trkpt lat="45.71037" lon="2.94282">
        <ele>1043.315135</ele>
        <time>2021-07-06T09:07:41+0200</time>
      </trkpt>
      <trkpt lat="45.7104" lon="2.94289">
        <ele>1042.556901</ele>
        <time>2021-07-06T09:07:44+0200</time>
      </trkpt>
      <trkpt lat="45.71043" lon="2.94294">
        <ele>1042.524394</ele>
        <time>2021-07-06T09:07:48+0200</time>
      </trkpt>
      <trkpt lat="45.71047" lon="2.94299">
        <ele>1043.721094</ele>
        <time>2021-07-06T09:07:52+0200</time>
      </trkpt>
      <trkpt lat="45.71045" lon="2.94305">
        <ele>1043.655771</ele>
        <time>2021-07-06T09:07:56+0200</time>
      </trkpt>
      <trkpt lat="45.71044" lon="2.94312">
        <ele>1043.770413</ele>
        <time>2021-07-06T09:07:59+0200</time>
      </trkpt>
      <trkpt lat="45.7104" lon="2.9432">
        <ele>1043.239239</ele>
        <time>2021-07-06T09:08:03+0200</time>
      </trkpt>
      <trkpt lat="45.71038" lon="2.94327">
        <ele>1042.725082</ele>
        <time>2021-07-06T09:08:05+0200</time>
      </trkpt>
      <trkpt lat="45.71036" lon="2.94333">
        <ele>1042.63225</ele>
        <time>2021-07-06T09:08:07+0200</time>
      </trkpt>
      <trkpt lat="45.71032" lon="2.94339">
        <ele>1043.537482</ele>
        <time>2021-07-06T09:08:09+0200</time>
      </trkpt>
      <trkpt lat="45.71029" lon="2.94343">
        <ele>1043.84833</ele>
        <time>2021-07-06T09:08:11+0200</time>
      </trkpt>
      <trkpt lat="45.71025" lon="2.94348">
        <ele>1044.164425</ele>
        <time>2021-07-06T09:08:13+0200</time>
      </trkpt>
      <trkpt lat="45.7102" lon="2.94352">
        <ele>1044.372732</ele>
        <time>2021-07-06T09:08:15+0200</time>
      </trkpt>
      <trkpt lat="45.71014" lon="2.94357">
        <ele>1044.823586</ele>
        <time>2021-07-06T09:08:17+0200</time>
      </trkpt>
      <trkpt lat="45.71009" lon="2.94362">
        <ele>1045.316472</ele>
        <time>2021-07-06T09:08:19+0200</time>
      </trkpt>
      <trkpt lat="45.71007" lon="2.94369">
        <ele>1045.33692</ele>
        <time>2021-07-06T09:08:21+0200</time>
      </trkpt>
      <trkpt lat="45.71003" lon="2.94378">
        <ele>1045.382228</ele>
        <time>2021-07-06T09:08:23+0200</time>
      </trkpt>
      <trkpt lat="45.71001" lon="2.94385">
        <ele>1045.633392</ele>
        <time>2021-07-06T09:08:25+0200</time>
      </trkpt>
      <trkpt lat="45.70999" lon="2.94393">
        <ele>1045.637498</ele>
        <time>2021-07-06T09:08:27+0200</time>
      </trkpt>
      <trkpt lat="45.70997" lon="2.944">
        <ele>1045.16831</ele>
        <time>2021-07-06T09:08:29+0200</time>
      </trkpt>
      <trkpt lat="45.70994" lon="2.9441">
        <ele>1044.046115</ele>
        <time>2021-07-06T09:08:31+0200</time>
      </trkpt>
      <trkpt lat="45.70994" lon="2.94416">
        <ele>1044.58529</ele>
        <time>2021-07-06T09:08:33+0200</time>
      </trkpt>
      <trkpt lat="45.70994" lon="2.94426">
        <ele>1043.5986</ele>
        <time>2021-07-06T09:08:35+0200</time>
      </trkpt>
      <trkpt lat="45.70992" lon="2.94436">
        <ele>1045.828354</ele>
        <time>2021-07-06T09:08:38+0200</time>
      </trkpt>
      <trkpt lat="45.70988" lon="2.94442">
        <ele>1047.092622</ele>
        <time>2021-07-06T09:08:40+0200</time>
      </trkpt>
      <trkpt lat="45.70986" lon="2.94449">
        <ele>1048.078875</ele>
        <time>2021-07-06T09:08:42+0200</time>
      </trkpt>
      <trkpt lat="45.70986" lon="2.94456">
        <ele>1049.018487</ele>
        <time>2021-07-06T09:08:44+0200</time>
      </trkpt>
      <trkpt lat="45.70984" lon="2.94463">
        <ele>1050.890652</ele>
        <time>2021-07-06T09:08:46+0200</time>
      </trkpt>
      <trkpt lat="45.7098" lon="2.9447">
        <ele>1052.426022</ele>
        <time>2021-07-06T09:08:48+0200</time>
      </trkpt>
      <trkpt lat="45.70976" lon="2.94477">
        <ele>1053.415507</ele>
        <time>2021-07-06T09:08:50+0200</time>
      </trkpt>
      <trkpt lat="45.70972" lon="2.94483">
        <ele>1055.124413</ele>
        <time>2021-07-06T09:08:52+0200</time>
      </trkpt>
      <trkpt lat="45.7097" lon="2.9449">
        <ele>1056.113349</ele>
        <time>2021-07-06T09:08:54+0200</time>
      </trkpt>
      <trkpt lat="45.70965" lon="2.94496">
        <ele>1055.958851</ele>
        <time>2021-07-06T09:08:56+0200</time>
      </trkpt>
      <trkpt lat="45.70963" lon="2.94502">
        <ele>1055.45114</ele>
        <time>2021-07-06T09:08:58+0200</time>
      </trkpt>
      <trkpt lat="45.70958" lon="2.9451">
        <ele>1055.034341</ele>
        <time>2021-07-06T09:09:00+0200</time>
      </trkpt>
      <trkpt lat="45.70954" lon="2.94517">
        <ele>1053.872653</ele>
        <time>2021-07-06T09:09:02+0200</time>
      </trkpt>
      <trkpt lat="45.70951" lon="2.94522">
        <ele>1053.763488</ele>
        <time>2021-07-06T09:09:04+0200</time>
      </trkpt>
      <trkpt lat="45.7095" lon="2.9453">
        <ele>1052.957495</ele>
        <time>2021-07-06T09:09:06+0200</time>
      </trkpt>
      <trkpt lat="45.70943" lon="2.94535">
        <ele>1052.218728</ele>
        <time>2021-07-06T09:09:08+0200</time>
      </trkpt>
      <trkpt lat="45.70941" lon="2.94543">
        <ele>1053.353778</ele>
        <time>2021-07-06T09:09:10+0200</time>
      </trkpt>
      <trkpt lat="45.70936" lon="2.94548">
        <ele>1052.567288</ele>
        <time>2021-07-06T09:09:12+0200</time>
      </trkpt>
      <trkpt lat="45.7093" lon="2.94555">
        <ele>1051.931087</ele>
        <time>2021-07-06T09:09:15+0200</time>
      </trkpt>
      <trkpt lat="45.70926" lon="2.94559">
        <ele>1052.634525</ele>
        <time>2021-07-06T09:09:17+0200</time>
      </trkpt>
      <trkpt lat="45.70921" lon="2.94564">
        <ele>1053.347679</ele>
        <time>2021-07-06T09:09:19+0200</time>
      </trkpt>
      <trkpt lat="45.70916" lon="2.94572">
        <ele>1054.459952</ele>
        <time>2021-07-06T09:09:21+0200</time>
      </trkpt>
      <trkpt lat="45.70912" lon="2.94579">
        <ele>1054.74283</ele>
        <time>2021-07-06T09:09:23+0200</time>
      </trkpt>
      <trkpt lat="45.70908" lon="2.94587">
        <ele>1052.489185</ele>
        <time>2021-07-06T09:09:26+0200</time>
      </trkpt>
      <trkpt lat="45.70904" lon="2.94598">
        <ele>1052.624578</ele>
        <time>2021-07-06T09:09:28+0200</time>
      </trkpt>
      <trkpt lat="45.70901" lon="2.94606">
        <ele>1052.164756</ele>
        <time>2021-07-06T09:09:30+0200</time>
      </trkpt>
      <trkpt lat="45.70897" lon="2.9461">
        <ele>1051.19704</ele>
        <time>2021-07-06T09:09:32+0200</time>
      </trkpt>
      <trkpt lat="45.70892" lon="2.94615">
        <ele>1051.341816</ele>
        <time>2021-07-06T09:09:33+0200</time>
      </trkpt>
      <trkpt lat="45.70889" lon="2.94623">
        <ele>1050.636996</ele>
        <time>2021-07-06T09:09:36+0200</time>
      </trkpt>
      <trkpt lat="45.70885" lon="2.94635">
        <ele>1050.636291</ele>
        <time>2021-07-06T09:09:38+0200</time>
      </trkpt>
      <trkpt lat="45.70882" lon="2.94643">
        <ele>1050.814577</ele>
        <time>2021-07-06T09:09:40+0200</time>
      </trkpt>
      <trkpt lat="45.70877" lon="2.9465">
        <ele>1050.707453</ele>
        <time>2021-07-06T09:09:42+0200</time>
      </trkpt>
      <trkpt lat="45.70871" lon="2.94656">
        <ele>1050.373452</ele>
        <time>2021-07-06T09:09:44+0200</time>
      </trkpt>
      <trkpt lat="45.70866" lon="2.94663">
        <ele>1050.755135</ele>
        <time>2021-07-06T09:09:46+0200</time>
      </trkpt>
      <trkpt lat="45.70861" lon="2.94666">
        <ele>1049.51671</ele>
        <time>2021-07-06T09:09:48+0200</time>
      </trkpt>
      <trkpt lat="45.70856" lon="2.94671">
        <ele>1049.552402</ele>
        <time>2021-07-06T09:09:49+0200</time>
      </trkpt>
      <trkpt lat="45.7085" lon="2.94678">
        <ele>1050.44548</ele>
        <time>2021-07-06T09:09:51+0200</time>
      </trkpt>
      <trkpt lat="45.70845" lon="2.94686">
        <ele>1051.680268</ele>
        <time>2021-07-06T09:09:53+0200</time>
      </trkpt>
      <trkpt lat="45.70841" lon="2.94689">
        <ele>1051.226146</ele>
        <time>2021-07-06T09:09:54+0200</time>
      </trkpt>
      <trkpt lat="45.70837" lon="2.94699">
        <ele>1050.680922</ele>
        <time>2021-07-06T09:09:56+0200</time>
      </trkpt>
      <trkpt lat="45.7083" lon="2.94708">
        <ele>1049.871055</ele>
        <time>2021-07-06T09:09:58+0200</time>
      </trkpt>
      <trkpt lat="45.70828" lon="2.94714">
        <ele>1049.982537</ele>
        <time>2021-07-06T09:09:59+0200</time>
      </trkpt>
      <trkpt lat="45.70826" lon="2.9472">
        <ele>1049.12996</ele>
        <time>2021-07-06T09:10:00+0200</time>
      </trkpt>
      <trkpt lat="45.70821" lon="2.94723">
        <ele>1049.491603</ele>
        <time>2021-07-06T09:10:01+0200</time>
      </trkpt>
      <trkpt lat="45.70816" lon="2.94732">
        <ele>1049.165422</ele>
        <time>2021-07-06T09:10:03+0200</time>
      </trkpt>
      <trkpt lat="45.70814" lon="2.94738">
        <ele>1049.479061</ele>
        <time>2021-07-06T09:10:04+0200</time>
      </trkpt>
      <trkpt lat="45.7081" lon="2.94745">
        <ele>1049.02693</ele>
        <time>2021-07-06T09:10:06+0200</time>
      </trkpt>
      <trkpt lat="45.70805" lon="2.9475">
        <ele>1048.222948</ele>
        <time>2021-07-06T09:10:07+0200</time>
      </trkpt>
      <trkpt lat="45.708" lon="2.94758">
        <ele>1046.879617</ele>
        <time>2021-07-06T09:10:09+0200</time>
      </trkpt>
      <trkpt lat="45.70797" lon="2.94763">
        <ele>1046.706578</ele>
        <time>2021-07-06T09:10:10+0200</time>
      </trkpt>
      <trkpt lat="45.7079" lon="2.94771">
        <ele>1047.136843</ele>
        <time>2021-07-06T09:10:12+0200</time>
      </trkpt>
      <trkpt lat="45.70786" lon="2.94776">
        <ele>1046.444531</ele>
        <time>2021-07-06T09:10:13+0200</time>
      </trkpt>
      <trkpt lat="45.70778" lon="2.94786">
        <ele>1046.11222</ele>
        <time>2021-07-06T09:10:15+0200</time>
      </trkpt>
      <trkpt lat="45.70773" lon="2.94792">
        <ele>1046.309679</ele>
        <time>2021-07-06T09:10:16+0200</time>
      </trkpt>
      <trkpt lat="45.70767" lon="2.94797">
        <ele>1045.398757</ele>
        <time>2021-07-06T09:10:17+0200</time>
      </trkpt>
      <trkpt lat="45.70764" lon="2.94802">
        <ele>1045.305445</ele>
        <time>2021-07-06T09:10:18+0200</time>
      </trkpt>
      <trkpt lat="45.70758" lon="2.94808">
        <ele>1045.871055</ele>
        <time>2021-07-06T09:10:19+0200</time>
      </trkpt>
      <trkpt lat="45.70754" lon="2.94813">
        <ele>1046.597319</ele>
        <time>2021-07-06T09:10:20+0200</time>
      </trkpt>
      <trkpt lat="45.7075" lon="2.94818">
        <ele>1046.338858</ele>
        <time>2021-07-06T09:10:21+0200</time>
      </trkpt>
      <trkpt lat="45.70744" lon="2.94826">
        <ele>1045.869221</ele>
        <time>2021-07-06T09:10:23+0200</time>
      </trkpt>
      <trkpt lat="45.70737" lon="2.94834">
        <ele>1046.71053</ele>
        <time>2021-07-06T09:10:25+0200</time>
      </trkpt>
      <trkpt lat="45.70736" lon="2.9484">
        <ele>1046.118248</ele>
        <time>2021-07-06T09:10:27+0200</time>
      </trkpt>
      <trkpt lat="45.70732" lon="2.94848">
        <ele>1044.995622</ele>
        <time>2021-07-06T09:10:29+0200</time>
      </trkpt>
      <trkpt lat="45.70727" lon="2.94858">
        <ele>1047.017023</ele>
        <time>2021-07-06T09:10:31+0200</time>
      </trkpt>
      <trkpt lat="45.70724" lon="2.94867">
        <ele>1047.819834</ele>
        <time>2021-07-06T09:10:33+0200</time>
      </trkpt>
      <trkpt lat="45.7072" lon="2.94874">
        <ele>1046.891918</ele>
        <time>2021-07-06T09:10:35+0200</time>
      </trkpt>
      <trkpt lat="45.70717" lon="2.94885">
        <ele>1046.132488</ele>
        <time>2021-07-06T09:10:37+0200</time>
      </trkpt>
      <trkpt lat="45.70717" lon="2.94893">
        <ele>1044.389925</ele>
        <time>2021-07-06T09:10:38+0200</time>
      </trkpt>
      <trkpt lat="45.70714" lon="2.94902">
        <ele>1042.424316</ele>
        <time>2021-07-06T09:10:40+0200</time>
      </trkpt>
      <trkpt lat="45.70714" lon="2.94909">
        <ele>1043.942981</ele>
        <time>2021-07-06T09:10:41+0200</time>
      </trkpt>
      <trkpt lat="45.70714" lon="2.94918">
        <ele>1042.765184</ele>
        <time>2021-07-06T09:10:43+0200</time>
      </trkpt>
      <trkpt lat="45.70711" lon="2.94925">
        <ele>1041.626217</ele>
        <time>2021-07-06T09:10:45+0200</time>
      </trkpt>
      <trkpt lat="45.70707" lon="2.94934">
        <ele>1040.291165</ele>
        <time>2021-07-06T09:10:47+0200</time>
      </trkpt>
      <trkpt lat="45.70702" lon="2.94941">
        <ele>1039.552471</ele>
        <time>2021-07-06T09:10:49+0200</time>
      </trkpt>
      <trkpt lat="45.70699" lon="2.94948">
        <ele>1039.132201</ele>
        <time>2021-07-06T09:10:50+0200</time>
      </trkpt>
      <trkpt lat="45.70697" lon="2.94954">
        <ele>1039.103119</ele>
        <time>2021-07-06T09:10:51+0200</time>
      </trkpt>
      <trkpt lat="45.70694" lon="2.9496">
        <ele>1039.199067</ele>
        <time>2021-07-06T09:10:52+0200</time>
      </trkpt>
      <trkpt lat="45.7069" lon="2.94964">
        <ele>1039.206529</ele>
        <time>2021-07-06T09:10:53+0200</time>
      </trkpt>
      <trkpt lat="45.70688" lon="2.9497">
        <ele>1040.124503</ele>
        <time>2021-07-06T09:10:54+0200</time>
      </trkpt>
      <trkpt lat="45.70684" lon="2.94975">
        <ele>1040.256126</ele>
        <time>2021-07-06T09:10:55+0200</time>
      </trkpt>
      <trkpt lat="45.7068" lon="2.94983">
        <ele>1039.170431</ele>
        <time>2021-07-06T09:10:56+0200</time>
      </trkpt>
      <trkpt lat="45.70677" lon="2.94991">
        <ele>1038.683042</ele>
        <time>2021-07-06T09:10:57+0200</time>
      </trkpt>
      <trkpt lat="45.70673" lon="2.95003">
        <ele>1039.122768</ele>
        <time>2021-07-06T09:10:58+0200</time>
      </trkpt>
      <trkpt lat="45.70671" lon="2.95012">
        <ele>1039.800643</ele>
        <time>2021-07-06T09:10:59+0200</time>
      </trkpt>
      <trkpt lat="45.70671" lon="2.95022">
        <ele>1040.702679</ele>
        <time>2021-07-06T09:11:00+0200</time>
      </trkpt>
      <trkpt lat="45.70671" lon="2.9503">
        <ele>1041.213304</ele>
        <time>2021-07-06T09:11:01+0200</time>
      </trkpt>
      <trkpt lat="45.70671" lon="2.95038">
        <ele>1042.02487</ele>
        <time>2021-07-06T09:11:02+0200</time>
      </trkpt>
      <trkpt lat="45.70672" lon="2.95045">
        <ele>1042.257241</ele>
        <time>2021-07-06T09:11:03+0200</time>
      </trkpt>
      <trkpt lat="45.70672" lon="2.95053">
        <ele>1042.628492</ele>
        <time>2021-07-06T09:11:04+0200</time>
      </trkpt>
      <trkpt lat="45.70672" lon="2.95062">
        <ele>1043.368829</ele>
        <time>2021-07-06T09:11:05+0200</time>
      </trkpt>
      <trkpt lat="45.70674" lon="2.95071">
        <ele>1043.950554</ele>
        <time>2021-07-06T09:11:06+0200</time>
      </trkpt>
      <trkpt lat="45.70674" lon="2.95078">
        <ele>1044.345497</ele>
        <time>2021-07-06T09:11:07+0200</time>
      </trkpt>
      <trkpt lat="45.70672" lon="2.95085">
        <ele>1044.82078</ele>
        <time>2021-07-06T09:11:08+0200</time>
      </trkpt>
      <trkpt lat="45.70672" lon="2.95093">
        <ele>1045.651396</ele>
        <time>2021-07-06T09:11:09+0200</time>
      </trkpt>
      <trkpt lat="45.70671" lon="2.95108">
        <ele>1046.13649</ele>
        <time>2021-07-06T09:11:11+0200</time>
      </trkpt>
      <trkpt lat="45.70671" lon="2.95118">
        <ele>1045.45919</ele>
        <time>2021-07-06T09:11:12+0200</time>
      </trkpt>
      <trkpt lat="45.7067" lon="2.95126">
        <ele>1045.100692</ele>
        <time>2021-07-06T09:11:13+0200</time>
      </trkpt>
      <trkpt lat="45.70671" lon="2.95135">
        <ele>1044.738125</ele>
        <time>2021-07-06T09:11:14+0200</time>
      </trkpt>
      <trkpt lat="45.70667" lon="2.95145">
        <ele>1043.684852</ele>
        <time>2021-07-06T09:11:16+0200</time>
      </trkpt>
      <trkpt lat="45.70664" lon="2.95154">
        <ele>1043.083511</ele>
        <time>2021-07-06T09:11:18+0200</time>
      </trkpt>
      <trkpt lat="45.70659" lon="2.95162">
        <ele>1041.790062</ele>
        <time>2021-07-06T09:11:20+0200</time>
      </trkpt>
      <trkpt lat="45.70659" lon="2.9517">
        <ele>1042.552505</ele>
        <time>2021-07-06T09:11:22+0200</time>
      </trkpt>
      <trkpt lat="45.70658" lon="2.95177">
        <ele>1041.245026</ele>
        <time>2021-07-06T09:11:24+0200</time>
      </trkpt>
      <trkpt lat="45.70658" lon="2.95184">
        <ele>1040.911697</ele>
        <time>2021-07-06T09:11:26+0200</time>
      </trkpt>
      <trkpt lat="45.70655" lon="2.95193">
        <ele>1040.370012</ele>
        <time>2021-07-06T09:11:28+0200</time>
      </trkpt>
      <trkpt lat="45.70652" lon="2.95199">
        <ele>1039.773578</ele>
        <time>2021-07-06T09:11:29+0200</time>
      </trkpt>
      <trkpt lat="45.70648" lon="2.95203">
        <ele>1038.30187</ele>
        <time>2021-07-06T09:11:30+0200</time>
      </trkpt>
      <trkpt lat="45.70644" lon="2.95209">
        <ele>1038.49331</ele>
        <time>2021-07-06T09:11:31+0200</time>
      </trkpt>
      <trkpt lat="45.70637" lon="2.95216">
        <ele>1036.998276</ele>
        <time>2021-07-06T09:11:33+0200</time>
      </trkpt>
      <trkpt lat="45.70634" lon="2.95223">
        <ele>1035.725307</ele>
        <time>2021-07-06T09:11:34+0200</time>
      </trkpt>
      <trkpt lat="45.7063" lon="2.95227">
        <ele>1034.274882</ele>
        <time>2021-07-06T09:11:35+0200</time>
      </trkpt>
      <trkpt lat="45.70625" lon="2.95235">
        <ele>1033.738778</ele>
        <time>2021-07-06T09:11:36+0200</time>
      </trkpt>
      <trkpt lat="45.7062" lon="2.95242">
        <ele>1033.034675</ele>
        <time>2021-07-06T09:11:37+0200</time>
      </trkpt>
      <trkpt lat="45.70615" lon="2.95251">
        <ele>1031.727943</ele>
        <time>2021-07-06T09:11:38+0200</time>
      </trkpt>
      <trkpt lat="45.70613" lon="2.95258">
        <ele>1031.022059</ele>
        <time>2021-07-06T09:11:39+0200</time>
      </trkpt>
      <trkpt lat="45.70611" lon="2.95269">
        <ele>1029.546566</ele>
        <time>2021-07-06T09:11:41+0200</time>
      </trkpt>
      <trkpt lat="45.70607" lon="2.95273">
        <ele>1028.665589</ele>
        <time>2021-07-06T09:11:42+0200</time>
      </trkpt>
      <trkpt lat="45.70604" lon="2.95279">
        <ele>1027.996402</ele>
        <time>2021-07-06T09:11:43+0200</time>
      </trkpt>
      <trkpt lat="45.70598" lon="2.95284">
        <ele>1027.865539</ele>
        <time>2021-07-06T09:11:44+0200</time>
      </trkpt>
      <trkpt lat="45.70592" lon="2.95289">
        <ele>1027.423018</ele>
        <time>2021-07-06T09:11:45+0200</time>
      </trkpt>
      <trkpt lat="45.70587" lon="2.95296">
        <ele>1025.067492</ele>
        <time>2021-07-06T09:11:47+0200</time>
      </trkpt>
      <trkpt lat="45.70582" lon="2.95296">
        <ele>1022.966235</ele>
        <time>2021-07-06T09:11:48+0200</time>
      </trkpt>
      <trkpt lat="45.70577" lon="2.95297">
        <ele>1021.139668</ele>
        <time>2021-07-06T09:11:49+0200</time>
      </trkpt>
      <trkpt lat="45.70572" lon="2.95301">
        <ele>1020.049892</ele>
        <time>2021-07-06T09:11:50+0200</time>
      </trkpt>
      <trkpt lat="45.70566" lon="2.95307">
        <ele>1019.117783</ele>
        <time>2021-07-06T09:11:51+0200</time>
      </trkpt>
      <trkpt lat="45.70555" lon="2.95309">
        <ele>1018.157467</ele>
        <time>2021-07-06T09:11:52+0200</time>
      </trkpt>
      <trkpt lat="45.7055" lon="2.95315">
        <ele>1017.45269</ele>
        <time>2021-07-06T09:11:53+0200</time>
      </trkpt>
      <trkpt lat="45.70544" lon="2.95322">
        <ele>1016.079918</ele>
        <time>2021-07-06T09:11:54+0200</time>
      </trkpt>
      <trkpt lat="45.70539" lon="2.95331">
        <ele>1015.11701</ele>
        <time>2021-07-06T09:11:55+0200</time>
      </trkpt>
      <trkpt lat="45.70533" lon="2.95344">
        <ele>1013.777222</ele>
        <time>2021-07-06T09:11:56+0200</time>
      </trkpt>
      <trkpt lat="45.70527" lon="2.95352">
        <ele>1012.245664</ele>
        <time>2021-07-06T09:11:57+0200</time>
      </trkpt>
      <trkpt lat="45.70528" lon="2.9536">
        <ele>1012.243568</ele>
        <time>2021-07-06T09:11:58+0200</time>
      </trkpt>
      <trkpt lat="45.70524" lon="2.95368">
        <ele>1012.572749</ele>
        <time>2021-07-06T09:11:59+0200</time>
      </trkpt>
      <trkpt lat="45.70518" lon="2.95377">
        <ele>1011.973187</ele>
        <time>2021-07-06T09:12:00+0200</time>
      </trkpt>
      <trkpt lat="45.70511" lon="2.95386">
        <ele>1011.059543</ele>
        <time>2021-07-06T09:12:01+0200</time>
      </trkpt>
      <trkpt lat="45.70505" lon="2.95397">
        <ele>1009.7852</ele>
        <time>2021-07-06T09:12:02+0200</time>
      </trkpt>
      <trkpt lat="45.705" lon="2.95409">
        <ele>1009.014583</ele>
        <time>2021-07-06T09:12:03+0200</time>
      </trkpt>
      <trkpt lat="45.70494" lon="2.95421">
        <ele>1008.878606</ele>
        <time>2021-07-06T09:12:04+0200</time>
      </trkpt>
      <trkpt lat="45.70488" lon="2.95432">
        <ele>1008.18966</ele>
        <time>2021-07-06T09:12:05+0200</time>
      </trkpt>
      <trkpt lat="45.70483" lon="2.95446">
        <ele>1006.938407</ele>
        <time>2021-07-06T09:12:06+0200</time>
      </trkpt>
      <trkpt lat="45.70478" lon="2.95458">
        <ele>1005.651347</ele>
        <time>2021-07-06T09:12:07+0200</time>
      </trkpt>
      <trkpt lat="45.70474" lon="2.95471">
        <ele>1005.338906</ele>
        <time>2021-07-06T09:12:08+0200</time>
      </trkpt>
      <trkpt lat="45.7047" lon="2.95481">
        <ele>1004.773264</ele>
        <time>2021-07-06T09:12:09+0200</time>
      </trkpt>
      <trkpt lat="45.7047" lon="2.9549">
        <ele>1003.896149</ele>
        <time>2021-07-06T09:12:10+0200</time>
      </trkpt>
      <trkpt lat="45.70471" lon="2.95498">
        <ele>1003.897941</ele>
        <time>2021-07-06T09:12:11+0200</time>
      </trkpt>
      <trkpt lat="45.7047" lon="2.95509">
        <ele>1003.865524</ele>
        <time>2021-07-06T09:12:12+0200</time>
      </trkpt>
      <trkpt lat="45.70466" lon="2.95518">
        <ele>1004.6888</ele>
        <time>2021-07-06T09:12:13+0200</time>
      </trkpt>
      <trkpt lat="45.70462" lon="2.95528">
        <ele>1004.071338</ele>
        <time>2021-07-06T09:12:14+0200</time>
      </trkpt>
      <trkpt lat="45.70457" lon="2.95538">
        <ele>1002.825118</ele>
        <time>2021-07-06T09:12:15+0200</time>
      </trkpt>
      <trkpt lat="45.70454" lon="2.95551">
        <ele>1003.302893</ele>
        <time>2021-07-06T09:12:16+0200</time>
      </trkpt>
      <trkpt lat="45.7045" lon="2.95562">
        <ele>1003.635787</ele>
        <time>2021-07-06T09:12:17+0200</time>
      </trkpt>
      <trkpt lat="45.70446" lon="2.95573">
        <ele>1003.328919</ele>
        <time>2021-07-06T09:12:18+0200</time>
      </trkpt>
      <trkpt lat="45.70441" lon="2.95582">
        <ele>1002.573506</ele>
        <time>2021-07-06T09:12:19+0200</time>
      </trkpt>
      <trkpt lat="45.70438" lon="2.95592">
        <ele>1002.242707</ele>
        <time>2021-07-06T09:12:20+0200</time>
      </trkpt>
      <trkpt lat="45.70435" lon="2.956">
        <ele>1001.700698</ele>
        <time>2021-07-06T09:12:21+0200</time>
      </trkpt>
      <trkpt lat="45.7043" lon="2.95608">
        <ele>1000.665772</ele>
        <time>2021-07-06T09:12:22+0200</time>
      </trkpt>
      <trkpt lat="45.70425" lon="2.95615">
        <ele>999.830501</ele>
        <time>2021-07-06T09:12:23+0200</time>
      </trkpt>
      <trkpt lat="45.7042" lon="2.95624">
        <ele>999.393244</ele>
        <time>2021-07-06T09:12:24+0200</time>
      </trkpt>
      <trkpt lat="45.70414" lon="2.95629">
        <ele>998.234205</ele>
        <time>2021-07-06T09:12:25+0200</time>
      </trkpt>
      <trkpt lat="45.70406" lon="2.95637">
        <ele>997.538305</ele>
        <time>2021-07-06T09:12:26+0200</time>
      </trkpt>
      <trkpt lat="45.704" lon="2.95646">
        <ele>996.275193</ele>
        <time>2021-07-06T09:12:27+0200</time>
      </trkpt>
      <trkpt lat="45.70395" lon="2.95656">
        <ele>995.083797</ele>
        <time>2021-07-06T09:12:28+0200</time>
      </trkpt>
      <trkpt lat="45.70388" lon="2.95664">
        <ele>993.718955</ele>
        <time>2021-07-06T09:12:29+0200</time>
      </trkpt>
      <trkpt lat="45.70382" lon="2.95671">
        <ele>992.831626</ele>
        <time>2021-07-06T09:12:30+0200</time>
      </trkpt>
      <trkpt lat="45.70377" lon="2.95679">
        <ele>993.078656</ele>
        <time>2021-07-06T09:12:31+0200</time>
      </trkpt>
      <trkpt lat="45.70373" lon="2.95689">
        <ele>993.39888</ele>
        <time>2021-07-06T09:12:32+0200</time>
      </trkpt>
      <trkpt lat="45.7037" lon="2.95698">
        <ele>992.806105</ele>
        <time>2021-07-06T09:12:33+0200</time>
      </trkpt>
      <trkpt lat="45.70368" lon="2.95709">
        <ele>993.199964</ele>
        <time>2021-07-06T09:12:34+0200</time>
      </trkpt>
      <trkpt lat="45.70366" lon="2.9572">
        <ele>993.341254</ele>
        <time>2021-07-06T09:12:35+0200</time>
      </trkpt>
      <trkpt lat="45.70364" lon="2.95729">
        <ele>993.524053</ele>
        <time>2021-07-06T09:12:36+0200</time>
      </trkpt>
      <trkpt lat="45.70362" lon="2.95739">
        <ele>992.822611</ele>
        <time>2021-07-06T09:12:37+0200</time>
      </trkpt>
      <trkpt lat="45.70358" lon="2.95749">
        <ele>992.577282</ele>
        <time>2021-07-06T09:12:38+0200</time>
      </trkpt>
      <trkpt lat="45.70355" lon="2.95757">
        <ele>992.044066</ele>
        <time>2021-07-06T09:12:39+0200</time>
      </trkpt>
      <trkpt lat="45.7035" lon="2.95766">
        <ele>991.614896</ele>
        <time>2021-07-06T09:12:40+0200</time>
      </trkpt>
      <trkpt lat="45.70345" lon="2.95773">
        <ele>991.295007</ele>
        <time>2021-07-06T09:12:41+0200</time>
      </trkpt>
      <trkpt lat="45.70342" lon="2.95782">
        <ele>991.832565</ele>
        <time>2021-07-06T09:12:42+0200</time>
      </trkpt>
      <trkpt lat="45.70339" lon="2.9579">
        <ele>991.648964</ele>
        <time>2021-07-06T09:12:43+0200</time>
      </trkpt>
      <trkpt lat="45.70336" lon="2.95799">
        <ele>991.389099</ele>
        <time>2021-07-06T09:12:44+0200</time>
      </trkpt>
      <trkpt lat="45.70333" lon="2.95807">
        <ele>991.321993</ele>
        <time>2021-07-06T09:12:45+0200</time>
      </trkpt>
      <trkpt lat="45.70329" lon="2.95814">
        <ele>991.049192</ele>
        <time>2021-07-06T09:12:46+0200</time>
      </trkpt>
      <trkpt lat="45.70324" lon="2.95819">
        <ele>990.599583</ele>
        <time>2021-07-06T09:12:47+0200</time>
      </trkpt>
      <trkpt lat="45.70321" lon="2.95826">
        <ele>990.330087</ele>
        <time>2021-07-06T09:12:48+0200</time>
      </trkpt>
      <trkpt lat="45.70318" lon="2.95832">
        <ele>990.268441</ele>
        <time>2021-07-06T09:12:49+0200</time>
      </trkpt>
      <trkpt lat="45.70315" lon="2.95839">
        <ele>990.24758</ele>
        <time>2021-07-06T09:12:50+0200</time>
      </trkpt>
      <trkpt lat="45.70311" lon="2.95845">
        <ele>990.304783</ele>
        <time>2021-07-06T09:12:51+0200</time>
      </trkpt>
      <trkpt lat="45.70307" lon="2.95849">
        <ele>990.042949</ele>
        <time>2021-07-06T09:12:52+0200</time>
      </trkpt>
      <trkpt lat="45.703" lon="2.95859">
        <ele>989.520274</ele>
        <time>2021-07-06T09:12:54+0200</time>
      </trkpt>
      <trkpt lat="45.70295" lon="2.95862">
        <ele>989.695015</ele>
        <time>2021-07-06T09:12:56+0200</time>
      </trkpt>
      <trkpt lat="45.70292" lon="2.95869">
        <ele>990.667827</ele>
        <time>2021-07-06T09:12:59+0200</time>
      </trkpt>
      <trkpt lat="45.70288" lon="2.95876">
        <ele>991.544352</ele>
        <time>2021-07-06T09:13:02+0200</time>
      </trkpt>
      <trkpt lat="45.70284" lon="2.95881">
        <ele>992.505303</ele>
        <time>2021-07-06T09:13:04+0200</time>
      </trkpt>
      <trkpt lat="45.7028" lon="2.95891">
        <ele>992.612256</ele>
        <time>2021-07-06T09:13:06+0200</time>
      </trkpt>
      <trkpt lat="45.70276" lon="2.95901">
        <ele>992.511136</ele>
        <time>2021-07-06T09:13:08+0200</time>
      </trkpt>
      <trkpt lat="45.70272" lon="2.95912">
        <ele>992.451006</ele>
        <time>2021-07-06T09:13:10+0200</time>
      </trkpt>
      <trkpt lat="45.70267" lon="2.95919">
        <ele>991.876976</ele>
        <time>2021-07-06T09:13:12+0200</time>
      </trkpt>
      <trkpt lat="45.70264" lon="2.95929">
        <ele>991.335557</ele>
        <time>2021-07-06T09:13:15+0200</time>
      </trkpt>
      <trkpt lat="45.70263" lon="2.95939">
        <ele>991.712454</ele>
        <time>2021-07-06T09:13:17+0200</time>
      </trkpt>
      <trkpt lat="45.70259" lon="2.95947">
        <ele>991.753525</ele>
        <time>2021-07-06T09:13:19+0200</time>
      </trkpt>
      <trkpt lat="45.70252" lon="2.95952">
        <ele>994.595451</ele>
        <time>2021-07-06T09:13:22+0200</time>
      </trkpt>
      <trkpt lat="45.70246" lon="2.95955">
        <ele>994.40117</ele>
        <time>2021-07-06T09:13:24+0200</time>
      </trkpt>
      <trkpt lat="45.70241" lon="2.95957">
        <ele>993.930044</ele>
        <time>2021-07-06T09:13:26+0200</time>
      </trkpt>
      <trkpt lat="45.70236" lon="2.9596">
        <ele>993.253919</ele>
        <time>2021-07-06T09:13:28+0200</time>
      </trkpt>
      <trkpt lat="45.70231" lon="2.95964">
        <ele>992.992125</ele>
        <time>2021-07-06T09:13:30+0200</time>
      </trkpt>
      <trkpt lat="45.70228" lon="2.95971">
        <ele>993.196183</ele>
        <time>2021-07-06T09:13:32+0200</time>
      </trkpt>
      <trkpt lat="45.70226" lon="2.95979">
        <ele>992.988902</ele>
        <time>2021-07-06T09:13:34+0200</time>
      </trkpt>
      <trkpt lat="45.70225" lon="2.95986">
        <ele>994.797456</ele>
        <time>2021-07-06T09:13:46+0200</time>
      </trkpt>
      <trkpt lat="45.70223" lon="2.95992">
        <ele>994.798982</ele>
        <time>2021-07-06T09:13:56+0200</time>
      </trkpt>
      <trkpt lat="45.70218" lon="2.95995">
        <ele>994.62141</ele>
        <time>2021-07-06T09:14:06+0200</time>
      </trkpt>
      <trkpt lat="45.70213" lon="2.96">
        <ele>995.348839</ele>
        <time>2021-07-06T09:14:10+0200</time>
      </trkpt>
      <trkpt lat="45.70211" lon="2.96005">
        <ele>995.933036</ele>
        <time>2021-07-06T09:14:12+0200</time>
      </trkpt>
      <trkpt lat="45.7021" lon="2.96011">
        <ele>995.288272</ele>
        <time>2021-07-06T09:14:15+0200</time>
      </trkpt>
      <trkpt lat="45.70207" lon="2.96016">
        <ele>995.783307</ele>
        <time>2021-07-06T09:14:18+0200</time>
      </trkpt>
      <trkpt lat="45.70202" lon="2.96022">
        <ele>996.128437</ele>
        <time>2021-07-06T09:14:21+0200</time>
      </trkpt>
      <trkpt lat="45.70197" lon="2.96024">
        <ele>996.834351</ele>
        <time>2021-07-06T09:14:23+0200</time>
      </trkpt>
      <trkpt lat="45.70191" lon="2.96032">
        <ele>995.458231</ele>
        <time>2021-07-06T09:14:26+0200</time>
      </trkpt>
      <trkpt lat="45.70187" lon="2.96037">
        <ele>995.370086</ele>
        <time>2021-07-06T09:14:28+0200</time>
      </trkpt>
      <trkpt lat="45.70183" lon="2.96044">
        <ele>996.38208</ele>
        <time>2021-07-06T09:14:30+0200</time>
      </trkpt>
      <trkpt lat="45.70179" lon="2.96054">
        <ele>995.760261</ele>
        <time>2021-07-06T09:14:32+0200</time>
      </trkpt>
      <trkpt lat="45.70175" lon="2.96063">
        <ele>995.15883</ele>
        <time>2021-07-06T09:14:34+0200</time>
      </trkpt>
      <trkpt lat="45.70175" lon="2.96071">
        <ele>993.381045</ele>
        <time>2021-07-06T09:14:35+0200</time>
      </trkpt>
      <trkpt lat="45.70173" lon="2.96079">
        <ele>992.258521</ele>
        <time>2021-07-06T09:14:37+0200</time>
      </trkpt>
      <trkpt lat="45.70168" lon="2.96085">
        <ele>993.119697</ele>
        <time>2021-07-06T09:14:39+0200</time>
      </trkpt>
      <trkpt lat="45.70163" lon="2.96089">
        <ele>993.033598</ele>
        <time>2021-07-06T09:14:41+0200</time>
      </trkpt>
      <trkpt lat="45.70158" lon="2.96095">
        <ele>993.649218</ele>
        <time>2021-07-06T09:14:44+0200</time>
      </trkpt>
      <trkpt lat="45.70155" lon="2.96102">
        <ele>991.789669</ele>
        <time>2021-07-06T09:14:47+0200</time>
      </trkpt>
      <trkpt lat="45.7015" lon="2.96109">
        <ele>992.82759</ele>
        <time>2021-07-06T09:14:50+0200</time>
      </trkpt>
      <trkpt lat="45.70148" lon="2.96115">
        <ele>992.866896</ele>
        <time>2021-07-06T09:14:52+0200</time>
      </trkpt>
      <trkpt lat="45.70142" lon="2.96121">
        <ele>994.379386</ele>
        <time>2021-07-06T09:14:55+0200</time>
      </trkpt>
      <trkpt lat="45.70139" lon="2.96128">
        <ele>994.410007</ele>
        <time>2021-07-06T09:14:58+0200</time>
      </trkpt>
      <trkpt lat="45.70136" lon="2.96133">
        <ele>995.626816</ele>
        <time>2021-07-06T09:14:59+0200</time>
      </trkpt>
      <trkpt lat="45.70132" lon="2.96134">
        <ele>998.477253</ele>
        <time>2021-07-06T09:15:00+0200</time>
      </trkpt>
      <trkpt lat="45.70128" lon="2.9614">
        <ele>998.461901</ele>
        <time>2021-07-06T09:15:02+0200</time>
      </trkpt>
      <trkpt lat="45.70124" lon="2.96146">
        <ele>998.280571</ele>
        <time>2021-07-06T09:15:04+0200</time>
      </trkpt>
      <trkpt lat="45.70121" lon="2.96154">
        <ele>998.432419</ele>
        <time>2021-07-06T09:15:07+0200</time>
      </trkpt>
      <trkpt lat="45.70117" lon="2.9616">
        <ele>1000.095061</ele>
        <time>2021-07-06T09:15:09+0200</time>
      </trkpt>
      <trkpt lat="45.70113" lon="2.96168">
        <ele>999.254533</ele>
        <time>2021-07-06T09:15:12+0200</time>
      </trkpt>
      <trkpt lat="45.7011" lon="2.96176">
        <ele>997.300333</ele>
        <time>2021-07-06T09:15:14+0200</time>
      </trkpt>
      <trkpt lat="45.70106" lon="2.96182">
        <ele>996.839798</ele>
        <time>2021-07-06T09:15:16+0200</time>
      </trkpt>
      <trkpt lat="45.70103" lon="2.96189">
        <ele>997.676467</ele>
        <time>2021-07-06T09:15:18+0200</time>
      </trkpt>
      <trkpt lat="45.70101" lon="2.96196">
        <ele>997.911723</ele>
        <time>2021-07-06T09:15:20+0200</time>
      </trkpt>
      <trkpt lat="45.70097" lon="2.96204">
        <ele>1000.401299</ele>
        <time>2021-07-06T09:15:23+0200</time>
      </trkpt>
      <trkpt lat="45.70095" lon="2.9621">
        <ele>1001.846037</ele>
        <time>2021-07-06T09:15:25+0200</time>
      </trkpt>
      <trkpt lat="45.70091" lon="2.96215">
        <ele>1003.506847</ele>
        <time>2021-07-06T09:15:27+0200</time>
      </trkpt>
      <trkpt lat="45.70088" lon="2.96222">
        <ele>1004.066172</ele>
        <time>2021-07-06T09:15:29+0200</time>
      </trkpt>
      <trkpt lat="45.70087" lon="2.96228">
        <ele>1003.772191</ele>
        <time>2021-07-06T09:15:31+0200</time>
      </trkpt>
      <trkpt lat="45.70084" lon="2.96238">
        <ele>1002.47135</ele>
        <time>2021-07-06T09:15:34+0200</time>
      </trkpt>
      <trkpt lat="45.70082" lon="2.96244">
        <ele>1001.850906</ele>
        <time>2021-07-06T09:15:36+0200</time>
      </trkpt>
      <trkpt lat="45.70079" lon="2.96249">
        <ele>1002.85354</ele>
        <time>2021-07-06T09:15:38+0200</time>
      </trkpt>
      <trkpt lat="45.70075" lon="2.96255">
        <ele>1002.721528</ele>
        <time>2021-07-06T09:15:40+0200</time>
      </trkpt>
      <trkpt lat="45.70074" lon="2.96263">
        <ele>1002.439466</ele>
        <time>2021-07-06T09:15:42+0200</time>
      </trkpt>
      <trkpt lat="45.70071" lon="2.9627">
        <ele>1001.509044</ele>
        <time>2021-07-06T09:15:44+0200</time>
      </trkpt>
      <trkpt lat="45.70069" lon="2.96278">
        <ele>1003.113868</ele>
        <time>2021-07-06T09:15:46+0200</time>
      </trkpt>
      <trkpt lat="45.70068" lon="2.96285">
        <ele>1003.762326</ele>
        <time>2021-07-06T09:15:48+0200</time>
      </trkpt>
      <trkpt lat="45.70069" lon="2.96293">
        <ele>1003.40446</ele>
        <time>2021-07-06T09:15:50+0200</time>
      </trkpt>
      <trkpt lat="45.70066" lon="2.96298">
        <ele>1003.643396</ele>
        <time>2021-07-06T09:15:52+0200</time>
      </trkpt>
      <trkpt lat="45.70064" lon="2.96305">
        <ele>1005.081471</ele>
        <time>2021-07-06T09:15:54+0200</time>
      </trkpt>
      <trkpt lat="45.70063" lon="2.96314">
        <ele>1005.804666</ele>
        <time>2021-07-06T09:15:57+0200</time>
      </trkpt>
      <trkpt lat="45.70061" lon="2.96321">
        <ele>1004.482336</ele>
        <time>2021-07-06T09:15:59+0200</time>
      </trkpt>
      <trkpt lat="45.70061" lon="2.96332">
        <ele>1001.395307</ele>
        <time>2021-07-06T09:16:02+0200</time>
      </trkpt>
      <trkpt lat="45.7006" lon="2.96341">
        <ele>1000.025561</ele>
        <time>2021-07-06T09:16:04+0200</time>
      </trkpt>
      <trkpt lat="45.70059" lon="2.96352">
        <ele>998.680942</ele>
        <time>2021-07-06T09:16:06+0200</time>
      </trkpt>
      <trkpt lat="45.7006" lon="2.9636">
        <ele>997.969103</ele>
        <time>2021-07-06T09:16:08+0200</time>
      </trkpt>
      <trkpt lat="45.70061" lon="2.96368">
        <ele>996.151007</ele>
        <time>2021-07-06T09:16:10+0200</time>
      </trkpt>
      <trkpt lat="45.70062" lon="2.96375">
        <ele>996.801522</ele>
        <time>2021-07-06T09:16:12+0200</time>
      </trkpt>
      <trkpt lat="45.70061" lon="2.96384">
        <ele>995.378575</ele>
        <time>2021-07-06T09:16:14+0200</time>
      </trkpt>
      <trkpt lat="45.70061" lon="2.96394">
        <ele>994.726366</ele>
        <time>2021-07-06T09:16:16+0200</time>
      </trkpt>
      <trkpt lat="45.7006" lon="2.96405">
        <ele>994.610202</ele>
        <time>2021-07-06T09:16:18+0200</time>
      </trkpt>
      <trkpt lat="45.70059" lon="2.96413">
        <ele>994.653473</ele>
        <time>2021-07-06T09:16:19+0200</time>
      </trkpt>
      <trkpt lat="45.70059" lon="2.96421">
        <ele>994.236749</ele>
        <time>2021-07-06T09:16:20+0200</time>
      </trkpt>
      <trkpt lat="45.70058" lon="2.96429">
        <ele>994.335246</ele>
        <time>2021-07-06T09:16:21+0200</time>
      </trkpt>
      <trkpt lat="45.70058" lon="2.96437">
        <ele>994.261538</ele>
        <time>2021-07-06T09:16:22+0200</time>
      </trkpt>
      <trkpt lat="45.70059" lon="2.96445">
        <ele>994.469003</ele>
        <time>2021-07-06T09:16:23+0200</time>
      </trkpt>
      <trkpt lat="45.70058" lon="2.96452">
        <ele>994.548441</ele>
        <time>2021-07-06T09:16:24+0200</time>
      </trkpt>
      <trkpt lat="45.70059" lon="2.96461">
        <ele>995.287618</ele>
        <time>2021-07-06T09:16:25+0200</time>
      </trkpt>
      <trkpt lat="45.70061" lon="2.96472">
        <ele>994.868847</ele>
        <time>2021-07-06T09:16:26+0200</time>
      </trkpt>
      <trkpt lat="45.70064" lon="2.96482">
        <ele>994.103969</ele>
        <time>2021-07-06T09:16:27+0200</time>
      </trkpt>
      <trkpt lat="45.70067" lon="2.96492">
        <ele>993.759142</ele>
        <time>2021-07-06T09:16:28+0200</time>
      </trkpt>
      <trkpt lat="45.7007" lon="2.96501">
        <ele>993.653323</ele>
        <time>2021-07-06T09:16:29+0200</time>
      </trkpt>
      <trkpt lat="45.70072" lon="2.9651">
        <ele>994.476137</ele>
        <time>2021-07-06T09:16:30+0200</time>
      </trkpt>
      <trkpt lat="45.70075" lon="2.96522">
        <ele>995.739721</ele>
        <time>2021-07-06T09:16:31+0200</time>
      </trkpt>
      <trkpt lat="45.7008" lon="2.96534">
        <ele>997.221462</ele>
        <time>2021-07-06T09:16:32+0200</time>
      </trkpt>
      <trkpt lat="45.70086" lon="2.96544">
        <ele>997.537294</ele>
        <time>2021-07-06T09:16:33+0200</time>
      </trkpt>
      <trkpt lat="45.70093" lon="2.96551">
        <ele>996.776733</ele>
        <time>2021-07-06T09:16:34+0200</time>
      </trkpt>
      <trkpt lat="45.70099" lon="2.96556">
        <ele>995.321622</ele>
        <time>2021-07-06T09:16:35+0200</time>
      </trkpt>
      <trkpt lat="45.70102" lon="2.96564">
        <ele>994.059225</ele>
        <time>2021-07-06T09:16:36+0200</time>
      </trkpt>
      <trkpt lat="45.70108" lon="2.96575">
        <ele>992.887981</ele>
        <time>2021-07-06T09:16:37+0200</time>
      </trkpt>
      <trkpt lat="45.70115" lon="2.96587">
        <ele>991.724986</ele>
        <time>2021-07-06T09:16:38+0200</time>
      </trkpt>
      <trkpt lat="45.7012" lon="2.96597">
        <ele>990.305256</ele>
        <time>2021-07-06T09:16:39+0200</time>
      </trkpt>
      <trkpt lat="45.70122" lon="2.96609">
        <ele>987.589653</ele>
        <time>2021-07-06T09:16:40+0200</time>
      </trkpt>
      <trkpt lat="45.70124" lon="2.9662">
        <ele>986.257548</ele>
        <time>2021-07-06T09:16:41+0200</time>
      </trkpt>
      <trkpt lat="45.70127" lon="2.96631">
        <ele>983.529156</ele>
        <time>2021-07-06T09:16:42+0200</time>
      </trkpt>
      <trkpt lat="45.70127" lon="2.9664">
        <ele>981.609521</ele>
        <time>2021-07-06T09:16:43+0200</time>
      </trkpt>
      <trkpt lat="45.70129" lon="2.96651">
        <ele>982.551309</ele>
        <time>2021-07-06T09:16:44+0200</time>
      </trkpt>
      <trkpt lat="45.70131" lon="2.96657">
        <ele>983.42364</ele>
        <time>2021-07-06T09:16:45+0200</time>
      </trkpt>
      <trkpt lat="45.70133" lon="2.96665">
        <ele>980.570966</ele>
        <time>2021-07-06T09:16:47+0200</time>
      </trkpt>
      <trkpt lat="45.70135" lon="2.96673">
        <ele>981.964646</ele>
        <time>2021-07-06T09:16:50+0200</time>
      </trkpt>
      <trkpt lat="45.70135" lon="2.96679">
        <ele>982.360074</ele>
        <time>2021-07-06T09:16:52+0200</time>
      </trkpt>
      <trkpt lat="45.70137" lon="2.96689">
        <ele>983.666585</ele>
        <time>2021-07-06T09:16:55+0200</time>
      </trkpt>
      <trkpt lat="45.70136" lon="2.96695">
        <ele>985.37561</ele>
        <time>2021-07-06T09:16:57+0200</time>
      </trkpt>
      <trkpt lat="45.70137" lon="2.96701">
        <ele>987.673614</ele>
        <time>2021-07-06T09:16:59+0200</time>
      </trkpt>
      <trkpt lat="45.70136" lon="2.96709">
        <ele>989.150476</ele>
        <time>2021-07-06T09:17:01+0200</time>
      </trkpt>
      <trkpt lat="45.70136" lon="2.96715">
        <ele>991.860601</ele>
        <time>2021-07-06T09:17:03+0200</time>
      </trkpt>
      <trkpt lat="45.70135" lon="2.96722">
        <ele>991.701156</ele>
        <time>2021-07-06T09:17:05+0200</time>
      </trkpt>
      <trkpt lat="45.70133" lon="2.9673">
        <ele>991.273837</ele>
        <time>2021-07-06T09:17:08+0200</time>
      </trkpt>
      <trkpt lat="45.70132" lon="2.96738">
        <ele>990.186219</ele>
        <time>2021-07-06T09:17:11+0200</time>
      </trkpt>
      <trkpt lat="45.70132" lon="2.96745">
        <ele>990.038967</ele>
        <time>2021-07-06T09:17:13+0200</time>
      </trkpt>
      <trkpt lat="45.70133" lon="2.96753">
        <ele>990.490076</ele>
        <time>2021-07-06T09:17:16+0200</time>
      </trkpt>
      <trkpt lat="45.70132" lon="2.96761">
        <ele>989.361628</ele>
        <time>2021-07-06T09:17:18+0200</time>
      </trkpt>
      <trkpt lat="45.70132" lon="2.96769">
        <ele>989.324874</ele>
        <time>2021-07-06T09:17:21+0200</time>
      </trkpt>
      <trkpt lat="45.70129" lon="2.96774">
        <ele>989.721528</ele>
        <time>2021-07-06T09:17:24+0200</time>
      </trkpt>
      <trkpt lat="45.70126" lon="2.96781">
        <ele>990.444869</ele>
        <time>2021-07-06T09:17:27+0200</time>
      </trkpt>
      <trkpt lat="45.70124" lon="2.96788">
        <ele>989.164785</ele>
        <time>2021-07-06T09:17:29+0200</time>
      </trkpt>
      <trkpt lat="45.70121" lon="2.96797">
        <ele>986.772196</ele>
        <time>2021-07-06T09:17:31+0200</time>
      </trkpt>
      <trkpt lat="45.70119" lon="2.96804">
        <ele>984.881795</ele>
        <time>2021-07-06T09:17:34+0200</time>
      </trkpt>
      <trkpt lat="45.70116" lon="2.96811">
        <ele>984.01588</ele>
        <time>2021-07-06T09:17:38+0200</time>
      </trkpt>
      <trkpt lat="45.70113" lon="2.9682">
        <ele>985.061674</ele>
        <time>2021-07-06T09:17:41+0200</time>
      </trkpt>
      <trkpt lat="45.70112" lon="2.96828">
        <ele>986.32477</ele>
        <time>2021-07-06T09:17:44+0200</time>
      </trkpt>
      <trkpt lat="45.70108" lon="2.96834">
        <ele>985.27107</ele>
        <time>2021-07-06T09:17:46+0200</time>
      </trkpt>
      <trkpt lat="45.70105" lon="2.9684">
        <ele>985.784074</ele>
        <time>2021-07-06T09:17:48+0200</time>
      </trkpt>
      <trkpt lat="45.70104" lon="2.96846">
        <ele>984.318011</ele>
        <time>2021-07-06T09:17:50+0200</time>
      </trkpt>
      <trkpt lat="45.701" lon="2.96852">
        <ele>985.678456</ele>
        <time>2021-07-06T09:17:53+0200</time>
      </trkpt>
      <trkpt lat="45.70096" lon="2.9686">
        <ele>986.932014</ele>
        <time>2021-07-06T09:17:57+0200</time>
      </trkpt>
      <trkpt lat="45.70094" lon="2.96867">
        <ele>987.619783</ele>
        <time>2021-07-06T09:17:59+0200</time>
      </trkpt>
      <trkpt lat="45.70092" lon="2.96874">
        <ele>986.31121</ele>
        <time>2021-07-06T09:18:01+0200</time>
      </trkpt>
      <trkpt lat="45.70088" lon="2.9688">
        <ele>987.531529</ele>
        <time>2021-07-06T09:18:03+0200</time>
      </trkpt>
      <trkpt lat="45.70085" lon="2.96887">
        <ele>986.78624</ele>
        <time>2021-07-06T09:18:05+0200</time>
      </trkpt>
      <trkpt lat="45.70083" lon="2.96894">
        <ele>986.796902</ele>
        <time>2021-07-06T09:18:07+0200</time>
      </trkpt>
      <trkpt lat="45.70082" lon="2.96903">
        <ele>986.305313</ele>
        <time>2021-07-06T09:18:09+0200</time>
      </trkpt>
      <trkpt lat="45.7008" lon="2.96911">
        <ele>986.008951</ele>
        <time>2021-07-06T09:18:11+0200</time>
      </trkpt>
      <trkpt lat="45.70078" lon="2.96919">
        <ele>984.798857</ele>
        <time>2021-07-06T09:18:13+0200</time>
      </trkpt>
      <trkpt lat="45.70078" lon="2.96926">
        <ele>983.533222</ele>
        <time>2021-07-06T09:18:16+0200</time>
      </trkpt>
      <trkpt lat="45.70075" lon="2.96933">
        <ele>983.323708</ele>
        <time>2021-07-06T09:18:19+0200</time>
      </trkpt>
      <trkpt lat="45.70074" lon="2.9694">
        <ele>984.91058</ele>
        <time>2021-07-06T09:18:25+0200</time>
      </trkpt>
      <trkpt lat="45.70069" lon="2.96944">
        <ele>985.667871</ele>
        <time>2021-07-06T09:18:29+0200</time>
      </trkpt>
      <trkpt lat="45.70066" lon="2.9695">
        <ele>984.346783</ele>
        <time>2021-07-06T09:18:33+0200</time>
      </trkpt>
      <trkpt lat="45.70064" lon="2.96955">
        <ele>982.542588</ele>
        <time>2021-07-06T09:18:36+0200</time>
      </trkpt>
      <trkpt lat="45.70061" lon="2.96962">
        <ele>981.736803</ele>
        <time>2021-07-06T09:18:39+0200</time>
      </trkpt>
      <trkpt lat="45.70059" lon="2.96968">
        <ele>983.490276</ele>
        <time>2021-07-06T09:18:42+0200</time>
      </trkpt>
      <trkpt lat="45.70055" lon="2.96975">
        <ele>984.805163</ele>
        <time>2021-07-06T09:18:46+0200</time>
      </trkpt>
      <trkpt lat="45.70053" lon="2.96981">
        <ele>984.942624</ele>
        <time>2021-07-06T09:18:48+0200</time>
      </trkpt>
      <trkpt lat="45.7005" lon="2.96988">
        <ele>984.107896</ele>
        <time>2021-07-06T09:18:51+0200</time>
      </trkpt>
      <trkpt lat="45.70046" lon="2.96994">
        <ele>985.414732</ele>
        <time>2021-07-06T09:18:54+0200</time>
      </trkpt>
      <trkpt lat="45.70042" lon="2.97">
        <ele>984.477693</ele>
        <time>2021-07-06T09:18:59+0200</time>
      </trkpt>
      <trkpt lat="45.70037" lon="2.97005">
        <ele>985.435518</ele>
        <time>2021-07-06T09:19:01+0200</time>
      </trkpt>
      <trkpt lat="45.70034" lon="2.97012">
        <ele>984.76924</ele>
        <time>2021-07-06T09:19:03+0200</time>
      </trkpt>
      <trkpt lat="45.70031" lon="2.97018">
        <ele>984.596394</ele>
        <time>2021-07-06T09:19:05+0200</time>
      </trkpt>
      <trkpt lat="45.70028" lon="2.97023">
        <ele>984.293479</ele>
        <time>2021-07-06T09:19:07+0200</time>
      </trkpt>
      <trkpt lat="45.70024" lon="2.9703">
        <ele>984.916473</ele>
        <time>2021-07-06T09:19:09+0200</time>
      </trkpt>
      <trkpt lat="45.7002" lon="2.97038">
        <ele>984.447715</ele>
        <time>2021-07-06T09:19:11+0200</time>
      </trkpt>
      <trkpt lat="45.70015" lon="2.97045">
        <ele>986.417492</ele>
        <time>2021-07-06T09:19:13+0200</time>
      </trkpt>
      <trkpt lat="45.70011" lon="2.97054">
        <ele>985.389459</ele>
        <time>2021-07-06T09:19:15+0200</time>
      </trkpt>
      <trkpt lat="45.70008" lon="2.9706">
        <ele>985.752415</ele>
        <time>2021-07-06T09:19:17+0200</time>
      </trkpt>
      <trkpt lat="45.70005" lon="2.97067">
        <ele>986.434915</ele>
        <time>2021-07-06T09:19:19+0200</time>
      </trkpt>
      <trkpt lat="45.70002" lon="2.97076">
        <ele>987.446272</ele>
        <time>2021-07-06T09:19:21+0200</time>
      </trkpt>
      <trkpt lat="45.69999" lon="2.97084">
        <ele>988.382068</ele>
        <time>2021-07-06T09:19:23+0200</time>
      </trkpt>
      <trkpt lat="45.69997" lon="2.9709">
        <ele>988.813487</ele>
        <time>2021-07-06T09:19:24+0200</time>
      </trkpt>
      <trkpt lat="45.69994" lon="2.97097">
        <ele>990.32687</ele>
        <time>2021-07-06T09:19:26+0200</time>
      </trkpt>
      <trkpt lat="45.69989" lon="2.97104">
        <ele>989.30464</ele>
        <time>2021-07-06T09:19:28+0200</time>
      </trkpt>
      <trkpt lat="45.69986" lon="2.97111">
        <ele>989.030491</ele>
        <time>2021-07-06T09:19:30+0200</time>
      </trkpt>
      <trkpt lat="45.69985" lon="2.97122">
        <ele>989.164463</ele>
        <time>2021-07-06T09:19:32+0200</time>
      </trkpt>
      <trkpt lat="45.69981" lon="2.97131">
        <ele>990.144625</ele>
        <time>2021-07-06T09:19:34+0200</time>
      </trkpt>
      <trkpt lat="45.69978" lon="2.97137">
        <ele>989.431656</ele>
        <time>2021-07-06T09:19:36+0200</time>
      </trkpt>
      <trkpt lat="45.69974" lon="2.97145">
        <ele>990.391376</ele>
        <time>2021-07-06T09:19:38+0200</time>
      </trkpt>
      <trkpt lat="45.6997" lon="2.97153">
        <ele>991.038791</ele>
        <time>2021-07-06T09:19:40+0200</time>
      </trkpt>
      <trkpt lat="45.69968" lon="2.9716">
        <ele>989.186895</ele>
        <time>2021-07-06T09:19:42+0200</time>
      </trkpt>
      <trkpt lat="45.69966" lon="2.97168">
        <ele>988.87956</ele>
        <time>2021-07-06T09:19:44+0200</time>
      </trkpt>
      <trkpt lat="45.69964" lon="2.97174">
        <ele>988.327598</ele>
        <time>2021-07-06T09:19:45+0200</time>
      </trkpt>
      <trkpt lat="45.69961" lon="2.97183">
        <ele>986.806099</ele>
        <time>2021-07-06T09:19:47+0200</time>
      </trkpt>
      <trkpt lat="45.69959" lon="2.9719">
        <ele>989.221427</ele>
        <time>2021-07-06T09:19:49+0200</time>
      </trkpt>
      <trkpt lat="45.69958" lon="2.97202">
        <ele>990.917498</ele>
        <time>2021-07-06T09:19:51+0200</time>
      </trkpt>
      <trkpt lat="45.69957" lon="2.9721">
        <ele>989.726616</ele>
        <time>2021-07-06T09:19:53+0200</time>
      </trkpt>
      <trkpt lat="45.69956" lon="2.97221">
        <ele>989.54619</ele>
        <time>2021-07-06T09:19:55+0200</time>
      </trkpt>
      <trkpt lat="45.69953" lon="2.97232">
        <ele>990.074646</ele>
        <time>2021-07-06T09:19:57+0200</time>
      </trkpt>
      <trkpt lat="45.69951" lon="2.97244">
        <ele>988.62296</ele>
        <time>2021-07-06T09:19:59+0200</time>
      </trkpt>
      <trkpt lat="45.6995" lon="2.97254">
        <ele>987.408856</ele>
        <time>2021-07-06T09:20:00+0200</time>
      </trkpt>
      <trkpt lat="45.69948" lon="2.97263">
        <ele>986.420878</ele>
        <time>2021-07-06T09:20:01+0200</time>
      </trkpt>
      <trkpt lat="45.69947" lon="2.97272">
        <ele>985.626177</ele>
        <time>2021-07-06T09:20:02+0200</time>
      </trkpt>
      <trkpt lat="45.69942" lon="2.97282">
        <ele>987.376823</ele>
        <time>2021-07-06T09:20:04+0200</time>
      </trkpt>
      <trkpt lat="45.69938" lon="2.97289">
        <ele>987.199261</ele>
        <time>2021-07-06T09:20:05+0200</time>
      </trkpt>
      <trkpt lat="45.69936" lon="2.97298">
        <ele>987.318588</ele>
        <time>2021-07-06T09:20:06+0200</time>
      </trkpt>
      <trkpt lat="45.69933" lon="2.97311">
        <ele>985.928146</ele>
        <time>2021-07-06T09:20:07+0200</time>
      </trkpt>
      <trkpt lat="45.69931" lon="2.97324">
        <ele>984.789397</ele>
        <time>2021-07-06T09:20:08+0200</time>
      </trkpt>
      <trkpt lat="45.6993" lon="2.97333">
        <ele>983.426816</ele>
        <time>2021-07-06T09:20:09+0200</time>
      </trkpt>
      <trkpt lat="45.69927" lon="2.97342">
        <ele>981.964143</ele>
        <time>2021-07-06T09:20:10+0200</time>
      </trkpt>
      <trkpt lat="45.69922" lon="2.97354">
        <ele>981.517699</ele>
        <time>2021-07-06T09:20:11+0200</time>
      </trkpt>
      <trkpt lat="45.69919" lon="2.97367">
        <ele>981.35771</ele>
        <time>2021-07-06T09:20:12+0200</time>
      </trkpt>
      <trkpt lat="45.69917" lon="2.97378">
        <ele>980.740955</ele>
        <time>2021-07-06T09:20:13+0200</time>
      </trkpt>
      <trkpt lat="45.69913" lon="2.97389">
        <ele>979.630089</ele>
        <time>2021-07-06T09:20:14+0200</time>
      </trkpt>
      <trkpt lat="45.69908" lon="2.974">
        <ele>979.829873</ele>
        <time>2021-07-06T09:20:15+0200</time>
      </trkpt>
      <trkpt lat="45.69902" lon="2.9741">
        <ele>979.07542</ele>
        <time>2021-07-06T09:20:16+0200</time>
      </trkpt>
      <trkpt lat="45.69895" lon="2.97421">
        <ele>978.126304</ele>
        <time>2021-07-06T09:20:17+0200</time>
      </trkpt>
      <trkpt lat="45.6989" lon="2.97431">
        <ele>977.697712</ele>
        <time>2021-07-06T09:20:18+0200</time>
      </trkpt>
      <trkpt lat="45.69885" lon="2.97441">
        <ele>978.019532</ele>
        <time>2021-07-06T09:20:19+0200</time>
      </trkpt>
      <trkpt lat="45.69881" lon="2.97453">
        <ele>977.794805</ele>
        <time>2021-07-06T09:20:20+0200</time>
      </trkpt>
      <trkpt lat="45.69877" lon="2.97464">
        <ele>976.964421</ele>
        <time>2021-07-06T09:20:21+0200</time>
      </trkpt>
      <trkpt lat="45.69875" lon="2.97474">
        <ele>976.29707</ele>
        <time>2021-07-06T09:20:22+0200</time>
      </trkpt>
      <trkpt lat="45.69874" lon="2.97483">
        <ele>975.477048</ele>
        <time>2021-07-06T09:20:23+0200</time>
      </trkpt>
      <trkpt lat="45.69871" lon="2.97494">
        <ele>975.00486</ele>
        <time>2021-07-06T09:20:24+0200</time>
      </trkpt>
      <trkpt lat="45.69867" lon="2.97502">
        <ele>974.14052</ele>
        <time>2021-07-06T09:20:25+0200</time>
      </trkpt>
      <trkpt lat="45.69862" lon="2.97514">
        <ele>973.303125</ele>
        <time>2021-07-06T09:20:26+0200</time>
      </trkpt>
      <trkpt lat="45.69859" lon="2.97526">
        <ele>974.025556</ele>
        <time>2021-07-06T09:20:27+0200</time>
      </trkpt>
      <trkpt lat="45.69854" lon="2.97535">
        <ele>973.190262</ele>
        <time>2021-07-06T09:20:28+0200</time>
      </trkpt>
      <trkpt lat="45.6985" lon="2.97545">
        <ele>972.118616</ele>
        <time>2021-07-06T09:20:29+0200</time>
      </trkpt>
      <trkpt lat="45.69847" lon="2.97557">
        <ele>970.808329</ele>
        <time>2021-07-06T09:20:30+0200</time>
      </trkpt>
      <trkpt lat="45.69843" lon="2.97568">
        <ele>970.369869</ele>
        <time>2021-07-06T09:20:31+0200</time>
      </trkpt>
      <trkpt lat="45.69841" lon="2.97577">
        <ele>971.275436</ele>
        <time>2021-07-06T09:20:32+0200</time>
      </trkpt>
      <trkpt lat="45.69839" lon="2.97591">
        <ele>971.141913</ele>
        <time>2021-07-06T09:20:33+0200</time>
      </trkpt>
      <trkpt lat="45.69835" lon="2.97601">
        <ele>970.854521</ele>
        <time>2021-07-06T09:20:34+0200</time>
      </trkpt>
      <trkpt lat="45.69832" lon="2.9761">
        <ele>969.957672</ele>
        <time>2021-07-06T09:20:35+0200</time>
      </trkpt>
      <trkpt lat="45.69831" lon="2.97618">
        <ele>969.677511</ele>
        <time>2021-07-06T09:20:36+0200</time>
      </trkpt>
      <trkpt lat="45.6983" lon="2.97627">
        <ele>969.776712</ele>
        <time>2021-07-06T09:20:37+0200</time>
      </trkpt>
      <trkpt lat="45.69828" lon="2.97635">
        <ele>969.719469</ele>
        <time>2021-07-06T09:20:38+0200</time>
      </trkpt>
      <trkpt lat="45.69825" lon="2.97649">
        <ele>969.505091</ele>
        <time>2021-07-06T09:20:39+0200</time>
      </trkpt>
      <trkpt lat="45.69824" lon="2.97663">
        <ele>970.84947</ele>
        <time>2021-07-06T09:20:40+0200</time>
      </trkpt>
      <trkpt lat="45.69822" lon="2.97674">
        <ele>972.089643</ele>
        <time>2021-07-06T09:20:41+0200</time>
      </trkpt>
      <trkpt lat="45.69821" lon="2.97687">
        <ele>971.482351</ele>
        <time>2021-07-06T09:20:42+0200</time>
      </trkpt>
      <trkpt lat="45.69818" lon="2.97696">
        <ele>970.269205</ele>
        <time>2021-07-06T09:20:43+0200</time>
      </trkpt>
      <trkpt lat="45.69814" lon="2.97708">
        <ele>968.823253</ele>
        <time>2021-07-06T09:20:44+0200</time>
      </trkpt>
      <trkpt lat="45.69812" lon="2.97723">
        <ele>970.361632</ele>
        <time>2021-07-06T09:20:45+0200</time>
      </trkpt>
      <trkpt lat="45.69812" lon="2.97737">
        <ele>972.692373</ele>
        <time>2021-07-06T09:20:46+0200</time>
      </trkpt>
      <trkpt lat="45.69808" lon="2.97746">
        <ele>972.900025</ele>
        <time>2021-07-06T09:20:47+0200</time>
      </trkpt>
      <trkpt lat="45.69805" lon="2.97753">
        <ele>972.945121</ele>
        <time>2021-07-06T09:20:48+0200</time>
      </trkpt>
      <trkpt lat="45.69801" lon="2.97763">
        <ele>971.333151</ele>
        <time>2021-07-06T09:20:49+0200</time>
      </trkpt>
      <trkpt lat="45.69797" lon="2.97771">
        <ele>971.457366</ele>
        <time>2021-07-06T09:20:50+0200</time>
      </trkpt>
      <trkpt lat="45.69795" lon="2.97776">
        <ele>972.354665</ele>
        <time>2021-07-06T09:20:51+0200</time>
      </trkpt>
      <trkpt lat="45.69791" lon="2.97786">
        <ele>972.997165</ele>
        <time>2021-07-06T09:20:52+0200</time>
      </trkpt>
      <trkpt lat="45.69788" lon="2.97793">
        <ele>973.703106</ele>
        <time>2021-07-06T09:20:53+0200</time>
      </trkpt>
      <trkpt lat="45.69784" lon="2.97799">
        <ele>973.455559</ele>
        <time>2021-07-06T09:20:54+0200</time>
      </trkpt>
      <trkpt lat="45.6978" lon="2.97805">
        <ele>972.40107</ele>
        <time>2021-07-06T09:20:55+0200</time>
      </trkpt>
      <trkpt lat="45.69775" lon="2.97815">
        <ele>972.849737</ele>
        <time>2021-07-06T09:20:56+0200</time>
      </trkpt>
      <trkpt lat="45.69772" lon="2.97824">
        <ele>971.157492</ele>
        <time>2021-07-06T09:20:57+0200</time>
      </trkpt>
      <trkpt lat="45.69771" lon="2.97834">
        <ele>972.974595</ele>
        <time>2021-07-06T09:20:58+0200</time>
      </trkpt>
      <trkpt lat="45.69768" lon="2.97843">
        <ele>971.00449</ele>
        <time>2021-07-06T09:20:59+0200</time>
      </trkpt>
      <trkpt lat="45.69765" lon="2.9785">
        <ele>969.037188</ele>
        <time>2021-07-06T09:21:00+0200</time>
      </trkpt>
      <trkpt lat="45.69762" lon="2.97858">
        <ele>967.252625</ele>
        <time>2021-07-06T09:21:01+0200</time>
      </trkpt>
      <trkpt lat="45.69758" lon="2.97869">
        <ele>966.661483</ele>
        <time>2021-07-06T09:21:02+0200</time>
      </trkpt>
      <trkpt lat="45.69754" lon="2.97879">
        <ele>964.979149</ele>
        <time>2021-07-06T09:21:03+0200</time>
      </trkpt>
      <trkpt lat="45.6975" lon="2.97889">
        <ele>964.522847</ele>
        <time>2021-07-06T09:21:04+0200</time>
      </trkpt>
      <trkpt lat="45.69748" lon="2.97898">
        <ele>965.812589</ele>
        <time>2021-07-06T09:21:05+0200</time>
      </trkpt>
      <trkpt lat="45.69743" lon="2.97904">
        <ele>965.70131</ele>
        <time>2021-07-06T09:21:06+0200</time>
      </trkpt>
      <trkpt lat="45.69739" lon="2.97911">
        <ele>964.97849</ele>
        <time>2021-07-06T09:21:07+0200</time>
      </trkpt>
      <trkpt lat="45.69736" lon="2.97919">
        <ele>964.103359</ele>
        <time>2021-07-06T09:21:08+0200</time>
      </trkpt>
      <trkpt lat="45.69732" lon="2.97927">
        <ele>964.591216</ele>
        <time>2021-07-06T09:21:09+0200</time>
      </trkpt>
      <trkpt lat="45.69728" lon="2.97936">
        <ele>961.236992</ele>
        <time>2021-07-06T09:21:10+0200</time>
      </trkpt>
      <trkpt lat="45.69727" lon="2.97945">
        <ele>956.126604</ele>
        <time>2021-07-06T09:21:12+0200</time>
      </trkpt>
      <trkpt lat="45.69725" lon="2.97952">
        <ele>952.982836</ele>
        <time>2021-07-06T09:21:14+0200</time>
      </trkpt>
      <trkpt lat="45.69724" lon="2.97959">
        <ele>951.032269</ele>
        <time>2021-07-06T09:21:16+0200</time>
      </trkpt>
      <trkpt lat="45.6972" lon="2.97968">
        <ele>950.722921</ele>
        <time>2021-07-06T09:21:18+0200</time>
      </trkpt>
      <trkpt lat="45.69717" lon="2.97977">
        <ele>951.21436</ele>
        <time>2021-07-06T09:21:20+0200</time>
      </trkpt>
      <trkpt lat="45.69715" lon="2.97985">
        <ele>951.651837</ele>
        <time>2021-07-06T09:21:22+0200</time>
      </trkpt>
      <trkpt lat="45.69716" lon="2.97992">
        <ele>951.579443</ele>
        <time>2021-07-06T09:21:24+0200</time>
      </trkpt>
      <trkpt lat="45.69716" lon="2.97999">
        <ele>951.98032</ele>
        <time>2021-07-06T09:21:26+0200</time>
      </trkpt>
      <trkpt lat="45.69714" lon="2.98008">
        <ele>953.119705</ele>
        <time>2021-07-06T09:21:29+0200</time>
      </trkpt>
      <trkpt lat="45.69713" lon="2.98015">
        <ele>952.845391</ele>
        <time>2021-07-06T09:21:31+0200</time>
      </trkpt>
      <trkpt lat="45.69711" lon="2.98021">
        <ele>952.287948</ele>
        <time>2021-07-06T09:21:33+0200</time>
      </trkpt>
      <trkpt lat="45.69709" lon="2.98031">
        <ele>950.987573</ele>
        <time>2021-07-06T09:21:35+0200</time>
      </trkpt>
      <trkpt lat="45.69706" lon="2.98039">
        <ele>951.215003</ele>
        <time>2021-07-06T09:21:37+0200</time>
      </trkpt>
      <trkpt lat="45.69705" lon="2.98047">
        <ele>952.12566</ele>
        <time>2021-07-06T09:21:39+0200</time>
      </trkpt>
      <trkpt lat="45.69703" lon="2.98056">
        <ele>953.827282</ele>
        <time>2021-07-06T09:21:42+0200</time>
      </trkpt>
      <trkpt lat="45.69701" lon="2.98066">
        <ele>953.514801</ele>
        <time>2021-07-06T09:21:44+0200</time>
      </trkpt>
      <trkpt lat="45.697" lon="2.98073">
        <ele>955.81218</ele>
        <time>2021-07-06T09:21:46+0200</time>
      </trkpt>
      <trkpt lat="45.697" lon="2.9808">
        <ele>956.605088</ele>
        <time>2021-07-06T09:21:48+0200</time>
      </trkpt>
      <trkpt lat="45.697" lon="2.98088">
        <ele>957.642845</ele>
        <time>2021-07-06T09:21:50+0200</time>
      </trkpt>
      <trkpt lat="45.69701" lon="2.98097">
        <ele>958.104886</ele>
        <time>2021-07-06T09:21:53+0200</time>
      </trkpt>
      <trkpt lat="45.69701" lon="2.98104">
        <ele>957.187536</ele>
        <time>2021-07-06T09:21:54+0200</time>
      </trkpt>
      <trkpt lat="45.69701" lon="2.98115">
        <ele>956.157333</ele>
        <time>2021-07-06T09:21:56+0200</time>
      </trkpt>
      <trkpt lat="45.69701" lon="2.98126">
        <ele>956.875707</ele>
        <time>2021-07-06T09:21:58+0200</time>
      </trkpt>
      <trkpt lat="45.69698" lon="2.98136">
        <ele>954.568169</ele>
        <time>2021-07-06T09:22:01+0200</time>
      </trkpt>
      <trkpt lat="45.69697" lon="2.98144">
        <ele>954.920482</ele>
        <time>2021-07-06T09:22:03+0200</time>
      </trkpt>
      <trkpt lat="45.69696" lon="2.98152">
        <ele>956.581157</ele>
        <time>2021-07-06T09:22:05+0200</time>
      </trkpt>
      <trkpt lat="45.69693" lon="2.98158">
        <ele>956.403913</ele>
        <time>2021-07-06T09:22:07+0200</time>
      </trkpt>
      <trkpt lat="45.69692" lon="2.98166">
        <ele>957.318707</ele>
        <time>2021-07-06T09:22:09+0200</time>
      </trkpt>
      <trkpt lat="45.69691" lon="2.98174">
        <ele>958.918742</ele>
        <time>2021-07-06T09:22:11+0200</time>
      </trkpt>
      <trkpt lat="45.69691" lon="2.98181">
        <ele>959.988297</ele>
        <time>2021-07-06T09:22:13+0200</time>
      </trkpt>
      <trkpt lat="45.69689" lon="2.98189">
        <ele>959.472036</ele>
        <time>2021-07-06T09:22:15+0200</time>
      </trkpt>
      <trkpt lat="45.69687" lon="2.98195">
        <ele>960.032959</ele>
        <time>2021-07-06T09:22:17+0200</time>
      </trkpt>
      <trkpt lat="45.69691" lon="2.98205">
        <ele>961.720523</ele>
        <time>2021-07-06T09:22:19+0200</time>
      </trkpt>
      <trkpt lat="45.69691" lon="2.98214">
        <ele>961.434421</ele>
        <time>2021-07-06T09:22:21+0200</time>
      </trkpt>
      <trkpt lat="45.69687" lon="2.98222">
        <ele>958.829463</ele>
        <time>2021-07-06T09:22:23+0200</time>
      </trkpt>
      <trkpt lat="45.69685" lon="2.98229">
        <ele>957.823582</ele>
        <time>2021-07-06T09:22:25+0200</time>
      </trkpt>
      <trkpt lat="45.69681" lon="2.98238">
        <ele>957.282678</ele>
        <time>2021-07-06T09:22:27+0200</time>
      </trkpt>
      <trkpt lat="45.69679" lon="2.98247">
        <ele>957.907852</ele>
        <time>2021-07-06T09:22:29+0200</time>
      </trkpt>
      <trkpt lat="45.69678" lon="2.98256">
        <ele>957.619319</ele>
        <time>2021-07-06T09:22:31+0200</time>
      </trkpt>
      <trkpt lat="45.69675" lon="2.98261">
        <ele>956.213364</ele>
        <time>2021-07-06T09:22:32+0200</time>
      </trkpt>
      <trkpt lat="45.69673" lon="2.98272">
        <ele>957.552496</ele>
        <time>2021-07-06T09:22:34+0200</time>
      </trkpt>
      <trkpt lat="45.69669" lon="2.98278">
        <ele>957.20024</ele>
        <time>2021-07-06T09:22:36+0200</time>
      </trkpt>
      <trkpt lat="45.69667" lon="2.98287">
        <ele>957.979103</ele>
        <time>2021-07-06T09:22:38+0200</time>
      </trkpt>
      <trkpt lat="45.69665" lon="2.98297">
        <ele>958.968784</ele>
        <time>2021-07-06T09:22:40+0200</time>
      </trkpt>
      <trkpt lat="45.69662" lon="2.98307">
        <ele>959.260324</ele>
        <time>2021-07-06T09:22:42+0200</time>
      </trkpt>
      <trkpt lat="45.69661" lon="2.98315">
        <ele>961.426176</ele>
        <time>2021-07-06T09:22:44+0200</time>
      </trkpt>
      <trkpt lat="45.69662" lon="2.98322">
        <ele>963.369375</ele>
        <time>2021-07-06T09:22:46+0200</time>
      </trkpt>
      <trkpt lat="45.69662" lon="2.9833">
        <ele>964.374557</ele>
        <time>2021-07-06T09:22:48+0200</time>
      </trkpt>
      <trkpt lat="45.69664" lon="2.98339">
        <ele>963.506706</ele>
        <time>2021-07-06T09:22:50+0200</time>
      </trkpt>
      <trkpt lat="45.69661" lon="2.98347">
        <ele>960.156742</ele>
        <time>2021-07-06T09:22:52+0200</time>
      </trkpt>
      <trkpt lat="45.6966" lon="2.98357">
        <ele>957.082049</ele>
        <time>2021-07-06T09:22:54+0200</time>
      </trkpt>
      <trkpt lat="45.69658" lon="2.98364">
        <ele>955.74521</ele>
        <time>2021-07-06T09:22:56+0200</time>
      </trkpt>
      <trkpt lat="45.69654" lon="2.98372">
        <ele>954.537713</ele>
        <time>2021-07-06T09:22:58+0200</time>
      </trkpt>
      <trkpt lat="45.69652" lon="2.98382">
        <ele>950.134651</ele>
        <time>2021-07-06T09:23:00+0200</time>
      </trkpt>
      <trkpt lat="45.69651" lon="2.98391">
        <ele>949.972423</ele>
        <time>2021-07-06T09:23:01+0200</time>
      </trkpt>
      <trkpt lat="45.69652" lon="2.98399">
        <ele>948.453467</ele>
        <time>2021-07-06T09:23:02+0200</time>
      </trkpt>
      <trkpt lat="45.69652" lon="2.98407">
        <ele>947.637825</ele>
        <time>2021-07-06T09:23:03+0200</time>
      </trkpt>
      <trkpt lat="45.6965" lon="2.98416">
        <ele>944.624277</ele>
        <time>2021-07-06T09:23:05+0200</time>
      </trkpt>
      <trkpt lat="45.69648" lon="2.98423">
        <ele>944.275573</ele>
        <time>2021-07-06T09:23:06+0200</time>
      </trkpt>
      <trkpt lat="45.69646" lon="2.9843">
        <ele>943.659243</ele>
        <time>2021-07-06T09:23:07+0200</time>
      </trkpt>
      <trkpt lat="45.69644" lon="2.98438">
        <ele>941.138743</ele>
        <time>2021-07-06T09:23:08+0200</time>
      </trkpt>
      <trkpt lat="45.69642" lon="2.98446">
        <ele>939.528054</ele>
        <time>2021-07-06T09:23:09+0200</time>
      </trkpt>
      <trkpt lat="45.6964" lon="2.98458">
        <ele>940.125835</ele>
        <time>2021-07-06T09:23:10+0200</time>
      </trkpt>
      <trkpt lat="45.6964" lon="2.98468">
        <ele>940.994813</ele>
        <time>2021-07-06T09:23:11+0200</time>
      </trkpt>
      <trkpt lat="45.69638" lon="2.98478">
        <ele>940.48582</ele>
        <time>2021-07-06T09:23:12+0200</time>
      </trkpt>
      <trkpt lat="45.69637" lon="2.98488">
        <ele>940.543896</ele>
        <time>2021-07-06T09:23:13+0200</time>
      </trkpt>
      <trkpt lat="45.69639" lon="2.98498">
        <ele>940.655294</ele>
        <time>2021-07-06T09:23:14+0200</time>
      </trkpt>
      <trkpt lat="45.69638" lon="2.9851">
        <ele>939.984053</ele>
        <time>2021-07-06T09:23:15+0200</time>
      </trkpt>
      <trkpt lat="45.69639" lon="2.98522">
        <ele>940.637303</ele>
        <time>2021-07-06T09:23:16+0200</time>
      </trkpt>
      <trkpt lat="45.69639" lon="2.98531">
        <ele>939.962038</ele>
        <time>2021-07-06T09:23:17+0200</time>
      </trkpt>
      <trkpt lat="45.69635" lon="2.98539">
        <ele>940.148168</ele>
        <time>2021-07-06T09:23:18+0200</time>
      </trkpt>
      <trkpt lat="45.69628" lon="2.98548">
        <ele>939.5108</ele>
        <time>2021-07-06T09:23:19+0200</time>
      </trkpt>
      <trkpt lat="45.69626" lon="2.98558">
        <ele>938.41463</ele>
        <time>2021-07-06T09:23:20+0200</time>
      </trkpt>
      <trkpt lat="45.69624" lon="2.98568">
        <ele>937.39672</ele>
        <time>2021-07-06T09:23:21+0200</time>
      </trkpt>
      <trkpt lat="45.69622" lon="2.98579">
        <ele>937.442599</ele>
        <time>2021-07-06T09:23:22+0200</time>
      </trkpt>
      <trkpt lat="45.69619" lon="2.98588">
        <ele>937.455947</ele>
        <time>2021-07-06T09:23:23+0200</time>
      </trkpt>
      <trkpt lat="45.69617" lon="2.98597">
        <ele>937.960127</ele>
        <time>2021-07-06T09:23:24+0200</time>
      </trkpt>
      <trkpt lat="45.69615" lon="2.98606">
        <ele>937.227337</ele>
        <time>2021-07-06T09:23:25+0200</time>
      </trkpt>
      <trkpt lat="45.69615" lon="2.98617">
        <ele>936.330456</ele>
        <time>2021-07-06T09:23:26+0200</time>
      </trkpt>
      <trkpt lat="45.69614" lon="2.98628">
        <ele>936.193262</ele>
        <time>2021-07-06T09:23:27+0200</time>
      </trkpt>
      <trkpt lat="45.69611" lon="2.98639">
        <ele>936.658539</ele>
        <time>2021-07-06T09:23:28+0200</time>
      </trkpt>
      <trkpt lat="45.69609" lon="2.98649">
        <ele>936.334123</ele>
        <time>2021-07-06T09:23:29+0200</time>
      </trkpt>
      <trkpt lat="45.69608" lon="2.98659">
        <ele>936.27534</ele>
        <time>2021-07-06T09:23:30+0200</time>
      </trkpt>
      <trkpt lat="45.69607" lon="2.98668">
        <ele>935.954627</ele>
        <time>2021-07-06T09:23:31+0200</time>
      </trkpt>
      <trkpt lat="45.69605" lon="2.98675">
        <ele>936.444983</ele>
        <time>2021-07-06T09:23:32+0200</time>
      </trkpt>
      <trkpt lat="45.69602" lon="2.98683">
        <ele>936.777672</ele>
        <time>2021-07-06T09:23:33+0200</time>
      </trkpt>
      <trkpt lat="45.69599" lon="2.98688">
        <ele>936.466459</ele>
        <time>2021-07-06T09:23:34+0200</time>
      </trkpt>
      <trkpt lat="45.69595" lon="2.98697">
        <ele>936.283383</ele>
        <time>2021-07-06T09:23:36+0200</time>
      </trkpt>
      <trkpt lat="45.69593" lon="2.98704">
        <ele>935.353639</ele>
        <time>2021-07-06T09:23:39+0200</time>
      </trkpt>
      <trkpt lat="45.69592" lon="2.98714">
        <ele>936.403405</ele>
        <time>2021-07-06T09:23:42+0200</time>
      </trkpt>
      <trkpt lat="45.6959" lon="2.98723">
        <ele>937.807344</ele>
        <time>2021-07-06T09:23:45+0200</time>
      </trkpt>
      <trkpt lat="45.69585" lon="2.98729">
        <ele>939.976914</ele>
        <time>2021-07-06T09:23:48+0200</time>
      </trkpt>
      <trkpt lat="45.69581" lon="2.98737">
        <ele>941.32865</ele>
        <time>2021-07-06T09:23:51+0200</time>
      </trkpt>
      <trkpt lat="45.69579" lon="2.98742">
        <ele>940.408698</ele>
        <time>2021-07-06T09:23:53+0200</time>
      </trkpt>
      <trkpt lat="45.69575" lon="2.98751">
        <ele>942.338654</ele>
        <time>2021-07-06T09:23:56+0200</time>
      </trkpt>
      <trkpt lat="45.69574" lon="2.9876">
        <ele>943.499877</ele>
        <time>2021-07-06T09:23:59+0200</time>
      </trkpt>
      <trkpt lat="45.69573" lon="2.98767">
        <ele>943.307352</ele>
        <time>2021-07-06T09:24:01+0200</time>
      </trkpt>
      <trkpt lat="45.6957" lon="2.98774">
        <ele>942.395662</ele>
        <time>2021-07-06T09:24:03+0200</time>
      </trkpt>
      <trkpt lat="45.69568" lon="2.9878">
        <ele>942.527587</ele>
        <time>2021-07-06T09:24:04+0200</time>
      </trkpt>
      <trkpt lat="45.69568" lon="2.98786">
        <ele>942.211265</ele>
        <time>2021-07-06T09:24:05+0200</time>
      </trkpt>
      <trkpt lat="45.69566" lon="2.988">
        <ele>940.135625</ele>
        <time>2021-07-06T09:24:07+0200</time>
      </trkpt>
      <trkpt lat="45.69565" lon="2.98808">
        <ele>940.615477</ele>
        <time>2021-07-06T09:24:08+0200</time>
      </trkpt>
      <trkpt lat="45.69565" lon="2.98816">
        <ele>942.154238</ele>
        <time>2021-07-06T09:24:09+0200</time>
      </trkpt>
      <trkpt lat="45.69564" lon="2.98824">
        <ele>942.698605</ele>
        <time>2021-07-06T09:24:10+0200</time>
      </trkpt>
      <trkpt lat="45.69564" lon="2.98831">
        <ele>942.822631</ele>
        <time>2021-07-06T09:24:11+0200</time>
      </trkpt>
      <trkpt lat="45.69561" lon="2.98838">
        <ele>942.442101</ele>
        <time>2021-07-06T09:24:12+0200</time>
      </trkpt>
      <trkpt lat="45.69559" lon="2.98846">
        <ele>941.282806</ele>
        <time>2021-07-06T09:24:13+0200</time>
      </trkpt>
      <trkpt lat="45.69557" lon="2.98856">
        <ele>941.30728</ele>
        <time>2021-07-06T09:24:14+0200</time>
      </trkpt>
      <trkpt lat="45.69555" lon="2.98862">
        <ele>940.836309</ele>
        <time>2021-07-06T09:24:15+0200</time>
      </trkpt>
      <trkpt lat="45.69553" lon="2.98871">
        <ele>940.665776</ele>
        <time>2021-07-06T09:24:16+0200</time>
      </trkpt>
      <trkpt lat="45.6955" lon="2.9888">
        <ele>941.45348</ele>
        <time>2021-07-06T09:24:17+0200</time>
      </trkpt>
      <trkpt lat="45.69547" lon="2.98886">
        <ele>942.275547</ele>
        <time>2021-07-06T09:24:18+0200</time>
      </trkpt>
      <trkpt lat="45.69541" lon="2.9889">
        <ele>941.422725</ele>
        <time>2021-07-06T09:24:19+0200</time>
      </trkpt>
      <trkpt lat="45.69536" lon="2.98903">
        <ele>944.279463</ele>
        <time>2021-07-06T09:24:21+0200</time>
      </trkpt>
      <trkpt lat="45.69535" lon="2.98912">
        <ele>942.359532</ele>
        <time>2021-07-06T09:24:22+0200</time>
      </trkpt>
      <trkpt lat="45.69531" lon="2.98919">
        <ele>940.128717</ele>
        <time>2021-07-06T09:24:23+0200</time>
      </trkpt>
      <trkpt lat="45.69529" lon="2.98927">
        <ele>938.313914</ele>
        <time>2021-07-06T09:24:24+0200</time>
      </trkpt>
      <trkpt lat="45.69525" lon="2.98933">
        <ele>938.390651</ele>
        <time>2021-07-06T09:24:25+0200</time>
      </trkpt>
      <trkpt lat="45.69522" lon="2.98937">
        <ele>938.601053</ele>
        <time>2021-07-06T09:24:26+0200</time>
      </trkpt>
      <trkpt lat="45.69519" lon="2.98943">
        <ele>939.178318</ele>
        <time>2021-07-06T09:24:27+0200</time>
      </trkpt>
      <trkpt lat="45.6952" lon="2.98954">
        <ele>939.043133</ele>
        <time>2021-07-06T09:24:29+0200</time>
      </trkpt>
      <trkpt lat="45.6952" lon="2.9896">
        <ele>939.768272</ele>
        <time>2021-07-06T09:24:30+0200</time>
      </trkpt>
      <trkpt lat="45.69521" lon="2.98969">
        <ele>940.964559</ele>
        <time>2021-07-06T09:24:32+0200</time>
      </trkpt>
      <trkpt lat="45.69522" lon="2.98976">
        <ele>941.249449</ele>
        <time>2021-07-06T09:24:34+0200</time>
      </trkpt>
      <trkpt lat="45.69523" lon="2.98983">
        <ele>940.55787</ele>
        <time>2021-07-06T09:24:36+0200</time>
      </trkpt>
      <trkpt lat="45.69524" lon="2.98989">
        <ele>939.827408</ele>
        <time>2021-07-06T09:24:38+0200</time>
      </trkpt>
      <trkpt lat="45.69526" lon="2.98995">
        <ele>937.416064</ele>
        <time>2021-07-06T09:24:40+0200</time>
      </trkpt>
      <trkpt lat="45.69527" lon="2.99002">
        <ele>936.491568</ele>
        <time>2021-07-06T09:24:42+0200</time>
      </trkpt>
      <trkpt lat="45.6953" lon="2.99009">
        <ele>936.61776</ele>
        <time>2021-07-06T09:24:44+0200</time>
      </trkpt>
      <trkpt lat="45.69534" lon="2.99017">
        <ele>938.641669</ele>
        <time>2021-07-06T09:24:47+0200</time>
      </trkpt>
      <trkpt lat="45.69537" lon="2.99023">
        <ele>940.605979</ele>
        <time>2021-07-06T09:24:49+0200</time>
      </trkpt>
      <trkpt lat="45.69539" lon="2.99031">
        <ele>943.305727</ele>
        <time>2021-07-06T09:24:52+0200</time>
      </trkpt>
      <trkpt lat="45.69541" lon="2.99039">
        <ele>944.320788</ele>
        <time>2021-07-06T09:24:54+0200</time>
      </trkpt>
      <trkpt lat="45.69545" lon="2.99049">
        <ele>944.84123</ele>
        <time>2021-07-06T09:24:56+0200</time>
      </trkpt>
      <trkpt lat="45.69547" lon="2.99058">
        <ele>943.78534</ele>
        <time>2021-07-06T09:24:58+0200</time>
      </trkpt>
      <trkpt lat="45.6955" lon="2.99066">
        <ele>944.54281</ele>
        <time>2021-07-06T09:25:00+0200</time>
      </trkpt>
      <trkpt lat="45.69552" lon="2.99074">
        <ele>945.561462</ele>
        <time>2021-07-06T09:25:02+0200</time>
      </trkpt>
      <trkpt lat="45.69555" lon="2.99083">
        <ele>943.933745</ele>
        <time>2021-07-06T09:25:04+0200</time>
      </trkpt>
      <trkpt lat="45.69558" lon="2.99092">
        <ele>944.24032</ele>
        <time>2021-07-06T09:25:06+0200</time>
      </trkpt>
      <trkpt lat="45.6956" lon="2.99105">
        <ele>942.665193</ele>
        <time>2021-07-06T09:25:08+0200</time>
      </trkpt>
      <trkpt lat="45.6956" lon="2.99121">
        <ele>938.990494</ele>
        <time>2021-07-06T09:25:10+0200</time>
      </trkpt>
      <trkpt lat="45.69556" lon="2.9913">
        <ele>937.004088</ele>
        <time>2021-07-06T09:25:11+0200</time>
      </trkpt>
      <trkpt lat="45.69552" lon="2.99137">
        <ele>936.311688</ele>
        <time>2021-07-06T09:25:12+0200</time>
      </trkpt>
      <trkpt lat="45.69549" lon="2.99144">
        <ele>935.951085</ele>
        <time>2021-07-06T09:25:13+0200</time>
      </trkpt>
      <trkpt lat="45.69546" lon="2.99151">
        <ele>934.822284</ele>
        <time>2021-07-06T09:25:14+0200</time>
      </trkpt>
      <trkpt lat="45.69543" lon="2.99162">
        <ele>934.081885</ele>
        <time>2021-07-06T09:25:15+0200</time>
      </trkpt>
      <trkpt lat="45.69541" lon="2.99173">
        <ele>934.60531</ele>
        <time>2021-07-06T09:25:16+0200</time>
      </trkpt>
      <trkpt lat="45.69538" lon="2.99182">
        <ele>933.677971</ele>
        <time>2021-07-06T09:25:17+0200</time>
      </trkpt>
      <trkpt lat="45.69535" lon="2.99191">
        <ele>934.184328</ele>
        <time>2021-07-06T09:25:18+0200</time>
      </trkpt>
      <trkpt lat="45.69533" lon="2.99199">
        <ele>933.702448</ele>
        <time>2021-07-06T09:25:19+0200</time>
      </trkpt>
      <trkpt lat="45.69531" lon="2.99206">
        <ele>933.721824</ele>
        <time>2021-07-06T09:25:20+0200</time>
      </trkpt>
      <trkpt lat="45.69528" lon="2.99213">
        <ele>933.258475</ele>
        <time>2021-07-06T09:25:21+0200</time>
      </trkpt>
      <trkpt lat="45.69526" lon="2.99222">
        <ele>935.987465</ele>
        <time>2021-07-06T09:25:22+0200</time>
      </trkpt>
      <trkpt lat="45.69523" lon="2.9923">
        <ele>936.375722</ele>
        <time>2021-07-06T09:25:23+0200</time>
      </trkpt>
      <trkpt lat="45.69521" lon="2.99242">
        <ele>936.597061</ele>
        <time>2021-07-06T09:25:25+0200</time>
      </trkpt>
      <trkpt lat="45.69519" lon="2.9925">
        <ele>936.369229</ele>
        <time>2021-07-06T09:25:26+0200</time>
      </trkpt>
      <trkpt lat="45.69519" lon="2.99257">
        <ele>934.99545</ele>
        <time>2021-07-06T09:25:27+0200</time>
      </trkpt>
      <trkpt lat="45.69518" lon="2.99267">
        <ele>933.497762</ele>
        <time>2021-07-06T09:25:28+0200</time>
      </trkpt>
      <trkpt lat="45.69517" lon="2.99278">
        <ele>933.719745</ele>
        <time>2021-07-06T09:25:29+0200</time>
      </trkpt>
      <trkpt lat="45.69516" lon="2.99288">
        <ele>932.800802</ele>
        <time>2021-07-06T09:25:30+0200</time>
      </trkpt>
      <trkpt lat="45.69513" lon="2.99296">
        <ele>932.361527</ele>
        <time>2021-07-06T09:25:31+0200</time>
      </trkpt>
      <trkpt lat="45.69509" lon="2.99304">
        <ele>932.127108</ele>
        <time>2021-07-06T09:25:32+0200</time>
      </trkpt>
      <trkpt lat="45.69507" lon="2.99311">
        <ele>932.07369</ele>
        <time>2021-07-06T09:25:33+0200</time>
      </trkpt>
      <trkpt lat="45.69503" lon="2.99321">
        <ele>930.248238</ele>
        <time>2021-07-06T09:25:34+0200</time>
      </trkpt>
      <trkpt lat="45.695" lon="2.99329">
        <ele>929.089585</ele>
        <time>2021-07-06T09:25:35+0200</time>
      </trkpt>
      <trkpt lat="45.69496" lon="2.9934">
        <ele>928.104423</ele>
        <time>2021-07-06T09:25:36+0200</time>
      </trkpt>
      <trkpt lat="45.69492" lon="2.99348">
        <ele>925.281143</ele>
        <time>2021-07-06T09:25:37+0200</time>
      </trkpt>
      <trkpt lat="45.69488" lon="2.99356">
        <ele>924.40109</ele>
        <time>2021-07-06T09:25:38+0200</time>
      </trkpt>
      <trkpt lat="45.69484" lon="2.99365">
        <ele>924.389788</ele>
        <time>2021-07-06T09:25:39+0200</time>
      </trkpt>
      <trkpt lat="45.69481" lon="2.99376">
        <ele>921.480973</ele>
        <time>2021-07-06T09:25:41+0200</time>
      </trkpt>
      <trkpt lat="45.69478" lon="2.99384">
        <ele>920.005412</ele>
        <time>2021-07-06T09:25:45+0200</time>
      </trkpt>
      <trkpt lat="45.69474" lon="2.99391">
        <ele>918.749519</ele>
        <time>2021-07-06T09:25:48+0200</time>
      </trkpt>
      <trkpt lat="45.69469" lon="2.99395">
        <ele>918.515495</ele>
        <time>2021-07-06T09:25:50+0200</time>
      </trkpt>
      <trkpt lat="45.69465" lon="2.994">
        <ele>918.83829</ele>
        <time>2021-07-06T09:25:52+0200</time>
      </trkpt>
      <trkpt lat="45.69458" lon="2.99405">
        <ele>918.95789</ele>
        <time>2021-07-06T09:25:54+0200</time>
      </trkpt>
      <trkpt lat="45.6945" lon="2.9941">
        <ele>919.590631</ele>
        <time>2021-07-06T09:25:56+0200</time>
      </trkpt>
      <trkpt lat="45.69443" lon="2.99414">
        <ele>919.833634</ele>
        <time>2021-07-06T09:25:58+0200</time>
      </trkpt>
      <trkpt lat="45.69437" lon="2.99419">
        <ele>919.960125</ele>
        <time>2021-07-06T09:26:00+0200</time>
      </trkpt>
      <trkpt lat="45.69431" lon="2.99422">
        <ele>918.828281</ele>
        <time>2021-07-06T09:26:02+0200</time>
      </trkpt>
      <trkpt lat="45.69428" lon="2.99427">
        <ele>918.416982</ele>
        <time>2021-07-06T09:26:04+0200</time>
      </trkpt>
      <trkpt lat="45.69424" lon="2.99437">
        <ele>917.323252</ele>
        <time>2021-07-06T09:26:06+0200</time>
      </trkpt>
      <trkpt lat="45.69421" lon="2.99444">
        <ele>916.441518</ele>
        <time>2021-07-06T09:26:07+0200</time>
      </trkpt>
      <trkpt lat="45.69417" lon="2.99456">
        <ele>914.686766</ele>
        <time>2021-07-06T09:26:09+0200</time>
      </trkpt>
      <trkpt lat="45.69415" lon="2.99463">
        <ele>914.737631</ele>
        <time>2021-07-06T09:26:10+0200</time>
      </trkpt>
      <trkpt lat="45.69413" lon="2.99472">
        <ele>913.74046</ele>
        <time>2021-07-06T09:26:11+0200</time>
      </trkpt>
      <trkpt lat="45.69413" lon="2.9948">
        <ele>913.302161</ele>
        <time>2021-07-06T09:26:12+0200</time>
      </trkpt>
      <trkpt lat="45.69414" lon="2.99488">
        <ele>913.695582</ele>
        <time>2021-07-06T09:26:13+0200</time>
      </trkpt>
      <trkpt lat="45.69413" lon="2.99496">
        <ele>913.328733</ele>
        <time>2021-07-06T09:26:14+0200</time>
      </trkpt>
      <trkpt lat="45.69413" lon="2.99504">
        <ele>913.524257</ele>
        <time>2021-07-06T09:26:15+0200</time>
      </trkpt>
      <trkpt lat="45.69413" lon="2.99514">
        <ele>913.671734</ele>
        <time>2021-07-06T09:26:16+0200</time>
      </trkpt>
      <trkpt lat="45.69411" lon="2.99521">
        <ele>913.714262</ele>
        <time>2021-07-06T09:26:17+0200</time>
      </trkpt>
      <trkpt lat="45.69411" lon="2.9953">
        <ele>912.907734</ele>
        <time>2021-07-06T09:26:18+0200</time>
      </trkpt>
      <trkpt lat="45.69409" lon="2.99537">
        <ele>912.423048</ele>
        <time>2021-07-06T09:26:19+0200</time>
      </trkpt>
      <trkpt lat="45.69407" lon="2.99546">
        <ele>912.122693</ele>
        <time>2021-07-06T09:26:20+0200</time>
      </trkpt>
      <trkpt lat="45.69403" lon="2.99552">
        <ele>910.945471</ele>
        <time>2021-07-06T09:26:22+0200</time>
      </trkpt>
      <trkpt lat="45.69398" lon="2.99554">
        <ele>909.877879</ele>
        <time>2021-07-06T09:26:24+0200</time>
      </trkpt>
      <trkpt lat="45.69395" lon="2.99549">
        <ele>910.224021</ele>
        <time>2021-07-06T09:26:43+0200</time>
      </trkpt>
      <trkpt lat="45.69391" lon="2.99545">
        <ele>908.594436</ele>
        <time>2021-07-06T09:27:05+0200</time>
      </trkpt>
      <trkpt lat="45.69395" lon="2.99548">
        <ele>909.171982</ele>
        <time>2021-07-06T09:27:24+0200</time>
      </trkpt>
      <trkpt lat="45.69391" lon="2.99553">
        <ele>908.669338</ele>
        <time>2021-07-06T09:27:31+0200</time>
      </trkpt>
      <trkpt lat="45.69386" lon="2.99549">
        <ele>908.413134</ele>
        <time>2021-07-06T09:27:33+0200</time>
      </trkpt>
      <trkpt lat="45.69382" lon="2.99545">
        <ele>908.585048</ele>
        <time>2021-07-06T09:27:35+0200</time>
      </trkpt>
      <trkpt lat="45.69379" lon="2.99538">
        <ele>909.74199</ele>
        <time>2021-07-06T09:27:38+0200</time>
      </trkpt>
      <trkpt lat="45.69375" lon="2.99531">
        <ele>910.298289</ele>
        <time>2021-07-06T09:27:40+0200</time>
      </trkpt>
      <trkpt lat="45.69371" lon="2.99525">
        <ele>909.835964</ele>
        <time>2021-07-06T09:27:42+0200</time>
      </trkpt>
      <trkpt lat="45.69367" lon="2.99521">
        <ele>914.5361</ele>
        <time>2021-07-06T09:27:46+0200</time>
      </trkpt>
      <trkpt lat="45.69362" lon="2.99518">
        <ele>914.444954</ele>
        <time>2021-07-06T09:27:48+0200</time>
      </trkpt>
      <trkpt lat="45.69358" lon="2.99516">
        <ele>914.933613</ele>
        <time>2021-07-06T09:27:50+0200</time>
      </trkpt>
      <trkpt lat="45.69353" lon="2.99511">
        <ele>914.337893</ele>
        <time>2021-07-06T09:27:52+0200</time>
      </trkpt>
      <trkpt lat="45.69348" lon="2.99504">
        <ele>913.756698</ele>
        <time>2021-07-06T09:27:54+0200</time>
      </trkpt>
      <trkpt lat="45.69345" lon="2.99499">
        <ele>912.852919</ele>
        <time>2021-07-06T09:27:55+0200</time>
      </trkpt>
      <trkpt lat="45.69341" lon="2.99495">
        <ele>912.163047</ele>
        <time>2021-07-06T09:27:56+0200</time>
      </trkpt>
      <trkpt lat="45.69334" lon="2.9949">
        <ele>910.712281</ele>
        <time>2021-07-06T09:27:58+0200</time>
      </trkpt>
      <trkpt lat="45.69326" lon="2.99494">
        <ele>911.059521</ele>
        <time>2021-07-06T09:28:00+0200</time>
      </trkpt>
      <trkpt lat="45.6932" lon="2.99495">
        <ele>910.947763</ele>
        <time>2021-07-06T09:28:02+0200</time>
      </trkpt>
      <trkpt lat="45.69315" lon="2.99493">
        <ele>910.314714</ele>
        <time>2021-07-06T09:28:05+0200</time>
      </trkpt>
      <trkpt lat="45.69309" lon="2.99492">
        <ele>909.958035</ele>
        <time>2021-07-06T09:28:07+0200</time>
      </trkpt>
      <trkpt lat="45.69309" lon="2.99499">
        <ele>909.353534</ele>
        <time>2021-07-06T09:28:08+0200</time>
      </trkpt>
      <trkpt lat="45.69304" lon="2.99511">
        <ele>907.333083</ele>
        <time>2021-07-06T09:28:09+0200</time>
      </trkpt>
      <trkpt lat="45.693" lon="2.99514">
        <ele>907.789998</ele>
        <time>2021-07-06T09:28:10+0200</time>
      </trkpt>
      <trkpt lat="45.69295" lon="2.99512">
        <ele>905.966759</ele>
        <time>2021-07-06T09:28:11+0200</time>
      </trkpt>
      <trkpt lat="45.69291" lon="2.99508">
        <ele>904.427392</ele>
        <time>2021-07-06T09:28:12+0200</time>
      </trkpt>
      <trkpt lat="45.69285" lon="2.99499">
        <ele>902.194097</ele>
        <time>2021-07-06T09:28:14+0200</time>
      </trkpt>
      <trkpt lat="45.69277" lon="2.99492">
        <ele>897.360616</ele>
        <time>2021-07-06T09:28:16+0200</time>
      </trkpt>
      <trkpt lat="45.69272" lon="2.9949">
        <ele>896.447504</ele>
        <time>2021-07-06T09:28:17+0200</time>
      </trkpt>
      <trkpt lat="45.69267" lon="2.99488">
        <ele>895.925979</ele>
        <time>2021-07-06T09:28:18+0200</time>
      </trkpt>
      <trkpt lat="45.6926" lon="2.99488">
        <ele>895.120445</ele>
        <time>2021-07-06T09:28:19+0200</time>
      </trkpt>
      <trkpt lat="45.69253" lon="2.99489">
        <ele>894.292886</ele>
        <time>2021-07-06T09:28:20+0200</time>
      </trkpt>
      <trkpt lat="45.69248" lon="2.99491">
        <ele>893.481446</ele>
        <time>2021-07-06T09:28:21+0200</time>
      </trkpt>
      <trkpt lat="45.69243" lon="2.99494">
        <ele>893.411844</ele>
        <time>2021-07-06T09:28:22+0200</time>
      </trkpt>
      <trkpt lat="45.69239" lon="2.99499">
        <ele>892.579929</ele>
        <time>2021-07-06T09:28:23+0200</time>
      </trkpt>
      <trkpt lat="45.69237" lon="2.99507">
        <ele>894.980904</ele>
        <time>2021-07-06T09:28:25+0200</time>
      </trkpt>
      <trkpt lat="45.69239" lon="2.99516">
        <ele>896.79306</ele>
        <time>2021-07-06T09:28:27+0200</time>
      </trkpt>
      <trkpt lat="45.69243" lon="2.99522">
        <ele>899.795686</ele>
        <time>2021-07-06T09:28:29+0200</time>
      </trkpt>
      <trkpt lat="45.69247" lon="2.99526">
        <ele>902.005777</ele>
        <time>2021-07-06T09:28:31+0200</time>
      </trkpt>
      <trkpt lat="45.69251" lon="2.99533">
        <ele>902.919441</ele>
        <time>2021-07-06T09:28:33+0200</time>
      </trkpt>
      <trkpt lat="45.69257" lon="2.99539">
        <ele>903.135969</ele>
        <time>2021-07-06T09:28:35+0200</time>
      </trkpt>
      <trkpt lat="45.69263" lon="2.99547">
        <ele>903.048676</ele>
        <time>2021-07-06T09:28:37+0200</time>
      </trkpt>
      <trkpt lat="45.69269" lon="2.99554">
        <ele>902.236325</ele>
        <time>2021-07-06T09:28:39+0200</time>
      </trkpt>
      <trkpt lat="45.69272" lon="2.99561">
        <ele>901.76717</ele>
        <time>2021-07-06T09:28:41+0200</time>
      </trkpt>
      <trkpt lat="45.69275" lon="2.9957">
        <ele>900.673968</ele>
        <time>2021-07-06T09:28:43+0200</time>
      </trkpt>
      <trkpt lat="45.69276" lon="2.99579">
        <ele>898.464795</ele>
        <time>2021-07-06T09:28:45+0200</time>
      </trkpt>
      <trkpt lat="45.69276" lon="2.99585">
        <ele>897.61184</ele>
        <time>2021-07-06T09:28:47+0200</time>
      </trkpt>
      <trkpt lat="45.69272" lon="2.99591">
        <ele>896.572162</ele>
        <time>2021-07-06T09:28:49+0200</time>
      </trkpt>
      <trkpt lat="45.69269" lon="2.99599">
        <ele>896.37378</ele>
        <time>2021-07-06T09:28:51+0200</time>
      </trkpt>
      <trkpt lat="45.69267" lon="2.99607">
        <ele>897.599152</ele>
        <time>2021-07-06T09:28:53+0200</time>
      </trkpt>
      <trkpt lat="45.69264" lon="2.99615">
        <ele>897.969682</ele>
        <time>2021-07-06T09:28:55+0200</time>
      </trkpt>
      <trkpt lat="45.69261" lon="2.99623">
        <ele>898.592188</ele>
        <time>2021-07-06T09:28:57+0200</time>
      </trkpt>
      <trkpt lat="45.69258" lon="2.9963">
        <ele>899.327607</ele>
        <time>2021-07-06T09:28:59+0200</time>
      </trkpt>
      <trkpt lat="45.69254" lon="2.99638">
        <ele>900.360929</ele>
        <time>2021-07-06T09:29:01+0200</time>
      </trkpt>
      <trkpt lat="45.69251" lon="2.99646">
        <ele>901.609343</ele>
        <time>2021-07-06T09:29:03+0200</time>
      </trkpt>
      <trkpt lat="45.69247" lon="2.99653">
        <ele>902.624587</ele>
        <time>2021-07-06T09:29:05+0200</time>
      </trkpt>
      <trkpt lat="45.69245" lon="2.99661">
        <ele>902.545548</ele>
        <time>2021-07-06T09:29:07+0200</time>
      </trkpt>
      <trkpt lat="45.69242" lon="2.99671">
        <ele>901.826108</ele>
        <time>2021-07-06T09:29:09+0200</time>
      </trkpt>
      <trkpt lat="45.69239" lon="2.99679">
        <ele>901.519896</ele>
        <time>2021-07-06T09:29:11+0200</time>
      </trkpt>
      <trkpt lat="45.69238" lon="2.99686">
        <ele>901.591664</ele>
        <time>2021-07-06T09:29:13+0200</time>
      </trkpt>
      <trkpt lat="45.69235" lon="2.99694">
        <ele>901.086184</ele>
        <time>2021-07-06T09:29:15+0200</time>
      </trkpt>
      <trkpt lat="45.69232" lon="2.99702">
        <ele>899.808843</ele>
        <time>2021-07-06T09:29:17+0200</time>
      </trkpt>
      <trkpt lat="45.69229" lon="2.99708">
        <ele>898.847664</ele>
        <time>2021-07-06T09:29:19+0200</time>
      </trkpt>
      <trkpt lat="45.69225" lon="2.99716">
        <ele>899.338394</ele>
        <time>2021-07-06T09:29:22+0200</time>
      </trkpt>
      <trkpt lat="45.69225" lon="2.99723">
        <ele>898.109584</ele>
        <time>2021-07-06T09:29:24+0200</time>
      </trkpt>
      <trkpt lat="45.69223" lon="2.99729">
        <ele>897.109525</ele>
        <time>2021-07-06T09:29:26+0200</time>
      </trkpt>
      <trkpt lat="45.69222" lon="2.99735">
        <ele>896.823953</ele>
        <time>2021-07-06T09:29:28+0200</time>
      </trkpt>
      <trkpt lat="45.6922" lon="2.99741">
        <ele>896.25807</ele>
        <time>2021-07-06T09:29:30+0200</time>
      </trkpt>
      <trkpt lat="45.69218" lon="2.99748">
        <ele>896.917095</ele>
        <time>2021-07-06T09:29:32+0200</time>
      </trkpt>
      <trkpt lat="45.69217" lon="2.99754">
        <ele>897.58456</ele>
        <time>2021-07-06T09:29:34+0200</time>
      </trkpt>
      <trkpt lat="45.69214" lon="2.99763">
        <ele>898.435157</ele>
        <time>2021-07-06T09:29:37+0200</time>
      </trkpt>
      <trkpt lat="45.69212" lon="2.99769">
        <ele>898.587156</ele>
        <time>2021-07-06T09:29:39+0200</time>
      </trkpt>
      <trkpt lat="45.6921" lon="2.99776">
        <ele>898.74083</ele>
        <time>2021-07-06T09:29:41+0200</time>
      </trkpt>
      <trkpt lat="45.69207" lon="2.99782">
        <ele>898.949797</ele>
        <time>2021-07-06T09:29:43+0200</time>
      </trkpt>
      <trkpt lat="45.69204" lon="2.9979">
        <ele>899.086869</ele>
        <time>2021-07-06T09:29:46+0200</time>
      </trkpt>
      <trkpt lat="45.69202" lon="2.99798">
        <ele>899.641188</ele>
        <time>2021-07-06T09:29:49+0200</time>
      </trkpt>
      <trkpt lat="45.692" lon="2.99804">
        <ele>899.176079</ele>
        <time>2021-07-06T09:29:51+0200</time>
      </trkpt>
      <trkpt lat="45.69199" lon="2.99812">
        <ele>897.83643</ele>
        <time>2021-07-06T09:29:53+0200</time>
      </trkpt>
      <trkpt lat="45.69195" lon="2.9982">
        <ele>896.558956</ele>
        <time>2021-07-06T09:29:55+0200</time>
      </trkpt>
      <trkpt lat="45.69198" lon="2.99825">
        <ele>896.667029</ele>
        <time>2021-07-06T09:29:59+0200</time>
      </trkpt>
      <trkpt lat="45.69202" lon="2.9982">
        <ele>896.574949</ele>
        <time>2021-07-06T09:30:01+0200</time>
      </trkpt>
      <trkpt lat="45.69206" lon="2.99813">
        <ele>896.7673</ele>
        <time>2021-07-06T09:30:04+0200</time>
      </trkpt>
      <trkpt lat="45.6921" lon="2.99807">
        <ele>897.250812</ele>
        <time>2021-07-06T09:30:06+0200</time>
      </trkpt>
      <trkpt lat="45.69213" lon="2.99802">
        <ele>897.108478</ele>
        <time>2021-07-06T09:30:08+0200</time>
      </trkpt>
      <trkpt lat="45.69216" lon="2.99797">
        <ele>897.915279</ele>
        <time>2021-07-06T09:30:10+0200</time>
      </trkpt>
      <trkpt lat="45.6922" lon="2.9979">
        <ele>899.090073</ele>
        <time>2021-07-06T09:30:12+0200</time>
      </trkpt>
      <trkpt lat="45.69224" lon="2.99783">
        <ele>899.72629</ele>
        <time>2021-07-06T09:30:14+0200</time>
      </trkpt>
      <trkpt lat="45.6923" lon="2.99778">
        <ele>900.802198</ele>
        <time>2021-07-06T09:30:16+0200</time>
      </trkpt>
      <trkpt lat="45.69234" lon="2.99773">
        <ele>901.115163</ele>
        <time>2021-07-06T09:30:18+0200</time>
      </trkpt>
      <trkpt lat="45.69239" lon="2.99769">
        <ele>901.423835</ele>
        <time>2021-07-06T09:30:20+0200</time>
      </trkpt>
      <trkpt lat="45.69244" lon="2.99764">
        <ele>902.078721</ele>
        <time>2021-07-06T09:30:22+0200</time>
      </trkpt>
      <trkpt lat="45.69248" lon="2.99758">
        <ele>903.273658</ele>
        <time>2021-07-06T09:30:24+0200</time>
      </trkpt>
      <trkpt lat="45.69253" lon="2.99752">
        <ele>904.493128</ele>
        <time>2021-07-06T09:30:26+0200</time>
      </trkpt>
      <trkpt lat="45.69258" lon="2.99748">
        <ele>905.08329</ele>
        <time>2021-07-06T09:30:28+0200</time>
      </trkpt>
      <trkpt lat="45.69263" lon="2.99744">
        <ele>905.544442</ele>
        <time>2021-07-06T09:30:30+0200</time>
      </trkpt>
      <trkpt lat="45.69267" lon="2.99739">
        <ele>905.587089</ele>
        <time>2021-07-06T09:30:32+0200</time>
      </trkpt>
      <trkpt lat="45.69273" lon="2.99735">
        <ele>906.542846</ele>
        <time>2021-07-06T09:30:34+0200</time>
      </trkpt>
      <trkpt lat="45.69278" lon="2.99732">
        <ele>906.5014</ele>
        <time>2021-07-06T09:30:36+0200</time>
      </trkpt>
      <trkpt lat="45.69283" lon="2.99729">
        <ele>906.29205</ele>
        <time>2021-07-06T09:30:38+0200</time>
      </trkpt>
      <trkpt lat="45.69287" lon="2.99726">
        <ele>906.843551</ele>
        <time>2021-07-06T09:30:40+0200</time>
      </trkpt>
      <trkpt lat="45.69292" lon="2.99724">
        <ele>907.115581</ele>
        <time>2021-07-06T09:30:42+0200</time>
      </trkpt>
      <trkpt lat="45.69297" lon="2.99721">
        <ele>907.974263</ele>
        <time>2021-07-06T09:30:44+0200</time>
      </trkpt>
      <trkpt lat="45.69301" lon="2.99719">
        <ele>908.358596</ele>
        <time>2021-07-06T09:30:46+0200</time>
      </trkpt>
      <trkpt lat="45.69306" lon="2.99716">
        <ele>908.109507</ele>
        <time>2021-07-06T09:30:48+0200</time>
      </trkpt>
      <trkpt lat="45.69312" lon="2.99715">
        <ele>908.509392</ele>
        <time>2021-07-06T09:30:50+0200</time>
      </trkpt>
      <trkpt lat="45.69317" lon="2.99714">
        <ele>909.497382</ele>
        <time>2021-07-06T09:30:52+0200</time>
      </trkpt>
      <trkpt lat="45.69323" lon="2.99714">
        <ele>910.393068</ele>
        <time>2021-07-06T09:30:54+0200</time>
      </trkpt>
      <trkpt lat="45.69328" lon="2.99714">
        <ele>911.260355</ele>
        <time>2021-07-06T09:30:56+0200</time>
      </trkpt>
      <trkpt lat="45.69334" lon="2.99713">
        <ele>912.001896</ele>
        <time>2021-07-06T09:30:58+0200</time>
      </trkpt>
      <trkpt lat="45.6934" lon="2.99714">
        <ele>912.381672</ele>
        <time>2021-07-06T09:31:00+0200</time>
      </trkpt>
      <trkpt lat="45.69345" lon="2.99715">
        <ele>912.690572</ele>
        <time>2021-07-06T09:31:02+0200</time>
      </trkpt>
      <trkpt lat="45.69349" lon="2.99719">
        <ele>913.475878</ele>
        <time>2021-07-06T09:31:04+0200</time>
      </trkpt>
      <trkpt lat="45.69353" lon="2.99722">
        <ele>912.897011</ele>
        <time>2021-07-06T09:31:06+0200</time>
      </trkpt>
      <trkpt lat="45.6936" lon="2.99724">
        <ele>914.59037</ele>
        <time>2021-07-06T09:31:09+0200</time>
      </trkpt>
      <trkpt lat="45.69364" lon="2.99726">
        <ele>915.802708</ele>
        <time>2021-07-06T09:31:12+0200</time>
      </trkpt>
      <trkpt lat="45.69369" lon="2.9973">
        <ele>917.31644</ele>
        <time>2021-07-06T09:31:15+0200</time>
      </trkpt>
      <trkpt lat="45.69374" lon="2.99732">
        <ele>917.885727</ele>
        <time>2021-07-06T09:31:18+0200</time>
      </trkpt>
      <trkpt lat="45.69379" lon="2.99737">
        <ele>919.279128</ele>
        <time>2021-07-06T09:31:21+0200</time>
      </trkpt>
      <trkpt lat="45.69383" lon="2.9974">
        <ele>920.416185</ele>
        <time>2021-07-06T09:31:24+0200</time>
      </trkpt>
      <trkpt lat="45.69388" lon="2.99742">
        <ele>919.922431</ele>
        <time>2021-07-06T09:31:27+0200</time>
      </trkpt>
      <trkpt lat="45.69393" lon="2.99746">
        <ele>919.670172</ele>
        <time>2021-07-06T09:31:30+0200</time>
      </trkpt>
      <trkpt lat="45.69398" lon="2.9975">
        <ele>920.014219</ele>
        <time>2021-07-06T09:31:33+0200</time>
      </trkpt>
      <trkpt lat="45.69403" lon="2.99753">
        <ele>920.045494</ele>
        <time>2021-07-06T09:31:35+0200</time>
      </trkpt>
      <trkpt lat="45.69407" lon="2.99758">
        <ele>920.224116</ele>
        <time>2021-07-06T09:31:37+0200</time>
      </trkpt>
      <trkpt lat="45.6941" lon="2.99763">
        <ele>920.613081</ele>
        <time>2021-07-06T09:31:39+0200</time>
      </trkpt>
      <trkpt lat="45.69412" lon="2.9977">
        <ele>920.085764</ele>
        <time>2021-07-06T09:31:43+0200</time>
      </trkpt>
      <trkpt lat="45.69416" lon="2.99774">
        <ele>920.842598</ele>
        <time>2021-07-06T09:31:46+0200</time>
      </trkpt>
      <trkpt lat="45.69419" lon="2.9978">
        <ele>921.362345</ele>
        <time>2021-07-06T09:31:49+0200</time>
      </trkpt>
      <trkpt lat="45.69421" lon="2.99787">
        <ele>922.352969</ele>
        <time>2021-07-06T09:31:52+0200</time>
      </trkpt>
      <trkpt lat="45.69423" lon="2.99794">
        <ele>922.967356</ele>
        <time>2021-07-06T09:31:55+0200</time>
      </trkpt>
      <trkpt lat="45.69424" lon="2.99801">
        <ele>922.471592</ele>
        <time>2021-07-06T09:31:57+0200</time>
      </trkpt>
      <trkpt lat="45.69425" lon="2.99809">
        <ele>922.403333</ele>
        <time>2021-07-06T09:32:00+0200</time>
      </trkpt>
      <trkpt lat="45.69425" lon="2.99817">
        <ele>923.046956</ele>
        <time>2021-07-06T09:32:03+0200</time>
      </trkpt>
      <trkpt lat="45.69427" lon="2.99825">
        <ele>925.118858</ele>
        <time>2021-07-06T09:32:07+0200</time>
      </trkpt>
      <trkpt lat="45.69428" lon="2.99831">
        <ele>925.603916</ele>
        <time>2021-07-06T09:32:10+0200</time>
      </trkpt>
      <trkpt lat="45.6943" lon="2.99839">
        <ele>926.843251</ele>
        <time>2021-07-06T09:32:13+0200</time>
      </trkpt>
      <trkpt lat="45.69432" lon="2.99847">
        <ele>927.267099</ele>
        <time>2021-07-06T09:32:16+0200</time>
      </trkpt>
      <trkpt lat="45.69434" lon="2.99855">
        <ele>927.427274</ele>
        <time>2021-07-06T09:32:19+0200</time>
      </trkpt>
      <trkpt lat="45.69436" lon="2.99863">
        <ele>928.725601</ele>
        <time>2021-07-06T09:32:22+0200</time>
      </trkpt>
      <trkpt lat="45.69437" lon="2.9987">
        <ele>929.942937</ele>
        <time>2021-07-06T09:32:25+0200</time>
      </trkpt>
      <trkpt lat="45.69439" lon="2.99877">
        <ele>932.269379</ele>
        <time>2021-07-06T09:32:28+0200</time>
      </trkpt>
      <trkpt lat="45.6944" lon="2.99886">
        <ele>933.27006</ele>
        <time>2021-07-06T09:32:31+0200</time>
      </trkpt>
      <trkpt lat="45.69441" lon="2.99894">
        <ele>931.515846</ele>
        <time>2021-07-06T09:32:35+0200</time>
      </trkpt>
      <trkpt lat="45.69441" lon="2.99901">
        <ele>932.640853</ele>
        <time>2021-07-06T09:32:38+0200</time>
      </trkpt>
      <trkpt lat="45.69443" lon="2.9991">
        <ele>933.630213</ele>
        <time>2021-07-06T09:32:42+0200</time>
      </trkpt>
      <trkpt lat="45.69444" lon="2.99919">
        <ele>933.134067</ele>
        <time>2021-07-06T09:32:45+0200</time>
      </trkpt>
      <trkpt lat="45.69445" lon="2.99927">
        <ele>933.170492</ele>
        <time>2021-07-06T09:32:48+0200</time>
      </trkpt>
      <trkpt lat="45.69448" lon="2.99935">
        <ele>934.703877</ele>
        <time>2021-07-06T09:32:52+0200</time>
      </trkpt>
      <trkpt lat="45.69449" lon="2.99942">
        <ele>935.713691</ele>
        <time>2021-07-06T09:32:55+0200</time>
      </trkpt>
      <trkpt lat="45.69448" lon="2.9995">
        <ele>935.350716</ele>
        <time>2021-07-06T09:32:59+0200</time>
      </trkpt>
      <trkpt lat="45.69447" lon="2.99957">
        <ele>934.708036</ele>
        <time>2021-07-06T09:33:02+0200</time>
      </trkpt>
      <trkpt lat="45.69445" lon="2.99964">
        <ele>935.427607</ele>
        <time>2021-07-06T09:33:05+0200</time>
      </trkpt>
      <trkpt lat="45.69441" lon="2.99968">
        <ele>934.15762</ele>
        <time>2021-07-06T09:33:07+0200</time>
      </trkpt>
      <trkpt lat="45.69439" lon="2.99974">
        <ele>937.653554</ele>
        <time>2021-07-06T09:33:10+0200</time>
      </trkpt>
      <trkpt lat="45.69435" lon="2.99981">
        <ele>938.833285</ele>
        <time>2021-07-06T09:33:13+0200</time>
      </trkpt>
      <trkpt lat="45.69433" lon="2.99988">
        <ele>941.625522</ele>
        <time>2021-07-06T09:33:17+0200</time>
      </trkpt>
      <trkpt lat="45.69429" lon="2.99995">
        <ele>941.473485</ele>
        <time>2021-07-06T09:33:20+0200</time>
      </trkpt>
      <trkpt lat="45.69426" lon="3.00001">
        <ele>940.796659</ele>
        <time>2021-07-06T09:33:23+0200</time>
      </trkpt>
      <trkpt lat="45.69425" lon="3.00008">
        <ele>941.783607</ele>
        <time>2021-07-06T09:33:26+0200</time>
      </trkpt>
      <trkpt lat="45.69422" lon="3.00013">
        <ele>941.737728</ele>
        <time>2021-07-06T09:33:29+0200</time>
      </trkpt>
      <trkpt lat="45.69418" lon="3.00019">
        <ele>940.141403</ele>
        <time>2021-07-06T09:33:32+0200</time>
      </trkpt>
      <trkpt lat="45.69414" lon="3.00024">
        <ele>939.532304</ele>
        <time>2021-07-06T09:33:34+0200</time>
      </trkpt>
      <trkpt lat="45.69411" lon="3.00029">
        <ele>940.366923</ele>
        <time>2021-07-06T09:33:37+0200</time>
      </trkpt>
      <trkpt lat="45.69407" lon="3.00033">
        <ele>940.110375</ele>
        <time>2021-07-06T09:33:40+0200</time>
      </trkpt>
      <trkpt lat="45.69403" lon="3.00038">
        <ele>937.426918</ele>
        <time>2021-07-06T09:33:42+0200</time>
      </trkpt>
      <trkpt lat="45.69401" lon="3.00044">
        <ele>937.24494</ele>
        <time>2021-07-06T09:33:45+0200</time>
      </trkpt>
      <trkpt lat="45.69398" lon="3.00052">
        <ele>938.921465</ele>
        <time>2021-07-06T09:33:49+0200</time>
      </trkpt>
      <trkpt lat="45.69394" lon="3.00059">
        <ele>939.732574</ele>
        <time>2021-07-06T09:33:52+0200</time>
      </trkpt>
      <trkpt lat="45.6939" lon="3.00065">
        <ele>939.712928</ele>
        <time>2021-07-06T09:33:55+0200</time>
      </trkpt>
      <trkpt lat="45.69387" lon="3.00072">
        <ele>940.84657</ele>
        <time>2021-07-06T09:33:58+0200</time>
      </trkpt>
      <trkpt lat="45.69384" lon="3.00079">
        <ele>941.274301</ele>
        <time>2021-07-06T09:34:01+0200</time>
      </trkpt>
      <trkpt lat="45.69381" lon="3.00085">
        <ele>940.906706</ele>
        <time>2021-07-06T09:34:04+0200</time>
      </trkpt>
      <trkpt lat="45.69377" lon="3.00092">
        <ele>943.197117</ele>
        <time>2021-07-06T09:34:08+0200</time>
      </trkpt>
      <trkpt lat="45.69374" lon="3.00098">
        <ele>943.734794</ele>
        <time>2021-07-06T09:34:11+0200</time>
      </trkpt>
      <trkpt lat="45.69371" lon="3.00106">
        <ele>945.268182</ele>
        <time>2021-07-06T09:34:14+0200</time>
      </trkpt>
      <trkpt lat="45.69369" lon="3.00113">
        <ele>945.712378</ele>
        <time>2021-07-06T09:34:17+0200</time>
      </trkpt>
      <trkpt lat="45.69365" lon="3.0012">
        <ele>946.257591</ele>
        <time>2021-07-06T09:34:21+0200</time>
      </trkpt>
      <trkpt lat="45.69361" lon="3.00127">
        <ele>946.892981</ele>
        <time>2021-07-06T09:34:24+0200</time>
      </trkpt>
      <trkpt lat="45.6936" lon="3.00136">
        <ele>948.360939</ele>
        <time>2021-07-06T09:34:27+0200</time>
      </trkpt>
      <trkpt lat="45.6936" lon="3.00145">
        <ele>946.661142</ele>
        <time>2021-07-06T09:34:30+0200</time>
      </trkpt>
      <trkpt lat="45.69358" lon="3.00152">
        <ele>947.211506</ele>
        <time>2021-07-06T09:34:32+0200</time>
      </trkpt>
      <trkpt lat="45.69356" lon="3.00159">
        <ele>946.714725</ele>
        <time>2021-07-06T09:34:35+0200</time>
      </trkpt>
      <trkpt lat="45.69354" lon="3.00166">
        <ele>947.524176</ele>
        <time>2021-07-06T09:34:38+0200</time>
      </trkpt>
      <trkpt lat="45.69352" lon="3.00172">
        <ele>948.098087</ele>
        <time>2021-07-06T09:34:42+0200</time>
      </trkpt>
      <trkpt lat="45.69348" lon="3.00177">
        <ele>948.625314</ele>
        <time>2021-07-06T09:34:46+0200</time>
      </trkpt>
      <trkpt lat="45.69345" lon="3.00183">
        <ele>948.863303</ele>
        <time>2021-07-06T09:34:49+0200</time>
      </trkpt>
      <trkpt lat="45.69343" lon="3.00191">
        <ele>952.866948</ele>
        <time>2021-07-06T09:34:53+0200</time>
      </trkpt>
      <trkpt lat="45.69344" lon="3.00199">
        <ele>957.557449</ele>
        <time>2021-07-06T09:34:56+0200</time>
      </trkpt>
      <trkpt lat="45.69342" lon="3.00206">
        <ele>957.690889</ele>
        <time>2021-07-06T09:34:58+0200</time>
      </trkpt>
      <trkpt lat="45.69342" lon="3.00214">
        <ele>959.446996</ele>
        <time>2021-07-06T09:35:01+0200</time>
      </trkpt>
      <trkpt lat="45.69342" lon="3.00223">
        <ele>960.622578</ele>
        <time>2021-07-06T09:35:04+0200</time>
      </trkpt>
      <trkpt lat="45.6934" lon="3.00231">
        <ele>962.288045</ele>
        <time>2021-07-06T09:35:08+0200</time>
      </trkpt>
      <trkpt lat="45.69339" lon="3.00237">
        <ele>962.478911</ele>
        <time>2021-07-06T09:35:10+0200</time>
      </trkpt>
      <trkpt lat="45.69337" lon="3.00244">
        <ele>960.821276</ele>
        <time>2021-07-06T09:35:13+0200</time>
      </trkpt>
      <trkpt lat="45.69333" lon="3.0025">
        <ele>959.145972</ele>
        <time>2021-07-06T09:35:16+0200</time>
      </trkpt>
      <trkpt lat="45.69334" lon="3.00257">
        <ele>959.326739</ele>
        <time>2021-07-06T09:35:19+0200</time>
      </trkpt>
      <trkpt lat="45.69333" lon="3.00264">
        <ele>959.409796</ele>
        <time>2021-07-06T09:35:22+0200</time>
      </trkpt>
      <trkpt lat="45.69333" lon="3.0027">
        <ele>959.786107</ele>
        <time>2021-07-06T09:35:25+0200</time>
      </trkpt>
      <trkpt lat="45.6933" lon="3.00276">
        <ele>959.767729</ele>
        <time>2021-07-06T09:35:28+0200</time>
      </trkpt>
      <trkpt lat="45.69331" lon="3.00283">
        <ele>961.440504</ele>
        <time>2021-07-06T09:35:31+0200</time>
      </trkpt>
      <trkpt lat="45.6933" lon="3.00291">
        <ele>960.098136</ele>
        <time>2021-07-06T09:35:34+0200</time>
      </trkpt>
      <trkpt lat="45.69328" lon="3.00298">
        <ele>959.079027</ele>
        <time>2021-07-06T09:35:37+0200</time>
      </trkpt>
      <trkpt lat="45.69327" lon="3.00304">
        <ele>960.197846</ele>
        <time>2021-07-06T09:35:39+0200</time>
      </trkpt>
      <trkpt lat="45.69326" lon="3.00311">
        <ele>960.442386</ele>
        <time>2021-07-06T09:35:42+0200</time>
      </trkpt>
      <trkpt lat="45.69325" lon="3.00317">
        <ele>961.068162</ele>
        <time>2021-07-06T09:35:45+0200</time>
      </trkpt>
      <trkpt lat="45.69322" lon="3.00323">
        <ele>962.318064</ele>
        <time>2021-07-06T09:35:49+0200</time>
      </trkpt>
      <trkpt lat="45.69321" lon="3.0033">
        <ele>963.510709</ele>
        <time>2021-07-06T09:35:52+0200</time>
      </trkpt>
      <trkpt lat="45.69318" lon="3.00336">
        <ele>963.910842</ele>
        <time>2021-07-06T09:35:56+0200</time>
      </trkpt>
      <trkpt lat="45.69315" lon="3.00343">
        <ele>965.073189</ele>
        <time>2021-07-06T09:36:01+0200</time>
      </trkpt>
      <trkpt lat="45.69312" lon="3.00349">
        <ele>965.382949</ele>
        <time>2021-07-06T09:36:05+0200</time>
      </trkpt>
      <trkpt lat="45.6931" lon="3.00356">
        <ele>966.705215</ele>
        <time>2021-07-06T09:36:09+0200</time>
      </trkpt>
      <trkpt lat="45.69306" lon="3.00361">
        <ele>968.026272</ele>
        <time>2021-07-06T09:36:13+0200</time>
      </trkpt>
      <trkpt lat="45.69302" lon="3.00366">
        <ele>970.354315</ele>
        <time>2021-07-06T09:36:17+0200</time>
      </trkpt>
      <trkpt lat="45.69298" lon="3.00371">
        <ele>970.911182</ele>
        <time>2021-07-06T09:36:21+0200</time>
      </trkpt>
      <trkpt lat="45.69295" lon="3.00376">
        <ele>971.810595</ele>
        <time>2021-07-06T09:36:25+0200</time>
      </trkpt>
      <trkpt lat="45.69291" lon="3.00381">
        <ele>968.774808</ele>
        <time>2021-07-06T09:36:31+0200</time>
      </trkpt>
      <trkpt lat="45.69287" lon="3.00387">
        <ele>971.509992</ele>
        <time>2021-07-06T09:38:37+0200</time>
      </trkpt>
      <trkpt lat="45.69283" lon="3.00392">
        <ele>972.065015</ele>
        <time>2021-07-06T09:38:41+0200</time>
      </trkpt>
      <trkpt lat="45.69278" lon="3.00397">
        <ele>971.43378</ele>
        <time>2021-07-06T09:38:44+0200</time>
      </trkpt>
      <trkpt lat="45.69275" lon="3.00402">
        <ele>970.856747</ele>
        <time>2021-07-06T09:38:46+0200</time>
      </trkpt>
      <trkpt lat="45.6927" lon="3.00407">
        <ele>969.553843</ele>
        <time>2021-07-06T09:38:49+0200</time>
      </trkpt>
      <trkpt lat="45.69266" lon="3.00411">
        <ele>968.670507</ele>
        <time>2021-07-06T09:38:51+0200</time>
      </trkpt>
      <trkpt lat="45.69262" lon="3.00416">
        <ele>968.542087</ele>
        <time>2021-07-06T09:38:53+0200</time>
      </trkpt>
      <trkpt lat="45.69258" lon="3.00423">
        <ele>969.588177</ele>
        <time>2021-07-06T09:38:56+0200</time>
      </trkpt>
      <trkpt lat="45.69254" lon="3.00427">
        <ele>969.915079</ele>
        <time>2021-07-06T09:38:58+0200</time>
      </trkpt>
      <trkpt lat="45.6925" lon="3.00433">
        <ele>970.462059</ele>
        <time>2021-07-06T09:39:00+0200</time>
      </trkpt>
      <trkpt lat="45.69246" lon="3.00438">
        <ele>970.732751</ele>
        <time>2021-07-06T09:39:02+0200</time>
      </trkpt>
      <trkpt lat="45.69241" lon="3.00443">
        <ele>970.870805</ele>
        <time>2021-07-06T09:39:04+0200</time>
      </trkpt>
      <trkpt lat="45.69238" lon="3.00447">
        <ele>972.12153</ele>
        <time>2021-07-06T09:39:06+0200</time>
      </trkpt>
      <trkpt lat="45.69234" lon="3.00453">
        <ele>973.06907</ele>
        <time>2021-07-06T09:39:08+0200</time>
      </trkpt>
      <trkpt lat="45.6923" lon="3.00458">
        <ele>973.739037</ele>
        <time>2021-07-06T09:39:10+0200</time>
      </trkpt>
      <trkpt lat="45.69226" lon="3.00464">
        <ele>974.320444</ele>
        <time>2021-07-06T09:39:12+0200</time>
      </trkpt>
      <trkpt lat="45.6922" lon="3.00466">
        <ele>974.80614</ele>
        <time>2021-07-06T09:39:14+0200</time>
      </trkpt>
      <trkpt lat="45.69215" lon="3.0047">
        <ele>976.057877</ele>
        <time>2021-07-06T09:39:16+0200</time>
      </trkpt>
      <trkpt lat="45.69207" lon="3.00474">
        <ele>975.223054</ele>
        <time>2021-07-06T09:39:18+0200</time>
      </trkpt>
      <trkpt lat="45.69202" lon="3.00475">
        <ele>974.582457</ele>
        <time>2021-07-06T09:39:19+0200</time>
      </trkpt>
      <trkpt lat="45.69198" lon="3.00476">
        <ele>974.527187</ele>
        <time>2021-07-06T09:39:20+0200</time>
      </trkpt>
      <trkpt lat="45.69194" lon="3.0048">
        <ele>972.963557</ele>
        <time>2021-07-06T09:39:21+0200</time>
      </trkpt>
      <trkpt lat="45.69187" lon="3.00485">
        <ele>972.797851</ele>
        <time>2021-07-06T09:39:23+0200</time>
      </trkpt>
      <trkpt lat="45.6918" lon="3.0049">
        <ele>972.066615</ele>
        <time>2021-07-06T09:39:25+0200</time>
      </trkpt>
      <trkpt lat="45.69175" lon="3.00492">
        <ele>971.523911</ele>
        <time>2021-07-06T09:39:27+0200</time>
      </trkpt>
      <trkpt lat="45.69171" lon="3.005">
        <ele>971.327086</ele>
        <time>2021-07-06T09:39:29+0200</time>
      </trkpt>
      <trkpt lat="45.69166" lon="3.00504">
        <ele>970.102932</ele>
        <time>2021-07-06T09:39:31+0200</time>
      </trkpt>
      <trkpt lat="45.69161" lon="3.00509">
        <ele>970.696909</ele>
        <time>2021-07-06T09:39:33+0200</time>
      </trkpt>
      <trkpt lat="45.69156" lon="3.00512">
        <ele>969.816474</ele>
        <time>2021-07-06T09:39:35+0200</time>
      </trkpt>
      <trkpt lat="45.6915" lon="3.00513">
        <ele>971.208871</ele>
        <time>2021-07-06T09:39:37+0200</time>
      </trkpt>
      <trkpt lat="45.69145" lon="3.00517">
        <ele>971.376439</ele>
        <time>2021-07-06T09:39:39+0200</time>
      </trkpt>
      <trkpt lat="45.69141" lon="3.00521">
        <ele>971.842003</ele>
        <time>2021-07-06T09:39:41+0200</time>
      </trkpt>
      <trkpt lat="45.69135" lon="3.00526">
        <ele>969.49346</ele>
        <time>2021-07-06T09:39:43+0200</time>
      </trkpt>
      <trkpt lat="45.69128" lon="3.00529">
        <ele>967.324591</ele>
        <time>2021-07-06T09:39:45+0200</time>
      </trkpt>
      <trkpt lat="45.69122" lon="3.0053">
        <ele>969.733081</ele>
        <time>2021-07-06T09:39:47+0200</time>
      </trkpt>
      <trkpt lat="45.69118" lon="3.00533">
        <ele>970.972906</ele>
        <time>2021-07-06T09:39:49+0200</time>
      </trkpt>
      <trkpt lat="45.69112" lon="3.00535">
        <ele>972.632589</ele>
        <time>2021-07-06T09:39:51+0200</time>
      </trkpt>
      <trkpt lat="45.69106" lon="3.00538">
        <ele>974.973325</ele>
        <time>2021-07-06T09:39:54+0200</time>
      </trkpt>
      <trkpt lat="45.691" lon="3.00538">
        <ele>975.494615</ele>
        <time>2021-07-06T09:39:56+0200</time>
      </trkpt>
      <trkpt lat="45.69095" lon="3.0054">
        <ele>974.938407</ele>
        <time>2021-07-06T09:39:58+0200</time>
      </trkpt>
      <trkpt lat="45.6909" lon="3.00544">
        <ele>975.5916</ele>
        <time>2021-07-06T09:40:00+0200</time>
      </trkpt>
      <trkpt lat="45.69084" lon="3.00548">
        <ele>976.858603</ele>
        <time>2021-07-06T09:40:03+0200</time>
      </trkpt>
      <trkpt lat="45.69079" lon="3.00551">
        <ele>979.550839</ele>
        <time>2021-07-06T09:40:06+0200</time>
      </trkpt>
      <trkpt lat="45.69073" lon="3.0055">
        <ele>981.218745</ele>
        <time>2021-07-06T09:40:08+0200</time>
      </trkpt>
      <trkpt lat="45.69067" lon="3.00551">
        <ele>980.72739</ele>
        <time>2021-07-06T09:40:10+0200</time>
      </trkpt>
      <trkpt lat="45.69061" lon="3.00552">
        <ele>980.430914</ele>
        <time>2021-07-06T09:40:12+0200</time>
      </trkpt>
      <trkpt lat="45.69055" lon="3.00552">
        <ele>979.715863</ele>
        <time>2021-07-06T09:40:14+0200</time>
      </trkpt>
      <trkpt lat="45.6905" lon="3.00553">
        <ele>980.241361</ele>
        <time>2021-07-06T09:40:16+0200</time>
      </trkpt>
      <trkpt lat="45.69045" lon="3.00554">
        <ele>980.911466</ele>
        <time>2021-07-06T09:40:19+0200</time>
      </trkpt>
      <trkpt lat="45.69038" lon="3.00553">
        <ele>979.877068</ele>
        <time>2021-07-06T09:40:22+0200</time>
      </trkpt>
      <trkpt lat="45.69032" lon="3.00549">
        <ele>979.992071</ele>
        <time>2021-07-06T09:40:24+0200</time>
      </trkpt>
      <trkpt lat="45.69027" lon="3.00547">
        <ele>982.137232</ele>
        <time>2021-07-06T09:40:27+0200</time>
      </trkpt>
      <trkpt lat="45.69021" lon="3.00545">
        <ele>982.282751</ele>
        <time>2021-07-06T09:40:29+0200</time>
      </trkpt>
      <trkpt lat="45.69016" lon="3.00543">
        <ele>981.842957</ele>
        <time>2021-07-06T09:40:31+0200</time>
      </trkpt>
      <trkpt lat="45.6901" lon="3.00541">
        <ele>982.046218</ele>
        <time>2021-07-06T09:40:33+0200</time>
      </trkpt>
      <trkpt lat="45.69005" lon="3.00539">
        <ele>980.56589</ele>
        <time>2021-07-06T09:40:35+0200</time>
      </trkpt>
      <trkpt lat="45.68999" lon="3.00537">
        <ele>981.154893</ele>
        <time>2021-07-06T09:40:37+0200</time>
      </trkpt>
      <trkpt lat="45.68994" lon="3.00535">
        <ele>980.211184</ele>
        <time>2021-07-06T09:40:39+0200</time>
      </trkpt>
      <trkpt lat="45.6899" lon="3.00535">
        <ele>980.171105</ele>
        <time>2021-07-06T09:40:41+0200</time>
      </trkpt>
      <trkpt lat="45.68985" lon="3.00532">
        <ele>980.838141</ele>
        <time>2021-07-06T09:40:43+0200</time>
      </trkpt>
      <trkpt lat="45.6898" lon="3.0053">
        <ele>980.408087</ele>
        <time>2021-07-06T09:40:45+0200</time>
      </trkpt>
      <trkpt lat="45.68974" lon="3.00529">
        <ele>982.132803</ele>
        <time>2021-07-06T09:40:48+0200</time>
      </trkpt>
      <trkpt lat="45.68968" lon="3.00528">
        <ele>982.133861</ele>
        <time>2021-07-06T09:40:50+0200</time>
      </trkpt>
      <trkpt lat="45.68962" lon="3.00528">
        <ele>982.305714</ele>
        <time>2021-07-06T09:40:53+0200</time>
      </trkpt>
      <trkpt lat="45.68956" lon="3.00527">
        <ele>982.727218</ele>
        <time>2021-07-06T09:40:56+0200</time>
      </trkpt>
      <trkpt lat="45.6895" lon="3.00526">
        <ele>985.129255</ele>
        <time>2021-07-06T09:41:01+0200</time>
      </trkpt>
      <trkpt lat="45.68945" lon="3.00528">
        <ele>984.392357</ele>
        <time>2021-07-06T09:41:04+0200</time>
      </trkpt>
      <trkpt lat="45.68939" lon="3.00531">
        <ele>983.772731</ele>
        <time>2021-07-06T09:41:07+0200</time>
      </trkpt>
      <trkpt lat="45.68933" lon="3.00533">
        <ele>986.054082</ele>
        <time>2021-07-06T09:41:10+0200</time>
      </trkpt>
      <trkpt lat="45.68926" lon="3.00533">
        <ele>985.69103</ele>
        <time>2021-07-06T09:41:12+0200</time>
      </trkpt>
      <trkpt lat="45.68921" lon="3.00537">
        <ele>985.086685</ele>
        <time>2021-07-06T09:41:14+0200</time>
      </trkpt>
      <trkpt lat="45.68915" lon="3.00538">
        <ele>985.757613</ele>
        <time>2021-07-06T09:41:16+0200</time>
      </trkpt>
      <trkpt lat="45.68911" lon="3.0054">
        <ele>986.959841</ele>
        <time>2021-07-06T09:41:18+0200</time>
      </trkpt>
      <trkpt lat="45.68906" lon="3.00541">
        <ele>988.876185</ele>
        <time>2021-07-06T09:41:20+0200</time>
      </trkpt>
      <trkpt lat="45.689" lon="3.00543">
        <ele>990.822746</ele>
        <time>2021-07-06T09:41:22+0200</time>
      </trkpt>
      <trkpt lat="45.68896" lon="3.00546">
        <ele>991.143875</ele>
        <time>2021-07-06T09:41:24+0200</time>
      </trkpt>
      <trkpt lat="45.68892" lon="3.0055">
        <ele>991.113599</ele>
        <time>2021-07-06T09:41:26+0200</time>
      </trkpt>
      <trkpt lat="45.68887" lon="3.00554">
        <ele>990.565442</ele>
        <time>2021-07-06T09:41:28+0200</time>
      </trkpt>
      <trkpt lat="45.68882" lon="3.00558">
        <ele>989.188808</ele>
        <time>2021-07-06T09:41:30+0200</time>
      </trkpt>
      <trkpt lat="45.68878" lon="3.00563">
        <ele>989.828886</ele>
        <time>2021-07-06T09:41:33+0200</time>
      </trkpt>
      <trkpt lat="45.68873" lon="3.00565">
        <ele>990.449125</ele>
        <time>2021-07-06T09:41:35+0200</time>
      </trkpt>
      <trkpt lat="45.68868" lon="3.00568">
        <ele>989.827533</ele>
        <time>2021-07-06T09:41:37+0200</time>
      </trkpt>
      <trkpt lat="45.68863" lon="3.00571">
        <ele>991.174204</ele>
        <time>2021-07-06T09:41:39+0200</time>
      </trkpt>
      <trkpt lat="45.68858" lon="3.00574">
        <ele>991.590387</ele>
        <time>2021-07-06T09:41:41+0200</time>
      </trkpt>
      <trkpt lat="45.68853" lon="3.00577">
        <ele>990.595992</ele>
        <time>2021-07-06T09:41:43+0200</time>
      </trkpt>
      <trkpt lat="45.68849" lon="3.0058">
        <ele>989.994748</ele>
        <time>2021-07-06T09:41:45+0200</time>
      </trkpt>
      <trkpt lat="45.68844" lon="3.0058">
        <ele>990.529124</ele>
        <time>2021-07-06T09:41:48+0200</time>
      </trkpt>
      <trkpt lat="45.68839" lon="3.00583">
        <ele>991.398587</ele>
        <time>2021-07-06T09:41:52+0200</time>
      </trkpt>
      <trkpt lat="45.68833" lon="3.00585">
        <ele>993.003151</ele>
        <time>2021-07-06T09:41:57+0200</time>
      </trkpt>
      <trkpt lat="45.68827" lon="3.00586">
        <ele>991.884163</ele>
        <time>2021-07-06T09:42:00+0200</time>
      </trkpt>
      <trkpt lat="45.68823" lon="3.00592">
        <ele>993.073785</ele>
        <time>2021-07-06T09:42:06+0200</time>
      </trkpt>
      <trkpt lat="45.68816" lon="3.00593">
        <ele>993.62011</ele>
        <time>2021-07-06T09:42:11+0200</time>
      </trkpt>
      <trkpt lat="45.68812" lon="3.00597">
        <ele>993.14717</ele>
        <time>2021-07-06T09:42:16+0200</time>
      </trkpt>
      <trkpt lat="45.68807" lon="3.00598">
        <ele>994.712539</ele>
        <time>2021-07-06T09:42:22+0200</time>
      </trkpt>
      <trkpt lat="45.68803" lon="3.00601">
        <ele>994.688757</ele>
        <time>2021-07-06T09:42:28+0200</time>
      </trkpt>
      <trkpt lat="45.68797" lon="3.00603">
        <ele>992.824657</ele>
        <time>2021-07-06T09:42:32+0200</time>
      </trkpt>
      <trkpt lat="45.68792" lon="3.00607">
        <ele>992.239355</ele>
        <time>2021-07-06T09:42:35+0200</time>
      </trkpt>
      <trkpt lat="45.68787" lon="3.0061">
        <ele>993.208983</ele>
        <time>2021-07-06T09:42:38+0200</time>
      </trkpt>
      <trkpt lat="45.68781" lon="3.00613">
        <ele>994.340924</ele>
        <time>2021-07-06T09:42:41+0200</time>
      </trkpt>
      <trkpt lat="45.68774" lon="3.00618">
        <ele>991.864402</ele>
        <time>2021-07-06T09:42:43+0200</time>
      </trkpt>
      <trkpt lat="45.68767" lon="3.00622">
        <ele>991.368294</ele>
        <time>2021-07-06T09:42:45+0200</time>
      </trkpt>
      <trkpt lat="45.68759" lon="3.00624">
        <ele>990.060679</ele>
        <time>2021-07-06T09:42:47+0200</time>
      </trkpt>
      <trkpt lat="45.68751" lon="3.00629">
        <ele>989.758292</ele>
        <time>2021-07-06T09:42:49+0200</time>
      </trkpt>
      <trkpt lat="45.68743" lon="3.00632">
        <ele>989.573345</ele>
        <time>2021-07-06T09:42:51+0200</time>
      </trkpt>
      <trkpt lat="45.68738" lon="3.00635">
        <ele>989.098857</ele>
        <time>2021-07-06T09:42:52+0200</time>
      </trkpt>
      <trkpt lat="45.68734" lon="3.00639">
        <ele>987.12685</ele>
        <time>2021-07-06T09:42:53+0200</time>
      </trkpt>
      <trkpt lat="45.6873" lon="3.00642">
        <ele>986.691012</ele>
        <time>2021-07-06T09:42:54+0200</time>
      </trkpt>
      <trkpt lat="45.68725" lon="3.00645">
        <ele>986.345356</ele>
        <time>2021-07-06T09:42:55+0200</time>
      </trkpt>
      <trkpt lat="45.6872" lon="3.00647">
        <ele>985.609163</ele>
        <time>2021-07-06T09:42:56+0200</time>
      </trkpt>
      <trkpt lat="45.68711" lon="3.00653">
        <ele>985.363189</ele>
        <time>2021-07-06T09:42:58+0200</time>
      </trkpt>
      <trkpt lat="45.68705" lon="3.00656">
        <ele>984.909072</ele>
        <time>2021-07-06T09:42:59+0200</time>
      </trkpt>
      <trkpt lat="45.68699" lon="3.00659">
        <ele>984.878857</ele>
        <time>2021-07-06T09:43:00+0200</time>
      </trkpt>
      <trkpt lat="45.68693" lon="3.00663">
        <ele>984.451078</ele>
        <time>2021-07-06T09:43:01+0200</time>
      </trkpt>
      <trkpt lat="45.68688" lon="3.00666">
        <ele>983.917399</ele>
        <time>2021-07-06T09:43:02+0200</time>
      </trkpt>
      <trkpt lat="45.68682" lon="3.00671">
        <ele>983.02741</ele>
        <time>2021-07-06T09:43:03+0200</time>
      </trkpt>
      <trkpt lat="45.68676" lon="3.00675">
        <ele>982.400289</ele>
        <time>2021-07-06T09:43:04+0200</time>
      </trkpt>
      <trkpt lat="45.6867" lon="3.00678">
        <ele>982.303839</ele>
        <time>2021-07-06T09:43:05+0200</time>
      </trkpt>
      <trkpt lat="45.68664" lon="3.00681">
        <ele>982.150075</ele>
        <time>2021-07-06T09:43:06+0200</time>
      </trkpt>
      <trkpt lat="45.68658" lon="3.00685">
        <ele>981.385477</ele>
        <time>2021-07-06T09:43:07+0200</time>
      </trkpt>
      <trkpt lat="45.68652" lon="3.00687">
        <ele>982.161727</ele>
        <time>2021-07-06T09:43:08+0200</time>
      </trkpt>
      <trkpt lat="45.68646" lon="3.00689">
        <ele>982.015024</ele>
        <time>2021-07-06T09:43:09+0200</time>
      </trkpt>
      <trkpt lat="45.68641" lon="3.00693">
        <ele>981.038625</ele>
        <time>2021-07-06T09:43:10+0200</time>
      </trkpt>
      <trkpt lat="45.68636" lon="3.00695">
        <ele>980.894303</ele>
        <time>2021-07-06T09:43:11+0200</time>
      </trkpt>
      <trkpt lat="45.6863" lon="3.00698">
        <ele>980.561157</ele>
        <time>2021-07-06T09:43:12+0200</time>
      </trkpt>
      <trkpt lat="45.68625" lon="3.00698">
        <ele>979.369202</ele>
        <time>2021-07-06T09:43:13+0200</time>
      </trkpt>
      <trkpt lat="45.68618" lon="3.00696">
        <ele>979.73293</ele>
        <time>2021-07-06T09:43:14+0200</time>
      </trkpt>
      <trkpt lat="45.68612" lon="3.00696">
        <ele>979.816908</ele>
        <time>2021-07-06T09:43:15+0200</time>
      </trkpt>
      <trkpt lat="45.68606" lon="3.00697">
        <ele>979.983028</ele>
        <time>2021-07-06T09:43:16+0200</time>
      </trkpt>
      <trkpt lat="45.686" lon="3.00696">
        <ele>980.322261</ele>
        <time>2021-07-06T09:43:17+0200</time>
      </trkpt>
      <trkpt lat="45.68594" lon="3.00696">
        <ele>980.237391</ele>
        <time>2021-07-06T09:43:18+0200</time>
      </trkpt>
      <trkpt lat="45.68589" lon="3.00694">
        <ele>980.368058</ele>
        <time>2021-07-06T09:43:19+0200</time>
      </trkpt>
      <trkpt lat="45.68583" lon="3.00693">
        <ele>981.135923</ele>
        <time>2021-07-06T09:43:20+0200</time>
      </trkpt>
      <trkpt lat="45.68577" lon="3.0069">
        <ele>980.752955</ele>
        <time>2021-07-06T09:43:21+0200</time>
      </trkpt>
      <trkpt lat="45.68571" lon="3.0069">
        <ele>981.41349</ele>
        <time>2021-07-06T09:43:23+0200</time>
      </trkpt>
      <trkpt lat="45.68567" lon="3.00685">
        <ele>982.0381</ele>
        <time>2021-07-06T09:43:25+0200</time>
      </trkpt>
      <trkpt lat="45.68563" lon="3.00679">
        <ele>982.939159</ele>
        <time>2021-07-06T09:43:27+0200</time>
      </trkpt>
      <trkpt lat="45.68557" lon="3.00674">
        <ele>984.408556</ele>
        <time>2021-07-06T09:43:29+0200</time>
      </trkpt>
      <trkpt lat="45.68552" lon="3.00669">
        <ele>984.360412</ele>
        <time>2021-07-06T09:43:31+0200</time>
      </trkpt>
      <trkpt lat="45.68547" lon="3.00663">
        <ele>986.238952</ele>
        <time>2021-07-06T09:43:33+0200</time>
      </trkpt>
      <trkpt lat="45.68542" lon="3.00658">
        <ele>986.864015</ele>
        <time>2021-07-06T09:43:35+0200</time>
      </trkpt>
      <trkpt lat="45.68536" lon="3.00653">
        <ele>986.314809</ele>
        <time>2021-07-06T09:43:37+0200</time>
      </trkpt>
      <trkpt lat="45.6853" lon="3.00647">
        <ele>986.010384</ele>
        <time>2021-07-06T09:43:39+0200</time>
      </trkpt>
      <trkpt lat="45.68524" lon="3.00641">
        <ele>986.483801</ele>
        <time>2021-07-06T09:43:41+0200</time>
      </trkpt>
      <trkpt lat="45.6852" lon="3.00637">
        <ele>986.666324</ele>
        <time>2021-07-06T09:43:43+0200</time>
      </trkpt>
      <trkpt lat="45.68515" lon="3.00631">
        <ele>986.262388</ele>
        <time>2021-07-06T09:43:45+0200</time>
      </trkpt>
      <trkpt lat="45.6851" lon="3.00627">
        <ele>985.599242</ele>
        <time>2021-07-06T09:43:47+0200</time>
      </trkpt>
      <trkpt lat="45.68505" lon="3.00623">
        <ele>984.099593</ele>
        <time>2021-07-06T09:43:49+0200</time>
      </trkpt>
      <trkpt lat="45.68501" lon="3.00617">
        <ele>985.164681</ele>
        <time>2021-07-06T09:43:51+0200</time>
      </trkpt>
      <trkpt lat="45.68499" lon="3.00611">
        <ele>985.625166</ele>
        <time>2021-07-06T09:43:53+0200</time>
      </trkpt>
      <trkpt lat="45.68494" lon="3.00609">
        <ele>984.169349</ele>
        <time>2021-07-06T09:43:55+0200</time>
      </trkpt>
      <trkpt lat="45.68488" lon="3.00607">
        <ele>982.768199</ele>
        <time>2021-07-06T09:43:58+0200</time>
      </trkpt>
      <trkpt lat="45.68483" lon="3.00608">
        <ele>981.803177</ele>
        <time>2021-07-06T09:44:01+0200</time>
      </trkpt>
      <trkpt lat="45.68478" lon="3.00607">
        <ele>981.683394</ele>
        <time>2021-07-06T09:44:03+0200</time>
      </trkpt>
      <trkpt lat="45.68472" lon="3.00609">
        <ele>981.858384</ele>
        <time>2021-07-06T09:44:05+0200</time>
      </trkpt>
      <trkpt lat="45.68467" lon="3.00609">
        <ele>981.708751</ele>
        <time>2021-07-06T09:44:07+0200</time>
      </trkpt>
      <trkpt lat="45.68461" lon="3.00612">
        <ele>980.981283</ele>
        <time>2021-07-06T09:44:09+0200</time>
      </trkpt>
      <trkpt lat="45.68455" lon="3.00614">
        <ele>980.724963</ele>
        <time>2021-07-06T09:44:11+0200</time>
      </trkpt>
      <trkpt lat="45.68448" lon="3.00616">
        <ele>980.611311</ele>
        <time>2021-07-06T09:44:13+0200</time>
      </trkpt>
      <trkpt lat="45.68443" lon="3.00618">
        <ele>979.866024</ele>
        <time>2021-07-06T09:44:14+0200</time>
      </trkpt>
      <trkpt lat="45.68438" lon="3.00617">
        <ele>978.725369</ele>
        <time>2021-07-06T09:44:15+0200</time>
      </trkpt>
      <trkpt lat="45.68432" lon="3.00616">
        <ele>977.960249</ele>
        <time>2021-07-06T09:44:18+0200</time>
      </trkpt>
      <trkpt lat="45.68427" lon="3.00609">
        <ele>977.058923</ele>
        <time>2021-07-06T09:44:20+0200</time>
      </trkpt>
      <trkpt lat="45.68421" lon="3.00601">
        <ele>976.178813</ele>
        <time>2021-07-06T09:44:22+0200</time>
      </trkpt>
      <trkpt lat="45.68416" lon="3.00591">
        <ele>974.860932</ele>
        <time>2021-07-06T09:44:24+0200</time>
      </trkpt>
      <trkpt lat="45.68412" lon="3.00587">
        <ele>974.65463</ele>
        <time>2021-07-06T09:44:25+0200</time>
      </trkpt>
      <trkpt lat="45.68406" lon="3.00579">
        <ele>974.601022</ele>
        <time>2021-07-06T09:44:27+0200</time>
      </trkpt>
      <trkpt lat="45.68402" lon="3.00574">
        <ele>974.43288</ele>
        <time>2021-07-06T09:44:28+0200</time>
      </trkpt>
      <trkpt lat="45.68395" lon="3.00565">
        <ele>974.578884</ele>
        <time>2021-07-06T09:44:30+0200</time>
      </trkpt>
      <trkpt lat="45.68391" lon="3.00562">
        <ele>974.338562</ele>
        <time>2021-07-06T09:44:31+0200</time>
      </trkpt>
      <trkpt lat="45.68384" lon="3.00554">
        <ele>974.872951</ele>
        <time>2021-07-06T09:44:33+0200</time>
      </trkpt>
      <trkpt lat="45.68376" lon="3.00551">
        <ele>974.430179</ele>
        <time>2021-07-06T09:44:35+0200</time>
      </trkpt>
      <trkpt lat="45.68369" lon="3.00549">
        <ele>973.416034</ele>
        <time>2021-07-06T09:44:37+0200</time>
      </trkpt>
      <trkpt lat="45.68362" lon="3.00549">
        <ele>972.513964</ele>
        <time>2021-07-06T09:44:39+0200</time>
      </trkpt>
      <trkpt lat="45.68358" lon="3.00546">
        <ele>971.21466</ele>
        <time>2021-07-06T09:44:40+0200</time>
      </trkpt>
      <trkpt lat="45.68352" lon="3.00544">
        <ele>970.381438</ele>
        <time>2021-07-06T09:44:42+0200</time>
      </trkpt>
      <trkpt lat="45.68345" lon="3.00542">
        <ele>969.79543</ele>
        <time>2021-07-06T09:44:44+0200</time>
      </trkpt>
      <trkpt lat="45.68338" lon="3.00539">
        <ele>969.524813</ele>
        <time>2021-07-06T09:44:46+0200</time>
      </trkpt>
      <trkpt lat="45.68331" lon="3.00536">
        <ele>968.001663</ele>
        <time>2021-07-06T09:44:48+0200</time>
      </trkpt>
      <trkpt lat="45.68324" lon="3.00534">
        <ele>967.295522</ele>
        <time>2021-07-06T09:44:50+0200</time>
      </trkpt>
      <trkpt lat="45.68317" lon="3.00531">
        <ele>966.319803</ele>
        <time>2021-07-06T09:44:52+0200</time>
      </trkpt>
      <trkpt lat="45.68309" lon="3.00528">
        <ele>964.133323</ele>
        <time>2021-07-06T09:44:54+0200</time>
      </trkpt>
      <trkpt lat="45.68305" lon="3.00527">
        <ele>963.321092</ele>
        <time>2021-07-06T09:44:55+0200</time>
      </trkpt>
      <trkpt lat="45.68298" lon="3.00523">
        <ele>962.176721</ele>
        <time>2021-07-06T09:44:57+0200</time>
      </trkpt>
      <trkpt lat="45.68291" lon="3.00519">
        <ele>961.674937</ele>
        <time>2021-07-06T09:44:59+0200</time>
      </trkpt>
      <trkpt lat="45.68282" lon="3.00515">
        <ele>961.243558</ele>
        <time>2021-07-06T09:45:01+0200</time>
      </trkpt>
      <trkpt lat="45.68277" lon="3.00514">
        <ele>961.720731</ele>
        <time>2021-07-06T09:45:02+0200</time>
      </trkpt>
      <trkpt lat="45.68272" lon="3.00512">
        <ele>961.727898</ele>
        <time>2021-07-06T09:45:03+0200</time>
      </trkpt>
      <trkpt lat="45.68267" lon="3.00511">
        <ele>962.345858</ele>
        <time>2021-07-06T09:45:04+0200</time>
      </trkpt>
      <trkpt lat="45.68262" lon="3.00509">
        <ele>962.632263</ele>
        <time>2021-07-06T09:45:05+0200</time>
      </trkpt>
      <trkpt lat="45.68257" lon="3.00508">
        <ele>963.414137</ele>
        <time>2021-07-06T09:45:06+0200</time>
      </trkpt>
      <trkpt lat="45.68252" lon="3.00508">
        <ele>963.046051</ele>
        <time>2021-07-06T09:45:07+0200</time>
      </trkpt>
      <trkpt lat="45.68247" lon="3.00506">
        <ele>962.539695</ele>
        <time>2021-07-06T09:45:08+0200</time>
      </trkpt>
      <trkpt lat="45.68241" lon="3.00505">
        <ele>962.587127</ele>
        <time>2021-07-06T09:45:09+0200</time>
      </trkpt>
      <trkpt lat="45.68234" lon="3.00503">
        <ele>963.359695</ele>
        <time>2021-07-06T09:45:10+0200</time>
      </trkpt>
      <trkpt lat="45.68229" lon="3.00503">
        <ele>963.946641</ele>
        <time>2021-07-06T09:45:11+0200</time>
      </trkpt>
      <trkpt lat="45.68222" lon="3.00501">
        <ele>963.399732</ele>
        <time>2021-07-06T09:45:12+0200</time>
      </trkpt>
      <trkpt lat="45.68214" lon="3.00502">
        <ele>962.682994</ele>
        <time>2021-07-06T09:45:13+0200</time>
      </trkpt>
      <trkpt lat="45.68207" lon="3.00503">
        <ele>962.907304</ele>
        <time>2021-07-06T09:45:14+0200</time>
      </trkpt>
      <trkpt lat="45.68199" lon="3.00501">
        <ele>962.763911</ele>
        <time>2021-07-06T09:45:15+0200</time>
      </trkpt>
      <trkpt lat="45.68192" lon="3.00497">
        <ele>962.30452</ele>
        <time>2021-07-06T09:45:16+0200</time>
      </trkpt>
      <trkpt lat="45.68185" lon="3.00491">
        <ele>962.118132</ele>
        <time>2021-07-06T09:45:17+0200</time>
      </trkpt>
      <trkpt lat="45.68178" lon="3.00484">
        <ele>960.837683</ele>
        <time>2021-07-06T09:45:18+0200</time>
      </trkpt>
      <trkpt lat="45.68172" lon="3.00476">
        <ele>960.141017</ele>
        <time>2021-07-06T09:45:19+0200</time>
      </trkpt>
      <trkpt lat="45.68165" lon="3.0047">
        <ele>959.365623</ele>
        <time>2021-07-06T09:45:20+0200</time>
      </trkpt>
      <trkpt lat="45.68157" lon="3.00464">
        <ele>958.18262</ele>
        <time>2021-07-06T09:45:21+0200</time>
      </trkpt>
      <trkpt lat="45.68148" lon="3.00459">
        <ele>957.362424</ele>
        <time>2021-07-06T09:45:22+0200</time>
      </trkpt>
      <trkpt lat="45.68139" lon="3.00454">
        <ele>956.568368</ele>
        <time>2021-07-06T09:45:23+0200</time>
      </trkpt>
      <trkpt lat="45.6813" lon="3.0045">
        <ele>955.626494</ele>
        <time>2021-07-06T09:45:24+0200</time>
      </trkpt>
      <trkpt lat="45.68121" lon="3.00445">
        <ele>954.901665</ele>
        <time>2021-07-06T09:45:25+0200</time>
      </trkpt>
      <trkpt lat="45.68111" lon="3.00441">
        <ele>953.544847</ele>
        <time>2021-07-06T09:45:26+0200</time>
      </trkpt>
      <trkpt lat="45.68102" lon="3.00436">
        <ele>952.651763</ele>
        <time>2021-07-06T09:45:27+0200</time>
      </trkpt>
      <trkpt lat="45.68093" lon="3.0043">
        <ele>951.416588</ele>
        <time>2021-07-06T09:45:28+0200</time>
      </trkpt>
      <trkpt lat="45.68082" lon="3.00424">
        <ele>949.868953</ele>
        <time>2021-07-06T09:45:29+0200</time>
      </trkpt>
      <trkpt lat="45.68072" lon="3.00419">
        <ele>949.193107</ele>
        <time>2021-07-06T09:45:30+0200</time>
      </trkpt>
      <trkpt lat="45.68063" lon="3.00412">
        <ele>948.477816</ele>
        <time>2021-07-06T09:45:31+0200</time>
      </trkpt>
      <trkpt lat="45.68054" lon="3.00404">
        <ele>947.093139</ele>
        <time>2021-07-06T09:45:32+0200</time>
      </trkpt>
      <trkpt lat="45.68044" lon="3.00395">
        <ele>945.424474</ele>
        <time>2021-07-06T09:45:33+0200</time>
      </trkpt>
      <trkpt lat="45.68033" lon="3.00388">
        <ele>943.512188</ele>
        <time>2021-07-06T09:45:34+0200</time>
      </trkpt>
      <trkpt lat="45.68023" lon="3.0038">
        <ele>942.240124</ele>
        <time>2021-07-06T09:45:35+0200</time>
      </trkpt>
      <trkpt lat="45.68013" lon="3.00375">
        <ele>941.53932</ele>
        <time>2021-07-06T09:45:36+0200</time>
      </trkpt>
      <trkpt lat="45.68005" lon="3.00369">
        <ele>940.184169</ele>
        <time>2021-07-06T09:45:37+0200</time>
      </trkpt>
      <trkpt lat="45.67998" lon="3.00365">
        <ele>940.140254</ele>
        <time>2021-07-06T09:45:38+0200</time>
      </trkpt>
      <trkpt lat="45.67992" lon="3.00363">
        <ele>939.415664</ele>
        <time>2021-07-06T09:45:39+0200</time>
      </trkpt>
      <trkpt lat="45.67987" lon="3.00362">
        <ele>938.655213</ele>
        <time>2021-07-06T09:45:40+0200</time>
      </trkpt>
      <trkpt lat="45.67981" lon="3.00363">
        <ele>938.887798</ele>
        <time>2021-07-06T09:45:41+0200</time>
      </trkpt>
      <trkpt lat="45.67976" lon="3.00367">
        <ele>938.421201</ele>
        <time>2021-07-06T09:45:42+0200</time>
      </trkpt>
      <trkpt lat="45.67969" lon="3.00371">
        <ele>937.750687</ele>
        <time>2021-07-06T09:45:43+0200</time>
      </trkpt>
      <trkpt lat="45.67963" lon="3.00374">
        <ele>936.924727</ele>
        <time>2021-07-06T09:45:44+0200</time>
      </trkpt>
      <trkpt lat="45.67955" lon="3.00376">
        <ele>935.998281</ele>
        <time>2021-07-06T09:45:45+0200</time>
      </trkpt>
      <trkpt lat="45.67947" lon="3.00375">
        <ele>935.50263</ele>
        <time>2021-07-06T09:45:46+0200</time>
      </trkpt>
      <trkpt lat="45.67938" lon="3.00373">
        <ele>935.203652</ele>
        <time>2021-07-06T09:45:47+0200</time>
      </trkpt>
      <trkpt lat="45.67929" lon="3.00369">
        <ele>933.807283</ele>
        <time>2021-07-06T09:45:48+0200</time>
      </trkpt>
      <trkpt lat="45.67922" lon="3.00366">
        <ele>932.885915</ele>
        <time>2021-07-06T09:45:49+0200</time>
      </trkpt>
      <trkpt lat="45.67916" lon="3.00362">
        <ele>931.577284</ele>
        <time>2021-07-06T09:45:50+0200</time>
      </trkpt>
      <trkpt lat="45.6791" lon="3.00359">
        <ele>930.643975</ele>
        <time>2021-07-06T09:45:51+0200</time>
      </trkpt>
      <trkpt lat="45.67903" lon="3.00355">
        <ele>929.729343</ele>
        <time>2021-07-06T09:45:52+0200</time>
      </trkpt>
      <trkpt lat="45.67895" lon="3.00352">
        <ele>928.989944</ele>
        <time>2021-07-06T09:45:53+0200</time>
      </trkpt>
      <trkpt lat="45.67887" lon="3.00348">
        <ele>927.803039</ele>
        <time>2021-07-06T09:45:54+0200</time>
      </trkpt>
      <trkpt lat="45.67878" lon="3.00342">
        <ele>927.092963</ele>
        <time>2021-07-06T09:45:55+0200</time>
      </trkpt>
      <trkpt lat="45.67871" lon="3.00337">
        <ele>925.799964</ele>
        <time>2021-07-06T09:45:56+0200</time>
      </trkpt>
      <trkpt lat="45.67866" lon="3.00333">
        <ele>924.975537</ele>
        <time>2021-07-06T09:45:57+0200</time>
      </trkpt>
      <trkpt lat="45.67861" lon="3.00328">
        <ele>923.76066</ele>
        <time>2021-07-06T09:45:58+0200</time>
      </trkpt>
      <trkpt lat="45.67856" lon="3.00321">
        <ele>922.601148</ele>
        <time>2021-07-06T09:45:59+0200</time>
      </trkpt>
      <trkpt lat="45.67853" lon="3.00315">
        <ele>922.102373</ele>
        <time>2021-07-06T09:46:00+0200</time>
      </trkpt>
      <trkpt lat="45.67849" lon="3.00309">
        <ele>921.850692</ele>
        <time>2021-07-06T09:46:02+0200</time>
      </trkpt>
      <trkpt lat="45.67844" lon="3.00304">
        <ele>922.010608</ele>
        <time>2021-07-06T09:46:04+0200</time>
      </trkpt>
      <trkpt lat="45.6784" lon="3.003">
        <ele>921.4072</ele>
        <time>2021-07-06T09:46:05+0200</time>
      </trkpt>
      <trkpt lat="45.6783" lon="3.00296">
        <ele>919.103577</ele>
        <time>2021-07-06T09:46:07+0200</time>
      </trkpt>
      <trkpt lat="45.67824" lon="3.00295">
        <ele>917.770582</ele>
        <time>2021-07-06T09:46:08+0200</time>
      </trkpt>
      <trkpt lat="45.67817" lon="3.00293">
        <ele>916.400379</ele>
        <time>2021-07-06T09:46:09+0200</time>
      </trkpt>
      <trkpt lat="45.67811" lon="3.00289">
        <ele>915.392857</ele>
        <time>2021-07-06T09:46:10+0200</time>
      </trkpt>
      <trkpt lat="45.67803" lon="3.00285">
        <ele>913.995003</ele>
        <time>2021-07-06T09:46:11+0200</time>
      </trkpt>
      <trkpt lat="45.67795" lon="3.00282">
        <ele>912.744241</ele>
        <time>2021-07-06T09:46:12+0200</time>
      </trkpt>
      <trkpt lat="45.67786" lon="3.0028">
        <ele>911.8374</ele>
        <time>2021-07-06T09:46:13+0200</time>
      </trkpt>
      <trkpt lat="45.67777" lon="3.00276">
        <ele>910.871769</ele>
        <time>2021-07-06T09:46:14+0200</time>
      </trkpt>
      <trkpt lat="45.6777" lon="3.00272">
        <ele>909.63674</ele>
        <time>2021-07-06T09:46:15+0200</time>
      </trkpt>
      <trkpt lat="45.67761" lon="3.00269">
        <ele>908.816995</ele>
        <time>2021-07-06T09:46:16+0200</time>
      </trkpt>
      <trkpt lat="45.67753" lon="3.00265">
        <ele>907.141195</ele>
        <time>2021-07-06T09:46:17+0200</time>
      </trkpt>
      <trkpt lat="45.67747" lon="3.00261">
        <ele>905.984497</ele>
        <time>2021-07-06T09:46:18+0200</time>
      </trkpt>
      <trkpt lat="45.67742" lon="3.00259">
        <ele>905.451038</ele>
        <time>2021-07-06T09:46:19+0200</time>
      </trkpt>
      <trkpt lat="45.67737" lon="3.00256">
        <ele>904.705639</ele>
        <time>2021-07-06T09:46:20+0200</time>
      </trkpt>
      <trkpt lat="45.67732" lon="3.00253">
        <ele>903.641847</ele>
        <time>2021-07-06T09:46:21+0200</time>
      </trkpt>
      <trkpt lat="45.67729" lon="3.00245">
        <ele>904.144051</ele>
        <time>2021-07-06T09:47:23+0200</time>
      </trkpt>
      <trkpt lat="45.67729" lon="3.00238">
        <ele>904.68507</ele>
        <time>2021-07-06T09:47:25+0200</time>
      </trkpt>
      <trkpt lat="45.67731" lon="3.0023">
        <ele>903.901403</ele>
        <time>2021-07-06T09:47:27+0200</time>
      </trkpt>
      <trkpt lat="45.6773" lon="3.00221">
        <ele>903.155696</ele>
        <time>2021-07-06T09:47:29+0200</time>
      </trkpt>
      <trkpt lat="45.67732" lon="3.00206">
        <ele>903.75702</ele>
        <time>2021-07-06T09:47:31+0200</time>
      </trkpt>
      <trkpt lat="45.67733" lon="3.00199">
        <ele>904.100468</ele>
        <time>2021-07-06T09:47:32+0200</time>
      </trkpt>
      <trkpt lat="45.67733" lon="3.00189">
        <ele>904.020343</ele>
        <time>2021-07-06T09:47:33+0200</time>
      </trkpt>
      <trkpt lat="45.67733" lon="3.00181">
        <ele>903.143571</ele>
        <time>2021-07-06T09:47:34+0200</time>
      </trkpt>
      <trkpt lat="45.67734" lon="3.00171">
        <ele>902.750704</ele>
        <time>2021-07-06T09:47:35+0200</time>
      </trkpt>
      <trkpt lat="45.67733" lon="3.0016">
        <ele>901.514567</ele>
        <time>2021-07-06T09:47:36+0200</time>
      </trkpt>
      <trkpt lat="45.67732" lon="3.00149">
        <ele>900.534809</ele>
        <time>2021-07-06T09:47:37+0200</time>
      </trkpt>
      <trkpt lat="45.67732" lon="3.00139">
        <ele>899.083825</ele>
        <time>2021-07-06T09:47:38+0200</time>
      </trkpt>
      <trkpt lat="45.67732" lon="3.00128">
        <ele>898.337432</ele>
        <time>2021-07-06T09:47:39+0200</time>
      </trkpt>
      <trkpt lat="45.67733" lon="3.00116">
        <ele>897.7772</ele>
        <time>2021-07-06T09:47:40+0200</time>
      </trkpt>
      <trkpt lat="45.67734" lon="3.00106">
        <ele>896.640609</ele>
        <time>2021-07-06T09:47:41+0200</time>
      </trkpt>
      <trkpt lat="45.67733" lon="3.00097">
        <ele>894.956618</ele>
        <time>2021-07-06T09:47:42+0200</time>
      </trkpt>
      <trkpt lat="45.67732" lon="3.00086">
        <ele>893.646732</ele>
        <time>2021-07-06T09:47:43+0200</time>
      </trkpt>
      <trkpt lat="45.67731" lon="3.00075">
        <ele>893.237128</ele>
        <time>2021-07-06T09:47:44+0200</time>
      </trkpt>
      <trkpt lat="45.6773" lon="3.00063">
        <ele>892.550244</ele>
        <time>2021-07-06T09:47:45+0200</time>
      </trkpt>
      <trkpt lat="45.67729" lon="3.00053">
        <ele>891.977519</ele>
        <time>2021-07-06T09:47:46+0200</time>
      </trkpt>
      <trkpt lat="45.67728" lon="3.00043">
        <ele>891.285198</ele>
        <time>2021-07-06T09:47:47+0200</time>
      </trkpt>
      <trkpt lat="45.67728" lon="3.00032">
        <ele>890.66426</ele>
        <time>2021-07-06T09:47:48+0200</time>
      </trkpt>
      <trkpt lat="45.67727" lon="3.00021">
        <ele>890.860355</ele>
        <time>2021-07-06T09:47:49+0200</time>
      </trkpt>
      <trkpt lat="45.67728" lon="3.00009">
        <ele>890.088404</ele>
        <time>2021-07-06T09:47:50+0200</time>
      </trkpt>
      <trkpt lat="45.67727" lon="3">
        <ele>890.395289</ele>
        <time>2021-07-06T09:47:51+0200</time>
      </trkpt>
      <trkpt lat="45.67728" lon="2.99989">
        <ele>890.079363</ele>
        <time>2021-07-06T09:47:52+0200</time>
      </trkpt>
      <trkpt lat="45.6773" lon="2.99979">
        <ele>889.707008</ele>
        <time>2021-07-06T09:47:53+0200</time>
      </trkpt>
      <trkpt lat="45.67732" lon="2.99969">
        <ele>889.821106</ele>
        <time>2021-07-06T09:47:54+0200</time>
      </trkpt>
      <trkpt lat="45.67733" lon="2.99959">
        <ele>887.997129</ele>
        <time>2021-07-06T09:47:55+0200</time>
      </trkpt>
      <trkpt lat="45.67734" lon="2.99949">
        <ele>885.928423</ele>
        <time>2021-07-06T09:47:56+0200</time>
      </trkpt>
      <trkpt lat="45.67736" lon="2.99939">
        <ele>884.362466</ele>
        <time>2021-07-06T09:47:57+0200</time>
      </trkpt>
      <trkpt lat="45.67738" lon="2.99928">
        <ele>882.953601</ele>
        <time>2021-07-06T09:47:58+0200</time>
      </trkpt>
      <trkpt lat="45.6774" lon="2.99915">
        <ele>881.39256</ele>
        <time>2021-07-06T09:47:59+0200</time>
      </trkpt>
      <trkpt lat="45.67743" lon="2.99905">
        <ele>881.092103</ele>
        <time>2021-07-06T09:48:00+0200</time>
      </trkpt>
      <trkpt lat="45.67747" lon="2.99894">
        <ele>881.518154</ele>
        <time>2021-07-06T09:48:01+0200</time>
      </trkpt>
      <trkpt lat="45.67749" lon="2.99883">
        <ele>881.615037</ele>
        <time>2021-07-06T09:48:02+0200</time>
      </trkpt>
      <trkpt lat="45.67753" lon="2.99873">
        <ele>881.228142</ele>
        <time>2021-07-06T09:48:03+0200</time>
      </trkpt>
      <trkpt lat="45.67758" lon="2.99863">
        <ele>880.456271</ele>
        <time>2021-07-06T09:48:04+0200</time>
      </trkpt>
      <trkpt lat="45.67761" lon="2.99852">
        <ele>880.342557</ele>
        <time>2021-07-06T09:48:05+0200</time>
      </trkpt>
      <trkpt lat="45.67765" lon="2.9984">
        <ele>880.087721</ele>
        <time>2021-07-06T09:48:06+0200</time>
      </trkpt>
      <trkpt lat="45.6777" lon="2.99828">
        <ele>879.913635</ele>
        <time>2021-07-06T09:48:07+0200</time>
      </trkpt>
      <trkpt lat="45.67774" lon="2.99819">
        <ele>878.518654</ele>
        <time>2021-07-06T09:48:08+0200</time>
      </trkpt>
      <trkpt lat="45.67776" lon="2.99812">
        <ele>877.729974</ele>
        <time>2021-07-06T09:48:09+0200</time>
      </trkpt>
      <trkpt lat="45.67779" lon="2.99804">
        <ele>876.657257</ele>
        <time>2021-07-06T09:48:10+0200</time>
      </trkpt>
      <trkpt lat="45.67782" lon="2.99798">
        <ele>875.911453</ele>
        <time>2021-07-06T09:48:11+0200</time>
      </trkpt>
      <trkpt lat="45.67785" lon="2.99794">
        <ele>875.723497</ele>
        <time>2021-07-06T09:48:12+0200</time>
      </trkpt>
      <trkpt lat="45.6779" lon="2.99793">
        <ele>875.814857</ele>
        <time>2021-07-06T09:48:14+0200</time>
      </trkpt>
      <trkpt lat="45.67784" lon="2.99795">
        <ele>875.629625</ele>
        <time>2021-07-06T09:48:19+0200</time>
      </trkpt>
      <trkpt lat="45.6778" lon="2.99797">
        <ele>877.682467</ele>
        <time>2021-07-06T09:48:21+0200</time>
      </trkpt>
      <trkpt lat="45.67774" lon="2.998">
        <ele>878.838514</ele>
        <time>2021-07-06T09:48:24+0200</time>
      </trkpt>
      <trkpt lat="45.67768" lon="2.99801">
        <ele>878.61479</ele>
        <time>2021-07-06T09:48:26+0200</time>
      </trkpt>
      <trkpt lat="45.67761" lon="2.998">
        <ele>878.92306</ele>
        <time>2021-07-06T09:48:28+0200</time>
      </trkpt>
      <trkpt lat="45.67752" lon="2.99798">
        <ele>879.660122</ele>
        <time>2021-07-06T09:48:30+0200</time>
      </trkpt>
      <trkpt lat="45.67746" lon="2.99797">
        <ele>879.917972</ele>
        <time>2021-07-06T09:48:31+0200</time>
      </trkpt>
      <trkpt lat="45.67741" lon="2.99797">
        <ele>880.004562</ele>
        <time>2021-07-06T09:48:32+0200</time>
      </trkpt>
      <trkpt lat="45.67735" lon="2.99796">
        <ele>879.886448</ele>
        <time>2021-07-06T09:48:33+0200</time>
      </trkpt>
      <trkpt lat="45.67731" lon="2.99795">
        <ele>880.150253</ele>
        <time>2021-07-06T09:48:34+0200</time>
      </trkpt>
      <trkpt lat="45.67726" lon="2.99795">
        <ele>880.071123</ele>
        <time>2021-07-06T09:48:35+0200</time>
      </trkpt>
      <trkpt lat="45.67721" lon="2.99795">
        <ele>880.284371</ele>
        <time>2021-07-06T09:48:36+0200</time>
      </trkpt>
      <trkpt lat="45.67715" lon="2.99795">
        <ele>880.619078</ele>
        <time>2021-07-06T09:48:37+0200</time>
      </trkpt>
      <trkpt lat="45.6771" lon="2.99795">
        <ele>880.831102</ele>
        <time>2021-07-06T09:48:38+0200</time>
      </trkpt>
      <trkpt lat="45.67706" lon="2.99796">
        <ele>881.190791</ele>
        <time>2021-07-06T09:48:39+0200</time>
      </trkpt>
      <trkpt lat="45.67701" lon="2.99798">
        <ele>881.675175</ele>
        <time>2021-07-06T09:48:40+0200</time>
      </trkpt>
      <trkpt lat="45.67696" lon="2.99799">
        <ele>881.44247</ele>
        <time>2021-07-06T09:48:41+0200</time>
      </trkpt>
      <trkpt lat="45.67691" lon="2.99801">
        <ele>881.495585</ele>
        <time>2021-07-06T09:48:42+0200</time>
      </trkpt>
      <trkpt lat="45.67687" lon="2.99803">
        <ele>881.380834</ele>
        <time>2021-07-06T09:48:43+0200</time>
      </trkpt>
      <trkpt lat="45.67682" lon="2.99807">
        <ele>881.465831</ele>
        <time>2021-07-06T09:48:44+0200</time>
      </trkpt>
      <trkpt lat="45.67678" lon="2.9981">
        <ele>881.406937</ele>
        <time>2021-07-06T09:48:45+0200</time>
      </trkpt>
      <trkpt lat="45.67673" lon="2.99815">
        <ele>880.469561</ele>
        <time>2021-07-06T09:48:46+0200</time>
      </trkpt>
      <trkpt lat="45.67668" lon="2.9982">
        <ele>880.666521</ele>
        <time>2021-07-06T09:48:47+0200</time>
      </trkpt>
      <trkpt lat="45.67663" lon="2.99824">
        <ele>880.944394</ele>
        <time>2021-07-06T09:48:48+0200</time>
      </trkpt>
      <trkpt lat="45.6766" lon="2.9983">
        <ele>880.833504</ele>
        <time>2021-07-06T09:48:49+0200</time>
      </trkpt>
      <trkpt lat="45.67654" lon="2.99834">
        <ele>879.659947</ele>
        <time>2021-07-06T09:48:51+0200</time>
      </trkpt>
      <trkpt lat="45.67647" lon="2.99824">
        <ele>879.217046</ele>
        <time>2021-07-06T09:48:53+0200</time>
      </trkpt>
      <trkpt lat="45.67643" lon="2.99821">
        <ele>878.618488</ele>
        <time>2021-07-06T09:48:54+0200</time>
      </trkpt>
      <trkpt lat="45.67639" lon="2.99816">
        <ele>878.252002</ele>
        <time>2021-07-06T09:48:55+0200</time>
      </trkpt>
      <trkpt lat="45.67634" lon="2.99811">
        <ele>877.012688</ele>
        <time>2021-07-06T09:48:56+0200</time>
      </trkpt>
      <trkpt lat="45.67629" lon="2.99806">
        <ele>876.656419</ele>
        <time>2021-07-06T09:48:57+0200</time>
      </trkpt>
      <trkpt lat="45.67623" lon="2.99802">
        <ele>876.115308</ele>
        <time>2021-07-06T09:48:58+0200</time>
      </trkpt>
      <trkpt lat="45.67617" lon="2.99797">
        <ele>874.989593</ele>
        <time>2021-07-06T09:48:59+0200</time>
      </trkpt>
      <trkpt lat="45.6761" lon="2.99792">
        <ele>873.257691</ele>
        <time>2021-07-06T09:49:00+0200</time>
      </trkpt>
      <trkpt lat="45.67604" lon="2.99786">
        <ele>871.028104</ele>
        <time>2021-07-06T09:49:01+0200</time>
      </trkpt>
      <trkpt lat="45.67598" lon="2.99781">
        <ele>870.514365</ele>
        <time>2021-07-06T09:49:02+0200</time>
      </trkpt>
      <trkpt lat="45.67594" lon="2.99775">
        <ele>870.294008</ele>
        <time>2021-07-06T09:49:03+0200</time>
      </trkpt>
      <trkpt lat="45.67591" lon="2.99769">
        <ele>871.433315</ele>
        <time>2021-07-06T09:49:04+0200</time>
      </trkpt>
      <trkpt lat="45.67588" lon="2.99762">
        <ele>869.412613</ele>
        <time>2021-07-06T09:49:06+0200</time>
      </trkpt>
      <trkpt lat="45.67584" lon="2.99766">
        <ele>869.322063</ele>
        <time>2021-07-06T09:49:08+0200</time>
      </trkpt>
      <trkpt lat="45.67579" lon="2.99767">
        <ele>868.268152</ele>
        <time>2021-07-06T09:49:12+0200</time>
      </trkpt>
      <trkpt lat="45.67573" lon="2.99766">
        <ele>867.875087</ele>
        <time>2021-07-06T09:49:14+0200</time>
      </trkpt>
      <trkpt lat="45.67566" lon="2.99766">
        <ele>867.210352</ele>
        <time>2021-07-06T09:49:16+0200</time>
      </trkpt>
      <trkpt lat="45.67557" lon="2.99772">
        <ele>866.987155</ele>
        <time>2021-07-06T09:49:18+0200</time>
      </trkpt>
      <trkpt lat="45.67552" lon="2.99776">
        <ele>866.787696</ele>
        <time>2021-07-06T09:49:19+0200</time>
      </trkpt>
      <trkpt lat="45.67548" lon="2.9978">
        <ele>865.818986</ele>
        <time>2021-07-06T09:49:20+0200</time>
      </trkpt>
      <trkpt lat="45.6754" lon="2.99785">
        <ele>864.978971</ele>
        <time>2021-07-06T09:49:22+0200</time>
      </trkpt>
      <trkpt lat="45.67531" lon="2.99793">
        <ele>865.220545</ele>
        <time>2021-07-06T09:49:24+0200</time>
      </trkpt>
      <trkpt lat="45.67528" lon="2.99798">
        <ele>866.438825</ele>
        <time>2021-07-06T09:49:25+0200</time>
      </trkpt>
      <trkpt lat="45.67524" lon="2.99801">
        <ele>863.703682</ele>
        <time>2021-07-06T09:49:26+0200</time>
      </trkpt>
      <trkpt lat="45.6752" lon="2.99803">
        <ele>862.055589</ele>
        <time>2021-07-06T09:49:27+0200</time>
      </trkpt>
      <trkpt lat="45.67511" lon="2.9981">
        <ele>861.921037</ele>
        <time>2021-07-06T09:49:29+0200</time>
      </trkpt>
      <trkpt lat="45.67508" lon="2.99818">
        <ele>864.933866</ele>
        <time>2021-07-06T09:49:30+0200</time>
      </trkpt>
      <trkpt lat="45.675" lon="2.99822">
        <ele>862.443669</ele>
        <time>2021-07-06T09:49:31+0200</time>
      </trkpt>
      <trkpt lat="45.67495" lon="2.99827">
        <ele>862.168717</ele>
        <time>2021-07-06T09:49:32+0200</time>
      </trkpt>
      <trkpt lat="45.67492" lon="2.99832">
        <ele>860.79559</ele>
        <time>2021-07-06T09:49:33+0200</time>
      </trkpt>
      <trkpt lat="45.67487" lon="2.99834">
        <ele>859.744415</ele>
        <time>2021-07-06T09:49:34+0200</time>
      </trkpt>
      <trkpt lat="45.67481" lon="2.99838">
        <ele>856.987139</ele>
        <time>2021-07-06T09:49:35+0200</time>
      </trkpt>
      <trkpt lat="45.67477" lon="2.99843">
        <ele>857.082789</ele>
        <time>2021-07-06T09:49:36+0200</time>
      </trkpt>
      <trkpt lat="45.67468" lon="2.99847">
        <ele>857.819249</ele>
        <time>2021-07-06T09:49:38+0200</time>
      </trkpt>
      <trkpt lat="45.67459" lon="2.9985">
        <ele>855.761513</ele>
        <time>2021-07-06T09:49:40+0200</time>
      </trkpt>
      <trkpt lat="45.67452" lon="2.99849">
        <ele>855.191724</ele>
        <time>2021-07-06T09:49:41+0200</time>
      </trkpt>
      <trkpt lat="45.67446" lon="2.99848">
        <ele>854.078186</ele>
        <time>2021-07-06T09:49:42+0200</time>
      </trkpt>
      <trkpt lat="45.67441" lon="2.99842">
        <ele>852.403321</ele>
        <time>2021-07-06T09:49:44+0200</time>
      </trkpt>
      <trkpt lat="45.67438" lon="2.9983">
        <ele>847.22684</ele>
        <time>2021-07-06T09:49:46+0200</time>
      </trkpt>
      <trkpt lat="45.67435" lon="2.99824">
        <ele>843.012477</ele>
        <time>2021-07-06T09:49:47+0200</time>
      </trkpt>
      <trkpt lat="45.67434" lon="2.99813">
        <ele>837.724855</ele>
        <time>2021-07-06T09:49:50+0200</time>
      </trkpt>
      <trkpt lat="45.67434" lon="2.99806">
        <ele>834.441928</ele>
        <time>2021-07-06T09:49:51+0200</time>
      </trkpt>
      <trkpt lat="45.67434" lon="2.99799">
        <ele>832.484131</ele>
        <time>2021-07-06T09:49:52+0200</time>
      </trkpt>
      <trkpt lat="45.67434" lon="2.99792">
        <ele>831.143584</ele>
        <time>2021-07-06T09:49:53+0200</time>
      </trkpt>
      <trkpt lat="45.67432" lon="2.99785">
        <ele>830.256899</ele>
        <time>2021-07-06T09:49:54+0200</time>
      </trkpt>
      <trkpt lat="45.67432" lon="2.99779">
        <ele>830.201701</ele>
        <time>2021-07-06T09:49:55+0200</time>
      </trkpt>
      <trkpt lat="45.67428" lon="2.99771">
        <ele>828.012949</ele>
        <time>2021-07-06T09:49:56+0200</time>
      </trkpt>
      <trkpt lat="45.67422" lon="2.99764">
        <ele>826.840108</ele>
        <time>2021-07-06T09:49:57+0200</time>
      </trkpt>
      <trkpt lat="45.67416" lon="2.99761">
        <ele>826.700879</ele>
        <time>2021-07-06T09:49:58+0200</time>
      </trkpt>
      <trkpt lat="45.67412" lon="2.9976">
        <ele>827.979321</ele>
        <time>2021-07-06T09:49:59+0200</time>
      </trkpt>
      <trkpt lat="45.67405" lon="2.99756">
        <ele>831.911438</ele>
        <time>2021-07-06T09:50:01+0200</time>
      </trkpt>
      <trkpt lat="45.674" lon="2.99752">
        <ele>836.122609</ele>
        <time>2021-07-06T09:50:04+0200</time>
      </trkpt>
      <trkpt lat="45.67395" lon="2.99746">
        <ele>837.149819</ele>
        <time>2021-07-06T09:50:06+0200</time>
      </trkpt>
      <trkpt lat="45.67391" lon="2.99742">
        <ele>837.647425</ele>
        <time>2021-07-06T09:50:07+0200</time>
      </trkpt>
      <trkpt lat="45.67388" lon="2.99737">
        <ele>840.675845</ele>
        <time>2021-07-06T09:50:11+0200</time>
      </trkpt>
      <trkpt lat="45.67384" lon="2.9974">
        <ele>839.413676</ele>
        <time>2021-07-06T09:50:36+0200</time>
      </trkpt>
      <trkpt lat="45.67381" lon="2.99734">
        <ele>842.095341</ele>
        <time>2021-07-06T09:50:44+0200</time>
      </trkpt>
      <trkpt lat="45.67377" lon="2.99737">
        <ele>845.001681</ele>
        <time>2021-07-06T09:51:01+0200</time>
      </trkpt>
      <trkpt lat="45.67376" lon="2.99744">
        <ele>844.998062</ele>
        <time>2021-07-06T09:51:03+0200</time>
      </trkpt>
      <trkpt lat="45.67372" lon="2.9975">
        <ele>845.284524</ele>
        <time>2021-07-06T09:51:05+0200</time>
      </trkpt>
      <trkpt lat="45.67369" lon="2.99756">
        <ele>844.95868</ele>
        <time>2021-07-06T09:51:07+0200</time>
      </trkpt>
      <trkpt lat="45.67366" lon="2.99761">
        <ele>845.357398</ele>
        <time>2021-07-06T09:51:09+0200</time>
      </trkpt>
      <trkpt lat="45.67362" lon="2.99768">
        <ele>845.078786</ele>
        <time>2021-07-06T09:51:11+0200</time>
      </trkpt>
      <trkpt lat="45.67357" lon="2.99776">
        <ele>847.789499</ele>
        <time>2021-07-06T09:51:13+0200</time>
      </trkpt>
      <trkpt lat="45.6735" lon="2.99782">
        <ele>847.804128</ele>
        <time>2021-07-06T09:51:15+0200</time>
      </trkpt>
      <trkpt lat="45.67346" lon="2.99786">
        <ele>846.888791</ele>
        <time>2021-07-06T09:51:16+0200</time>
      </trkpt>
      <trkpt lat="45.67342" lon="2.99792">
        <ele>848.034489</ele>
        <time>2021-07-06T09:51:17+0200</time>
      </trkpt>
      <trkpt lat="45.67337" lon="2.99798">
        <ele>851.054441</ele>
        <time>2021-07-06T09:51:18+0200</time>
      </trkpt>
      <trkpt lat="45.67333" lon="2.99803">
        <ele>852.126716</ele>
        <time>2021-07-06T09:51:19+0200</time>
      </trkpt>
      <trkpt lat="45.67329" lon="2.99808">
        <ele>853.371219</ele>
        <time>2021-07-06T09:51:20+0200</time>
      </trkpt>
      <trkpt lat="45.67324" lon="2.99813">
        <ele>854.710624</ele>
        <time>2021-07-06T09:51:21+0200</time>
      </trkpt>
      <trkpt lat="45.6732" lon="2.99818">
        <ele>856.211037</ele>
        <time>2021-07-06T09:51:22+0200</time>
      </trkpt>
      <trkpt lat="45.67315" lon="2.99821">
        <ele>857.015131</ele>
        <time>2021-07-06T09:51:23+0200</time>
      </trkpt>
      <trkpt lat="45.67308" lon="2.99829">
        <ele>859.164064</ele>
        <time>2021-07-06T09:51:25+0200</time>
      </trkpt>
      <trkpt lat="45.67302" lon="2.99838">
        <ele>860.334794</ele>
        <time>2021-07-06T09:51:27+0200</time>
      </trkpt>
      <trkpt lat="45.67298" lon="2.99841">
        <ele>861.41514</ele>
        <time>2021-07-06T09:51:28+0200</time>
      </trkpt>
      <trkpt lat="45.67293" lon="2.99845">
        <ele>860.495265</ele>
        <time>2021-07-06T09:51:29+0200</time>
      </trkpt>
      <trkpt lat="45.67288" lon="2.99849">
        <ele>859.654156</ele>
        <time>2021-07-06T09:51:30+0200</time>
      </trkpt>
      <trkpt lat="45.67285" lon="2.99853">
        <ele>859.509191</ele>
        <time>2021-07-06T09:51:31+0200</time>
      </trkpt>
      <trkpt lat="45.67277" lon="2.99859">
        <ele>861.187247</ele>
        <time>2021-07-06T09:51:33+0200</time>
      </trkpt>
      <trkpt lat="45.67269" lon="2.99865">
        <ele>861.9264</ele>
        <time>2021-07-06T09:51:35+0200</time>
      </trkpt>
      <trkpt lat="45.67262" lon="2.99869">
        <ele>860.3493</ele>
        <time>2021-07-06T09:51:37+0200</time>
      </trkpt>
      <trkpt lat="45.67256" lon="2.99872">
        <ele>860.142157</ele>
        <time>2021-07-06T09:51:39+0200</time>
      </trkpt>
      <trkpt lat="45.67247" lon="2.99874">
        <ele>858.859476</ele>
        <time>2021-07-06T09:51:41+0200</time>
      </trkpt>
      <trkpt lat="45.67239" lon="2.99876">
        <ele>858.228026</ele>
        <time>2021-07-06T09:51:43+0200</time>
      </trkpt>
      <trkpt lat="45.67233" lon="2.99876">
        <ele>857.037645</ele>
        <time>2021-07-06T09:51:44+0200</time>
      </trkpt>
      <trkpt lat="45.67226" lon="2.99875">
        <ele>856.142616</ele>
        <time>2021-07-06T09:51:45+0200</time>
      </trkpt>
      <trkpt lat="45.67215" lon="2.99876">
        <ele>850.87103</ele>
        <time>2021-07-06T09:51:47+0200</time>
      </trkpt>
      <trkpt lat="45.67208" lon="2.99876">
        <ele>849.313759</ele>
        <time>2021-07-06T09:51:48+0200</time>
      </trkpt>
      <trkpt lat="45.67203" lon="2.99879">
        <ele>848.551568</ele>
        <time>2021-07-06T09:51:49+0200</time>
      </trkpt>
      <trkpt lat="45.67197" lon="2.99881">
        <ele>847.899797</ele>
        <time>2021-07-06T09:51:50+0200</time>
      </trkpt>
      <trkpt lat="45.67191" lon="2.99884">
        <ele>847.379077</ele>
        <time>2021-07-06T09:51:51+0200</time>
      </trkpt>
      <trkpt lat="45.67185" lon="2.99888">
        <ele>847.160521</ele>
        <time>2021-07-06T09:51:52+0200</time>
      </trkpt>
      <trkpt lat="45.6718" lon="2.99891">
        <ele>846.716248</ele>
        <time>2021-07-06T09:51:53+0200</time>
      </trkpt>
      <trkpt lat="45.67173" lon="2.99894">
        <ele>846.501076</ele>
        <time>2021-07-06T09:51:54+0200</time>
      </trkpt>
      <trkpt lat="45.67167" lon="2.99898">
        <ele>846.492919</ele>
        <time>2021-07-06T09:51:55+0200</time>
      </trkpt>
      <trkpt lat="45.67162" lon="2.99903">
        <ele>846.909249</ele>
        <time>2021-07-06T09:51:56+0200</time>
      </trkpt>
      <trkpt lat="45.67155" lon="2.99907">
        <ele>846.444168</ele>
        <time>2021-07-06T09:51:57+0200</time>
      </trkpt>
      <trkpt lat="45.67148" lon="2.9991">
        <ele>847.377243</ele>
        <time>2021-07-06T09:51:58+0200</time>
      </trkpt>
      <trkpt lat="45.67141" lon="2.99915">
        <ele>844.71112</ele>
        <time>2021-07-06T09:51:59+0200</time>
      </trkpt>
      <trkpt lat="45.67134" lon="2.9992">
        <ele>842.447677</ele>
        <time>2021-07-06T09:52:00+0200</time>
      </trkpt>
      <trkpt lat="45.67127" lon="2.99926">
        <ele>839.026961</ele>
        <time>2021-07-06T09:52:01+0200</time>
      </trkpt>
      <trkpt lat="45.6712" lon="2.99932">
        <ele>837.237091</ele>
        <time>2021-07-06T09:52:02+0200</time>
      </trkpt>
      <trkpt lat="45.67112" lon="2.99935">
        <ele>836.319716</ele>
        <time>2021-07-06T09:52:03+0200</time>
      </trkpt>
      <trkpt lat="45.67105" lon="2.99939">
        <ele>836.129984</ele>
        <time>2021-07-06T09:52:04+0200</time>
      </trkpt>
      <trkpt lat="45.67101" lon="2.99941">
        <ele>835.601325</ele>
        <time>2021-07-06T09:52:05+0200</time>
      </trkpt>
      <trkpt lat="45.67094" lon="2.99941">
        <ele>833.427957</ele>
        <time>2021-07-06T09:52:09+0200</time>
      </trkpt>
      <trkpt lat="45.6709" lon="2.99944">
        <ele>832.678452</ele>
        <time>2021-07-06T09:52:13+0200</time>
      </trkpt>
      <trkpt lat="45.67086" lon="2.99949">
        <ele>832.55322</ele>
        <time>2021-07-06T09:52:16+0200</time>
      </trkpt>
      <trkpt lat="45.67082" lon="2.99957">
        <ele>830.191956</ele>
        <time>2021-07-06T09:52:19+0200</time>
      </trkpt>
      <trkpt lat="45.67077" lon="2.99962">
        <ele>829.851981</ele>
        <time>2021-07-06T09:52:21+0200</time>
      </trkpt>
      <trkpt lat="45.67072" lon="2.99969">
        <ele>829.310319</ele>
        <time>2021-07-06T09:52:23+0200</time>
      </trkpt>
      <trkpt lat="45.67066" lon="2.99975">
        <ele>827.583253</ele>
        <time>2021-07-06T09:52:25+0200</time>
      </trkpt>
      <trkpt lat="45.6706" lon="2.99982">
        <ele>825.21801</ele>
        <time>2021-07-06T09:52:27+0200</time>
      </trkpt>
      <trkpt lat="45.67053" lon="2.99988">
        <ele>824.136316</ele>
        <time>2021-07-06T09:52:29+0200</time>
      </trkpt>
      <trkpt lat="45.67049" lon="2.99992">
        <ele>824.557425</ele>
        <time>2021-07-06T09:52:30+0200</time>
      </trkpt>
      <trkpt lat="45.67045" lon="2.99996">
        <ele>823.733627</ele>
        <time>2021-07-06T09:52:31+0200</time>
      </trkpt>
      <trkpt lat="45.67041" lon="3.00001">
        <ele>823.703152</ele>
        <time>2021-07-06T09:52:32+0200</time>
      </trkpt>
      <trkpt lat="45.67037" lon="3.00005">
        <ele>824.198937</ele>
        <time>2021-07-06T09:52:33+0200</time>
      </trkpt>
      <trkpt lat="45.67033" lon="3.00009">
        <ele>824.575085</ele>
        <time>2021-07-06T09:52:34+0200</time>
      </trkpt>
      <trkpt lat="45.67029" lon="3.00013">
        <ele>824.73818</ele>
        <time>2021-07-06T09:52:35+0200</time>
      </trkpt>
      <trkpt lat="45.67025" lon="3.00015">
        <ele>824.686519</ele>
        <time>2021-07-06T09:52:36+0200</time>
      </trkpt>
      <trkpt lat="45.67017" lon="3.0002">
        <ele>823.493857</ele>
        <time>2021-07-06T09:52:38+0200</time>
      </trkpt>
      <trkpt lat="45.67013" lon="3.00025">
        <ele>823.864978</ele>
        <time>2021-07-06T09:52:39+0200</time>
      </trkpt>
      <trkpt lat="45.67006" lon="3.00029">
        <ele>821.701482</ele>
        <time>2021-07-06T09:52:41+0200</time>
      </trkpt>
      <trkpt lat="45.67001" lon="3.00034">
        <ele>822.038957</ele>
        <time>2021-07-06T09:52:43+0200</time>
      </trkpt>
      <trkpt lat="45.66996" lon="3.00036">
        <ele>821.97827</ele>
        <time>2021-07-06T09:52:45+0200</time>
      </trkpt>
      <trkpt lat="45.66989" lon="3.00038">
        <ele>822.194181</ele>
        <time>2021-07-06T09:52:47+0200</time>
      </trkpt>
      <trkpt lat="45.66984" lon="3.00033">
        <ele>821.39598</ele>
        <time>2021-07-06T09:52:49+0200</time>
      </trkpt>
      <trkpt lat="45.66979" lon="3.00033">
        <ele>822.651078</ele>
        <time>2021-07-06T09:52:51+0200</time>
      </trkpt>
      <trkpt lat="45.66974" lon="3.00028">
        <ele>824.414068</ele>
        <time>2021-07-06T09:52:54+0200</time>
      </trkpt>
      <trkpt lat="45.66969" lon="3.00024">
        <ele>827.737159</ele>
        <time>2021-07-06T09:52:58+0200</time>
      </trkpt>
      <trkpt lat="45.66964" lon="3.00016">
        <ele>826.601176</ele>
        <time>2021-07-06T09:53:01+0200</time>
      </trkpt>
      <trkpt lat="45.6696" lon="3.0001">
        <ele>830.724007</ele>
        <time>2021-07-06T09:53:05+0200</time>
      </trkpt>
      <trkpt lat="45.66956" lon="3.00002">
        <ele>831.044042</ele>
        <time>2021-07-06T09:53:09+0200</time>
      </trkpt>
      <trkpt lat="45.66954" lon="2.99992">
        <ele>829.618643</ele>
        <time>2021-07-06T09:53:13+0200</time>
      </trkpt>
      <trkpt lat="45.66952" lon="2.99986">
        <ele>830.435946</ele>
        <time>2021-07-06T09:53:16+0200</time>
      </trkpt>
      <trkpt lat="45.6695" lon="2.99978">
        <ele>832.639488</ele>
        <time>2021-07-06T09:53:20+0200</time>
      </trkpt>
      <trkpt lat="45.66947" lon="2.99972">
        <ele>833.016079</ele>
        <time>2021-07-06T09:53:22+0200</time>
      </trkpt>
      <trkpt lat="45.66943" lon="2.99967">
        <ele>832.941592</ele>
        <time>2021-07-06T09:53:24+0200</time>
      </trkpt>
      <trkpt lat="45.66939" lon="2.9996">
        <ele>830.947772</ele>
        <time>2021-07-06T09:53:26+0200</time>
      </trkpt>
      <trkpt lat="45.66936" lon="2.99953">
        <ele>831.350089</ele>
        <time>2021-07-06T09:53:28+0200</time>
      </trkpt>
      <trkpt lat="45.66932" lon="2.99948">
        <ele>830.458054</ele>
        <time>2021-07-06T09:53:30+0200</time>
      </trkpt>
      <trkpt lat="45.66929" lon="2.99941">
        <ele>829.54494</ele>
        <time>2021-07-06T09:53:32+0200</time>
      </trkpt>
      <trkpt lat="45.66927" lon="2.99935">
        <ele>827.724159</ele>
        <time>2021-07-06T09:53:34+0200</time>
      </trkpt>
      <trkpt lat="45.66922" lon="2.99929">
        <ele>832.258285</ele>
        <time>2021-07-06T09:53:37+0200</time>
      </trkpt>
      <trkpt lat="45.66917" lon="2.99924">
        <ele>833.493989</ele>
        <time>2021-07-06T09:53:40+0200</time>
      </trkpt>
      <trkpt lat="45.66912" lon="2.99917">
        <ele>831.627858</ele>
        <time>2021-07-06T09:53:42+0200</time>
      </trkpt>
      <trkpt lat="45.66909" lon="2.9991">
        <ele>831.352374</ele>
        <time>2021-07-06T09:53:44+0200</time>
      </trkpt>
      <trkpt lat="45.66913" lon="2.99912">
        <ele>823.865768</ele>
        <time>2021-07-06T09:54:03+0200</time>
      </trkpt>
      <trkpt lat="45.66908" lon="2.99913">
        <ele>825.975096</ele>
        <time>2021-07-06T09:54:34+0200</time>
      </trkpt>
      <trkpt lat="45.66911" lon="2.99909">
        <ele>824.151089</ele>
        <time>2021-07-06T09:54:48+0200</time>
      </trkpt>
      <trkpt lat="45.66907" lon="2.99911">
        <ele>827.854184</ele>
        <time>2021-07-06T09:55:29+0200</time>
      </trkpt>
      <trkpt lat="45.66903" lon="2.99915">
        <ele>828.942174</ele>
        <time>2021-07-06T09:55:31+0200</time>
      </trkpt>
      <trkpt lat="45.66898" lon="2.99919">
        <ele>828.303803</ele>
        <time>2021-07-06T09:55:33+0200</time>
      </trkpt>
      <trkpt lat="45.66893" lon="2.99922">
        <ele>829.162956</ele>
        <time>2021-07-06T09:55:34+0200</time>
      </trkpt>
      <trkpt lat="45.66886" lon="2.99924">
        <ele>827.564533</ele>
        <time>2021-07-06T09:55:36+0200</time>
      </trkpt>
      <trkpt lat="45.66877" lon="2.99928">
        <ele>827.006476</ele>
        <time>2021-07-06T09:55:38+0200</time>
      </trkpt>
      <trkpt lat="45.66872" lon="2.9993">
        <ele>826.903447</ele>
        <time>2021-07-06T09:55:39+0200</time>
      </trkpt>
      <trkpt lat="45.66867" lon="2.99931">
        <ele>826.815833</ele>
        <time>2021-07-06T09:55:40+0200</time>
      </trkpt>
      <trkpt lat="45.66861" lon="2.99932">
        <ele>826.683752</ele>
        <time>2021-07-06T09:55:41+0200</time>
      </trkpt>
      <trkpt lat="45.66855" lon="2.99934">
        <ele>827.458483</ele>
        <time>2021-07-06T09:55:42+0200</time>
      </trkpt>
      <trkpt lat="45.6685" lon="2.99935">
        <ele>827.637566</ele>
        <time>2021-07-06T09:55:43+0200</time>
      </trkpt>
      <trkpt lat="45.66845" lon="2.99937">
        <ele>827.474026</ele>
        <time>2021-07-06T09:55:44+0200</time>
      </trkpt>
      <trkpt lat="45.66839" lon="2.9994">
        <ele>828.60966</ele>
        <time>2021-07-06T09:55:45+0200</time>
      </trkpt>
      <trkpt lat="45.66834" lon="2.99942">
        <ele>828.999869</ele>
        <time>2021-07-06T09:55:46+0200</time>
      </trkpt>
      <trkpt lat="45.66829" lon="2.99942">
        <ele>829.468039</ele>
        <time>2021-07-06T09:55:47+0200</time>
      </trkpt>
      <trkpt lat="45.66824" lon="2.99944">
        <ele>829.076009</ele>
        <time>2021-07-06T09:55:48+0200</time>
      </trkpt>
      <trkpt lat="45.66819" lon="2.99946">
        <ele>829.767622</ele>
        <time>2021-07-06T09:55:49+0200</time>
      </trkpt>
      <trkpt lat="45.66815" lon="2.99947">
        <ele>829.993953</ele>
        <time>2021-07-06T09:55:50+0200</time>
      </trkpt>
      <trkpt lat="45.66807" lon="2.9995">
        <ele>830.705723</ele>
        <time>2021-07-06T09:55:52+0200</time>
      </trkpt>
      <trkpt lat="45.668" lon="2.9995">
        <ele>830.958427</ele>
        <time>2021-07-06T09:55:54+0200</time>
      </trkpt>
      <trkpt lat="45.66795" lon="2.9995">
        <ele>833.043179</ele>
        <time>2021-07-06T09:55:56+0200</time>
      </trkpt>
      <trkpt lat="45.66787" lon="2.99948">
        <ele>831.901445</ele>
        <time>2021-07-06T09:55:58+0200</time>
      </trkpt>
      <trkpt lat="45.66779" lon="2.99944">
        <ele>830.171386</ele>
        <time>2021-07-06T09:56:00+0200</time>
      </trkpt>
      <trkpt lat="45.66773" lon="2.9994">
        <ele>830.069678</ele>
        <time>2021-07-06T09:56:02+0200</time>
      </trkpt>
      <trkpt lat="45.66767" lon="2.99936">
        <ele>829.770723</ele>
        <time>2021-07-06T09:56:04+0200</time>
      </trkpt>
      <trkpt lat="45.66763" lon="2.99931">
        <ele>829.957842</ele>
        <time>2021-07-06T09:56:06+0200</time>
      </trkpt>
      <trkpt lat="45.66759" lon="2.99926">
        <ele>830.796677</ele>
        <time>2021-07-06T09:56:08+0200</time>
      </trkpt>
      <trkpt lat="45.66755" lon="2.99918">
        <ele>828.887964</ele>
        <time>2021-07-06T09:56:10+0200</time>
      </trkpt>
      <trkpt lat="45.66749" lon="2.99914">
        <ele>827.942746</ele>
        <time>2021-07-06T09:56:12+0200</time>
      </trkpt>
      <trkpt lat="45.66742" lon="2.99909">
        <ele>828.343365</ele>
        <time>2021-07-06T09:56:14+0200</time>
      </trkpt>
      <trkpt lat="45.66737" lon="2.99907">
        <ele>828.12531</ele>
        <time>2021-07-06T09:56:15+0200</time>
      </trkpt>
      <trkpt lat="45.66729" lon="2.99903">
        <ele>827.54168</ele>
        <time>2021-07-06T09:56:17+0200</time>
      </trkpt>
      <trkpt lat="45.66723" lon="2.99902">
        <ele>827.837266</ele>
        <time>2021-07-06T09:56:19+0200</time>
      </trkpt>
      <trkpt lat="45.66716" lon="2.99898">
        <ele>828.241368</ele>
        <time>2021-07-06T09:56:21+0200</time>
      </trkpt>
      <trkpt lat="45.6671" lon="2.99894">
        <ele>827.971574</ele>
        <time>2021-07-06T09:56:23+0200</time>
      </trkpt>
      <trkpt lat="45.66706" lon="2.99889">
        <ele>828.264762</ele>
        <time>2021-07-06T09:56:25+0200</time>
      </trkpt>
      <trkpt lat="45.66703" lon="2.99882">
        <ele>829.040864</ele>
        <time>2021-07-06T09:56:27+0200</time>
      </trkpt>
      <trkpt lat="45.66701" lon="2.99875">
        <ele>832.088045</ele>
        <time>2021-07-06T09:56:29+0200</time>
      </trkpt>
      <trkpt lat="45.667" lon="2.99863">
        <ele>832.97599</ele>
        <time>2021-07-06T09:56:31+0200</time>
      </trkpt>
      <trkpt lat="45.66699" lon="2.99854">
        <ele>834.353706</ele>
        <time>2021-07-06T09:56:33+0200</time>
      </trkpt>
      <trkpt lat="45.66697" lon="2.99846">
        <ele>836.879034</ele>
        <time>2021-07-06T09:56:36+0200</time>
      </trkpt>
      <trkpt lat="45.66697" lon="2.99839">
        <ele>837.500618</ele>
        <time>2021-07-06T09:56:38+0200</time>
      </trkpt>
      <trkpt lat="45.66695" lon="2.99832">
        <ele>838.077702</ele>
        <time>2021-07-06T09:56:40+0200</time>
      </trkpt>
      <trkpt lat="45.66694" lon="2.99825">
        <ele>836.493709</ele>
        <time>2021-07-06T09:56:41+0200</time>
      </trkpt>
      <trkpt lat="45.66694" lon="2.99816">
        <ele>835.827634</ele>
        <time>2021-07-06T09:56:43+0200</time>
      </trkpt>
      <trkpt lat="45.66692" lon="2.99807">
        <ele>834.97117</ele>
        <time>2021-07-06T09:56:45+0200</time>
      </trkpt>
      <trkpt lat="45.6669" lon="2.99799">
        <ele>834.46168</ele>
        <time>2021-07-06T09:56:47+0200</time>
      </trkpt>
      <trkpt lat="45.66689" lon="2.99792">
        <ele>834.225374</ele>
        <time>2021-07-06T09:56:49+0200</time>
      </trkpt>
      <trkpt lat="45.6669" lon="2.99783">
        <ele>839.521523</ele>
        <time>2021-07-06T09:56:52+0200</time>
      </trkpt>
      <trkpt lat="45.66688" lon="2.99774">
        <ele>840.627977</ele>
        <time>2021-07-06T09:56:54+0200</time>
      </trkpt>
      <trkpt lat="45.66684" lon="2.99766">
        <ele>838.667318</ele>
        <time>2021-07-06T09:56:56+0200</time>
      </trkpt>
      <trkpt lat="45.6668" lon="2.9976">
        <ele>836.801153</ele>
        <time>2021-07-06T09:56:58+0200</time>
      </trkpt>
      <trkpt lat="45.66676" lon="2.99756">
        <ele>835.30086</ele>
        <time>2021-07-06T09:56:59+0200</time>
      </trkpt>
      <trkpt lat="45.66672" lon="2.99751">
        <ele>834.160056</ele>
        <time>2021-07-06T09:57:00+0200</time>
      </trkpt>
      <trkpt lat="45.66666" lon="2.99748">
        <ele>835.079446</ele>
        <time>2021-07-06T09:57:02+0200</time>
      </trkpt>
      <trkpt lat="45.66661" lon="2.99742">
        <ele>834.171962</ele>
        <time>2021-07-06T09:57:04+0200</time>
      </trkpt>
      <trkpt lat="45.66657" lon="2.99738">
        <ele>835.783779</ele>
        <time>2021-07-06T09:57:06+0200</time>
      </trkpt>
      <trkpt lat="45.66652" lon="2.99734">
        <ele>836.669158</ele>
        <time>2021-07-06T09:57:08+0200</time>
      </trkpt>
      <trkpt lat="45.66649" lon="2.99727">
        <ele>835.995496</ele>
        <time>2021-07-06T09:57:10+0200</time>
      </trkpt>
      <trkpt lat="45.66647" lon="2.9972">
        <ele>835.189228</ele>
        <time>2021-07-06T09:57:12+0200</time>
      </trkpt>
      <trkpt lat="45.6664" lon="2.9971">
        <ele>833.14727</ele>
        <time>2021-07-06T09:57:14+0200</time>
      </trkpt>
      <trkpt lat="45.66637" lon="2.99702">
        <ele>833.460978</ele>
        <time>2021-07-06T09:57:16+0200</time>
      </trkpt>
      <trkpt lat="45.66635" lon="2.99693">
        <ele>834.727489</ele>
        <time>2021-07-06T09:57:18+0200</time>
      </trkpt>
      <trkpt lat="45.66632" lon="2.99683">
        <ele>835.814402</ele>
        <time>2021-07-06T09:57:20+0200</time>
      </trkpt>
      <trkpt lat="45.66629" lon="2.99676">
        <ele>835.59858</ele>
        <time>2021-07-06T09:57:23+0200</time>
      </trkpt>
      <trkpt lat="45.66625" lon="2.99668">
        <ele>837.860243</ele>
        <time>2021-07-06T09:57:25+0200</time>
      </trkpt>
      <trkpt lat="45.66622" lon="2.99659">
        <ele>836.948289</ele>
        <time>2021-07-06T09:57:27+0200</time>
      </trkpt>
      <trkpt lat="45.6662" lon="2.99651">
        <ele>835.81256</ele>
        <time>2021-07-06T09:57:29+0200</time>
      </trkpt>
      <trkpt lat="45.66616" lon="2.99644">
        <ele>836.95284</ele>
        <time>2021-07-06T09:57:31+0200</time>
      </trkpt>
      <trkpt lat="45.66614" lon="2.99638">
        <ele>838.687814</ele>
        <time>2021-07-06T09:57:34+0200</time>
      </trkpt>
      <trkpt lat="45.66611" lon="2.9963">
        <ele>837.772309</ele>
        <time>2021-07-06T09:57:36+0200</time>
      </trkpt>
      <trkpt lat="45.6661" lon="2.99623">
        <ele>837.217759</ele>
        <time>2021-07-06T09:57:38+0200</time>
      </trkpt>
      <trkpt lat="45.66611" lon="2.99615">
        <ele>837.7801</ele>
        <time>2021-07-06T09:57:40+0200</time>
      </trkpt>
      <trkpt lat="45.6661" lon="2.99607">
        <ele>838.911166</ele>
        <time>2021-07-06T09:57:42+0200</time>
      </trkpt>
      <trkpt lat="45.6661" lon="2.99598">
        <ele>840.2852</ele>
        <time>2021-07-06T09:57:44+0200</time>
      </trkpt>
      <trkpt lat="45.66611" lon="2.99591">
        <ele>841.192311</ele>
        <time>2021-07-06T09:57:46+0200</time>
      </trkpt>
      <trkpt lat="45.66611" lon="2.99581">
        <ele>841.547738</ele>
        <time>2021-07-06T09:57:48+0200</time>
      </trkpt>
      <trkpt lat="45.66612" lon="2.99574">
        <ele>841.673446</ele>
        <time>2021-07-06T09:57:50+0200</time>
      </trkpt>
      <trkpt lat="45.6661" lon="2.99564">
        <ele>840.434357</ele>
        <time>2021-07-06T09:57:52+0200</time>
      </trkpt>
      <trkpt lat="45.6661" lon="2.99558">
        <ele>840.087219</ele>
        <time>2021-07-06T09:57:53+0200</time>
      </trkpt>
      <trkpt lat="45.66608" lon="2.99548">
        <ele>839.962259</ele>
        <time>2021-07-06T09:57:55+0200</time>
      </trkpt>
      <trkpt lat="45.66606" lon="2.99539">
        <ele>836.849056</ele>
        <time>2021-07-06T09:57:57+0200</time>
      </trkpt>
      <trkpt lat="45.66605" lon="2.99532">
        <ele>836.441465</ele>
        <time>2021-07-06T09:57:59+0200</time>
      </trkpt>
      <trkpt lat="45.66604" lon="2.99522">
        <ele>837.243895</ele>
        <time>2021-07-06T09:58:01+0200</time>
      </trkpt>
      <trkpt lat="45.66601" lon="2.99515">
        <ele>836.838365</ele>
        <time>2021-07-06T09:58:02+0200</time>
      </trkpt>
      <trkpt lat="45.66599" lon="2.99509">
        <ele>834.065401</ele>
        <time>2021-07-06T09:58:03+0200</time>
      </trkpt>
      <trkpt lat="45.66596" lon="2.99501">
        <ele>835.330335</ele>
        <time>2021-07-06T09:58:06+0200</time>
      </trkpt>
      <trkpt lat="45.66593" lon="2.99494">
        <ele>833.236458</ele>
        <time>2021-07-06T09:58:09+0200</time>
      </trkpt>
      <trkpt lat="45.66591" lon="2.99488">
        <ele>833.396991</ele>
        <time>2021-07-06T09:58:11+0200</time>
      </trkpt>
      <trkpt lat="45.66587" lon="2.99483">
        <ele>834.242485</ele>
        <time>2021-07-06T09:58:14+0200</time>
      </trkpt>
      <trkpt lat="45.66582" lon="2.9948">
        <ele>836.614592</ele>
        <time>2021-07-06T09:58:17+0200</time>
      </trkpt>
      <trkpt lat="45.66578" lon="2.99474">
        <ele>837.855127</ele>
        <time>2021-07-06T09:58:20+0200</time>
      </trkpt>
      <trkpt lat="45.66574" lon="2.99472">
        <ele>838.492683</ele>
        <time>2021-07-06T09:58:23+0200</time>
      </trkpt>
      <trkpt lat="45.66569" lon="2.99471">
        <ele>837.486874</ele>
        <time>2021-07-06T09:58:26+0200</time>
      </trkpt>
      <trkpt lat="45.66564" lon="2.99468">
        <ele>835.955353</ele>
        <time>2021-07-06T09:58:28+0200</time>
      </trkpt>
      <trkpt lat="45.66559" lon="2.99463">
        <ele>835.828719</ele>
        <time>2021-07-06T09:58:31+0200</time>
      </trkpt>
      <trkpt lat="45.66556" lon="2.99458">
        <ele>835.770458</ele>
        <time>2021-07-06T09:58:34+0200</time>
      </trkpt>
      <trkpt lat="45.66552" lon="2.99452">
        <ele>834.687724</ele>
        <time>2021-07-06T09:58:37+0200</time>
      </trkpt>
      <trkpt lat="45.66547" lon="2.99453">
        <ele>837.90973</ele>
        <time>2021-07-06T09:58:41+0200</time>
      </trkpt>
      <trkpt lat="45.66542" lon="2.99452">
        <ele>838.718217</ele>
        <time>2021-07-06T09:58:45+0200</time>
      </trkpt>
      <trkpt lat="45.66538" lon="2.99447">
        <ele>839.199767</ele>
        <time>2021-07-06T09:58:49+0200</time>
      </trkpt>
      <trkpt lat="45.66533" lon="2.99444">
        <ele>841.175578</ele>
        <time>2021-07-06T09:58:53+0200</time>
      </trkpt>
      <trkpt lat="45.66529" lon="2.9944">
        <ele>841.812418</ele>
        <time>2021-07-06T09:58:57+0200</time>
      </trkpt>
      <trkpt lat="45.66525" lon="2.99434">
        <ele>842.8125</ele>
        <time>2021-07-06T09:59:00+0200</time>
      </trkpt>
      <trkpt lat="45.6652" lon="2.99431">
        <ele>842.822201</ele>
        <time>2021-07-06T09:59:04+0200</time>
      </trkpt>
      <trkpt lat="45.66517" lon="2.99425">
        <ele>844.703391</ele>
        <time>2021-07-06T09:59:07+0200</time>
      </trkpt>
      <trkpt lat="45.66513" lon="2.99421">
        <ele>847.135176</ele>
        <time>2021-07-06T09:59:11+0200</time>
      </trkpt>
      <trkpt lat="45.66509" lon="2.99417">
        <ele>848.521504</ele>
        <time>2021-07-06T09:59:14+0200</time>
      </trkpt>
      <trkpt lat="45.66503" lon="2.99414">
        <ele>849.416808</ele>
        <time>2021-07-06T09:59:17+0200</time>
      </trkpt>
      <trkpt lat="45.66499" lon="2.9941">
        <ele>852.607813</ele>
        <time>2021-07-06T09:59:22+0200</time>
      </trkpt>
      <trkpt lat="45.66498" lon="2.99404">
        <ele>854.976576</ele>
        <time>2021-07-06T09:59:25+0200</time>
      </trkpt>
      <trkpt lat="45.66493" lon="2.99398">
        <ele>855.299087</ele>
        <time>2021-07-06T09:59:29+0200</time>
      </trkpt>
      <trkpt lat="45.66489" lon="2.99395">
        <ele>856.01482</ele>
        <time>2021-07-06T09:59:32+0200</time>
      </trkpt>
      <trkpt lat="45.66485" lon="2.99389">
        <ele>855.483611</ele>
        <time>2021-07-06T09:59:35+0200</time>
      </trkpt>
      <trkpt lat="45.66482" lon="2.99383">
        <ele>858.475732</ele>
        <time>2021-07-06T09:59:39+0200</time>
      </trkpt>
      <trkpt lat="45.6648" lon="2.99377">
        <ele>861.700974</ele>
        <time>2021-07-06T09:59:43+0200</time>
      </trkpt>
      <trkpt lat="45.66479" lon="2.9937">
        <ele>863.970393</ele>
        <time>2021-07-06T09:59:47+0200</time>
      </trkpt>
      <trkpt lat="45.66475" lon="2.99364">
        <ele>864.026215</ele>
        <time>2021-07-06T09:59:51+0200</time>
      </trkpt>
      <trkpt lat="45.66473" lon="2.99357">
        <ele>864.212317</ele>
        <time>2021-07-06T09:59:55+0200</time>
      </trkpt>
      <trkpt lat="45.66469" lon="2.99352">
        <ele>864.804206</ele>
        <time>2021-07-06T09:59:58+0200</time>
      </trkpt>
      <trkpt lat="45.66466" lon="2.99344">
        <ele>864.130277</ele>
        <time>2021-07-06T10:00:02+0200</time>
      </trkpt>
      <trkpt lat="45.66462" lon="2.99338">
        <ele>864.705684</ele>
        <time>2021-07-06T10:00:06+0200</time>
      </trkpt>
      <trkpt lat="45.66458" lon="2.99332">
        <ele>866.953283</ele>
        <time>2021-07-06T10:00:10+0200</time>
      </trkpt>
      <trkpt lat="45.66456" lon="2.99325">
        <ele>867.460578</ele>
        <time>2021-07-06T10:00:14+0200</time>
      </trkpt>
      <trkpt lat="45.66455" lon="2.99318">
        <ele>869.133167</ele>
        <time>2021-07-06T10:00:18+0200</time>
      </trkpt>
      <trkpt lat="45.66455" lon="2.99311">
        <ele>871.585708</ele>
        <time>2021-07-06T10:00:21+0200</time>
      </trkpt>
      <trkpt lat="45.66454" lon="2.99302">
        <ele>873.392037</ele>
        <time>2021-07-06T10:00:23+0200</time>
      </trkpt>
      <trkpt lat="45.66453" lon="2.99295">
        <ele>873.411759</ele>
        <time>2021-07-06T10:00:25+0200</time>
      </trkpt>
      <trkpt lat="45.6645" lon="2.99289">
        <ele>871.700346</ele>
        <time>2021-07-06T10:00:27+0200</time>
      </trkpt>
      <trkpt lat="45.66448" lon="2.99282">
        <ele>871.133035</ele>
        <time>2021-07-06T10:00:29+0200</time>
      </trkpt>
      <trkpt lat="45.66445" lon="2.99278">
        <ele>871.252651</ele>
        <time>2021-07-06T10:00:31+0200</time>
      </trkpt>
      <trkpt lat="45.66441" lon="2.99273">
        <ele>870.886854</ele>
        <time>2021-07-06T10:00:33+0200</time>
      </trkpt>
      <trkpt lat="45.66437" lon="2.99268">
        <ele>870.537614</ele>
        <time>2021-07-06T10:00:35+0200</time>
      </trkpt>
      <trkpt lat="45.66433" lon="2.99263">
        <ele>868.40511</ele>
        <time>2021-07-06T10:00:39+0200</time>
      </trkpt>
      <trkpt lat="45.66427" lon="2.99259">
        <ele>868.638374</ele>
        <time>2021-07-06T10:00:42+0200</time>
      </trkpt>
      <trkpt lat="45.66421" lon="2.99253">
        <ele>868.793965</ele>
        <time>2021-07-06T10:00:44+0200</time>
      </trkpt>
      <trkpt lat="45.66418" lon="2.99246">
        <ele>868.708512</ele>
        <time>2021-07-06T10:00:46+0200</time>
      </trkpt>
      <trkpt lat="45.66414" lon="2.99241">
        <ele>868.622274</ele>
        <time>2021-07-06T10:00:47+0200</time>
      </trkpt>
      <trkpt lat="45.6641" lon="2.99236">
        <ele>868.537509</ele>
        <time>2021-07-06T10:00:48+0200</time>
      </trkpt>
      <trkpt lat="45.66406" lon="2.99231">
        <ele>868.316616</ele>
        <time>2021-07-06T10:00:49+0200</time>
      </trkpt>
      <trkpt lat="45.66401" lon="2.99228">
        <ele>868.609405</ele>
        <time>2021-07-06T10:00:50+0200</time>
      </trkpt>
      <trkpt lat="45.66397" lon="2.99224">
        <ele>868.094862</ele>
        <time>2021-07-06T10:00:51+0200</time>
      </trkpt>
      <trkpt lat="45.66392" lon="2.99222">
        <ele>869.12123</ele>
        <time>2021-07-06T10:00:52+0200</time>
      </trkpt>
      <trkpt lat="45.66387" lon="2.99217">
        <ele>870.027565</ele>
        <time>2021-07-06T10:00:53+0200</time>
      </trkpt>
      <trkpt lat="45.66384" lon="2.99213">
        <ele>870.799291</ele>
        <time>2021-07-06T10:00:54+0200</time>
      </trkpt>
      <trkpt lat="45.66379" lon="2.99208">
        <ele>871.498249</ele>
        <time>2021-07-06T10:00:55+0200</time>
      </trkpt>
      <trkpt lat="45.66375" lon="2.99205">
        <ele>871.713118</ele>
        <time>2021-07-06T10:00:56+0200</time>
      </trkpt>
      <trkpt lat="45.66371" lon="2.99201">
        <ele>871.089355</ele>
        <time>2021-07-06T10:00:57+0200</time>
      </trkpt>
      <trkpt lat="45.66366" lon="2.99198">
        <ele>871.838899</ele>
        <time>2021-07-06T10:00:58+0200</time>
      </trkpt>
      <trkpt lat="45.66362" lon="2.99195">
        <ele>871.521804</ele>
        <time>2021-07-06T10:00:59+0200</time>
      </trkpt>
      <trkpt lat="45.66357" lon="2.99192">
        <ele>870.101186</ele>
        <time>2021-07-06T10:01:00+0200</time>
      </trkpt>
      <trkpt lat="45.66353" lon="2.99187">
        <ele>870.746351</ele>
        <time>2021-07-06T10:01:01+0200</time>
      </trkpt>
      <trkpt lat="45.66348" lon="2.99184">
        <ele>870.802245</ele>
        <time>2021-07-06T10:01:02+0200</time>
      </trkpt>
      <trkpt lat="45.66343" lon="2.99182">
        <ele>871.794614</ele>
        <time>2021-07-06T10:01:03+0200</time>
      </trkpt>
      <trkpt lat="45.66339" lon="2.9918">
        <ele>872.46617</ele>
        <time>2021-07-06T10:01:04+0200</time>
      </trkpt>
      <trkpt lat="45.66332" lon="2.99176">
        <ele>870.813753</ele>
        <time>2021-07-06T10:01:05+0200</time>
      </trkpt>
      <trkpt lat="45.66328" lon="2.99172">
        <ele>868.902414</ele>
        <time>2021-07-06T10:01:06+0200</time>
      </trkpt>
      <trkpt lat="45.66321" lon="2.99166">
        <ele>867.416927</ele>
        <time>2021-07-06T10:01:10+0200</time>
      </trkpt>
      <trkpt lat="45.66316" lon="2.99164">
        <ele>867.523101</ele>
        <time>2021-07-06T10:01:11+0200</time>
      </trkpt>
      <trkpt lat="45.66312" lon="2.99163">
        <ele>867.01198</ele>
        <time>2021-07-06T10:01:12+0200</time>
      </trkpt>
      <trkpt lat="45.66307" lon="2.99161">
        <ele>866.642691</ele>
        <time>2021-07-06T10:01:13+0200</time>
      </trkpt>
      <trkpt lat="45.66303" lon="2.99157">
        <ele>866.584285</ele>
        <time>2021-07-06T10:01:14+0200</time>
      </trkpt>
      <trkpt lat="45.66297" lon="2.99154">
        <ele>866.404181</ele>
        <time>2021-07-06T10:01:15+0200</time>
      </trkpt>
      <trkpt lat="45.66292" lon="2.99154">
        <ele>865.657356</ele>
        <time>2021-07-06T10:01:16+0200</time>
      </trkpt>
      <trkpt lat="45.66287" lon="2.99153">
        <ele>866.194275</ele>
        <time>2021-07-06T10:01:17+0200</time>
      </trkpt>
      <trkpt lat="45.66282" lon="2.99151">
        <ele>866.725013</ele>
        <time>2021-07-06T10:01:18+0200</time>
      </trkpt>
      <trkpt lat="45.66276" lon="2.99148">
        <ele>866.282714</ele>
        <time>2021-07-06T10:01:20+0200</time>
      </trkpt>
      <trkpt lat="45.6627" lon="2.99145">
        <ele>866.884103</ele>
        <time>2021-07-06T10:01:22+0200</time>
      </trkpt>
      <trkpt lat="45.66269" lon="2.99138">
        <ele>865.917667</ele>
        <time>2021-07-06T10:01:24+0200</time>
      </trkpt>
      <trkpt lat="45.66271" lon="2.99131">
        <ele>866.704213</ele>
        <time>2021-07-06T10:01:26+0200</time>
      </trkpt>
      <trkpt lat="45.66272" lon="2.99125">
        <ele>868.179353</ele>
        <time>2021-07-06T10:02:05+0200</time>
      </trkpt>
      <trkpt lat="45.66269" lon="2.99131">
        <ele>867.860356</ele>
        <time>2021-07-06T10:02:43+0200</time>
      </trkpt>
      <trkpt lat="45.66269" lon="2.99139">
        <ele>867.930177</ele>
        <time>2021-07-06T10:02:48+0200</time>
      </trkpt>
      <trkpt lat="45.66263" lon="2.9914">
        <ele>869.386008</ele>
        <time>2021-07-06T10:02:51+0200</time>
      </trkpt>
      <trkpt lat="45.66258" lon="2.99141">
        <ele>869.318453</ele>
        <time>2021-07-06T10:02:53+0200</time>
      </trkpt>
      <trkpt lat="45.66252" lon="2.99143">
        <ele>870.464522</ele>
        <time>2021-07-06T10:02:55+0200</time>
      </trkpt>
      <trkpt lat="45.66244" lon="2.99145">
        <ele>869.052853</ele>
        <time>2021-07-06T10:02:57+0200</time>
      </trkpt>
      <trkpt lat="45.6624" lon="2.9915">
        <ele>866.767662</ele>
        <time>2021-07-06T10:02:58+0200</time>
      </trkpt>
      <trkpt lat="45.66237" lon="2.99155">
        <ele>864.731953</ele>
        <time>2021-07-06T10:02:59+0200</time>
      </trkpt>
      <trkpt lat="45.66232" lon="2.99159">
        <ele>864.381669</ele>
        <time>2021-07-06T10:03:00+0200</time>
      </trkpt>
      <trkpt lat="45.66228" lon="2.99162">
        <ele>863.808549</ele>
        <time>2021-07-06T10:03:01+0200</time>
      </trkpt>
      <trkpt lat="45.66219" lon="2.99168">
        <ele>864.226385</ele>
        <time>2021-07-06T10:03:03+0200</time>
      </trkpt>
      <trkpt lat="45.66211" lon="2.99177">
        <ele>863.751783</ele>
        <time>2021-07-06T10:03:05+0200</time>
      </trkpt>
      <trkpt lat="45.66206" lon="2.99181">
        <ele>863.887125</ele>
        <time>2021-07-06T10:03:06+0200</time>
      </trkpt>
      <trkpt lat="45.66203" lon="2.99188">
        <ele>864.827103</ele>
        <time>2021-07-06T10:03:07+0200</time>
      </trkpt>
      <trkpt lat="45.662" lon="2.99195">
        <ele>863.750767</ele>
        <time>2021-07-06T10:03:09+0200</time>
      </trkpt>
      <trkpt lat="45.66195" lon="2.99202">
        <ele>863.416042</ele>
        <time>2021-07-06T10:03:11+0200</time>
      </trkpt>
      <trkpt lat="45.66191" lon="2.99207">
        <ele>862.796594</ele>
        <time>2021-07-06T10:03:12+0200</time>
      </trkpt>
      <trkpt lat="45.66187" lon="2.9921">
        <ele>862.905062</ele>
        <time>2021-07-06T10:03:13+0200</time>
      </trkpt>
      <trkpt lat="45.66183" lon="2.99215">
        <ele>863.189091</ele>
        <time>2021-07-06T10:03:14+0200</time>
      </trkpt>
      <trkpt lat="45.66179" lon="2.99219">
        <ele>861.770542</ele>
        <time>2021-07-06T10:03:15+0200</time>
      </trkpt>
      <trkpt lat="45.66174" lon="2.99224">
        <ele>860.645908</ele>
        <time>2021-07-06T10:03:16+0200</time>
      </trkpt>
      <trkpt lat="45.66169" lon="2.99228">
        <ele>860.737269</ele>
        <time>2021-07-06T10:03:17+0200</time>
      </trkpt>
      <trkpt lat="45.66165" lon="2.99232">
        <ele>860.875728</ele>
        <time>2021-07-06T10:03:18+0200</time>
      </trkpt>
      <trkpt lat="45.6616" lon="2.99235">
        <ele>859.861027</ele>
        <time>2021-07-06T10:03:19+0200</time>
      </trkpt>
      <trkpt lat="45.66155" lon="2.99239">
        <ele>859.929475</ele>
        <time>2021-07-06T10:03:20+0200</time>
      </trkpt>
      <trkpt lat="45.66149" lon="2.99245">
        <ele>858.474635</ele>
        <time>2021-07-06T10:03:22+0200</time>
      </trkpt>
      <trkpt lat="45.66142" lon="2.99247">
        <ele>854.829952</ele>
        <time>2021-07-06T10:03:25+0200</time>
      </trkpt>
      <trkpt lat="45.66136" lon="2.99247">
        <ele>855.744445</ele>
        <time>2021-07-06T10:03:27+0200</time>
      </trkpt>
      <trkpt lat="45.66131" lon="2.99249">
        <ele>855.122675</ele>
        <time>2021-07-06T10:03:29+0200</time>
      </trkpt>
      <trkpt lat="45.66125" lon="2.99249">
        <ele>854.368295</ele>
        <time>2021-07-06T10:03:31+0200</time>
      </trkpt>
      <trkpt lat="45.6612" lon="2.99248">
        <ele>852.602626</ele>
        <time>2021-07-06T10:03:33+0200</time>
      </trkpt>
      <trkpt lat="45.66114" lon="2.99248">
        <ele>850.705586</ele>
        <time>2021-07-06T10:03:35+0200</time>
      </trkpt>
      <trkpt lat="45.66108" lon="2.99249">
        <ele>851.066209</ele>
        <time>2021-07-06T10:03:37+0200</time>
      </trkpt>
      <trkpt lat="45.661" lon="2.9925">
        <ele>850.205263</ele>
        <time>2021-07-06T10:03:39+0200</time>
      </trkpt>
      <trkpt lat="45.66095" lon="2.9925">
        <ele>850.073883</ele>
        <time>2021-07-06T10:03:40+0200</time>
      </trkpt>
      <trkpt lat="45.6609" lon="2.99251">
        <ele>850.362998</ele>
        <time>2021-07-06T10:03:41+0200</time>
      </trkpt>
      <trkpt lat="45.66082" lon="2.99252">
        <ele>850.955918</ele>
        <time>2021-07-06T10:03:43+0200</time>
      </trkpt>
      <trkpt lat="45.66075" lon="2.99248">
        <ele>852.001981</ele>
        <time>2021-07-06T10:03:44+0200</time>
      </trkpt>
      <trkpt lat="45.66069" lon="2.99244">
        <ele>851.876484</ele>
        <time>2021-07-06T10:03:45+0200</time>
      </trkpt>
      <trkpt lat="45.66064" lon="2.9924">
        <ele>847.700148</ele>
        <time>2021-07-06T10:03:47+0200</time>
      </trkpt>
      <trkpt lat="45.66061" lon="2.99235">
        <ele>843.032015</ele>
        <time>2021-07-06T10:03:57+0200</time>
      </trkpt>
      <trkpt lat="45.66056" lon="2.99234">
        <ele>837.103488</ele>
        <time>2021-07-06T10:04:11+0200</time>
      </trkpt>
      <trkpt lat="45.6605" lon="2.99232">
        <ele>838.600572</ele>
        <time>2021-07-06T10:04:16+0200</time>
      </trkpt>
      <trkpt lat="45.66045" lon="2.99229">
        <ele>839.208057</ele>
        <time>2021-07-06T10:04:18+0200</time>
      </trkpt>
      <trkpt lat="45.6604" lon="2.99225">
        <ele>839.793576</ele>
        <time>2021-07-06T10:04:20+0200</time>
      </trkpt>
      <trkpt lat="45.66037" lon="2.99219">
        <ele>840.450644</ele>
        <time>2021-07-06T10:04:22+0200</time>
      </trkpt>
      <trkpt lat="45.66033" lon="2.99211">
        <ele>841.88596</ele>
        <time>2021-07-06T10:04:25+0200</time>
      </trkpt>
      <trkpt lat="45.66031" lon="2.99205">
        <ele>842.521085</ele>
        <time>2021-07-06T10:04:26+0200</time>
      </trkpt>
      <trkpt lat="45.66029" lon="2.99196">
        <ele>844.131438</ele>
        <time>2021-07-06T10:04:28+0200</time>
      </trkpt>
      <trkpt lat="45.66026" lon="2.99187">
        <ele>847.002741</ele>
        <time>2021-07-06T10:04:30+0200</time>
      </trkpt>
      <trkpt lat="45.66028" lon="2.99178">
        <ele>848.743787</ele>
        <time>2021-07-06T10:04:32+0200</time>
      </trkpt>
      <trkpt lat="45.66033" lon="2.99172">
        <ele>847.896065</ele>
        <time>2021-07-06T10:04:34+0200</time>
      </trkpt>
      <trkpt lat="45.66034" lon="2.99164">
        <ele>847.579902</ele>
        <time>2021-07-06T10:04:36+0200</time>
      </trkpt>
      <trkpt lat="45.66037" lon="2.99158">
        <ele>845.833992</ele>
        <time>2021-07-06T10:04:38+0200</time>
      </trkpt>
      <trkpt lat="45.66039" lon="2.99151">
        <ele>845.584167</ele>
        <time>2021-07-06T10:04:40+0200</time>
      </trkpt>
      <trkpt lat="45.66039" lon="2.99143">
        <ele>848.356851</ele>
        <time>2021-07-06T10:04:43+0200</time>
      </trkpt>
      <trkpt lat="45.66038" lon="2.99137">
        <ele>849.334714</ele>
        <time>2021-07-06T10:04:46+0200</time>
      </trkpt>
      <trkpt lat="45.66039" lon="2.99128">
        <ele>852.211436</ele>
        <time>2021-07-06T10:04:48+0200</time>
      </trkpt>
      <trkpt lat="45.66037" lon="2.99121">
        <ele>852.278537</ele>
        <time>2021-07-06T10:04:50+0200</time>
      </trkpt>
      <trkpt lat="45.66032" lon="2.99113">
        <ele>851.029995</ele>
        <time>2021-07-06T10:04:53+0200</time>
      </trkpt>
      <trkpt lat="45.66029" lon="2.99105">
        <ele>850.111686</ele>
        <time>2021-07-06T10:04:55+0200</time>
      </trkpt>
      <trkpt lat="45.66025" lon="2.99097">
        <ele>851.544575</ele>
        <time>2021-07-06T10:04:58+0200</time>
      </trkpt>
      <trkpt lat="45.66023" lon="2.99091">
        <ele>852.281773</ele>
        <time>2021-07-06T10:05:00+0200</time>
      </trkpt>
      <trkpt lat="45.66021" lon="2.99084">
        <ele>853.219225</ele>
        <time>2021-07-06T10:05:02+0200</time>
      </trkpt>
      <trkpt lat="45.66019" lon="2.99075">
        <ele>853.99791</ele>
        <time>2021-07-06T10:05:04+0200</time>
      </trkpt>
      <trkpt lat="45.66016" lon="2.99069">
        <ele>854.52609</ele>
        <time>2021-07-06T10:05:06+0200</time>
      </trkpt>
      <trkpt lat="45.66014" lon="2.99058">
        <ele>856.622348</ele>
        <time>2021-07-06T10:05:08+0200</time>
      </trkpt>
      <trkpt lat="45.66014" lon="2.99049">
        <ele>858.126123</ele>
        <time>2021-07-06T10:05:10+0200</time>
      </trkpt>
      <trkpt lat="45.66012" lon="2.99041">
        <ele>860.277511</ele>
        <time>2021-07-06T10:05:12+0200</time>
      </trkpt>
      <trkpt lat="45.66011" lon="2.99035">
        <ele>860.509943</ele>
        <time>2021-07-06T10:05:15+0200</time>
      </trkpt>
      <trkpt lat="45.66011" lon="2.99027">
        <ele>862.544257</ele>
        <time>2021-07-06T10:05:18+0200</time>
      </trkpt>
      <trkpt lat="45.66008" lon="2.99019">
        <ele>863.283225</ele>
        <time>2021-07-06T10:05:21+0200</time>
      </trkpt>
      <trkpt lat="45.66008" lon="2.99012">
        <ele>862.308799</ele>
        <time>2021-07-06T10:05:23+0200</time>
      </trkpt>
      <trkpt lat="45.66007" lon="2.99003">
        <ele>863.118345</ele>
        <time>2021-07-06T10:05:26+0200</time>
      </trkpt>
      <trkpt lat="45.66008" lon="2.98995">
        <ele>865.296318</ele>
        <time>2021-07-06T10:05:29+0200</time>
      </trkpt>
      <trkpt lat="45.66007" lon="2.98982">
        <ele>862.930154</ele>
        <time>2021-07-06T10:05:31+0200</time>
      </trkpt>
      <trkpt lat="45.66009" lon="2.98974">
        <ele>864.924641</ele>
        <time>2021-07-06T10:05:33+0200</time>
      </trkpt>
      <trkpt lat="45.66008" lon="2.98964">
        <ele>864.687573</ele>
        <time>2021-07-06T10:05:35+0200</time>
      </trkpt>
      <trkpt lat="45.66008" lon="2.98957">
        <ele>863.816983</ele>
        <time>2021-07-06T10:05:36+0200</time>
      </trkpt>
      <trkpt lat="45.66008" lon="2.98948">
        <ele>862.191009</ele>
        <time>2021-07-06T10:05:37+0200</time>
      </trkpt>
      <trkpt lat="45.6601" lon="2.9894">
        <ele>860.552738</ele>
        <time>2021-07-06T10:05:38+0200</time>
      </trkpt>
      <trkpt lat="45.6601" lon="2.98932">
        <ele>860.072443</ele>
        <time>2021-07-06T10:05:39+0200</time>
      </trkpt>
      <trkpt lat="45.66013" lon="2.98923">
        <ele>862.530223</ele>
        <time>2021-07-06T10:05:40+0200</time>
      </trkpt>
      <trkpt lat="45.66014" lon="2.98914">
        <ele>864.308405</ele>
        <time>2021-07-06T10:05:41+0200</time>
      </trkpt>
      <trkpt lat="45.66014" lon="2.98904">
        <ele>864.762365</ele>
        <time>2021-07-06T10:05:42+0200</time>
      </trkpt>
      <trkpt lat="45.66012" lon="2.98895">
        <ele>863.621748</ele>
        <time>2021-07-06T10:05:43+0200</time>
      </trkpt>
      <trkpt lat="45.6601" lon="2.98887">
        <ele>862.356912</ele>
        <time>2021-07-06T10:05:44+0200</time>
      </trkpt>
      <trkpt lat="45.66009" lon="2.9888">
        <ele>861.097854</ele>
        <time>2021-07-06T10:05:45+0200</time>
      </trkpt>
      <trkpt lat="45.66009" lon="2.98871">
        <ele>860.73714</ele>
        <time>2021-07-06T10:05:46+0200</time>
      </trkpt>
      <trkpt lat="45.66009" lon="2.98864">
        <ele>859.496493</ele>
        <time>2021-07-06T10:05:47+0200</time>
      </trkpt>
      <trkpt lat="45.66007" lon="2.98856">
        <ele>857.219357</ele>
        <time>2021-07-06T10:05:48+0200</time>
      </trkpt>
      <trkpt lat="45.66006" lon="2.98846">
        <ele>857.017524</ele>
        <time>2021-07-06T10:05:50+0200</time>
      </trkpt>
      <trkpt lat="45.66005" lon="2.98835">
        <ele>855.695108</ele>
        <time>2021-07-06T10:05:52+0200</time>
      </trkpt>
      <trkpt lat="45.66" lon="2.98825">
        <ele>853.368859</ele>
        <time>2021-07-06T10:05:54+0200</time>
      </trkpt>
      <trkpt lat="45.65997" lon="2.98816">
        <ele>852.657725</ele>
        <time>2021-07-06T10:05:56+0200</time>
      </trkpt>
      <trkpt lat="45.65994" lon="2.98809">
        <ele>852.417</ele>
        <time>2021-07-06T10:05:58+0200</time>
      </trkpt>
      <trkpt lat="45.65987" lon="2.98804">
        <ele>852.229111</ele>
        <time>2021-07-06T10:06:00+0200</time>
      </trkpt>
      <trkpt lat="45.65982" lon="2.98799">
        <ele>852.072624</ele>
        <time>2021-07-06T10:06:02+0200</time>
      </trkpt>
      <trkpt lat="45.65974" lon="2.98795">
        <ele>851.298997</ele>
        <time>2021-07-06T10:06:04+0200</time>
      </trkpt>
      <trkpt lat="45.65968" lon="2.9879">
        <ele>850.575259</ele>
        <time>2021-07-06T10:06:06+0200</time>
      </trkpt>
      <trkpt lat="45.65962" lon="2.98785">
        <ele>849.117968</ele>
        <time>2021-07-06T10:06:08+0200</time>
      </trkpt>
      <trkpt lat="45.65956" lon="2.98784">
        <ele>849.802591</ele>
        <time>2021-07-06T10:06:10+0200</time>
      </trkpt>
      <trkpt lat="45.65952" lon="2.9878">
        <ele>850.610537</ele>
        <time>2021-07-06T10:06:12+0200</time>
      </trkpt>
      <trkpt lat="45.65947" lon="2.98779">
        <ele>851.737417</ele>
        <time>2021-07-06T10:06:14+0200</time>
      </trkpt>
      <trkpt lat="45.65942" lon="2.98775">
        <ele>852.7241</ele>
        <time>2021-07-06T10:06:16+0200</time>
      </trkpt>
      <trkpt lat="45.65936" lon="2.98774">
        <ele>854.07277</ele>
        <time>2021-07-06T10:06:18+0200</time>
      </trkpt>
      <trkpt lat="45.6593" lon="2.98772">
        <ele>855.190882</ele>
        <time>2021-07-06T10:06:20+0200</time>
      </trkpt>
      <trkpt lat="45.65925" lon="2.9877">
        <ele>855.621414</ele>
        <time>2021-07-06T10:06:22+0200</time>
      </trkpt>
      <trkpt lat="45.65919" lon="2.98769">
        <ele>858.828019</ele>
        <time>2021-07-06T10:06:27+0200</time>
      </trkpt>
      <trkpt lat="45.6591" lon="2.98765">
        <ele>857.570927</ele>
        <time>2021-07-06T10:06:29+0200</time>
      </trkpt>
      <trkpt lat="45.65906" lon="2.98762">
        <ele>855.328589</ele>
        <time>2021-07-06T10:06:31+0200</time>
      </trkpt>
      <trkpt lat="45.65903" lon="2.98755">
        <ele>855.826455</ele>
        <time>2021-07-06T10:06:33+0200</time>
      </trkpt>
      <trkpt lat="45.65904" lon="2.98745">
        <ele>857.505863</ele>
        <time>2021-07-06T10:06:35+0200</time>
      </trkpt>
      <trkpt lat="45.65901" lon="2.98736">
        <ele>858.444967</ele>
        <time>2021-07-06T10:06:38+0200</time>
      </trkpt>
      <trkpt lat="45.65896" lon="2.98729">
        <ele>858.817427</ele>
        <time>2021-07-06T10:06:40+0200</time>
      </trkpt>
      <trkpt lat="45.65895" lon="2.98723">
        <ele>861.859331</ele>
        <time>2021-07-06T10:06:43+0200</time>
      </trkpt>
      <trkpt lat="45.65893" lon="2.98714">
        <ele>864.052205</ele>
        <time>2021-07-06T10:06:47+0200</time>
      </trkpt>
      <trkpt lat="45.65893" lon="2.98706">
        <ele>865.663931</ele>
        <time>2021-07-06T10:06:52+0200</time>
      </trkpt>
      <trkpt lat="45.65897" lon="2.98704">
        <ele>864.731442</ele>
        <time>2021-07-06T10:07:00+0200</time>
      </trkpt>
      <trkpt lat="45.65892" lon="2.987">
        <ele>861.581478</ele>
        <time>2021-07-06T10:07:12+0200</time>
      </trkpt>
      <trkpt lat="45.65888" lon="2.98696">
        <ele>863.362257</ele>
        <time>2021-07-06T10:07:15+0200</time>
      </trkpt>
      <trkpt lat="45.65885" lon="2.98691">
        <ele>864.879656</ele>
        <time>2021-07-06T10:07:18+0200</time>
      </trkpt>
      <trkpt lat="45.65881" lon="2.98685">
        <ele>868.767659</ele>
        <time>2021-07-06T10:07:22+0200</time>
      </trkpt>
      <trkpt lat="45.6588" lon="2.98678">
        <ele>867.533755</ele>
        <time>2021-07-06T10:07:25+0200</time>
      </trkpt>
      <trkpt lat="45.65878" lon="2.98671">
        <ele>867.305607</ele>
        <time>2021-07-06T10:07:28+0200</time>
      </trkpt>
      <trkpt lat="45.65876" lon="2.98663">
        <ele>868.049463</ele>
        <time>2021-07-06T10:07:31+0200</time>
      </trkpt>
      <trkpt lat="45.65875" lon="2.98657">
        <ele>869.686742</ele>
        <time>2021-07-06T10:07:34+0200</time>
      </trkpt>
      <trkpt lat="45.65874" lon="2.9865">
        <ele>871.154875</ele>
        <time>2021-07-06T10:07:38+0200</time>
      </trkpt>
      <trkpt lat="45.65871" lon="2.98643">
        <ele>871.857008</ele>
        <time>2021-07-06T10:07:42+0200</time>
      </trkpt>
      <trkpt lat="45.65871" lon="2.98636">
        <ele>873.167088</ele>
        <time>2021-07-06T10:07:46+0200</time>
      </trkpt>
      <trkpt lat="45.65872" lon="2.9863">
        <ele>875.748724</ele>
        <time>2021-07-06T10:07:50+0200</time>
      </trkpt>
      <trkpt lat="45.65873" lon="2.98622">
        <ele>874.5404</ele>
        <time>2021-07-06T10:07:53+0200</time>
      </trkpt>
      <trkpt lat="45.65873" lon="2.98615">
        <ele>872.694479</ele>
        <time>2021-07-06T10:07:55+0200</time>
      </trkpt>
      <trkpt lat="45.65876" lon="2.98609">
        <ele>873.728821</ele>
        <time>2021-07-06T10:08:00+0200</time>
      </trkpt>
      <trkpt lat="45.65878" lon="2.98602">
        <ele>872.463947</ele>
        <time>2021-07-06T10:08:04+0200</time>
      </trkpt>
      <trkpt lat="45.65878" lon="2.98595">
        <ele>872.759487</ele>
        <time>2021-07-06T10:08:08+0200</time>
      </trkpt>
      <trkpt lat="45.65878" lon="2.98586">
        <ele>873.692248</ele>
        <time>2021-07-06T10:08:12+0200</time>
      </trkpt>
      <trkpt lat="45.65877" lon="2.98577">
        <ele>873.71558</ele>
        <time>2021-07-06T10:08:16+0200</time>
      </trkpt>
      <trkpt lat="45.65878" lon="2.9857">
        <ele>873.837335</ele>
        <time>2021-07-06T10:08:19+0200</time>
      </trkpt>
      <trkpt lat="45.65877" lon="2.98563">
        <ele>874.018531</ele>
        <time>2021-07-06T10:08:22+0200</time>
      </trkpt>
      <trkpt lat="45.65878" lon="2.98557">
        <ele>874.724486</ele>
        <time>2021-07-06T10:08:24+0200</time>
      </trkpt>
      <trkpt lat="45.65879" lon="2.9855">
        <ele>874.404901</ele>
        <time>2021-07-06T10:08:26+0200</time>
      </trkpt>
      <trkpt lat="45.65878" lon="2.98542">
        <ele>875.398712</ele>
        <time>2021-07-06T10:08:29+0200</time>
      </trkpt>
      <trkpt lat="45.65878" lon="2.98535">
        <ele>876.299281</ele>
        <time>2021-07-06T10:08:31+0200</time>
      </trkpt>
      <trkpt lat="45.65879" lon="2.98527">
        <ele>877.214696</ele>
        <time>2021-07-06T10:08:33+0200</time>
      </trkpt>
      <trkpt lat="45.65879" lon="2.98519">
        <ele>876.505116</ele>
        <time>2021-07-06T10:08:35+0200</time>
      </trkpt>
      <trkpt lat="45.65878" lon="2.98512">
        <ele>877.059107</ele>
        <time>2021-07-06T10:08:37+0200</time>
      </trkpt>
      <trkpt lat="45.65879" lon="2.98504">
        <ele>876.507557</ele>
        <time>2021-07-06T10:08:39+0200</time>
      </trkpt>
      <trkpt lat="45.6588" lon="2.98496">
        <ele>874.970974</ele>
        <time>2021-07-06T10:08:41+0200</time>
      </trkpt>
      <trkpt lat="45.65883" lon="2.98489">
        <ele>875.257737</ele>
        <time>2021-07-06T10:08:44+0200</time>
      </trkpt>
      <trkpt lat="45.65885" lon="2.98482">
        <ele>875.048755</ele>
        <time>2021-07-06T10:08:46+0200</time>
      </trkpt>
      <trkpt lat="45.65888" lon="2.98474">
        <ele>873.335846</ele>
        <time>2021-07-06T10:08:49+0200</time>
      </trkpt>
      <trkpt lat="45.65892" lon="2.98468">
        <ele>873.857794</ele>
        <time>2021-07-06T10:08:51+0200</time>
      </trkpt>
      <trkpt lat="45.65897" lon="2.98462">
        <ele>874.692326</ele>
        <time>2021-07-06T10:08:53+0200</time>
      </trkpt>
      <trkpt lat="45.65904" lon="2.98458">
        <ele>876.616258</ele>
        <time>2021-07-06T10:08:55+0200</time>
      </trkpt>
      <trkpt lat="45.65909" lon="2.98455">
        <ele>878.334927</ele>
        <time>2021-07-06T10:08:57+0200</time>
      </trkpt>
      <trkpt lat="45.65913" lon="2.98451">
        <ele>878.997179</ele>
        <time>2021-07-06T10:08:59+0200</time>
      </trkpt>
      <trkpt lat="45.65917" lon="2.98446">
        <ele>880.297897</ele>
        <time>2021-07-06T10:09:01+0200</time>
      </trkpt>
      <trkpt lat="45.65921" lon="2.9844">
        <ele>878.559269</ele>
        <time>2021-07-06T10:09:03+0200</time>
      </trkpt>
      <trkpt lat="45.65925" lon="2.98433">
        <ele>875.745204</ele>
        <time>2021-07-06T10:09:05+0200</time>
      </trkpt>
      <trkpt lat="45.65928" lon="2.98426">
        <ele>873.976531</ele>
        <time>2021-07-06T10:09:07+0200</time>
      </trkpt>
      <trkpt lat="45.65931" lon="2.9842">
        <ele>872.203469</ele>
        <time>2021-07-06T10:09:09+0200</time>
      </trkpt>
      <trkpt lat="45.65933" lon="2.98414">
        <ele>872.505173</ele>
        <time>2021-07-06T10:09:11+0200</time>
      </trkpt>
      <trkpt lat="45.65936" lon="2.98408">
        <ele>872.918282</ele>
        <time>2021-07-06T10:09:13+0200</time>
      </trkpt>
      <trkpt lat="45.6594" lon="2.984">
        <ele>872.83372</ele>
        <time>2021-07-06T10:09:15+0200</time>
      </trkpt>
      <trkpt lat="45.65943" lon="2.98394">
        <ele>873.361539</ele>
        <time>2021-07-06T10:09:18+0200</time>
      </trkpt>
      <trkpt lat="45.65945" lon="2.98386">
        <ele>873.440306</ele>
        <time>2021-07-06T10:09:20+0200</time>
      </trkpt>
      <trkpt lat="45.65948" lon="2.98381">
        <ele>874.103127</ele>
        <time>2021-07-06T10:09:22+0200</time>
      </trkpt>
      <trkpt lat="45.65951" lon="2.98374">
        <ele>873.805401</ele>
        <time>2021-07-06T10:09:24+0200</time>
      </trkpt>
      <trkpt lat="45.65953" lon="2.98367">
        <ele>873.762969</ele>
        <time>2021-07-06T10:09:26+0200</time>
      </trkpt>
      <trkpt lat="45.65956" lon="2.98361">
        <ele>873.631744</ele>
        <time>2021-07-06T10:09:28+0200</time>
      </trkpt>
      <trkpt lat="45.65958" lon="2.98354">
        <ele>873.711473</ele>
        <time>2021-07-06T10:09:30+0200</time>
      </trkpt>
      <trkpt lat="45.65961" lon="2.98346">
        <ele>873.724209</ele>
        <time>2021-07-06T10:09:33+0200</time>
      </trkpt>
      <trkpt lat="45.65964" lon="2.9834">
        <ele>874.083491</ele>
        <time>2021-07-06T10:09:35+0200</time>
      </trkpt>
      <trkpt lat="45.65966" lon="2.98334">
        <ele>873.975015</ele>
        <time>2021-07-06T10:09:37+0200</time>
      </trkpt>
      <trkpt lat="45.65969" lon="2.98328">
        <ele>874.119308</ele>
        <time>2021-07-06T10:09:39+0200</time>
      </trkpt>
      <trkpt lat="45.65972" lon="2.9832">
        <ele>874.519332</ele>
        <time>2021-07-06T10:09:42+0200</time>
      </trkpt>
      <trkpt lat="45.65974" lon="2.98312">
        <ele>874.637353</ele>
        <time>2021-07-06T10:09:45+0200</time>
      </trkpt>
      <trkpt lat="45.65977" lon="2.98308">
        <ele>875.204194</ele>
        <time>2021-07-06T10:09:47+0200</time>
      </trkpt>
      <trkpt lat="45.65981" lon="2.98302">
        <ele>876.892868</ele>
        <time>2021-07-06T10:09:49+0200</time>
      </trkpt>
      <trkpt lat="45.65984" lon="2.98296">
        <ele>878.823462</ele>
        <time>2021-07-06T10:09:51+0200</time>
      </trkpt>
      <trkpt lat="45.65985" lon="2.9829">
        <ele>881.816349</ele>
        <time>2021-07-06T10:09:55+0200</time>
      </trkpt>
      <trkpt lat="45.65988" lon="2.98285">
        <ele>882.278083</ele>
        <time>2021-07-06T10:09:58+0200</time>
      </trkpt>
      <trkpt lat="45.65989" lon="2.98277">
        <ele>882.310755</ele>
        <time>2021-07-06T10:10:02+0200</time>
      </trkpt>
      <trkpt lat="45.65991" lon="2.98271">
        <ele>887.486302</ele>
        <time>2021-07-06T10:10:06+0200</time>
      </trkpt>
      <trkpt lat="45.65992" lon="2.98263">
        <ele>885.174186</ele>
        <time>2021-07-06T10:10:10+0200</time>
      </trkpt>
      <trkpt lat="45.65991" lon="2.98254">
        <ele>883.592744</ele>
        <time>2021-07-06T10:10:13+0200</time>
      </trkpt>
      <trkpt lat="45.65991" lon="2.98246">
        <ele>882.711169</ele>
        <time>2021-07-06T10:10:15+0200</time>
      </trkpt>
      <trkpt lat="45.65991" lon="2.98239">
        <ele>881.59937</ele>
        <time>2021-07-06T10:10:17+0200</time>
      </trkpt>
      <trkpt lat="45.65992" lon="2.98232">
        <ele>881.089243</ele>
        <time>2021-07-06T10:10:19+0200</time>
      </trkpt>
      <trkpt lat="45.65995" lon="2.98223">
        <ele>878.708051</ele>
        <time>2021-07-06T10:10:22+0200</time>
      </trkpt>
      <trkpt lat="45.65996" lon="2.98215">
        <ele>876.679205</ele>
        <time>2021-07-06T10:10:24+0200</time>
      </trkpt>
      <trkpt lat="45.65996" lon="2.98204">
        <ele>876.498961</ele>
        <time>2021-07-06T10:10:26+0200</time>
      </trkpt>
      <trkpt lat="45.65999" lon="2.98193">
        <ele>876.141225</ele>
        <time>2021-07-06T10:10:28+0200</time>
      </trkpt>
      <trkpt lat="45.66001" lon="2.98186">
        <ele>875.54934</ele>
        <time>2021-07-06T10:10:29+0200</time>
      </trkpt>
      <trkpt lat="45.66003" lon="2.98179">
        <ele>874.814878</ele>
        <time>2021-07-06T10:10:30+0200</time>
      </trkpt>
      <trkpt lat="45.66004" lon="2.98171">
        <ele>874.406164</ele>
        <time>2021-07-06T10:10:31+0200</time>
      </trkpt>
      <trkpt lat="45.66005" lon="2.98163">
        <ele>873.800401</ele>
        <time>2021-07-06T10:10:32+0200</time>
      </trkpt>
      <trkpt lat="45.66006" lon="2.98155">
        <ele>873.353321</ele>
        <time>2021-07-06T10:10:33+0200</time>
      </trkpt>
      <trkpt lat="45.66008" lon="2.98146">
        <ele>872.108974</ele>
        <time>2021-07-06T10:10:34+0200</time>
      </trkpt>
      <trkpt lat="45.66009" lon="2.98137">
        <ele>871.822809</ele>
        <time>2021-07-06T10:10:35+0200</time>
      </trkpt>
      <trkpt lat="45.6601" lon="2.98127">
        <ele>871.842558</ele>
        <time>2021-07-06T10:10:36+0200</time>
      </trkpt>
      <trkpt lat="45.66011" lon="2.98117">
        <ele>871.227305</ele>
        <time>2021-07-06T10:10:37+0200</time>
      </trkpt>
      <trkpt lat="45.66013" lon="2.98108">
        <ele>870.260358</ele>
        <time>2021-07-06T10:10:38+0200</time>
      </trkpt>
      <trkpt lat="45.66015" lon="2.98098">
        <ele>869.336816</ele>
        <time>2021-07-06T10:10:39+0200</time>
      </trkpt>
      <trkpt lat="45.66017" lon="2.98089">
        <ele>868.536613</ele>
        <time>2021-07-06T10:10:40+0200</time>
      </trkpt>
      <trkpt lat="45.66019" lon="2.9808">
        <ele>867.704863</ele>
        <time>2021-07-06T10:10:41+0200</time>
      </trkpt>
      <trkpt lat="45.66021" lon="2.9807">
        <ele>867.133031</ele>
        <time>2021-07-06T10:10:42+0200</time>
      </trkpt>
      <trkpt lat="45.66022" lon="2.9806">
        <ele>867.004845</ele>
        <time>2021-07-06T10:10:43+0200</time>
      </trkpt>
      <trkpt lat="45.66022" lon="2.98049">
        <ele>866.559485</ele>
        <time>2021-07-06T10:10:44+0200</time>
      </trkpt>
      <trkpt lat="45.66022" lon="2.98037">
        <ele>865.693117</ele>
        <time>2021-07-06T10:10:45+0200</time>
      </trkpt>
      <trkpt lat="45.66021" lon="2.98026">
        <ele>865.186418</ele>
        <time>2021-07-06T10:10:46+0200</time>
      </trkpt>
      <trkpt lat="45.66019" lon="2.98016">
        <ele>864.623365</ele>
        <time>2021-07-06T10:10:47+0200</time>
      </trkpt>
      <trkpt lat="45.66016" lon="2.98005">
        <ele>864.504934</ele>
        <time>2021-07-06T10:10:48+0200</time>
      </trkpt>
      <trkpt lat="45.66013" lon="2.97995">
        <ele>864.701782</ele>
        <time>2021-07-06T10:10:49+0200</time>
      </trkpt>
      <trkpt lat="45.6601" lon="2.97985">
        <ele>864.363833</ele>
        <time>2021-07-06T10:10:50+0200</time>
      </trkpt>
      <trkpt lat="45.66006" lon="2.97975">
        <ele>863.860239</ele>
        <time>2021-07-06T10:10:51+0200</time>
      </trkpt>
      <trkpt lat="45.66002" lon="2.97966">
        <ele>863.492347</ele>
        <time>2021-07-06T10:10:52+0200</time>
      </trkpt>
      <trkpt lat="45.65999" lon="2.97956">
        <ele>863.18118</ele>
        <time>2021-07-06T10:10:53+0200</time>
      </trkpt>
      <trkpt lat="45.65996" lon="2.97947">
        <ele>862.650918</ele>
        <time>2021-07-06T10:10:54+0200</time>
      </trkpt>
      <trkpt lat="45.65992" lon="2.97937">
        <ele>862.427512</ele>
        <time>2021-07-06T10:10:55+0200</time>
      </trkpt>
      <trkpt lat="45.65988" lon="2.97928">
        <ele>861.951819</ele>
        <time>2021-07-06T10:10:56+0200</time>
      </trkpt>
      <trkpt lat="45.65985" lon="2.97919">
        <ele>862.244646</ele>
        <time>2021-07-06T10:10:57+0200</time>
      </trkpt>
      <trkpt lat="45.65984" lon="2.97909">
        <ele>862.275475</ele>
        <time>2021-07-06T10:10:58+0200</time>
      </trkpt>
      <trkpt lat="45.65982" lon="2.979">
        <ele>862.478596</ele>
        <time>2021-07-06T10:10:59+0200</time>
      </trkpt>
      <trkpt lat="45.65983" lon="2.9789">
        <ele>862.565887</ele>
        <time>2021-07-06T10:11:00+0200</time>
      </trkpt>
      <trkpt lat="45.65983" lon="2.97882">
        <ele>862.744298</ele>
        <time>2021-07-06T10:11:01+0200</time>
      </trkpt>
      <trkpt lat="45.65982" lon="2.97872">
        <ele>862.335567</ele>
        <time>2021-07-06T10:11:02+0200</time>
      </trkpt>
      <trkpt lat="45.65981" lon="2.97863">
        <ele>862.341526</ele>
        <time>2021-07-06T10:11:03+0200</time>
      </trkpt>
      <trkpt lat="45.6598" lon="2.97855">
        <ele>861.977591</ele>
        <time>2021-07-06T10:11:04+0200</time>
      </trkpt>
      <trkpt lat="45.6598" lon="2.97845">
        <ele>861.430561</ele>
        <time>2021-07-06T10:11:05+0200</time>
      </trkpt>
      <trkpt lat="45.65979" lon="2.97837">
        <ele>861.398533</ele>
        <time>2021-07-06T10:11:06+0200</time>
      </trkpt>
      <trkpt lat="45.65979" lon="2.97828">
        <ele>860.533427</ele>
        <time>2021-07-06T10:11:07+0200</time>
      </trkpt>
      <trkpt lat="45.65978" lon="2.97818">
        <ele>859.442824</ele>
        <time>2021-07-06T10:11:08+0200</time>
      </trkpt>
      <trkpt lat="45.65977" lon="2.9781">
        <ele>859.337114</ele>
        <time>2021-07-06T10:11:09+0200</time>
      </trkpt>
      <trkpt lat="45.65975" lon="2.97802">
        <ele>859.215189</ele>
        <time>2021-07-06T10:11:10+0200</time>
      </trkpt>
      <trkpt lat="45.65974" lon="2.97794">
        <ele>859.260489</ele>
        <time>2021-07-06T10:11:11+0200</time>
      </trkpt>
      <trkpt lat="45.65973" lon="2.97786">
        <ele>859.316458</ele>
        <time>2021-07-06T10:11:12+0200</time>
      </trkpt>
      <trkpt lat="45.65971" lon="2.9778">
        <ele>859.182952</ele>
        <time>2021-07-06T10:11:13+0200</time>
      </trkpt>
      <trkpt lat="45.65969" lon="2.97774">
        <ele>858.939757</ele>
        <time>2021-07-06T10:11:14+0200</time>
      </trkpt>
      <trkpt lat="45.65968" lon="2.97767">
        <ele>859.455916</ele>
        <time>2021-07-06T10:11:15+0200</time>
      </trkpt>
      <trkpt lat="45.65966" lon="2.9776">
        <ele>859.428972</ele>
        <time>2021-07-06T10:11:16+0200</time>
      </trkpt>
      <trkpt lat="45.65965" lon="2.97753">
        <ele>859.278691</ele>
        <time>2021-07-06T10:11:17+0200</time>
      </trkpt>
      <trkpt lat="45.65964" lon="2.97746">
        <ele>859.040135</ele>
        <time>2021-07-06T10:11:18+0200</time>
      </trkpt>
      <trkpt lat="45.65962" lon="2.97739">
        <ele>859.281368</ele>
        <time>2021-07-06T10:11:19+0200</time>
      </trkpt>
      <trkpt lat="45.6596" lon="2.97732">
        <ele>859.607243</ele>
        <time>2021-07-06T10:11:20+0200</time>
      </trkpt>
      <trkpt lat="45.65959" lon="2.97726">
        <ele>859.596471</ele>
        <time>2021-07-06T10:11:21+0200</time>
      </trkpt>
      <trkpt lat="45.65958" lon="2.97719">
        <ele>859.843202</ele>
        <time>2021-07-06T10:11:22+0200</time>
      </trkpt>
      <trkpt lat="45.65957" lon="2.97712">
        <ele>860.24282</ele>
        <time>2021-07-06T10:11:23+0200</time>
      </trkpt>
      <trkpt lat="45.65956" lon="2.977">
        <ele>860.640172</ele>
        <time>2021-07-06T10:11:25+0200</time>
      </trkpt>
      <trkpt lat="45.65954" lon="2.97688">
        <ele>860.313687</ele>
        <time>2021-07-06T10:11:27+0200</time>
      </trkpt>
      <trkpt lat="45.65953" lon="2.97676">
        <ele>860.163638</ele>
        <time>2021-07-06T10:11:29+0200</time>
      </trkpt>
      <trkpt lat="45.65953" lon="2.97664">
        <ele>860.258703</ele>
        <time>2021-07-06T10:11:31+0200</time>
      </trkpt>
      <trkpt lat="45.65954" lon="2.97656">
        <ele>860.052354</ele>
        <time>2021-07-06T10:11:32+0200</time>
      </trkpt>
      <trkpt lat="45.65954" lon="2.9765">
        <ele>859.804461</ele>
        <time>2021-07-06T10:11:33+0200</time>
      </trkpt>
      <trkpt lat="45.65953" lon="2.97642">
        <ele>859.732705</ele>
        <time>2021-07-06T10:11:34+0200</time>
      </trkpt>
      <trkpt lat="45.65953" lon="2.97636">
        <ele>859.268807</ele>
        <time>2021-07-06T10:11:35+0200</time>
      </trkpt>
      <trkpt lat="45.65953" lon="2.97629">
        <ele>858.63704</ele>
        <time>2021-07-06T10:11:36+0200</time>
      </trkpt>
      <trkpt lat="45.65953" lon="2.9762">
        <ele>857.719241</ele>
        <time>2021-07-06T10:11:37+0200</time>
      </trkpt>
      <trkpt lat="45.65953" lon="2.97612">
        <ele>857.361351</ele>
        <time>2021-07-06T10:11:38+0200</time>
      </trkpt>
      <trkpt lat="45.65953" lon="2.97603">
        <ele>856.800794</ele>
        <time>2021-07-06T10:11:39+0200</time>
      </trkpt>
      <trkpt lat="45.65953" lon="2.97594">
        <ele>855.87102</ele>
        <time>2021-07-06T10:11:40+0200</time>
      </trkpt>
      <trkpt lat="45.65952" lon="2.97585">
        <ele>855.081866</ele>
        <time>2021-07-06T10:11:41+0200</time>
      </trkpt>
      <trkpt lat="45.65951" lon="2.97575">
        <ele>854.218778</ele>
        <time>2021-07-06T10:11:42+0200</time>
      </trkpt>
      <trkpt lat="45.6595" lon="2.97564">
        <ele>853.852525</ele>
        <time>2021-07-06T10:11:43+0200</time>
      </trkpt>
      <trkpt lat="45.6595" lon="2.97553">
        <ele>853.754054</ele>
        <time>2021-07-06T10:11:44+0200</time>
      </trkpt>
      <trkpt lat="45.6595" lon="2.97543">
        <ele>853.536688</ele>
        <time>2021-07-06T10:11:45+0200</time>
      </trkpt>
      <trkpt lat="45.65952" lon="2.97533">
        <ele>853.186641</ele>
        <time>2021-07-06T10:11:46+0200</time>
      </trkpt>
      <trkpt lat="45.65953" lon="2.97522">
        <ele>851.838699</ele>
        <time>2021-07-06T10:11:47+0200</time>
      </trkpt>
      <trkpt lat="45.65955" lon="2.97516">
        <ele>851.980095</ele>
        <time>2021-07-06T10:11:48+0200</time>
      </trkpt>
      <trkpt lat="45.65957" lon="2.9751">
        <ele>850.50057</ele>
        <time>2021-07-06T10:11:49+0200</time>
      </trkpt>
      <trkpt lat="45.65961" lon="2.97504">
        <ele>850.075214</ele>
        <time>2021-07-06T10:11:50+0200</time>
      </trkpt>
      <trkpt lat="45.65967" lon="2.97497">
        <ele>849.874316</ele>
        <time>2021-07-06T10:11:51+0200</time>
      </trkpt>
      <trkpt lat="45.65971" lon="2.97489">
        <ele>849.303523</ele>
        <time>2021-07-06T10:11:52+0200</time>
      </trkpt>
      <trkpt lat="45.65973" lon="2.9748">
        <ele>848.802573</ele>
        <time>2021-07-06T10:11:53+0200</time>
      </trkpt>
      <trkpt lat="45.65974" lon="2.97473">
        <ele>848.917479</ele>
        <time>2021-07-06T10:11:54+0200</time>
      </trkpt>
      <trkpt lat="45.65976" lon="2.97467">
        <ele>848.211333</ele>
        <time>2021-07-06T10:11:55+0200</time>
      </trkpt>
      <trkpt lat="45.65977" lon="2.97455">
        <ele>846.826072</ele>
        <time>2021-07-06T10:11:57+0200</time>
      </trkpt>
      <trkpt lat="45.65977" lon="2.97448">
        <ele>845.316597</ele>
        <time>2021-07-06T10:11:59+0200</time>
      </trkpt>
      <trkpt lat="45.65984" lon="2.97449">
        <ele>848.816831</ele>
        <time>2021-07-06T10:12:04+0200</time>
      </trkpt>
      <trkpt lat="45.6599" lon="2.97449">
        <ele>852.414558</ele>
        <time>2021-07-06T10:12:07+0200</time>
      </trkpt>
      <trkpt lat="45.65998" lon="2.97449">
        <ele>852.675616</ele>
        <time>2021-07-06T10:12:09+0200</time>
      </trkpt>
      <trkpt lat="45.66004" lon="2.97458">
        <ele>851.15722</ele>
        <time>2021-07-06T10:12:11+0200</time>
      </trkpt>
      <trkpt lat="45.66006" lon="2.97464">
        <ele>853.122342</ele>
        <time>2021-07-06T10:12:13+0200</time>
      </trkpt>
      <trkpt lat="45.66004" lon="2.97469">
        <ele>846.864672</ele>
        <time>2021-07-06T10:12:23+0200</time>
      </trkpt>
      <trkpt lat="45.66009" lon="2.97464">
        <ele>838.870741</ele>
        <time>2021-07-06T10:35:18+0200</time>
      </trkpt>
      <trkpt lat="45.66008" lon="2.97458">
        <ele>843.145741</ele>
        <time>2021-07-06T10:35:29+0200</time>
      </trkpt>
      <trkpt lat="45.66004" lon="2.97455">
        <ele>843.482846</ele>
        <time>2021-07-06T10:35:32+0200</time>
      </trkpt>
      <trkpt lat="45.65998" lon="2.97454">
        <ele>845.109814</ele>
        <time>2021-07-06T10:35:34+0200</time>
      </trkpt>
      <trkpt lat="45.65991" lon="2.97451">
        <ele>844.539263</ele>
        <time>2021-07-06T10:35:37+0200</time>
      </trkpt>
      <trkpt lat="45.65987" lon="2.97446">
        <ele>846.766369</ele>
        <time>2021-07-06T10:35:41+0200</time>
      </trkpt>
      <trkpt lat="45.65982" lon="2.97441">
        <ele>849.457636</ele>
        <time>2021-07-06T10:35:45+0200</time>
      </trkpt>
      <trkpt lat="45.6598" lon="2.97435">
        <ele>850.065866</ele>
        <time>2021-07-06T10:35:47+0200</time>
      </trkpt>
      <trkpt lat="45.65979" lon="2.97427">
        <ele>849.547726</ele>
        <time>2021-07-06T10:35:49+0200</time>
      </trkpt>
      <trkpt lat="45.65981" lon="2.97421">
        <ele>851.169613</ele>
        <time>2021-07-06T10:35:52+0200</time>
      </trkpt>
      <trkpt lat="45.65982" lon="2.97415">
        <ele>851.972252</ele>
        <time>2021-07-06T10:35:54+0200</time>
      </trkpt>
      <trkpt lat="45.65982" lon="2.97406">
        <ele>852.390149</ele>
        <time>2021-07-06T10:35:56+0200</time>
      </trkpt>
      <trkpt lat="45.65983" lon="2.97399">
        <ele>852.061401</ele>
        <time>2021-07-06T10:35:58+0200</time>
      </trkpt>
      <trkpt lat="45.65982" lon="2.9739">
        <ele>852.978412</ele>
        <time>2021-07-06T10:36:00+0200</time>
      </trkpt>
      <trkpt lat="45.65983" lon="2.97382">
        <ele>853.093719</ele>
        <time>2021-07-06T10:36:03+0200</time>
      </trkpt>
      <trkpt lat="45.65984" lon="2.97376">
        <ele>854.844737</ele>
        <time>2021-07-06T10:36:05+0200</time>
      </trkpt>
      <trkpt lat="45.65985" lon="2.97368">
        <ele>856.670893</ele>
        <time>2021-07-06T10:36:07+0200</time>
      </trkpt>
      <trkpt lat="45.65986" lon="2.97362">
        <ele>859.127079</ele>
        <time>2021-07-06T10:36:09+0200</time>
      </trkpt>
      <trkpt lat="45.65988" lon="2.97354">
        <ele>861.218553</ele>
        <time>2021-07-06T10:36:11+0200</time>
      </trkpt>
      <trkpt lat="45.65989" lon="2.97347">
        <ele>863.853825</ele>
        <time>2021-07-06T10:36:13+0200</time>
      </trkpt>
      <trkpt lat="45.65991" lon="2.9734">
        <ele>868.585921</ele>
        <time>2021-07-06T10:36:17+0200</time>
      </trkpt>
      <trkpt lat="45.65992" lon="2.97331">
        <ele>865.353246</ele>
        <time>2021-07-06T10:36:19+0200</time>
      </trkpt>
      <trkpt lat="45.65994" lon="2.97324">
        <ele>862.41021</ele>
        <time>2021-07-06T10:36:21+0200</time>
      </trkpt>
      <trkpt lat="45.65996" lon="2.97314">
        <ele>861.913781</ele>
        <time>2021-07-06T10:36:23+0200</time>
      </trkpt>
      <trkpt lat="45.65998" lon="2.97306">
        <ele>860.728739</ele>
        <time>2021-07-06T10:36:25+0200</time>
      </trkpt>
      <trkpt lat="45.65999" lon="2.97297">
        <ele>861.808303</ele>
        <time>2021-07-06T10:36:27+0200</time>
      </trkpt>
      <trkpt lat="45.66001" lon="2.97289">
        <ele>860.916932</ele>
        <time>2021-07-06T10:36:29+0200</time>
      </trkpt>
      <trkpt lat="45.66005" lon="2.97283">
        <ele>859.353894</ele>
        <time>2021-07-06T10:36:31+0200</time>
      </trkpt>
      <trkpt lat="45.66009" lon="2.97277">
        <ele>859.280237</ele>
        <time>2021-07-06T10:36:33+0200</time>
      </trkpt>
      <trkpt lat="45.66013" lon="2.97272">
        <ele>859.636893</ele>
        <time>2021-07-06T10:36:35+0200</time>
      </trkpt>
      <trkpt lat="45.66019" lon="2.97267">
        <ele>859.621802</ele>
        <time>2021-07-06T10:36:37+0200</time>
      </trkpt>
      <trkpt lat="45.66026" lon="2.97263">
        <ele>860.743126</ele>
        <time>2021-07-06T10:36:39+0200</time>
      </trkpt>
      <trkpt lat="45.66033" lon="2.9726">
        <ele>862.150791</ele>
        <time>2021-07-06T10:36:41+0200</time>
      </trkpt>
      <trkpt lat="45.66038" lon="2.97261">
        <ele>863.828059</ele>
        <time>2021-07-06T10:36:43+0200</time>
      </trkpt>
      <trkpt lat="45.66044" lon="2.9726">
        <ele>865.220499</ele>
        <time>2021-07-06T10:36:45+0200</time>
      </trkpt>
      <trkpt lat="45.66049" lon="2.9726">
        <ele>866.32889</ele>
        <time>2021-07-06T10:36:47+0200</time>
      </trkpt>
      <trkpt lat="45.66055" lon="2.9726">
        <ele>868.696085</ele>
        <time>2021-07-06T10:36:49+0200</time>
      </trkpt>
      <trkpt lat="45.6606" lon="2.97261">
        <ele>868.727563</ele>
        <time>2021-07-06T10:36:51+0200</time>
      </trkpt>
      <trkpt lat="45.66066" lon="2.9726">
        <ele>870.353307</ele>
        <time>2021-07-06T10:36:53+0200</time>
      </trkpt>
      <trkpt lat="45.66074" lon="2.97263">
        <ele>869.555231</ele>
        <time>2021-07-06T10:36:55+0200</time>
      </trkpt>
      <trkpt lat="45.6608" lon="2.97268">
        <ele>868.777007</ele>
        <time>2021-07-06T10:36:57+0200</time>
      </trkpt>
      <trkpt lat="45.66085" lon="2.97272">
        <ele>867.06206</ele>
        <time>2021-07-06T10:36:59+0200</time>
      </trkpt>
      <trkpt lat="45.6609" lon="2.97277">
        <ele>866.265765</ele>
        <time>2021-07-06T10:37:01+0200</time>
      </trkpt>
      <trkpt lat="45.66096" lon="2.97282">
        <ele>865.893424</ele>
        <time>2021-07-06T10:37:03+0200</time>
      </trkpt>
      <trkpt lat="45.66101" lon="2.97287">
        <ele>865.711433</ele>
        <time>2021-07-06T10:37:05+0200</time>
      </trkpt>
      <trkpt lat="45.66105" lon="2.97293">
        <ele>865.414943</ele>
        <time>2021-07-06T10:37:07+0200</time>
      </trkpt>
      <trkpt lat="45.6611" lon="2.97297">
        <ele>864.244246</ele>
        <time>2021-07-06T10:37:09+0200</time>
      </trkpt>
      <trkpt lat="45.66115" lon="2.97304">
        <ele>863.996253</ele>
        <time>2021-07-06T10:37:11+0200</time>
      </trkpt>
      <trkpt lat="45.66119" lon="2.9731">
        <ele>863.444803</ele>
        <time>2021-07-06T10:37:13+0200</time>
      </trkpt>
      <trkpt lat="45.66122" lon="2.97317">
        <ele>863.984531</ele>
        <time>2021-07-06T10:37:15+0200</time>
      </trkpt>
      <trkpt lat="45.66128" lon="2.97324">
        <ele>863.253609</ele>
        <time>2021-07-06T10:37:17+0200</time>
      </trkpt>
      <trkpt lat="45.66132" lon="2.97331">
        <ele>862.400026</ele>
        <time>2021-07-06T10:37:19+0200</time>
      </trkpt>
      <trkpt lat="45.66136" lon="2.97336">
        <ele>862.023012</ele>
        <time>2021-07-06T10:37:21+0200</time>
      </trkpt>
      <trkpt lat="45.66141" lon="2.9734">
        <ele>862.19031</ele>
        <time>2021-07-06T10:37:24+0200</time>
      </trkpt>
      <trkpt lat="45.66144" lon="2.97344">
        <ele>861.481154</ele>
        <time>2021-07-06T10:37:27+0200</time>
      </trkpt>
      <trkpt lat="45.66149" lon="2.97347">
        <ele>861.672234</ele>
        <time>2021-07-06T10:37:30+0200</time>
      </trkpt>
      <trkpt lat="45.66152" lon="2.97352">
        <ele>861.352953</ele>
        <time>2021-07-06T10:37:33+0200</time>
      </trkpt>
      <trkpt lat="45.66156" lon="2.9736">
        <ele>861.013354</ele>
        <time>2021-07-06T10:37:36+0200</time>
      </trkpt>
      <trkpt lat="45.66162" lon="2.97365">
        <ele>860.866986</ele>
        <time>2021-07-06T10:37:39+0200</time>
      </trkpt>
      <trkpt lat="45.66167" lon="2.97371">
        <ele>860.882019</ele>
        <time>2021-07-06T10:37:42+0200</time>
      </trkpt>
      <trkpt lat="45.66172" lon="2.97373">
        <ele>861.226423</ele>
        <time>2021-07-06T10:37:45+0200</time>
      </trkpt>
      <trkpt lat="45.66178" lon="2.97373">
        <ele>861.169699</ele>
        <time>2021-07-06T10:37:48+0200</time>
      </trkpt>
      <trkpt lat="45.66184" lon="2.97372">
        <ele>861.8518</ele>
        <time>2021-07-06T10:37:51+0200</time>
      </trkpt>
      <trkpt lat="45.66189" lon="2.97368">
        <ele>862.219298</ele>
        <time>2021-07-06T10:37:54+0200</time>
      </trkpt>
      <trkpt lat="45.66193" lon="2.97364">
        <ele>862.491915</ele>
        <time>2021-07-06T10:37:56+0200</time>
      </trkpt>
      <trkpt lat="45.66196" lon="2.97356">
        <ele>864.297431</ele>
        <time>2021-07-06T10:37:59+0200</time>
      </trkpt>
      <trkpt lat="45.662" lon="2.97349">
        <ele>866.185499</ele>
        <time>2021-07-06T10:38:02+0200</time>
      </trkpt>
      <trkpt lat="45.66201" lon="2.97342">
        <ele>869.158963</ele>
        <time>2021-07-06T10:38:05+0200</time>
      </trkpt>
      <trkpt lat="45.66202" lon="2.97332">
        <ele>868.678477</ele>
        <time>2021-07-06T10:38:08+0200</time>
      </trkpt>
      <trkpt lat="45.66202" lon="2.97324">
        <ele>868.081493</ele>
        <time>2021-07-06T10:38:11+0200</time>
      </trkpt>
      <trkpt lat="45.662" lon="2.97318">
        <ele>868.155342</ele>
        <time>2021-07-06T10:38:13+0200</time>
      </trkpt>
      <trkpt lat="45.66197" lon="2.9731">
        <ele>868.748863</ele>
        <time>2021-07-06T10:38:16+0200</time>
      </trkpt>
      <trkpt lat="45.66194" lon="2.97303">
        <ele>869.252716</ele>
        <time>2021-07-06T10:38:18+0200</time>
      </trkpt>
      <trkpt lat="45.66191" lon="2.97297">
        <ele>869.116619</ele>
        <time>2021-07-06T10:38:21+0200</time>
      </trkpt>
      <trkpt lat="45.66187" lon="2.97292">
        <ele>869.175509</ele>
        <time>2021-07-06T10:38:23+0200</time>
      </trkpt>
      <trkpt lat="45.66184" lon="2.97288">
        <ele>868.819388</ele>
        <time>2021-07-06T10:38:25+0200</time>
      </trkpt>
      <trkpt lat="45.66179" lon="2.97281">
        <ele>868.730814</ele>
        <time>2021-07-06T10:38:28+0200</time>
      </trkpt>
      <trkpt lat="45.66175" lon="2.97277">
        <ele>868.777119</ele>
        <time>2021-07-06T10:38:30+0200</time>
      </trkpt>
      <trkpt lat="45.66171" lon="2.97272">
        <ele>869.251344</ele>
        <time>2021-07-06T10:38:32+0200</time>
      </trkpt>
      <trkpt lat="45.66168" lon="2.97268">
        <ele>869.528174</ele>
        <time>2021-07-06T10:38:34+0200</time>
      </trkpt>
      <trkpt lat="45.66164" lon="2.97261">
        <ele>870.23577</ele>
        <time>2021-07-06T10:38:37+0200</time>
      </trkpt>
      <trkpt lat="45.66161" lon="2.97256">
        <ele>871.174083</ele>
        <time>2021-07-06T10:38:39+0200</time>
      </trkpt>
      <trkpt lat="45.66157" lon="2.97252">
        <ele>871.663795</ele>
        <time>2021-07-06T10:38:41+0200</time>
      </trkpt>
      <trkpt lat="45.66152" lon="2.97246">
        <ele>872.653781</ele>
        <time>2021-07-06T10:38:44+0200</time>
      </trkpt>
      <trkpt lat="45.66155" lon="2.97239">
        <ele>874.006221</ele>
        <time>2021-07-06T10:38:46+0200</time>
      </trkpt>
      <trkpt lat="45.66158" lon="2.97242">
        <ele>875.047686</ele>
        <time>2021-07-06T10:38:48+0200</time>
      </trkpt>
      <trkpt lat="45.66163" lon="2.97247">
        <ele>875.135774</ele>
        <time>2021-07-06T10:38:51+0200</time>
      </trkpt>
      <trkpt lat="45.66166" lon="2.97252">
        <ele>876.233625</ele>
        <time>2021-07-06T10:38:55+0200</time>
      </trkpt>
      <trkpt lat="45.6617" lon="2.97258">
        <ele>875.842628</ele>
        <time>2021-07-06T10:39:00+0200</time>
      </trkpt>
      <trkpt lat="45.66175" lon="2.9726">
        <ele>876.70871</ele>
        <time>2021-07-06T10:39:03+0200</time>
      </trkpt>
      <trkpt lat="45.66178" lon="2.97265">
        <ele>878.348729</ele>
        <time>2021-07-06T10:39:06+0200</time>
      </trkpt>
      <trkpt lat="45.66182" lon="2.97269">
        <ele>880.164145</ele>
        <time>2021-07-06T10:39:09+0200</time>
      </trkpt>
      <trkpt lat="45.66185" lon="2.97274">
        <ele>880.661002</ele>
        <time>2021-07-06T10:39:12+0200</time>
      </trkpt>
      <trkpt lat="45.6619" lon="2.97278">
        <ele>880.63264</ele>
        <time>2021-07-06T10:39:15+0200</time>
      </trkpt>
      <trkpt lat="45.66194" lon="2.97283">
        <ele>881.481221</ele>
        <time>2021-07-06T10:39:18+0200</time>
      </trkpt>
      <trkpt lat="45.66199" lon="2.97288">
        <ele>881.809916</ele>
        <time>2021-07-06T10:39:20+0200</time>
      </trkpt>
      <trkpt lat="45.66205" lon="2.97292">
        <ele>880.614932</ele>
        <time>2021-07-06T10:39:22+0200</time>
      </trkpt>
      <trkpt lat="45.66208" lon="2.97297">
        <ele>880.440314</ele>
        <time>2021-07-06T10:39:24+0200</time>
      </trkpt>
      <trkpt lat="45.66212" lon="2.97302">
        <ele>879.31143</ele>
        <time>2021-07-06T10:39:26+0200</time>
      </trkpt>
      <trkpt lat="45.66217" lon="2.97308">
        <ele>877.887778</ele>
        <time>2021-07-06T10:39:29+0200</time>
      </trkpt>
      <trkpt lat="45.6622" lon="2.97313">
        <ele>877.523932</ele>
        <time>2021-07-06T10:39:31+0200</time>
      </trkpt>
      <trkpt lat="45.66225" lon="2.97319">
        <ele>877.641643</ele>
        <time>2021-07-06T10:39:34+0200</time>
      </trkpt>
      <trkpt lat="45.66228" lon="2.97325">
        <ele>877.507543</ele>
        <time>2021-07-06T10:39:36+0200</time>
      </trkpt>
      <trkpt lat="45.66229" lon="2.97331">
        <ele>878.221076</ele>
        <time>2021-07-06T10:39:38+0200</time>
      </trkpt>
      <trkpt lat="45.66234" lon="2.97338">
        <ele>878.506195</ele>
        <time>2021-07-06T10:39:41+0200</time>
      </trkpt>
      <trkpt lat="45.66238" lon="2.97345">
        <ele>879.522563</ele>
        <time>2021-07-06T10:39:44+0200</time>
      </trkpt>
      <trkpt lat="45.6624" lon="2.97351">
        <ele>881.355344</ele>
        <time>2021-07-06T10:39:47+0200</time>
      </trkpt>
      <trkpt lat="45.66243" lon="2.97357">
        <ele>882.835229</ele>
        <time>2021-07-06T10:39:50+0200</time>
      </trkpt>
      <trkpt lat="45.66246" lon="2.97365">
        <ele>885.100681</ele>
        <time>2021-07-06T10:39:53+0200</time>
      </trkpt>
      <trkpt lat="45.66248" lon="2.97371">
        <ele>885.830733</ele>
        <time>2021-07-06T10:39:55+0200</time>
      </trkpt>
      <trkpt lat="45.66251" lon="2.9738">
        <ele>885.848726</ele>
        <time>2021-07-06T10:39:58+0200</time>
      </trkpt>
      <trkpt lat="45.66253" lon="2.97388">
        <ele>888.049414</ele>
        <time>2021-07-06T10:40:00+0200</time>
      </trkpt>
      <trkpt lat="45.66255" lon="2.97397">
        <ele>890.195851</ele>
        <time>2021-07-06T10:40:02+0200</time>
      </trkpt>
      <trkpt lat="45.66258" lon="2.97407">
        <ele>890.466737</ele>
        <time>2021-07-06T10:40:04+0200</time>
      </trkpt>
      <trkpt lat="45.6626" lon="2.97418">
        <ele>890.48714</ele>
        <time>2021-07-06T10:40:06+0200</time>
      </trkpt>
      <trkpt lat="45.66262" lon="2.97427">
        <ele>890.323666</ele>
        <time>2021-07-06T10:40:08+0200</time>
      </trkpt>
      <trkpt lat="45.66263" lon="2.97436">
        <ele>891.458298</ele>
        <time>2021-07-06T10:40:10+0200</time>
      </trkpt>
      <trkpt lat="45.66265" lon="2.97444">
        <ele>893.791781</ele>
        <time>2021-07-06T10:40:12+0200</time>
      </trkpt>
      <trkpt lat="45.66267" lon="2.97453">
        <ele>894.560984</ele>
        <time>2021-07-06T10:40:14+0200</time>
      </trkpt>
      <trkpt lat="45.6627" lon="2.97461">
        <ele>895.604031</ele>
        <time>2021-07-06T10:40:16+0200</time>
      </trkpt>
      <trkpt lat="45.66273" lon="2.97469">
        <ele>895.659075</ele>
        <time>2021-07-06T10:40:18+0200</time>
      </trkpt>
      <trkpt lat="45.66274" lon="2.97477">
        <ele>895.712719</ele>
        <time>2021-07-06T10:40:20+0200</time>
      </trkpt>
      <trkpt lat="45.66277" lon="2.97487">
        <ele>894.909409</ele>
        <time>2021-07-06T10:40:22+0200</time>
      </trkpt>
      <trkpt lat="45.66281" lon="2.97496">
        <ele>894.627702</ele>
        <time>2021-07-06T10:40:24+0200</time>
      </trkpt>
      <trkpt lat="45.66283" lon="2.97504">
        <ele>894.435559</ele>
        <time>2021-07-06T10:40:26+0200</time>
      </trkpt>
      <trkpt lat="45.66284" lon="2.97512">
        <ele>894.28481</ele>
        <time>2021-07-06T10:40:28+0200</time>
      </trkpt>
      <trkpt lat="45.66286" lon="2.97521">
        <ele>894.856678</ele>
        <time>2021-07-06T10:40:30+0200</time>
      </trkpt>
      <trkpt lat="45.66286" lon="2.97529">
        <ele>893.849673</ele>
        <time>2021-07-06T10:40:32+0200</time>
      </trkpt>
      <trkpt lat="45.66287" lon="2.97537">
        <ele>893.388749</ele>
        <time>2021-07-06T10:40:34+0200</time>
      </trkpt>
      <trkpt lat="45.66288" lon="2.97544">
        <ele>892.394012</ele>
        <time>2021-07-06T10:40:36+0200</time>
      </trkpt>
      <trkpt lat="45.6629" lon="2.97551">
        <ele>891.085636</ele>
        <time>2021-07-06T10:40:38+0200</time>
      </trkpt>
      <trkpt lat="45.66292" lon="2.97558">
        <ele>891.685755</ele>
        <time>2021-07-06T10:40:40+0200</time>
      </trkpt>
      <trkpt lat="45.66294" lon="2.97567">
        <ele>890.818581</ele>
        <time>2021-07-06T10:40:43+0200</time>
      </trkpt>
      <trkpt lat="45.66296" lon="2.97577">
        <ele>890.568453</ele>
        <time>2021-07-06T10:40:46+0200</time>
      </trkpt>
      <trkpt lat="45.66298" lon="2.97585">
        <ele>890.539999</ele>
        <time>2021-07-06T10:40:49+0200</time>
      </trkpt>
      <trkpt lat="45.663" lon="2.97594">
        <ele>891.202917</ele>
        <time>2021-07-06T10:40:52+0200</time>
      </trkpt>
      <trkpt lat="45.66304" lon="2.97599">
        <ele>891.338614</ele>
        <time>2021-07-06T10:40:54+0200</time>
      </trkpt>
      <trkpt lat="45.66308" lon="2.97605">
        <ele>890.78063</ele>
        <time>2021-07-06T10:40:56+0200</time>
      </trkpt>
      <trkpt lat="45.66312" lon="2.97612">
        <ele>890.983291</ele>
        <time>2021-07-06T10:40:58+0200</time>
      </trkpt>
      <trkpt lat="45.66315" lon="2.97619">
        <ele>893.149983</ele>
        <time>2021-07-06T10:41:01+0200</time>
      </trkpt>
      <trkpt lat="45.66318" lon="2.97629">
        <ele>893.231686</ele>
        <time>2021-07-06T10:41:04+0200</time>
      </trkpt>
      <trkpt lat="45.66318" lon="2.97636">
        <ele>894.632612</ele>
        <time>2021-07-06T10:41:07+0200</time>
      </trkpt>
      <trkpt lat="45.66322" lon="2.97642">
        <ele>895.800626</ele>
        <time>2021-07-06T10:41:10+0200</time>
      </trkpt>
      <trkpt lat="45.66327" lon="2.97645">
        <ele>896.02868</ele>
        <time>2021-07-06T10:41:12+0200</time>
      </trkpt>
      <trkpt lat="45.66331" lon="2.97649">
        <ele>897.144696</ele>
        <time>2021-07-06T10:41:14+0200</time>
      </trkpt>
      <trkpt lat="45.66336" lon="2.9765">
        <ele>897.588025</ele>
        <time>2021-07-06T10:41:16+0200</time>
      </trkpt>
      <trkpt lat="45.66341" lon="2.97653">
        <ele>898.205541</ele>
        <time>2021-07-06T10:41:18+0200</time>
      </trkpt>
      <trkpt lat="45.66347" lon="2.97652">
        <ele>899.369614</ele>
        <time>2021-07-06T10:41:21+0200</time>
      </trkpt>
      <trkpt lat="45.66353" lon="2.9765">
        <ele>900.688505</ele>
        <time>2021-07-06T10:41:24+0200</time>
      </trkpt>
      <trkpt lat="45.66358" lon="2.97651">
        <ele>901.813541</ele>
        <time>2021-07-06T10:41:26+0200</time>
      </trkpt>
      <trkpt lat="45.66363" lon="2.97652">
        <ele>903.326532</ele>
        <time>2021-07-06T10:41:28+0200</time>
      </trkpt>
      <trkpt lat="45.66368" lon="2.97652">
        <ele>904.325341</ele>
        <time>2021-07-06T10:41:30+0200</time>
      </trkpt>
      <trkpt lat="45.66373" lon="2.97653">
        <ele>904.768157</ele>
        <time>2021-07-06T10:41:33+0200</time>
      </trkpt>
      <trkpt lat="45.66378" lon="2.97652">
        <ele>904.190565</ele>
        <time>2021-07-06T10:41:35+0200</time>
      </trkpt>
      <trkpt lat="45.66383" lon="2.97649">
        <ele>903.747385</ele>
        <time>2021-07-06T10:41:37+0200</time>
      </trkpt>
      <trkpt lat="45.66389" lon="2.97648">
        <ele>903.684792</ele>
        <time>2021-07-06T10:41:39+0200</time>
      </trkpt>
      <trkpt lat="45.66392" lon="2.97643">
        <ele>904.281171</ele>
        <time>2021-07-06T10:41:41+0200</time>
      </trkpt>
      <trkpt lat="45.66396" lon="2.97639">
        <ele>903.078016</ele>
        <time>2021-07-06T10:41:43+0200</time>
      </trkpt>
      <trkpt lat="45.66401" lon="2.97635">
        <ele>901.669649</ele>
        <time>2021-07-06T10:41:45+0200</time>
      </trkpt>
      <trkpt lat="45.66405" lon="2.97631">
        <ele>901.706421</ele>
        <time>2021-07-06T10:41:47+0200</time>
      </trkpt>
      <trkpt lat="45.6641" lon="2.97626">
        <ele>902.298822</ele>
        <time>2021-07-06T10:41:49+0200</time>
      </trkpt>
      <trkpt lat="45.66415" lon="2.97624">
        <ele>902.468181</ele>
        <time>2021-07-06T10:41:51+0200</time>
      </trkpt>
      <trkpt lat="45.6642" lon="2.97618">
        <ele>902.550686</ele>
        <time>2021-07-06T10:41:53+0200</time>
      </trkpt>
      <trkpt lat="45.66425" lon="2.97614">
        <ele>902.716747</ele>
        <time>2021-07-06T10:41:55+0200</time>
      </trkpt>
      <trkpt lat="45.6643" lon="2.97609">
        <ele>903.038304</ele>
        <time>2021-07-06T10:41:57+0200</time>
      </trkpt>
      <trkpt lat="45.66434" lon="2.97605">
        <ele>903.332274</ele>
        <time>2021-07-06T10:41:59+0200</time>
      </trkpt>
      <trkpt lat="45.66438" lon="2.97601">
        <ele>904.01129</ele>
        <time>2021-07-06T10:42:01+0200</time>
      </trkpt>
      <trkpt lat="45.66443" lon="2.97597">
        <ele>904.2652</ele>
        <time>2021-07-06T10:42:03+0200</time>
      </trkpt>
      <trkpt lat="45.66447" lon="2.97593">
        <ele>903.828787</ele>
        <time>2021-07-06T10:42:05+0200</time>
      </trkpt>
      <trkpt lat="45.66451" lon="2.97589">
        <ele>903.609315</ele>
        <time>2021-07-06T10:42:07+0200</time>
      </trkpt>
      <trkpt lat="45.66457" lon="2.97586">
        <ele>905.012113</ele>
        <time>2021-07-06T10:42:10+0200</time>
      </trkpt>
      <trkpt lat="45.66462" lon="2.97583">
        <ele>905.820477</ele>
        <time>2021-07-06T10:42:12+0200</time>
      </trkpt>
      <trkpt lat="45.66467" lon="2.97581">
        <ele>905.56504</ele>
        <time>2021-07-06T10:42:14+0200</time>
      </trkpt>
      <trkpt lat="45.66472" lon="2.97576">
        <ele>906.274623</ele>
        <time>2021-07-06T10:42:16+0200</time>
      </trkpt>
      <trkpt lat="45.66476" lon="2.97574">
        <ele>906.842421</ele>
        <time>2021-07-06T10:42:18+0200</time>
      </trkpt>
      <trkpt lat="45.66481" lon="2.9757">
        <ele>907.104212</ele>
        <time>2021-07-06T10:42:20+0200</time>
      </trkpt>
      <trkpt lat="45.66486" lon="2.97567">
        <ele>906.470484</ele>
        <time>2021-07-06T10:42:22+0200</time>
      </trkpt>
      <trkpt lat="45.66488" lon="2.97559">
        <ele>905.447005</ele>
        <time>2021-07-06T10:42:24+0200</time>
      </trkpt>
      <trkpt lat="45.6649" lon="2.97551">
        <ele>904.022351</ele>
        <time>2021-07-06T10:42:26+0200</time>
      </trkpt>
      <trkpt lat="45.6649" lon="2.97543">
        <ele>903.397432</ele>
        <time>2021-07-06T10:42:28+0200</time>
      </trkpt>
      <trkpt lat="45.66488" lon="2.97535">
        <ele>903.450909</ele>
        <time>2021-07-06T10:42:30+0200</time>
      </trkpt>
      <trkpt lat="45.66486" lon="2.97526">
        <ele>903.519215</ele>
        <time>2021-07-06T10:42:32+0200</time>
      </trkpt>
      <trkpt lat="45.66483" lon="2.97519">
        <ele>904.30629</ele>
        <time>2021-07-06T10:42:34+0200</time>
      </trkpt>
      <trkpt lat="45.66481" lon="2.97511">
        <ele>904.445237</ele>
        <time>2021-07-06T10:42:36+0200</time>
      </trkpt>
      <trkpt lat="45.66478" lon="2.97503">
        <ele>904.117485</ele>
        <time>2021-07-06T10:42:38+0200</time>
      </trkpt>
      <trkpt lat="45.66475" lon="2.97495">
        <ele>904.517529</ele>
        <time>2021-07-06T10:42:40+0200</time>
      </trkpt>
      <trkpt lat="45.66473" lon="2.97487">
        <ele>904.482348</ele>
        <time>2021-07-06T10:42:42+0200</time>
      </trkpt>
      <trkpt lat="45.6647" lon="2.9748">
        <ele>904.525481</ele>
        <time>2021-07-06T10:42:44+0200</time>
      </trkpt>
      <trkpt lat="45.66468" lon="2.97473">
        <ele>905.22418</ele>
        <time>2021-07-06T10:42:46+0200</time>
      </trkpt>
      <trkpt lat="45.66466" lon="2.97464">
        <ele>905.260622</ele>
        <time>2021-07-06T10:42:48+0200</time>
      </trkpt>
      <trkpt lat="45.66465" lon="2.97454">
        <ele>905.053887</ele>
        <time>2021-07-06T10:42:50+0200</time>
      </trkpt>
      <trkpt lat="45.66464" lon="2.97446">
        <ele>904.315308</ele>
        <time>2021-07-06T10:42:51+0200</time>
      </trkpt>
      <trkpt lat="45.66462" lon="2.9744">
        <ele>903.880332</ele>
        <time>2021-07-06T10:42:52+0200</time>
      </trkpt>
      <trkpt lat="45.66461" lon="2.97432">
        <ele>903.403588</ele>
        <time>2021-07-06T10:42:53+0200</time>
      </trkpt>
      <trkpt lat="45.66459" lon="2.97425">
        <ele>902.851138</ele>
        <time>2021-07-06T10:42:54+0200</time>
      </trkpt>
      <trkpt lat="45.66456" lon="2.97417">
        <ele>902.032753</ele>
        <time>2021-07-06T10:42:55+0200</time>
      </trkpt>
      <trkpt lat="45.66454" lon="2.9741">
        <ele>901.468136</ele>
        <time>2021-07-06T10:42:56+0200</time>
      </trkpt>
      <trkpt lat="45.66451" lon="2.97403">
        <ele>901.237965</ele>
        <time>2021-07-06T10:42:57+0200</time>
      </trkpt>
      <trkpt lat="45.66449" lon="2.97396">
        <ele>900.942641</ele>
        <time>2021-07-06T10:42:58+0200</time>
      </trkpt>
      <trkpt lat="45.66447" lon="2.97389">
        <ele>900.829395</ele>
        <time>2021-07-06T10:42:59+0200</time>
      </trkpt>
      <trkpt lat="45.66445" lon="2.97383">
        <ele>900.708423</ele>
        <time>2021-07-06T10:43:00+0200</time>
      </trkpt>
      <trkpt lat="45.66443" lon="2.97377">
        <ele>900.753412</ele>
        <time>2021-07-06T10:43:01+0200</time>
      </trkpt>
      <trkpt lat="45.66441" lon="2.97371">
        <ele>900.65164</ele>
        <time>2021-07-06T10:43:02+0200</time>
      </trkpt>
      <trkpt lat="45.66438" lon="2.9736">
        <ele>900.811099</ele>
        <time>2021-07-06T10:43:04+0200</time>
      </trkpt>
      <trkpt lat="45.66435" lon="2.9735">
        <ele>902.47367</ele>
        <time>2021-07-06T10:43:06+0200</time>
      </trkpt>
      <trkpt lat="45.66432" lon="2.97343">
        <ele>903.572706</ele>
        <time>2021-07-06T10:43:08+0200</time>
      </trkpt>
      <trkpt lat="45.66427" lon="2.97335">
        <ele>904.855203</ele>
        <time>2021-07-06T10:43:10+0200</time>
      </trkpt>
      <trkpt lat="45.66423" lon="2.97325">
        <ele>904.601832</ele>
        <time>2021-07-06T10:43:12+0200</time>
      </trkpt>
      <trkpt lat="45.6642" lon="2.97316">
        <ele>904.902014</ele>
        <time>2021-07-06T10:43:14+0200</time>
      </trkpt>
      <trkpt lat="45.66416" lon="2.97308">
        <ele>906.025723</ele>
        <time>2021-07-06T10:43:16+0200</time>
      </trkpt>
      <trkpt lat="45.66413" lon="2.97299">
        <ele>906.583662</ele>
        <time>2021-07-06T10:43:18+0200</time>
      </trkpt>
      <trkpt lat="45.66411" lon="2.97292">
        <ele>906.4213</ele>
        <time>2021-07-06T10:43:19+0200</time>
      </trkpt>
      <trkpt lat="45.66411" lon="2.9728">
        <ele>906.099662</ele>
        <time>2021-07-06T10:43:21+0200</time>
      </trkpt>
      <trkpt lat="45.66409" lon="2.9727">
        <ele>907.754019</ele>
        <time>2021-07-06T10:43:23+0200</time>
      </trkpt>
      <trkpt lat="45.66406" lon="2.9726">
        <ele>907.871222</ele>
        <time>2021-07-06T10:43:25+0200</time>
      </trkpt>
      <trkpt lat="45.66403" lon="2.97252">
        <ele>907.867755</ele>
        <time>2021-07-06T10:43:27+0200</time>
      </trkpt>
      <trkpt lat="45.66403" lon="2.97242">
        <ele>908.983442</ele>
        <time>2021-07-06T10:43:29+0200</time>
      </trkpt>
      <trkpt lat="45.664" lon="2.97233">
        <ele>908.102561</ele>
        <time>2021-07-06T10:43:31+0200</time>
      </trkpt>
      <trkpt lat="45.66398" lon="2.97224">
        <ele>908.062555</ele>
        <time>2021-07-06T10:43:33+0200</time>
      </trkpt>
      <trkpt lat="45.66393" lon="2.97215">
        <ele>907.39028</ele>
        <time>2021-07-06T10:43:35+0200</time>
      </trkpt>
      <trkpt lat="45.66391" lon="2.97208">
        <ele>908.741551</ele>
        <time>2021-07-06T10:43:37+0200</time>
      </trkpt>
      <trkpt lat="45.66388" lon="2.97199">
        <ele>908.816839</ele>
        <time>2021-07-06T10:43:39+0200</time>
      </trkpt>
      <trkpt lat="45.66384" lon="2.9719">
        <ele>909.111231</ele>
        <time>2021-07-06T10:43:41+0200</time>
      </trkpt>
      <trkpt lat="45.6638" lon="2.97183">
        <ele>909.060086</ele>
        <time>2021-07-06T10:43:43+0200</time>
      </trkpt>
      <trkpt lat="45.66377" lon="2.97176">
        <ele>909.800507</ele>
        <time>2021-07-06T10:43:45+0200</time>
      </trkpt>
      <trkpt lat="45.66373" lon="2.97169">
        <ele>909.394037</ele>
        <time>2021-07-06T10:43:47+0200</time>
      </trkpt>
      <trkpt lat="45.66369" lon="2.97161">
        <ele>909.524364</ele>
        <time>2021-07-06T10:43:49+0200</time>
      </trkpt>
      <trkpt lat="45.66366" lon="2.97155">
        <ele>910.826036</ele>
        <time>2021-07-06T10:43:51+0200</time>
      </trkpt>
      <trkpt lat="45.66362" lon="2.97147">
        <ele>910.135899</ele>
        <time>2021-07-06T10:43:53+0200</time>
      </trkpt>
      <trkpt lat="45.66359" lon="2.97139">
        <ele>909.517794</ele>
        <time>2021-07-06T10:43:55+0200</time>
      </trkpt>
      <trkpt lat="45.66356" lon="2.97134">
        <ele>909.928332</ele>
        <time>2021-07-06T10:43:56+0200</time>
      </trkpt>
      <trkpt lat="45.66353" lon="2.97129">
        <ele>910.207739</ele>
        <time>2021-07-06T10:43:57+0200</time>
      </trkpt>
      <trkpt lat="45.6635" lon="2.97124">
        <ele>909.528966</ele>
        <time>2021-07-06T10:43:58+0200</time>
      </trkpt>
      <trkpt lat="45.66345" lon="2.97115">
        <ele>908.711862</ele>
        <time>2021-07-06T10:44:00+0200</time>
      </trkpt>
      <trkpt lat="45.6634" lon="2.97107">
        <ele>908.247537</ele>
        <time>2021-07-06T10:44:02+0200</time>
      </trkpt>
      <trkpt lat="45.66336" lon="2.97098">
        <ele>907.985107</ele>
        <time>2021-07-06T10:44:04+0200</time>
      </trkpt>
      <trkpt lat="45.66332" lon="2.9709">
        <ele>908.579155</ele>
        <time>2021-07-06T10:44:06+0200</time>
      </trkpt>
      <trkpt lat="45.66328" lon="2.97082">
        <ele>908.286642</ele>
        <time>2021-07-06T10:44:08+0200</time>
      </trkpt>
      <trkpt lat="45.66324" lon="2.97074">
        <ele>907.523281</ele>
        <time>2021-07-06T10:44:10+0200</time>
      </trkpt>
      <trkpt lat="45.66321" lon="2.97067">
        <ele>907.082925</ele>
        <time>2021-07-06T10:44:12+0200</time>
      </trkpt>
      <trkpt lat="45.66317" lon="2.9706">
        <ele>907.516576</ele>
        <time>2021-07-06T10:44:14+0200</time>
      </trkpt>
      <trkpt lat="45.66314" lon="2.97053">
        <ele>908.341193</ele>
        <time>2021-07-06T10:44:16+0200</time>
      </trkpt>
      <trkpt lat="45.66311" lon="2.97045">
        <ele>908.67061</ele>
        <time>2021-07-06T10:44:18+0200</time>
      </trkpt>
      <trkpt lat="45.66308" lon="2.97038">
        <ele>909.250041</ele>
        <time>2021-07-06T10:44:20+0200</time>
      </trkpt>
      <trkpt lat="45.66306" lon="2.9703">
        <ele>909.633878</ele>
        <time>2021-07-06T10:44:22+0200</time>
      </trkpt>
      <trkpt lat="45.66305" lon="2.97023">
        <ele>910.265127</ele>
        <time>2021-07-06T10:44:24+0200</time>
      </trkpt>
      <trkpt lat="45.66304" lon="2.97016">
        <ele>910.071623</ele>
        <time>2021-07-06T10:44:26+0200</time>
      </trkpt>
      <trkpt lat="45.66305" lon="2.97009">
        <ele>909.369898</ele>
        <time>2021-07-06T10:44:28+0200</time>
      </trkpt>
      <trkpt lat="45.66307" lon="2.97001">
        <ele>909.640574</ele>
        <time>2021-07-06T10:44:31+0200</time>
      </trkpt>
      <trkpt lat="45.66308" lon="2.96994">
        <ele>910.062459</ele>
        <time>2021-07-06T10:44:34+0200</time>
      </trkpt>
      <trkpt lat="45.66312" lon="2.96989">
        <ele>906.996613</ele>
        <time>2021-07-06T10:45:22+0200</time>
      </trkpt>
      <trkpt lat="45.66316" lon="2.96981">
        <ele>907.657689</ele>
        <time>2021-07-06T10:45:25+0200</time>
      </trkpt>
      <trkpt lat="45.66319" lon="2.96976">
        <ele>908.78143</ele>
        <time>2021-07-06T10:45:27+0200</time>
      </trkpt>
      <trkpt lat="45.66321" lon="2.9697">
        <ele>909.062799</ele>
        <time>2021-07-06T10:45:29+0200</time>
      </trkpt>
      <trkpt lat="45.66324" lon="2.96965">
        <ele>909.984469</ele>
        <time>2021-07-06T10:45:31+0200</time>
      </trkpt>
      <trkpt lat="45.66328" lon="2.96959">
        <ele>909.925488</ele>
        <time>2021-07-06T10:45:33+0200</time>
      </trkpt>
      <trkpt lat="45.66331" lon="2.96952">
        <ele>910.535703</ele>
        <time>2021-07-06T10:45:35+0200</time>
      </trkpt>
      <trkpt lat="45.66335" lon="2.96945">
        <ele>910.550543</ele>
        <time>2021-07-06T10:45:37+0200</time>
      </trkpt>
      <trkpt lat="45.66337" lon="2.9694">
        <ele>910.252903</ele>
        <time>2021-07-06T10:45:39+0200</time>
      </trkpt>
      <trkpt lat="45.66339" lon="2.96933">
        <ele>910.491841</ele>
        <time>2021-07-06T10:45:41+0200</time>
      </trkpt>
      <trkpt lat="45.66342" lon="2.96926">
        <ele>910.858934</ele>
        <time>2021-07-06T10:45:43+0200</time>
      </trkpt>
      <trkpt lat="45.66345" lon="2.9692">
        <ele>910.937453</ele>
        <time>2021-07-06T10:45:45+0200</time>
      </trkpt>
      <trkpt lat="45.66349" lon="2.96912">
        <ele>911.634903</ele>
        <time>2021-07-06T10:45:48+0200</time>
      </trkpt>
      <trkpt lat="45.66352" lon="2.96906">
        <ele>913.201995</ele>
        <time>2021-07-06T10:45:50+0200</time>
      </trkpt>
      <trkpt lat="45.66352" lon="2.96898">
        <ele>914.58812</ele>
        <time>2021-07-06T10:45:53+0200</time>
      </trkpt>
      <trkpt lat="45.66353" lon="2.9689">
        <ele>914.508009</ele>
        <time>2021-07-06T10:45:55+0200</time>
      </trkpt>
      <trkpt lat="45.66355" lon="2.96883">
        <ele>915.037234</ele>
        <time>2021-07-06T10:45:57+0200</time>
      </trkpt>
      <trkpt lat="45.66358" lon="2.96873">
        <ele>915.872214</ele>
        <time>2021-07-06T10:46:00+0200</time>
      </trkpt>
      <trkpt lat="45.66359" lon="2.96866">
        <ele>915.844627</ele>
        <time>2021-07-06T10:46:02+0200</time>
      </trkpt>
      <trkpt lat="45.66362" lon="2.96859">
        <ele>916.462761</ele>
        <time>2021-07-06T10:46:04+0200</time>
      </trkpt>
      <trkpt lat="45.66362" lon="2.96853">
        <ele>917.163227</ele>
        <time>2021-07-06T10:46:06+0200</time>
      </trkpt>
      <trkpt lat="45.66363" lon="2.96846">
        <ele>917.029248</ele>
        <time>2021-07-06T10:46:08+0200</time>
      </trkpt>
      <trkpt lat="45.66365" lon="2.9684">
        <ele>916.528725</ele>
        <time>2021-07-06T10:46:10+0200</time>
      </trkpt>
      <trkpt lat="45.66368" lon="2.96832">
        <ele>917.645247</ele>
        <time>2021-07-06T10:46:13+0200</time>
      </trkpt>
      <trkpt lat="45.66371" lon="2.96827">
        <ele>918.680817</ele>
        <time>2021-07-06T10:46:15+0200</time>
      </trkpt>
      <trkpt lat="45.66374" lon="2.96819">
        <ele>918.460082</ele>
        <time>2021-07-06T10:46:18+0200</time>
      </trkpt>
      <trkpt lat="45.66377" lon="2.96811">
        <ele>918.688494</ele>
        <time>2021-07-06T10:46:21+0200</time>
      </trkpt>
      <trkpt lat="45.6638" lon="2.96806">
        <ele>919.345034</ele>
        <time>2021-07-06T10:46:23+0200</time>
      </trkpt>
      <trkpt lat="45.66384" lon="2.96802">
        <ele>920.384843</ele>
        <time>2021-07-06T10:46:25+0200</time>
      </trkpt>
      <trkpt lat="45.66389" lon="2.96797">
        <ele>920.923907</ele>
        <time>2021-07-06T10:46:27+0200</time>
      </trkpt>
      <trkpt lat="45.66394" lon="2.96791">
        <ele>922.191753</ele>
        <time>2021-07-06T10:46:30+0200</time>
      </trkpt>
      <trkpt lat="45.66397" lon="2.96786">
        <ele>923.281512</ele>
        <time>2021-07-06T10:46:32+0200</time>
      </trkpt>
      <trkpt lat="45.66402" lon="2.96783">
        <ele>923.371525</ele>
        <time>2021-07-06T10:46:34+0200</time>
      </trkpt>
      <trkpt lat="45.66407" lon="2.9678">
        <ele>922.857856</ele>
        <time>2021-07-06T10:46:36+0200</time>
      </trkpt>
      <trkpt lat="45.66411" lon="2.96777">
        <ele>922.968322</ele>
        <time>2021-07-06T10:46:38+0200</time>
      </trkpt>
      <trkpt lat="45.66416" lon="2.96772">
        <ele>923.883176</ele>
        <time>2021-07-06T10:46:41+0200</time>
      </trkpt>
      <trkpt lat="45.66421" lon="2.96768">
        <ele>924.732823</ele>
        <time>2021-07-06T10:46:44+0200</time>
      </trkpt>
      <trkpt lat="45.66424" lon="2.96764">
        <ele>925.188421</ele>
        <time>2021-07-06T10:46:46+0200</time>
      </trkpt>
      <trkpt lat="45.66429" lon="2.9676">
        <ele>925.316222</ele>
        <time>2021-07-06T10:46:48+0200</time>
      </trkpt>
      <trkpt lat="45.66433" lon="2.96757">
        <ele>925.665208</ele>
        <time>2021-07-06T10:46:50+0200</time>
      </trkpt>
      <trkpt lat="45.66436" lon="2.96753">
        <ele>926.09975</ele>
        <time>2021-07-06T10:46:52+0200</time>
      </trkpt>
      <trkpt lat="45.66441" lon="2.96747">
        <ele>926.53348</ele>
        <time>2021-07-06T10:46:55+0200</time>
      </trkpt>
      <trkpt lat="45.66445" lon="2.96742">
        <ele>927.785947</ele>
        <time>2021-07-06T10:46:58+0200</time>
      </trkpt>
      <trkpt lat="45.66449" lon="2.96738">
        <ele>928.680082</ele>
        <time>2021-07-06T10:47:01+0200</time>
      </trkpt>
      <trkpt lat="45.66452" lon="2.96733">
        <ele>929.023255</ele>
        <time>2021-07-06T10:47:04+0200</time>
      </trkpt>
      <trkpt lat="45.66456" lon="2.9673">
        <ele>929.708085</ele>
        <time>2021-07-06T10:47:07+0200</time>
      </trkpt>
      <trkpt lat="45.66461" lon="2.96725">
        <ele>930.38049</ele>
        <time>2021-07-06T10:47:10+0200</time>
      </trkpt>
      <trkpt lat="45.66465" lon="2.96721">
        <ele>930.519618</ele>
        <time>2021-07-06T10:47:13+0200</time>
      </trkpt>
      <trkpt lat="45.66469" lon="2.96717">
        <ele>931.015663</ele>
        <time>2021-07-06T10:47:16+0200</time>
      </trkpt>
      <trkpt lat="45.66474" lon="2.96715">
        <ele>932.417753</ele>
        <time>2021-07-06T10:47:19+0200</time>
      </trkpt>
      <trkpt lat="45.66479" lon="2.96713">
        <ele>932.292994</ele>
        <time>2021-07-06T10:47:22+0200</time>
      </trkpt>
      <trkpt lat="45.66485" lon="2.96711">
        <ele>931.612139</ele>
        <time>2021-07-06T10:47:25+0200</time>
      </trkpt>
      <trkpt lat="45.6649" lon="2.96709">
        <ele>931.49675</ele>
        <time>2021-07-06T10:47:28+0200</time>
      </trkpt>
      <trkpt lat="45.66494" lon="2.96706">
        <ele>932.169936</ele>
        <time>2021-07-06T10:47:31+0200</time>
      </trkpt>
      <trkpt lat="45.66498" lon="2.96702">
        <ele>932.453727</ele>
        <time>2021-07-06T10:47:34+0200</time>
      </trkpt>
      <trkpt lat="45.66503" lon="2.96698">
        <ele>933.599162</ele>
        <time>2021-07-06T10:47:37+0200</time>
      </trkpt>
      <trkpt lat="45.66507" lon="2.96694">
        <ele>934.203381</ele>
        <time>2021-07-06T10:47:40+0200</time>
      </trkpt>
      <trkpt lat="45.66512" lon="2.9669">
        <ele>934.830257</ele>
        <time>2021-07-06T10:47:43+0200</time>
      </trkpt>
      <trkpt lat="45.66516" lon="2.96685">
        <ele>936.220363</ele>
        <time>2021-07-06T10:47:46+0200</time>
      </trkpt>
      <trkpt lat="45.6652" lon="2.96681">
        <ele>936.896606</ele>
        <time>2021-07-06T10:47:49+0200</time>
      </trkpt>
      <trkpt lat="45.66525" lon="2.96676">
        <ele>937.832653</ele>
        <time>2021-07-06T10:47:52+0200</time>
      </trkpt>
      <trkpt lat="45.66529" lon="2.96672">
        <ele>938.227191</ele>
        <time>2021-07-06T10:47:55+0200</time>
      </trkpt>
      <trkpt lat="45.66534" lon="2.96669">
        <ele>938.243619</ele>
        <time>2021-07-06T10:47:58+0200</time>
      </trkpt>
      <trkpt lat="45.66538" lon="2.96664">
        <ele>938.134731</ele>
        <time>2021-07-06T10:48:01+0200</time>
      </trkpt>
      <trkpt lat="45.66541" lon="2.96659">
        <ele>938.687814</ele>
        <time>2021-07-06T10:48:04+0200</time>
      </trkpt>
      <trkpt lat="45.66546" lon="2.96657">
        <ele>938.756663</ele>
        <time>2021-07-06T10:48:07+0200</time>
      </trkpt>
      <trkpt lat="45.6655" lon="2.96652">
        <ele>939.093508</ele>
        <time>2021-07-06T10:48:10+0200</time>
      </trkpt>
      <trkpt lat="45.66554" lon="2.96648">
        <ele>939.285704</ele>
        <time>2021-07-06T10:48:13+0200</time>
      </trkpt>
      <trkpt lat="45.66557" lon="2.96642">
        <ele>939.39908</ele>
        <time>2021-07-06T10:48:17+0200</time>
      </trkpt>
      <trkpt lat="45.6656" lon="2.96637">
        <ele>939.482902</ele>
        <time>2021-07-06T10:48:22+0200</time>
      </trkpt>
      <trkpt lat="45.6656" lon="2.96644">
        <ele>941.498724</ele>
        <time>2021-07-06T10:48:42+0200</time>
      </trkpt>
      <trkpt lat="45.66561" lon="2.96637">
        <ele>940.270403</ele>
        <time>2021-07-06T10:48:49+0200</time>
      </trkpt>
      <trkpt lat="45.66564" lon="2.96633">
        <ele>939.9027</ele>
        <time>2021-07-06T10:48:51+0200</time>
      </trkpt>
      <trkpt lat="45.66572" lon="2.96632">
        <ele>939.345742</ele>
        <time>2021-07-06T10:48:54+0200</time>
      </trkpt>
      <trkpt lat="45.6658" lon="2.96633">
        <ele>938.848218</ele>
        <time>2021-07-06T10:48:56+0200</time>
      </trkpt>
      <trkpt lat="45.66588" lon="2.96634">
        <ele>938.210219</ele>
        <time>2021-07-06T10:48:58+0200</time>
      </trkpt>
      <trkpt lat="45.66593" lon="2.96633">
        <ele>937.974494</ele>
        <time>2021-07-06T10:48:59+0200</time>
      </trkpt>
      <trkpt lat="45.66598" lon="2.96632">
        <ele>938.24119</ele>
        <time>2021-07-06T10:49:00+0200</time>
      </trkpt>
      <trkpt lat="45.66603" lon="2.96633">
        <ele>938.281826</ele>
        <time>2021-07-06T10:49:01+0200</time>
      </trkpt>
      <trkpt lat="45.66609" lon="2.96634">
        <ele>938.275043</ele>
        <time>2021-07-06T10:49:02+0200</time>
      </trkpt>
      <trkpt lat="45.66615" lon="2.96635">
        <ele>937.824064</ele>
        <time>2021-07-06T10:49:03+0200</time>
      </trkpt>
      <trkpt lat="45.66621" lon="2.96635">
        <ele>937.159529</ele>
        <time>2021-07-06T10:49:04+0200</time>
      </trkpt>
      <trkpt lat="45.66627" lon="2.96636">
        <ele>936.024981</ele>
        <time>2021-07-06T10:49:05+0200</time>
      </trkpt>
      <trkpt lat="45.66634" lon="2.96632">
        <ele>935.139788</ele>
        <time>2021-07-06T10:49:06+0200</time>
      </trkpt>
      <trkpt lat="45.66639" lon="2.96625">
        <ele>935.056058</ele>
        <time>2021-07-06T10:49:07+0200</time>
      </trkpt>
      <trkpt lat="45.66642" lon="2.96617">
        <ele>934.823785</ele>
        <time>2021-07-06T10:49:08+0200</time>
      </trkpt>
      <trkpt lat="45.66644" lon="2.96608">
        <ele>935.430119</ele>
        <time>2021-07-06T10:49:09+0200</time>
      </trkpt>
      <trkpt lat="45.66646" lon="2.96601">
        <ele>935.986337</ele>
        <time>2021-07-06T10:49:10+0200</time>
      </trkpt>
      <trkpt lat="45.6665" lon="2.96591">
        <ele>936.865826</ele>
        <time>2021-07-06T10:49:12+0200</time>
      </trkpt>
      <trkpt lat="45.66654" lon="2.96586">
        <ele>938.057812</ele>
        <time>2021-07-06T10:49:14+0200</time>
      </trkpt>
      <trkpt lat="45.66657" lon="2.96579">
        <ele>938.706487</ele>
        <time>2021-07-06T10:49:16+0200</time>
      </trkpt>
      <trkpt lat="45.66662" lon="2.96571">
        <ele>939.553877</ele>
        <time>2021-07-06T10:49:19+0200</time>
      </trkpt>
      <trkpt lat="45.66664" lon="2.96565">
        <ele>940.520663</ele>
        <time>2021-07-06T10:49:21+0200</time>
      </trkpt>
      <trkpt lat="45.66667" lon="2.96559">
        <ele>940.655133</ele>
        <time>2021-07-06T10:49:23+0200</time>
      </trkpt>
      <trkpt lat="45.6667" lon="2.96552">
        <ele>940.254189</ele>
        <time>2021-07-06T10:49:25+0200</time>
      </trkpt>
      <trkpt lat="45.66673" lon="2.96544">
        <ele>939.919677</ele>
        <time>2021-07-06T10:49:27+0200</time>
      </trkpt>
      <trkpt lat="45.66676" lon="2.96537">
        <ele>940.878918</ele>
        <time>2021-07-06T10:49:29+0200</time>
      </trkpt>
      <trkpt lat="45.66679" lon="2.96527">
        <ele>939.840983</ele>
        <time>2021-07-06T10:49:31+0200</time>
      </trkpt>
      <trkpt lat="45.66681" lon="2.96521">
        <ele>938.994954</ele>
        <time>2021-07-06T10:49:32+0200</time>
      </trkpt>
      <trkpt lat="45.66685" lon="2.96513">
        <ele>937.914407</ele>
        <time>2021-07-06T10:49:33+0200</time>
      </trkpt>
      <trkpt lat="45.66688" lon="2.96508">
        <ele>938.116136</ele>
        <time>2021-07-06T10:49:34+0200</time>
      </trkpt>
      <trkpt lat="45.66692" lon="2.96502">
        <ele>937.662971</ele>
        <time>2021-07-06T10:49:35+0200</time>
      </trkpt>
      <trkpt lat="45.66696" lon="2.96497">
        <ele>937.32112</ele>
        <time>2021-07-06T10:49:36+0200</time>
      </trkpt>
      <trkpt lat="45.66701" lon="2.96493">
        <ele>936.986402</ele>
        <time>2021-07-06T10:49:37+0200</time>
      </trkpt>
      <trkpt lat="45.66706" lon="2.96489">
        <ele>936.231424</ele>
        <time>2021-07-06T10:49:38+0200</time>
      </trkpt>
      <trkpt lat="45.66712" lon="2.96486">
        <ele>935.996095</ele>
        <time>2021-07-06T10:49:39+0200</time>
      </trkpt>
      <trkpt lat="45.6672" lon="2.96485">
        <ele>936.300322</ele>
        <time>2021-07-06T10:49:40+0200</time>
      </trkpt>
      <trkpt lat="45.66728" lon="2.96484">
        <ele>937.365557</ele>
        <time>2021-07-06T10:49:41+0200</time>
      </trkpt>
      <trkpt lat="45.66735" lon="2.96487">
        <ele>937.819495</ele>
        <time>2021-07-06T10:49:42+0200</time>
      </trkpt>
      <trkpt lat="45.6674" lon="2.96491">
        <ele>938.169256</ele>
        <time>2021-07-06T10:49:43+0200</time>
      </trkpt>
      <trkpt lat="45.66745" lon="2.96494">
        <ele>937.710443</ele>
        <time>2021-07-06T10:49:44+0200</time>
      </trkpt>
      <trkpt lat="45.66749" lon="2.96498">
        <ele>937.518498</ele>
        <time>2021-07-06T10:49:45+0200</time>
      </trkpt>
      <trkpt lat="45.66754" lon="2.96502">
        <ele>937.269392</ele>
        <time>2021-07-06T10:49:46+0200</time>
      </trkpt>
      <trkpt lat="45.66763" lon="2.96508">
        <ele>936.676989</ele>
        <time>2021-07-06T10:49:48+0200</time>
      </trkpt>
      <trkpt lat="45.66768" lon="2.96511">
        <ele>936.314685</ele>
        <time>2021-07-06T10:49:49+0200</time>
      </trkpt>
      <trkpt lat="45.66776" lon="2.96517">
        <ele>936.941418</ele>
        <time>2021-07-06T10:49:51+0200</time>
      </trkpt>
      <trkpt lat="45.66784" lon="2.96521">
        <ele>937.553846</ele>
        <time>2021-07-06T10:49:53+0200</time>
      </trkpt>
      <trkpt lat="45.66789" lon="2.96524">
        <ele>938.21076</ele>
        <time>2021-07-06T10:49:55+0200</time>
      </trkpt>
      <trkpt lat="45.66794" lon="2.9652">
        <ele>938.400628</ele>
        <time>2021-07-06T10:49:57+0200</time>
      </trkpt>
      <trkpt lat="45.66796" lon="2.96511">
        <ele>938.488717</ele>
        <time>2021-07-06T10:49:59+0200</time>
      </trkpt>
      <trkpt lat="45.66794" lon="2.96505">
        <ele>938.626702</ele>
        <time>2021-07-06T10:50:01+0200</time>
      </trkpt>
      <trkpt lat="45.66793" lon="2.96497">
        <ele>938.324541</ele>
        <time>2021-07-06T10:50:04+0200</time>
      </trkpt>
      <trkpt lat="45.66793" lon="2.9649">
        <ele>938.324956</ele>
        <time>2021-07-06T10:50:06+0200</time>
      </trkpt>
      <trkpt lat="45.66794" lon="2.96481">
        <ele>938.26904</ele>
        <time>2021-07-06T10:50:09+0200</time>
      </trkpt>
      <trkpt lat="45.66793" lon="2.96472">
        <ele>939.080355</ele>
        <time>2021-07-06T10:50:12+0200</time>
      </trkpt>
      <trkpt lat="45.66793" lon="2.96464">
        <ele>940.070255</ele>
        <time>2021-07-06T10:50:15+0200</time>
      </trkpt>
      <trkpt lat="45.66794" lon="2.96454">
        <ele>941.842822</ele>
        <time>2021-07-06T10:50:18+0200</time>
      </trkpt>
      <trkpt lat="45.66795" lon="2.96446">
        <ele>943.646773</ele>
        <time>2021-07-06T10:50:21+0200</time>
      </trkpt>
      <trkpt lat="45.66794" lon="2.9644">
        <ele>945.310064</ele>
        <time>2021-07-06T10:50:23+0200</time>
      </trkpt>
      <trkpt lat="45.66795" lon="2.96432">
        <ele>946.116667</ele>
        <time>2021-07-06T10:50:26+0200</time>
      </trkpt>
      <trkpt lat="45.66795" lon="2.96425">
        <ele>946.167944</ele>
        <time>2021-07-06T10:50:28+0200</time>
      </trkpt>
      <trkpt lat="45.66795" lon="2.96418">
        <ele>946.610158</ele>
        <time>2021-07-06T10:50:30+0200</time>
      </trkpt>
      <trkpt lat="45.66797" lon="2.96409">
        <ele>947.746368</ele>
        <time>2021-07-06T10:50:33+0200</time>
      </trkpt>
      <trkpt lat="45.668" lon="2.96402">
        <ele>949.221515</ele>
        <time>2021-07-06T10:50:36+0200</time>
      </trkpt>
      <trkpt lat="45.66801" lon="2.96396">
        <ele>948.457618</ele>
        <time>2021-07-06T10:50:38+0200</time>
      </trkpt>
      <trkpt lat="45.66803" lon="2.96389">
        <ele>948.739783</ele>
        <time>2021-07-06T10:50:40+0200</time>
      </trkpt>
      <trkpt lat="45.66805" lon="2.96381">
        <ele>949.662954</ele>
        <time>2021-07-06T10:50:43+0200</time>
      </trkpt>
      <trkpt lat="45.66807" lon="2.96374">
        <ele>949.171941</ele>
        <time>2021-07-06T10:50:45+0200</time>
      </trkpt>
      <trkpt lat="45.6681" lon="2.96366">
        <ele>950.304026</ele>
        <time>2021-07-06T10:50:48+0200</time>
      </trkpt>
      <trkpt lat="45.66813" lon="2.96359">
        <ele>951.485044</ele>
        <time>2021-07-06T10:50:50+0200</time>
      </trkpt>
      <trkpt lat="45.66817" lon="2.96353">
        <ele>952.305643</ele>
        <time>2021-07-06T10:50:52+0200</time>
      </trkpt>
      <trkpt lat="45.6682" lon="2.96346">
        <ele>952.74644</ele>
        <time>2021-07-06T10:50:54+0200</time>
      </trkpt>
      <trkpt lat="45.66823" lon="2.96339">
        <ele>953.177515</ele>
        <time>2021-07-06T10:50:56+0200</time>
      </trkpt>
      <trkpt lat="45.66827" lon="2.96331">
        <ele>953.011536</ele>
        <time>2021-07-06T10:50:58+0200</time>
      </trkpt>
      <trkpt lat="45.66831" lon="2.96325">
        <ele>953.531228</ele>
        <time>2021-07-06T10:51:00+0200</time>
      </trkpt>
      <trkpt lat="45.66834" lon="2.96316">
        <ele>956.224733</ele>
        <time>2021-07-06T10:51:03+0200</time>
      </trkpt>
      <trkpt lat="45.66838" lon="2.96307">
        <ele>956.611951</ele>
        <time>2021-07-06T10:51:06+0200</time>
      </trkpt>
      <trkpt lat="45.6684" lon="2.96301">
        <ele>957.427096</ele>
        <time>2021-07-06T10:51:08+0200</time>
      </trkpt>
      <trkpt lat="45.66844" lon="2.96293">
        <ele>956.750502</ele>
        <time>2021-07-06T10:51:10+0200</time>
      </trkpt>
      <trkpt lat="45.66847" lon="2.96286">
        <ele>956.697614</ele>
        <time>2021-07-06T10:51:12+0200</time>
      </trkpt>
      <trkpt lat="45.6685" lon="2.9628">
        <ele>956.109492</ele>
        <time>2021-07-06T10:51:14+0200</time>
      </trkpt>
      <trkpt lat="45.66853" lon="2.96274">
        <ele>956.549707</ele>
        <time>2021-07-06T10:51:16+0200</time>
      </trkpt>
      <trkpt lat="45.66856" lon="2.96267">
        <ele>954.452038</ele>
        <time>2021-07-06T10:51:18+0200</time>
      </trkpt>
      <trkpt lat="45.6686" lon="2.9626">
        <ele>953.912284</ele>
        <time>2021-07-06T10:51:20+0200</time>
      </trkpt>
      <trkpt lat="45.66863" lon="2.96255">
        <ele>953.401781</ele>
        <time>2021-07-06T10:51:22+0200</time>
      </trkpt>
      <trkpt lat="45.66865" lon="2.96248">
        <ele>954.305295</ele>
        <time>2021-07-06T10:51:24+0200</time>
      </trkpt>
      <trkpt lat="45.66868" lon="2.96243">
        <ele>955.606082</ele>
        <time>2021-07-06T10:51:26+0200</time>
      </trkpt>
      <trkpt lat="45.66872" lon="2.96237">
        <ele>954.520345</ele>
        <time>2021-07-06T10:51:28+0200</time>
      </trkpt>
      <trkpt lat="45.66875" lon="2.96232">
        <ele>955.485864</ele>
        <time>2021-07-06T10:51:30+0200</time>
      </trkpt>
      <trkpt lat="45.66878" lon="2.96225">
        <ele>955.263137</ele>
        <time>2021-07-06T10:51:32+0200</time>
      </trkpt>
      <trkpt lat="45.66881" lon="2.9622">
        <ele>954.361619</ele>
        <time>2021-07-06T10:51:34+0200</time>
      </trkpt>
      <trkpt lat="45.66883" lon="2.96214">
        <ele>953.680738</ele>
        <time>2021-07-06T10:51:36+0200</time>
      </trkpt>
      <trkpt lat="45.66886" lon="2.96209">
        <ele>953.999507</ele>
        <time>2021-07-06T10:51:38+0200</time>
      </trkpt>
      <trkpt lat="45.6689" lon="2.96201">
        <ele>956.783235</ele>
        <time>2021-07-06T10:51:41+0200</time>
      </trkpt>
      <trkpt lat="45.66893" lon="2.96195">
        <ele>958.338482</ele>
        <time>2021-07-06T10:51:43+0200</time>
      </trkpt>
      <trkpt lat="45.66897" lon="2.96187">
        <ele>959.153777</ele>
        <time>2021-07-06T10:51:46+0200</time>
      </trkpt>
      <trkpt lat="45.669" lon="2.96181">
        <ele>959.307113</ele>
        <time>2021-07-06T10:51:48+0200</time>
      </trkpt>
      <trkpt lat="45.66903" lon="2.96175">
        <ele>958.479345</ele>
        <time>2021-07-06T10:51:50+0200</time>
      </trkpt>
      <trkpt lat="45.66907" lon="2.96169">
        <ele>958.576092</ele>
        <time>2021-07-06T10:51:52+0200</time>
      </trkpt>
      <trkpt lat="45.66909" lon="2.96162">
        <ele>958.46957</ele>
        <time>2021-07-06T10:51:54+0200</time>
      </trkpt>
      <trkpt lat="45.66912" lon="2.96156">
        <ele>958.383971</ele>
        <time>2021-07-06T10:51:56+0200</time>
      </trkpt>
      <trkpt lat="45.66915" lon="2.96149">
        <ele>958.400995</ele>
        <time>2021-07-06T10:51:58+0200</time>
      </trkpt>
      <trkpt lat="45.66918" lon="2.96143">
        <ele>958.230551</ele>
        <time>2021-07-06T10:52:00+0200</time>
      </trkpt>
      <trkpt lat="45.66921" lon="2.96138">
        <ele>958.986572</ele>
        <time>2021-07-06T10:52:02+0200</time>
      </trkpt>
      <trkpt lat="45.66924" lon="2.96131">
        <ele>959.165924</ele>
        <time>2021-07-06T10:52:04+0200</time>
      </trkpt>
      <trkpt lat="45.66928" lon="2.96125">
        <ele>959.327078</ele>
        <time>2021-07-06T10:52:06+0200</time>
      </trkpt>
      <trkpt lat="45.66931" lon="2.96117">
        <ele>959.572755</ele>
        <time>2021-07-06T10:52:08+0200</time>
      </trkpt>
      <trkpt lat="45.66934" lon="2.96111">
        <ele>960.284738</ele>
        <time>2021-07-06T10:52:10+0200</time>
      </trkpt>
      <trkpt lat="45.66937" lon="2.96105">
        <ele>960.839532</ele>
        <time>2021-07-06T10:52:12+0200</time>
      </trkpt>
      <trkpt lat="45.66942" lon="2.96099">
        <ele>962.009713</ele>
        <time>2021-07-06T10:52:15+0200</time>
      </trkpt>
      <trkpt lat="45.66945" lon="2.96094">
        <ele>962.561254</ele>
        <time>2021-07-06T10:52:17+0200</time>
      </trkpt>
      <trkpt lat="45.6695" lon="2.96087">
        <ele>963.381268</ele>
        <time>2021-07-06T10:52:19+0200</time>
      </trkpt>
      <trkpt lat="45.66953" lon="2.96081">
        <ele>963.825004</ele>
        <time>2021-07-06T10:52:21+0200</time>
      </trkpt>
      <trkpt lat="45.66957" lon="2.96075">
        <ele>964.11364</ele>
        <time>2021-07-06T10:52:23+0200</time>
      </trkpt>
      <trkpt lat="45.6696" lon="2.9607">
        <ele>965.01311</ele>
        <time>2021-07-06T10:52:25+0200</time>
      </trkpt>
      <trkpt lat="45.66963" lon="2.96064">
        <ele>964.80488</ele>
        <time>2021-07-06T10:52:27+0200</time>
      </trkpt>
      <trkpt lat="45.66967" lon="2.96059">
        <ele>964.432508</ele>
        <time>2021-07-06T10:52:29+0200</time>
      </trkpt>
      <trkpt lat="45.66971" lon="2.96053">
        <ele>964.298967</ele>
        <time>2021-07-06T10:52:31+0200</time>
      </trkpt>
      <trkpt lat="45.66974" lon="2.96047">
        <ele>963.819593</ele>
        <time>2021-07-06T10:52:33+0200</time>
      </trkpt>
      <trkpt lat="45.66977" lon="2.96041">
        <ele>963.835425</ele>
        <time>2021-07-06T10:52:35+0200</time>
      </trkpt>
      <trkpt lat="45.6698" lon="2.96035">
        <ele>963.86883</ele>
        <time>2021-07-06T10:52:37+0200</time>
      </trkpt>
      <trkpt lat="45.66983" lon="2.96029">
        <ele>963.911054</ele>
        <time>2021-07-06T10:52:39+0200</time>
      </trkpt>
      <trkpt lat="45.66986" lon="2.96023">
        <ele>963.780758</ele>
        <time>2021-07-06T10:52:41+0200</time>
      </trkpt>
      <trkpt lat="45.6699" lon="2.96015">
        <ele>963.818506</ele>
        <time>2021-07-06T10:52:44+0200</time>
      </trkpt>
      <trkpt lat="45.66994" lon="2.96009">
        <ele>963.555761</ele>
        <time>2021-07-06T10:52:46+0200</time>
      </trkpt>
      <trkpt lat="45.66997" lon="2.96002">
        <ele>963.75963</ele>
        <time>2021-07-06T10:52:48+0200</time>
      </trkpt>
      <trkpt lat="45.67" lon="2.95996">
        <ele>963.43654</ele>
        <time>2021-07-06T10:52:50+0200</time>
      </trkpt>
      <trkpt lat="45.67004" lon="2.95989">
        <ele>963.885492</ele>
        <time>2021-07-06T10:52:52+0200</time>
      </trkpt>
      <trkpt lat="45.67007" lon="2.95983">
        <ele>964.188148</ele>
        <time>2021-07-06T10:52:54+0200</time>
      </trkpt>
      <trkpt lat="45.6701" lon="2.95976">
        <ele>964.12758</ele>
        <time>2021-07-06T10:52:56+0200</time>
      </trkpt>
      <trkpt lat="45.67013" lon="2.95969">
        <ele>964.367891</ele>
        <time>2021-07-06T10:52:58+0200</time>
      </trkpt>
      <trkpt lat="45.67015" lon="2.95963">
        <ele>964.291313</ele>
        <time>2021-07-06T10:53:00+0200</time>
      </trkpt>
      <trkpt lat="45.67019" lon="2.95957">
        <ele>964.52507</ele>
        <time>2021-07-06T10:53:02+0200</time>
      </trkpt>
      <trkpt lat="45.67022" lon="2.9595">
        <ele>964.492745</ele>
        <time>2021-07-06T10:53:04+0200</time>
      </trkpt>
      <trkpt lat="45.67026" lon="2.95944">
        <ele>965.098472</ele>
        <time>2021-07-06T10:53:06+0200</time>
      </trkpt>
      <trkpt lat="45.67029" lon="2.95937">
        <ele>965.035328</ele>
        <time>2021-07-06T10:53:08+0200</time>
      </trkpt>
      <trkpt lat="45.67032" lon="2.9593">
        <ele>964.771365</ele>
        <time>2021-07-06T10:53:10+0200</time>
      </trkpt>
      <trkpt lat="45.67036" lon="2.95925">
        <ele>964.822696</ele>
        <time>2021-07-06T10:53:12+0200</time>
      </trkpt>
      <trkpt lat="45.6704" lon="2.95918">
        <ele>964.896248</ele>
        <time>2021-07-06T10:53:14+0200</time>
      </trkpt>
      <trkpt lat="45.67043" lon="2.95912">
        <ele>965.468202</ele>
        <time>2021-07-06T10:53:16+0200</time>
      </trkpt>
      <trkpt lat="45.67046" lon="2.95906">
        <ele>965.926157</ele>
        <time>2021-07-06T10:53:18+0200</time>
      </trkpt>
      <trkpt lat="45.67048" lon="2.95899">
        <ele>966.375565</ele>
        <time>2021-07-06T10:53:20+0200</time>
      </trkpt>
      <trkpt lat="45.67051" lon="2.95893">
        <ele>966.53827</ele>
        <time>2021-07-06T10:53:22+0200</time>
      </trkpt>
      <trkpt lat="45.67054" lon="2.95887">
        <ele>967.009859</ele>
        <time>2021-07-06T10:53:24+0200</time>
      </trkpt>
      <trkpt lat="45.67057" lon="2.95879">
        <ele>967.427589</ele>
        <time>2021-07-06T10:53:26+0200</time>
      </trkpt>
      <trkpt lat="45.67061" lon="2.95873">
        <ele>967.482304</ele>
        <time>2021-07-06T10:53:28+0200</time>
      </trkpt>
      <trkpt lat="45.67064" lon="2.95866">
        <ele>967.678367</ele>
        <time>2021-07-06T10:53:30+0200</time>
      </trkpt>
      <trkpt lat="45.67068" lon="2.9586">
        <ele>968.050474</ele>
        <time>2021-07-06T10:53:32+0200</time>
      </trkpt>
      <trkpt lat="45.67071" lon="2.95853">
        <ele>967.955761</ele>
        <time>2021-07-06T10:53:34+0200</time>
      </trkpt>
      <trkpt lat="45.67074" lon="2.95847">
        <ele>968.391425</ele>
        <time>2021-07-06T10:53:36+0200</time>
      </trkpt>
      <trkpt lat="45.67076" lon="2.9584">
        <ele>968.337816</ele>
        <time>2021-07-06T10:53:38+0200</time>
      </trkpt>
      <trkpt lat="45.67079" lon="2.95832">
        <ele>969.740576</ele>
        <time>2021-07-06T10:53:41+0200</time>
      </trkpt>
      <trkpt lat="45.67082" lon="2.95826">
        <ele>970.343458</ele>
        <time>2021-07-06T10:53:43+0200</time>
      </trkpt>
      <trkpt lat="45.67085" lon="2.9582">
        <ele>970.776236</ele>
        <time>2021-07-06T10:53:45+0200</time>
      </trkpt>
      <trkpt lat="45.67087" lon="2.95813">
        <ele>971.63143</ele>
        <time>2021-07-06T10:53:47+0200</time>
      </trkpt>
      <trkpt lat="45.6709" lon="2.95807">
        <ele>971.72294</ele>
        <time>2021-07-06T10:53:49+0200</time>
      </trkpt>
      <trkpt lat="45.67092" lon="2.95799">
        <ele>971.612773</ele>
        <time>2021-07-06T10:53:51+0200</time>
      </trkpt>
      <trkpt lat="45.67095" lon="2.95792">
        <ele>971.28061</ele>
        <time>2021-07-06T10:53:53+0200</time>
      </trkpt>
      <trkpt lat="45.67098" lon="2.95785">
        <ele>970.106538</ele>
        <time>2021-07-06T10:53:55+0200</time>
      </trkpt>
      <trkpt lat="45.67099" lon="2.95776">
        <ele>969.462135</ele>
        <time>2021-07-06T10:53:57+0200</time>
      </trkpt>
      <trkpt lat="45.67102" lon="2.95768">
        <ele>968.872481</ele>
        <time>2021-07-06T10:53:59+0200</time>
      </trkpt>
      <trkpt lat="45.67104" lon="2.9576">
        <ele>969.832213</ele>
        <time>2021-07-06T10:54:01+0200</time>
      </trkpt>
      <trkpt lat="45.67105" lon="2.95752">
        <ele>970.468995</ele>
        <time>2021-07-06T10:54:03+0200</time>
      </trkpt>
      <trkpt lat="45.67106" lon="2.95745">
        <ele>971.084886</ele>
        <time>2021-07-06T10:54:05+0200</time>
      </trkpt>
      <trkpt lat="45.67109" lon="2.95738">
        <ele>971.359374</ele>
        <time>2021-07-06T10:54:07+0200</time>
      </trkpt>
      <trkpt lat="45.67111" lon="2.95729">
        <ele>971.211541</ele>
        <time>2021-07-06T10:54:09+0200</time>
      </trkpt>
      <trkpt lat="45.67113" lon="2.95723">
        <ele>971.373597</ele>
        <time>2021-07-06T10:54:11+0200</time>
      </trkpt>
      <trkpt lat="45.67116" lon="2.95716">
        <ele>971.100888</ele>
        <time>2021-07-06T10:54:13+0200</time>
      </trkpt>
      <trkpt lat="45.67119" lon="2.95708">
        <ele>971.794531</ele>
        <time>2021-07-06T10:54:15+0200</time>
      </trkpt>
      <trkpt lat="45.67123" lon="2.95703">
        <ele>972.01116</ele>
        <time>2021-07-06T10:54:17+0200</time>
      </trkpt>
      <trkpt lat="45.67125" lon="2.95696">
        <ele>972.430989</ele>
        <time>2021-07-06T10:54:19+0200</time>
      </trkpt>
      <trkpt lat="45.67128" lon="2.95691">
        <ele>973.085515</ele>
        <time>2021-07-06T10:54:21+0200</time>
      </trkpt>
      <trkpt lat="45.67132" lon="2.95686">
        <ele>973.516152</ele>
        <time>2021-07-06T10:54:23+0200</time>
      </trkpt>
      <trkpt lat="45.67135" lon="2.95678">
        <ele>973.761238</ele>
        <time>2021-07-06T10:54:25+0200</time>
      </trkpt>
      <trkpt lat="45.67138" lon="2.95671">
        <ele>974.088958</ele>
        <time>2021-07-06T10:54:27+0200</time>
      </trkpt>
      <trkpt lat="45.67142" lon="2.95665">
        <ele>974.023074</ele>
        <time>2021-07-06T10:54:29+0200</time>
      </trkpt>
      <trkpt lat="45.67146" lon="2.95657">
        <ele>975.030936</ele>
        <time>2021-07-06T10:54:32+0200</time>
      </trkpt>
      <trkpt lat="45.67149" lon="2.95652">
        <ele>976.414259</ele>
        <time>2021-07-06T10:54:34+0200</time>
      </trkpt>
      <trkpt lat="45.67153" lon="2.95647">
        <ele>976.525139</ele>
        <time>2021-07-06T10:54:36+0200</time>
      </trkpt>
      <trkpt lat="45.67156" lon="2.95641">
        <ele>976.52003</ele>
        <time>2021-07-06T10:54:38+0200</time>
      </trkpt>
      <trkpt lat="45.6716" lon="2.95635">
        <ele>976.72347</ele>
        <time>2021-07-06T10:54:40+0200</time>
      </trkpt>
      <trkpt lat="45.67164" lon="2.95629">
        <ele>977.180394</ele>
        <time>2021-07-06T10:54:42+0200</time>
      </trkpt>
      <trkpt lat="45.67167" lon="2.95622">
        <ele>977.550545</ele>
        <time>2021-07-06T10:54:44+0200</time>
      </trkpt>
      <trkpt lat="45.67171" lon="2.95616">
        <ele>977.867844</ele>
        <time>2021-07-06T10:54:46+0200</time>
      </trkpt>
      <trkpt lat="45.67174" lon="2.95611">
        <ele>978.24642</ele>
        <time>2021-07-06T10:54:48+0200</time>
      </trkpt>
      <trkpt lat="45.67178" lon="2.95606">
        <ele>978.680211</ele>
        <time>2021-07-06T10:54:50+0200</time>
      </trkpt>
      <trkpt lat="45.67181" lon="2.95599">
        <ele>979.175157</ele>
        <time>2021-07-06T10:54:52+0200</time>
      </trkpt>
      <trkpt lat="45.67185" lon="2.95591">
        <ele>979.123732</ele>
        <time>2021-07-06T10:54:54+0200</time>
      </trkpt>
      <trkpt lat="45.67188" lon="2.95587">
        <ele>979.270107</ele>
        <time>2021-07-06T10:54:56+0200</time>
      </trkpt>
      <trkpt lat="45.67191" lon="2.95581">
        <ele>979.060429</ele>
        <time>2021-07-06T10:54:59+0200</time>
      </trkpt>
      <trkpt lat="45.67194" lon="2.95573">
        <ele>976.287446</ele>
        <time>2021-07-06T10:55:54+0200</time>
      </trkpt>
      <trkpt lat="45.67198" lon="2.95567">
        <ele>976.668256</ele>
        <time>2021-07-06T10:55:56+0200</time>
      </trkpt>
      <trkpt lat="45.67202" lon="2.9556">
        <ele>976.978797</ele>
        <time>2021-07-06T10:55:58+0200</time>
      </trkpt>
      <trkpt lat="45.67207" lon="2.95553">
        <ele>976.830797</ele>
        <time>2021-07-06T10:56:00+0200</time>
      </trkpt>
      <trkpt lat="45.67211" lon="2.95545">
        <ele>977.021551</ele>
        <time>2021-07-06T10:56:02+0200</time>
      </trkpt>
      <trkpt lat="45.67216" lon="2.95536">
        <ele>977.476479</ele>
        <time>2021-07-06T10:56:04+0200</time>
      </trkpt>
      <trkpt lat="45.67221" lon="2.95526">
        <ele>977.196274</ele>
        <time>2021-07-06T10:56:06+0200</time>
      </trkpt>
      <trkpt lat="45.67225" lon="2.95517">
        <ele>977.057297</ele>
        <time>2021-07-06T10:56:08+0200</time>
      </trkpt>
      <trkpt lat="45.67229" lon="2.95509">
        <ele>977.137861</ele>
        <time>2021-07-06T10:56:10+0200</time>
      </trkpt>
      <trkpt lat="45.67233" lon="2.95501">
        <ele>977.547198</ele>
        <time>2021-07-06T10:56:12+0200</time>
      </trkpt>
      <trkpt lat="45.67237" lon="2.95492">
        <ele>977.562725</ele>
        <time>2021-07-06T10:56:14+0200</time>
      </trkpt>
      <trkpt lat="45.6724" lon="2.95485">
        <ele>977.362021</ele>
        <time>2021-07-06T10:56:16+0200</time>
      </trkpt>
      <trkpt lat="45.67243" lon="2.95478">
        <ele>977.801679</ele>
        <time>2021-07-06T10:56:18+0200</time>
      </trkpt>
      <trkpt lat="45.67246" lon="2.95472">
        <ele>978.146254</ele>
        <time>2021-07-06T10:56:20+0200</time>
      </trkpt>
      <trkpt lat="45.67249" lon="2.95464">
        <ele>978.26829</ele>
        <time>2021-07-06T10:56:22+0200</time>
      </trkpt>
      <trkpt lat="45.67252" lon="2.95457">
        <ele>978.548315</ele>
        <time>2021-07-06T10:56:24+0200</time>
      </trkpt>
      <trkpt lat="45.67255" lon="2.9545">
        <ele>978.604992</ele>
        <time>2021-07-06T10:56:26+0200</time>
      </trkpt>
      <trkpt lat="45.67258" lon="2.95442">
        <ele>978.72726</ele>
        <time>2021-07-06T10:56:28+0200</time>
      </trkpt>
      <trkpt lat="45.67261" lon="2.95435">
        <ele>978.275655</ele>
        <time>2021-07-06T10:56:30+0200</time>
      </trkpt>
      <trkpt lat="45.67265" lon="2.95428">
        <ele>977.788557</ele>
        <time>2021-07-06T10:56:32+0200</time>
      </trkpt>
      <trkpt lat="45.67268" lon="2.95421">
        <ele>977.73715</ele>
        <time>2021-07-06T10:56:34+0200</time>
      </trkpt>
      <trkpt lat="45.6727" lon="2.95415">
        <ele>977.315876</ele>
        <time>2021-07-06T10:56:36+0200</time>
      </trkpt>
      <trkpt lat="45.67273" lon="2.95407">
        <ele>977.416023</ele>
        <time>2021-07-06T10:56:38+0200</time>
      </trkpt>
      <trkpt lat="45.67276" lon="2.95402">
        <ele>977.524574</ele>
        <time>2021-07-06T10:56:40+0200</time>
      </trkpt>
      <trkpt lat="45.67279" lon="2.95394">
        <ele>977.301638</ele>
        <time>2021-07-06T10:56:42+0200</time>
      </trkpt>
      <trkpt lat="45.67282" lon="2.95387">
        <ele>977.118103</ele>
        <time>2021-07-06T10:56:44+0200</time>
      </trkpt>
      <trkpt lat="45.67285" lon="2.9538">
        <ele>977.009474</ele>
        <time>2021-07-06T10:56:46+0200</time>
      </trkpt>
      <trkpt lat="45.67289" lon="2.95373">
        <ele>976.812518</ele>
        <time>2021-07-06T10:56:48+0200</time>
      </trkpt>
      <trkpt lat="45.67291" lon="2.95366">
        <ele>977.099496</ele>
        <time>2021-07-06T10:56:50+0200</time>
      </trkpt>
      <trkpt lat="45.67294" lon="2.95359">
        <ele>977.015408</ele>
        <time>2021-07-06T10:56:52+0200</time>
      </trkpt>
      <trkpt lat="45.67298" lon="2.95353">
        <ele>977.109532</ele>
        <time>2021-07-06T10:56:54+0200</time>
      </trkpt>
      <trkpt lat="45.67301" lon="2.95346">
        <ele>976.64522</ele>
        <time>2021-07-06T10:56:56+0200</time>
      </trkpt>
      <trkpt lat="45.67304" lon="2.95339">
        <ele>976.650773</ele>
        <time>2021-07-06T10:56:58+0200</time>
      </trkpt>
      <trkpt lat="45.67307" lon="2.95332">
        <ele>976.953035</ele>
        <time>2021-07-06T10:57:00+0200</time>
      </trkpt>
      <trkpt lat="45.67309" lon="2.95324">
        <ele>976.913326</ele>
        <time>2021-07-06T10:57:02+0200</time>
      </trkpt>
      <trkpt lat="45.67306" lon="2.95317">
        <ele>977.409085</ele>
        <time>2021-07-06T10:57:04+0200</time>
      </trkpt>
      <trkpt lat="45.67301" lon="2.95313">
        <ele>978.015247</ele>
        <time>2021-07-06T10:57:06+0200</time>
      </trkpt>
      <trkpt lat="45.67296" lon="2.95309">
        <ele>978.449225</ele>
        <time>2021-07-06T10:57:09+0200</time>
      </trkpt>
      <trkpt lat="45.67291" lon="2.95306">
        <ele>978.724293</ele>
        <time>2021-07-06T10:57:11+0200</time>
      </trkpt>
      <trkpt lat="45.67286" lon="2.95302">
        <ele>978.964959</ele>
        <time>2021-07-06T10:57:14+0200</time>
      </trkpt>
      <trkpt lat="45.6728" lon="2.95298">
        <ele>979.441029</ele>
        <time>2021-07-06T10:57:17+0200</time>
      </trkpt>
      <trkpt lat="45.67274" lon="2.95292">
        <ele>979.570726</ele>
        <time>2021-07-06T10:57:20+0200</time>
      </trkpt>
      <trkpt lat="45.67268" lon="2.95288">
        <ele>980.802753</ele>
        <time>2021-07-06T10:57:23+0200</time>
      </trkpt>
      <trkpt lat="45.67264" lon="2.95284">
        <ele>980.649646</ele>
        <time>2021-07-06T10:57:25+0200</time>
      </trkpt>
      <trkpt lat="45.67259" lon="2.95281">
        <ele>981.391222</ele>
        <time>2021-07-06T10:57:28+0200</time>
      </trkpt>
      <trkpt lat="45.67253" lon="2.95277">
        <ele>981.605953</ele>
        <time>2021-07-06T10:57:31+0200</time>
      </trkpt>
      <trkpt lat="45.67248" lon="2.95274">
        <ele>981.752714</ele>
        <time>2021-07-06T10:57:34+0200</time>
      </trkpt>
      <trkpt lat="45.67243" lon="2.95272">
        <ele>981.885153</ele>
        <time>2021-07-06T10:57:36+0200</time>
      </trkpt>
      <trkpt lat="45.67238" lon="2.95269">
        <ele>981.960879</ele>
        <time>2021-07-06T10:57:38+0200</time>
      </trkpt>
      <trkpt lat="45.67233" lon="2.95263">
        <ele>982.096356</ele>
        <time>2021-07-06T10:57:41+0200</time>
      </trkpt>
      <trkpt lat="45.67227" lon="2.9526">
        <ele>982.602965</ele>
        <time>2021-07-06T10:57:44+0200</time>
      </trkpt>
      <trkpt lat="45.67222" lon="2.95256">
        <ele>983.152219</ele>
        <time>2021-07-06T10:57:47+0200</time>
      </trkpt>
      <trkpt lat="45.67217" lon="2.95252">
        <ele>984.046646</ele>
        <time>2021-07-06T10:57:50+0200</time>
      </trkpt>
      <trkpt lat="45.67213" lon="2.9525">
        <ele>984.419019</ele>
        <time>2021-07-06T10:57:52+0200</time>
      </trkpt>
      <trkpt lat="45.67207" lon="2.95245">
        <ele>984.437433</ele>
        <time>2021-07-06T10:57:55+0200</time>
      </trkpt>
      <trkpt lat="45.67201" lon="2.95239">
        <ele>984.793992</ele>
        <time>2021-07-06T10:57:58+0200</time>
      </trkpt>
      <trkpt lat="45.67197" lon="2.95235">
        <ele>985.079919</ele>
        <time>2021-07-06T10:58:00+0200</time>
      </trkpt>
      <trkpt lat="45.67192" lon="2.95232">
        <ele>985.670711</ele>
        <time>2021-07-06T10:58:02+0200</time>
      </trkpt>
      <trkpt lat="45.67188" lon="2.95227">
        <ele>985.892357</ele>
        <time>2021-07-06T10:58:04+0200</time>
      </trkpt>
      <trkpt lat="45.67182" lon="2.95223">
        <ele>986.230071</ele>
        <time>2021-07-06T10:58:07+0200</time>
      </trkpt>
      <trkpt lat="45.67176" lon="2.95218">
        <ele>986.546925</ele>
        <time>2021-07-06T10:58:10+0200</time>
      </trkpt>
      <trkpt lat="45.67172" lon="2.95214">
        <ele>986.643645</ele>
        <time>2021-07-06T10:58:12+0200</time>
      </trkpt>
      <trkpt lat="45.67166" lon="2.9521">
        <ele>986.704654</ele>
        <time>2021-07-06T10:58:15+0200</time>
      </trkpt>
      <trkpt lat="45.67161" lon="2.95206">
        <ele>987.452148</ele>
        <time>2021-07-06T10:58:18+0200</time>
      </trkpt>
      <trkpt lat="45.67156" lon="2.95201">
        <ele>987.889989</ele>
        <time>2021-07-06T10:58:21+0200</time>
      </trkpt>
      <trkpt lat="45.6715" lon="2.95196">
        <ele>988.473526</ele>
        <time>2021-07-06T10:58:24+0200</time>
      </trkpt>
      <trkpt lat="45.67146" lon="2.95194">
        <ele>988.257402</ele>
        <time>2021-07-06T10:58:26+0200</time>
      </trkpt>
      <trkpt lat="45.67142" lon="2.9519">
        <ele>988.761011</ele>
        <time>2021-07-06T10:58:28+0200</time>
      </trkpt>
      <trkpt lat="45.67137" lon="2.95186">
        <ele>988.949674</ele>
        <time>2021-07-06T10:58:30+0200</time>
      </trkpt>
      <trkpt lat="45.67132" lon="2.95183">
        <ele>989.777465</ele>
        <time>2021-07-06T10:58:33+0200</time>
      </trkpt>
      <trkpt lat="45.67127" lon="2.95178">
        <ele>989.975354</ele>
        <time>2021-07-06T10:58:36+0200</time>
      </trkpt>
      <trkpt lat="45.67121" lon="2.95174">
        <ele>990.465665</ele>
        <time>2021-07-06T10:58:39+0200</time>
      </trkpt>
      <trkpt lat="45.67115" lon="2.95171">
        <ele>990.572518</ele>
        <time>2021-07-06T10:58:42+0200</time>
      </trkpt>
      <trkpt lat="45.6711" lon="2.95168">
        <ele>990.789095</ele>
        <time>2021-07-06T10:58:45+0200</time>
      </trkpt>
      <trkpt lat="45.67105" lon="2.95166">
        <ele>991.069027</ele>
        <time>2021-07-06T10:58:48+0200</time>
      </trkpt>
      <trkpt lat="45.67101" lon="2.95163">
        <ele>991.196809</ele>
        <time>2021-07-06T10:58:50+0200</time>
      </trkpt>
      <trkpt lat="45.67096" lon="2.95158">
        <ele>991.80474</ele>
        <time>2021-07-06T10:58:53+0200</time>
      </trkpt>
      <trkpt lat="45.67091" lon="2.95153">
        <ele>992.46653</ele>
        <time>2021-07-06T10:58:56+0200</time>
      </trkpt>
      <trkpt lat="45.67087" lon="2.95148">
        <ele>993.183193</ele>
        <time>2021-07-06T10:58:59+0200</time>
      </trkpt>
      <trkpt lat="45.67083" lon="2.95144">
        <ele>993.626338</ele>
        <time>2021-07-06T10:59:02+0200</time>
      </trkpt>
      <trkpt lat="45.67078" lon="2.95141">
        <ele>994.004959</ele>
        <time>2021-07-06T10:59:06+0200</time>
      </trkpt>
      <trkpt lat="45.67073" lon="2.95137">
        <ele>994.323713</ele>
        <time>2021-07-06T10:59:09+0200</time>
      </trkpt>
      <trkpt lat="45.67069" lon="2.95132">
        <ele>994.589566</ele>
        <time>2021-07-06T10:59:12+0200</time>
      </trkpt>
      <trkpt lat="45.67065" lon="2.95127">
        <ele>995.148074</ele>
        <time>2021-07-06T10:59:15+0200</time>
      </trkpt>
      <trkpt lat="45.67061" lon="2.95122">
        <ele>995.490784</ele>
        <time>2021-07-06T10:59:19+0200</time>
      </trkpt>
      <trkpt lat="45.67056" lon="2.95119">
        <ele>995.65998</ele>
        <time>2021-07-06T10:59:22+0200</time>
      </trkpt>
      <trkpt lat="45.67051" lon="2.95115">
        <ele>996.674422</ele>
        <time>2021-07-06T10:59:25+0200</time>
      </trkpt>
      <trkpt lat="45.67046" lon="2.95113">
        <ele>997.078395</ele>
        <time>2021-07-06T10:59:28+0200</time>
      </trkpt>
      <trkpt lat="45.6704" lon="2.95112">
        <ele>997.068635</ele>
        <time>2021-07-06T10:59:31+0200</time>
      </trkpt>
      <trkpt lat="45.67035" lon="2.95114">
        <ele>998.097397</ele>
        <time>2021-07-06T10:59:34+0200</time>
      </trkpt>
      <trkpt lat="45.67029" lon="2.95117">
        <ele>998.108376</ele>
        <time>2021-07-06T10:59:37+0200</time>
      </trkpt>
      <trkpt lat="45.67023" lon="2.95121">
        <ele>998.526821</ele>
        <time>2021-07-06T10:59:40+0200</time>
      </trkpt>
      <trkpt lat="45.67019" lon="2.95125">
        <ele>998.908955</ele>
        <time>2021-07-06T10:59:42+0200</time>
      </trkpt>
      <trkpt lat="45.67015" lon="2.95129">
        <ele>999.216293</ele>
        <time>2021-07-06T10:59:44+0200</time>
      </trkpt>
      <trkpt lat="45.6701" lon="2.95131">
        <ele>999.516281</ele>
        <time>2021-07-06T10:59:46+0200</time>
      </trkpt>
      <trkpt lat="45.67006" lon="2.95134">
        <ele>999.44388</ele>
        <time>2021-07-06T10:59:48+0200</time>
      </trkpt>
      <trkpt lat="45.67001" lon="2.9514">
        <ele>1000.466176</ele>
        <time>2021-07-06T10:59:51+0200</time>
      </trkpt>
      <trkpt lat="45.66996" lon="2.95145">
        <ele>1000.846194</ele>
        <time>2021-07-06T10:59:54+0200</time>
      </trkpt>
      <trkpt lat="45.66991" lon="2.95151">
        <ele>1001.492724</ele>
        <time>2021-07-06T10:59:57+0200</time>
      </trkpt>
      <trkpt lat="45.66986" lon="2.95156">
        <ele>1001.903223</ele>
        <time>2021-07-06T11:00:00+0200</time>
      </trkpt>
      <trkpt lat="45.66982" lon="2.95163">
        <ele>1002.246541</ele>
        <time>2021-07-06T11:00:03+0200</time>
      </trkpt>
      <trkpt lat="45.66978" lon="2.95167">
        <ele>1002.97606</ele>
        <time>2021-07-06T11:00:05+0200</time>
      </trkpt>
      <trkpt lat="45.66974" lon="2.95173">
        <ele>1003.983143</ele>
        <time>2021-07-06T11:00:08+0200</time>
      </trkpt>
      <trkpt lat="45.6697" lon="2.95178">
        <ele>1004.287447</ele>
        <time>2021-07-06T11:00:11+0200</time>
      </trkpt>
      <trkpt lat="45.66965" lon="2.95185">
        <ele>1004.620537</ele>
        <time>2021-07-06T11:00:14+0200</time>
      </trkpt>
      <trkpt lat="45.66962" lon="2.9519">
        <ele>1004.8649</ele>
        <time>2021-07-06T11:00:16+0200</time>
      </trkpt>
      <trkpt lat="45.66958" lon="2.95193">
        <ele>1004.626799</ele>
        <time>2021-07-06T11:00:18+0200</time>
      </trkpt>
      <trkpt lat="45.66952" lon="2.95196">
        <ele>1004.459322</ele>
        <time>2021-07-06T11:00:21+0200</time>
      </trkpt>
      <trkpt lat="45.66948" lon="2.95201">
        <ele>1005.037554</ele>
        <time>2021-07-06T11:00:23+0200</time>
      </trkpt>
      <trkpt lat="45.66943" lon="2.95207">
        <ele>1005.916154</ele>
        <time>2021-07-06T11:00:26+0200</time>
      </trkpt>
      <trkpt lat="45.66939" lon="2.95211">
        <ele>1006.145487</ele>
        <time>2021-07-06T11:00:28+0200</time>
      </trkpt>
      <trkpt lat="45.66935" lon="2.95216">
        <ele>1007.061412</ele>
        <time>2021-07-06T11:00:30+0200</time>
      </trkpt>
      <trkpt lat="45.6693" lon="2.95222">
        <ele>1007.570007</ele>
        <time>2021-07-06T11:00:33+0200</time>
      </trkpt>
      <trkpt lat="45.66927" lon="2.95226">
        <ele>1008.399632</ele>
        <time>2021-07-06T11:00:36+0200</time>
      </trkpt>
      <trkpt lat="45.66922" lon="2.95229">
        <ele>1008.227589</ele>
        <time>2021-07-06T11:00:38+0200</time>
      </trkpt>
      <trkpt lat="45.66918" lon="2.95232">
        <ele>1009.336291</ele>
        <time>2021-07-06T11:00:40+0200</time>
      </trkpt>
      <trkpt lat="45.66915" lon="2.95236">
        <ele>1009.359007</ele>
        <time>2021-07-06T11:00:42+0200</time>
      </trkpt>
      <trkpt lat="45.66911" lon="2.9524">
        <ele>1009.517662</ele>
        <time>2021-07-06T11:00:44+0200</time>
      </trkpt>
      <trkpt lat="45.66906" lon="2.95243">
        <ele>1009.816174</ele>
        <time>2021-07-06T11:00:47+0200</time>
      </trkpt>
      <trkpt lat="45.66902" lon="2.95248">
        <ele>1010.224123</ele>
        <time>2021-07-06T11:00:50+0200</time>
      </trkpt>
      <trkpt lat="45.66897" lon="2.9525">
        <ele>1011.469942</ele>
        <time>2021-07-06T11:00:53+0200</time>
      </trkpt>
      <trkpt lat="45.66893" lon="2.95253">
        <ele>1012.09881</ele>
        <time>2021-07-06T11:00:56+0200</time>
      </trkpt>
      <trkpt lat="45.66888" lon="2.95258">
        <ele>1013.363214</ele>
        <time>2021-07-06T11:00:59+0200</time>
      </trkpt>
      <trkpt lat="45.66883" lon="2.95261">
        <ele>1013.702246</ele>
        <time>2021-07-06T11:01:02+0200</time>
      </trkpt>
      <trkpt lat="45.66878" lon="2.95265">
        <ele>1015.302254</ele>
        <time>2021-07-06T11:01:06+0200</time>
      </trkpt>
      <trkpt lat="45.66873" lon="2.9527">
        <ele>1014.980406</ele>
        <time>2021-07-06T11:01:10+0200</time>
      </trkpt>
      <trkpt lat="45.66868" lon="2.95273">
        <ele>1014.805383</ele>
        <time>2021-07-06T11:01:13+0200</time>
      </trkpt>
      <trkpt lat="45.66863" lon="2.95276">
        <ele>1014.037139</ele>
        <time>2021-07-06T11:01:16+0200</time>
      </trkpt>
      <trkpt lat="45.6686" lon="2.95281">
        <ele>1015.958722</ele>
        <time>2021-07-06T11:01:20+0200</time>
      </trkpt>
      <trkpt lat="45.66854" lon="2.95285">
        <ele>1015.547013</ele>
        <time>2021-07-06T11:01:23+0200</time>
      </trkpt>
      <trkpt lat="45.6685" lon="2.95289">
        <ele>1015.59219</ele>
        <time>2021-07-06T11:01:26+0200</time>
      </trkpt>
      <trkpt lat="45.66845" lon="2.95293">
        <ele>1016.200094</ele>
        <time>2021-07-06T11:01:30+0200</time>
      </trkpt>
      <trkpt lat="45.6684" lon="2.95294">
        <ele>1016.788538</ele>
        <time>2021-07-06T11:01:32+0200</time>
      </trkpt>
      <trkpt lat="45.66835" lon="2.95297">
        <ele>1017.615261</ele>
        <time>2021-07-06T11:01:35+0200</time>
      </trkpt>
      <trkpt lat="45.66829" lon="2.95299">
        <ele>1017.354843</ele>
        <time>2021-07-06T11:01:38+0200</time>
      </trkpt>
      <trkpt lat="45.66823" lon="2.953">
        <ele>1017.22241</ele>
        <time>2021-07-06T11:01:41+0200</time>
      </trkpt>
      <trkpt lat="45.66818" lon="2.95302">
        <ele>1017.744807</ele>
        <time>2021-07-06T11:01:44+0200</time>
      </trkpt>
      <trkpt lat="45.66813" lon="2.95305">
        <ele>1019.334667</ele>
        <time>2021-07-06T11:01:47+0200</time>
      </trkpt>
      <trkpt lat="45.66808" lon="2.95311">
        <ele>1020.046509</ele>
        <time>2021-07-06T11:01:51+0200</time>
      </trkpt>
      <trkpt lat="45.66804" lon="2.95314">
        <ele>1019.590316</ele>
        <time>2021-07-06T11:01:54+0200</time>
      </trkpt>
      <trkpt lat="45.66799" lon="2.95318">
        <ele>1020.214728</ele>
        <time>2021-07-06T11:01:57+0200</time>
      </trkpt>
      <trkpt lat="45.66794" lon="2.95321">
        <ele>1021.427705</ele>
        <time>2021-07-06T11:02:00+0200</time>
      </trkpt>
      <trkpt lat="45.6679" lon="2.95325">
        <ele>1023.043956</ele>
        <time>2021-07-06T11:02:03+0200</time>
      </trkpt>
      <trkpt lat="45.66785" lon="2.95329">
        <ele>1023.888117</ele>
        <time>2021-07-06T11:02:07+0200</time>
      </trkpt>
      <trkpt lat="45.6678" lon="2.95333">
        <ele>1024.258605</ele>
        <time>2021-07-06T11:02:10+0200</time>
      </trkpt>
      <trkpt lat="45.66775" lon="2.95338">
        <ele>1024.2806</ele>
        <time>2021-07-06T11:02:13+0200</time>
      </trkpt>
      <trkpt lat="45.66769" lon="2.95339">
        <ele>1024.351888</ele>
        <time>2021-07-06T11:02:16+0200</time>
      </trkpt>
      <trkpt lat="45.66763" lon="2.95338">
        <ele>1024.582383</ele>
        <time>2021-07-06T11:02:19+0200</time>
      </trkpt>
      <trkpt lat="45.66759" lon="2.9534">
        <ele>1025.216433</ele>
        <time>2021-07-06T11:02:22+0200</time>
      </trkpt>
      <trkpt lat="45.66754" lon="2.95341">
        <ele>1026.055447</ele>
        <time>2021-07-06T11:02:25+0200</time>
      </trkpt>
      <trkpt lat="45.66747" lon="2.9534">
        <ele>1027.158604</ele>
        <time>2021-07-06T11:02:29+0200</time>
      </trkpt>
      <trkpt lat="45.66742" lon="2.9534">
        <ele>1027.995721</ele>
        <time>2021-07-06T11:02:32+0200</time>
      </trkpt>
      <trkpt lat="45.66736" lon="2.95341">
        <ele>1029.372805</ele>
        <time>2021-07-06T11:02:35+0200</time>
      </trkpt>
      <trkpt lat="45.66732" lon="2.95341">
        <ele>1030.98943</ele>
        <time>2021-07-06T11:02:38+0200</time>
      </trkpt>
      <trkpt lat="45.66727" lon="2.95342">
        <ele>1031.472197</ele>
        <time>2021-07-06T11:02:41+0200</time>
      </trkpt>
      <trkpt lat="45.66721" lon="2.9534">
        <ele>1031.383893</ele>
        <time>2021-07-06T11:02:45+0200</time>
      </trkpt>
      <trkpt lat="45.66715" lon="2.95338">
        <ele>1031.39549</ele>
        <time>2021-07-06T11:02:47+0200</time>
      </trkpt>
      <trkpt lat="45.66709" lon="2.95337">
        <ele>1030.896241</ele>
        <time>2021-07-06T11:02:50+0200</time>
      </trkpt>
      <trkpt lat="45.66704" lon="2.95334">
        <ele>1030.323347</ele>
        <time>2021-07-06T11:02:53+0200</time>
      </trkpt>
      <trkpt lat="45.66699" lon="2.95333">
        <ele>1030.281502</ele>
        <time>2021-07-06T11:02:56+0200</time>
      </trkpt>
      <trkpt lat="45.66694" lon="2.9533">
        <ele>1031.27409</ele>
        <time>2021-07-06T11:02:59+0200</time>
      </trkpt>
      <trkpt lat="45.66688" lon="2.95329">
        <ele>1031.582392</ele>
        <time>2021-07-06T11:03:02+0200</time>
      </trkpt>
      <trkpt lat="45.66682" lon="2.95328">
        <ele>1031.630802</ele>
        <time>2021-07-06T11:03:06+0200</time>
      </trkpt>
      <trkpt lat="45.66677" lon="2.95327">
        <ele>1032.895572</ele>
        <time>2021-07-06T11:03:09+0200</time>
      </trkpt>
      <trkpt lat="45.66672" lon="2.95327">
        <ele>1033.682114</ele>
        <time>2021-07-06T11:03:12+0200</time>
      </trkpt>
      <trkpt lat="45.66668" lon="2.95325">
        <ele>1033.371635</ele>
        <time>2021-07-06T11:03:15+0200</time>
      </trkpt>
      <trkpt lat="45.66662" lon="2.95321">
        <ele>1033.496887</ele>
        <time>2021-07-06T11:03:18+0200</time>
      </trkpt>
      <trkpt lat="45.66656" lon="2.95318">
        <ele>1033.975622</ele>
        <time>2021-07-06T11:03:21+0200</time>
      </trkpt>
      <trkpt lat="45.66652" lon="2.95314">
        <ele>1033.974984</ele>
        <time>2021-07-06T11:03:24+0200</time>
      </trkpt>
      <trkpt lat="45.66648" lon="2.95311">
        <ele>1034.833989</ele>
        <time>2021-07-06T11:03:27+0200</time>
      </trkpt>
      <trkpt lat="45.66643" lon="2.95311">
        <ele>1036.037087</ele>
        <time>2021-07-06T11:07:38+0200</time>
      </trkpt>
      <trkpt lat="45.66639" lon="2.95308">
        <ele>1034.221594</ele>
        <time>2021-07-06T11:07:49+0200</time>
      </trkpt>
      <trkpt lat="45.66633" lon="2.95305">
        <ele>1034.861687</ele>
        <time>2021-07-06T11:07:52+0200</time>
      </trkpt>
      <trkpt lat="45.66628" lon="2.95302">
        <ele>1035.112277</ele>
        <time>2021-07-06T11:07:54+0200</time>
      </trkpt>
      <trkpt lat="45.66623" lon="2.953">
        <ele>1035.105294</ele>
        <time>2021-07-06T11:07:56+0200</time>
      </trkpt>
      <trkpt lat="45.66619" lon="2.95296">
        <ele>1035.404809</ele>
        <time>2021-07-06T11:07:58+0200</time>
      </trkpt>
      <trkpt lat="45.66614" lon="2.95293">
        <ele>1035.376692</ele>
        <time>2021-07-06T11:08:00+0200</time>
      </trkpt>
      <trkpt lat="45.66609" lon="2.9529">
        <ele>1035.647337</ele>
        <time>2021-07-06T11:08:02+0200</time>
      </trkpt>
      <trkpt lat="45.66603" lon="2.95287">
        <ele>1035.463156</ele>
        <time>2021-07-06T11:08:04+0200</time>
      </trkpt>
      <trkpt lat="45.66598" lon="2.95283">
        <ele>1035.817611</ele>
        <time>2021-07-06T11:08:06+0200</time>
      </trkpt>
      <trkpt lat="45.66592" lon="2.9528">
        <ele>1035.950781</ele>
        <time>2021-07-06T11:08:08+0200</time>
      </trkpt>
      <trkpt lat="45.66588" lon="2.95277">
        <ele>1036.220258</ele>
        <time>2021-07-06T11:08:10+0200</time>
      </trkpt>
      <trkpt lat="45.66583" lon="2.95273">
        <ele>1036.519432</ele>
        <time>2021-07-06T11:08:12+0200</time>
      </trkpt>
      <trkpt lat="45.66578" lon="2.95268">
        <ele>1036.287772</ele>
        <time>2021-07-06T11:08:14+0200</time>
      </trkpt>
      <trkpt lat="45.66573" lon="2.95262">
        <ele>1035.988308</ele>
        <time>2021-07-06T11:08:16+0200</time>
      </trkpt>
      <trkpt lat="45.66568" lon="2.95256">
        <ele>1035.909584</ele>
        <time>2021-07-06T11:08:18+0200</time>
      </trkpt>
      <trkpt lat="45.66562" lon="2.95251">
        <ele>1035.879348</ele>
        <time>2021-07-06T11:08:20+0200</time>
      </trkpt>
      <trkpt lat="45.66557" lon="2.95244">
        <ele>1035.925938</ele>
        <time>2021-07-06T11:08:22+0200</time>
      </trkpt>
      <trkpt lat="45.66551" lon="2.95239">
        <ele>1036.027497</ele>
        <time>2021-07-06T11:08:24+0200</time>
      </trkpt>
      <trkpt lat="45.66546" lon="2.95233">
        <ele>1035.837767</ele>
        <time>2021-07-06T11:08:26+0200</time>
      </trkpt>
      <trkpt lat="45.66541" lon="2.95227">
        <ele>1035.694918</ele>
        <time>2021-07-06T11:08:28+0200</time>
      </trkpt>
      <trkpt lat="45.66537" lon="2.95221">
        <ele>1035.64366</ele>
        <time>2021-07-06T11:08:30+0200</time>
      </trkpt>
      <trkpt lat="45.66531" lon="2.95218">
        <ele>1035.752375</ele>
        <time>2021-07-06T11:08:32+0200</time>
      </trkpt>
      <trkpt lat="45.66526" lon="2.95212">
        <ele>1036.096781</ele>
        <time>2021-07-06T11:08:35+0200</time>
      </trkpt>
      <trkpt lat="45.66522" lon="2.95206">
        <ele>1036.298999</ele>
        <time>2021-07-06T11:08:38+0200</time>
      </trkpt>
      <trkpt lat="45.66517" lon="2.95202">
        <ele>1035.634148</ele>
        <time>2021-07-06T11:08:40+0200</time>
      </trkpt>
      <trkpt lat="45.66513" lon="2.95197">
        <ele>1035.229602</ele>
        <time>2021-07-06T11:08:42+0200</time>
      </trkpt>
      <trkpt lat="45.66508" lon="2.95192">
        <ele>1034.56819</ele>
        <time>2021-07-06T11:08:44+0200</time>
      </trkpt>
      <trkpt lat="45.66502" lon="2.95187">
        <ele>1034.680698</ele>
        <time>2021-07-06T11:08:46+0200</time>
      </trkpt>
      <trkpt lat="45.66496" lon="2.95181">
        <ele>1034.522859</ele>
        <time>2021-07-06T11:08:48+0200</time>
      </trkpt>
      <trkpt lat="45.66491" lon="2.95175">
        <ele>1034.669335</ele>
        <time>2021-07-06T11:08:50+0200</time>
      </trkpt>
      <trkpt lat="45.66484" lon="2.9517">
        <ele>1034.086366</ele>
        <time>2021-07-06T11:08:52+0200</time>
      </trkpt>
      <trkpt lat="45.6648" lon="2.95166">
        <ele>1034.082462</ele>
        <time>2021-07-06T11:08:53+0200</time>
      </trkpt>
      <trkpt lat="45.66474" lon="2.95157">
        <ele>1033.733046</ele>
        <time>2021-07-06T11:08:55+0200</time>
      </trkpt>
      <trkpt lat="45.66468" lon="2.9515">
        <ele>1034.273837</ele>
        <time>2021-07-06T11:08:57+0200</time>
      </trkpt>
      <trkpt lat="45.66462" lon="2.95139">
        <ele>1034.151089</ele>
        <time>2021-07-06T11:08:59+0200</time>
      </trkpt>
      <trkpt lat="45.66458" lon="2.95134">
        <ele>1033.969296</ele>
        <time>2021-07-06T11:09:00+0200</time>
      </trkpt>
      <trkpt lat="45.66455" lon="2.95129">
        <ele>1033.677952</ele>
        <time>2021-07-06T11:09:01+0200</time>
      </trkpt>
      <trkpt lat="45.66452" lon="2.95123">
        <ele>1033.615319</ele>
        <time>2021-07-06T11:09:02+0200</time>
      </trkpt>
      <trkpt lat="45.66448" lon="2.95117">
        <ele>1033.135231</ele>
        <time>2021-07-06T11:09:03+0200</time>
      </trkpt>
      <trkpt lat="45.66444" lon="2.95111">
        <ele>1032.680607</ele>
        <time>2021-07-06T11:09:04+0200</time>
      </trkpt>
      <trkpt lat="45.6644" lon="2.95105">
        <ele>1032.187514</ele>
        <time>2021-07-06T11:09:05+0200</time>
      </trkpt>
      <trkpt lat="45.66436" lon="2.951">
        <ele>1032.118196</ele>
        <time>2021-07-06T11:09:06+0200</time>
      </trkpt>
      <trkpt lat="45.66433" lon="2.95094">
        <ele>1031.759024</ele>
        <time>2021-07-06T11:09:07+0200</time>
      </trkpt>
      <trkpt lat="45.66431" lon="2.95087">
        <ele>1031.30594</ele>
        <time>2021-07-06T11:09:08+0200</time>
      </trkpt>
      <trkpt lat="45.66427" lon="2.95082">
        <ele>1031.070267</ele>
        <time>2021-07-06T11:09:09+0200</time>
      </trkpt>
      <trkpt lat="45.66422" lon="2.95078">
        <ele>1030.832589</ele>
        <time>2021-07-06T11:09:10+0200</time>
      </trkpt>
      <trkpt lat="45.66417" lon="2.95072">
        <ele>1029.873044</ele>
        <time>2021-07-06T11:09:11+0200</time>
      </trkpt>
      <trkpt lat="45.66412" lon="2.95069">
        <ele>1029.856182</ele>
        <time>2021-07-06T11:09:12+0200</time>
      </trkpt>
      <trkpt lat="45.66407" lon="2.95065">
        <ele>1028.915633</ele>
        <time>2021-07-06T11:09:13+0200</time>
      </trkpt>
      <trkpt lat="45.66403" lon="2.95059">
        <ele>1028.430959</ele>
        <time>2021-07-06T11:09:14+0200</time>
      </trkpt>
      <trkpt lat="45.66397" lon="2.95054">
        <ele>1028.077765</ele>
        <time>2021-07-06T11:09:15+0200</time>
      </trkpt>
      <trkpt lat="45.66393" lon="2.95048">
        <ele>1027.584065</ele>
        <time>2021-07-06T11:09:16+0200</time>
      </trkpt>
      <trkpt lat="45.66388" lon="2.95043">
        <ele>1027.520072</ele>
        <time>2021-07-06T11:09:17+0200</time>
      </trkpt>
      <trkpt lat="45.66383" lon="2.95037">
        <ele>1027.603743</ele>
        <time>2021-07-06T11:09:18+0200</time>
      </trkpt>
      <trkpt lat="45.66378" lon="2.95032">
        <ele>1027.563684</ele>
        <time>2021-07-06T11:09:19+0200</time>
      </trkpt>
      <trkpt lat="45.66373" lon="2.95026">
        <ele>1027.313033</ele>
        <time>2021-07-06T11:09:20+0200</time>
      </trkpt>
      <trkpt lat="45.66369" lon="2.95021">
        <ele>1027.644132</ele>
        <time>2021-07-06T11:09:21+0200</time>
      </trkpt>
      <trkpt lat="45.66364" lon="2.95016">
        <ele>1027.339605</ele>
        <time>2021-07-06T11:09:22+0200</time>
      </trkpt>
      <trkpt lat="45.6636" lon="2.95011">
        <ele>1027.257812</ele>
        <time>2021-07-06T11:09:23+0200</time>
      </trkpt>
      <trkpt lat="45.66356" lon="2.95007">
        <ele>1027.291985</ele>
        <time>2021-07-06T11:09:24+0200</time>
      </trkpt>
      <trkpt lat="45.66351" lon="2.95002">
        <ele>1027.323632</ele>
        <time>2021-07-06T11:09:25+0200</time>
      </trkpt>
      <trkpt lat="45.66347" lon="2.94996">
        <ele>1027.133822</ele>
        <time>2021-07-06T11:09:26+0200</time>
      </trkpt>
      <trkpt lat="45.66343" lon="2.94993">
        <ele>1027.528504</ele>
        <time>2021-07-06T11:09:27+0200</time>
      </trkpt>
      <trkpt lat="45.66339" lon="2.94989">
        <ele>1027.162996</ele>
        <time>2021-07-06T11:09:28+0200</time>
      </trkpt>
      <trkpt lat="45.66335" lon="2.94985">
        <ele>1026.841658</ele>
        <time>2021-07-06T11:09:29+0200</time>
      </trkpt>
      <trkpt lat="45.6633" lon="2.94981">
        <ele>1026.955562</ele>
        <time>2021-07-06T11:09:30+0200</time>
      </trkpt>
      <trkpt lat="45.66325" lon="2.94978">
        <ele>1027.398518</ele>
        <time>2021-07-06T11:09:31+0200</time>
      </trkpt>
      <trkpt lat="45.66321" lon="2.94975">
        <ele>1027.960521</ele>
        <time>2021-07-06T11:09:32+0200</time>
      </trkpt>
      <trkpt lat="45.66316" lon="2.94972">
        <ele>1027.845414</ele>
        <time>2021-07-06T11:09:33+0200</time>
      </trkpt>
      <trkpt lat="45.66311" lon="2.94969">
        <ele>1027.482523</ele>
        <time>2021-07-06T11:09:34+0200</time>
      </trkpt>
      <trkpt lat="45.66306" lon="2.94965">
        <ele>1026.876731</ele>
        <time>2021-07-06T11:09:35+0200</time>
      </trkpt>
      <trkpt lat="45.66301" lon="2.94962">
        <ele>1026.242009</ele>
        <time>2021-07-06T11:09:36+0200</time>
      </trkpt>
      <trkpt lat="45.66296" lon="2.94958">
        <ele>1025.862635</ele>
        <time>2021-07-06T11:09:37+0200</time>
      </trkpt>
      <trkpt lat="45.66292" lon="2.94955">
        <ele>1025.537134</ele>
        <time>2021-07-06T11:09:38+0200</time>
      </trkpt>
      <trkpt lat="45.66287" lon="2.94951">
        <ele>1025.946753</ele>
        <time>2021-07-06T11:09:39+0200</time>
      </trkpt>
      <trkpt lat="45.66283" lon="2.94948">
        <ele>1025.633312</ele>
        <time>2021-07-06T11:09:40+0200</time>
      </trkpt>
      <trkpt lat="45.66278" lon="2.94943">
        <ele>1026.149947</ele>
        <time>2021-07-06T11:09:44+0200</time>
      </trkpt>
      <trkpt lat="45.66282" lon="2.94948">
        <ele>1031.625211</ele>
        <time>2021-07-06T11:09:53+0200</time>
      </trkpt>
      <trkpt lat="45.66288" lon="2.94947">
        <ele>1029.984131</ele>
        <time>2021-07-06T11:09:55+0200</time>
      </trkpt>
      <trkpt lat="45.66293" lon="2.9494">
        <ele>1029.10057</ele>
        <time>2021-07-06T11:09:57+0200</time>
      </trkpt>
      <trkpt lat="45.66296" lon="2.94934">
        <ele>1027.62966</ele>
        <time>2021-07-06T11:09:59+0200</time>
      </trkpt>
      <trkpt lat="45.66298" lon="2.94926">
        <ele>1028.525298</ele>
        <time>2021-07-06T11:10:02+0200</time>
      </trkpt>
      <trkpt lat="45.66301" lon="2.9492">
        <ele>1030.644203</ele>
        <time>2021-07-06T11:10:05+0200</time>
      </trkpt>
      <trkpt lat="45.66306" lon="2.94914">
        <ele>1030.57008</ele>
        <time>2021-07-06T11:10:07+0200</time>
      </trkpt>
      <trkpt lat="45.66311" lon="2.94908">
        <ele>1030.728383</ele>
        <time>2021-07-06T11:10:09+0200</time>
      </trkpt>
      <trkpt lat="45.66316" lon="2.94902">
        <ele>1030.315415</ele>
        <time>2021-07-06T11:10:11+0200</time>
      </trkpt>
      <trkpt lat="45.66321" lon="2.94896">
        <ele>1030.364129</ele>
        <time>2021-07-06T11:10:13+0200</time>
      </trkpt>
      <trkpt lat="45.66326" lon="2.94889">
        <ele>1031.894697</ele>
        <time>2021-07-06T11:10:15+0200</time>
      </trkpt>
      <trkpt lat="45.66331" lon="2.94882">
        <ele>1030.548905</ele>
        <time>2021-07-06T11:10:17+0200</time>
      </trkpt>
      <trkpt lat="45.66337" lon="2.94876">
        <ele>1031.559093</ele>
        <time>2021-07-06T11:10:19+0200</time>
      </trkpt>
      <trkpt lat="45.66342" lon="2.94871">
        <ele>1031.910522</ele>
        <time>2021-07-06T11:10:21+0200</time>
      </trkpt>
      <trkpt lat="45.66348" lon="2.94864">
        <ele>1032.4534</ele>
        <time>2021-07-06T11:10:23+0200</time>
      </trkpt>
      <trkpt lat="45.66353" lon="2.94857">
        <ele>1032.491916</ele>
        <time>2021-07-06T11:10:25+0200</time>
      </trkpt>
      <trkpt lat="45.66358" lon="2.94851">
        <ele>1032.637867</ele>
        <time>2021-07-06T11:10:27+0200</time>
      </trkpt>
      <trkpt lat="45.66363" lon="2.94844">
        <ele>1032.738928</ele>
        <time>2021-07-06T11:10:29+0200</time>
      </trkpt>
      <trkpt lat="45.66368" lon="2.94838">
        <ele>1033.516067</ele>
        <time>2021-07-06T11:10:31+0200</time>
      </trkpt>
      <trkpt lat="45.66373" lon="2.94831">
        <ele>1033.279048</ele>
        <time>2021-07-06T11:10:33+0200</time>
      </trkpt>
      <trkpt lat="45.66377" lon="2.94823">
        <ele>1033.610631</ele>
        <time>2021-07-06T11:10:35+0200</time>
      </trkpt>
      <trkpt lat="45.66378" lon="2.94814">
        <ele>1033.284513</ele>
        <time>2021-07-06T11:10:37+0200</time>
      </trkpt>
      <trkpt lat="45.66377" lon="2.94807">
        <ele>1033.413365</ele>
        <time>2021-07-06T11:10:39+0200</time>
      </trkpt>
      <trkpt lat="45.66374" lon="2.94798">
        <ele>1033.390117</ele>
        <time>2021-07-06T11:10:42+0200</time>
      </trkpt>
      <trkpt lat="45.66371" lon="2.94792">
        <ele>1032.955694</ele>
        <time>2021-07-06T11:10:44+0200</time>
      </trkpt>
      <trkpt lat="45.66369" lon="2.94786">
        <ele>1033.359999</ele>
        <time>2021-07-06T11:10:46+0200</time>
      </trkpt>
      <trkpt lat="45.66366" lon="2.94779">
        <ele>1035.207838</ele>
        <time>2021-07-06T11:10:48+0200</time>
      </trkpt>
      <trkpt lat="45.66364" lon="2.94771">
        <ele>1037.321867</ele>
        <time>2021-07-06T11:10:50+0200</time>
      </trkpt>
      <trkpt lat="45.66361" lon="2.94764">
        <ele>1038.714403</ele>
        <time>2021-07-06T11:10:52+0200</time>
      </trkpt>
      <trkpt lat="45.66358" lon="2.94755">
        <ele>1037.67309</ele>
        <time>2021-07-06T11:10:55+0200</time>
      </trkpt>
      <trkpt lat="45.66353" lon="2.94748">
        <ele>1037.264402</ele>
        <time>2021-07-06T11:10:57+0200</time>
      </trkpt>
      <trkpt lat="45.66352" lon="2.9474">
        <ele>1038.049396</ele>
        <time>2021-07-06T11:10:59+0200</time>
      </trkpt>
      <trkpt lat="45.66347" lon="2.94733">
        <ele>1036.521507</ele>
        <time>2021-07-06T11:11:01+0200</time>
      </trkpt>
      <trkpt lat="45.66344" lon="2.94726">
        <ele>1036.112661</ele>
        <time>2021-07-06T11:11:03+0200</time>
      </trkpt>
      <trkpt lat="45.66339" lon="2.94717">
        <ele>1034.883778</ele>
        <time>2021-07-06T11:11:05+0200</time>
      </trkpt>
      <trkpt lat="45.66335" lon="2.94709">
        <ele>1036.109156</ele>
        <time>2021-07-06T11:11:07+0200</time>
      </trkpt>
      <trkpt lat="45.66331" lon="2.94705">
        <ele>1034.408408</ele>
        <time>2021-07-06T11:11:08+0200</time>
      </trkpt>
      <trkpt lat="45.66328" lon="2.94696">
        <ele>1034.989646</ele>
        <time>2021-07-06T11:11:10+0200</time>
      </trkpt>
      <trkpt lat="45.66324" lon="2.94687">
        <ele>1035.07345</ele>
        <time>2021-07-06T11:11:12+0200</time>
      </trkpt>
      <trkpt lat="45.66321" lon="2.94677">
        <ele>1034.885023</ele>
        <time>2021-07-06T11:11:14+0200</time>
      </trkpt>
      <trkpt lat="45.66317" lon="2.9467">
        <ele>1035.291154</ele>
        <time>2021-07-06T11:11:16+0200</time>
      </trkpt>
      <trkpt lat="45.66313" lon="2.94662">
        <ele>1035.298565</ele>
        <time>2021-07-06T11:11:18+0200</time>
      </trkpt>
      <trkpt lat="45.66308" lon="2.94655">
        <ele>1035.378739</ele>
        <time>2021-07-06T11:11:20+0200</time>
      </trkpt>
      <trkpt lat="45.66305" lon="2.94648">
        <ele>1035.504303</ele>
        <time>2021-07-06T11:11:22+0200</time>
      </trkpt>
      <trkpt lat="45.66302" lon="2.94642">
        <ele>1035.947886</ele>
        <time>2021-07-06T11:11:24+0200</time>
      </trkpt>
      <trkpt lat="45.66298" lon="2.94636">
        <ele>1035.946229</ele>
        <time>2021-07-06T11:11:26+0200</time>
      </trkpt>
      <trkpt lat="45.66295" lon="2.94629">
        <ele>1035.800558</ele>
        <time>2021-07-06T11:11:28+0200</time>
      </trkpt>
      <trkpt lat="45.66291" lon="2.94624">
        <ele>1036.646155</ele>
        <time>2021-07-06T11:11:31+0200</time>
      </trkpt>
      <trkpt lat="45.66287" lon="2.94617">
        <ele>1036.592129</ele>
        <time>2021-07-06T11:11:34+0200</time>
      </trkpt>
      <trkpt lat="45.66282" lon="2.94612">
        <ele>1035.789207</ele>
        <time>2021-07-06T11:11:36+0200</time>
      </trkpt>
      <trkpt lat="45.66278" lon="2.94607">
        <ele>1035.822037</ele>
        <time>2021-07-06T11:11:38+0200</time>
      </trkpt>
      <trkpt lat="45.66276" lon="2.94599">
        <ele>1035.352596</ele>
        <time>2021-07-06T11:11:40+0200</time>
      </trkpt>
      <trkpt lat="45.66273" lon="2.94592">
        <ele>1034.946511</ele>
        <time>2021-07-06T11:11:42+0200</time>
      </trkpt>
      <trkpt lat="45.6627" lon="2.94585">
        <ele>1034.434927</ele>
        <time>2021-07-06T11:11:44+0200</time>
      </trkpt>
      <trkpt lat="45.66266" lon="2.94578">
        <ele>1034.27901</ele>
        <time>2021-07-06T11:11:46+0200</time>
      </trkpt>
      <trkpt lat="45.66263" lon="2.94571">
        <ele>1034.673864</ele>
        <time>2021-07-06T11:11:48+0200</time>
      </trkpt>
      <trkpt lat="45.6626" lon="2.94564">
        <ele>1035.005434</ele>
        <time>2021-07-06T11:11:50+0200</time>
      </trkpt>
      <trkpt lat="45.66256" lon="2.94558">
        <ele>1035.934838</ele>
        <time>2021-07-06T11:11:52+0200</time>
      </trkpt>
      <trkpt lat="45.66253" lon="2.94549">
        <ele>1035.729872</ele>
        <time>2021-07-06T11:11:54+0200</time>
      </trkpt>
      <trkpt lat="45.66249" lon="2.94542">
        <ele>1036.71032</ele>
        <time>2021-07-06T11:11:56+0200</time>
      </trkpt>
      <trkpt lat="45.66244" lon="2.94533">
        <ele>1035.559692</ele>
        <time>2021-07-06T11:11:58+0200</time>
      </trkpt>
      <trkpt lat="45.6624" lon="2.94523">
        <ele>1035.262152</ele>
        <time>2021-07-06T11:12:00+0200</time>
      </trkpt>
      <trkpt lat="45.66237" lon="2.94515">
        <ele>1035.235045</ele>
        <time>2021-07-06T11:12:02+0200</time>
      </trkpt>
      <trkpt lat="45.66232" lon="2.94506">
        <ele>1035.06977</ele>
        <time>2021-07-06T11:12:04+0200</time>
      </trkpt>
      <trkpt lat="45.66228" lon="2.94497">
        <ele>1035.289297</ele>
        <time>2021-07-06T11:12:06+0200</time>
      </trkpt>
      <trkpt lat="45.66225" lon="2.94489">
        <ele>1036.362365</ele>
        <time>2021-07-06T11:12:08+0200</time>
      </trkpt>
      <trkpt lat="45.6622" lon="2.94481">
        <ele>1036.885858</ele>
        <time>2021-07-06T11:12:10+0200</time>
      </trkpt>
      <trkpt lat="45.66216" lon="2.94471">
        <ele>1036.532361</ele>
        <time>2021-07-06T11:12:12+0200</time>
      </trkpt>
      <trkpt lat="45.66212" lon="2.94462">
        <ele>1036.937717</ele>
        <time>2021-07-06T11:12:14+0200</time>
      </trkpt>
      <trkpt lat="45.66208" lon="2.94455">
        <ele>1036.756415</ele>
        <time>2021-07-06T11:12:16+0200</time>
      </trkpt>
      <trkpt lat="45.66204" lon="2.94447">
        <ele>1036.320481</ele>
        <time>2021-07-06T11:12:18+0200</time>
      </trkpt>
      <trkpt lat="45.662" lon="2.94439">
        <ele>1037.011844</ele>
        <time>2021-07-06T11:12:20+0200</time>
      </trkpt>
      <trkpt lat="45.66196" lon="2.94432">
        <ele>1037.141033</ele>
        <time>2021-07-06T11:12:22+0200</time>
      </trkpt>
      <trkpt lat="45.66192" lon="2.94423">
        <ele>1037.204569</ele>
        <time>2021-07-06T11:12:24+0200</time>
      </trkpt>
      <trkpt lat="45.66188" lon="2.94415">
        <ele>1037.054923</ele>
        <time>2021-07-06T11:12:26+0200</time>
      </trkpt>
      <trkpt lat="45.66186" lon="2.94409">
        <ele>1036.74704</ele>
        <time>2021-07-06T11:12:27+0200</time>
      </trkpt>
      <trkpt lat="45.66183" lon="2.94404">
        <ele>1035.943099</ele>
        <time>2021-07-06T11:12:28+0200</time>
      </trkpt>
      <trkpt lat="45.66179" lon="2.94395">
        <ele>1036.365816</ele>
        <time>2021-07-06T11:12:30+0200</time>
      </trkpt>
      <trkpt lat="45.66175" lon="2.94384">
        <ele>1036.845766</ele>
        <time>2021-07-06T11:12:32+0200</time>
      </trkpt>
      <trkpt lat="45.66172" lon="2.94378">
        <ele>1036.956288</ele>
        <time>2021-07-06T11:12:33+0200</time>
      </trkpt>
      <trkpt lat="45.6617" lon="2.94372">
        <ele>1036.712438</ele>
        <time>2021-07-06T11:12:34+0200</time>
      </trkpt>
      <trkpt lat="45.66167" lon="2.94365">
        <ele>1036.312624</ele>
        <time>2021-07-06T11:12:35+0200</time>
      </trkpt>
      <trkpt lat="45.66162" lon="2.94352">
        <ele>1035.40469</ele>
        <time>2021-07-06T11:12:37+0200</time>
      </trkpt>
      <trkpt lat="45.66159" lon="2.94343">
        <ele>1034.660059</ele>
        <time>2021-07-06T11:12:38+0200</time>
      </trkpt>
      <trkpt lat="45.66157" lon="2.94335">
        <ele>1033.438586</ele>
        <time>2021-07-06T11:12:39+0200</time>
      </trkpt>
      <trkpt lat="45.66155" lon="2.94327">
        <ele>1032.776439</ele>
        <time>2021-07-06T11:12:40+0200</time>
      </trkpt>
      <trkpt lat="45.66153" lon="2.94318">
        <ele>1031.320393</ele>
        <time>2021-07-06T11:12:41+0200</time>
      </trkpt>
      <trkpt lat="45.6615" lon="2.94309">
        <ele>1030.556591</ele>
        <time>2021-07-06T11:12:42+0200</time>
      </trkpt>
      <trkpt lat="45.66147" lon="2.94301">
        <ele>1030.509213</ele>
        <time>2021-07-06T11:12:43+0200</time>
      </trkpt>
      <trkpt lat="45.66145" lon="2.94294">
        <ele>1030.576323</ele>
        <time>2021-07-06T11:12:44+0200</time>
      </trkpt>
      <trkpt lat="45.66144" lon="2.94285">
        <ele>1030.789144</ele>
        <time>2021-07-06T11:12:45+0200</time>
      </trkpt>
      <trkpt lat="45.66143" lon="2.94278">
        <ele>1030.004127</ele>
        <time>2021-07-06T11:12:46+0200</time>
      </trkpt>
      <trkpt lat="45.6614" lon="2.9427">
        <ele>1029.514644</ele>
        <time>2021-07-06T11:12:47+0200</time>
      </trkpt>
      <trkpt lat="45.66137" lon="2.94263">
        <ele>1029.791007</ele>
        <time>2021-07-06T11:12:48+0200</time>
      </trkpt>
      <trkpt lat="45.66135" lon="2.94256">
        <ele>1029.970568</ele>
        <time>2021-07-06T11:12:49+0200</time>
      </trkpt>
      <trkpt lat="45.66133" lon="2.94249">
        <ele>1030.535009</ele>
        <time>2021-07-06T11:12:50+0200</time>
      </trkpt>
      <trkpt lat="45.66131" lon="2.94242">
        <ele>1030.616361</ele>
        <time>2021-07-06T11:12:51+0200</time>
      </trkpt>
      <trkpt lat="45.66129" lon="2.94235">
        <ele>1030.521509</ele>
        <time>2021-07-06T11:12:52+0200</time>
      </trkpt>
      <trkpt lat="45.66126" lon="2.9423">
        <ele>1030.143772</ele>
        <time>2021-07-06T11:12:53+0200</time>
      </trkpt>
      <trkpt lat="45.66123" lon="2.94222">
        <ele>1030.038638</ele>
        <time>2021-07-06T11:12:54+0200</time>
      </trkpt>
      <trkpt lat="45.6612" lon="2.94215">
        <ele>1030.146587</ele>
        <time>2021-07-06T11:12:55+0200</time>
      </trkpt>
      <trkpt lat="45.66118" lon="2.94208">
        <ele>1030.483173</ele>
        <time>2021-07-06T11:12:56+0200</time>
      </trkpt>
      <trkpt lat="45.66114" lon="2.94196">
        <ele>1030.385651</ele>
        <time>2021-07-06T11:12:58+0200</time>
      </trkpt>
      <trkpt lat="45.66112" lon="2.9419">
        <ele>1030.868109</ele>
        <time>2021-07-06T11:12:59+0200</time>
      </trkpt>
      <trkpt lat="45.66108" lon="2.94179">
        <ele>1030.56476</ele>
        <time>2021-07-06T11:13:01+0200</time>
      </trkpt>
      <trkpt lat="45.66106" lon="2.94174">
        <ele>1030.788103</ele>
        <time>2021-07-06T11:13:02+0200</time>
      </trkpt>
      <trkpt lat="45.66103" lon="2.94164">
        <ele>1031.09346</ele>
        <time>2021-07-06T11:13:04+0200</time>
      </trkpt>
      <trkpt lat="45.661" lon="2.94158">
        <ele>1030.986359</ele>
        <time>2021-07-06T11:13:05+0200</time>
      </trkpt>
      <trkpt lat="45.66096" lon="2.94147">
        <ele>1030.813073</ele>
        <time>2021-07-06T11:13:07+0200</time>
      </trkpt>
      <trkpt lat="45.66093" lon="2.94135">
        <ele>1031.151348</ele>
        <time>2021-07-06T11:13:09+0200</time>
      </trkpt>
      <trkpt lat="45.66088" lon="2.94124">
        <ele>1030.912837</ele>
        <time>2021-07-06T11:13:11+0200</time>
      </trkpt>
      <trkpt lat="45.66086" lon="2.94118">
        <ele>1030.519891</ele>
        <time>2021-07-06T11:13:12+0200</time>
      </trkpt>
      <trkpt lat="45.66083" lon="2.94112">
        <ele>1030.117455</ele>
        <time>2021-07-06T11:13:13+0200</time>
      </trkpt>
      <trkpt lat="45.6608" lon="2.94105">
        <ele>1029.737095</ele>
        <time>2021-07-06T11:13:14+0200</time>
      </trkpt>
      <trkpt lat="45.66077" lon="2.941">
        <ele>1029.296236</ele>
        <time>2021-07-06T11:13:15+0200</time>
      </trkpt>
      <trkpt lat="45.66074" lon="2.94094">
        <ele>1028.789626</ele>
        <time>2021-07-06T11:13:16+0200</time>
      </trkpt>
      <trkpt lat="45.6607" lon="2.94087">
        <ele>1028.32162</ele>
        <time>2021-07-06T11:13:17+0200</time>
      </trkpt>
      <trkpt lat="45.66067" lon="2.94081">
        <ele>1028.082335</ele>
        <time>2021-07-06T11:13:18+0200</time>
      </trkpt>
      <trkpt lat="45.66064" lon="2.94073">
        <ele>1028.040423</ele>
        <time>2021-07-06T11:13:19+0200</time>
      </trkpt>
      <trkpt lat="45.66061" lon="2.94066">
        <ele>1027.940201</ele>
        <time>2021-07-06T11:13:20+0200</time>
      </trkpt>
      <trkpt lat="45.66058" lon="2.9406">
        <ele>1027.821558</ele>
        <time>2021-07-06T11:13:21+0200</time>
      </trkpt>
      <trkpt lat="45.66054" lon="2.94054">
        <ele>1027.716763</ele>
        <time>2021-07-06T11:13:22+0200</time>
      </trkpt>
      <trkpt lat="45.66051" lon="2.94047">
        <ele>1027.676362</ele>
        <time>2021-07-06T11:13:23+0200</time>
      </trkpt>
      <trkpt lat="45.66048" lon="2.94039">
        <ele>1027.509271</ele>
        <time>2021-07-06T11:13:24+0200</time>
      </trkpt>
      <trkpt lat="45.66045" lon="2.94032">
        <ele>1027.096059</ele>
        <time>2021-07-06T11:13:25+0200</time>
      </trkpt>
      <trkpt lat="45.66042" lon="2.94025">
        <ele>1027.00244</ele>
        <time>2021-07-06T11:13:26+0200</time>
      </trkpt>
      <trkpt lat="45.66039" lon="2.94018">
        <ele>1026.668253</ele>
        <time>2021-07-06T11:13:27+0200</time>
      </trkpt>
      <trkpt lat="45.66036" lon="2.9401">
        <ele>1026.535777</ele>
        <time>2021-07-06T11:13:28+0200</time>
      </trkpt>
      <trkpt lat="45.66033" lon="2.94002">
        <ele>1026.516155</ele>
        <time>2021-07-06T11:13:29+0200</time>
      </trkpt>
      <trkpt lat="45.66029" lon="2.93995">
        <ele>1026.252733</ele>
        <time>2021-07-06T11:13:30+0200</time>
      </trkpt>
      <trkpt lat="45.66026" lon="2.93988">
        <ele>1026.356505</ele>
        <time>2021-07-06T11:13:31+0200</time>
      </trkpt>
      <trkpt lat="45.66023" lon="2.93981">
        <ele>1026.116435</ele>
        <time>2021-07-06T11:13:32+0200</time>
      </trkpt>
      <trkpt lat="45.66021" lon="2.93975">
        <ele>1025.160955</ele>
        <time>2021-07-06T11:13:34+0200</time>
      </trkpt>
      <trkpt lat="45.66024" lon="2.93981">
        <ele>1023.225703</ele>
        <time>2021-07-06T11:16:46+0200</time>
      </trkpt>
      <trkpt lat="45.66022" lon="2.93975">
        <ele>1021.828036</ele>
        <time>2021-07-06T11:18:35+0200</time>
      </trkpt>
      <trkpt lat="45.66025" lon="2.9398">
        <ele>1025.460295</ele>
        <time>2021-07-06T11:19:01+0200</time>
      </trkpt>
      <trkpt lat="45.6602" lon="2.93979">
        <ele>1023.941283</ele>
        <time>2021-07-06T11:19:44+0200</time>
      </trkpt>
      <trkpt lat="45.6602" lon="2.93972">
        <ele>1025.203187</ele>
        <time>2021-07-06T11:19:48+0200</time>
      </trkpt>
      <trkpt lat="45.66019" lon="2.93965">
        <ele>1025.190554</ele>
        <time>2021-07-06T11:19:51+0200</time>
      </trkpt>
      <trkpt lat="45.66015" lon="2.93959">
        <ele>1025.004155</ele>
        <time>2021-07-06T11:19:54+0200</time>
      </trkpt>
      <trkpt lat="45.66012" lon="2.93953">
        <ele>1024.856868</ele>
        <time>2021-07-06T11:19:57+0200</time>
      </trkpt>
      <trkpt lat="45.66009" lon="2.93947">
        <ele>1025.843001</ele>
        <time>2021-07-06T11:19:59+0200</time>
      </trkpt>
      <trkpt lat="45.66004" lon="2.93941">
        <ele>1025.200789</ele>
        <time>2021-07-06T11:20:01+0200</time>
      </trkpt>
      <trkpt lat="45.65998" lon="2.93936">
        <ele>1024.834183</ele>
        <time>2021-07-06T11:20:03+0200</time>
      </trkpt>
      <trkpt lat="45.65993" lon="2.93931">
        <ele>1024.381137</ele>
        <time>2021-07-06T11:20:05+0200</time>
      </trkpt>
      <trkpt lat="45.65991" lon="2.93923">
        <ele>1024.7307</ele>
        <time>2021-07-06T11:20:07+0200</time>
      </trkpt>
      <trkpt lat="45.65993" lon="2.93915">
        <ele>1024.554961</ele>
        <time>2021-07-06T11:20:09+0200</time>
      </trkpt>
      <trkpt lat="45.65995" lon="2.93906">
        <ele>1023.072814</ele>
        <time>2021-07-06T11:20:11+0200</time>
      </trkpt>
      <trkpt lat="45.65995" lon="2.93896">
        <ele>1023.578193</ele>
        <time>2021-07-06T11:20:13+0200</time>
      </trkpt>
      <trkpt lat="45.65996" lon="2.93887">
        <ele>1023.652107</ele>
        <time>2021-07-06T11:20:15+0200</time>
      </trkpt>
      <trkpt lat="45.65994" lon="2.93878">
        <ele>1023.240694</ele>
        <time>2021-07-06T11:20:17+0200</time>
      </trkpt>
      <trkpt lat="45.65992" lon="2.9387">
        <ele>1023.143219</ele>
        <time>2021-07-06T11:20:19+0200</time>
      </trkpt>
      <trkpt lat="45.6599" lon="2.93861">
        <ele>1023.370748</ele>
        <time>2021-07-06T11:20:21+0200</time>
      </trkpt>
      <trkpt lat="45.6599" lon="2.93853">
        <ele>1023.325486</ele>
        <time>2021-07-06T11:20:23+0200</time>
      </trkpt>
      <trkpt lat="45.6599" lon="2.93842">
        <ele>1023.17557</ele>
        <time>2021-07-06T11:20:25+0200</time>
      </trkpt>
      <trkpt lat="45.6599" lon="2.93832">
        <ele>1023.137774</ele>
        <time>2021-07-06T11:20:26+0200</time>
      </trkpt>
      <trkpt lat="45.6599" lon="2.93821">
        <ele>1023.558642</ele>
        <time>2021-07-06T11:20:28+0200</time>
      </trkpt>
      <trkpt lat="45.6599" lon="2.93811">
        <ele>1024.436044</ele>
        <time>2021-07-06T11:20:30+0200</time>
      </trkpt>
      <trkpt lat="45.6599" lon="2.93799">
        <ele>1024.663183</ele>
        <time>2021-07-06T11:20:32+0200</time>
      </trkpt>
      <trkpt lat="45.65991" lon="2.93788">
        <ele>1025.721793</ele>
        <time>2021-07-06T11:20:35+0200</time>
      </trkpt>
      <trkpt lat="45.65992" lon="2.93777">
        <ele>1026.786397</ele>
        <time>2021-07-06T11:20:37+0200</time>
      </trkpt>
      <trkpt lat="45.65992" lon="2.93765">
        <ele>1027.22348</ele>
        <time>2021-07-06T11:20:39+0200</time>
      </trkpt>
      <trkpt lat="45.65992" lon="2.93754">
        <ele>1026.758605</ele>
        <time>2021-07-06T11:20:41+0200</time>
      </trkpt>
      <trkpt lat="45.65991" lon="2.93743">
        <ele>1024.952684</ele>
        <time>2021-07-06T11:20:43+0200</time>
      </trkpt>
      <trkpt lat="45.65991" lon="2.93731">
        <ele>1025.013269</ele>
        <time>2021-07-06T11:20:45+0200</time>
      </trkpt>
      <trkpt lat="45.65992" lon="2.9372">
        <ele>1025.063837</ele>
        <time>2021-07-06T11:20:47+0200</time>
      </trkpt>
      <trkpt lat="45.65992" lon="2.93709">
        <ele>1025.100187</ele>
        <time>2021-07-06T11:20:49+0200</time>
      </trkpt>
      <trkpt lat="45.65992" lon="2.93697">
        <ele>1024.70955</ele>
        <time>2021-07-06T11:20:51+0200</time>
      </trkpt>
      <trkpt lat="45.65991" lon="2.93685">
        <ele>1023.844393</ele>
        <time>2021-07-06T11:20:53+0200</time>
      </trkpt>
      <trkpt lat="45.6599" lon="2.93674">
        <ele>1023.497121</ele>
        <time>2021-07-06T11:20:55+0200</time>
      </trkpt>
      <trkpt lat="45.65991" lon="2.93665">
        <ele>1024.027638</ele>
        <time>2021-07-06T11:20:57+0200</time>
      </trkpt>
      <trkpt lat="45.65992" lon="2.93655">
        <ele>1024.712032</ele>
        <time>2021-07-06T11:20:59+0200</time>
      </trkpt>
      <trkpt lat="45.65992" lon="2.93644">
        <ele>1025.02223</ele>
        <time>2021-07-06T11:21:01+0200</time>
      </trkpt>
      <trkpt lat="45.65993" lon="2.93634">
        <ele>1025.061392</ele>
        <time>2021-07-06T11:21:03+0200</time>
      </trkpt>
      <trkpt lat="45.65992" lon="2.93624">
        <ele>1024.449597</ele>
        <time>2021-07-06T11:21:05+0200</time>
      </trkpt>
      <trkpt lat="45.65993" lon="2.93613">
        <ele>1024.879</ele>
        <time>2021-07-06T11:21:07+0200</time>
      </trkpt>
      <trkpt lat="45.65994" lon="2.93604">
        <ele>1026.147372</ele>
        <time>2021-07-06T11:21:09+0200</time>
      </trkpt>
      <trkpt lat="45.65994" lon="2.93594">
        <ele>1026.694529</ele>
        <time>2021-07-06T11:21:11+0200</time>
      </trkpt>
      <trkpt lat="45.65993" lon="2.93584">
        <ele>1025.116668</ele>
        <time>2021-07-06T11:21:13+0200</time>
      </trkpt>
      <trkpt lat="45.65993" lon="2.93575">
        <ele>1024.75837</ele>
        <time>2021-07-06T11:21:15+0200</time>
      </trkpt>
      <trkpt lat="45.65993" lon="2.93566">
        <ele>1024.655248</ele>
        <time>2021-07-06T11:21:17+0200</time>
      </trkpt>
      <trkpt lat="45.65993" lon="2.93556">
        <ele>1025.58623</ele>
        <time>2021-07-06T11:21:19+0200</time>
      </trkpt>
      <trkpt lat="45.65994" lon="2.93546">
        <ele>1026.461543</ele>
        <time>2021-07-06T11:21:21+0200</time>
      </trkpt>
      <trkpt lat="45.65995" lon="2.93537">
        <ele>1026.27772</ele>
        <time>2021-07-06T11:21:23+0200</time>
      </trkpt>
      <trkpt lat="45.65996" lon="2.93528">
        <ele>1027.073515</ele>
        <time>2021-07-06T11:21:25+0200</time>
      </trkpt>
      <trkpt lat="45.65996" lon="2.93519">
        <ele>1027.100448</ele>
        <time>2021-07-06T11:21:27+0200</time>
      </trkpt>
      <trkpt lat="45.65996" lon="2.9351">
        <ele>1027.575372</ele>
        <time>2021-07-06T11:21:29+0200</time>
      </trkpt>
      <trkpt lat="45.65996" lon="2.935">
        <ele>1027.596276</ele>
        <time>2021-07-06T11:21:31+0200</time>
      </trkpt>
      <trkpt lat="45.65997" lon="2.93491">
        <ele>1027.919756</ele>
        <time>2021-07-06T11:21:33+0200</time>
      </trkpt>
      <trkpt lat="45.65997" lon="2.93483">
        <ele>1028.69051</ele>
        <time>2021-07-06T11:21:35+0200</time>
      </trkpt>
      <trkpt lat="45.65997" lon="2.93473">
        <ele>1029.084032</ele>
        <time>2021-07-06T11:21:37+0200</time>
      </trkpt>
      <trkpt lat="45.65998" lon="2.93464">
        <ele>1029.882959</ele>
        <time>2021-07-06T11:21:39+0200</time>
      </trkpt>
      <trkpt lat="45.65997" lon="2.93456">
        <ele>1030.609145</ele>
        <time>2021-07-06T11:21:41+0200</time>
      </trkpt>
      <trkpt lat="45.65997" lon="2.93448">
        <ele>1031.205899</ele>
        <time>2021-07-06T11:21:43+0200</time>
      </trkpt>
      <trkpt lat="45.65995" lon="2.93438">
        <ele>1029.704605</ele>
        <time>2021-07-06T11:21:45+0200</time>
      </trkpt>
      <trkpt lat="45.65996" lon="2.93429">
        <ele>1030.054467</ele>
        <time>2021-07-06T11:21:47+0200</time>
      </trkpt>
      <trkpt lat="45.65995" lon="2.9342">
        <ele>1029.721158</ele>
        <time>2021-07-06T11:21:49+0200</time>
      </trkpt>
      <trkpt lat="45.65996" lon="2.93412">
        <ele>1029.366584</ele>
        <time>2021-07-06T11:21:51+0200</time>
      </trkpt>
      <trkpt lat="45.65997" lon="2.93403">
        <ele>1029.560681</ele>
        <time>2021-07-06T11:21:53+0200</time>
      </trkpt>
      <trkpt lat="45.65997" lon="2.93395">
        <ele>1029.585601</ele>
        <time>2021-07-06T11:21:55+0200</time>
      </trkpt>
      <trkpt lat="45.65997" lon="2.93388">
        <ele>1030.01044</ele>
        <time>2021-07-06T11:21:57+0200</time>
      </trkpt>
      <trkpt lat="45.65997" lon="2.9338">
        <ele>1030.36488</ele>
        <time>2021-07-06T11:21:59+0200</time>
      </trkpt>
      <trkpt lat="45.65997" lon="2.93372">
        <ele>1030.327167</ele>
        <time>2021-07-06T11:22:01+0200</time>
      </trkpt>
      <trkpt lat="45.65997" lon="2.93363">
        <ele>1029.820211</ele>
        <time>2021-07-06T11:22:03+0200</time>
      </trkpt>
      <trkpt lat="45.65997" lon="2.93354">
        <ele>1029.850238</ele>
        <time>2021-07-06T11:22:05+0200</time>
      </trkpt>
      <trkpt lat="45.65997" lon="2.93346">
        <ele>1029.052542</ele>
        <time>2021-07-06T11:22:07+0200</time>
      </trkpt>
      <trkpt lat="45.65997" lon="2.93338">
        <ele>1028.942257</ele>
        <time>2021-07-06T11:22:09+0200</time>
      </trkpt>
      <trkpt lat="45.65998" lon="2.9333">
        <ele>1029.522749</ele>
        <time>2021-07-06T11:22:11+0200</time>
      </trkpt>
      <trkpt lat="45.65998" lon="2.93323">
        <ele>1029.622138</ele>
        <time>2021-07-06T11:22:13+0200</time>
      </trkpt>
      <trkpt lat="45.65997" lon="2.93316">
        <ele>1030.341747</ele>
        <time>2021-07-06T11:22:16+0200</time>
      </trkpt>
      <trkpt lat="45.65997" lon="2.93308">
        <ele>1030.196055</ele>
        <time>2021-07-06T11:22:19+0200</time>
      </trkpt>
      <trkpt lat="45.65998" lon="2.93299">
        <ele>1030.614939</ele>
        <time>2021-07-06T11:22:22+0200</time>
      </trkpt>
      <trkpt lat="45.65999" lon="2.93291">
        <ele>1030.9352</ele>
        <time>2021-07-06T11:22:25+0200</time>
      </trkpt>
      <trkpt lat="45.65998" lon="2.93283">
        <ele>1030.896227</ele>
        <time>2021-07-06T11:22:28+0200</time>
      </trkpt>
      <trkpt lat="45.65998" lon="2.93275">
        <ele>1031.56766</ele>
        <time>2021-07-06T11:22:31+0200</time>
      </trkpt>
      <trkpt lat="45.65999" lon="2.93268">
        <ele>1032.735313</ele>
        <time>2021-07-06T11:22:34+0200</time>
      </trkpt>
      <trkpt lat="45.65999" lon="2.93259">
        <ele>1034.783219</ele>
        <time>2021-07-06T11:22:37+0200</time>
      </trkpt>
      <trkpt lat="45.65999" lon="2.93251">
        <ele>1035.913136</ele>
        <time>2021-07-06T11:22:40+0200</time>
      </trkpt>
      <trkpt lat="45.65999" lon="2.93244">
        <ele>1037.937489</ele>
        <time>2021-07-06T11:22:43+0200</time>
      </trkpt>
      <trkpt lat="45.65999" lon="2.93236">
        <ele>1038.978691</ele>
        <time>2021-07-06T11:22:46+0200</time>
      </trkpt>
      <trkpt lat="45.66" lon="2.93228">
        <ele>1039.537781</ele>
        <time>2021-07-06T11:22:49+0200</time>
      </trkpt>
      <trkpt lat="45.65998" lon="2.93222">
        <ele>1038.898046</ele>
        <time>2021-07-06T11:22:52+0200</time>
      </trkpt>
      <trkpt lat="45.65998" lon="2.93215">
        <ele>1040.354016</ele>
        <time>2021-07-06T11:22:55+0200</time>
      </trkpt>
      <trkpt lat="45.66" lon="2.93207">
        <ele>1041.343063</ele>
        <time>2021-07-06T11:22:58+0200</time>
      </trkpt>
      <trkpt lat="45.66" lon="2.932">
        <ele>1041.528465</ele>
        <time>2021-07-06T11:23:01+0200</time>
      </trkpt>
      <trkpt lat="45.66" lon="2.93192">
        <ele>1043.888747</ele>
        <time>2021-07-06T11:23:05+0200</time>
      </trkpt>
      <trkpt lat="45.66" lon="2.93185">
        <ele>1044.428884</ele>
        <time>2021-07-06T11:23:08+0200</time>
      </trkpt>
      <trkpt lat="45.66" lon="2.93178">
        <ele>1044.317716</ele>
        <time>2021-07-06T11:23:11+0200</time>
      </trkpt>
      <trkpt lat="45.66001" lon="2.93171">
        <ele>1044.963551</ele>
        <time>2021-07-06T11:23:14+0200</time>
      </trkpt>
      <trkpt lat="45.66" lon="2.93164">
        <ele>1044.571995</ele>
        <time>2021-07-06T11:23:17+0200</time>
      </trkpt>
      <trkpt lat="45.66001" lon="2.93155">
        <ele>1043.971553</ele>
        <time>2021-07-06T11:23:20+0200</time>
      </trkpt>
      <trkpt lat="45.66" lon="2.93148">
        <ele>1043.76117</ele>
        <time>2021-07-06T11:23:23+0200</time>
      </trkpt>
      <trkpt lat="45.66001" lon="2.9314">
        <ele>1044.576651</ele>
        <time>2021-07-06T11:23:26+0200</time>
      </trkpt>
      <trkpt lat="45.66001" lon="2.93133">
        <ele>1044.697176</ele>
        <time>2021-07-06T11:23:29+0200</time>
      </trkpt>
      <trkpt lat="45.66002" lon="2.93124">
        <ele>1045.941027</ele>
        <time>2021-07-06T11:23:32+0200</time>
      </trkpt>
      <trkpt lat="45.66003" lon="2.93116">
        <ele>1046.716629</ele>
        <time>2021-07-06T11:23:35+0200</time>
      </trkpt>
      <trkpt lat="45.66003" lon="2.93106">
        <ele>1047.226635</ele>
        <time>2021-07-06T11:23:38+0200</time>
      </trkpt>
      <trkpt lat="45.66003" lon="2.93098">
        <ele>1047.554281</ele>
        <time>2021-07-06T11:23:41+0200</time>
      </trkpt>
      <trkpt lat="45.66003" lon="2.93091">
        <ele>1047.85937</ele>
        <time>2021-07-06T11:23:43+0200</time>
      </trkpt>
      <trkpt lat="45.66002" lon="2.93083">
        <ele>1048.17667</ele>
        <time>2021-07-06T11:23:46+0200</time>
      </trkpt>
      <trkpt lat="45.66001" lon="2.93075">
        <ele>1048.978024</ele>
        <time>2021-07-06T11:23:49+0200</time>
      </trkpt>
      <trkpt lat="45.66001" lon="2.93065">
        <ele>1048.658744</ele>
        <time>2021-07-06T11:23:52+0200</time>
      </trkpt>
      <trkpt lat="45.66001" lon="2.93058">
        <ele>1048.698379</ele>
        <time>2021-07-06T11:23:54+0200</time>
      </trkpt>
      <trkpt lat="45.66001" lon="2.9305">
        <ele>1049.606312</ele>
        <time>2021-07-06T11:23:57+0200</time>
      </trkpt>
      <trkpt lat="45.65999" lon="2.93042">
        <ele>1050.096661</ele>
        <time>2021-07-06T11:24:00+0200</time>
      </trkpt>
      <trkpt lat="45.65997" lon="2.93036">
        <ele>1050.58781</ele>
        <time>2021-07-06T11:24:03+0200</time>
      </trkpt>
      <trkpt lat="45.65997" lon="2.93028">
        <ele>1051.219832</ele>
        <time>2021-07-06T11:24:06+0200</time>
      </trkpt>
      <trkpt lat="45.65998" lon="2.9302">
        <ele>1051.841447</ele>
        <time>2021-07-06T11:24:09+0200</time>
      </trkpt>
      <trkpt lat="45.65998" lon="2.93013">
        <ele>1051.971932</ele>
        <time>2021-07-06T11:24:11+0200</time>
      </trkpt>
      <trkpt lat="45.65998" lon="2.93004">
        <ele>1052.307285</ele>
        <time>2021-07-06T11:24:14+0200</time>
      </trkpt>
      <trkpt lat="45.65999" lon="2.92998">
        <ele>1053.369502</ele>
        <time>2021-07-06T11:24:16+0200</time>
      </trkpt>
      <trkpt lat="45.65999" lon="2.92987">
        <ele>1053.815265</ele>
        <time>2021-07-06T11:24:19+0200</time>
      </trkpt>
      <trkpt lat="45.65999" lon="2.9298">
        <ele>1054.393154</ele>
        <time>2021-07-06T11:24:21+0200</time>
      </trkpt>
      <trkpt lat="45.66" lon="2.92973">
        <ele>1053.605884</ele>
        <time>2021-07-06T11:24:23+0200</time>
      </trkpt>
      <trkpt lat="45.66001" lon="2.92965">
        <ele>1054.086113</ele>
        <time>2021-07-06T11:24:25+0200</time>
      </trkpt>
      <trkpt lat="45.66001" lon="2.92957">
        <ele>1054.831972</ele>
        <time>2021-07-06T11:24:27+0200</time>
      </trkpt>
      <trkpt lat="45.66002" lon="2.9295">
        <ele>1055.355873</ele>
        <time>2021-07-06T11:24:29+0200</time>
      </trkpt>
      <trkpt lat="45.66003" lon="2.92942">
        <ele>1056.000516</ele>
        <time>2021-07-06T11:24:31+0200</time>
      </trkpt>
      <trkpt lat="45.66003" lon="2.92934">
        <ele>1056.589359</ele>
        <time>2021-07-06T11:24:33+0200</time>
      </trkpt>
      <trkpt lat="45.66003" lon="2.92927">
        <ele>1057.832026</ele>
        <time>2021-07-06T11:24:35+0200</time>
      </trkpt>
      <trkpt lat="45.66002" lon="2.9292">
        <ele>1059.20636</ele>
        <time>2021-07-06T11:24:37+0200</time>
      </trkpt>
      <trkpt lat="45.66002" lon="2.92911">
        <ele>1062.073147</ele>
        <time>2021-07-06T11:24:40+0200</time>
      </trkpt>
      <trkpt lat="45.66002" lon="2.92904">
        <ele>1062.687554</ele>
        <time>2021-07-06T11:24:42+0200</time>
      </trkpt>
      <trkpt lat="45.66001" lon="2.92897">
        <ele>1063.292078</ele>
        <time>2021-07-06T11:24:44+0200</time>
      </trkpt>
      <trkpt lat="45.66" lon="2.92889">
        <ele>1064.468335</ele>
        <time>2021-07-06T11:24:46+0200</time>
      </trkpt>
      <trkpt lat="45.65999" lon="2.92882">
        <ele>1064.646843</ele>
        <time>2021-07-06T11:24:48+0200</time>
      </trkpt>
      <trkpt lat="45.65997" lon="2.92874">
        <ele>1065.250953</ele>
        <time>2021-07-06T11:24:50+0200</time>
      </trkpt>
      <trkpt lat="45.65996" lon="2.92866">
        <ele>1065.310144</ele>
        <time>2021-07-06T11:24:52+0200</time>
      </trkpt>
      <trkpt lat="45.65996" lon="2.92859">
        <ele>1065.846617</ele>
        <time>2021-07-06T11:24:54+0200</time>
      </trkpt>
      <trkpt lat="45.65996" lon="2.92852">
        <ele>1066.271568</ele>
        <time>2021-07-06T11:24:57+0200</time>
      </trkpt>
      <trkpt lat="45.65993" lon="2.92845">
        <ele>1066.453454</ele>
        <time>2021-07-06T11:24:59+0200</time>
      </trkpt>
      <trkpt lat="45.65991" lon="2.92838">
        <ele>1065.676257</ele>
        <time>2021-07-06T11:25:01+0200</time>
      </trkpt>
      <trkpt lat="45.65991" lon="2.92832">
        <ele>1065.183349</ele>
        <time>2021-07-06T11:25:03+0200</time>
      </trkpt>
      <trkpt lat="45.65993" lon="2.92826">
        <ele>1066.683219</ele>
        <time>2021-07-06T11:25:37+0200</time>
      </trkpt>
      <trkpt lat="45.65988" lon="2.92828">
        <ele>1065.472606</ele>
        <time>2021-07-06T11:25:49+0200</time>
      </trkpt>
      <trkpt lat="45.65986" lon="2.92833">
        <ele>1065.783438</ele>
        <time>2021-07-06T11:26:18+0200</time>
      </trkpt>
      <trkpt lat="45.65986" lon="2.92827">
        <ele>1061.935188</ele>
        <time>2021-07-06T11:26:42+0200</time>
      </trkpt>
      <trkpt lat="45.65989" lon="2.92833">
        <ele>1061.377426</ele>
        <time>2021-07-06T11:26:51+0200</time>
      </trkpt>
      <trkpt lat="45.6599" lon="2.92825">
        <ele>1065.630469</ele>
        <time>2021-07-06T11:29:17+0200</time>
      </trkpt>
      <trkpt lat="45.6599" lon="2.92813">
        <ele>1064.813792</ele>
        <time>2021-07-06T11:29:20+0200</time>
      </trkpt>
      <trkpt lat="45.6599" lon="2.92806">
        <ele>1064.570527</ele>
        <time>2021-07-06T11:29:21+0200</time>
      </trkpt>
      <trkpt lat="45.6599" lon="2.92796">
        <ele>1062.865407</ele>
        <time>2021-07-06T11:29:22+0200</time>
      </trkpt>
      <trkpt lat="45.6599" lon="2.92787">
        <ele>1061.672947</ele>
        <time>2021-07-06T11:29:23+0200</time>
      </trkpt>
      <trkpt lat="45.6599" lon="2.92777">
        <ele>1061.271865</ele>
        <time>2021-07-06T11:29:24+0200</time>
      </trkpt>
      <trkpt lat="45.65989" lon="2.92768">
        <ele>1060.921575</ele>
        <time>2021-07-06T11:29:25+0200</time>
      </trkpt>
      <trkpt lat="45.65987" lon="2.92759">
        <ele>1060.256597</ele>
        <time>2021-07-06T11:29:26+0200</time>
      </trkpt>
      <trkpt lat="45.65988" lon="2.92749">
        <ele>1059.326251</ele>
        <time>2021-07-06T11:29:27+0200</time>
      </trkpt>
      <trkpt lat="45.65988" lon="2.92739">
        <ele>1059.295023</ele>
        <time>2021-07-06T11:29:28+0200</time>
      </trkpt>
      <trkpt lat="45.65987" lon="2.92731">
        <ele>1058.396161</ele>
        <time>2021-07-06T11:29:29+0200</time>
      </trkpt>
      <trkpt lat="45.65987" lon="2.92723">
        <ele>1057.163408</ele>
        <time>2021-07-06T11:29:30+0200</time>
      </trkpt>
      <trkpt lat="45.65986" lon="2.92715">
        <ele>1056.681771</ele>
        <time>2021-07-06T11:29:31+0200</time>
      </trkpt>
      <trkpt lat="45.65984" lon="2.92706">
        <ele>1054.726096</ele>
        <time>2021-07-06T11:29:32+0200</time>
      </trkpt>
      <trkpt lat="45.65983" lon="2.92695">
        <ele>1054.127369</ele>
        <time>2021-07-06T11:29:33+0200</time>
      </trkpt>
      <trkpt lat="45.65981" lon="2.92685">
        <ele>1054.054827</ele>
        <time>2021-07-06T11:29:34+0200</time>
      </trkpt>
      <trkpt lat="45.65977" lon="2.92675">
        <ele>1053.050696</ele>
        <time>2021-07-06T11:29:35+0200</time>
      </trkpt>
      <trkpt lat="45.65973" lon="2.92664">
        <ele>1052.75248</ele>
        <time>2021-07-06T11:29:36+0200</time>
      </trkpt>
      <trkpt lat="45.65969" lon="2.92653">
        <ele>1051.925894</ele>
        <time>2021-07-06T11:29:37+0200</time>
      </trkpt>
      <trkpt lat="45.65967" lon="2.92641">
        <ele>1051.067894</ele>
        <time>2021-07-06T11:29:38+0200</time>
      </trkpt>
      <trkpt lat="45.65965" lon="2.92627">
        <ele>1050.476647</ele>
        <time>2021-07-06T11:29:39+0200</time>
      </trkpt>
      <trkpt lat="45.65961" lon="2.92615">
        <ele>1050.162343</ele>
        <time>2021-07-06T11:29:40+0200</time>
      </trkpt>
      <trkpt lat="45.65958" lon="2.92604">
        <ele>1049.481326</ele>
        <time>2021-07-06T11:29:41+0200</time>
      </trkpt>
      <trkpt lat="45.65953" lon="2.92593">
        <ele>1048.87627</ele>
        <time>2021-07-06T11:29:42+0200</time>
      </trkpt>
      <trkpt lat="45.65948" lon="2.92582">
        <ele>1047.528235</ele>
        <time>2021-07-06T11:29:43+0200</time>
      </trkpt>
      <trkpt lat="45.65943" lon="2.9257">
        <ele>1046.93444</ele>
        <time>2021-07-06T11:29:44+0200</time>
      </trkpt>
      <trkpt lat="45.65938" lon="2.92558">
        <ele>1046.486477</ele>
        <time>2021-07-06T11:29:45+0200</time>
      </trkpt>
      <trkpt lat="45.65933" lon="2.92547">
        <ele>1046.334657</ele>
        <time>2021-07-06T11:29:46+0200</time>
      </trkpt>
      <trkpt lat="45.65929" lon="2.92538">
        <ele>1046.184648</ele>
        <time>2021-07-06T11:29:47+0200</time>
      </trkpt>
      <trkpt lat="45.65926" lon="2.9253">
        <ele>1046.085794</ele>
        <time>2021-07-06T11:29:48+0200</time>
      </trkpt>
      <trkpt lat="45.65919" lon="2.92524">
        <ele>1046.427433</ele>
        <time>2021-07-06T11:29:49+0200</time>
      </trkpt>
      <trkpt lat="45.65913" lon="2.92518">
        <ele>1046.424534</ele>
        <time>2021-07-06T11:29:50+0200</time>
      </trkpt>
      <trkpt lat="45.65906" lon="2.92512">
        <ele>1046.785739</ele>
        <time>2021-07-06T11:29:51+0200</time>
      </trkpt>
      <trkpt lat="45.65902" lon="2.92506">
        <ele>1046.6056</ele>
        <time>2021-07-06T11:29:52+0200</time>
      </trkpt>
      <trkpt lat="45.65898" lon="2.92501">
        <ele>1046.778983</ele>
        <time>2021-07-06T11:29:53+0200</time>
      </trkpt>
      <trkpt lat="45.65894" lon="2.92497">
        <ele>1046.604759</ele>
        <time>2021-07-06T11:29:54+0200</time>
      </trkpt>
      <trkpt lat="45.6589" lon="2.92493">
        <ele>1046.734489</ele>
        <time>2021-07-06T11:29:55+0200</time>
      </trkpt>
      <trkpt lat="45.65886" lon="2.92491">
        <ele>1045.994294</ele>
        <time>2021-07-06T11:29:56+0200</time>
      </trkpt>
      <trkpt lat="45.6588" lon="2.92486">
        <ele>1045.12903</ele>
        <time>2021-07-06T11:29:58+0200</time>
      </trkpt>
      <trkpt lat="45.65873" lon="2.92483">
        <ele>1044.084598</ele>
        <time>2021-07-06T11:30:00+0200</time>
      </trkpt>
      <trkpt lat="45.65867" lon="2.92482">
        <ele>1043.713884</ele>
        <time>2021-07-06T11:30:02+0200</time>
      </trkpt>
      <trkpt lat="45.6586" lon="2.92478">
        <ele>1044.03625</ele>
        <time>2021-07-06T11:30:04+0200</time>
      </trkpt>
      <trkpt lat="45.65854" lon="2.92473">
        <ele>1044.646296</ele>
        <time>2021-07-06T11:30:06+0200</time>
      </trkpt>
      <trkpt lat="45.65848" lon="2.9247">
        <ele>1044.810149</ele>
        <time>2021-07-06T11:30:08+0200</time>
      </trkpt>
      <trkpt lat="45.65842" lon="2.92466">
        <ele>1045.40234</ele>
        <time>2021-07-06T11:30:10+0200</time>
      </trkpt>
      <trkpt lat="45.65836" lon="2.92462">
        <ele>1046.125693</ele>
        <time>2021-07-06T11:30:12+0200</time>
      </trkpt>
      <trkpt lat="45.65831" lon="2.92458">
        <ele>1046.72563</ele>
        <time>2021-07-06T11:30:14+0200</time>
      </trkpt>
      <trkpt lat="45.65826" lon="2.92453">
        <ele>1047.052596</ele>
        <time>2021-07-06T11:30:16+0200</time>
      </trkpt>
      <trkpt lat="45.65821" lon="2.92447">
        <ele>1047.266396</ele>
        <time>2021-07-06T11:30:18+0200</time>
      </trkpt>
      <trkpt lat="45.65816" lon="2.92441">
        <ele>1046.725235</ele>
        <time>2021-07-06T11:30:20+0200</time>
      </trkpt>
      <trkpt lat="45.65809" lon="2.92435">
        <ele>1046.312154</ele>
        <time>2021-07-06T11:30:22+0200</time>
      </trkpt>
      <trkpt lat="45.65805" lon="2.92431">
        <ele>1046.168312</ele>
        <time>2021-07-06T11:30:23+0200</time>
      </trkpt>
      <trkpt lat="45.65801" lon="2.92429">
        <ele>1046.166941</ele>
        <time>2021-07-06T11:30:24+0200</time>
      </trkpt>
      <trkpt lat="45.65796" lon="2.92425">
        <ele>1046.09395</ele>
        <time>2021-07-06T11:30:25+0200</time>
      </trkpt>
      <trkpt lat="45.65791" lon="2.92423">
        <ele>1045.956208</ele>
        <time>2021-07-06T11:30:26+0200</time>
      </trkpt>
      <trkpt lat="45.65787" lon="2.92419">
        <ele>1045.951451</ele>
        <time>2021-07-06T11:30:27+0200</time>
      </trkpt>
      <trkpt lat="45.65782" lon="2.92415">
        <ele>1045.411119</ele>
        <time>2021-07-06T11:30:28+0200</time>
      </trkpt>
      <trkpt lat="45.65776" lon="2.92411">
        <ele>1044.734996</ele>
        <time>2021-07-06T11:30:29+0200</time>
      </trkpt>
      <trkpt lat="45.6577" lon="2.92406">
        <ele>1044.269637</ele>
        <time>2021-07-06T11:30:30+0200</time>
      </trkpt>
      <trkpt lat="45.65765" lon="2.92401">
        <ele>1043.891651</ele>
        <time>2021-07-06T11:30:31+0200</time>
      </trkpt>
      <trkpt lat="45.65759" lon="2.92397">
        <ele>1043.696822</ele>
        <time>2021-07-06T11:30:32+0200</time>
      </trkpt>
      <trkpt lat="45.65753" lon="2.92393">
        <ele>1043.115021</ele>
        <time>2021-07-06T11:30:33+0200</time>
      </trkpt>
      <trkpt lat="45.65746" lon="2.92389">
        <ele>1042.388347</ele>
        <time>2021-07-06T11:30:34+0200</time>
      </trkpt>
      <trkpt lat="45.65739" lon="2.92385">
        <ele>1041.658226</ele>
        <time>2021-07-06T11:30:35+0200</time>
      </trkpt>
      <trkpt lat="45.65731" lon="2.92383">
        <ele>1041.136395</ele>
        <time>2021-07-06T11:30:36+0200</time>
      </trkpt>
      <trkpt lat="45.65724" lon="2.92381">
        <ele>1039.867162</ele>
        <time>2021-07-06T11:30:37+0200</time>
      </trkpt>
      <trkpt lat="45.65715" lon="2.92379">
        <ele>1039.306716</ele>
        <time>2021-07-06T11:30:38+0200</time>
      </trkpt>
      <trkpt lat="45.65707" lon="2.92375">
        <ele>1038.768248</ele>
        <time>2021-07-06T11:30:39+0200</time>
      </trkpt>
      <trkpt lat="45.65699" lon="2.9237">
        <ele>1038.109297</ele>
        <time>2021-07-06T11:30:40+0200</time>
      </trkpt>
      <trkpt lat="45.65692" lon="2.92361">
        <ele>1037.380881</ele>
        <time>2021-07-06T11:30:41+0200</time>
      </trkpt>
      <trkpt lat="45.65686" lon="2.92352">
        <ele>1036.16534</ele>
        <time>2021-07-06T11:30:42+0200</time>
      </trkpt>
      <trkpt lat="45.65679" lon="2.92342">
        <ele>1034.817109</ele>
        <time>2021-07-06T11:30:43+0200</time>
      </trkpt>
      <trkpt lat="45.65673" lon="2.92332">
        <ele>1034.333059</ele>
        <time>2021-07-06T11:30:44+0200</time>
      </trkpt>
      <trkpt lat="45.65668" lon="2.92321">
        <ele>1033.473301</ele>
        <time>2021-07-06T11:30:45+0200</time>
      </trkpt>
      <trkpt lat="45.65662" lon="2.9231">
        <ele>1032.588122</ele>
        <time>2021-07-06T11:30:46+0200</time>
      </trkpt>
      <trkpt lat="45.65656" lon="2.92299">
        <ele>1031.475864</ele>
        <time>2021-07-06T11:30:47+0200</time>
      </trkpt>
      <trkpt lat="45.65651" lon="2.92287">
        <ele>1030.707363</ele>
        <time>2021-07-06T11:30:48+0200</time>
      </trkpt>
      <trkpt lat="45.65644" lon="2.92275">
        <ele>1029.918956</ele>
        <time>2021-07-06T11:30:49+0200</time>
      </trkpt>
      <trkpt lat="45.65638" lon="2.92263">
        <ele>1029.028062</ele>
        <time>2021-07-06T11:30:50+0200</time>
      </trkpt>
      <trkpt lat="45.65631" lon="2.92252">
        <ele>1028.151279</ele>
        <time>2021-07-06T11:30:51+0200</time>
      </trkpt>
      <trkpt lat="45.65625" lon="2.9224">
        <ele>1026.932719</ele>
        <time>2021-07-06T11:30:52+0200</time>
      </trkpt>
      <trkpt lat="45.65618" lon="2.92228">
        <ele>1025.718636</ele>
        <time>2021-07-06T11:30:53+0200</time>
      </trkpt>
      <trkpt lat="45.65611" lon="2.92215">
        <ele>1024.653537</ele>
        <time>2021-07-06T11:30:54+0200</time>
      </trkpt>
      <trkpt lat="45.65604" lon="2.92203">
        <ele>1023.974453</ele>
        <time>2021-07-06T11:30:55+0200</time>
      </trkpt>
      <trkpt lat="45.65598" lon="2.92191">
        <ele>1023.428538</ele>
        <time>2021-07-06T11:30:56+0200</time>
      </trkpt>
      <trkpt lat="45.65591" lon="2.9218">
        <ele>1022.655272</ele>
        <time>2021-07-06T11:30:57+0200</time>
      </trkpt>
      <trkpt lat="45.65584" lon="2.92168">
        <ele>1021.816137</ele>
        <time>2021-07-06T11:30:58+0200</time>
      </trkpt>
      <trkpt lat="45.65577" lon="2.92156">
        <ele>1020.268951</ele>
        <time>2021-07-06T11:30:59+0200</time>
      </trkpt>
      <trkpt lat="45.65571" lon="2.92143">
        <ele>1019.127166</ele>
        <time>2021-07-06T11:31:00+0200</time>
      </trkpt>
      <trkpt lat="45.65565" lon="2.9213">
        <ele>1018.322897</ele>
        <time>2021-07-06T11:31:01+0200</time>
      </trkpt>
      <trkpt lat="45.65559" lon="2.92118">
        <ele>1017.937403</ele>
        <time>2021-07-06T11:31:02+0200</time>
      </trkpt>
      <trkpt lat="45.65551" lon="2.92107">
        <ele>1017.534948</ele>
        <time>2021-07-06T11:31:03+0200</time>
      </trkpt>
      <trkpt lat="45.65545" lon="2.92096">
        <ele>1017.458491</ele>
        <time>2021-07-06T11:31:04+0200</time>
      </trkpt>
      <trkpt lat="45.6554" lon="2.92084">
        <ele>1017.006715</ele>
        <time>2021-07-06T11:31:05+0200</time>
      </trkpt>
      <trkpt lat="45.65534" lon="2.92074">
        <ele>1017.318119</ele>
        <time>2021-07-06T11:31:06+0200</time>
      </trkpt>
      <trkpt lat="45.65527" lon="2.92065">
        <ele>1017.529186</ele>
        <time>2021-07-06T11:31:07+0200</time>
      </trkpt>
      <trkpt lat="45.65522" lon="2.92056">
        <ele>1017.922928</ele>
        <time>2021-07-06T11:31:08+0200</time>
      </trkpt>
      <trkpt lat="45.65518" lon="2.92049">
        <ele>1018.517032</ele>
        <time>2021-07-06T11:31:09+0200</time>
      </trkpt>
      <trkpt lat="45.65514" lon="2.92042">
        <ele>1019.013881</ele>
        <time>2021-07-06T11:31:10+0200</time>
      </trkpt>
      <trkpt lat="45.65512" lon="2.92037">
        <ele>1019.807097</ele>
        <time>2021-07-06T11:31:11+0200</time>
      </trkpt>
      <trkpt lat="45.65509" lon="2.9203">
        <ele>1021.476764</ele>
        <time>2021-07-06T11:31:13+0200</time>
      </trkpt>
      <trkpt lat="45.65505" lon="2.92025">
        <ele>1022.223168</ele>
        <time>2021-07-06T11:31:15+0200</time>
      </trkpt>
      <trkpt lat="45.65503" lon="2.92017">
        <ele>1022.309556</ele>
        <time>2021-07-06T11:31:18+0200</time>
      </trkpt>
      <trkpt lat="45.65499" lon="2.9201">
        <ele>1023.342173</ele>
        <time>2021-07-06T11:31:21+0200</time>
      </trkpt>
      <trkpt lat="45.65496" lon="2.92005">
        <ele>1023.796578</ele>
        <time>2021-07-06T11:31:23+0200</time>
      </trkpt>
      <trkpt lat="45.65493" lon="2.92">
        <ele>1024.952683</ele>
        <time>2021-07-06T11:31:25+0200</time>
      </trkpt>
      <trkpt lat="45.65489" lon="2.91994">
        <ele>1025.665347</ele>
        <time>2021-07-06T11:31:27+0200</time>
      </trkpt>
      <trkpt lat="45.65486" lon="2.91989">
        <ele>1026.341293</ele>
        <time>2021-07-06T11:31:29+0200</time>
      </trkpt>
      <trkpt lat="45.65483" lon="2.91984">
        <ele>1026.655878</ele>
        <time>2021-07-06T11:31:31+0200</time>
      </trkpt>
      <trkpt lat="45.65478" lon="2.91978">
        <ele>1027.383085</ele>
        <time>2021-07-06T11:31:34+0200</time>
      </trkpt>
      <trkpt lat="45.65476" lon="2.91973">
        <ele>1027.371201</ele>
        <time>2021-07-06T11:31:36+0200</time>
      </trkpt>
      <trkpt lat="45.65472" lon="2.91968">
        <ele>1027.596411</ele>
        <time>2021-07-06T11:31:38+0200</time>
      </trkpt>
      <trkpt lat="45.65467" lon="2.91962">
        <ele>1027.634941</ele>
        <time>2021-07-06T11:31:41+0200</time>
      </trkpt>
      <trkpt lat="45.65463" lon="2.91955">
        <ele>1027.993965</ele>
        <time>2021-07-06T11:31:44+0200</time>
      </trkpt>
      <trkpt lat="45.65459" lon="2.9195">
        <ele>1027.980232</ele>
        <time>2021-07-06T11:31:46+0200</time>
      </trkpt>
      <trkpt lat="45.65456" lon="2.91944">
        <ele>1028.169268</ele>
        <time>2021-07-06T11:31:48+0200</time>
      </trkpt>
      <trkpt lat="45.65453" lon="2.91936">
        <ele>1028.111155</ele>
        <time>2021-07-06T11:31:51+0200</time>
      </trkpt>
      <trkpt lat="45.6545" lon="2.9193">
        <ele>1028.808895</ele>
        <time>2021-07-06T11:31:53+0200</time>
      </trkpt>
      <trkpt lat="45.65447" lon="2.91925">
        <ele>1029.192305</ele>
        <time>2021-07-06T11:31:55+0200</time>
      </trkpt>
      <trkpt lat="45.65444" lon="2.9192">
        <ele>1029.30241</ele>
        <time>2021-07-06T11:31:57+0200</time>
      </trkpt>
      <trkpt lat="45.65441" lon="2.91914">
        <ele>1029.368419</ele>
        <time>2021-07-06T11:31:59+0200</time>
      </trkpt>
      <trkpt lat="45.65437" lon="2.91909">
        <ele>1029.287584</ele>
        <time>2021-07-06T11:32:01+0200</time>
      </trkpt>
      <trkpt lat="45.65434" lon="2.91904">
        <ele>1029.493935</ele>
        <time>2021-07-06T11:32:03+0200</time>
      </trkpt>
      <trkpt lat="45.65431" lon="2.91897">
        <ele>1029.726688</ele>
        <time>2021-07-06T11:32:05+0200</time>
      </trkpt>
      <trkpt lat="45.65427" lon="2.91892">
        <ele>1030.149753</ele>
        <time>2021-07-06T11:32:07+0200</time>
      </trkpt>
      <trkpt lat="45.65424" lon="2.91886">
        <ele>1030.427048</ele>
        <time>2021-07-06T11:32:09+0200</time>
      </trkpt>
      <trkpt lat="45.6542" lon="2.91878">
        <ele>1030.621981</ele>
        <time>2021-07-06T11:32:12+0200</time>
      </trkpt>
      <trkpt lat="45.65418" lon="2.91873">
        <ele>1030.706655</ele>
        <time>2021-07-06T11:32:14+0200</time>
      </trkpt>
      <trkpt lat="45.65415" lon="2.91867">
        <ele>1031.032939</ele>
        <time>2021-07-06T11:32:16+0200</time>
      </trkpt>
      <trkpt lat="45.6541" lon="2.91861">
        <ele>1030.57033</ele>
        <time>2021-07-06T11:32:18+0200</time>
      </trkpt>
      <trkpt lat="45.65406" lon="2.91853">
        <ele>1030.328928</ele>
        <time>2021-07-06T11:32:20+0200</time>
      </trkpt>
      <trkpt lat="45.65402" lon="2.91846">
        <ele>1030.700784</ele>
        <time>2021-07-06T11:32:22+0200</time>
      </trkpt>
      <trkpt lat="45.654" lon="2.9184">
        <ele>1030.97887</ele>
        <time>2021-07-06T11:32:24+0200</time>
      </trkpt>
      <trkpt lat="45.65398" lon="2.91833">
        <ele>1030.814523</ele>
        <time>2021-07-06T11:32:27+0200</time>
      </trkpt>
      <trkpt lat="45.65395" lon="2.91829">
        <ele>1031.283752</ele>
        <time>2021-07-06T11:32:29+0200</time>
      </trkpt>
      <trkpt lat="45.65392" lon="2.91823">
        <ele>1031.423834</ele>
        <time>2021-07-06T11:32:31+0200</time>
      </trkpt>
      <trkpt lat="45.65388" lon="2.91819">
        <ele>1031.607652</ele>
        <time>2021-07-06T11:32:33+0200</time>
      </trkpt>
      <trkpt lat="45.65386" lon="2.91813">
        <ele>1031.904349</ele>
        <time>2021-07-06T11:32:35+0200</time>
      </trkpt>
      <trkpt lat="45.65383" lon="2.91807">
        <ele>1032.407508</ele>
        <time>2021-07-06T11:32:37+0200</time>
      </trkpt>
      <trkpt lat="45.65379" lon="2.91803">
        <ele>1033.136503</ele>
        <time>2021-07-06T11:32:39+0200</time>
      </trkpt>
      <trkpt lat="45.65374" lon="2.91797">
        <ele>1033.641947</ele>
        <time>2021-07-06T11:32:42+0200</time>
      </trkpt>
      <trkpt lat="45.65372" lon="2.91792">
        <ele>1034.104443</ele>
        <time>2021-07-06T11:32:44+0200</time>
      </trkpt>
      <trkpt lat="45.65371" lon="2.91784">
        <ele>1034.147423</ele>
        <time>2021-07-06T11:32:46+0200</time>
      </trkpt>
      <trkpt lat="45.65367" lon="2.9178">
        <ele>1033.844088</ele>
        <time>2021-07-06T11:32:48+0200</time>
      </trkpt>
      <trkpt lat="45.65363" lon="2.91774">
        <ele>1033.918323</ele>
        <time>2021-07-06T11:32:50+0200</time>
      </trkpt>
      <trkpt lat="45.6536" lon="2.91769">
        <ele>1034.083876</ele>
        <time>2021-07-06T11:32:52+0200</time>
      </trkpt>
      <trkpt lat="45.65358" lon="2.91764">
        <ele>1034.69388</ele>
        <time>2021-07-06T11:32:54+0200</time>
      </trkpt>
      <trkpt lat="45.65355" lon="2.91759">
        <ele>1035.056667</ele>
        <time>2021-07-06T11:32:56+0200</time>
      </trkpt>
      <trkpt lat="45.65351" lon="2.91752">
        <ele>1035.256962</ele>
        <time>2021-07-06T11:32:59+0200</time>
      </trkpt>
      <trkpt lat="45.65348" lon="2.91747">
        <ele>1035.592418</ele>
        <time>2021-07-06T11:33:01+0200</time>
      </trkpt>
      <trkpt lat="45.65344" lon="2.91743">
        <ele>1036.323858</ele>
        <time>2021-07-06T11:33:03+0200</time>
      </trkpt>
      <trkpt lat="45.65339" lon="2.91737">
        <ele>1037.300802</ele>
        <time>2021-07-06T11:33:06+0200</time>
      </trkpt>
      <trkpt lat="45.65333" lon="2.91734">
        <ele>1038.575456</ele>
        <time>2021-07-06T11:33:09+0200</time>
      </trkpt>
      <trkpt lat="45.65328" lon="2.91731">
        <ele>1037.907012</ele>
        <time>2021-07-06T11:33:12+0200</time>
      </trkpt>
      <trkpt lat="45.65326" lon="2.91725">
        <ele>1042.152368</ele>
        <time>2021-07-06T11:33:24+0200</time>
      </trkpt>
      <trkpt lat="45.65321" lon="2.91728">
        <ele>1049.420521</ele>
        <time>2021-07-06T11:34:15+0200</time>
      </trkpt>
      <trkpt lat="45.65323" lon="2.91721">
        <ele>1044.844559</ele>
        <time>2021-07-06T11:34:41+0200</time>
      </trkpt>
      <trkpt lat="45.65321" lon="2.91712">
        <ele>1045.299514</ele>
        <time>2021-07-06T11:34:44+0200</time>
      </trkpt>
      <trkpt lat="45.65321" lon="2.91705">
        <ele>1045.877857</ele>
        <time>2021-07-06T11:34:46+0200</time>
      </trkpt>
      <trkpt lat="45.65319" lon="2.91697">
        <ele>1045.752761</ele>
        <time>2021-07-06T11:34:49+0200</time>
      </trkpt>
      <trkpt lat="45.65318" lon="2.91691">
        <ele>1046.743636</ele>
        <time>2021-07-06T11:34:51+0200</time>
      </trkpt>
      <trkpt lat="45.65316" lon="2.91682">
        <ele>1046.0136</ele>
        <time>2021-07-06T11:34:54+0200</time>
      </trkpt>
      <trkpt lat="45.65315" lon="2.91675">
        <ele>1045.999949</ele>
        <time>2021-07-06T11:34:56+0200</time>
      </trkpt>
      <trkpt lat="45.65314" lon="2.91668">
        <ele>1046.57046</ele>
        <time>2021-07-06T11:34:58+0200</time>
      </trkpt>
      <trkpt lat="45.65312" lon="2.91662">
        <ele>1045.598419</ele>
        <time>2021-07-06T11:35:00+0200</time>
      </trkpt>
      <trkpt lat="45.6531" lon="2.91655">
        <ele>1044.923352</ele>
        <time>2021-07-06T11:35:02+0200</time>
      </trkpt>
      <trkpt lat="45.6531" lon="2.91648">
        <ele>1044.673596</ele>
        <time>2021-07-06T11:35:04+0200</time>
      </trkpt>
      <trkpt lat="45.65307" lon="2.91641">
        <ele>1043.826699</ele>
        <time>2021-07-06T11:35:06+0200</time>
      </trkpt>
      <trkpt lat="45.65305" lon="2.91633">
        <ele>1043.877828</ele>
        <time>2021-07-06T11:35:09+0200</time>
      </trkpt>
      <trkpt lat="45.653" lon="2.91629">
        <ele>1044.579686</ele>
        <time>2021-07-06T11:35:12+0200</time>
      </trkpt>
      <trkpt lat="45.65296" lon="2.91626">
        <ele>1043.569789</ele>
        <time>2021-07-06T11:35:14+0200</time>
      </trkpt>
      <trkpt lat="45.65291" lon="2.9163">
        <ele>1043.927367</ele>
        <time>2021-07-06T11:35:16+0200</time>
      </trkpt>
      <trkpt lat="45.65289" lon="2.91636">
        <ele>1044.063041</ele>
        <time>2021-07-06T11:35:18+0200</time>
      </trkpt>
      <trkpt lat="45.65287" lon="2.91643">
        <ele>1043.731519</ele>
        <time>2021-07-06T11:35:20+0200</time>
      </trkpt>
      <trkpt lat="45.65283" lon="2.91651">
        <ele>1043.649677</ele>
        <time>2021-07-06T11:35:22+0200</time>
      </trkpt>
      <trkpt lat="45.65278" lon="2.91659">
        <ele>1044.424705</ele>
        <time>2021-07-06T11:35:24+0200</time>
      </trkpt>
      <trkpt lat="45.65273" lon="2.91668">
        <ele>1045.107816</ele>
        <time>2021-07-06T11:35:26+0200</time>
      </trkpt>
      <trkpt lat="45.65272" lon="2.91676">
        <ele>1045.565611</ele>
        <time>2021-07-06T11:35:27+0200</time>
      </trkpt>
      <trkpt lat="45.6527" lon="2.91683">
        <ele>1046.259057</ele>
        <time>2021-07-06T11:35:28+0200</time>
      </trkpt>
      <trkpt lat="45.65268" lon="2.9169">
        <ele>1047.273533</ele>
        <time>2021-07-06T11:35:29+0200</time>
      </trkpt>
      <trkpt lat="45.65263" lon="2.91695">
        <ele>1048.583071</ele>
        <time>2021-07-06T11:35:30+0200</time>
      </trkpt>
      <trkpt lat="45.65258" lon="2.917">
        <ele>1049.082673</ele>
        <time>2021-07-06T11:35:31+0200</time>
      </trkpt>
      <trkpt lat="45.65252" lon="2.91704">
        <ele>1049.15111</ele>
        <time>2021-07-06T11:35:32+0200</time>
      </trkpt>
      <trkpt lat="45.65246" lon="2.91707">
        <ele>1048.884829</ele>
        <time>2021-07-06T11:35:33+0200</time>
      </trkpt>
      <trkpt lat="45.65241" lon="2.9171">
        <ele>1047.732002</ele>
        <time>2021-07-06T11:35:34+0200</time>
      </trkpt>
      <trkpt lat="45.65236" lon="2.91713">
        <ele>1047.044592</ele>
        <time>2021-07-06T11:35:35+0200</time>
      </trkpt>
      <trkpt lat="45.65231" lon="2.91716">
        <ele>1046.887229</ele>
        <time>2021-07-06T11:35:36+0200</time>
      </trkpt>
      <trkpt lat="45.65225" lon="2.9172">
        <ele>1046.308193</ele>
        <time>2021-07-06T11:35:37+0200</time>
      </trkpt>
      <trkpt lat="45.65221" lon="2.91724">
        <ele>1045.732361</ele>
        <time>2021-07-06T11:35:38+0200</time>
      </trkpt>
      <trkpt lat="45.65217" lon="2.91729">
        <ele>1045.187542</ele>
        <time>2021-07-06T11:35:39+0200</time>
      </trkpt>
      <trkpt lat="45.65212" lon="2.91734">
        <ele>1045.171192</ele>
        <time>2021-07-06T11:35:40+0200</time>
      </trkpt>
      <trkpt lat="45.65205" lon="2.91738">
        <ele>1044.289162</ele>
        <time>2021-07-06T11:35:42+0200</time>
      </trkpt>
      <trkpt lat="45.65199" lon="2.91744">
        <ele>1044.889512</ele>
        <time>2021-07-06T11:35:45+0200</time>
      </trkpt>
      <trkpt lat="45.65193" lon="2.91748">
        <ele>1043.690186</ele>
        <time>2021-07-06T11:35:47+0200</time>
      </trkpt>
      <trkpt lat="45.65187" lon="2.91749">
        <ele>1042.929311</ele>
        <time>2021-07-06T11:35:49+0200</time>
      </trkpt>
      <trkpt lat="45.65179" lon="2.91754">
        <ele>1043.082798</ele>
        <time>2021-07-06T11:35:51+0200</time>
      </trkpt>
      <trkpt lat="45.65175" lon="2.91758">
        <ele>1042.32753</ele>
        <time>2021-07-06T11:35:52+0200</time>
      </trkpt>
      <trkpt lat="45.6517" lon="2.91762">
        <ele>1042.048313</ele>
        <time>2021-07-06T11:35:53+0200</time>
      </trkpt>
      <trkpt lat="45.65165" lon="2.91766">
        <ele>1041.368537</ele>
        <time>2021-07-06T11:35:54+0200</time>
      </trkpt>
      <trkpt lat="45.65158" lon="2.9177">
        <ele>1041.241494</ele>
        <time>2021-07-06T11:35:55+0200</time>
      </trkpt>
      <trkpt lat="45.65151" lon="2.91773">
        <ele>1040.641088</ele>
        <time>2021-07-06T11:35:56+0200</time>
      </trkpt>
      <trkpt lat="45.65144" lon="2.91777">
        <ele>1039.911781</ele>
        <time>2021-07-06T11:35:57+0200</time>
      </trkpt>
      <trkpt lat="45.65136" lon="2.91781">
        <ele>1038.860494</ele>
        <time>2021-07-06T11:35:58+0200</time>
      </trkpt>
      <trkpt lat="45.65128" lon="2.91786">
        <ele>1038.122571</ele>
        <time>2021-07-06T11:35:59+0200</time>
      </trkpt>
      <trkpt lat="45.65121" lon="2.91791">
        <ele>1037.404058</ele>
        <time>2021-07-06T11:36:00+0200</time>
      </trkpt>
      <trkpt lat="45.65113" lon="2.91796">
        <ele>1036.785538</ele>
        <time>2021-07-06T11:36:01+0200</time>
      </trkpt>
      <trkpt lat="45.65106" lon="2.91799">
        <ele>1036.931476</ele>
        <time>2021-07-06T11:36:02+0200</time>
      </trkpt>
      <trkpt lat="45.65099" lon="2.91801">
        <ele>1036.742569</ele>
        <time>2021-07-06T11:36:03+0200</time>
      </trkpt>
      <trkpt lat="45.65093" lon="2.91802">
        <ele>1037.023818</ele>
        <time>2021-07-06T11:36:04+0200</time>
      </trkpt>
      <trkpt lat="45.65088" lon="2.918">
        <ele>1037.399439</ele>
        <time>2021-07-06T11:36:05+0200</time>
      </trkpt>
      <trkpt lat="45.65083" lon="2.91801">
        <ele>1035.748531</ele>
        <time>2021-07-06T11:36:07+0200</time>
      </trkpt>
      <trkpt lat="45.65079" lon="2.91802">
        <ele>1033.172878</ele>
        <time>2021-07-06T11:36:09+0200</time>
      </trkpt>
      <trkpt lat="45.65073" lon="2.91805">
        <ele>1031.341525</ele>
        <time>2021-07-06T11:36:11+0200</time>
      </trkpt>
      <trkpt lat="45.6507" lon="2.91811">
        <ele>1029.625816</ele>
        <time>2021-07-06T11:36:14+0200</time>
      </trkpt>
      <trkpt lat="45.65066" lon="2.91819">
        <ele>1028.687312</ele>
        <time>2021-07-06T11:36:16+0200</time>
      </trkpt>
      <trkpt lat="45.65066" lon="2.91831">
        <ele>1028.140576</ele>
        <time>2021-07-06T11:36:18+0200</time>
      </trkpt>
      <trkpt lat="45.65066" lon="2.91838">
        <ele>1027.331514</ele>
        <time>2021-07-06T11:36:19+0200</time>
      </trkpt>
      <trkpt lat="45.65067" lon="2.91849">
        <ele>1026.569109</ele>
        <time>2021-07-06T11:36:21+0200</time>
      </trkpt>
      <trkpt lat="45.65067" lon="2.91861">
        <ele>1025.272253</ele>
        <time>2021-07-06T11:36:23+0200</time>
      </trkpt>
      <trkpt lat="45.65067" lon="2.91873">
        <ele>1024.915884</ele>
        <time>2021-07-06T11:36:25+0200</time>
      </trkpt>
      <trkpt lat="45.65066" lon="2.9188">
        <ele>1024.573021</ele>
        <time>2021-07-06T11:36:26+0200</time>
      </trkpt>
      <trkpt lat="45.65065" lon="2.91887">
        <ele>1024.152156</ele>
        <time>2021-07-06T11:36:27+0200</time>
      </trkpt>
      <trkpt lat="45.65065" lon="2.91894">
        <ele>1023.843902</ele>
        <time>2021-07-06T11:36:28+0200</time>
      </trkpt>
      <trkpt lat="45.65063" lon="2.91902">
        <ele>1023.504046</ele>
        <time>2021-07-06T11:36:29+0200</time>
      </trkpt>
      <trkpt lat="45.65062" lon="2.9191">
        <ele>1023.014689</ele>
        <time>2021-07-06T11:36:30+0200</time>
      </trkpt>
      <trkpt lat="45.65061" lon="2.91919">
        <ele>1022.400829</ele>
        <time>2021-07-06T11:36:31+0200</time>
      </trkpt>
      <trkpt lat="45.6506" lon="2.91928">
        <ele>1021.362843</ele>
        <time>2021-07-06T11:36:32+0200</time>
      </trkpt>
      <trkpt lat="45.65058" lon="2.91938">
        <ele>1020.695087</ele>
        <time>2021-07-06T11:36:33+0200</time>
      </trkpt>
      <trkpt lat="45.65057" lon="2.9195">
        <ele>1019.783179</ele>
        <time>2021-07-06T11:36:34+0200</time>
      </trkpt>
      <trkpt lat="45.65056" lon="2.91961">
        <ele>1018.913686</ele>
        <time>2021-07-06T11:36:35+0200</time>
      </trkpt>
      <trkpt lat="45.65055" lon="2.91974">
        <ele>1018.143104</ele>
        <time>2021-07-06T11:36:36+0200</time>
      </trkpt>
      <trkpt lat="45.65054" lon="2.91987">
        <ele>1017.479005</ele>
        <time>2021-07-06T11:36:37+0200</time>
      </trkpt>
      <trkpt lat="45.65054" lon="2.92001">
        <ele>1016.518904</ele>
        <time>2021-07-06T11:36:38+0200</time>
      </trkpt>
      <trkpt lat="45.65053" lon="2.92014">
        <ele>1015.252337</ele>
        <time>2021-07-06T11:36:39+0200</time>
      </trkpt>
      <trkpt lat="45.65052" lon="2.92028">
        <ele>1013.327323</ele>
        <time>2021-07-06T11:36:40+0200</time>
      </trkpt>
      <trkpt lat="45.65049" lon="2.92043">
        <ele>1011.608159</ele>
        <time>2021-07-06T11:36:41+0200</time>
      </trkpt>
      <trkpt lat="45.65045" lon="2.92058">
        <ele>1010.286805</ele>
        <time>2021-07-06T11:36:42+0200</time>
      </trkpt>
      <trkpt lat="45.6504" lon="2.92073">
        <ele>1008.731824</ele>
        <time>2021-07-06T11:36:43+0200</time>
      </trkpt>
      <trkpt lat="45.65033" lon="2.92085">
        <ele>1008.190444</ele>
        <time>2021-07-06T11:36:44+0200</time>
      </trkpt>
      <trkpt lat="45.65026" lon="2.921">
        <ele>1007.224104</ele>
        <time>2021-07-06T11:36:45+0200</time>
      </trkpt>
      <trkpt lat="45.65021" lon="2.92113">
        <ele>1006.251788</ele>
        <time>2021-07-06T11:36:46+0200</time>
      </trkpt>
      <trkpt lat="45.65015" lon="2.92126">
        <ele>1005.57439</ele>
        <time>2021-07-06T11:36:47+0200</time>
      </trkpt>
      <trkpt lat="45.65008" lon="2.9214">
        <ele>1004.609294</ele>
        <time>2021-07-06T11:36:48+0200</time>
      </trkpt>
      <trkpt lat="45.65003" lon="2.92155">
        <ele>1003.338569</ele>
        <time>2021-07-06T11:36:49+0200</time>
      </trkpt>
      <trkpt lat="45.64999" lon="2.9217">
        <ele>1002.460777</ele>
        <time>2021-07-06T11:36:50+0200</time>
      </trkpt>
      <trkpt lat="45.64995" lon="2.92186">
        <ele>1001.580476</ele>
        <time>2021-07-06T11:36:51+0200</time>
      </trkpt>
      <trkpt lat="45.6499" lon="2.922">
        <ele>1001.112421</ele>
        <time>2021-07-06T11:36:52+0200</time>
      </trkpt>
      <trkpt lat="45.64982" lon="2.92211">
        <ele>1000.518181</ele>
        <time>2021-07-06T11:36:53+0200</time>
      </trkpt>
      <trkpt lat="45.64973" lon="2.9222">
        <ele>1000.288668</ele>
        <time>2021-07-06T11:36:54+0200</time>
      </trkpt>
      <trkpt lat="45.64964" lon="2.92228">
        <ele>999.792572</ele>
        <time>2021-07-06T11:36:55+0200</time>
      </trkpt>
      <trkpt lat="45.64954" lon="2.92235">
        <ele>999.226475</ele>
        <time>2021-07-06T11:36:56+0200</time>
      </trkpt>
      <trkpt lat="45.64946" lon="2.92242">
        <ele>998.883087</ele>
        <time>2021-07-06T11:36:57+0200</time>
      </trkpt>
      <trkpt lat="45.64937" lon="2.9225">
        <ele>998.928282</ele>
        <time>2021-07-06T11:36:58+0200</time>
      </trkpt>
      <trkpt lat="45.64931" lon="2.92256">
        <ele>998.724896</ele>
        <time>2021-07-06T11:36:59+0200</time>
      </trkpt>
      <trkpt lat="45.64927" lon="2.9226">
        <ele>998.622091</ele>
        <time>2021-07-06T11:37:00+0200</time>
      </trkpt>
      <trkpt lat="45.64923" lon="2.92266">
        <ele>997.935532</ele>
        <time>2021-07-06T11:37:02+0200</time>
      </trkpt>
      <trkpt lat="45.64921" lon="2.92273">
        <ele>1000.178707</ele>
        <time>2021-07-06T11:37:12+0200</time>
      </trkpt>
      <trkpt lat="45.64916" lon="2.92278">
        <ele>1001.1771</ele>
        <time>2021-07-06T11:37:15+0200</time>
      </trkpt>
      <trkpt lat="45.64911" lon="2.92282">
        <ele>1002.748951</ele>
        <time>2021-07-06T11:37:17+0200</time>
      </trkpt>
      <trkpt lat="45.64907" lon="2.92286">
        <ele>1003.145719</ele>
        <time>2021-07-06T11:37:19+0200</time>
      </trkpt>
      <trkpt lat="45.64901" lon="2.92289">
        <ele>1001.950654</ele>
        <time>2021-07-06T11:37:21+0200</time>
      </trkpt>
      <trkpt lat="45.64896" lon="2.92293">
        <ele>1001.242751</ele>
        <time>2021-07-06T11:37:23+0200</time>
      </trkpt>
      <trkpt lat="45.64892" lon="2.92296">
        <ele>999.857306</ele>
        <time>2021-07-06T11:37:25+0200</time>
      </trkpt>
      <trkpt lat="45.64889" lon="2.92302">
        <ele>1000.612072</ele>
        <time>2021-07-06T11:37:27+0200</time>
      </trkpt>
      <trkpt lat="45.64888" lon="2.92311">
        <ele>1000.745506</ele>
        <time>2021-07-06T11:37:30+0200</time>
      </trkpt>
      <trkpt lat="45.64886" lon="2.92319">
        <ele>1000.619688</ele>
        <time>2021-07-06T11:37:32+0200</time>
      </trkpt>
      <trkpt lat="45.64887" lon="2.92326">
        <ele>1000.864594</ele>
        <time>2021-07-06T11:37:34+0200</time>
      </trkpt>
      <trkpt lat="45.64886" lon="2.92334">
        <ele>1001.024091</ele>
        <time>2021-07-06T11:37:37+0200</time>
      </trkpt>
      <trkpt lat="45.64885" lon="2.92341">
        <ele>1002.101931</ele>
        <time>2021-07-06T11:37:39+0200</time>
      </trkpt>
      <trkpt lat="45.64886" lon="2.92347">
        <ele>1002.167064</ele>
        <time>2021-07-06T11:37:41+0200</time>
      </trkpt>
      <trkpt lat="45.64887" lon="2.92354">
        <ele>1001.869865</ele>
        <time>2021-07-06T11:37:43+0200</time>
      </trkpt>
      <trkpt lat="45.64886" lon="2.92364">
        <ele>1002.142082</ele>
        <time>2021-07-06T11:37:46+0200</time>
      </trkpt>
      <trkpt lat="45.64886" lon="2.92372">
        <ele>1002.171447</ele>
        <time>2021-07-06T11:37:48+0200</time>
      </trkpt>
      <trkpt lat="45.64886" lon="2.92381">
        <ele>1002.225628</ele>
        <time>2021-07-06T11:37:51+0200</time>
      </trkpt>
      <trkpt lat="45.64885" lon="2.92388">
        <ele>1002.262719</ele>
        <time>2021-07-06T11:37:53+0200</time>
      </trkpt>
      <trkpt lat="45.64885" lon="2.92395">
        <ele>1001.945885</ele>
        <time>2021-07-06T11:37:55+0200</time>
      </trkpt>
      <trkpt lat="45.64885" lon="2.92404">
        <ele>1002.985396</ele>
        <time>2021-07-06T11:37:58+0200</time>
      </trkpt>
      <trkpt lat="45.64884" lon="2.9241">
        <ele>1002.635385</ele>
        <time>2021-07-06T11:38:00+0200</time>
      </trkpt>
      <trkpt lat="45.64883" lon="2.92417">
        <ele>1002.808073</ele>
        <time>2021-07-06T11:38:02+0200</time>
      </trkpt>
      <trkpt lat="45.64885" lon="2.92425">
        <ele>1002.713419</ele>
        <time>2021-07-06T11:38:05+0200</time>
      </trkpt>
      <trkpt lat="45.64885" lon="2.92432">
        <ele>1003.530663</ele>
        <time>2021-07-06T11:38:08+0200</time>
      </trkpt>
      <trkpt lat="45.64883" lon="2.92441">
        <ele>1005.621408</ele>
        <time>2021-07-06T11:38:11+0200</time>
      </trkpt>
      <trkpt lat="45.64881" lon="2.92447">
        <ele>1006.899827</ele>
        <time>2021-07-06T11:38:13+0200</time>
      </trkpt>
      <trkpt lat="45.64877" lon="2.92453">
        <ele>1008.575944</ele>
        <time>2021-07-06T11:38:16+0200</time>
      </trkpt>
      <trkpt lat="45.64872" lon="2.92458">
        <ele>1009.624997</ele>
        <time>2021-07-06T11:38:19+0200</time>
      </trkpt>
      <trkpt lat="45.64867" lon="2.92461">
        <ele>1010.499765</ele>
        <time>2021-07-06T11:38:21+0200</time>
      </trkpt>
      <trkpt lat="45.64863" lon="2.92464">
        <ele>1010.925305</ele>
        <time>2021-07-06T11:38:24+0200</time>
      </trkpt>
      <trkpt lat="45.64857" lon="2.92469">
        <ele>1011.170267</ele>
        <time>2021-07-06T11:38:27+0200</time>
      </trkpt>
      <trkpt lat="45.64852" lon="2.92474">
        <ele>1011.909595</ele>
        <time>2021-07-06T11:38:30+0200</time>
      </trkpt>
      <trkpt lat="45.64847" lon="2.9248">
        <ele>1012.164243</ele>
        <time>2021-07-06T11:38:33+0200</time>
      </trkpt>
      <trkpt lat="45.64842" lon="2.92486">
        <ele>1012.404426</ele>
        <time>2021-07-06T11:38:36+0200</time>
      </trkpt>
      <trkpt lat="45.64838" lon="2.92491">
        <ele>1012.769323</ele>
        <time>2021-07-06T11:38:39+0200</time>
      </trkpt>
      <trkpt lat="45.64833" lon="2.92496">
        <ele>1013.300861</ele>
        <time>2021-07-06T11:38:42+0200</time>
      </trkpt>
      <trkpt lat="45.64829" lon="2.92503">
        <ele>1014.028126</ele>
        <time>2021-07-06T11:38:45+0200</time>
      </trkpt>
      <trkpt lat="45.64825" lon="2.92507">
        <ele>1014.29513</ele>
        <time>2021-07-06T11:38:47+0200</time>
      </trkpt>
      <trkpt lat="45.64821" lon="2.92514">
        <ele>1014.509426</ele>
        <time>2021-07-06T11:38:50+0200</time>
      </trkpt>
      <trkpt lat="45.64817" lon="2.92521">
        <ele>1015.219367</ele>
        <time>2021-07-06T11:38:53+0200</time>
      </trkpt>
      <trkpt lat="45.64813" lon="2.92527">
        <ele>1015.837533</ele>
        <time>2021-07-06T11:38:56+0200</time>
      </trkpt>
      <trkpt lat="45.64808" lon="2.92532">
        <ele>1016.038644</ele>
        <time>2021-07-06T11:38:59+0200</time>
      </trkpt>
      <trkpt lat="45.64803" lon="2.92539">
        <ele>1016.930234</ele>
        <time>2021-07-06T11:39:02+0200</time>
      </trkpt>
      <trkpt lat="45.64798" lon="2.92544">
        <ele>1017.399026</ele>
        <time>2021-07-06T11:39:05+0200</time>
      </trkpt>
      <trkpt lat="45.64795" lon="2.92548">
        <ele>1016.908901</ele>
        <time>2021-07-06T11:39:07+0200</time>
      </trkpt>
      <trkpt lat="45.6479" lon="2.92555">
        <ele>1017.229734</ele>
        <time>2021-07-06T11:39:10+0200</time>
      </trkpt>
      <trkpt lat="45.64786" lon="2.92559">
        <ele>1017.623359</ele>
        <time>2021-07-06T11:39:12+0200</time>
      </trkpt>
      <trkpt lat="45.64782" lon="2.92563">
        <ele>1018.020638</ele>
        <time>2021-07-06T11:39:14+0200</time>
      </trkpt>
      <trkpt lat="45.64778" lon="2.92568">
        <ele>1018.261758</ele>
        <time>2021-07-06T11:39:16+0200</time>
      </trkpt>
      <trkpt lat="45.64774" lon="2.92573">
        <ele>1018.405238</ele>
        <time>2021-07-06T11:39:18+0200</time>
      </trkpt>
      <trkpt lat="45.6477" lon="2.92577">
        <ele>1018.72819</ele>
        <time>2021-07-06T11:39:20+0200</time>
      </trkpt>
      <trkpt lat="45.64765" lon="2.92581">
        <ele>1019.16205</ele>
        <time>2021-07-06T11:39:22+0200</time>
      </trkpt>
      <trkpt lat="45.64761" lon="2.92586">
        <ele>1019.183685</ele>
        <time>2021-07-06T11:39:24+0200</time>
      </trkpt>
      <trkpt lat="45.64757" lon="2.92591">
        <ele>1019.761528</ele>
        <time>2021-07-06T11:39:26+0200</time>
      </trkpt>
      <trkpt lat="45.64752" lon="2.92595">
        <ele>1019.657138</ele>
        <time>2021-07-06T11:39:28+0200</time>
      </trkpt>
      <trkpt lat="45.64747" lon="2.92601">
        <ele>1019.747878</ele>
        <time>2021-07-06T11:39:30+0200</time>
      </trkpt>
      <trkpt lat="45.64743" lon="2.92606">
        <ele>1020.021985</ele>
        <time>2021-07-06T11:39:32+0200</time>
      </trkpt>
      <trkpt lat="45.64739" lon="2.92611">
        <ele>1020.258823</ele>
        <time>2021-07-06T11:39:34+0200</time>
      </trkpt>
      <trkpt lat="45.64734" lon="2.92617">
        <ele>1020.600465</ele>
        <time>2021-07-06T11:39:36+0200</time>
      </trkpt>
      <trkpt lat="45.64731" lon="2.92623">
        <ele>1021.02176</ele>
        <time>2021-07-06T11:39:38+0200</time>
      </trkpt>
      <trkpt lat="45.64727" lon="2.9263">
        <ele>1020.653303</ele>
        <time>2021-07-06T11:39:40+0200</time>
      </trkpt>
      <trkpt lat="45.64724" lon="2.92638">
        <ele>1021.274201</ele>
        <time>2021-07-06T11:39:42+0200</time>
      </trkpt>
      <trkpt lat="45.64719" lon="2.92649">
        <ele>1021.298557</ele>
        <time>2021-07-06T11:39:44+0200</time>
      </trkpt>
      <trkpt lat="45.64716" lon="2.92655">
        <ele>1021.460421</ele>
        <time>2021-07-06T11:39:45+0200</time>
      </trkpt>
      <trkpt lat="45.64712" lon="2.92665">
        <ele>1020.968965</ele>
        <time>2021-07-06T11:39:47+0200</time>
      </trkpt>
      <trkpt lat="45.64707" lon="2.92672">
        <ele>1020.206129</ele>
        <time>2021-07-06T11:39:49+0200</time>
      </trkpt>
      <trkpt lat="45.64701" lon="2.92678">
        <ele>1017.230934</ele>
        <time>2021-07-06T11:39:52+0200</time>
      </trkpt>
      <trkpt lat="45.64694" lon="2.92676">
        <ele>1015.291548</ele>
        <time>2021-07-06T11:39:54+0200</time>
      </trkpt>
      <trkpt lat="45.64688" lon="2.92672">
        <ele>1014.399298</ele>
        <time>2021-07-06T11:39:56+0200</time>
      </trkpt>
      <trkpt lat="45.64683" lon="2.92666">
        <ele>1013.787178</ele>
        <time>2021-07-06T11:39:58+0200</time>
      </trkpt>
      <trkpt lat="45.64678" lon="2.92661">
        <ele>1013.600236</ele>
        <time>2021-07-06T11:40:00+0200</time>
      </trkpt>
      <trkpt lat="45.64672" lon="2.92657">
        <ele>1013.882745</ele>
        <time>2021-07-06T11:40:02+0200</time>
      </trkpt>
      <trkpt lat="45.64666" lon="2.92652">
        <ele>1014.403261</ele>
        <time>2021-07-06T11:40:04+0200</time>
      </trkpt>
      <trkpt lat="45.64662" lon="2.92646">
        <ele>1014.842894</ele>
        <time>2021-07-06T11:40:06+0200</time>
      </trkpt>
      <trkpt lat="45.64659" lon="2.9264">
        <ele>1014.390258</ele>
        <time>2021-07-06T11:40:08+0200</time>
      </trkpt>
      <trkpt lat="45.64654" lon="2.92636">
        <ele>1014.927415</ele>
        <time>2021-07-06T11:40:10+0200</time>
      </trkpt>
      <trkpt lat="45.6465" lon="2.92631">
        <ele>1015.581661</ele>
        <time>2021-07-06T11:40:12+0200</time>
      </trkpt>
      <trkpt lat="45.64645" lon="2.92625">
        <ele>1015.413588</ele>
        <time>2021-07-06T11:40:14+0200</time>
      </trkpt>
      <trkpt lat="45.64639" lon="2.92619">
        <ele>1014.963445</ele>
        <time>2021-07-06T11:40:16+0200</time>
      </trkpt>
      <trkpt lat="45.64634" lon="2.92614">
        <ele>1014.618031</ele>
        <time>2021-07-06T11:40:18+0200</time>
      </trkpt>
      <trkpt lat="45.6463" lon="2.92609">
        <ele>1014.567277</ele>
        <time>2021-07-06T11:40:20+0200</time>
      </trkpt>
      <trkpt lat="45.64625" lon="2.92603">
        <ele>1014.412819</ele>
        <time>2021-07-06T11:40:22+0200</time>
      </trkpt>
      <trkpt lat="45.6462" lon="2.92597">
        <ele>1014.324514</ele>
        <time>2021-07-06T11:40:24+0200</time>
      </trkpt>
      <trkpt lat="45.64614" lon="2.92593">
        <ele>1015.74243</ele>
        <time>2021-07-06T11:40:26+0200</time>
      </trkpt>
      <trkpt lat="45.64608" lon="2.92589">
        <ele>1016.498116</ele>
        <time>2021-07-06T11:40:28+0200</time>
      </trkpt>
      <trkpt lat="45.64602" lon="2.92587">
        <ele>1017.057007</ele>
        <time>2021-07-06T11:40:30+0200</time>
      </trkpt>
      <trkpt lat="45.64596" lon="2.92585">
        <ele>1018.10798</ele>
        <time>2021-07-06T11:40:32+0200</time>
      </trkpt>
      <trkpt lat="45.6459" lon="2.92581">
        <ele>1017.969078</ele>
        <time>2021-07-06T11:40:34+0200</time>
      </trkpt>
      <trkpt lat="45.64585" lon="2.92576">
        <ele>1018.023648</ele>
        <time>2021-07-06T11:40:36+0200</time>
      </trkpt>
      <trkpt lat="45.64581" lon="2.9257">
        <ele>1019.39508</ele>
        <time>2021-07-06T11:40:38+0200</time>
      </trkpt>
      <trkpt lat="45.64576" lon="2.92563">
        <ele>1020.272764</ele>
        <time>2021-07-06T11:40:40+0200</time>
      </trkpt>
      <trkpt lat="45.64572" lon="2.92556">
        <ele>1020.332381</ele>
        <time>2021-07-06T11:40:42+0200</time>
      </trkpt>
      <trkpt lat="45.6457" lon="2.9255">
        <ele>1020.959112</ele>
        <time>2021-07-06T11:40:44+0200</time>
      </trkpt>
      <trkpt lat="45.64566" lon="2.92544">
        <ele>1021.847097</ele>
        <time>2021-07-06T11:40:46+0200</time>
      </trkpt>
      <trkpt lat="45.64564" lon="2.92536">
        <ele>1022.566257</ele>
        <time>2021-07-06T11:40:48+0200</time>
      </trkpt>
      <trkpt lat="45.64564" lon="2.92527">
        <ele>1023.176686</ele>
        <time>2021-07-06T11:40:50+0200</time>
      </trkpt>
      <trkpt lat="45.64561" lon="2.92517">
        <ele>1024.091223</ele>
        <time>2021-07-06T11:40:52+0200</time>
      </trkpt>
      <trkpt lat="45.64558" lon="2.92508">
        <ele>1024.033974</ele>
        <time>2021-07-06T11:40:54+0200</time>
      </trkpt>
      <trkpt lat="45.64554" lon="2.925">
        <ele>1024.685285</ele>
        <time>2021-07-06T11:40:56+0200</time>
      </trkpt>
      <trkpt lat="45.64552" lon="2.92491">
        <ele>1024.751415</ele>
        <time>2021-07-06T11:40:58+0200</time>
      </trkpt>
      <trkpt lat="45.6455" lon="2.92481">
        <ele>1025.222804</ele>
        <time>2021-07-06T11:41:00+0200</time>
      </trkpt>
      <trkpt lat="45.64548" lon="2.92471">
        <ele>1026.384092</ele>
        <time>2021-07-06T11:41:02+0200</time>
      </trkpt>
      <trkpt lat="45.64544" lon="2.92464">
        <ele>1026.977842</ele>
        <time>2021-07-06T11:41:04+0200</time>
      </trkpt>
      <trkpt lat="45.64542" lon="2.92456">
        <ele>1027.465594</ele>
        <time>2021-07-06T11:41:06+0200</time>
      </trkpt>
      <trkpt lat="45.64538" lon="2.92448">
        <ele>1029.541403</ele>
        <time>2021-07-06T11:41:08+0200</time>
      </trkpt>
      <trkpt lat="45.64536" lon="2.92439">
        <ele>1030.862365</ele>
        <time>2021-07-06T11:41:10+0200</time>
      </trkpt>
      <trkpt lat="45.64533" lon="2.92431">
        <ele>1030.894653</ele>
        <time>2021-07-06T11:41:12+0200</time>
      </trkpt>
      <trkpt lat="45.64528" lon="2.92424">
        <ele>1031.073803</ele>
        <time>2021-07-06T11:41:14+0200</time>
      </trkpt>
      <trkpt lat="45.64524" lon="2.92418">
        <ele>1032.118661</ele>
        <time>2021-07-06T11:41:16+0200</time>
      </trkpt>
      <trkpt lat="45.6452" lon="2.92411">
        <ele>1033.966782</ele>
        <time>2021-07-06T11:41:18+0200</time>
      </trkpt>
      <trkpt lat="45.64516" lon="2.92404">
        <ele>1035.1108</ele>
        <time>2021-07-06T11:41:20+0200</time>
      </trkpt>
      <trkpt lat="45.64513" lon="2.92393">
        <ele>1036.160493</ele>
        <time>2021-07-06T11:41:22+0200</time>
      </trkpt>
      <trkpt lat="45.64508" lon="2.92388">
        <ele>1035.091842</ele>
        <time>2021-07-06T11:41:24+0200</time>
      </trkpt>
      <trkpt lat="45.64503" lon="2.92379">
        <ele>1033.774489</ele>
        <time>2021-07-06T11:41:26+0200</time>
      </trkpt>
      <trkpt lat="45.64499" lon="2.9237">
        <ele>1034.38099</ele>
        <time>2021-07-06T11:41:28+0200</time>
      </trkpt>
      <trkpt lat="45.64495" lon="2.92361">
        <ele>1034.913561</ele>
        <time>2021-07-06T11:41:30+0200</time>
      </trkpt>
      <trkpt lat="45.64492" lon="2.92356">
        <ele>1035.34087</ele>
        <time>2021-07-06T11:41:31+0200</time>
      </trkpt>
      <trkpt lat="45.64487" lon="2.92346">
        <ele>1034.614838</ele>
        <time>2021-07-06T11:41:33+0200</time>
      </trkpt>
      <trkpt lat="45.64481" lon="2.92337">
        <ele>1035.071946</ele>
        <time>2021-07-06T11:41:35+0200</time>
      </trkpt>
      <trkpt lat="45.64479" lon="2.92331">
        <ele>1034.487614</ele>
        <time>2021-07-06T11:41:36+0200</time>
      </trkpt>
      <trkpt lat="45.64476" lon="2.92325">
        <ele>1033.797743</ele>
        <time>2021-07-06T11:41:37+0200</time>
      </trkpt>
      <trkpt lat="45.64472" lon="2.9232">
        <ele>1033.00281</ele>
        <time>2021-07-06T11:41:38+0200</time>
      </trkpt>
      <trkpt lat="45.6447" lon="2.92313">
        <ele>1032.138019</ele>
        <time>2021-07-06T11:41:39+0200</time>
      </trkpt>
      <trkpt lat="45.64468" lon="2.92308">
        <ele>1031.664839</ele>
        <time>2021-07-06T11:41:40+0200</time>
      </trkpt>
      <trkpt lat="45.64466" lon="2.92302">
        <ele>1031.47489</ele>
        <time>2021-07-06T11:41:41+0200</time>
      </trkpt>
      <trkpt lat="45.64464" lon="2.92296">
        <ele>1031.41558</ele>
        <time>2021-07-06T11:41:42+0200</time>
      </trkpt>
      <trkpt lat="45.64462" lon="2.9229">
        <ele>1030.951253</ele>
        <time>2021-07-06T11:41:43+0200</time>
      </trkpt>
      <trkpt lat="45.6446" lon="2.92279">
        <ele>1030.713789</ele>
        <time>2021-07-06T11:41:45+0200</time>
      </trkpt>
      <trkpt lat="45.64458" lon="2.92269">
        <ele>1029.889463</ele>
        <time>2021-07-06T11:41:47+0200</time>
      </trkpt>
      <trkpt lat="45.64456" lon="2.9226">
        <ele>1029.442087</ele>
        <time>2021-07-06T11:41:49+0200</time>
      </trkpt>
      <trkpt lat="45.64455" lon="2.92252">
        <ele>1029.527336</ele>
        <time>2021-07-06T11:41:51+0200</time>
      </trkpt>
      <trkpt lat="45.64454" lon="2.92245">
        <ele>1029.321672</ele>
        <time>2021-07-06T11:41:53+0200</time>
      </trkpt>
      <trkpt lat="45.6445" lon="2.92237">
        <ele>1028.924373</ele>
        <time>2021-07-06T11:41:56+0200</time>
      </trkpt>
      <trkpt lat="45.64449" lon="2.92229">
        <ele>1029.037423</ele>
        <time>2021-07-06T11:41:58+0200</time>
      </trkpt>
      <trkpt lat="45.64448" lon="2.92222">
        <ele>1029.415477</ele>
        <time>2021-07-06T11:42:01+0200</time>
      </trkpt>
      <trkpt lat="45.64445" lon="2.92214">
        <ele>1029.051206</ele>
        <time>2021-07-06T11:42:04+0200</time>
      </trkpt>
      <trkpt lat="45.64443" lon="2.92206">
        <ele>1028.966102</ele>
        <time>2021-07-06T11:42:07+0200</time>
      </trkpt>
      <trkpt lat="45.6444" lon="2.92201">
        <ele>1028.770597</ele>
        <time>2021-07-06T11:42:13+0200</time>
      </trkpt>
      <trkpt lat="45.6444" lon="2.92194">
        <ele>1028.270441</ele>
        <time>2021-07-06T11:42:16+0200</time>
      </trkpt>
      <trkpt lat="45.64438" lon="2.92188">
        <ele>1028.501254</ele>
        <time>2021-07-06T11:42:20+0200</time>
      </trkpt>
      <trkpt lat="45.64434" lon="2.92182">
        <ele>1029.675336</ele>
        <time>2021-07-06T11:42:26+0200</time>
      </trkpt>
      <trkpt lat="45.64432" lon="2.92174">
        <ele>1029.363338</ele>
        <time>2021-07-06T11:42:30+0200</time>
      </trkpt>
      <trkpt lat="45.64428" lon="2.92169">
        <ele>1028.500233</ele>
        <time>2021-07-06T11:42:36+0200</time>
      </trkpt>
      <trkpt lat="45.64424" lon="2.92161">
        <ele>1028.343546</ele>
        <time>2021-07-06T11:42:39+0200</time>
      </trkpt>
      <trkpt lat="45.64422" lon="2.92153">
        <ele>1029.147918</ele>
        <time>2021-07-06T11:42:42+0200</time>
      </trkpt>
      <trkpt lat="45.64419" lon="2.92148">
        <ele>1029.929989</ele>
        <time>2021-07-06T11:42:44+0200</time>
      </trkpt>
      <trkpt lat="45.64414" lon="2.92141">
        <ele>1030.68352</ele>
        <time>2021-07-06T11:42:46+0200</time>
      </trkpt>
      <trkpt lat="45.64411" lon="2.92135">
        <ele>1030.890414</ele>
        <time>2021-07-06T11:42:48+0200</time>
      </trkpt>
      <trkpt lat="45.64407" lon="2.92129">
        <ele>1032.835378</ele>
        <time>2021-07-06T11:42:50+0200</time>
      </trkpt>
      <trkpt lat="45.64404" lon="2.92122">
        <ele>1032.741297</ele>
        <time>2021-07-06T11:42:52+0200</time>
      </trkpt>
      <trkpt lat="45.64399" lon="2.92116">
        <ele>1035.77755</ele>
        <time>2021-07-06T11:42:55+0200</time>
      </trkpt>
      <trkpt lat="45.64395" lon="2.92111">
        <ele>1036.802456</ele>
        <time>2021-07-06T11:42:57+0200</time>
      </trkpt>
      <trkpt lat="45.6439" lon="2.92104">
        <ele>1036.809345</ele>
        <time>2021-07-06T11:42:59+0200</time>
      </trkpt>
      <trkpt lat="45.64385" lon="2.92093">
        <ele>1033.412697</ele>
        <time>2021-07-06T11:43:01+0200</time>
      </trkpt>
      <trkpt lat="45.64381" lon="2.92085">
        <ele>1032.410101</ele>
        <time>2021-07-06T11:43:03+0200</time>
      </trkpt>
      <trkpt lat="45.64376" lon="2.92078">
        <ele>1032.82407</ele>
        <time>2021-07-06T11:43:05+0200</time>
      </trkpt>
      <trkpt lat="45.64371" lon="2.92071">
        <ele>1032.975268</ele>
        <time>2021-07-06T11:43:07+0200</time>
      </trkpt>
      <trkpt lat="45.64366" lon="2.92065">
        <ele>1032.772638</ele>
        <time>2021-07-06T11:43:09+0200</time>
      </trkpt>
      <trkpt lat="45.64361" lon="2.92056">
        <ele>1031.491141</ele>
        <time>2021-07-06T11:43:11+0200</time>
      </trkpt>
      <trkpt lat="45.64358" lon="2.9205">
        <ele>1030.962243</ele>
        <time>2021-07-06T11:43:13+0200</time>
      </trkpt>
      <trkpt lat="45.64355" lon="2.92044">
        <ele>1031.499888</ele>
        <time>2021-07-06T11:43:15+0200</time>
      </trkpt>
      <trkpt lat="45.64353" lon="2.92037">
        <ele>1032.423326</ele>
        <time>2021-07-06T11:43:17+0200</time>
      </trkpt>
      <trkpt lat="45.64349" lon="2.92029">
        <ele>1031.711225</ele>
        <time>2021-07-06T11:43:19+0200</time>
      </trkpt>
      <trkpt lat="45.64347" lon="2.92022">
        <ele>1031.74423</ele>
        <time>2021-07-06T11:43:21+0200</time>
      </trkpt>
      <trkpt lat="45.64343" lon="2.92013">
        <ele>1031.548437</ele>
        <time>2021-07-06T11:43:24+0200</time>
      </trkpt>
      <trkpt lat="45.64341" lon="2.92006">
        <ele>1031.747468</ele>
        <time>2021-07-06T11:43:26+0200</time>
      </trkpt>
      <trkpt lat="45.64339" lon="2.91997">
        <ele>1032.473307</ele>
        <time>2021-07-06T11:43:29+0200</time>
      </trkpt>
      <trkpt lat="45.64336" lon="2.91988">
        <ele>1034.011257</ele>
        <time>2021-07-06T11:43:32+0200</time>
      </trkpt>
      <trkpt lat="45.64335" lon="2.9198">
        <ele>1034.333303</ele>
        <time>2021-07-06T11:43:34+0200</time>
      </trkpt>
      <trkpt lat="45.64334" lon="2.91973">
        <ele>1034.358237</ele>
        <time>2021-07-06T11:43:36+0200</time>
      </trkpt>
      <trkpt lat="45.64333" lon="2.91966">
        <ele>1034.867686</ele>
        <time>2021-07-06T11:43:38+0200</time>
      </trkpt>
      <trkpt lat="45.64334" lon="2.91957">
        <ele>1035.791948</ele>
        <time>2021-07-06T11:43:41+0200</time>
      </trkpt>
      <trkpt lat="45.64333" lon="2.91947">
        <ele>1034.920525</ele>
        <time>2021-07-06T11:43:44+0200</time>
      </trkpt>
      <trkpt lat="45.64333" lon="2.91941">
        <ele>1034.343465</ele>
        <time>2021-07-06T11:43:46+0200</time>
      </trkpt>
      <trkpt lat="45.64333" lon="2.91933">
        <ele>1033.909296</ele>
        <time>2021-07-06T11:43:48+0200</time>
      </trkpt>
      <trkpt lat="45.64331" lon="2.91925">
        <ele>1033.48033</ele>
        <time>2021-07-06T11:43:50+0200</time>
      </trkpt>
      <trkpt lat="45.64328" lon="2.91919">
        <ele>1032.363349</ele>
        <time>2021-07-06T11:43:51+0200</time>
      </trkpt>
      <trkpt lat="45.64325" lon="2.91913">
        <ele>1032.504388</ele>
        <time>2021-07-06T11:43:53+0200</time>
      </trkpt>
      <trkpt lat="45.64322" lon="2.91908">
        <ele>1033.096942</ele>
        <time>2021-07-06T11:43:55+0200</time>
      </trkpt>
      <trkpt lat="45.64316" lon="2.91905">
        <ele>1033.869629</ele>
        <time>2021-07-06T11:43:57+0200</time>
      </trkpt>
      <trkpt lat="45.6431" lon="2.91899">
        <ele>1035.24484</ele>
        <time>2021-07-06T11:44:00+0200</time>
      </trkpt>
      <trkpt lat="45.64303" lon="2.91895">
        <ele>1035.599129</ele>
        <time>2021-07-06T11:44:02+0200</time>
      </trkpt>
      <trkpt lat="45.64297" lon="2.91891">
        <ele>1035.867769</ele>
        <time>2021-07-06T11:44:04+0200</time>
      </trkpt>
      <trkpt lat="45.64291" lon="2.91889">
        <ele>1035.89786</ele>
        <time>2021-07-06T11:44:06+0200</time>
      </trkpt>
      <trkpt lat="45.64285" lon="2.91888">
        <ele>1036.39272</ele>
        <time>2021-07-06T11:44:08+0200</time>
      </trkpt>
      <trkpt lat="45.64279" lon="2.91887">
        <ele>1036.50446</ele>
        <time>2021-07-06T11:44:10+0200</time>
      </trkpt>
      <trkpt lat="45.64275" lon="2.91882">
        <ele>1036.965575</ele>
        <time>2021-07-06T11:44:12+0200</time>
      </trkpt>
      <trkpt lat="45.64268" lon="2.91879">
        <ele>1034.286135</ele>
        <time>2021-07-06T11:44:14+0200</time>
      </trkpt>
      <trkpt lat="45.64262" lon="2.91877">
        <ele>1034.213437</ele>
        <time>2021-07-06T11:44:16+0200</time>
      </trkpt>
      <trkpt lat="45.64258" lon="2.91874">
        <ele>1033.358672</ele>
        <time>2021-07-06T11:44:18+0200</time>
      </trkpt>
      <trkpt lat="45.64254" lon="2.9187">
        <ele>1034.069779</ele>
        <time>2021-07-06T11:44:21+0200</time>
      </trkpt>
      <trkpt lat="45.64251" lon="2.91864">
        <ele>1033.917957</ele>
        <time>2021-07-06T11:44:23+0200</time>
      </trkpt>
      <trkpt lat="45.64248" lon="2.91859">
        <ele>1036.835537</ele>
        <time>2021-07-06T11:44:28+0200</time>
      </trkpt>
      <trkpt lat="45.64243" lon="2.91855">
        <ele>1038.549399</ele>
        <time>2021-07-06T11:44:32+0200</time>
      </trkpt>
      <trkpt lat="45.64239" lon="2.91853">
        <ele>1036.763268</ele>
        <time>2021-07-06T11:44:34+0200</time>
      </trkpt>
      <trkpt lat="45.64233" lon="2.91854">
        <ele>1036.674164</ele>
        <time>2021-07-06T11:44:37+0200</time>
      </trkpt>
      <trkpt lat="45.64229" lon="2.91851">
        <ele>1036.579339</ele>
        <time>2021-07-06T11:44:39+0200</time>
      </trkpt>
      <trkpt lat="45.64224" lon="2.91845">
        <ele>1037.515704</ele>
        <time>2021-07-06T11:44:42+0200</time>
      </trkpt>
      <trkpt lat="45.64219" lon="2.91839">
        <ele>1038.632285</ele>
        <time>2021-07-06T11:44:45+0200</time>
      </trkpt>
      <trkpt lat="45.64214" lon="2.91838">
        <ele>1039.957062</ele>
        <time>2021-07-06T11:44:47+0200</time>
      </trkpt>
      <trkpt lat="45.64209" lon="2.9184">
        <ele>1040.340277</ele>
        <time>2021-07-06T11:44:49+0200</time>
      </trkpt>
      <trkpt lat="45.64203" lon="2.91838">
        <ele>1040.686888</ele>
        <time>2021-07-06T11:44:51+0200</time>
      </trkpt>
      <trkpt lat="45.64198" lon="2.91836">
        <ele>1040.464682</ele>
        <time>2021-07-06T11:44:53+0200</time>
      </trkpt>
      <trkpt lat="45.64191" lon="2.91835">
        <ele>1040.261445</ele>
        <time>2021-07-06T11:44:56+0200</time>
      </trkpt>
      <trkpt lat="45.64185" lon="2.91836">
        <ele>1040.555539</ele>
        <time>2021-07-06T11:44:59+0200</time>
      </trkpt>
      <trkpt lat="45.6418" lon="2.91838">
        <ele>1041.667118</ele>
        <time>2021-07-06T11:45:02+0200</time>
      </trkpt>
      <trkpt lat="45.64172" lon="2.91839">
        <ele>1041.804005</ele>
        <time>2021-07-06T11:45:04+0200</time>
      </trkpt>
      <trkpt lat="45.64165" lon="2.91843">
        <ele>1039.791048</ele>
        <time>2021-07-06T11:45:06+0200</time>
      </trkpt>
      <trkpt lat="45.64159" lon="2.91845">
        <ele>1039.877095</ele>
        <time>2021-07-06T11:45:08+0200</time>
      </trkpt>
      <trkpt lat="45.64152" lon="2.91847">
        <ele>1040.913468</ele>
        <time>2021-07-06T11:45:10+0200</time>
      </trkpt>
      <trkpt lat="45.64145" lon="2.91854">
        <ele>1041.826924</ele>
        <time>2021-07-06T11:45:12+0200</time>
      </trkpt>
      <trkpt lat="45.64137" lon="2.91853">
        <ele>1041.867615</ele>
        <time>2021-07-06T11:45:14+0200</time>
      </trkpt>
      <trkpt lat="45.64131" lon="2.91849">
        <ele>1040.432837</ele>
        <time>2021-07-06T11:45:15+0200</time>
      </trkpt>
      <trkpt lat="45.64123" lon="2.91843">
        <ele>1041.199138</ele>
        <time>2021-07-06T11:45:17+0200</time>
      </trkpt>
      <trkpt lat="45.64113" lon="2.91845">
        <ele>1041.377266</ele>
        <time>2021-07-06T11:45:19+0200</time>
      </trkpt>
      <trkpt lat="45.64108" lon="2.91849">
        <ele>1041.51292</ele>
        <time>2021-07-06T11:45:20+0200</time>
      </trkpt>
      <trkpt lat="45.64103" lon="2.91855">
        <ele>1041.092674</ele>
        <time>2021-07-06T11:45:21+0200</time>
      </trkpt>
      <trkpt lat="45.64097" lon="2.91857">
        <ele>1039.134582</ele>
        <time>2021-07-06T11:45:22+0200</time>
      </trkpt>
      <trkpt lat="45.64091" lon="2.91862">
        <ele>1038.666103</ele>
        <time>2021-07-06T11:45:23+0200</time>
      </trkpt>
      <trkpt lat="45.64087" lon="2.91865">
        <ele>1037.308299</ele>
        <time>2021-07-06T11:45:24+0200</time>
      </trkpt>
      <trkpt lat="45.6408" lon="2.91869">
        <ele>1033.327911</ele>
        <time>2021-07-06T11:45:26+0200</time>
      </trkpt>
      <trkpt lat="45.64075" lon="2.91875">
        <ele>1031.657385</ele>
        <time>2021-07-06T11:45:28+0200</time>
      </trkpt>
      <trkpt lat="45.6407" lon="2.91881">
        <ele>1030.437651</ele>
        <time>2021-07-06T11:45:30+0200</time>
      </trkpt>
      <trkpt lat="45.64066" lon="2.91885">
        <ele>1030.49776</ele>
        <time>2021-07-06T11:45:32+0200</time>
      </trkpt>
      <trkpt lat="45.64061" lon="2.91892">
        <ele>1030.673188</ele>
        <time>2021-07-06T11:45:34+0200</time>
      </trkpt>
      <trkpt lat="45.64057" lon="2.91897">
        <ele>1031.568194</ele>
        <time>2021-07-06T11:45:36+0200</time>
      </trkpt>
      <trkpt lat="45.64054" lon="2.91902">
        <ele>1032.841657</ele>
        <time>2021-07-06T11:45:38+0200</time>
      </trkpt>
      <trkpt lat="45.64049" lon="2.91907">
        <ele>1033.966725</ele>
        <time>2021-07-06T11:45:42+0200</time>
      </trkpt>
      <trkpt lat="45.64045" lon="2.91912">
        <ele>1033.587114</ele>
        <time>2021-07-06T11:45:46+0200</time>
      </trkpt>
      <trkpt lat="45.64041" lon="2.91917">
        <ele>1033.6078</ele>
        <time>2021-07-06T11:45:49+0200</time>
      </trkpt>
      <trkpt lat="45.64037" lon="2.91921">
        <ele>1036.030152</ele>
        <time>2021-07-06T11:45:53+0200</time>
      </trkpt>
      <trkpt lat="45.64032" lon="2.91926">
        <ele>1037.478359</ele>
        <time>2021-07-06T11:45:56+0200</time>
      </trkpt>
      <trkpt lat="45.64028" lon="2.91933">
        <ele>1038.864252</ele>
        <time>2021-07-06T11:46:00+0200</time>
      </trkpt>
      <trkpt lat="45.64025" lon="2.91941">
        <ele>1038.957018</ele>
        <time>2021-07-06T11:46:03+0200</time>
      </trkpt>
      <trkpt lat="45.64024" lon="2.91948">
        <ele>1039.907932</ele>
        <time>2021-07-06T11:46:06+0200</time>
      </trkpt>
      <trkpt lat="45.64023" lon="2.91955">
        <ele>1039.681969</ele>
        <time>2021-07-06T11:46:10+0200</time>
      </trkpt>
      <trkpt lat="45.64023" lon="2.91963">
        <ele>1039.785413</ele>
        <time>2021-07-06T11:46:13+0200</time>
      </trkpt>
      <trkpt lat="45.6402" lon="2.91968">
        <ele>1040.775054</ele>
        <time>2021-07-06T11:46:16+0200</time>
      </trkpt>
      <trkpt lat="45.64018" lon="2.91976">
        <ele>1040.808502</ele>
        <time>2021-07-06T11:46:20+0200</time>
      </trkpt>
      <trkpt lat="45.64015" lon="2.91984">
        <ele>1041.225446</ele>
        <time>2021-07-06T11:46:24+0200</time>
      </trkpt>
      <trkpt lat="45.64012" lon="2.91992">
        <ele>1040.452602</ele>
        <time>2021-07-06T11:46:28+0200</time>
      </trkpt>
      <trkpt lat="45.6401" lon="2.91998">
        <ele>1041.168483</ele>
        <time>2021-07-06T11:46:31+0200</time>
      </trkpt>
      <trkpt lat="45.64005" lon="2.92003">
        <ele>1041.852411</ele>
        <time>2021-07-06T11:46:34+0200</time>
      </trkpt>
      <trkpt lat="45.64" lon="2.92005">
        <ele>1042.45456</ele>
        <time>2021-07-06T11:46:38+0200</time>
      </trkpt>
      <trkpt lat="45.63996" lon="2.92009">
        <ele>1042.36805</ele>
        <time>2021-07-06T11:46:41+0200</time>
      </trkpt>
      <trkpt lat="45.63993" lon="2.92015">
        <ele>1043.813113</ele>
        <time>2021-07-06T11:46:44+0200</time>
      </trkpt>
      <trkpt lat="45.63989" lon="2.9202">
        <ele>1044.386791</ele>
        <time>2021-07-06T11:46:48+0200</time>
      </trkpt>
      <trkpt lat="45.63985" lon="2.92025">
        <ele>1045.080331</ele>
        <time>2021-07-06T11:46:51+0200</time>
      </trkpt>
      <trkpt lat="45.6398" lon="2.92028">
        <ele>1046.298837</ele>
        <time>2021-07-06T11:46:55+0200</time>
      </trkpt>
      <trkpt lat="45.63975" lon="2.92023">
        <ele>1047.879632</ele>
        <time>2021-07-06T11:46:59+0200</time>
      </trkpt>
      <trkpt lat="45.63974" lon="2.92014">
        <ele>1049.253019</ele>
        <time>2021-07-06T11:47:02+0200</time>
      </trkpt>
      <trkpt lat="45.63972" lon="2.92007">
        <ele>1050.587623</ele>
        <time>2021-07-06T11:47:06+0200</time>
      </trkpt>
      <trkpt lat="45.63969" lon="2.92">
        <ele>1050.923711</ele>
        <time>2021-07-06T11:47:10+0200</time>
      </trkpt>
      <trkpt lat="45.63967" lon="2.91994">
        <ele>1052.602468</ele>
        <time>2021-07-06T11:47:13+0200</time>
      </trkpt>
      <trkpt lat="45.63964" lon="2.91987">
        <ele>1053.956068</ele>
        <time>2021-07-06T11:47:16+0200</time>
      </trkpt>
      <trkpt lat="45.63963" lon="2.9198">
        <ele>1054.451395</ele>
        <time>2021-07-06T11:47:19+0200</time>
      </trkpt>
      <trkpt lat="45.63961" lon="2.91971">
        <ele>1054.455039</ele>
        <time>2021-07-06T11:47:22+0200</time>
      </trkpt>
      <trkpt lat="45.63957" lon="2.91964">
        <ele>1054.274811</ele>
        <time>2021-07-06T11:47:25+0200</time>
      </trkpt>
      <trkpt lat="45.63954" lon="2.91959">
        <ele>1054.159446</ele>
        <time>2021-07-06T11:47:27+0200</time>
      </trkpt>
      <trkpt lat="45.6395" lon="2.91953">
        <ele>1054.106318</ele>
        <time>2021-07-06T11:47:29+0200</time>
      </trkpt>
      <trkpt lat="45.63947" lon="2.91947">
        <ele>1053.595154</ele>
        <time>2021-07-06T11:47:32+0200</time>
      </trkpt>
      <trkpt lat="45.63945" lon="2.91938">
        <ele>1054.025432</ele>
        <time>2021-07-06T11:47:35+0200</time>
      </trkpt>
      <trkpt lat="45.63943" lon="2.91932">
        <ele>1053.867215</ele>
        <time>2021-07-06T11:47:37+0200</time>
      </trkpt>
      <trkpt lat="45.6394" lon="2.91924">
        <ele>1054.037846</ele>
        <time>2021-07-06T11:47:40+0200</time>
      </trkpt>
      <trkpt lat="45.63938" lon="2.91918">
        <ele>1054.264897</ele>
        <time>2021-07-06T11:47:42+0200</time>
      </trkpt>
      <trkpt lat="45.63936" lon="2.9191">
        <ele>1054.457849</ele>
        <time>2021-07-06T11:47:45+0200</time>
      </trkpt>
      <trkpt lat="45.63934" lon="2.91904">
        <ele>1054.71761</ele>
        <time>2021-07-06T11:47:47+0200</time>
      </trkpt>
      <trkpt lat="45.63932" lon="2.91896">
        <ele>1055.155659</ele>
        <time>2021-07-06T11:47:50+0200</time>
      </trkpt>
      <trkpt lat="45.63929" lon="2.91888">
        <ele>1054.512139</ele>
        <time>2021-07-06T11:47:53+0200</time>
      </trkpt>
      <trkpt lat="45.63929" lon="2.91881">
        <ele>1054.330052</ele>
        <time>2021-07-06T11:47:55+0200</time>
      </trkpt>
      <trkpt lat="45.63926" lon="2.91875">
        <ele>1054.338571</ele>
        <time>2021-07-06T11:47:58+0200</time>
      </trkpt>
      <trkpt lat="45.63925" lon="2.91867">
        <ele>1055.262159</ele>
        <time>2021-07-06T11:48:01+0200</time>
      </trkpt>
      <trkpt lat="45.63921" lon="2.91861">
        <ele>1055.098767</ele>
        <time>2021-07-06T11:48:04+0200</time>
      </trkpt>
      <trkpt lat="45.63918" lon="2.91853">
        <ele>1056.803826</ele>
        <time>2021-07-06T11:48:07+0200</time>
      </trkpt>
      <trkpt lat="45.63915" lon="2.91847">
        <ele>1055.620574</ele>
        <time>2021-07-06T11:48:09+0200</time>
      </trkpt>
      <trkpt lat="45.63912" lon="2.91841">
        <ele>1055.378819</ele>
        <time>2021-07-06T11:48:11+0200</time>
      </trkpt>
      <trkpt lat="45.63911" lon="2.91833">
        <ele>1054.440618</ele>
        <time>2021-07-06T11:48:14+0200</time>
      </trkpt>
      <trkpt lat="45.63908" lon="2.91825">
        <ele>1055.170523</ele>
        <time>2021-07-06T11:48:17+0200</time>
      </trkpt>
      <trkpt lat="45.63905" lon="2.91818">
        <ele>1055.911477</ele>
        <time>2021-07-06T11:48:21+0200</time>
      </trkpt>
      <trkpt lat="45.63902" lon="2.91809">
        <ele>1057.239456</ele>
        <time>2021-07-06T11:48:24+0200</time>
      </trkpt>
      <trkpt lat="45.63902" lon="2.91802">
        <ele>1059.333285</ele>
        <time>2021-07-06T11:48:27+0200</time>
      </trkpt>
      <trkpt lat="45.639" lon="2.91795">
        <ele>1059.794704</ele>
        <time>2021-07-06T11:48:31+0200</time>
      </trkpt>
      <trkpt lat="45.63896" lon="2.91789">
        <ele>1059.976542</ele>
        <time>2021-07-06T11:48:35+0200</time>
      </trkpt>
      <trkpt lat="45.63892" lon="2.91784">
        <ele>1059.144363</ele>
        <time>2021-07-06T11:48:38+0200</time>
      </trkpt>
      <trkpt lat="45.6389" lon="2.91777">
        <ele>1058.301579</ele>
        <time>2021-07-06T11:48:42+0200</time>
      </trkpt>
      <trkpt lat="45.6389" lon="2.91769">
        <ele>1058.765944</ele>
        <time>2021-07-06T11:48:46+0200</time>
      </trkpt>
      <trkpt lat="45.63887" lon="2.91761">
        <ele>1059.940722</ele>
        <time>2021-07-06T11:48:50+0200</time>
      </trkpt>
      <trkpt lat="45.63884" lon="2.91756">
        <ele>1060.51501</ele>
        <time>2021-07-06T11:48:53+0200</time>
      </trkpt>
      <trkpt lat="45.63881" lon="2.91751">
        <ele>1060.892177</ele>
        <time>2021-07-06T11:48:56+0200</time>
      </trkpt>
      <trkpt lat="45.63879" lon="2.91743">
        <ele>1060.880798</ele>
        <time>2021-07-06T11:49:00+0200</time>
      </trkpt>
      <trkpt lat="45.63878" lon="2.91735">
        <ele>1062.58492</ele>
        <time>2021-07-06T11:49:04+0200</time>
      </trkpt>
      <trkpt lat="45.63875" lon="2.91729">
        <ele>1062.947628</ele>
        <time>2021-07-06T11:49:07+0200</time>
      </trkpt>
      <trkpt lat="45.63873" lon="2.91721">
        <ele>1063.646136</ele>
        <time>2021-07-06T11:49:11+0200</time>
      </trkpt>
      <trkpt lat="45.6387" lon="2.91715">
        <ele>1063.811193</ele>
        <time>2021-07-06T11:49:14+0200</time>
      </trkpt>
      <trkpt lat="45.63867" lon="2.91709">
        <ele>1064.486069</ele>
        <time>2021-07-06T11:49:17+0200</time>
      </trkpt>
      <trkpt lat="45.63865" lon="2.91702">
        <ele>1064.313157</ele>
        <time>2021-07-06T11:49:20+0200</time>
      </trkpt>
      <trkpt lat="45.63863" lon="2.91695">
        <ele>1064.561153</ele>
        <time>2021-07-06T11:49:23+0200</time>
      </trkpt>
      <trkpt lat="45.63861" lon="2.91688">
        <ele>1065.209643</ele>
        <time>2021-07-06T11:49:26+0200</time>
      </trkpt>
      <trkpt lat="45.63858" lon="2.91682">
        <ele>1066.45403</ele>
        <time>2021-07-06T11:49:29+0200</time>
      </trkpt>
      <trkpt lat="45.63857" lon="2.91675">
        <ele>1066.979813</ele>
        <time>2021-07-06T11:49:32+0200</time>
      </trkpt>
      <trkpt lat="45.63854" lon="2.91667">
        <ele>1067.780238</ele>
        <time>2021-07-06T11:49:36+0200</time>
      </trkpt>
      <trkpt lat="45.63852" lon="2.91661">
        <ele>1067.808445</ele>
        <time>2021-07-06T11:49:39+0200</time>
      </trkpt>
      <trkpt lat="45.63849" lon="2.91655">
        <ele>1068.105039</ele>
        <time>2021-07-06T11:49:42+0200</time>
      </trkpt>
      <trkpt lat="45.63845" lon="2.91649">
        <ele>1068.067781</ele>
        <time>2021-07-06T11:49:46+0200</time>
      </trkpt>
      <trkpt lat="45.63845" lon="2.91642">
        <ele>1067.762414</ele>
        <time>2021-07-06T11:49:51+0200</time>
      </trkpt>
      <trkpt lat="45.63843" lon="2.91635">
        <ele>1066.988236</ele>
        <time>2021-07-06T11:49:57+0200</time>
      </trkpt>
      <trkpt lat="45.63842" lon="2.91628">
        <ele>1066.594243</ele>
        <time>2021-07-06T11:50:04+0200</time>
      </trkpt>
      <trkpt lat="45.63839" lon="2.9162">
        <ele>1065.62825</ele>
        <time>2021-07-06T11:50:10+0200</time>
      </trkpt>
      <trkpt lat="45.63836" lon="2.91614">
        <ele>1066.859564</ele>
        <time>2021-07-06T11:50:15+0200</time>
      </trkpt>
      <trkpt lat="45.63833" lon="2.91608">
        <ele>1066.189399</ele>
        <time>2021-07-06T11:50:19+0200</time>
      </trkpt>
      <trkpt lat="45.63831" lon="2.916">
        <ele>1067.207035</ele>
        <time>2021-07-06T11:50:23+0200</time>
      </trkpt>
      <trkpt lat="45.6383" lon="2.91594">
        <ele>1067.802467</ele>
        <time>2021-07-06T11:50:27+0200</time>
      </trkpt>
      <trkpt lat="45.63827" lon="2.91589">
        <ele>1068.516581</ele>
        <time>2021-07-06T11:50:30+0200</time>
      </trkpt>
      <trkpt lat="45.63824" lon="2.91581">
        <ele>1068.716048</ele>
        <time>2021-07-06T11:50:33+0200</time>
      </trkpt>
      <trkpt lat="45.63822" lon="2.91575">
        <ele>1068.378455</ele>
        <time>2021-07-06T11:50:35+0200</time>
      </trkpt>
      <trkpt lat="45.63819" lon="2.91568">
        <ele>1068.767205</ele>
        <time>2021-07-06T11:50:38+0200</time>
      </trkpt>
      <trkpt lat="45.63817" lon="2.9156">
        <ele>1069.912077</ele>
        <time>2021-07-06T11:50:41+0200</time>
      </trkpt>
      <trkpt lat="45.63814" lon="2.91552">
        <ele>1070.206943</ele>
        <time>2021-07-06T11:50:44+0200</time>
      </trkpt>
      <trkpt lat="45.63811" lon="2.91546">
        <ele>1070.280187</ele>
        <time>2021-07-06T11:50:46+0200</time>
      </trkpt>
      <trkpt lat="45.63808" lon="2.91539">
        <ele>1070.42252</ele>
        <time>2021-07-06T11:50:48+0200</time>
      </trkpt>
      <trkpt lat="45.63806" lon="2.91533">
        <ele>1070.693492</ele>
        <time>2021-07-06T11:50:50+0200</time>
      </trkpt>
      <trkpt lat="45.63804" lon="2.91526">
        <ele>1071.397024</ele>
        <time>2021-07-06T11:50:52+0200</time>
      </trkpt>
      <trkpt lat="45.63801" lon="2.9152">
        <ele>1071.849134</ele>
        <time>2021-07-06T11:50:54+0200</time>
      </trkpt>
      <trkpt lat="45.63799" lon="2.91513">
        <ele>1072.3876</ele>
        <time>2021-07-06T11:50:56+0200</time>
      </trkpt>
      <trkpt lat="45.63796" lon="2.91507">
        <ele>1072.532017</ele>
        <time>2021-07-06T11:50:58+0200</time>
      </trkpt>
      <trkpt lat="45.63795" lon="2.91499">
        <ele>1072.61781</ele>
        <time>2021-07-06T11:51:00+0200</time>
      </trkpt>
      <trkpt lat="45.63791" lon="2.91491">
        <ele>1072.806306</ele>
        <time>2021-07-06T11:51:02+0200</time>
      </trkpt>
      <trkpt lat="45.63788" lon="2.91483">
        <ele>1072.444272</ele>
        <time>2021-07-06T11:51:04+0200</time>
      </trkpt>
      <trkpt lat="45.63785" lon="2.91475">
        <ele>1072.434707</ele>
        <time>2021-07-06T11:51:06+0200</time>
      </trkpt>
      <trkpt lat="45.63782" lon="2.91466">
        <ele>1072.282244</ele>
        <time>2021-07-06T11:51:08+0200</time>
      </trkpt>
      <trkpt lat="45.6378" lon="2.91458">
        <ele>1072.467423</ele>
        <time>2021-07-06T11:51:10+0200</time>
      </trkpt>
      <trkpt lat="45.63777" lon="2.91451">
        <ele>1072.395938</ele>
        <time>2021-07-06T11:51:12+0200</time>
      </trkpt>
      <trkpt lat="45.63775" lon="2.91445">
        <ele>1071.681648</ele>
        <time>2021-07-06T11:51:14+0200</time>
      </trkpt>
      <trkpt lat="45.63771" lon="2.91437">
        <ele>1071.990696</ele>
        <time>2021-07-06T11:51:16+0200</time>
      </trkpt>
      <trkpt lat="45.63769" lon="2.91429">
        <ele>1072.103047</ele>
        <time>2021-07-06T11:51:18+0200</time>
      </trkpt>
      <trkpt lat="45.63766" lon="2.91422">
        <ele>1072.482225</ele>
        <time>2021-07-06T11:51:20+0200</time>
      </trkpt>
      <trkpt lat="45.63764" lon="2.91414">
        <ele>1072.882163</ele>
        <time>2021-07-06T11:51:22+0200</time>
      </trkpt>
      <trkpt lat="45.63761" lon="2.91406">
        <ele>1073.406509</ele>
        <time>2021-07-06T11:51:24+0200</time>
      </trkpt>
      <trkpt lat="45.63758" lon="2.91397">
        <ele>1073.305125</ele>
        <time>2021-07-06T11:51:26+0200</time>
      </trkpt>
      <trkpt lat="45.63756" lon="2.9139">
        <ele>1073.348354</ele>
        <time>2021-07-06T11:51:28+0200</time>
      </trkpt>
      <trkpt lat="45.63753" lon="2.91382">
        <ele>1073.237493</ele>
        <time>2021-07-06T11:51:30+0200</time>
      </trkpt>
      <trkpt lat="45.6375" lon="2.91374">
        <ele>1073.383366</ele>
        <time>2021-07-06T11:51:32+0200</time>
      </trkpt>
      <trkpt lat="45.63747" lon="2.91365">
        <ele>1073.272203</ele>
        <time>2021-07-06T11:51:34+0200</time>
      </trkpt>
      <trkpt lat="45.63744" lon="2.91357">
        <ele>1073.432081</ele>
        <time>2021-07-06T11:51:36+0200</time>
      </trkpt>
      <trkpt lat="45.63741" lon="2.91349">
        <ele>1073.72681</ele>
        <time>2021-07-06T11:51:38+0200</time>
      </trkpt>
      <trkpt lat="45.63739" lon="2.9134">
        <ele>1073.950468</ele>
        <time>2021-07-06T11:51:40+0200</time>
      </trkpt>
      <trkpt lat="45.63736" lon="2.91331">
        <ele>1073.975656</ele>
        <time>2021-07-06T11:51:42+0200</time>
      </trkpt>
      <trkpt lat="45.63733" lon="2.91323">
        <ele>1073.561315</ele>
        <time>2021-07-06T11:51:44+0200</time>
      </trkpt>
      <trkpt lat="45.6373" lon="2.91315">
        <ele>1073.85635</ele>
        <time>2021-07-06T11:51:46+0200</time>
      </trkpt>
      <trkpt lat="45.63729" lon="2.91307">
        <ele>1074.610353</ele>
        <time>2021-07-06T11:51:48+0200</time>
      </trkpt>
      <trkpt lat="45.63726" lon="2.913">
        <ele>1075.063552</ele>
        <time>2021-07-06T11:51:50+0200</time>
      </trkpt>
      <trkpt lat="45.63724" lon="2.91294">
        <ele>1075.560838</ele>
        <time>2021-07-06T11:51:52+0200</time>
      </trkpt>
      <trkpt lat="45.6372" lon="2.91289">
        <ele>1076.349302</ele>
        <time>2021-07-06T11:51:54+0200</time>
      </trkpt>
      <trkpt lat="45.63718" lon="2.9128">
        <ele>1077.152954</ele>
        <time>2021-07-06T11:51:57+0200</time>
      </trkpt>
      <trkpt lat="45.63715" lon="2.91272">
        <ele>1077.688535</ele>
        <time>2021-07-06T11:52:00+0200</time>
      </trkpt>
      <trkpt lat="45.63713" lon="2.91266">
        <ele>1078.387987</ele>
        <time>2021-07-06T11:52:01+0200</time>
      </trkpt>
      <trkpt lat="45.6371" lon="2.91257">
        <ele>1078.919963</ele>
        <time>2021-07-06T11:52:04+0200</time>
      </trkpt>
      <trkpt lat="45.63708" lon="2.91251">
        <ele>1079.220935</ele>
        <time>2021-07-06T11:52:06+0200</time>
      </trkpt>
      <trkpt lat="45.63706" lon="2.91245">
        <ele>1079.545705</ele>
        <time>2021-07-06T11:52:08+0200</time>
      </trkpt>
      <trkpt lat="45.63705" lon="2.91238">
        <ele>1080.074644</ele>
        <time>2021-07-06T11:52:10+0200</time>
      </trkpt>
      <trkpt lat="45.63701" lon="2.9123">
        <ele>1081.122288</ele>
        <time>2021-07-06T11:52:13+0200</time>
      </trkpt>
      <trkpt lat="45.63699" lon="2.91222">
        <ele>1081.138967</ele>
        <time>2021-07-06T11:52:17+0200</time>
      </trkpt>
      <trkpt lat="45.63697" lon="2.91216">
        <ele>1081.102291</ele>
        <time>2021-07-06T11:52:19+0200</time>
      </trkpt>
      <trkpt lat="45.63694" lon="2.91208">
        <ele>1081.51926</ele>
        <time>2021-07-06T11:52:22+0200</time>
      </trkpt>
      <trkpt lat="45.63692" lon="2.91202">
        <ele>1081.753529</ele>
        <time>2021-07-06T11:52:24+0200</time>
      </trkpt>
      <trkpt lat="45.6369" lon="2.91195">
        <ele>1082.698265</ele>
        <time>2021-07-06T11:52:26+0200</time>
      </trkpt>
      <trkpt lat="45.63688" lon="2.9119">
        <ele>1083.24681</ele>
        <time>2021-07-06T11:52:28+0200</time>
      </trkpt>
      <trkpt lat="45.63685" lon="2.91184">
        <ele>1083.622342</ele>
        <time>2021-07-06T11:52:30+0200</time>
      </trkpt>
      <trkpt lat="45.63683" lon="2.91176">
        <ele>1083.878824</ele>
        <time>2021-07-06T11:52:33+0200</time>
      </trkpt>
      <trkpt lat="45.63679" lon="2.9117">
        <ele>1084.614744</ele>
        <time>2021-07-06T11:52:36+0200</time>
      </trkpt>
      <trkpt lat="45.63676" lon="2.91163">
        <ele>1084.851952</ele>
        <time>2021-07-06T11:52:38+0200</time>
      </trkpt>
      <trkpt lat="45.63673" lon="2.91154">
        <ele>1084.921846</ele>
        <time>2021-07-06T11:52:41+0200</time>
      </trkpt>
      <trkpt lat="45.6367" lon="2.91149">
        <ele>1084.839308</ele>
        <time>2021-07-06T11:52:43+0200</time>
      </trkpt>
      <trkpt lat="45.63668" lon="2.91141">
        <ele>1084.669359</ele>
        <time>2021-07-06T11:52:46+0200</time>
      </trkpt>
      <trkpt lat="45.63665" lon="2.91133">
        <ele>1084.060239</ele>
        <time>2021-07-06T11:52:48+0200</time>
      </trkpt>
      <trkpt lat="45.63664" lon="2.91123">
        <ele>1083.833535</ele>
        <time>2021-07-06T11:52:50+0200</time>
      </trkpt>
      <trkpt lat="45.63662" lon="2.91117">
        <ele>1083.307576</ele>
        <time>2021-07-06T11:52:52+0200</time>
      </trkpt>
      <trkpt lat="45.6366" lon="2.9111">
        <ele>1083.023799</ele>
        <time>2021-07-06T11:52:56+0200</time>
      </trkpt>
      <trkpt lat="45.63656" lon="2.91104">
        <ele>1082.683313</ele>
        <time>2021-07-06T11:52:59+0200</time>
      </trkpt>
      <trkpt lat="45.63654" lon="2.91097">
        <ele>1082.360898</ele>
        <time>2021-07-06T11:53:02+0200</time>
      </trkpt>
      <trkpt lat="45.63651" lon="2.91091">
        <ele>1082.365861</ele>
        <time>2021-07-06T11:53:06+0200</time>
      </trkpt>
      <trkpt lat="45.63649" lon="2.91083">
        <ele>1082.429174</ele>
        <time>2021-07-06T11:53:09+0200</time>
      </trkpt>
      <trkpt lat="45.63646" lon="2.91075">
        <ele>1083.077475</ele>
        <time>2021-07-06T11:53:12+0200</time>
      </trkpt>
      <trkpt lat="45.63644" lon="2.91069">
        <ele>1084.204238</ele>
        <time>2021-07-06T11:53:14+0200</time>
      </trkpt>
      <trkpt lat="45.63642" lon="2.91063">
        <ele>1084.402135</ele>
        <time>2021-07-06T11:53:16+0200</time>
      </trkpt>
      <trkpt lat="45.63639" lon="2.91057">
        <ele>1084.801669</ele>
        <time>2021-07-06T11:53:18+0200</time>
      </trkpt>
      <trkpt lat="45.63637" lon="2.9105">
        <ele>1085.247059</ele>
        <time>2021-07-06T11:53:20+0200</time>
      </trkpt>
      <trkpt lat="45.63635" lon="2.91043">
        <ele>1085.150925</ele>
        <time>2021-07-06T11:53:22+0200</time>
      </trkpt>
      <trkpt lat="45.63634" lon="2.91036">
        <ele>1085.185537</ele>
        <time>2021-07-06T11:53:24+0200</time>
      </trkpt>
      <trkpt lat="45.6363" lon="2.91028">
        <ele>1084.765911</ele>
        <time>2021-07-06T11:53:27+0200</time>
      </trkpt>
      <trkpt lat="45.63628" lon="2.9102">
        <ele>1085.700403</ele>
        <time>2021-07-06T11:53:30+0200</time>
      </trkpt>
      <trkpt lat="45.63625" lon="2.91014">
        <ele>1086.69754</ele>
        <time>2021-07-06T11:53:33+0200</time>
      </trkpt>
      <trkpt lat="45.63622" lon="2.91007">
        <ele>1086.006573</ele>
        <time>2021-07-06T11:53:36+0200</time>
      </trkpt>
      <trkpt lat="45.6362" lon="2.90999">
        <ele>1086.244322</ele>
        <time>2021-07-06T11:53:39+0200</time>
      </trkpt>
      <trkpt lat="45.63617" lon="2.90992">
        <ele>1086.825152</ele>
        <time>2021-07-06T11:53:42+0200</time>
      </trkpt>
      <trkpt lat="45.63614" lon="2.90985">
        <ele>1086.665325</ele>
        <time>2021-07-06T11:53:44+0200</time>
      </trkpt>
      <trkpt lat="45.63612" lon="2.90979">
        <ele>1087.024063</ele>
        <time>2021-07-06T11:53:46+0200</time>
      </trkpt>
      <trkpt lat="45.63609" lon="2.90972">
        <ele>1086.774544</ele>
        <time>2021-07-06T11:53:48+0200</time>
      </trkpt>
      <trkpt lat="45.63607" lon="2.90963">
        <ele>1085.408183</ele>
        <time>2021-07-06T11:53:50+0200</time>
      </trkpt>
      <trkpt lat="45.63603" lon="2.90956">
        <ele>1085.140389</ele>
        <time>2021-07-06T11:53:52+0200</time>
      </trkpt>
      <trkpt lat="45.636" lon="2.90948">
        <ele>1084.258573</ele>
        <time>2021-07-06T11:53:54+0200</time>
      </trkpt>
      <trkpt lat="45.63598" lon="2.9094">
        <ele>1083.309195</ele>
        <time>2021-07-06T11:53:56+0200</time>
      </trkpt>
      <trkpt lat="45.63595" lon="2.90934">
        <ele>1082.846081</ele>
        <time>2021-07-06T11:53:58+0200</time>
      </trkpt>
      <trkpt lat="45.63593" lon="2.90926">
        <ele>1082.138639</ele>
        <time>2021-07-06T11:54:00+0200</time>
      </trkpt>
      <trkpt lat="45.6359" lon="2.90918">
        <ele>1082.969919</ele>
        <time>2021-07-06T11:54:02+0200</time>
      </trkpt>
      <trkpt lat="45.63588" lon="2.9091">
        <ele>1082.831035</ele>
        <time>2021-07-06T11:54:04+0200</time>
      </trkpt>
      <trkpt lat="45.63585" lon="2.90905">
        <ele>1082.701608</ele>
        <time>2021-07-06T11:54:06+0200</time>
      </trkpt>
      <trkpt lat="45.63583" lon="2.90898">
        <ele>1083.675616</ele>
        <time>2021-07-06T11:54:08+0200</time>
      </trkpt>
      <trkpt lat="45.63579" lon="2.90891">
        <ele>1083.0158</ele>
        <time>2021-07-06T11:54:10+0200</time>
      </trkpt>
      <trkpt lat="45.63577" lon="2.90884">
        <ele>1083.740547</ele>
        <time>2021-07-06T11:54:13+0200</time>
      </trkpt>
      <trkpt lat="45.63574" lon="2.90875">
        <ele>1083.576473</ele>
        <time>2021-07-06T11:54:16+0200</time>
      </trkpt>
      <trkpt lat="45.6357" lon="2.90867">
        <ele>1082.445575</ele>
        <time>2021-07-06T11:54:19+0200</time>
      </trkpt>
      <trkpt lat="45.63567" lon="2.90858">
        <ele>1082.630807</ele>
        <time>2021-07-06T11:54:21+0200</time>
      </trkpt>
      <trkpt lat="45.63564" lon="2.9085">
        <ele>1082.516442</ele>
        <time>2021-07-06T11:54:23+0200</time>
      </trkpt>
      <trkpt lat="45.63561" lon="2.90842">
        <ele>1082.063535</ele>
        <time>2021-07-06T11:54:25+0200</time>
      </trkpt>
      <trkpt lat="45.63559" lon="2.90833">
        <ele>1081.943303</ele>
        <time>2021-07-06T11:54:27+0200</time>
      </trkpt>
      <trkpt lat="45.63554" lon="2.90825">
        <ele>1082.340922</ele>
        <time>2021-07-06T11:54:29+0200</time>
      </trkpt>
      <trkpt lat="45.63553" lon="2.90816">
        <ele>1083.321619</ele>
        <time>2021-07-06T11:54:31+0200</time>
      </trkpt>
      <trkpt lat="45.6355" lon="2.90808">
        <ele>1083.348302</ele>
        <time>2021-07-06T11:54:33+0200</time>
      </trkpt>
      <trkpt lat="45.63548" lon="2.90798">
        <ele>1083.658148</ele>
        <time>2021-07-06T11:54:35+0200</time>
      </trkpt>
      <trkpt lat="45.63545" lon="2.90791">
        <ele>1084.19315</ele>
        <time>2021-07-06T11:54:37+0200</time>
      </trkpt>
      <trkpt lat="45.63543" lon="2.90783">
        <ele>1084.84073</ele>
        <time>2021-07-06T11:54:39+0200</time>
      </trkpt>
      <trkpt lat="45.63539" lon="2.90776">
        <ele>1085.244323</ele>
        <time>2021-07-06T11:54:41+0200</time>
      </trkpt>
      <trkpt lat="45.63537" lon="2.90768">
        <ele>1085.534596</ele>
        <time>2021-07-06T11:54:43+0200</time>
      </trkpt>
      <trkpt lat="45.63533" lon="2.90761">
        <ele>1085.219281</ele>
        <time>2021-07-06T11:54:45+0200</time>
      </trkpt>
      <trkpt lat="45.63532" lon="2.90752">
        <ele>1085.686832</ele>
        <time>2021-07-06T11:54:47+0200</time>
      </trkpt>
      <trkpt lat="45.63529" lon="2.90747">
        <ele>1086.242069</ele>
        <time>2021-07-06T11:54:49+0200</time>
      </trkpt>
      <trkpt lat="45.63525" lon="2.90739">
        <ele>1086.184213</ele>
        <time>2021-07-06T11:54:51+0200</time>
      </trkpt>
      <trkpt lat="45.63521" lon="2.9073">
        <ele>1086.168771</ele>
        <time>2021-07-06T11:54:53+0200</time>
      </trkpt>
      <trkpt lat="45.63518" lon="2.90723">
        <ele>1086.271655</ele>
        <time>2021-07-06T11:54:55+0200</time>
      </trkpt>
      <trkpt lat="45.63516" lon="2.90716">
        <ele>1086.324539</ele>
        <time>2021-07-06T11:54:57+0200</time>
      </trkpt>
      <trkpt lat="45.63516" lon="2.90707">
        <ele>1086.47321</ele>
        <time>2021-07-06T11:54:59+0200</time>
      </trkpt>
      <trkpt lat="45.63517" lon="2.90699">
        <ele>1087.063843</ele>
        <time>2021-07-06T11:55:01+0200</time>
      </trkpt>
      <trkpt lat="45.6352" lon="2.90693">
        <ele>1087.732889</ele>
        <time>2021-07-06T11:55:03+0200</time>
      </trkpt>
      <trkpt lat="45.63524" lon="2.90689">
        <ele>1087.904155</ele>
        <time>2021-07-06T11:55:05+0200</time>
      </trkpt>
      <trkpt lat="45.6353" lon="2.90685">
        <ele>1087.144332</ele>
        <time>2021-07-06T11:55:09+0200</time>
      </trkpt>
      <trkpt lat="45.63535" lon="2.90684">
        <ele>1086.814214</ele>
        <time>2021-07-06T11:55:11+0200</time>
      </trkpt>
      <trkpt lat="45.63539" lon="2.9068">
        <ele>1086.56649</ele>
        <time>2021-07-06T11:55:14+0200</time>
      </trkpt>
      <trkpt lat="45.63545" lon="2.90676">
        <ele>1087.543202</ele>
        <time>2021-07-06T11:55:17+0200</time>
      </trkpt>
      <trkpt lat="45.6355" lon="2.90673">
        <ele>1087.95874</ele>
        <time>2021-07-06T11:55:20+0200</time>
      </trkpt>
      <trkpt lat="45.63556" lon="2.9067">
        <ele>1088.497174</ele>
        <time>2021-07-06T11:55:23+0200</time>
      </trkpt>
      <trkpt lat="45.6356" lon="2.90667">
        <ele>1088.7608</ele>
        <time>2021-07-06T11:55:25+0200</time>
      </trkpt>
      <trkpt lat="45.63565" lon="2.90664">
        <ele>1088.918033</ele>
        <time>2021-07-06T11:55:27+0200</time>
      </trkpt>
      <trkpt lat="45.6357" lon="2.90659">
        <ele>1089.353557</ele>
        <time>2021-07-06T11:55:30+0200</time>
      </trkpt>
      <trkpt lat="45.63576" lon="2.90654">
        <ele>1089.519807</ele>
        <time>2021-07-06T11:55:33+0200</time>
      </trkpt>
      <trkpt lat="45.63581" lon="2.90651">
        <ele>1089.489834</ele>
        <time>2021-07-06T11:55:35+0200</time>
      </trkpt>
      <trkpt lat="45.63586" lon="2.90648">
        <ele>1089.880789</ele>
        <time>2021-07-06T11:55:38+0200</time>
      </trkpt>
      <trkpt lat="45.63591" lon="2.90644">
        <ele>1090.095449</ele>
        <time>2021-07-06T11:55:40+0200</time>
      </trkpt>
      <trkpt lat="45.63596" lon="2.90638">
        <ele>1091.431018</ele>
        <time>2021-07-06T11:55:43+0200</time>
      </trkpt>
      <trkpt lat="45.63602" lon="2.90634">
        <ele>1092.366847</ele>
        <time>2021-07-06T11:55:46+0200</time>
      </trkpt>
      <trkpt lat="45.63605" lon="2.90628">
        <ele>1092.953464</ele>
        <time>2021-07-06T11:55:48+0200</time>
      </trkpt>
      <trkpt lat="45.63611" lon="2.90625">
        <ele>1093.624747</ele>
        <time>2021-07-06T11:55:51+0200</time>
      </trkpt>
      <trkpt lat="45.63616" lon="2.90621">
        <ele>1094.356864</ele>
        <time>2021-07-06T11:55:54+0200</time>
      </trkpt>
      <trkpt lat="45.63622" lon="2.90617">
        <ele>1094.633257</ele>
        <time>2021-07-06T11:55:57+0200</time>
      </trkpt>
      <trkpt lat="45.63627" lon="2.90613">
        <ele>1095.079445</ele>
        <time>2021-07-06T11:56:00+0200</time>
      </trkpt>
      <trkpt lat="45.63633" lon="2.90609">
        <ele>1095.551344</ele>
        <time>2021-07-06T11:56:03+0200</time>
      </trkpt>
      <trkpt lat="45.63637" lon="2.90606">
        <ele>1095.850206</ele>
        <time>2021-07-06T11:56:05+0200</time>
      </trkpt>
      <trkpt lat="45.63642" lon="2.90602">
        <ele>1096.400434</ele>
        <time>2021-07-06T11:56:08+0200</time>
      </trkpt>
      <trkpt lat="45.63647" lon="2.90599">
        <ele>1097.720466</ele>
        <time>2021-07-06T11:56:11+0200</time>
      </trkpt>
      <trkpt lat="45.63653" lon="2.90595">
        <ele>1098.364136</ele>
        <time>2021-07-06T11:56:14+0200</time>
      </trkpt>
      <trkpt lat="45.63659" lon="2.90591">
        <ele>1098.670186</ele>
        <time>2021-07-06T11:56:17+0200</time>
      </trkpt>
      <trkpt lat="45.63664" lon="2.90587">
        <ele>1099.195329</ele>
        <time>2021-07-06T11:56:20+0200</time>
      </trkpt>
      <trkpt lat="45.6367" lon="2.90584">
        <ele>1099.816058</ele>
        <time>2021-07-06T11:56:23+0200</time>
      </trkpt>
      <trkpt lat="45.63675" lon="2.9058">
        <ele>1100.423824</ele>
        <time>2021-07-06T11:56:26+0200</time>
      </trkpt>
      <trkpt lat="45.6368" lon="2.90578">
        <ele>1100.570544</ele>
        <time>2021-07-06T11:56:29+0200</time>
      </trkpt>
      <trkpt lat="45.63685" lon="2.90574">
        <ele>1100.817826</ele>
        <time>2021-07-06T11:56:32+0200</time>
      </trkpt>
      <trkpt lat="45.6369" lon="2.9057">
        <ele>1100.790769</ele>
        <time>2021-07-06T11:56:35+0200</time>
      </trkpt>
      <trkpt lat="45.63694" lon="2.90567">
        <ele>1100.946596</ele>
        <time>2021-07-06T11:56:37+0200</time>
      </trkpt>
      <trkpt lat="45.63698" lon="2.90563">
        <ele>1101.101753</ele>
        <time>2021-07-06T11:56:39+0200</time>
      </trkpt>
      <trkpt lat="45.63703" lon="2.90559">
        <ele>1100.950656</ele>
        <time>2021-07-06T11:56:41+0200</time>
      </trkpt>
      <trkpt lat="45.63706" lon="2.90554">
        <ele>1101.799166</ele>
        <time>2021-07-06T11:56:43+0200</time>
      </trkpt>
      <trkpt lat="45.63708" lon="2.90545">
        <ele>1103.367268</ele>
        <time>2021-07-06T11:56:46+0200</time>
      </trkpt>
      <trkpt lat="45.63706" lon="2.90536">
        <ele>1104.282755</ele>
        <time>2021-07-06T11:56:49+0200</time>
      </trkpt>
      <trkpt lat="45.63704" lon="2.90529">
        <ele>1105.548612</ele>
        <time>2021-07-06T11:56:52+0200</time>
      </trkpt>
      <trkpt lat="45.63702" lon="2.9052">
        <ele>1106.488004</ele>
        <time>2021-07-06T11:56:55+0200</time>
      </trkpt>
      <trkpt lat="45.63699" lon="2.90511">
        <ele>1107.811685</ele>
        <time>2021-07-06T11:56:58+0200</time>
      </trkpt>
      <trkpt lat="45.63696" lon="2.90502">
        <ele>1108.907126</ele>
        <time>2021-07-06T11:57:01+0200</time>
      </trkpt>
      <trkpt lat="45.63695" lon="2.90496">
        <ele>1108.863192</ele>
        <time>2021-07-06T11:57:03+0200</time>
      </trkpt>
      <trkpt lat="45.63692" lon="2.90489">
        <ele>1109.082408</ele>
        <time>2021-07-06T11:57:05+0200</time>
      </trkpt>
      <trkpt lat="45.6369" lon="2.90482">
        <ele>1109.004028</ele>
        <time>2021-07-06T11:57:07+0200</time>
      </trkpt>
      <trkpt lat="45.63688" lon="2.90474">
        <ele>1108.30693</ele>
        <time>2021-07-06T11:57:09+0200</time>
      </trkpt>
      <trkpt lat="45.63686" lon="2.90467">
        <ele>1108.580542</ele>
        <time>2021-07-06T11:57:11+0200</time>
      </trkpt>
      <trkpt lat="45.63683" lon="2.9046">
        <ele>1108.555977</ele>
        <time>2021-07-06T11:57:13+0200</time>
      </trkpt>
      <trkpt lat="45.63681" lon="2.90453">
        <ele>1108.70028</ele>
        <time>2021-07-06T11:57:15+0200</time>
      </trkpt>
      <trkpt lat="45.63679" lon="2.90446">
        <ele>1108.478351</ele>
        <time>2021-07-06T11:57:17+0200</time>
      </trkpt>
      <trkpt lat="45.63676" lon="2.9044">
        <ele>1109.029422</ele>
        <time>2021-07-06T11:57:19+0200</time>
      </trkpt>
      <trkpt lat="45.63674" lon="2.90433">
        <ele>1109.346823</ele>
        <time>2021-07-06T11:57:21+0200</time>
      </trkpt>
      <trkpt lat="45.63671" lon="2.90425">
        <ele>1109.86368</ele>
        <time>2021-07-06T11:57:23+0200</time>
      </trkpt>
      <trkpt lat="45.63667" lon="2.90418">
        <ele>1109.809173</ele>
        <time>2021-07-06T11:57:25+0200</time>
      </trkpt>
      <trkpt lat="45.63665" lon="2.90411">
        <ele>1110.298704</ele>
        <time>2021-07-06T11:57:27+0200</time>
      </trkpt>
      <trkpt lat="45.63662" lon="2.90403">
        <ele>1110.773458</ele>
        <time>2021-07-06T11:57:29+0200</time>
      </trkpt>
      <trkpt lat="45.63659" lon="2.90396">
        <ele>1111.536612</ele>
        <time>2021-07-06T11:57:31+0200</time>
      </trkpt>
      <trkpt lat="45.63658" lon="2.90389">
        <ele>1111.972892</ele>
        <time>2021-07-06T11:57:33+0200</time>
      </trkpt>
      <trkpt lat="45.63656" lon="2.9038">
        <ele>1113.045336</ele>
        <time>2021-07-06T11:57:35+0200</time>
      </trkpt>
      <trkpt lat="45.63655" lon="2.90372">
        <ele>1113.151231</ele>
        <time>2021-07-06T11:57:37+0200</time>
      </trkpt>
      <trkpt lat="45.63652" lon="2.90366">
        <ele>1113.798134</ele>
        <time>2021-07-06T11:57:39+0200</time>
      </trkpt>
      <trkpt lat="45.6365" lon="2.90358">
        <ele>1113.77576</ele>
        <time>2021-07-06T11:57:41+0200</time>
      </trkpt>
      <trkpt lat="45.63647" lon="2.9035">
        <ele>1113.500572</ele>
        <time>2021-07-06T11:57:43+0200</time>
      </trkpt>
      <trkpt lat="45.63646" lon="2.90342">
        <ele>1114.462361</ele>
        <time>2021-07-06T11:57:45+0200</time>
      </trkpt>
      <trkpt lat="45.63643" lon="2.90334">
        <ele>1114.717773</ele>
        <time>2021-07-06T11:57:47+0200</time>
      </trkpt>
      <trkpt lat="45.6364" lon="2.90326">
        <ele>1114.587742</ele>
        <time>2021-07-06T11:57:49+0200</time>
      </trkpt>
      <trkpt lat="45.63638" lon="2.90318">
        <ele>1115.028437</ele>
        <time>2021-07-06T11:57:51+0200</time>
      </trkpt>
      <trkpt lat="45.63635" lon="2.90311">
        <ele>1115.430217</ele>
        <time>2021-07-06T11:57:53+0200</time>
      </trkpt>
      <trkpt lat="45.63633" lon="2.90302">
        <ele>1115.575531</ele>
        <time>2021-07-06T11:57:55+0200</time>
      </trkpt>
      <trkpt lat="45.6363" lon="2.90295">
        <ele>1115.714403</ele>
        <time>2021-07-06T11:57:57+0200</time>
      </trkpt>
      <trkpt lat="45.63627" lon="2.90288">
        <ele>1115.62695</ele>
        <time>2021-07-06T11:57:59+0200</time>
      </trkpt>
      <trkpt lat="45.63624" lon="2.90281">
        <ele>1115.66044</ele>
        <time>2021-07-06T11:58:01+0200</time>
      </trkpt>
      <trkpt lat="45.63623" lon="2.90273">
        <ele>1115.341553</ele>
        <time>2021-07-06T11:58:03+0200</time>
      </trkpt>
      <trkpt lat="45.6362" lon="2.90266">
        <ele>1115.300763</ele>
        <time>2021-07-06T11:58:05+0200</time>
      </trkpt>
      <trkpt lat="45.63618" lon="2.90261">
        <ele>1114.748761</ele>
        <time>2021-07-06T11:58:07+0200</time>
      </trkpt>
      <trkpt lat="45.63616" lon="2.90254">
        <ele>1114.762958</ele>
        <time>2021-07-06T11:58:09+0200</time>
      </trkpt>
      <trkpt lat="45.63613" lon="2.90247">
        <ele>1114.116715</ele>
        <time>2021-07-06T12:01:14+0200</time>
      </trkpt>
      <trkpt lat="45.6361" lon="2.90241">
        <ele>1114.924301</ele>
        <time>2021-07-06T12:01:16+0200</time>
      </trkpt>
      <trkpt lat="45.63607" lon="2.90235">
        <ele>1114.942857</ele>
        <time>2021-07-06T12:01:18+0200</time>
      </trkpt>
      <trkpt lat="45.63606" lon="2.90229">
        <ele>1115.299962</ele>
        <time>2021-07-06T12:01:20+0200</time>
      </trkpt>
      <trkpt lat="45.63603" lon="2.90223">
        <ele>1115.908351</ele>
        <time>2021-07-06T12:01:22+0200</time>
      </trkpt>
      <trkpt lat="45.63601" lon="2.90216">
        <ele>1116.674957</ele>
        <time>2021-07-06T12:01:24+0200</time>
      </trkpt>
      <trkpt lat="45.63599" lon="2.90209">
        <ele>1116.983389</ele>
        <time>2021-07-06T12:01:26+0200</time>
      </trkpt>
      <trkpt lat="45.63597" lon="2.90201">
        <ele>1118.065074</ele>
        <time>2021-07-06T12:01:28+0200</time>
      </trkpt>
      <trkpt lat="45.63596" lon="2.90191">
        <ele>1118.233153</ele>
        <time>2021-07-06T12:01:30+0200</time>
      </trkpt>
      <trkpt lat="45.63593" lon="2.90183">
        <ele>1118.193161</ele>
        <time>2021-07-06T12:01:32+0200</time>
      </trkpt>
      <trkpt lat="45.6359" lon="2.90177">
        <ele>1118.141874</ele>
        <time>2021-07-06T12:01:34+0200</time>
      </trkpt>
      <trkpt lat="45.63588" lon="2.90168">
        <ele>1118.872931</ele>
        <time>2021-07-06T12:01:36+0200</time>
      </trkpt>
      <trkpt lat="45.63585" lon="2.9016">
        <ele>1119.525404</ele>
        <time>2021-07-06T12:01:38+0200</time>
      </trkpt>
      <trkpt lat="45.63583" lon="2.90152">
        <ele>1119.983837</ele>
        <time>2021-07-06T12:01:40+0200</time>
      </trkpt>
      <trkpt lat="45.63581" lon="2.90144">
        <ele>1120.570929</ele>
        <time>2021-07-06T12:01:42+0200</time>
      </trkpt>
      <trkpt lat="45.63578" lon="2.90135">
        <ele>1120.114457</ele>
        <time>2021-07-06T12:01:44+0200</time>
      </trkpt>
      <trkpt lat="45.63575" lon="2.90127">
        <ele>1120.362823</ele>
        <time>2021-07-06T12:01:46+0200</time>
      </trkpt>
      <trkpt lat="45.63572" lon="2.90118">
        <ele>1120.558181</ele>
        <time>2021-07-06T12:01:48+0200</time>
      </trkpt>
      <trkpt lat="45.6357" lon="2.9011">
        <ele>1121.060063</ele>
        <time>2021-07-06T12:01:50+0200</time>
      </trkpt>
      <trkpt lat="45.63567" lon="2.90102">
        <ele>1121.251239</ele>
        <time>2021-07-06T12:01:52+0200</time>
      </trkpt>
      <trkpt lat="45.63565" lon="2.90095">
        <ele>1121.80344</ele>
        <time>2021-07-06T12:01:54+0200</time>
      </trkpt>
      <trkpt lat="45.63563" lon="2.90087">
        <ele>1122.008299</ele>
        <time>2021-07-06T12:01:56+0200</time>
      </trkpt>
      <trkpt lat="45.6356" lon="2.90079">
        <ele>1122.07104</ele>
        <time>2021-07-06T12:01:58+0200</time>
      </trkpt>
      <trkpt lat="45.63558" lon="2.90071">
        <ele>1122.129759</ele>
        <time>2021-07-06T12:02:00+0200</time>
      </trkpt>
      <trkpt lat="45.63555" lon="2.90063">
        <ele>1122.468096</ele>
        <time>2021-07-06T12:02:02+0200</time>
      </trkpt>
      <trkpt lat="45.63552" lon="2.90054">
        <ele>1122.195958</ele>
        <time>2021-07-06T12:02:04+0200</time>
      </trkpt>
      <trkpt lat="45.63549" lon="2.90045">
        <ele>1121.750436</ele>
        <time>2021-07-06T12:02:06+0200</time>
      </trkpt>
      <trkpt lat="45.63545" lon="2.90036">
        <ele>1121.788909</ele>
        <time>2021-07-06T12:02:08+0200</time>
      </trkpt>
      <trkpt lat="45.63543" lon="2.90028">
        <ele>1121.862889</ele>
        <time>2021-07-06T12:02:10+0200</time>
      </trkpt>
      <trkpt lat="45.6354" lon="2.90018">
        <ele>1121.717427</ele>
        <time>2021-07-06T12:02:12+0200</time>
      </trkpt>
      <trkpt lat="45.63538" lon="2.90009">
        <ele>1122.779842</ele>
        <time>2021-07-06T12:02:14+0200</time>
      </trkpt>
      <trkpt lat="45.63535" lon="2.9">
        <ele>1123.362717</ele>
        <time>2021-07-06T12:02:16+0200</time>
      </trkpt>
      <trkpt lat="45.63533" lon="2.89991">
        <ele>1124.029803</ele>
        <time>2021-07-06T12:02:18+0200</time>
      </trkpt>
      <trkpt lat="45.63529" lon="2.89983">
        <ele>1124.83038</ele>
        <time>2021-07-06T12:02:20+0200</time>
      </trkpt>
      <trkpt lat="45.63527" lon="2.89974">
        <ele>1124.692688</ele>
        <time>2021-07-06T12:02:22+0200</time>
      </trkpt>
      <trkpt lat="45.63524" lon="2.89963">
        <ele>1124.253328</ele>
        <time>2021-07-06T12:02:24+0200</time>
      </trkpt>
      <trkpt lat="45.6352" lon="2.89954">
        <ele>1123.516288</ele>
        <time>2021-07-06T12:02:26+0200</time>
      </trkpt>
      <trkpt lat="45.63517" lon="2.89944">
        <ele>1123.439699</ele>
        <time>2021-07-06T12:02:28+0200</time>
      </trkpt>
      <trkpt lat="45.63513" lon="2.89936">
        <ele>1124.142551</ele>
        <time>2021-07-06T12:02:30+0200</time>
      </trkpt>
      <trkpt lat="45.63511" lon="2.89926">
        <ele>1123.861595</ele>
        <time>2021-07-06T12:02:32+0200</time>
      </trkpt>
      <trkpt lat="45.63508" lon="2.89916">
        <ele>1123.808476</ele>
        <time>2021-07-06T12:02:34+0200</time>
      </trkpt>
      <trkpt lat="45.63505" lon="2.89907">
        <ele>1123.600386</ele>
        <time>2021-07-06T12:02:36+0200</time>
      </trkpt>
      <trkpt lat="45.63501" lon="2.89897">
        <ele>1123.321783</ele>
        <time>2021-07-06T12:02:38+0200</time>
      </trkpt>
      <trkpt lat="45.63498" lon="2.89886">
        <ele>1122.866558</ele>
        <time>2021-07-06T12:02:40+0200</time>
      </trkpt>
      <trkpt lat="45.63495" lon="2.89877">
        <ele>1123.800984</ele>
        <time>2021-07-06T12:02:42+0200</time>
      </trkpt>
      <trkpt lat="45.63492" lon="2.89867">
        <ele>1123.943665</ele>
        <time>2021-07-06T12:02:44+0200</time>
      </trkpt>
      <trkpt lat="45.63489" lon="2.89857">
        <ele>1124.074936</ele>
        <time>2021-07-06T12:02:46+0200</time>
      </trkpt>
      <trkpt lat="45.63486" lon="2.89847">
        <ele>1124.809118</ele>
        <time>2021-07-06T12:02:48+0200</time>
      </trkpt>
      <trkpt lat="45.63483" lon="2.89837">
        <ele>1125.369636</ele>
        <time>2021-07-06T12:02:50+0200</time>
      </trkpt>
      <trkpt lat="45.6348" lon="2.89827">
        <ele>1125.707759</ele>
        <time>2021-07-06T12:02:52+0200</time>
      </trkpt>
      <trkpt lat="45.63476" lon="2.89817">
        <ele>1124.838721</ele>
        <time>2021-07-06T12:02:54+0200</time>
      </trkpt>
      <trkpt lat="45.63473" lon="2.89808">
        <ele>1124.24757</ele>
        <time>2021-07-06T12:02:56+0200</time>
      </trkpt>
      <trkpt lat="45.6347" lon="2.89798">
        <ele>1124.905652</ele>
        <time>2021-07-06T12:02:58+0200</time>
      </trkpt>
      <trkpt lat="45.63466" lon="2.89788">
        <ele>1124.662169</ele>
        <time>2021-07-06T12:03:00+0200</time>
      </trkpt>
      <trkpt lat="45.63463" lon="2.89778">
        <ele>1124.5218</ele>
        <time>2021-07-06T12:03:02+0200</time>
      </trkpt>
      <trkpt lat="45.6346" lon="2.8977">
        <ele>1125.189164</ele>
        <time>2021-07-06T12:03:04+0200</time>
      </trkpt>
      <trkpt lat="45.63456" lon="2.89761">
        <ele>1124.703885</ele>
        <time>2021-07-06T12:03:06+0200</time>
      </trkpt>
      <trkpt lat="45.63455" lon="2.89752">
        <ele>1124.669741</ele>
        <time>2021-07-06T12:03:08+0200</time>
      </trkpt>
      <trkpt lat="45.63453" lon="2.89743">
        <ele>1124.930191</ele>
        <time>2021-07-06T12:03:10+0200</time>
      </trkpt>
      <trkpt lat="45.63452" lon="2.89733">
        <ele>1125.314627</ele>
        <time>2021-07-06T12:03:12+0200</time>
      </trkpt>
      <trkpt lat="45.63452" lon="2.89723">
        <ele>1125.592635</ele>
        <time>2021-07-06T12:03:14+0200</time>
      </trkpt>
      <trkpt lat="45.63454" lon="2.89715">
        <ele>1125.42055</ele>
        <time>2021-07-06T12:03:16+0200</time>
      </trkpt>
      <trkpt lat="45.63455" lon="2.89706">
        <ele>1125.98138</ele>
        <time>2021-07-06T12:03:18+0200</time>
      </trkpt>
      <trkpt lat="45.63456" lon="2.89698">
        <ele>1126.255409</ele>
        <time>2021-07-06T12:03:20+0200</time>
      </trkpt>
      <trkpt lat="45.63457" lon="2.8969">
        <ele>1126.203246</ele>
        <time>2021-07-06T12:03:22+0200</time>
      </trkpt>
      <trkpt lat="45.63458" lon="2.89681">
        <ele>1126.057986</ele>
        <time>2021-07-06T12:03:24+0200</time>
      </trkpt>
      <trkpt lat="45.63457" lon="2.89672">
        <ele>1126.121718</ele>
        <time>2021-07-06T12:03:26+0200</time>
      </trkpt>
      <trkpt lat="45.63458" lon="2.89663">
        <ele>1125.853306</ele>
        <time>2021-07-06T12:03:28+0200</time>
      </trkpt>
      <trkpt lat="45.63458" lon="2.89653">
        <ele>1125.02777</ele>
        <time>2021-07-06T12:03:30+0200</time>
      </trkpt>
      <trkpt lat="45.6346" lon="2.89643">
        <ele>1124.869318</ele>
        <time>2021-07-06T12:03:32+0200</time>
      </trkpt>
      <trkpt lat="45.6346" lon="2.89634">
        <ele>1124.821357</ele>
        <time>2021-07-06T12:03:34+0200</time>
      </trkpt>
      <trkpt lat="45.63462" lon="2.89625">
        <ele>1124.379059</ele>
        <time>2021-07-06T12:03:36+0200</time>
      </trkpt>
      <trkpt lat="45.63461" lon="2.89616">
        <ele>1125.214588</ele>
        <time>2021-07-06T12:03:38+0200</time>
      </trkpt>
      <trkpt lat="45.63462" lon="2.89607">
        <ele>1125.309809</ele>
        <time>2021-07-06T12:03:40+0200</time>
      </trkpt>
      <trkpt lat="45.63463" lon="2.89599">
        <ele>1125.995743</ele>
        <time>2021-07-06T12:03:42+0200</time>
      </trkpt>
      <trkpt lat="45.63463" lon="2.89591">
        <ele>1126.710403</ele>
        <time>2021-07-06T12:03:44+0200</time>
      </trkpt>
      <trkpt lat="45.63464" lon="2.89583">
        <ele>1127.140691</ele>
        <time>2021-07-06T12:03:46+0200</time>
      </trkpt>
      <trkpt lat="45.63465" lon="2.89576">
        <ele>1127.477533</ele>
        <time>2021-07-06T12:03:48+0200</time>
      </trkpt>
      <trkpt lat="45.63465" lon="2.89568">
        <ele>1127.498625</ele>
        <time>2021-07-06T12:03:50+0200</time>
      </trkpt>
      <trkpt lat="45.63464" lon="2.8956">
        <ele>1127.508055</ele>
        <time>2021-07-06T12:03:52+0200</time>
      </trkpt>
      <trkpt lat="45.63465" lon="2.89551">
        <ele>1126.906738</ele>
        <time>2021-07-06T12:03:54+0200</time>
      </trkpt>
      <trkpt lat="45.63465" lon="2.89544">
        <ele>1127.50496</ele>
        <time>2021-07-06T12:03:56+0200</time>
      </trkpt>
      <trkpt lat="45.63465" lon="2.89536">
        <ele>1127.587375</ele>
        <time>2021-07-06T12:03:58+0200</time>
      </trkpt>
      <trkpt lat="45.63466" lon="2.89528">
        <ele>1128.616514</ele>
        <time>2021-07-06T12:04:00+0200</time>
      </trkpt>
      <trkpt lat="45.63467" lon="2.89522">
        <ele>1129.256903</ele>
        <time>2021-07-06T12:04:02+0200</time>
      </trkpt>
      <trkpt lat="45.63468" lon="2.89514">
        <ele>1129.56235</ele>
        <time>2021-07-06T12:04:05+0200</time>
      </trkpt>
      <trkpt lat="45.63471" lon="2.89507">
        <ele>1129.128672</ele>
        <time>2021-07-06T12:04:08+0200</time>
      </trkpt>
      <trkpt lat="45.63478" lon="2.89506">
        <ele>1129.719334</ele>
        <time>2021-07-06T12:04:11+0200</time>
      </trkpt>
      <trkpt lat="45.63482" lon="2.89502">
        <ele>1130.113263</ele>
        <time>2021-07-06T12:04:13+0200</time>
      </trkpt>
      <trkpt lat="45.63486" lon="2.89499">
        <ele>1130.118917</ele>
        <time>2021-07-06T12:04:15+0200</time>
      </trkpt>
      <trkpt lat="45.63492" lon="2.89496">
        <ele>1130.786517</ele>
        <time>2021-07-06T12:04:18+0200</time>
      </trkpt>
      <trkpt lat="45.63498" lon="2.89491">
        <ele>1131.820412</ele>
        <time>2021-07-06T12:04:21+0200</time>
      </trkpt>
      <trkpt lat="45.63502" lon="2.89487">
        <ele>1132.548216</ele>
        <time>2021-07-06T12:04:23+0200</time>
      </trkpt>
      <trkpt lat="45.63506" lon="2.89484">
        <ele>1133.356132</ele>
        <time>2021-07-06T12:04:25+0200</time>
      </trkpt>
      <trkpt lat="45.6351" lon="2.8948">
        <ele>1134.227055</ele>
        <time>2021-07-06T12:04:28+0200</time>
      </trkpt>
      <trkpt lat="45.63515" lon="2.89478">
        <ele>1134.746915</ele>
        <time>2021-07-06T12:04:30+0200</time>
      </trkpt>
      <trkpt lat="45.6352" lon="2.89474">
        <ele>1136.292851</ele>
        <time>2021-07-06T12:04:33+0200</time>
      </trkpt>
      <trkpt lat="45.63525" lon="2.8947">
        <ele>1137.539884</ele>
        <time>2021-07-06T12:04:36+0200</time>
      </trkpt>
      <trkpt lat="45.63529" lon="2.89466">
        <ele>1138.134516</ele>
        <time>2021-07-06T12:04:38+0200</time>
      </trkpt>
      <trkpt lat="45.63534" lon="2.89461">
        <ele>1138.175173</ele>
        <time>2021-07-06T12:04:41+0200</time>
      </trkpt>
      <trkpt lat="45.63538" lon="2.89457">
        <ele>1138.480206</ele>
        <time>2021-07-06T12:04:44+0200</time>
      </trkpt>
      <trkpt lat="45.63544" lon="2.89452">
        <ele>1138.419546</ele>
        <time>2021-07-06T12:04:47+0200</time>
      </trkpt>
      <trkpt lat="45.63548" lon="2.89449">
        <ele>1138.464247</ele>
        <time>2021-07-06T12:04:49+0200</time>
      </trkpt>
      <trkpt lat="45.63554" lon="2.89444">
        <ele>1138.505286</ele>
        <time>2021-07-06T12:04:52+0200</time>
      </trkpt>
      <trkpt lat="45.63558" lon="2.89442">
        <ele>1139.353694</ele>
        <time>2021-07-06T12:04:54+0200</time>
      </trkpt>
      <trkpt lat="45.63562" lon="2.89438">
        <ele>1140.592511</ele>
        <time>2021-07-06T12:04:56+0200</time>
      </trkpt>
      <trkpt lat="45.63568" lon="2.89434">
        <ele>1141.144867</ele>
        <time>2021-07-06T12:04:59+0200</time>
      </trkpt>
      <trkpt lat="45.63573" lon="2.8943">
        <ele>1141.658944</ele>
        <time>2021-07-06T12:05:01+0200</time>
      </trkpt>
      <trkpt lat="45.63578" lon="2.89424">
        <ele>1141.945412</ele>
        <time>2021-07-06T12:05:04+0200</time>
      </trkpt>
      <trkpt lat="45.63582" lon="2.8942">
        <ele>1142.170227</ele>
        <time>2021-07-06T12:05:06+0200</time>
      </trkpt>
      <trkpt lat="45.63586" lon="2.89417">
        <ele>1142.14945</ele>
        <time>2021-07-06T12:05:08+0200</time>
      </trkpt>
      <trkpt lat="45.6359" lon="2.89413">
        <ele>1142.466337</ele>
        <time>2021-07-06T12:05:10+0200</time>
      </trkpt>
      <trkpt lat="45.63596" lon="2.89408">
        <ele>1143.024628</ele>
        <time>2021-07-06T12:05:13+0200</time>
      </trkpt>
      <trkpt lat="45.63599" lon="2.89404">
        <ele>1142.857468</ele>
        <time>2021-07-06T12:05:15+0200</time>
      </trkpt>
      <trkpt lat="45.63605" lon="2.894">
        <ele>1142.796956</ele>
        <time>2021-07-06T12:05:18+0200</time>
      </trkpt>
      <trkpt lat="45.6361" lon="2.89396">
        <ele>1143.574768</ele>
        <time>2021-07-06T12:05:21+0200</time>
      </trkpt>
      <trkpt lat="45.63612" lon="2.89388">
        <ele>1143.455922</ele>
        <time>2021-07-06T12:05:24+0200</time>
      </trkpt>
      <trkpt lat="45.6361" lon="2.89379">
        <ele>1144.716682</ele>
        <time>2021-07-06T12:05:27+0200</time>
      </trkpt>
      <trkpt lat="45.63606" lon="2.89376">
        <ele>1145.161515</ele>
        <time>2021-07-06T12:05:30+0200</time>
      </trkpt>
      <trkpt lat="45.63603" lon="2.89369">
        <ele>1144.989041</ele>
        <time>2021-07-06T12:06:27+0200</time>
      </trkpt>
      <trkpt lat="45.636" lon="2.89364">
        <ele>1146.054935</ele>
        <time>2021-07-06T12:06:30+0200</time>
      </trkpt>
      <trkpt lat="45.63594" lon="2.89359">
        <ele>1147.169458</ele>
        <time>2021-07-06T12:06:33+0200</time>
      </trkpt>
      <trkpt lat="45.6359" lon="2.89353">
        <ele>1148.510406</ele>
        <time>2021-07-06T12:06:36+0200</time>
      </trkpt>
      <trkpt lat="45.63586" lon="2.89348">
        <ele>1149.545614</ele>
        <time>2021-07-06T12:06:39+0200</time>
      </trkpt>
      <trkpt lat="45.63582" lon="2.89341">
        <ele>1150.790546</ele>
        <time>2021-07-06T12:06:42+0200</time>
      </trkpt>
      <trkpt lat="45.63579" lon="2.89336">
        <ele>1151.321155</ele>
        <time>2021-07-06T12:06:44+0200</time>
      </trkpt>
      <trkpt lat="45.63574" lon="2.89331">
        <ele>1151.602371</ele>
        <time>2021-07-06T12:06:46+0200</time>
      </trkpt>
      <trkpt lat="45.63571" lon="2.89327">
        <ele>1151.964514</ele>
        <time>2021-07-06T12:06:48+0200</time>
      </trkpt>
      <trkpt lat="45.63567" lon="2.89321">
        <ele>1151.879442</ele>
        <time>2021-07-06T12:06:51+0200</time>
      </trkpt>
      <trkpt lat="45.63564" lon="2.89317">
        <ele>1151.688939</ele>
        <time>2021-07-06T12:06:53+0200</time>
      </trkpt>
      <trkpt lat="45.63559" lon="2.8931">
        <ele>1152.408769</ele>
        <time>2021-07-06T12:06:56+0200</time>
      </trkpt>
      <trkpt lat="45.63555" lon="2.89306">
        <ele>1152.913809</ele>
        <time>2021-07-06T12:06:58+0200</time>
      </trkpt>
      <trkpt lat="45.63551" lon="2.89298">
        <ele>1153.4921</ele>
        <time>2021-07-06T12:07:01+0200</time>
      </trkpt>
      <trkpt lat="45.63547" lon="2.89294">
        <ele>1153.462681</ele>
        <time>2021-07-06T12:07:03+0200</time>
      </trkpt>
      <trkpt lat="45.63544" lon="2.89289">
        <ele>1153.990839</ele>
        <time>2021-07-06T12:07:05+0200</time>
      </trkpt>
      <trkpt lat="45.63541" lon="2.89283">
        <ele>1154.403058</ele>
        <time>2021-07-06T12:07:07+0200</time>
      </trkpt>
      <trkpt lat="45.63537" lon="2.89277">
        <ele>1154.381676</ele>
        <time>2021-07-06T12:07:09+0200</time>
      </trkpt>
      <trkpt lat="45.63533" lon="2.89272">
        <ele>1154.425757</ele>
        <time>2021-07-06T12:07:11+0200</time>
      </trkpt>
      <trkpt lat="45.6353" lon="2.89266">
        <ele>1155.002605</ele>
        <time>2021-07-06T12:07:13+0200</time>
      </trkpt>
      <trkpt lat="45.63526" lon="2.8926">
        <ele>1155.765922</ele>
        <time>2021-07-06T12:07:15+0200</time>
      </trkpt>
      <trkpt lat="45.63522" lon="2.89255">
        <ele>1155.975178</ele>
        <time>2021-07-06T12:07:18+0200</time>
      </trkpt>
      <trkpt lat="45.63519" lon="2.8925">
        <ele>1156.417049</ele>
        <time>2021-07-06T12:07:22+0200</time>
      </trkpt>
      <trkpt lat="45.63516" lon="2.89245">
        <ele>1156.774704</ele>
        <time>2021-07-06T12:07:25+0200</time>
      </trkpt>
      <trkpt lat="45.63512" lon="2.89239">
        <ele>1156.382662</ele>
        <time>2021-07-06T12:07:28+0200</time>
      </trkpt>
      <trkpt lat="45.63507" lon="2.89233">
        <ele>1156.515278</ele>
        <time>2021-07-06T12:07:31+0200</time>
      </trkpt>
      <trkpt lat="45.63503" lon="2.89227">
        <ele>1156.829746</ele>
        <time>2021-07-06T12:07:34+0200</time>
      </trkpt>
      <trkpt lat="45.63498" lon="2.89222">
        <ele>1158.04625</ele>
        <time>2021-07-06T12:07:37+0200</time>
      </trkpt>
      <trkpt lat="45.63494" lon="2.89215">
        <ele>1158.969901</ele>
        <time>2021-07-06T12:07:40+0200</time>
      </trkpt>
      <trkpt lat="45.6349" lon="2.89209">
        <ele>1160.009721</ele>
        <time>2021-07-06T12:07:43+0200</time>
      </trkpt>
      <trkpt lat="45.63486" lon="2.89203">
        <ele>1161.015704</ele>
        <time>2021-07-06T12:07:46+0200</time>
      </trkpt>
      <trkpt lat="45.63482" lon="2.89197">
        <ele>1162.204555</ele>
        <time>2021-07-06T12:07:49+0200</time>
      </trkpt>
      <trkpt lat="45.63478" lon="2.89194">
        <ele>1162.042133</ele>
        <time>2021-07-06T12:07:52+0200</time>
      </trkpt>
      <trkpt lat="45.63473" lon="2.89189">
        <ele>1164.735779</ele>
        <time>2021-07-06T12:07:56+0200</time>
      </trkpt>
      <trkpt lat="45.63468" lon="2.89184">
        <ele>1164.851455</ele>
        <time>2021-07-06T12:07:59+0200</time>
      </trkpt>
      <trkpt lat="45.63464" lon="2.89177">
        <ele>1164.807804</ele>
        <time>2021-07-06T12:08:02+0200</time>
      </trkpt>
      <trkpt lat="45.6346" lon="2.89172">
        <ele>1165.299286</ele>
        <time>2021-07-06T12:08:05+0200</time>
      </trkpt>
      <trkpt lat="45.63455" lon="2.89167">
        <ele>1166.239289</ele>
        <time>2021-07-06T12:08:08+0200</time>
      </trkpt>
      <trkpt lat="45.63452" lon="2.89162">
        <ele>1166.882359</ele>
        <time>2021-07-06T12:08:10+0200</time>
      </trkpt>
      <trkpt lat="45.63448" lon="2.89157">
        <ele>1167.396955</ele>
        <time>2021-07-06T12:08:12+0200</time>
      </trkpt>
      <trkpt lat="45.63446" lon="2.89151">
        <ele>1166.969921</ele>
        <time>2021-07-06T12:08:14+0200</time>
      </trkpt>
      <trkpt lat="45.63444" lon="2.89143">
        <ele>1167.344437</ele>
        <time>2021-07-06T12:08:17+0200</time>
      </trkpt>
      <trkpt lat="45.63443" lon="2.89135">
        <ele>1167.340731</ele>
        <time>2021-07-06T12:08:20+0200</time>
      </trkpt>
      <trkpt lat="45.63444" lon="2.89126">
        <ele>1166.745054</ele>
        <time>2021-07-06T12:08:23+0200</time>
      </trkpt>
      <trkpt lat="45.63446" lon="2.89117">
        <ele>1167.134681</ele>
        <time>2021-07-06T12:08:26+0200</time>
      </trkpt>
      <trkpt lat="45.63448" lon="2.8911">
        <ele>1166.219928</ele>
        <time>2021-07-06T12:08:28+0200</time>
      </trkpt>
      <trkpt lat="45.63449" lon="2.89101">
        <ele>1166.595548</ele>
        <time>2021-07-06T12:08:31+0200</time>
      </trkpt>
      <trkpt lat="45.63452" lon="2.89092">
        <ele>1165.57929</ele>
        <time>2021-07-06T12:08:34+0200</time>
      </trkpt>
      <trkpt lat="45.63453" lon="2.89084">
        <ele>1165.164206</ele>
        <time>2021-07-06T12:08:37+0200</time>
      </trkpt>
      <trkpt lat="45.63455" lon="2.89077">
        <ele>1165.313331</ele>
        <time>2021-07-06T12:08:40+0200</time>
      </trkpt>
      <trkpt lat="45.63456" lon="2.8907">
        <ele>1165.203876</ele>
        <time>2021-07-06T12:08:42+0200</time>
      </trkpt>
      <trkpt lat="45.63458" lon="2.89064">
        <ele>1165.606737</ele>
        <time>2021-07-06T12:08:44+0200</time>
      </trkpt>
      <trkpt lat="45.63458" lon="2.89057">
        <ele>1166.383366</ele>
        <time>2021-07-06T12:08:46+0200</time>
      </trkpt>
      <trkpt lat="45.63459" lon="2.89051">
        <ele>1168.251504</ele>
        <time>2021-07-06T12:08:49+0200</time>
      </trkpt>
      <trkpt lat="45.6346" lon="2.89043">
        <ele>1168.809714</ele>
        <time>2021-07-06T12:08:52+0200</time>
      </trkpt>
      <trkpt lat="45.6346" lon="2.89034">
        <ele>1170.128754</ele>
        <time>2021-07-06T12:08:56+0200</time>
      </trkpt>
      <trkpt lat="45.6346" lon="2.89026">
        <ele>1171.870725</ele>
        <time>2021-07-06T12:08:59+0200</time>
      </trkpt>
      <trkpt lat="45.63458" lon="2.89018">
        <ele>1173.171312</ele>
        <time>2021-07-06T12:09:02+0200</time>
      </trkpt>
      <trkpt lat="45.63455" lon="2.89012">
        <ele>1172.759669</ele>
        <time>2021-07-06T12:09:36+0200</time>
      </trkpt>
      <trkpt lat="45.63452" lon="2.89006">
        <ele>1174.987285</ele>
        <time>2021-07-06T12:09:40+0200</time>
      </trkpt>
      <trkpt lat="45.63448" lon="2.89001">
        <ele>1174.925558</ele>
        <time>2021-07-06T12:09:43+0200</time>
      </trkpt>
      <trkpt lat="45.63446" lon="2.88994">
        <ele>1175.743456</ele>
        <time>2021-07-06T12:09:46+0200</time>
      </trkpt>
      <trkpt lat="45.63447" lon="2.88987">
        <ele>1174.469972</ele>
        <time>2021-07-06T12:09:49+0200</time>
      </trkpt>
      <trkpt lat="45.6345" lon="2.88981">
        <ele>1175.430531</ele>
        <time>2021-07-06T12:09:52+0200</time>
      </trkpt>
      <trkpt lat="45.63451" lon="2.88974">
        <ele>1175.634153</ele>
        <time>2021-07-06T12:09:55+0200</time>
      </trkpt>
      <trkpt lat="45.63454" lon="2.88967">
        <ele>1175.410789</ele>
        <time>2021-07-06T12:09:58+0200</time>
      </trkpt>
      <trkpt lat="45.6454" lon="2.87815">
        <ele>1128.374299</ele>
        <time>2021-07-06T13:01:20+0200</time>
      </trkpt>
      <trkpt lat="45.6454" lon="2.87808">
        <ele>1128.406524</ele>
        <time>2021-07-06T13:01:23+0200</time>
      </trkpt>
      <trkpt lat="45.64538" lon="2.87801">
        <ele>1129.101431</ele>
        <time>2021-07-06T13:01:28+0200</time>
      </trkpt>
      <trkpt lat="45.64536" lon="2.87794">
        <ele>1129.139786</ele>
        <time>2021-07-06T13:01:32+0200</time>
      </trkpt>
      <trkpt lat="45.64537" lon="2.87785">
        <ele>1130.166092</ele>
        <time>2021-07-06T13:01:36+0200</time>
      </trkpt>
      <trkpt lat="45.64536" lon="2.87777">
        <ele>1130.958241</ele>
        <time>2021-07-06T13:01:39+0200</time>
      </trkpt>
      <trkpt lat="45.64533" lon="2.8777">
        <ele>1131.464829</ele>
        <time>2021-07-06T13:01:42+0200</time>
      </trkpt>
      <trkpt lat="45.64533" lon="2.87763">
        <ele>1132.045538</ele>
        <time>2021-07-06T13:01:44+0200</time>
      </trkpt>
      <trkpt lat="45.64531" lon="2.87756">
        <ele>1132.676076</ele>
        <time>2021-07-06T13:01:47+0200</time>
      </trkpt>
      <trkpt lat="45.6453" lon="2.87748">
        <ele>1134.139725</ele>
        <time>2021-07-06T13:01:50+0200</time>
      </trkpt>
      <trkpt lat="45.64531" lon="2.87736">
        <ele>1136.026112</ele>
        <time>2021-07-06T13:01:51+0200</time>
      </trkpt>
      <trkpt lat="45.64527" lon="2.87731">
        <ele>1139.365163</ele>
        <time>2021-07-06T13:01:54+0200</time>
      </trkpt>
      <trkpt lat="45.64524" lon="2.87724">
        <ele>1142.175841</ele>
        <time>2021-07-06T13:01:57+0200</time>
      </trkpt>
      <trkpt lat="45.64522" lon="2.87719">
        <ele>1142.619836</ele>
        <time>2021-07-06T13:01:59+0200</time>
      </trkpt>
      <trkpt lat="45.64519" lon="2.87713">
        <ele>1143.444239</ele>
        <time>2021-07-06T13:02:02+0200</time>
      </trkpt>
      <trkpt lat="45.64517" lon="2.87707">
        <ele>1143.964588</ele>
        <time>2021-07-06T13:02:06+0200</time>
      </trkpt>
      <trkpt lat="45.64516" lon="2.877">
        <ele>1144.572816</ele>
        <time>2021-07-06T13:02:10+0200</time>
      </trkpt>
      <trkpt lat="45.64514" lon="2.87692">
        <ele>1147.754612</ele>
        <time>2021-07-06T13:02:14+0200</time>
      </trkpt>
      <trkpt lat="45.64514" lon="2.87684">
        <ele>1148.003512</ele>
        <time>2021-07-06T13:02:18+0200</time>
      </trkpt>
      <trkpt lat="45.64512" lon="2.87677">
        <ele>1146.792414</ele>
        <time>2021-07-06T13:02:21+0200</time>
      </trkpt>
      <trkpt lat="45.64514" lon="2.8767">
        <ele>1148.68002</ele>
        <time>2021-07-06T13:02:23+0200</time>
      </trkpt>
      <trkpt lat="45.64513" lon="2.87662">
        <ele>1149.314853</ele>
        <time>2021-07-06T13:02:26+0200</time>
      </trkpt>
      <trkpt lat="45.64512" lon="2.87652">
        <ele>1148.794276</ele>
        <time>2021-07-06T13:02:29+0200</time>
      </trkpt>
      <trkpt lat="45.64512" lon="2.87645">
        <ele>1148.575849</ele>
        <time>2021-07-06T13:02:32+0200</time>
      </trkpt>
      <trkpt lat="45.64514" lon="2.87639">
        <ele>1150.719583</ele>
        <time>2021-07-06T13:02:36+0200</time>
      </trkpt>
      <trkpt lat="45.64516" lon="2.87632">
        <ele>1152.580282</ele>
        <time>2021-07-06T13:02:40+0200</time>
      </trkpt>
      <trkpt lat="45.64519" lon="2.87627">
        <ele>1153.939843</ele>
        <time>2021-07-06T13:02:43+0200</time>
      </trkpt>
      <trkpt lat="45.64523" lon="2.87619">
        <ele>1158.062591</ele>
        <time>2021-07-06T13:02:48+0200</time>
      </trkpt>
      <trkpt lat="45.64518" lon="2.87615">
        <ele>1156.575765</ele>
        <time>2021-07-06T13:02:51+0200</time>
      </trkpt>
      <trkpt lat="45.64516" lon="2.87608">
        <ele>1157.274065</ele>
        <time>2021-07-06T13:02:55+0200</time>
      </trkpt>
      <trkpt lat="45.64516" lon="2.876">
        <ele>1154.046597</ele>
        <time>2021-07-06T13:02:59+0200</time>
      </trkpt>
      <trkpt lat="45.64515" lon="2.87593">
        <ele>1154.292467</ele>
        <time>2021-07-06T13:03:02+0200</time>
      </trkpt>
      <trkpt lat="45.64515" lon="2.87585">
        <ele>1156.259664</ele>
        <time>2021-07-06T13:03:05+0200</time>
      </trkpt>
      <trkpt lat="45.64516" lon="2.87577">
        <ele>1158.181621</ele>
        <time>2021-07-06T13:03:09+0200</time>
      </trkpt>
      <trkpt lat="45.64516" lon="2.8757">
        <ele>1158.28669</ele>
        <time>2021-07-06T13:03:12+0200</time>
      </trkpt>
      <trkpt lat="45.64516" lon="2.87562">
        <ele>1156.703867</ele>
        <time>2021-07-06T13:03:15+0200</time>
      </trkpt>
      <trkpt lat="45.64516" lon="2.87554">
        <ele>1155.735458</ele>
        <time>2021-07-06T13:03:18+0200</time>
      </trkpt>
      <trkpt lat="45.64515" lon="2.87547">
        <ele>1155.51311</ele>
        <time>2021-07-06T13:03:21+0200</time>
      </trkpt>
      <trkpt lat="45.64516" lon="2.8754">
        <ele>1158.878843</ele>
        <time>2021-07-06T13:03:25+0200</time>
      </trkpt>
      <trkpt lat="45.64517" lon="2.8753">
        <ele>1161.269865</ele>
        <time>2021-07-06T13:03:31+0200</time>
      </trkpt>
      <trkpt lat="45.64518" lon="2.87522">
        <ele>1159.90651</ele>
        <time>2021-07-06T13:03:33+0200</time>
      </trkpt>
      <trkpt lat="45.6452" lon="2.87515">
        <ele>1158.018945</ele>
        <time>2021-07-06T13:03:36+0200</time>
      </trkpt>
      <trkpt lat="45.64521" lon="2.87507">
        <ele>1160.248151</ele>
        <time>2021-07-06T13:03:42+0200</time>
      </trkpt>
      <trkpt lat="45.64522" lon="2.875">
        <ele>1159.678863</ele>
        <time>2021-07-06T13:03:46+0200</time>
      </trkpt>
      <trkpt lat="45.64523" lon="2.87493">
        <ele>1158.237787</ele>
        <time>2021-07-06T13:03:49+0200</time>
      </trkpt>
      <trkpt lat="45.64524" lon="2.87485">
        <ele>1159.921386</ele>
        <time>2021-07-06T13:03:54+0200</time>
      </trkpt>
      <trkpt lat="45.64525" lon="2.87478">
        <ele>1162.458276</ele>
        <time>2021-07-06T13:03:59+0200</time>
      </trkpt>
      <trkpt lat="45.64526" lon="2.87471">
        <ele>1163.12489</ele>
        <time>2021-07-06T13:04:03+0200</time>
      </trkpt>
      <trkpt lat="45.64528" lon="2.87465">
        <ele>1163.999416</ele>
        <time>2021-07-06T13:04:07+0200</time>
      </trkpt>
      <trkpt lat="45.64528" lon="2.87456">
        <ele>1163.426735</ele>
        <time>2021-07-06T13:04:12+0200</time>
      </trkpt>
      <trkpt lat="45.64529" lon="2.87449">
        <ele>1162.938978</ele>
        <time>2021-07-06T13:04:16+0200</time>
      </trkpt>
      <trkpt lat="45.6453" lon="2.87442">
        <ele>1164.800851</ele>
        <time>2021-07-06T13:04:21+0200</time>
      </trkpt>
      <trkpt lat="45.6453" lon="2.87436">
        <ele>1165.929806</ele>
        <time>2021-07-06T13:04:24+0200</time>
      </trkpt>
      <trkpt lat="45.6453" lon="2.87428">
        <ele>1165.194706</ele>
        <time>2021-07-06T13:04:28+0200</time>
      </trkpt>
      <trkpt lat="45.64528" lon="2.87422">
        <ele>1166.433568</ele>
        <time>2021-07-06T13:04:33+0200</time>
      </trkpt>
      <trkpt lat="45.64526" lon="2.87416">
        <ele>1168.167687</ele>
        <time>2021-07-06T13:04:36+0200</time>
      </trkpt>
      <trkpt lat="45.64525" lon="2.87408">
        <ele>1166.930318</ele>
        <time>2021-07-06T13:04:41+0200</time>
      </trkpt>
      <trkpt lat="45.64524" lon="2.874">
        <ele>1166.860372</ele>
        <time>2021-07-06T13:04:45+0200</time>
      </trkpt>
      <trkpt lat="45.64524" lon="2.87394">
        <ele>1169.504419</ele>
        <time>2021-07-06T13:04:47+0200</time>
      </trkpt>
      <trkpt lat="45.64524" lon="2.87387">
        <ele>1171.870087</ele>
        <time>2021-07-06T13:04:51+0200</time>
      </trkpt>
      <trkpt lat="45.64523" lon="2.87379">
        <ele>1171.347325</ele>
        <time>2021-07-06T13:04:56+0200</time>
      </trkpt>
      <trkpt lat="45.6452" lon="2.87372">
        <ele>1170.927229</ele>
        <time>2021-07-06T13:05:00+0200</time>
      </trkpt>
      <trkpt lat="45.64519" lon="2.87366">
        <ele>1171.78591</ele>
        <time>2021-07-06T13:05:03+0200</time>
      </trkpt>
      <trkpt lat="45.64517" lon="2.87358">
        <ele>1172.129326</ele>
        <time>2021-07-06T13:05:06+0200</time>
      </trkpt>
      <trkpt lat="45.64516" lon="2.87351">
        <ele>1173.778483</ele>
        <time>2021-07-06T13:05:10+0200</time>
      </trkpt>
      <trkpt lat="45.64515" lon="2.87343">
        <ele>1172.098911</ele>
        <time>2021-07-06T13:05:14+0200</time>
      </trkpt>
      <trkpt lat="45.64515" lon="2.87336">
        <ele>1169.675166</ele>
        <time>2021-07-06T13:05:17+0200</time>
      </trkpt>
      <trkpt lat="45.64511" lon="2.87329">
        <ele>1169.905133</ele>
        <time>2021-07-06T13:05:20+0200</time>
      </trkpt>
      <trkpt lat="45.6451" lon="2.87323">
        <ele>1168.610985</ele>
        <time>2021-07-06T13:05:23+0200</time>
      </trkpt>
      <trkpt lat="45.64507" lon="2.87317">
        <ele>1167.341893</ele>
        <time>2021-07-06T13:05:26+0200</time>
      </trkpt>
      <trkpt lat="45.64506" lon="2.8731">
        <ele>1165.947094</ele>
        <time>2021-07-06T13:05:29+0200</time>
      </trkpt>
      <trkpt lat="45.64505" lon="2.87303">
        <ele>1167.126485</ele>
        <time>2021-07-06T13:05:32+0200</time>
      </trkpt>
      <trkpt lat="45.64504" lon="2.87296">
        <ele>1168.167844</ele>
        <time>2021-07-06T13:05:34+0200</time>
      </trkpt>
      <trkpt lat="45.64504" lon="2.87289">
        <ele>1168.919405</ele>
        <time>2021-07-06T13:05:37+0200</time>
      </trkpt>
      <trkpt lat="45.64502" lon="2.87283">
        <ele>1169.157071</ele>
        <time>2021-07-06T13:05:40+0200</time>
      </trkpt>
      <trkpt lat="45.64501" lon="2.87274">
        <ele>1171.363127</ele>
        <time>2021-07-06T13:05:43+0200</time>
      </trkpt>
      <trkpt lat="45.645" lon="2.87267">
        <ele>1171.047652</ele>
        <time>2021-07-06T13:05:46+0200</time>
      </trkpt>
      <trkpt lat="45.64499" lon="2.87258">
        <ele>1169.94543</ele>
        <time>2021-07-06T13:05:49+0200</time>
      </trkpt>
      <trkpt lat="45.64498" lon="2.87251">
        <ele>1167.579424</ele>
        <time>2021-07-06T13:05:51+0200</time>
      </trkpt>
      <trkpt lat="45.64496" lon="2.87244">
        <ele>1165.679371</ele>
        <time>2021-07-06T13:05:53+0200</time>
      </trkpt>
      <trkpt lat="45.64494" lon="2.87237">
        <ele>1165.090612</ele>
        <time>2021-07-06T13:05:55+0200</time>
      </trkpt>
      <trkpt lat="45.64493" lon="2.8723">
        <ele>1167.43609</ele>
        <time>2021-07-06T13:05:58+0200</time>
      </trkpt>
      <trkpt lat="45.64495" lon="2.87223">
        <ele>1170.274714</ele>
        <time>2021-07-06T13:06:01+0200</time>
      </trkpt>
      <trkpt lat="45.64496" lon="2.87216">
        <ele>1169.93459</ele>
        <time>2021-07-06T13:06:03+0200</time>
      </trkpt>
      <trkpt lat="45.64498" lon="2.87209">
        <ele>1172.099496</ele>
        <time>2021-07-06T13:06:06+0200</time>
      </trkpt>
      <trkpt lat="45.64501" lon="2.87202">
        <ele>1173.208178</ele>
        <time>2021-07-06T13:06:09+0200</time>
      </trkpt>
      <trkpt lat="45.64507" lon="2.87199">
        <ele>1175.626143</ele>
        <time>2021-07-06T13:06:13+0200</time>
      </trkpt>
      <trkpt lat="45.64511" lon="2.87196">
        <ele>1177.414448</ele>
        <time>2021-07-06T13:06:16+0200</time>
      </trkpt>
      <trkpt lat="45.64514" lon="2.87191">
        <ele>1178.385137</ele>
        <time>2021-07-06T13:06:19+0200</time>
      </trkpt>
      <trkpt lat="45.64514" lon="2.87184">
        <ele>1178.353364</ele>
        <time>2021-07-06T13:06:22+0200</time>
      </trkpt>
      <trkpt lat="45.64512" lon="2.87178">
        <ele>1176.449229</ele>
        <time>2021-07-06T13:06:24+0200</time>
      </trkpt>
      <trkpt lat="45.64512" lon="2.8717">
        <ele>1176.214426</ele>
        <time>2021-07-06T13:06:27+0200</time>
      </trkpt>
      <trkpt lat="45.64513" lon="2.87164">
        <ele>1175.943855</ele>
        <time>2021-07-06T13:06:30+0200</time>
      </trkpt>
      <trkpt lat="45.64514" lon="2.87157">
        <ele>1177.362283</ele>
        <time>2021-07-06T13:06:33+0200</time>
      </trkpt>
      <trkpt lat="45.64515" lon="2.8715">
        <ele>1177.496851</ele>
        <time>2021-07-06T13:06:36+0200</time>
      </trkpt>
      <trkpt lat="45.64516" lon="2.87142">
        <ele>1177.557115</ele>
        <time>2021-07-06T13:06:39+0200</time>
      </trkpt>
      <trkpt lat="45.64517" lon="2.87134">
        <ele>1177.389881</ele>
        <time>2021-07-06T13:06:42+0200</time>
      </trkpt>
      <trkpt lat="45.64519" lon="2.87128">
        <ele>1177.216764</ele>
        <time>2021-07-06T13:06:44+0200</time>
      </trkpt>
      <trkpt lat="45.64523" lon="2.8712">
        <ele>1177.814835</ele>
        <time>2021-07-06T13:06:47+0200</time>
      </trkpt>
      <trkpt lat="45.64527" lon="2.87116">
        <ele>1176.708075</ele>
        <time>2021-07-06T13:06:49+0200</time>
      </trkpt>
      <trkpt lat="45.64531" lon="2.87112">
        <ele>1176.09544</ele>
        <time>2021-07-06T13:06:51+0200</time>
      </trkpt>
      <trkpt lat="45.64536" lon="2.87111">
        <ele>1176.398555</ele>
        <time>2021-07-06T13:06:54+0200</time>
      </trkpt>
      <trkpt lat="45.64541" lon="2.87111">
        <ele>1177.246618</ele>
        <time>2021-07-06T13:06:57+0200</time>
      </trkpt>
      <trkpt lat="45.64545" lon="2.87107">
        <ele>1177.749464</ele>
        <time>2021-07-06T13:06:59+0200</time>
      </trkpt>
      <trkpt lat="45.64546" lon="2.871">
        <ele>1178.280049</ele>
        <time>2021-07-06T13:07:02+0200</time>
      </trkpt>
      <trkpt lat="45.64545" lon="2.87092">
        <ele>1179.169884</ele>
        <time>2021-07-06T13:07:05+0200</time>
      </trkpt>
      <trkpt lat="45.64549" lon="2.87086">
        <ele>1177.30809</ele>
        <time>2021-07-06T13:07:07+0200</time>
      </trkpt>
      <trkpt lat="45.64553" lon="2.87082">
        <ele>1176.708875</ele>
        <time>2021-07-06T13:07:09+0200</time>
      </trkpt>
      <trkpt lat="45.64557" lon="2.87075">
        <ele>1176.093318</ele>
        <time>2021-07-06T13:07:12+0200</time>
      </trkpt>
      <trkpt lat="45.64559" lon="2.87068">
        <ele>1175.238171</ele>
        <time>2021-07-06T13:07:15+0200</time>
      </trkpt>
      <trkpt lat="45.64558" lon="2.87061">
        <ele>1176.796968</ele>
        <time>2021-07-06T13:07:18+0200</time>
      </trkpt>
      <trkpt lat="45.64561" lon="2.87055">
        <ele>1177.343265</ele>
        <time>2021-07-06T13:07:20+0200</time>
      </trkpt>
      <trkpt lat="45.64563" lon="2.87049">
        <ele>1177.645014</ele>
        <time>2021-07-06T13:07:23+0200</time>
      </trkpt>
      <trkpt lat="45.64563" lon="2.8704">
        <ele>1177.695114</ele>
        <time>2021-07-06T13:07:27+0200</time>
      </trkpt>
      <trkpt lat="45.64565" lon="2.87034">
        <ele>1178.055453</ele>
        <time>2021-07-06T13:07:29+0200</time>
      </trkpt>
      <trkpt lat="45.64567" lon="2.87027">
        <ele>1178.735415</ele>
        <time>2021-07-06T13:07:32+0200</time>
      </trkpt>
      <trkpt lat="45.64569" lon="2.8702">
        <ele>1178.754016</ele>
        <time>2021-07-06T13:07:34+0200</time>
      </trkpt>
      <trkpt lat="45.64573" lon="2.87013">
        <ele>1177.86963</ele>
        <time>2021-07-06T13:07:36+0200</time>
      </trkpt>
      <trkpt lat="45.64577" lon="2.87007">
        <ele>1177.20406</ele>
        <time>2021-07-06T13:07:39+0200</time>
      </trkpt>
      <trkpt lat="45.6458" lon="2.87001">
        <ele>1176.806557</ele>
        <time>2021-07-06T13:07:42+0200</time>
      </trkpt>
      <trkpt lat="45.64575" lon="2.87001">
        <ele>1177.752951</ele>
        <time>2021-07-06T13:07:54+0200</time>
      </trkpt>
      <trkpt lat="45.6458" lon="2.87">
        <ele>1176.091164</ele>
        <time>2021-07-06T13:08:09+0200</time>
      </trkpt>
      <trkpt lat="45.64583" lon="2.86996">
        <ele>1176.555969</ele>
        <time>2021-07-06T13:08:12+0200</time>
      </trkpt>
      <trkpt lat="45.64589" lon="2.8699">
        <ele>1176.70404</ele>
        <time>2021-07-06T13:08:15+0200</time>
      </trkpt>
      <trkpt lat="45.64593" lon="2.86986">
        <ele>1176.176776</ele>
        <time>2021-07-06T13:08:17+0200</time>
      </trkpt>
      <trkpt lat="45.64598" lon="2.8698">
        <ele>1177.073771</ele>
        <time>2021-07-06T13:08:20+0200</time>
      </trkpt>
      <trkpt lat="45.64603" lon="2.86974">
        <ele>1177.118845</ele>
        <time>2021-07-06T13:08:23+0200</time>
      </trkpt>
      <trkpt lat="45.64606" lon="2.86969">
        <ele>1176.804064</ele>
        <time>2021-07-06T13:08:25+0200</time>
      </trkpt>
      <trkpt lat="45.64611" lon="2.86964">
        <ele>1175.668975</ele>
        <time>2021-07-06T13:08:27+0200</time>
      </trkpt>
      <trkpt lat="45.64616" lon="2.86959">
        <ele>1176.088903</ele>
        <time>2021-07-06T13:08:29+0200</time>
      </trkpt>
      <trkpt lat="45.64621" lon="2.86954">
        <ele>1176.195015</ele>
        <time>2021-07-06T13:08:31+0200</time>
      </trkpt>
      <trkpt lat="45.64624" lon="2.86949">
        <ele>1176.113449</ele>
        <time>2021-07-06T13:08:33+0200</time>
      </trkpt>
      <trkpt lat="45.64631" lon="2.86944">
        <ele>1174.716489</ele>
        <time>2021-07-06T13:08:35+0200</time>
      </trkpt>
      <trkpt lat="45.64635" lon="2.86936">
        <ele>1175.185384</ele>
        <time>2021-07-06T13:08:37+0200</time>
      </trkpt>
      <trkpt lat="45.6464" lon="2.86928">
        <ele>1174.468545</ele>
        <time>2021-07-06T13:08:39+0200</time>
      </trkpt>
      <trkpt lat="45.64645" lon="2.8692">
        <ele>1174.357838</ele>
        <time>2021-07-06T13:08:41+0200</time>
      </trkpt>
      <trkpt lat="45.6465" lon="2.86913">
        <ele>1173.915425</ele>
        <time>2021-07-06T13:08:43+0200</time>
      </trkpt>
      <trkpt lat="45.64654" lon="2.86906">
        <ele>1173.212795</ele>
        <time>2021-07-06T13:08:45+0200</time>
      </trkpt>
      <trkpt lat="45.64657" lon="2.86898">
        <ele>1173.007184</ele>
        <time>2021-07-06T13:08:47+0200</time>
      </trkpt>
      <trkpt lat="45.6466" lon="2.86889">
        <ele>1172.449531</ele>
        <time>2021-07-06T13:08:49+0200</time>
      </trkpt>
      <trkpt lat="45.64663" lon="2.86882">
        <ele>1172.781649</ele>
        <time>2021-07-06T13:08:51+0200</time>
      </trkpt>
      <trkpt lat="45.64667" lon="2.86874">
        <ele>1173.166345</ele>
        <time>2021-07-06T13:08:53+0200</time>
      </trkpt>
      <trkpt lat="45.64671" lon="2.86865">
        <ele>1172.98746</ele>
        <time>2021-07-06T13:08:55+0200</time>
      </trkpt>
      <trkpt lat="45.64675" lon="2.86857">
        <ele>1173.015004</ele>
        <time>2021-07-06T13:08:57+0200</time>
      </trkpt>
      <trkpt lat="45.64678" lon="2.86849">
        <ele>1173.315432</ele>
        <time>2021-07-06T13:08:59+0200</time>
      </trkpt>
      <trkpt lat="45.6468" lon="2.8684">
        <ele>1173.890791</ele>
        <time>2021-07-06T13:09:01+0200</time>
      </trkpt>
      <trkpt lat="45.64683" lon="2.86831">
        <ele>1173.820827</ele>
        <time>2021-07-06T13:09:03+0200</time>
      </trkpt>
      <trkpt lat="45.64685" lon="2.8682">
        <ele>1174.044391</ele>
        <time>2021-07-06T13:09:05+0200</time>
      </trkpt>
      <trkpt lat="45.64687" lon="2.8681">
        <ele>1174.804951</ele>
        <time>2021-07-06T13:09:07+0200</time>
      </trkpt>
      <trkpt lat="45.64689" lon="2.86801">
        <ele>1174.878155</ele>
        <time>2021-07-06T13:09:09+0200</time>
      </trkpt>
      <trkpt lat="45.64692" lon="2.86792">
        <ele>1175.543007</ele>
        <time>2021-07-06T13:09:11+0200</time>
      </trkpt>
      <trkpt lat="45.64693" lon="2.86784">
        <ele>1176.133304</ele>
        <time>2021-07-06T13:09:13+0200</time>
      </trkpt>
      <trkpt lat="45.64695" lon="2.86775">
        <ele>1175.605108</ele>
        <time>2021-07-06T13:09:15+0200</time>
      </trkpt>
      <trkpt lat="45.64697" lon="2.86766">
        <ele>1175.550217</ele>
        <time>2021-07-06T13:09:17+0200</time>
      </trkpt>
      <trkpt lat="45.647" lon="2.86759">
        <ele>1176.672514</ele>
        <time>2021-07-06T13:09:19+0200</time>
      </trkpt>
      <trkpt lat="45.64703" lon="2.86752">
        <ele>1175.923441</ele>
        <time>2021-07-06T13:09:21+0200</time>
      </trkpt>
      <trkpt lat="45.64706" lon="2.86743">
        <ele>1177.348646</ele>
        <time>2021-07-06T13:09:23+0200</time>
      </trkpt>
      <trkpt lat="45.64706" lon="2.86734">
        <ele>1177.628125</ele>
        <time>2021-07-06T13:09:25+0200</time>
      </trkpt>
      <trkpt lat="45.64704" lon="2.86724">
        <ele>1177.667084</ele>
        <time>2021-07-06T13:09:27+0200</time>
      </trkpt>
      <trkpt lat="45.64706" lon="2.86715">
        <ele>1177.765766</ele>
        <time>2021-07-06T13:09:29+0200</time>
      </trkpt>
      <trkpt lat="45.64709" lon="2.86706">
        <ele>1177.989388</ele>
        <time>2021-07-06T13:09:31+0200</time>
      </trkpt>
      <trkpt lat="45.64713" lon="2.86698">
        <ele>1177.670378</ele>
        <time>2021-07-06T13:09:33+0200</time>
      </trkpt>
      <trkpt lat="45.64713" lon="2.86689">
        <ele>1177.210321</ele>
        <time>2021-07-06T13:09:35+0200</time>
      </trkpt>
      <trkpt lat="45.64714" lon="2.86681">
        <ele>1177.254109</ele>
        <time>2021-07-06T13:09:37+0200</time>
      </trkpt>
      <trkpt lat="45.64716" lon="2.86672">
        <ele>1177.431829</ele>
        <time>2021-07-06T13:09:39+0200</time>
      </trkpt>
      <trkpt lat="45.64718" lon="2.86664">
        <ele>1177.394117</ele>
        <time>2021-07-06T13:09:41+0200</time>
      </trkpt>
      <trkpt lat="45.6472" lon="2.86657">
        <ele>1177.199714</ele>
        <time>2021-07-06T13:09:43+0200</time>
      </trkpt>
      <trkpt lat="45.64721" lon="2.86649">
        <ele>1177.74931</ele>
        <time>2021-07-06T13:09:45+0200</time>
      </trkpt>
      <trkpt lat="45.64723" lon="2.86642">
        <ele>1176.798505</ele>
        <time>2021-07-06T13:09:47+0200</time>
      </trkpt>
      <trkpt lat="45.64725" lon="2.86636">
        <ele>1176.877894</ele>
        <time>2021-07-06T13:09:49+0200</time>
      </trkpt>
      <trkpt lat="45.64728" lon="2.86629">
        <ele>1177.140925</ele>
        <time>2021-07-06T13:09:51+0200</time>
      </trkpt>
      <trkpt lat="45.64728" lon="2.86622">
        <ele>1177.797793</ele>
        <time>2021-07-06T13:09:54+0200</time>
      </trkpt>
      <trkpt lat="45.64728" lon="2.86616">
        <ele>1177.823867</ele>
        <time>2021-07-06T13:09:56+0200</time>
      </trkpt>
      <trkpt lat="45.64726" lon="2.86609">
        <ele>1177.861628</ele>
        <time>2021-07-06T13:09:58+0200</time>
      </trkpt>
      <trkpt lat="45.64726" lon="2.86601">
        <ele>1177.810302</ele>
        <time>2021-07-06T13:10:00+0200</time>
      </trkpt>
      <trkpt lat="45.64726" lon="2.86594">
        <ele>1178.523267</ele>
        <time>2021-07-06T13:10:02+0200</time>
      </trkpt>
      <trkpt lat="45.64726" lon="2.86587">
        <ele>1178.330517</ele>
        <time>2021-07-06T13:10:04+0200</time>
      </trkpt>
      <trkpt lat="45.64725" lon="2.8658">
        <ele>1178.695327</ele>
        <time>2021-07-06T13:10:06+0200</time>
      </trkpt>
      <trkpt lat="45.64724" lon="2.8657">
        <ele>1179.129849</ele>
        <time>2021-07-06T13:10:09+0200</time>
      </trkpt>
      <trkpt lat="45.64725" lon="2.86563">
        <ele>1179.745696</ele>
        <time>2021-07-06T13:10:11+0200</time>
      </trkpt>
      <trkpt lat="45.64725" lon="2.86557">
        <ele>1180.321348</ele>
        <time>2021-07-06T13:10:13+0200</time>
      </trkpt>
      <trkpt lat="45.64725" lon="2.86548">
        <ele>1181.454296</ele>
        <time>2021-07-06T13:10:16+0200</time>
      </trkpt>
      <trkpt lat="45.64724" lon="2.86541">
        <ele>1181.821186</ele>
        <time>2021-07-06T13:10:18+0200</time>
      </trkpt>
      <trkpt lat="45.64722" lon="2.86533">
        <ele>1183.007466</ele>
        <time>2021-07-06T13:10:21+0200</time>
      </trkpt>
      <trkpt lat="45.64722" lon="2.86523">
        <ele>1184.049075</ele>
        <time>2021-07-06T13:10:24+0200</time>
      </trkpt>
      <trkpt lat="45.64723" lon="2.86513">
        <ele>1184.726719</ele>
        <time>2021-07-06T13:10:27+0200</time>
      </trkpt>
      <trkpt lat="45.64722" lon="2.86507">
        <ele>1184.44982</ele>
        <time>2021-07-06T13:10:29+0200</time>
      </trkpt>
      <trkpt lat="45.64722" lon="2.86497">
        <ele>1185.685122</ele>
        <time>2021-07-06T13:10:32+0200</time>
      </trkpt>
      <trkpt lat="45.64723" lon="2.8649">
        <ele>1186.679407</ele>
        <time>2021-07-06T13:10:35+0200</time>
      </trkpt>
      <trkpt lat="45.64724" lon="2.86481">
        <ele>1187.885557</ele>
        <time>2021-07-06T13:10:38+0200</time>
      </trkpt>
      <trkpt lat="45.64723" lon="2.86473">
        <ele>1190.288609</ele>
        <time>2021-07-06T13:10:41+0200</time>
      </trkpt>
      <trkpt lat="45.64724" lon="2.86465">
        <ele>1191.408396</ele>
        <time>2021-07-06T13:10:44+0200</time>
      </trkpt>
      <trkpt lat="45.64725" lon="2.86458">
        <ele>1190.873401</ele>
        <time>2021-07-06T13:10:46+0200</time>
      </trkpt>
      <trkpt lat="45.64725" lon="2.86448">
        <ele>1190.420495</ele>
        <time>2021-07-06T13:10:49+0200</time>
      </trkpt>
      <trkpt lat="45.64726" lon="2.86441">
        <ele>1190.57735</ele>
        <time>2021-07-06T13:10:51+0200</time>
      </trkpt>
      <trkpt lat="45.64727" lon="2.86433">
        <ele>1191.562222</ele>
        <time>2021-07-06T13:10:54+0200</time>
      </trkpt>
      <trkpt lat="45.64726" lon="2.86427">
        <ele>1193.427948</ele>
        <time>2021-07-06T13:10:57+0200</time>
      </trkpt>
      <trkpt lat="45.64727" lon="2.8642">
        <ele>1192.803673</ele>
        <time>2021-07-06T13:10:59+0200</time>
      </trkpt>
      <trkpt lat="45.64729" lon="2.86412">
        <ele>1193.474401</ele>
        <time>2021-07-06T13:11:02+0200</time>
      </trkpt>
      <trkpt lat="45.6473" lon="2.86405">
        <ele>1195.22818</ele>
        <time>2021-07-06T13:11:05+0200</time>
      </trkpt>
      <trkpt lat="45.64731" lon="2.86397">
        <ele>1195.711953</ele>
        <time>2021-07-06T13:11:08+0200</time>
      </trkpt>
      <trkpt lat="45.64732" lon="2.86388">
        <ele>1196.157372</ele>
        <time>2021-07-06T13:11:11+0200</time>
      </trkpt>
      <trkpt lat="45.64733" lon="2.86379">
        <ele>1196.705574</ele>
        <time>2021-07-06T13:11:14+0200</time>
      </trkpt>
      <trkpt lat="45.64735" lon="2.86372">
        <ele>1196.496309</ele>
        <time>2021-07-06T13:11:17+0200</time>
      </trkpt>
      <trkpt lat="45.64736" lon="2.86364">
        <ele>1197.202322</ele>
        <time>2021-07-06T13:11:21+0200</time>
      </trkpt>
      <trkpt lat="45.64736" lon="2.86356">
        <ele>1197.655264</ele>
        <time>2021-07-06T13:11:24+0200</time>
      </trkpt>
      <trkpt lat="45.64736" lon="2.8635">
        <ele>1197.942168</ele>
        <time>2021-07-06T13:11:27+0200</time>
      </trkpt>
      <trkpt lat="45.64735" lon="2.8634">
        <ele>1198.247034</ele>
        <time>2021-07-06T13:11:31+0200</time>
      </trkpt>
      <trkpt lat="45.64736" lon="2.86333">
        <ele>1198.49009</ele>
        <time>2021-07-06T13:11:34+0200</time>
      </trkpt>
      <trkpt lat="45.64736" lon="2.86324">
        <ele>1199.093667</ele>
        <time>2021-07-06T13:11:38+0200</time>
      </trkpt>
      <trkpt lat="45.64736" lon="2.86316">
        <ele>1199.277978</ele>
        <time>2021-07-06T13:11:41+0200</time>
      </trkpt>
      <trkpt lat="45.64735" lon="2.86308">
        <ele>1199.922747</ele>
        <time>2021-07-06T13:11:45+0200</time>
      </trkpt>
      <trkpt lat="45.64734" lon="2.86301">
        <ele>1201.946093</ele>
        <time>2021-07-06T13:11:49+0200</time>
      </trkpt>
      <trkpt lat="45.64734" lon="2.86293">
        <ele>1202.362224</ele>
        <time>2021-07-06T13:11:53+0200</time>
      </trkpt>
      <trkpt lat="45.64735" lon="2.86285">
        <ele>1203.436194</ele>
        <time>2021-07-06T13:11:57+0200</time>
      </trkpt>
      <trkpt lat="45.64735" lon="2.86277">
        <ele>1205.677713</ele>
        <time>2021-07-06T13:12:01+0200</time>
      </trkpt>
      <trkpt lat="45.64734" lon="2.8627">
        <ele>1204.665143</ele>
        <time>2021-07-06T13:12:04+0200</time>
      </trkpt>
      <trkpt lat="45.64733" lon="2.86263">
        <ele>1207.237309</ele>
        <time>2021-07-06T13:12:09+0200</time>
      </trkpt>
      <trkpt lat="45.64736" lon="2.86258">
        <ele>1207.302465</ele>
        <time>2021-07-06T13:12:12+0200</time>
      </trkpt>
      <trkpt lat="45.64734" lon="2.8625">
        <ele>1206.318798</ele>
        <time>2021-07-06T13:12:16+0200</time>
      </trkpt>
      <trkpt lat="45.64738" lon="2.86243">
        <ele>1206.217607</ele>
        <time>2021-07-06T13:13:47+0200</time>
      </trkpt>
      <trkpt lat="45.64737" lon="2.86235">
        <ele>1205.681216</ele>
        <time>2021-07-06T13:13:50+0200</time>
      </trkpt>
      <trkpt lat="45.64738" lon="2.86229">
        <ele>1205.271942</ele>
        <time>2021-07-06T13:13:52+0200</time>
      </trkpt>
      <trkpt lat="45.64738" lon="2.86221">
        <ele>1205.911067</ele>
        <time>2021-07-06T13:13:55+0200</time>
      </trkpt>
      <trkpt lat="45.64739" lon="2.86214">
        <ele>1206.671744</ele>
        <time>2021-07-06T13:13:57+0200</time>
      </trkpt>
      <trkpt lat="45.6474" lon="2.86208">
        <ele>1207.132272</ele>
        <time>2021-07-06T13:13:59+0200</time>
      </trkpt>
      <trkpt lat="45.64742" lon="2.86198">
        <ele>1207.875988</ele>
        <time>2021-07-06T13:14:02+0200</time>
      </trkpt>
      <trkpt lat="45.64743" lon="2.8619">
        <ele>1208.456167</ele>
        <time>2021-07-06T13:14:04+0200</time>
      </trkpt>
      <trkpt lat="45.64745" lon="2.86182">
        <ele>1208.204075</ele>
        <time>2021-07-06T13:14:06+0200</time>
      </trkpt>
      <trkpt lat="45.64746" lon="2.86175">
        <ele>1208.587681</ele>
        <time>2021-07-06T13:14:08+0200</time>
      </trkpt>
      <trkpt lat="45.64747" lon="2.86168">
        <ele>1209.357627</ele>
        <time>2021-07-06T13:14:10+0200</time>
      </trkpt>
      <trkpt lat="45.64748" lon="2.8616">
        <ele>1209.972896</ele>
        <time>2021-07-06T13:14:12+0200</time>
      </trkpt>
      <trkpt lat="45.64751" lon="2.86152">
        <ele>1209.904809</ele>
        <time>2021-07-06T13:14:14+0200</time>
      </trkpt>
      <trkpt lat="45.64752" lon="2.86143">
        <ele>1209.810084</ele>
        <time>2021-07-06T13:14:16+0200</time>
      </trkpt>
      <trkpt lat="45.64753" lon="2.86132">
        <ele>1209.297792</ele>
        <time>2021-07-06T13:14:18+0200</time>
      </trkpt>
      <trkpt lat="45.64755" lon="2.86122">
        <ele>1208.852889</ele>
        <time>2021-07-06T13:14:20+0200</time>
      </trkpt>
      <trkpt lat="45.64758" lon="2.8611">
        <ele>1208.324534</ele>
        <time>2021-07-06T13:14:22+0200</time>
      </trkpt>
      <trkpt lat="45.6476" lon="2.86104">
        <ele>1208.192477</ele>
        <time>2021-07-06T13:14:23+0200</time>
      </trkpt>
      <trkpt lat="45.64761" lon="2.86091">
        <ele>1207.671817</ele>
        <time>2021-07-06T13:14:25+0200</time>
      </trkpt>
      <trkpt lat="45.64764" lon="2.86081">
        <ele>1206.995822</ele>
        <time>2021-07-06T13:14:27+0200</time>
      </trkpt>
      <trkpt lat="45.64764" lon="2.86067">
        <ele>1206.368702</ele>
        <time>2021-07-06T13:14:29+0200</time>
      </trkpt>
      <trkpt lat="45.64764" lon="2.86059">
        <ele>1206.883995</ele>
        <time>2021-07-06T13:14:31+0200</time>
      </trkpt>
      <trkpt lat="45.64767" lon="2.8605">
        <ele>1207.2378</ele>
        <time>2021-07-06T13:14:33+0200</time>
      </trkpt>
      <trkpt lat="45.64769" lon="2.86037">
        <ele>1207.86981</ele>
        <time>2021-07-06T13:14:35+0200</time>
      </trkpt>
      <trkpt lat="45.6477" lon="2.8603">
        <ele>1207.470476</ele>
        <time>2021-07-06T13:14:36+0200</time>
      </trkpt>
      <trkpt lat="45.64773" lon="2.86016">
        <ele>1207.230032</ele>
        <time>2021-07-06T13:14:38+0200</time>
      </trkpt>
      <trkpt lat="45.64774" lon="2.86009">
        <ele>1207.207804</ele>
        <time>2021-07-06T13:14:39+0200</time>
      </trkpt>
      <trkpt lat="45.64776" lon="2.86001">
        <ele>1207.386767</ele>
        <time>2021-07-06T13:14:40+0200</time>
      </trkpt>
      <trkpt lat="45.64777" lon="2.85993">
        <ele>1207.889868</ele>
        <time>2021-07-06T13:14:41+0200</time>
      </trkpt>
      <trkpt lat="45.64778" lon="2.85985">
        <ele>1208.242027</ele>
        <time>2021-07-06T13:14:42+0200</time>
      </trkpt>
      <trkpt lat="45.64779" lon="2.85976">
        <ele>1206.843402</ele>
        <time>2021-07-06T13:14:43+0200</time>
      </trkpt>
      <trkpt lat="45.6478" lon="2.85967">
        <ele>1206.023926</ele>
        <time>2021-07-06T13:14:44+0200</time>
      </trkpt>
      <trkpt lat="45.64781" lon="2.85959">
        <ele>1206.264509</ele>
        <time>2021-07-06T13:14:45+0200</time>
      </trkpt>
      <trkpt lat="45.64782" lon="2.85952">
        <ele>1206.587805</ele>
        <time>2021-07-06T13:14:46+0200</time>
      </trkpt>
      <trkpt lat="45.64785" lon="2.85945">
        <ele>1205.976625</ele>
        <time>2021-07-06T13:14:47+0200</time>
      </trkpt>
      <trkpt lat="45.64786" lon="2.85937">
        <ele>1205.881565</ele>
        <time>2021-07-06T13:14:48+0200</time>
      </trkpt>
      <trkpt lat="45.64787" lon="2.8593">
        <ele>1206.090492</ele>
        <time>2021-07-06T13:14:49+0200</time>
      </trkpt>
      <trkpt lat="45.64787" lon="2.85923">
        <ele>1206.106293</ele>
        <time>2021-07-06T13:14:50+0200</time>
      </trkpt>
      <trkpt lat="45.64788" lon="2.85916">
        <ele>1206.084957</ele>
        <time>2021-07-06T13:14:51+0200</time>
      </trkpt>
      <trkpt lat="45.64789" lon="2.85904">
        <ele>1206.552142</ele>
        <time>2021-07-06T13:14:53+0200</time>
      </trkpt>
      <trkpt lat="45.6479" lon="2.85893">
        <ele>1207.923264</ele>
        <time>2021-07-06T13:14:55+0200</time>
      </trkpt>
      <trkpt lat="45.6479" lon="2.85885">
        <ele>1206.555757</ele>
        <time>2021-07-06T13:14:56+0200</time>
      </trkpt>
      <trkpt lat="45.64791" lon="2.85879">
        <ele>1206.523241</ele>
        <time>2021-07-06T13:14:57+0200</time>
      </trkpt>
      <trkpt lat="45.64792" lon="2.85868">
        <ele>1206.752899</ele>
        <time>2021-07-06T13:14:59+0200</time>
      </trkpt>
      <trkpt lat="45.64796" lon="2.85859">
        <ele>1207.589739</ele>
        <time>2021-07-06T13:15:01+0200</time>
      </trkpt>
      <trkpt lat="45.64797" lon="2.85853">
        <ele>1207.456476</ele>
        <time>2021-07-06T13:15:03+0200</time>
      </trkpt>
      <trkpt lat="45.64797" lon="2.85845">
        <ele>1206.946901</ele>
        <time>2021-07-06T13:15:05+0200</time>
      </trkpt>
      <trkpt lat="45.64796" lon="2.85837">
        <ele>1207.28164</ele>
        <time>2021-07-06T13:15:07+0200</time>
      </trkpt>
      <trkpt lat="45.64795" lon="2.85829">
        <ele>1207.070875</ele>
        <time>2021-07-06T13:15:09+0200</time>
      </trkpt>
      <trkpt lat="45.64795" lon="2.85821">
        <ele>1207.275603</ele>
        <time>2021-07-06T13:15:11+0200</time>
      </trkpt>
      <trkpt lat="45.64794" lon="2.85813">
        <ele>1206.929842</ele>
        <time>2021-07-06T13:15:13+0200</time>
      </trkpt>
      <trkpt lat="45.64794" lon="2.85805">
        <ele>1206.819547</ele>
        <time>2021-07-06T13:15:15+0200</time>
      </trkpt>
      <trkpt lat="45.64791" lon="2.85795">
        <ele>1206.17665</ele>
        <time>2021-07-06T13:15:17+0200</time>
      </trkpt>
      <trkpt lat="45.64789" lon="2.85784">
        <ele>1204.382633</ele>
        <time>2021-07-06T13:15:19+0200</time>
      </trkpt>
      <trkpt lat="45.64787" lon="2.85773">
        <ele>1204.22433</ele>
        <time>2021-07-06T13:15:21+0200</time>
      </trkpt>
      <trkpt lat="45.64785" lon="2.85766">
        <ele>1204.912015</ele>
        <time>2021-07-06T13:15:22+0200</time>
      </trkpt>
      <trkpt lat="45.64784" lon="2.85756">
        <ele>1204.46349</ele>
        <time>2021-07-06T13:15:24+0200</time>
      </trkpt>
      <trkpt lat="45.64782" lon="2.85745">
        <ele>1204.563403</ele>
        <time>2021-07-06T13:15:26+0200</time>
      </trkpt>
      <trkpt lat="45.64782" lon="2.85736">
        <ele>1204.630992</ele>
        <time>2021-07-06T13:15:28+0200</time>
      </trkpt>
      <trkpt lat="45.64781" lon="2.85727">
        <ele>1204.829313</ele>
        <time>2021-07-06T13:15:30+0200</time>
      </trkpt>
      <trkpt lat="45.64779" lon="2.85719">
        <ele>1206.278347</ele>
        <time>2021-07-06T13:15:32+0200</time>
      </trkpt>
      <trkpt lat="45.64779" lon="2.85711">
        <ele>1206.816785</ele>
        <time>2021-07-06T13:15:34+0200</time>
      </trkpt>
      <trkpt lat="45.64777" lon="2.85705">
        <ele>1207.293307</ele>
        <time>2021-07-06T13:15:36+0200</time>
      </trkpt>
      <trkpt lat="45.64777" lon="2.85696">
        <ele>1207.325951</ele>
        <time>2021-07-06T13:15:38+0200</time>
      </trkpt>
      <trkpt lat="45.64774" lon="2.85688">
        <ele>1207.199374</ele>
        <time>2021-07-06T13:15:40+0200</time>
      </trkpt>
      <trkpt lat="45.64772" lon="2.85679">
        <ele>1206.191041</ele>
        <time>2021-07-06T13:15:42+0200</time>
      </trkpt>
      <trkpt lat="45.64768" lon="2.8567">
        <ele>1206.626066</ele>
        <time>2021-07-06T13:15:44+0200</time>
      </trkpt>
      <trkpt lat="45.64766" lon="2.85661">
        <ele>1207.29389</ele>
        <time>2021-07-06T13:15:46+0200</time>
      </trkpt>
      <trkpt lat="45.64765" lon="2.8565">
        <ele>1206.564507</ele>
        <time>2021-07-06T13:15:48+0200</time>
      </trkpt>
      <trkpt lat="45.64765" lon="2.85642">
        <ele>1206.812721</ele>
        <time>2021-07-06T13:15:50+0200</time>
      </trkpt>
      <trkpt lat="45.64763" lon="2.85633">
        <ele>1205.543939</ele>
        <time>2021-07-06T13:15:52+0200</time>
      </trkpt>
      <trkpt lat="45.64761" lon="2.85621">
        <ele>1206.503222</ele>
        <time>2021-07-06T13:15:54+0200</time>
      </trkpt>
      <trkpt lat="45.6476" lon="2.85614">
        <ele>1207.35323</ele>
        <time>2021-07-06T13:15:55+0200</time>
      </trkpt>
      <trkpt lat="45.64757" lon="2.85601">
        <ele>1207.448269</ele>
        <time>2021-07-06T13:15:57+0200</time>
      </trkpt>
      <trkpt lat="45.64756" lon="2.85593">
        <ele>1207.687325</ele>
        <time>2021-07-06T13:15:59+0200</time>
      </trkpt>
      <trkpt lat="45.64753" lon="2.85583">
        <ele>1207.668608</ele>
        <time>2021-07-06T13:16:01+0200</time>
      </trkpt>
      <trkpt lat="45.64749" lon="2.85572">
        <ele>1207.213865</ele>
        <time>2021-07-06T13:16:03+0200</time>
      </trkpt>
      <trkpt lat="45.64747" lon="2.85564">
        <ele>1208.5427</ele>
        <time>2021-07-06T13:16:05+0200</time>
      </trkpt>
      <trkpt lat="45.64747" lon="2.85552">
        <ele>1207.271374</ele>
        <time>2021-07-06T13:16:07+0200</time>
      </trkpt>
      <trkpt lat="45.64745" lon="2.85542">
        <ele>1206.239422</ele>
        <time>2021-07-06T13:16:09+0200</time>
      </trkpt>
      <trkpt lat="45.64743" lon="2.8553">
        <ele>1205.042553</ele>
        <time>2021-07-06T13:16:11+0200</time>
      </trkpt>
      <trkpt lat="45.64744" lon="2.85519">
        <ele>1204.403502</ele>
        <time>2021-07-06T13:16:13+0200</time>
      </trkpt>
      <trkpt lat="45.64744" lon="2.85507">
        <ele>1206.172428</ele>
        <time>2021-07-06T13:16:15+0200</time>
      </trkpt>
      <trkpt lat="45.64743" lon="2.85498">
        <ele>1207.612024</ele>
        <time>2021-07-06T13:16:17+0200</time>
      </trkpt>
      <trkpt lat="45.64743" lon="2.85491">
        <ele>1206.990678</ele>
        <time>2021-07-06T13:16:18+0200</time>
      </trkpt>
      <trkpt lat="45.64745" lon="2.85482">
        <ele>1206.589113</ele>
        <time>2021-07-06T13:16:21+0200</time>
      </trkpt>
      <trkpt lat="45.64747" lon="2.85474">
        <ele>1204.886391</ele>
        <time>2021-07-06T13:16:22+0200</time>
      </trkpt>
      <trkpt lat="45.6475" lon="2.85468">
        <ele>1205.747354</ele>
        <time>2021-07-06T13:16:25+0200</time>
      </trkpt>
      <trkpt lat="45.64753" lon="2.85463">
        <ele>1207.245638</ele>
        <time>2021-07-06T13:16:29+0200</time>
      </trkpt>
      <trkpt lat="45.64755" lon="2.85455">
        <ele>1208.327944</ele>
        <time>2021-07-06T13:16:32+0200</time>
      </trkpt>
      <trkpt lat="45.64759" lon="2.8545">
        <ele>1208.346996</ele>
        <time>2021-07-06T13:16:35+0200</time>
      </trkpt>
      <trkpt lat="45.64762" lon="2.85442">
        <ele>1208.961013</ele>
        <time>2021-07-06T13:16:37+0200</time>
      </trkpt>
      <trkpt lat="45.64764" lon="2.85432">
        <ele>1208.848192</ele>
        <time>2021-07-06T13:16:39+0200</time>
      </trkpt>
      <trkpt lat="45.64766" lon="2.85426">
        <ele>1208.933653</ele>
        <time>2021-07-06T13:16:40+0200</time>
      </trkpt>
      <trkpt lat="45.64769" lon="2.8542">
        <ele>1208.999876</ele>
        <time>2021-07-06T13:16:41+0200</time>
      </trkpt>
      <trkpt lat="45.64774" lon="2.8541">
        <ele>1208.366022</ele>
        <time>2021-07-06T13:16:43+0200</time>
      </trkpt>
      <trkpt lat="45.64776" lon="2.85403">
        <ele>1208.478156</ele>
        <time>2021-07-06T13:16:44+0200</time>
      </trkpt>
      <trkpt lat="45.64774" lon="2.85396">
        <ele>1208.803335</ele>
        <time>2021-07-06T13:16:45+0200</time>
      </trkpt>
      <trkpt lat="45.64773" lon="2.8539">
        <ele>1208.150978</ele>
        <time>2021-07-06T13:16:46+0200</time>
      </trkpt>
      <trkpt lat="45.64773" lon="2.85382">
        <ele>1206.849793</ele>
        <time>2021-07-06T13:16:48+0200</time>
      </trkpt>
      <trkpt lat="45.64773" lon="2.85374">
        <ele>1204.072962</ele>
        <time>2021-07-06T13:16:49+0200</time>
      </trkpt>
      <trkpt lat="45.64772" lon="2.85367">
        <ele>1202.818979</ele>
        <time>2021-07-06T13:16:50+0200</time>
      </trkpt>
      <trkpt lat="45.64773" lon="2.8536">
        <ele>1201.590781</ele>
        <time>2021-07-06T13:16:51+0200</time>
      </trkpt>
      <trkpt lat="45.64777" lon="2.85349">
        <ele>1199.797319</ele>
        <time>2021-07-06T13:16:53+0200</time>
      </trkpt>
      <trkpt lat="45.64781" lon="2.85344">
        <ele>1198.991233</ele>
        <time>2021-07-06T13:16:54+0200</time>
      </trkpt>
      <trkpt lat="45.64785" lon="2.85339">
        <ele>1198.569463</ele>
        <time>2021-07-06T13:16:55+0200</time>
      </trkpt>
      <trkpt lat="45.6479" lon="2.85336">
        <ele>1197.71461</ele>
        <time>2021-07-06T13:16:56+0200</time>
      </trkpt>
      <trkpt lat="45.64793" lon="2.85332">
        <ele>1196.9955</ele>
        <time>2021-07-06T13:16:57+0200</time>
      </trkpt>
      <trkpt lat="45.64797" lon="2.85327">
        <ele>1196.612281</ele>
        <time>2021-07-06T13:16:58+0200</time>
      </trkpt>
      <trkpt lat="45.64801" lon="2.85321">
        <ele>1196.284218</ele>
        <time>2021-07-06T13:16:59+0200</time>
      </trkpt>
      <trkpt lat="45.64806" lon="2.85316">
        <ele>1195.162464</ele>
        <time>2021-07-06T13:17:00+0200</time>
      </trkpt>
      <trkpt lat="45.64811" lon="2.85313">
        <ele>1194.532526</ele>
        <time>2021-07-06T13:17:01+0200</time>
      </trkpt>
      <trkpt lat="45.64818" lon="2.85309">
        <ele>1193.368184</ele>
        <time>2021-07-06T13:17:02+0200</time>
      </trkpt>
      <trkpt lat="45.64824" lon="2.85305">
        <ele>1192.921638</ele>
        <time>2021-07-06T13:17:03+0200</time>
      </trkpt>
      <trkpt lat="45.64831" lon="2.853">
        <ele>1192.308598</ele>
        <time>2021-07-06T13:17:04+0200</time>
      </trkpt>
      <trkpt lat="45.64838" lon="2.85296">
        <ele>1191.464794</ele>
        <time>2021-07-06T13:17:05+0200</time>
      </trkpt>
      <trkpt lat="45.64845" lon="2.8529">
        <ele>1190.50421</ele>
        <time>2021-07-06T13:17:06+0200</time>
      </trkpt>
      <trkpt lat="45.64853" lon="2.85287">
        <ele>1189.429404</ele>
        <time>2021-07-06T13:17:07+0200</time>
      </trkpt>
      <trkpt lat="45.6486" lon="2.85281">
        <ele>1188.554819</ele>
        <time>2021-07-06T13:17:08+0200</time>
      </trkpt>
      <trkpt lat="45.64868" lon="2.85275">
        <ele>1187.33966</ele>
        <time>2021-07-06T13:17:09+0200</time>
      </trkpt>
      <trkpt lat="45.64876" lon="2.85269">
        <ele>1186.072229</ele>
        <time>2021-07-06T13:17:10+0200</time>
      </trkpt>
      <trkpt lat="45.64885" lon="2.85261">
        <ele>1185.201225</ele>
        <time>2021-07-06T13:17:11+0200</time>
      </trkpt>
      <trkpt lat="45.64893" lon="2.85255">
        <ele>1184.340165</ele>
        <time>2021-07-06T13:17:12+0200</time>
      </trkpt>
      <trkpt lat="45.64902" lon="2.8525">
        <ele>1183.541537</ele>
        <time>2021-07-06T13:17:13+0200</time>
      </trkpt>
      <trkpt lat="45.64912" lon="2.85246">
        <ele>1182.88217</ele>
        <time>2021-07-06T13:17:14+0200</time>
      </trkpt>
      <trkpt lat="45.6492" lon="2.85242">
        <ele>1182.600086</ele>
        <time>2021-07-06T13:17:15+0200</time>
      </trkpt>
      <trkpt lat="45.64929" lon="2.85236">
        <ele>1182.472361</ele>
        <time>2021-07-06T13:17:16+0200</time>
      </trkpt>
      <trkpt lat="45.64938" lon="2.85232">
        <ele>1182.757721</ele>
        <time>2021-07-06T13:17:17+0200</time>
      </trkpt>
      <trkpt lat="45.64946" lon="2.85228">
        <ele>1182.467897</ele>
        <time>2021-07-06T13:17:18+0200</time>
      </trkpt>
      <trkpt lat="45.64954" lon="2.85223">
        <ele>1182.371725</ele>
        <time>2021-07-06T13:17:19+0200</time>
      </trkpt>
      <trkpt lat="45.64962" lon="2.85218">
        <ele>1181.611209</ele>
        <time>2021-07-06T13:17:20+0200</time>
      </trkpt>
      <trkpt lat="45.64969" lon="2.85215">
        <ele>1180.88501</ele>
        <time>2021-07-06T13:17:21+0200</time>
      </trkpt>
      <trkpt lat="45.64976" lon="2.85211">
        <ele>1179.957688</ele>
        <time>2021-07-06T13:17:22+0200</time>
      </trkpt>
      <trkpt lat="45.64984" lon="2.85209">
        <ele>1179.268442</ele>
        <time>2021-07-06T13:17:23+0200</time>
      </trkpt>
      <trkpt lat="45.64992" lon="2.85209">
        <ele>1179.96145</ele>
        <time>2021-07-06T13:17:24+0200</time>
      </trkpt>
      <trkpt lat="45.64998" lon="2.85211">
        <ele>1179.758052</ele>
        <time>2021-07-06T13:17:25+0200</time>
      </trkpt>
      <trkpt lat="45.65005" lon="2.85212">
        <ele>1179.924844</ele>
        <time>2021-07-06T13:17:26+0200</time>
      </trkpt>
      <trkpt lat="45.65011" lon="2.85213">
        <ele>1180.128924</ele>
        <time>2021-07-06T13:17:27+0200</time>
      </trkpt>
      <trkpt lat="45.65017" lon="2.85214">
        <ele>1179.895034</ele>
        <time>2021-07-06T13:17:28+0200</time>
      </trkpt>
      <trkpt lat="45.65023" lon="2.85215">
        <ele>1180.129847</ele>
        <time>2021-07-06T13:17:29+0200</time>
      </trkpt>
      <trkpt lat="45.65028" lon="2.85216">
        <ele>1180.2603</ele>
        <time>2021-07-06T13:17:30+0200</time>
      </trkpt>
      <trkpt lat="45.65034" lon="2.85215">
        <ele>1180.496682</ele>
        <time>2021-07-06T13:17:31+0200</time>
      </trkpt>
      <trkpt lat="45.65039" lon="2.85217">
        <ele>1180.574281</ele>
        <time>2021-07-06T13:17:32+0200</time>
      </trkpt>
      <trkpt lat="45.65045" lon="2.85217">
        <ele>1181.418029</ele>
        <time>2021-07-06T13:17:33+0200</time>
      </trkpt>
      <trkpt lat="45.6505" lon="2.85218">
        <ele>1182.461116</ele>
        <time>2021-07-06T13:17:34+0200</time>
      </trkpt>
      <trkpt lat="45.65055" lon="2.85218">
        <ele>1183.068746</ele>
        <time>2021-07-06T13:17:35+0200</time>
      </trkpt>
      <trkpt lat="45.65061" lon="2.85218">
        <ele>1183.834706</ele>
        <time>2021-07-06T13:17:36+0200</time>
      </trkpt>
      <trkpt lat="45.65065" lon="2.85219">
        <ele>1183.953778</ele>
        <time>2021-07-06T13:17:37+0200</time>
      </trkpt>
      <trkpt lat="45.65071" lon="2.85221">
        <ele>1183.445166</ele>
        <time>2021-07-06T13:17:38+0200</time>
      </trkpt>
      <trkpt lat="45.65076" lon="2.85222">
        <ele>1183.238773</ele>
        <time>2021-07-06T13:17:39+0200</time>
      </trkpt>
      <trkpt lat="45.65081" lon="2.85223">
        <ele>1183.80432</ele>
        <time>2021-07-06T13:17:40+0200</time>
      </trkpt>
      <trkpt lat="45.65086" lon="2.85224">
        <ele>1183.76764</ele>
        <time>2021-07-06T13:17:41+0200</time>
      </trkpt>
      <trkpt lat="45.65092" lon="2.85225">
        <ele>1184.621513</ele>
        <time>2021-07-06T13:17:42+0200</time>
      </trkpt>
      <trkpt lat="45.65097" lon="2.85225">
        <ele>1185.26386</ele>
        <time>2021-07-06T13:17:43+0200</time>
      </trkpt>
      <trkpt lat="45.65101" lon="2.85226">
        <ele>1186.256049</ele>
        <time>2021-07-06T13:17:44+0200</time>
      </trkpt>
      <trkpt lat="45.6511" lon="2.85226">
        <ele>1187.315817</ele>
        <time>2021-07-06T13:17:46+0200</time>
      </trkpt>
      <trkpt lat="45.65115" lon="2.85227">
        <ele>1188.134595</ele>
        <time>2021-07-06T13:17:47+0200</time>
      </trkpt>
      <trkpt lat="45.65123" lon="2.85226">
        <ele>1191.020196</ele>
        <time>2021-07-06T13:17:49+0200</time>
      </trkpt>
      <trkpt lat="45.65131" lon="2.85225">
        <ele>1194.193018</ele>
        <time>2021-07-06T13:17:51+0200</time>
      </trkpt>
      <trkpt lat="45.65136" lon="2.85226">
        <ele>1194.861942</ele>
        <time>2021-07-06T13:17:51+0200</time>
      </trkpt>
      <trkpt lat="45.65141" lon="2.85226">
        <ele>1195.499615</ele>
        <time>2021-07-06T13:17:52+0200</time>
      </trkpt>
      <trkpt lat="45.65147" lon="2.85227">
        <ele>1196.512938</ele>
        <time>2021-07-06T13:17:53+0200</time>
      </trkpt>
      <trkpt lat="45.65152" lon="2.85228">
        <ele>1197.102473</ele>
        <time>2021-07-06T13:17:54+0200</time>
      </trkpt>
      <trkpt lat="45.65156" lon="2.8523">
        <ele>1198.197573</ele>
        <time>2021-07-06T13:17:55+0200</time>
      </trkpt>
      <trkpt lat="45.65165" lon="2.85232">
        <ele>1198.298442</ele>
        <time>2021-07-06T13:17:57+0200</time>
      </trkpt>
      <trkpt lat="45.65171" lon="2.85234">
        <ele>1197.686804</ele>
        <time>2021-07-06T13:17:58+0200</time>
      </trkpt>
      <trkpt lat="45.65179" lon="2.85235">
        <ele>1197.51203</ele>
        <time>2021-07-06T13:18:00+0200</time>
      </trkpt>
      <trkpt lat="45.65185" lon="2.85237">
        <ele>1197.210097</ele>
        <time>2021-07-06T13:18:01+0200</time>
      </trkpt>
      <trkpt lat="45.65192" lon="2.85237">
        <ele>1197.488737</ele>
        <time>2021-07-06T13:18:02+0200</time>
      </trkpt>
      <trkpt lat="45.65198" lon="2.85239">
        <ele>1197.03842</ele>
        <time>2021-07-06T13:18:03+0200</time>
      </trkpt>
      <trkpt lat="45.65206" lon="2.85239">
        <ele>1195.36888</ele>
        <time>2021-07-06T13:18:04+0200</time>
      </trkpt>
      <trkpt lat="45.65212" lon="2.85239">
        <ele>1195.498146</ele>
        <time>2021-07-06T13:18:05+0200</time>
      </trkpt>
      <trkpt lat="45.65219" lon="2.85241">
        <ele>1194.726971</ele>
        <time>2021-07-06T13:18:06+0200</time>
      </trkpt>
      <trkpt lat="45.65226" lon="2.85243">
        <ele>1192.336901</ele>
        <time>2021-07-06T13:18:07+0200</time>
      </trkpt>
      <trkpt lat="45.65234" lon="2.85248">
        <ele>1190.090776</ele>
        <time>2021-07-06T13:18:08+0200</time>
      </trkpt>
      <trkpt lat="45.65241" lon="2.85253">
        <ele>1188.664473</ele>
        <time>2021-07-06T13:18:09+0200</time>
      </trkpt>
      <trkpt lat="45.65248" lon="2.85257">
        <ele>1187.362359</ele>
        <time>2021-07-06T13:18:10+0200</time>
      </trkpt>
      <trkpt lat="45.65254" lon="2.85263">
        <ele>1186.420258</ele>
        <time>2021-07-06T13:18:12+0200</time>
      </trkpt>
      <trkpt lat="45.6526" lon="2.8527">
        <ele>1184.506919</ele>
        <time>2021-07-06T13:18:13+0200</time>
      </trkpt>
      <trkpt lat="45.65266" lon="2.85278">
        <ele>1182.998369</ele>
        <time>2021-07-06T13:18:14+0200</time>
      </trkpt>
      <trkpt lat="45.65272" lon="2.85287">
        <ele>1181.925032</ele>
        <time>2021-07-06T13:18:15+0200</time>
      </trkpt>
      <trkpt lat="45.65277" lon="2.85296">
        <ele>1180.557117</ele>
        <time>2021-07-06T13:18:16+0200</time>
      </trkpt>
      <trkpt lat="45.65282" lon="2.85305">
        <ele>1179.720168</ele>
        <time>2021-07-06T13:18:17+0200</time>
      </trkpt>
      <trkpt lat="45.65287" lon="2.85315">
        <ele>1179.128677</ele>
        <time>2021-07-06T13:18:18+0200</time>
      </trkpt>
      <trkpt lat="45.65291" lon="2.85324">
        <ele>1178.852768</ele>
        <time>2021-07-06T13:18:19+0200</time>
      </trkpt>
      <trkpt lat="45.65295" lon="2.85333">
        <ele>1178.209674</ele>
        <time>2021-07-06T13:18:20+0200</time>
      </trkpt>
      <trkpt lat="45.65299" lon="2.85343">
        <ele>1177.67161</ele>
        <time>2021-07-06T13:18:21+0200</time>
      </trkpt>
      <trkpt lat="45.65303" lon="2.85353">
        <ele>1177.220697</ele>
        <time>2021-07-06T13:18:21+0200</time>
      </trkpt>
      <trkpt lat="45.65307" lon="2.85363">
        <ele>1176.784997</ele>
        <time>2021-07-06T13:18:22+0200</time>
      </trkpt>
      <trkpt lat="45.6531" lon="2.85373">
        <ele>1176.439661</ele>
        <time>2021-07-06T13:18:24+0200</time>
      </trkpt>
      <trkpt lat="45.65312" lon="2.85381">
        <ele>1176.294615</ele>
        <time>2021-07-06T13:18:25+0200</time>
      </trkpt>
      <trkpt lat="45.65314" lon="2.85389">
        <ele>1175.900005</ele>
        <time>2021-07-06T13:18:25+0200</time>
      </trkpt>
      <trkpt lat="45.65316" lon="2.85396">
        <ele>1175.775945</ele>
        <time>2021-07-06T13:18:26+0200</time>
      </trkpt>
      <trkpt lat="45.6532" lon="2.85404">
        <ele>1176.089419</ele>
        <time>2021-07-06T13:18:28+0200</time>
      </trkpt>
      <trkpt lat="45.65323" lon="2.85394">
        <ele>1175.387151</ele>
        <time>2021-07-06T13:18:31+0200</time>
      </trkpt>
      <trkpt lat="45.65326" lon="2.85387">
        <ele>1174.236842</ele>
        <time>2021-07-06T13:18:34+0200</time>
      </trkpt>
      <trkpt lat="45.65332" lon="2.85388">
        <ele>1173.70426</ele>
        <time>2021-07-06T13:18:36+0200</time>
      </trkpt>
      <trkpt lat="45.6534" lon="2.85388">
        <ele>1172.760522</ele>
        <time>2021-07-06T13:18:38+0200</time>
      </trkpt>
      <trkpt lat="45.65345" lon="2.85389">
        <ele>1171.7023</ele>
        <time>2021-07-06T13:18:39+0200</time>
      </trkpt>
      <trkpt lat="45.6535" lon="2.8539">
        <ele>1171.571457</ele>
        <time>2021-07-06T13:18:40+0200</time>
      </trkpt>
      <trkpt lat="45.65356" lon="2.85392">
        <ele>1170.494264</ele>
        <time>2021-07-06T13:18:41+0200</time>
      </trkpt>
      <trkpt lat="45.65362" lon="2.85392">
        <ele>1170.182224</ele>
        <time>2021-07-06T13:18:42+0200</time>
      </trkpt>
      <trkpt lat="45.65369" lon="2.85393">
        <ele>1169.891051</ele>
        <time>2021-07-06T13:18:43+0200</time>
      </trkpt>
      <trkpt lat="45.65375" lon="2.85394">
        <ele>1169.14687</ele>
        <time>2021-07-06T13:18:44+0200</time>
      </trkpt>
      <trkpt lat="45.65382" lon="2.85394">
        <ele>1168.256978</ele>
        <time>2021-07-06T13:18:45+0200</time>
      </trkpt>
      <trkpt lat="45.65389" lon="2.85394">
        <ele>1167.775932</ele>
        <time>2021-07-06T13:18:46+0200</time>
      </trkpt>
      <trkpt lat="45.65397" lon="2.85394">
        <ele>1167.387558</ele>
        <time>2021-07-06T13:18:47+0200</time>
      </trkpt>
      <trkpt lat="45.65404" lon="2.85394">
        <ele>1166.584692</ele>
        <time>2021-07-06T13:18:48+0200</time>
      </trkpt>
      <trkpt lat="45.65412" lon="2.85395">
        <ele>1166.25888</ele>
        <time>2021-07-06T13:18:49+0200</time>
      </trkpt>
      <trkpt lat="45.65419" lon="2.85396">
        <ele>1165.618107</ele>
        <time>2021-07-06T13:18:50+0200</time>
      </trkpt>
      <trkpt lat="45.65424" lon="2.85399">
        <ele>1165.17192</ele>
        <time>2021-07-06T13:18:51+0200</time>
      </trkpt>
      <trkpt lat="45.6543" lon="2.85404">
        <ele>1165.902957</ele>
        <time>2021-07-06T13:18:53+0200</time>
      </trkpt>
      <trkpt lat="45.65435" lon="2.8541">
        <ele>1165.967471</ele>
        <time>2021-07-06T13:18:55+0200</time>
      </trkpt>
      <trkpt lat="45.65441" lon="2.85416">
        <ele>1166.556504</ele>
        <time>2021-07-06T13:18:57+0200</time>
      </trkpt>
      <trkpt lat="45.65447" lon="2.85416">
        <ele>1167.031393</ele>
        <time>2021-07-06T13:18:58+0200</time>
      </trkpt>
      <trkpt lat="45.65452" lon="2.85413">
        <ele>1166.360257</ele>
        <time>2021-07-06T13:18:59+0200</time>
      </trkpt>
      <trkpt lat="45.65457" lon="2.85408">
        <ele>1166.01588</ele>
        <time>2021-07-06T13:19:00+0200</time>
      </trkpt>
      <trkpt lat="45.65461" lon="2.85403">
        <ele>1165.949023</ele>
        <time>2021-07-06T13:19:01+0200</time>
      </trkpt>
      <trkpt lat="45.6547" lon="2.85398">
        <ele>1167.031657</ele>
        <time>2021-07-06T13:19:03+0200</time>
      </trkpt>
      <trkpt lat="45.65476" lon="2.85399">
        <ele>1166.668584</ele>
        <time>2021-07-06T13:19:04+0200</time>
      </trkpt>
      <trkpt lat="45.65483" lon="2.85397">
        <ele>1166.822207</ele>
        <time>2021-07-06T13:19:06+0200</time>
      </trkpt>
      <trkpt lat="45.6549" lon="2.85394">
        <ele>1165.468465</ele>
        <time>2021-07-06T13:19:08+0200</time>
      </trkpt>
      <trkpt lat="45.65496" lon="2.85392">
        <ele>1164.164157</ele>
        <time>2021-07-06T13:19:10+0200</time>
      </trkpt>
      <trkpt lat="45.65502" lon="2.85388">
        <ele>1162.420342</ele>
        <time>2021-07-06T13:19:12+0200</time>
      </trkpt>
      <trkpt lat="45.65508" lon="2.85382">
        <ele>1161.255866</ele>
        <time>2021-07-06T13:19:14+0200</time>
      </trkpt>
      <trkpt lat="45.65515" lon="2.85374">
        <ele>1160.608627</ele>
        <time>2021-07-06T13:19:16+0200</time>
      </trkpt>
      <trkpt lat="45.65521" lon="2.85369">
        <ele>1158.930219</ele>
        <time>2021-07-06T13:19:18+0200</time>
      </trkpt>
      <trkpt lat="45.65528" lon="2.85362">
        <ele>1157.57038</ele>
        <time>2021-07-06T13:19:20+0200</time>
      </trkpt>
      <trkpt lat="45.65533" lon="2.85358">
        <ele>1157.717614</ele>
        <time>2021-07-06T13:19:21+0200</time>
      </trkpt>
      <trkpt lat="45.65537" lon="2.85352">
        <ele>1158.091334</ele>
        <time>2021-07-06T13:19:22+0200</time>
      </trkpt>
      <trkpt lat="45.65543" lon="2.85347">
        <ele>1157.143466</ele>
        <time>2021-07-06T13:19:24+0200</time>
      </trkpt>
      <trkpt lat="45.65547" lon="2.85342">
        <ele>1156.436759</ele>
        <time>2021-07-06T13:19:25+0200</time>
      </trkpt>
      <trkpt lat="45.6555" lon="2.85335">
        <ele>1157.207207</ele>
        <time>2021-07-06T13:19:26+0200</time>
      </trkpt>
      <trkpt lat="45.65553" lon="2.85329">
        <ele>1156.631418</ele>
        <time>2021-07-06T13:19:27+0200</time>
      </trkpt>
      <trkpt lat="45.65556" lon="2.85324">
        <ele>1156.167567</ele>
        <time>2021-07-06T13:19:28+0200</time>
      </trkpt>
      <trkpt lat="45.6556" lon="2.85318">
        <ele>1154.943159</ele>
        <time>2021-07-06T13:19:29+0200</time>
      </trkpt>
      <trkpt lat="45.65568" lon="2.85311">
        <ele>1153.586959</ele>
        <time>2021-07-06T13:19:31+0200</time>
      </trkpt>
      <trkpt lat="45.65573" lon="2.85307">
        <ele>1152.410472</ele>
        <time>2021-07-06T13:19:32+0200</time>
      </trkpt>
      <trkpt lat="45.65578" lon="2.85301">
        <ele>1150.620775</ele>
        <time>2021-07-06T13:19:34+0200</time>
      </trkpt>
      <trkpt lat="45.65585" lon="2.85294">
        <ele>1151.325934</ele>
        <time>2021-07-06T13:19:36+0200</time>
      </trkpt>
      <trkpt lat="45.65592" lon="2.85285">
        <ele>1151.651089</ele>
        <time>2021-07-06T13:19:38+0200</time>
      </trkpt>
      <trkpt lat="45.65597" lon="2.85278">
        <ele>1151.56162</ele>
        <time>2021-07-06T13:19:39+0200</time>
      </trkpt>
      <trkpt lat="45.656" lon="2.85273">
        <ele>1151.976535</ele>
        <time>2021-07-06T13:19:40+0200</time>
      </trkpt>
      <trkpt lat="45.65604" lon="2.85269">
        <ele>1152.610176</ele>
        <time>2021-07-06T13:19:41+0200</time>
      </trkpt>
      <trkpt lat="45.65611" lon="2.85263">
        <ele>1153.498083</ele>
        <time>2021-07-06T13:19:42+0200</time>
      </trkpt>
      <trkpt lat="45.65616" lon="2.85257">
        <ele>1153.144357</ele>
        <time>2021-07-06T13:19:43+0200</time>
      </trkpt>
      <trkpt lat="45.65622" lon="2.8525">
        <ele>1151.629449</ele>
        <time>2021-07-06T13:19:44+0200</time>
      </trkpt>
      <trkpt lat="45.65626" lon="2.85242">
        <ele>1149.625297</ele>
        <time>2021-07-06T13:19:45+0200</time>
      </trkpt>
      <trkpt lat="45.65632" lon="2.85236">
        <ele>1148.350005</ele>
        <time>2021-07-06T13:19:46+0200</time>
      </trkpt>
      <trkpt lat="45.65638" lon="2.8523">
        <ele>1148.019194</ele>
        <time>2021-07-06T13:19:47+0200</time>
      </trkpt>
      <trkpt lat="45.65642" lon="2.85225">
        <ele>1148.194387</ele>
        <time>2021-07-06T13:19:48+0200</time>
      </trkpt>
      <trkpt lat="45.65646" lon="2.8522">
        <ele>1148.07494</ele>
        <time>2021-07-06T13:19:49+0200</time>
      </trkpt>
      <trkpt lat="45.6565" lon="2.85213">
        <ele>1146.274507</ele>
        <time>2021-07-06T13:19:50+0200</time>
      </trkpt>
      <trkpt lat="45.65654" lon="2.85206">
        <ele>1145.956629</ele>
        <time>2021-07-06T13:19:51+0200</time>
      </trkpt>
      <trkpt lat="45.65657" lon="2.85198">
        <ele>1145.813833</ele>
        <time>2021-07-06T13:19:52+0200</time>
      </trkpt>
      <trkpt lat="45.65661" lon="2.85192">
        <ele>1145.223371</ele>
        <time>2021-07-06T13:19:53+0200</time>
      </trkpt>
      <trkpt lat="45.65665" lon="2.85186">
        <ele>1144.640432</ele>
        <time>2021-07-06T13:19:54+0200</time>
      </trkpt>
      <trkpt lat="45.65668" lon="2.8518">
        <ele>1144.02476</ele>
        <time>2021-07-06T13:19:55+0200</time>
      </trkpt>
      <trkpt lat="45.65672" lon="2.85175">
        <ele>1143.623496</ele>
        <time>2021-07-06T13:19:56+0200</time>
      </trkpt>
      <trkpt lat="45.65677" lon="2.8517">
        <ele>1143.958963</ele>
        <time>2021-07-06T13:19:57+0200</time>
      </trkpt>
      <trkpt lat="45.65682" lon="2.85163">
        <ele>1143.040812</ele>
        <time>2021-07-06T13:19:58+0200</time>
      </trkpt>
      <trkpt lat="45.65687" lon="2.85156">
        <ele>1143.098184</ele>
        <time>2021-07-06T13:19:59+0200</time>
      </trkpt>
      <trkpt lat="45.6569" lon="2.85151">
        <ele>1141.752079</ele>
        <time>2021-07-06T13:20:00+0200</time>
      </trkpt>
      <trkpt lat="45.65694" lon="2.85141">
        <ele>1140.467243</ele>
        <time>2021-07-06T13:20:02+0200</time>
      </trkpt>
      <trkpt lat="45.65699" lon="2.85137">
        <ele>1139.575807</ele>
        <time>2021-07-06T13:20:05+0200</time>
      </trkpt>
      <trkpt lat="45.65705" lon="2.85134">
        <ele>1139.075987</ele>
        <time>2021-07-06T13:20:09+0200</time>
      </trkpt>
      <trkpt lat="45.65709" lon="2.8513">
        <ele>1138.631617</ele>
        <time>2021-07-06T13:20:12+0200</time>
      </trkpt>
      <trkpt lat="45.65713" lon="2.85127">
        <ele>1138.523256</ele>
        <time>2021-07-06T13:20:16+0200</time>
      </trkpt>
      <trkpt lat="45.65717" lon="2.85123">
        <ele>1139.151601</ele>
        <time>2021-07-06T13:20:20+0200</time>
      </trkpt>
      <trkpt lat="45.6572" lon="2.85115">
        <ele>1137.271818</ele>
        <time>2021-07-06T13:20:23+0200</time>
      </trkpt>
      <trkpt lat="45.65724" lon="2.85112">
        <ele>1135.997578</ele>
        <time>2021-07-06T13:20:25+0200</time>
      </trkpt>
      <trkpt lat="45.65729" lon="2.85107">
        <ele>1135.491847</ele>
        <time>2021-07-06T13:20:27+0200</time>
      </trkpt>
      <trkpt lat="45.65735" lon="2.85101">
        <ele>1135.016887</ele>
        <time>2021-07-06T13:20:29+0200</time>
      </trkpt>
      <trkpt lat="45.65739" lon="2.85093">
        <ele>1134.584513</ele>
        <time>2021-07-06T13:20:32+0200</time>
      </trkpt>
      <trkpt lat="45.65744" lon="2.85089">
        <ele>1135.799205</ele>
        <time>2021-07-06T13:20:34+0200</time>
      </trkpt>
      <trkpt lat="45.65749" lon="2.85086">
        <ele>1135.827751</ele>
        <time>2021-07-06T13:20:36+0200</time>
      </trkpt>
      <trkpt lat="45.65757" lon="2.85083">
        <ele>1134.967843</ele>
        <time>2021-07-06T13:20:40+0200</time>
      </trkpt>
      <trkpt lat="45.65763" lon="2.85081">
        <ele>1132.868596</ele>
        <time>2021-07-06T13:20:43+0200</time>
      </trkpt>
      <trkpt lat="45.65768" lon="2.8508">
        <ele>1132.489445</ele>
        <time>2021-07-06T13:20:44+0200</time>
      </trkpt>
      <trkpt lat="45.65774" lon="2.85079">
        <ele>1131.84714</ele>
        <time>2021-07-06T13:20:47+0200</time>
      </trkpt>
      <trkpt lat="45.65778" lon="2.85075">
        <ele>1130.351028</ele>
        <time>2021-07-06T13:20:49+0200</time>
      </trkpt>
      <trkpt lat="45.65784" lon="2.8507">
        <ele>1129.236108</ele>
        <time>2021-07-06T13:20:53+0200</time>
      </trkpt>
      <trkpt lat="45.65788" lon="2.85067">
        <ele>1128.35686</ele>
        <time>2021-07-06T13:20:57+0200</time>
      </trkpt>
      <trkpt lat="45.65793" lon="2.85064">
        <ele>1127.647973</ele>
        <time>2021-07-06T13:21:00+0200</time>
      </trkpt>
      <trkpt lat="45.65798" lon="2.8506">
        <ele>1125.699458</ele>
        <time>2021-07-06T13:21:03+0200</time>
      </trkpt>
      <trkpt lat="45.65804" lon="2.85058">
        <ele>1124.623583</ele>
        <time>2021-07-06T13:21:07+0200</time>
      </trkpt>
      <trkpt lat="45.65809" lon="2.85054">
        <ele>1124.931488</ele>
        <time>2021-07-06T13:21:10+0200</time>
      </trkpt>
      <trkpt lat="45.65814" lon="2.85049">
        <ele>1125.110959</ele>
        <time>2021-07-06T13:21:12+0200</time>
      </trkpt>
      <trkpt lat="45.65818" lon="2.85041">
        <ele>1125.826354</ele>
        <time>2021-07-06T13:21:14+0200</time>
      </trkpt>
      <trkpt lat="45.65823" lon="2.8504">
        <ele>1128.273126</ele>
        <time>2021-07-06T13:21:16+0200</time>
      </trkpt>
      <trkpt lat="45.65828" lon="2.85037">
        <ele>1129.790851</ele>
        <time>2021-07-06T13:21:18+0200</time>
      </trkpt>
      <trkpt lat="45.65834" lon="2.85034">
        <ele>1130.016688</ele>
        <time>2021-07-06T13:21:20+0200</time>
      </trkpt>
      <trkpt lat="45.65841" lon="2.85033">
        <ele>1130.52522</ele>
        <time>2021-07-06T13:21:22+0200</time>
      </trkpt>
      <trkpt lat="45.65848" lon="2.85029">
        <ele>1130.345974</ele>
        <time>2021-07-06T13:21:24+0200</time>
      </trkpt>
      <trkpt lat="45.65854" lon="2.85025">
        <ele>1129.80234</ele>
        <time>2021-07-06T13:21:26+0200</time>
      </trkpt>
      <trkpt lat="45.65861" lon="2.85023">
        <ele>1129.418037</ele>
        <time>2021-07-06T13:21:28+0200</time>
      </trkpt>
      <trkpt lat="45.65866" lon="2.8502">
        <ele>1127.284288</ele>
        <time>2021-07-06T13:21:30+0200</time>
      </trkpt>
      <trkpt lat="45.65871" lon="2.85019">
        <ele>1128.43261</ele>
        <time>2021-07-06T13:21:33+0200</time>
      </trkpt>
      <trkpt lat="45.65878" lon="2.85018">
        <ele>1126.672075</ele>
        <time>2021-07-06T13:21:35+0200</time>
      </trkpt>
      <trkpt lat="45.65883" lon="2.85015">
        <ele>1126.586645</ele>
        <time>2021-07-06T13:21:37+0200</time>
      </trkpt>
      <trkpt lat="45.6589" lon="2.85011">
        <ele>1125.000602</ele>
        <time>2021-07-06T13:21:40+0200</time>
      </trkpt>
      <trkpt lat="45.65896" lon="2.85007">
        <ele>1123.136819</ele>
        <time>2021-07-06T13:21:42+0200</time>
      </trkpt>
      <trkpt lat="45.65905" lon="2.85002">
        <ele>1122.531014</ele>
        <time>2021-07-06T13:21:44+0200</time>
      </trkpt>
      <trkpt lat="45.6591" lon="2.85">
        <ele>1122.378579</ele>
        <time>2021-07-06T13:21:45+0200</time>
      </trkpt>
      <trkpt lat="45.65915" lon="2.85001">
        <ele>1122.418299</ele>
        <time>2021-07-06T13:21:46+0200</time>
      </trkpt>
      <trkpt lat="45.6592" lon="2.85">
        <ele>1121.655308</ele>
        <time>2021-07-06T13:21:47+0200</time>
      </trkpt>
      <trkpt lat="45.65926" lon="2.85">
        <ele>1120.658069</ele>
        <time>2021-07-06T13:21:48+0200</time>
      </trkpt>
      <trkpt lat="45.65931" lon="2.84998">
        <ele>1119.900788</ele>
        <time>2021-07-06T13:21:49+0200</time>
      </trkpt>
      <trkpt lat="45.65937" lon="2.84997">
        <ele>1119.540275</ele>
        <time>2021-07-06T13:21:50+0200</time>
      </trkpt>
      <trkpt lat="45.65943" lon="2.84996">
        <ele>1119.44416</ele>
        <time>2021-07-06T13:21:51+0200</time>
      </trkpt>
      <trkpt lat="45.65951" lon="2.84994">
        <ele>1119.139763</ele>
        <time>2021-07-06T13:21:53+0200</time>
      </trkpt>
      <trkpt lat="45.65958" lon="2.84991">
        <ele>1119.04207</ele>
        <time>2021-07-06T13:21:55+0200</time>
      </trkpt>
      <trkpt lat="45.65963" lon="2.8499">
        <ele>1119.528184</ele>
        <time>2021-07-06T13:21:56+0200</time>
      </trkpt>
      <trkpt lat="45.65971" lon="2.84988">
        <ele>1117.963322</ele>
        <time>2021-07-06T13:21:58+0200</time>
      </trkpt>
      <trkpt lat="45.65979" lon="2.84988">
        <ele>1117.888996</ele>
        <time>2021-07-06T13:22:00+0200</time>
      </trkpt>
      <trkpt lat="45.65985" lon="2.84985">
        <ele>1118.468447</ele>
        <time>2021-07-06T13:22:01+0200</time>
      </trkpt>
      <trkpt lat="45.6599" lon="2.84983">
        <ele>1118.108636</ele>
        <time>2021-07-06T13:22:02+0200</time>
      </trkpt>
      <trkpt lat="45.65994" lon="2.84982">
        <ele>1117.486116</ele>
        <time>2021-07-06T13:22:03+0200</time>
      </trkpt>
      <trkpt lat="45.66" lon="2.8498">
        <ele>1115.432094</ele>
        <time>2021-07-06T13:22:04+0200</time>
      </trkpt>
      <trkpt lat="45.66007" lon="2.84978">
        <ele>1114.275331</ele>
        <time>2021-07-06T13:22:06+0200</time>
      </trkpt>
      <trkpt lat="45.66013" lon="2.84974">
        <ele>1114.721669</ele>
        <time>2021-07-06T13:22:08+0200</time>
      </trkpt>
      <trkpt lat="45.66019" lon="2.84971">
        <ele>1115.384885</ele>
        <time>2021-07-06T13:22:10+0200</time>
      </trkpt>
      <trkpt lat="45.66025" lon="2.84967">
        <ele>1115.535832</ele>
        <time>2021-07-06T13:22:12+0200</time>
      </trkpt>
      <trkpt lat="45.6603" lon="2.84965">
        <ele>1115.528295</ele>
        <time>2021-07-06T13:22:13+0200</time>
      </trkpt>
      <trkpt lat="45.66035" lon="2.84965">
        <ele>1115.409693</ele>
        <time>2021-07-06T13:22:14+0200</time>
      </trkpt>
      <trkpt lat="45.6604" lon="2.84966">
        <ele>1115.329639</ele>
        <time>2021-07-06T13:22:15+0200</time>
      </trkpt>
      <trkpt lat="45.66048" lon="2.84969">
        <ele>1114.446817</ele>
        <time>2021-07-06T13:22:17+0200</time>
      </trkpt>
      <trkpt lat="45.66054" lon="2.84968">
        <ele>1112.529081</ele>
        <time>2021-07-06T13:22:18+0200</time>
      </trkpt>
      <trkpt lat="45.66059" lon="2.84965">
        <ele>1111.384633</ele>
        <time>2021-07-06T13:22:19+0200</time>
      </trkpt>
      <trkpt lat="45.66064" lon="2.84963">
        <ele>1110.413071</ele>
        <time>2021-07-06T13:22:20+0200</time>
      </trkpt>
      <trkpt lat="45.66069" lon="2.8496">
        <ele>1110.392443</ele>
        <time>2021-07-06T13:22:21+0200</time>
      </trkpt>
      <trkpt lat="45.66072" lon="2.84955">
        <ele>1109.740495</ele>
        <time>2021-07-06T13:22:22+0200</time>
      </trkpt>
      <trkpt lat="45.66077" lon="2.84953">
        <ele>1109.477798</ele>
        <time>2021-07-06T13:22:24+0200</time>
      </trkpt>
      <trkpt lat="45.66082" lon="2.84953">
        <ele>1108.409084</ele>
        <time>2021-07-06T13:22:25+0200</time>
      </trkpt>
      <trkpt lat="45.66088" lon="2.8495">
        <ele>1107.187377</ele>
        <time>2021-07-06T13:22:26+0200</time>
      </trkpt>
      <trkpt lat="45.66093" lon="2.84947">
        <ele>1105.648889</ele>
        <time>2021-07-06T13:22:27+0200</time>
      </trkpt>
      <trkpt lat="45.66099" lon="2.84945">
        <ele>1105.544258</ele>
        <time>2021-07-06T13:22:28+0200</time>
      </trkpt>
      <trkpt lat="45.66103" lon="2.84943">
        <ele>1106.120232</ele>
        <time>2021-07-06T13:22:29+0200</time>
      </trkpt>
      <trkpt lat="45.66108" lon="2.84941">
        <ele>1105.344111</ele>
        <time>2021-07-06T13:22:30+0200</time>
      </trkpt>
      <trkpt lat="45.66113" lon="2.84938">
        <ele>1103.950445</ele>
        <time>2021-07-06T13:22:31+0200</time>
      </trkpt>
      <trkpt lat="45.66118" lon="2.84936">
        <ele>1103.560358</ele>
        <time>2021-07-06T13:22:32+0200</time>
      </trkpt>
      <trkpt lat="45.66123" lon="2.84933">
        <ele>1102.916416</ele>
        <time>2021-07-06T13:22:33+0200</time>
      </trkpt>
      <trkpt lat="45.66128" lon="2.84931">
        <ele>1102.839825</ele>
        <time>2021-07-06T13:22:34+0200</time>
      </trkpt>
      <trkpt lat="45.66136" lon="2.84927">
        <ele>1102.254896</ele>
        <time>2021-07-06T13:22:36+0200</time>
      </trkpt>
      <trkpt lat="45.66141" lon="2.84921">
        <ele>1100.484284</ele>
        <time>2021-07-06T13:22:37+0200</time>
      </trkpt>
      <trkpt lat="45.66146" lon="2.84919">
        <ele>1099.971266</ele>
        <time>2021-07-06T13:22:38+0200</time>
      </trkpt>
      <trkpt lat="45.66152" lon="2.84917">
        <ele>1098.703841</ele>
        <time>2021-07-06T13:22:39+0200</time>
      </trkpt>
      <trkpt lat="45.66156" lon="2.84914">
        <ele>1097.927649</ele>
        <time>2021-07-06T13:22:40+0200</time>
      </trkpt>
      <trkpt lat="45.66162" lon="2.84909">
        <ele>1096.768359</ele>
        <time>2021-07-06T13:22:41+0200</time>
      </trkpt>
      <trkpt lat="45.66166" lon="2.84903">
        <ele>1096.376878</ele>
        <time>2021-07-06T13:22:42+0200</time>
      </trkpt>
      <trkpt lat="45.66171" lon="2.84898">
        <ele>1096.396369</ele>
        <time>2021-07-06T13:22:43+0200</time>
      </trkpt>
      <trkpt lat="45.66176" lon="2.84895">
        <ele>1096.100372</ele>
        <time>2021-07-06T13:22:44+0200</time>
      </trkpt>
      <trkpt lat="45.66183" lon="2.84893">
        <ele>1095.127173</ele>
        <time>2021-07-06T13:22:45+0200</time>
      </trkpt>
      <trkpt lat="45.66188" lon="2.8489">
        <ele>1094.514836</ele>
        <time>2021-07-06T13:22:46+0200</time>
      </trkpt>
      <trkpt lat="45.66194" lon="2.84886">
        <ele>1094.180914</ele>
        <time>2021-07-06T13:22:47+0200</time>
      </trkpt>
      <trkpt lat="45.66198" lon="2.84882">
        <ele>1094.209472</ele>
        <time>2021-07-06T13:22:48+0200</time>
      </trkpt>
      <trkpt lat="45.66201" lon="2.84872">
        <ele>1093.713267</ele>
        <time>2021-07-06T13:22:50+0200</time>
      </trkpt>
      <trkpt lat="45.66202" lon="2.84863">
        <ele>1093.432204</ele>
        <time>2021-07-06T13:22:52+0200</time>
      </trkpt>
      <trkpt lat="45.66201" lon="2.84855">
        <ele>1092.357495</ele>
        <time>2021-07-06T13:22:54+0200</time>
      </trkpt>
      <trkpt lat="45.66201" lon="2.84848">
        <ele>1092.643928</ele>
        <time>2021-07-06T13:22:56+0200</time>
      </trkpt>
      <trkpt lat="45.66202" lon="2.84841">
        <ele>1092.740317</ele>
        <time>2021-07-06T13:22:58+0200</time>
      </trkpt>
      <trkpt lat="45.66202" lon="2.84833">
        <ele>1092.911425</ele>
        <time>2021-07-06T13:23:01+0200</time>
      </trkpt>
      <trkpt lat="45.66203" lon="2.84826">
        <ele>1093.322802</ele>
        <time>2021-07-06T13:23:04+0200</time>
      </trkpt>
      <trkpt lat="45.66203" lon="2.84817">
        <ele>1094.343107</ele>
        <time>2021-07-06T13:23:08+0200</time>
      </trkpt>
      <trkpt lat="45.66204" lon="2.8481">
        <ele>1093.787764</ele>
        <time>2021-07-06T13:23:11+0200</time>
      </trkpt>
      <trkpt lat="45.66203" lon="2.84802">
        <ele>1093.531385</ele>
        <time>2021-07-06T13:23:14+0200</time>
      </trkpt>
      <trkpt lat="45.66203" lon="2.84791">
        <ele>1092.732957</ele>
        <time>2021-07-06T13:23:17+0200</time>
      </trkpt>
      <trkpt lat="45.66205" lon="2.84781">
        <ele>1091.608968</ele>
        <time>2021-07-06T13:23:19+0200</time>
      </trkpt>
      <trkpt lat="45.66209" lon="2.84777">
        <ele>1091.044246</ele>
        <time>2021-07-06T13:23:20+0200</time>
      </trkpt>
      <trkpt lat="45.66213" lon="2.84773">
        <ele>1090.276338</ele>
        <time>2021-07-06T13:23:21+0200</time>
      </trkpt>
      <trkpt lat="45.66219" lon="2.84771">
        <ele>1089.866606</ele>
        <time>2021-07-06T13:23:22+0200</time>
      </trkpt>
      <trkpt lat="45.66223" lon="2.84769">
        <ele>1089.449883</ele>
        <time>2021-07-06T13:23:23+0200</time>
      </trkpt>
      <trkpt lat="45.66229" lon="2.84768">
        <ele>1088.865858</ele>
        <time>2021-07-06T13:23:24+0200</time>
      </trkpt>
      <trkpt lat="45.66234" lon="2.84768">
        <ele>1089.126546</ele>
        <time>2021-07-06T13:23:25+0200</time>
      </trkpt>
      <trkpt lat="45.6624" lon="2.84767">
        <ele>1088.856464</ele>
        <time>2021-07-06T13:23:26+0200</time>
      </trkpt>
      <trkpt lat="45.66245" lon="2.84765">
        <ele>1088.407291</ele>
        <time>2021-07-06T13:23:27+0200</time>
      </trkpt>
      <trkpt lat="45.6625" lon="2.84763">
        <ele>1087.814234</ele>
        <time>2021-07-06T13:23:28+0200</time>
      </trkpt>
      <trkpt lat="45.66256" lon="2.84761">
        <ele>1087.711143</ele>
        <time>2021-07-06T13:23:29+0200</time>
      </trkpt>
      <trkpt lat="45.66261" lon="2.84759">
        <ele>1087.387922</ele>
        <time>2021-07-06T13:23:30+0200</time>
      </trkpt>
      <trkpt lat="45.66266" lon="2.84756">
        <ele>1087.265582</ele>
        <time>2021-07-06T13:23:31+0200</time>
      </trkpt>
      <trkpt lat="45.66272" lon="2.84753">
        <ele>1086.874173</ele>
        <time>2021-07-06T13:23:32+0200</time>
      </trkpt>
      <trkpt lat="45.66277" lon="2.84748">
        <ele>1086.62299</ele>
        <time>2021-07-06T13:23:33+0200</time>
      </trkpt>
      <trkpt lat="45.66282" lon="2.84744">
        <ele>1086.693299</ele>
        <time>2021-07-06T13:23:34+0200</time>
      </trkpt>
      <trkpt lat="45.66287" lon="2.8474">
        <ele>1086.486595</ele>
        <time>2021-07-06T13:23:35+0200</time>
      </trkpt>
      <trkpt lat="45.66292" lon="2.84737">
        <ele>1086.603749</ele>
        <time>2021-07-06T13:23:36+0200</time>
      </trkpt>
      <trkpt lat="45.66296" lon="2.84732">
        <ele>1086.599849</ele>
        <time>2021-07-06T13:23:37+0200</time>
      </trkpt>
      <trkpt lat="45.66301" lon="2.84727">
        <ele>1086.333915</ele>
        <time>2021-07-06T13:23:38+0200</time>
      </trkpt>
      <trkpt lat="45.66306" lon="2.84723">
        <ele>1085.878202</ele>
        <time>2021-07-06T13:23:39+0200</time>
      </trkpt>
      <trkpt lat="45.66312" lon="2.84719">
        <ele>1085.195551</ele>
        <time>2021-07-06T13:23:40+0200</time>
      </trkpt>
      <trkpt lat="45.66318" lon="2.84719">
        <ele>1084.843341</ele>
        <time>2021-07-06T13:23:41+0200</time>
      </trkpt>
      <trkpt lat="45.66324" lon="2.84722">
        <ele>1085.569878</ele>
        <time>2021-07-06T13:23:42+0200</time>
      </trkpt>
      <trkpt lat="45.66328" lon="2.84727">
        <ele>1086.039038</ele>
        <time>2021-07-06T13:23:43+0200</time>
      </trkpt>
      <trkpt lat="45.66334" lon="2.84735">
        <ele>1086.51933</ele>
        <time>2021-07-06T13:23:45+0200</time>
      </trkpt>
      <trkpt lat="45.66339" lon="2.84739">
        <ele>1086.773822</ele>
        <time>2021-07-06T13:23:47+0200</time>
      </trkpt>
      <trkpt lat="45.66344" lon="2.84744">
        <ele>1087.197664</ele>
        <time>2021-07-06T13:23:49+0200</time>
      </trkpt>
      <trkpt lat="45.66349" lon="2.84748">
        <ele>1087.233865</ele>
        <time>2021-07-06T13:23:51+0200</time>
      </trkpt>
      <trkpt lat="45.66355" lon="2.84752">
        <ele>1088.228971</ele>
        <time>2021-07-06T13:23:53+0200</time>
      </trkpt>
      <trkpt lat="45.66361" lon="2.84756">
        <ele>1088.637323</ele>
        <time>2021-07-06T13:23:55+0200</time>
      </trkpt>
      <trkpt lat="45.66366" lon="2.84758">
        <ele>1088.603956</ele>
        <time>2021-07-06T13:23:57+0200</time>
      </trkpt>
      <trkpt lat="45.66371" lon="2.84762">
        <ele>1088.661425</ele>
        <time>2021-07-06T13:23:59+0200</time>
      </trkpt>
      <trkpt lat="45.66376" lon="2.84764">
        <ele>1088.293203</ele>
        <time>2021-07-06T13:24:01+0200</time>
      </trkpt>
      <trkpt lat="45.66382" lon="2.84767">
        <ele>1088.09343</ele>
        <time>2021-07-06T13:24:04+0200</time>
      </trkpt>
      <trkpt lat="45.66387" lon="2.8477">
        <ele>1087.989768</ele>
        <time>2021-07-06T13:24:07+0200</time>
      </trkpt>
      <trkpt lat="45.66392" lon="2.84773">
        <ele>1087.519053</ele>
        <time>2021-07-06T13:24:09+0200</time>
      </trkpt>
      <trkpt lat="45.66398" lon="2.84776">
        <ele>1087.532054</ele>
        <time>2021-07-06T13:24:11+0200</time>
      </trkpt>
      <trkpt lat="45.66404" lon="2.84781">
        <ele>1087.114146</ele>
        <time>2021-07-06T13:24:13+0200</time>
      </trkpt>
      <trkpt lat="45.66412" lon="2.84784">
        <ele>1086.136954</ele>
        <time>2021-07-06T13:24:15+0200</time>
      </trkpt>
      <trkpt lat="45.66419" lon="2.8479">
        <ele>1085.342541</ele>
        <time>2021-07-06T13:24:17+0200</time>
      </trkpt>
      <trkpt lat="45.66427" lon="2.84796">
        <ele>1084.697144</ele>
        <time>2021-07-06T13:24:19+0200</time>
      </trkpt>
      <trkpt lat="45.66431" lon="2.848">
        <ele>1084.425254</ele>
        <time>2021-07-06T13:24:20+0200</time>
      </trkpt>
      <trkpt lat="45.66436" lon="2.84804">
        <ele>1084.103852</ele>
        <time>2021-07-06T13:24:21+0200</time>
      </trkpt>
      <trkpt lat="45.66441" lon="2.84807">
        <ele>1084.155665</ele>
        <time>2021-07-06T13:24:22+0200</time>
      </trkpt>
      <trkpt lat="45.66446" lon="2.84811">
        <ele>1083.862373</ele>
        <time>2021-07-06T13:24:23+0200</time>
      </trkpt>
      <trkpt lat="45.66451" lon="2.84816">
        <ele>1083.731036</ele>
        <time>2021-07-06T13:24:24+0200</time>
      </trkpt>
      <trkpt lat="45.66456" lon="2.8482">
        <ele>1083.275973</ele>
        <time>2021-07-06T13:24:25+0200</time>
      </trkpt>
      <trkpt lat="45.66461" lon="2.84824">
        <ele>1082.752666</ele>
        <time>2021-07-06T13:24:26+0200</time>
      </trkpt>
      <trkpt lat="45.66467" lon="2.84828">
        <ele>1081.85457</ele>
        <time>2021-07-06T13:24:27+0200</time>
      </trkpt>
      <trkpt lat="45.66473" lon="2.84832">
        <ele>1081.060878</ele>
        <time>2021-07-06T13:24:28+0200</time>
      </trkpt>
      <trkpt lat="45.66479" lon="2.84836">
        <ele>1080.659002</ele>
        <time>2021-07-06T13:24:29+0200</time>
      </trkpt>
      <trkpt lat="45.66485" lon="2.84841">
        <ele>1079.922005</ele>
        <time>2021-07-06T13:24:30+0200</time>
      </trkpt>
      <trkpt lat="45.66491" lon="2.84845">
        <ele>1079.378614</ele>
        <time>2021-07-06T13:24:31+0200</time>
      </trkpt>
      <trkpt lat="45.66498" lon="2.84849">
        <ele>1078.972924</ele>
        <time>2021-07-06T13:24:32+0200</time>
      </trkpt>
      <trkpt lat="45.66505" lon="2.84853">
        <ele>1078.500796</ele>
        <time>2021-07-06T13:24:33+0200</time>
      </trkpt>
      <trkpt lat="45.66513" lon="2.84856">
        <ele>1078.174229</ele>
        <time>2021-07-06T13:24:34+0200</time>
      </trkpt>
      <trkpt lat="45.6652" lon="2.8486">
        <ele>1077.586093</ele>
        <time>2021-07-06T13:24:35+0200</time>
      </trkpt>
      <trkpt lat="45.66527" lon="2.84865">
        <ele>1077.455817</ele>
        <time>2021-07-06T13:24:36+0200</time>
      </trkpt>
      <trkpt lat="45.66535" lon="2.84868">
        <ele>1077.123647</ele>
        <time>2021-07-06T13:24:37+0200</time>
      </trkpt>
      <trkpt lat="45.66542" lon="2.84871">
        <ele>1076.898868</ele>
        <time>2021-07-06T13:24:38+0200</time>
      </trkpt>
      <trkpt lat="45.6655" lon="2.84876">
        <ele>1076.453341</ele>
        <time>2021-07-06T13:24:39+0200</time>
      </trkpt>
      <trkpt lat="45.66558" lon="2.84881">
        <ele>1076.380182</ele>
        <time>2021-07-06T13:24:40+0200</time>
      </trkpt>
      <trkpt lat="45.66565" lon="2.84885">
        <ele>1076.160302</ele>
        <time>2021-07-06T13:24:41+0200</time>
      </trkpt>
      <trkpt lat="45.66574" lon="2.84889">
        <ele>1076.063588</ele>
        <time>2021-07-06T13:24:42+0200</time>
      </trkpt>
      <trkpt lat="45.66581" lon="2.84894">
        <ele>1075.701841</ele>
        <time>2021-07-06T13:24:43+0200</time>
      </trkpt>
      <trkpt lat="45.66589" lon="2.84898">
        <ele>1075.231367</ele>
        <time>2021-07-06T13:24:44+0200</time>
      </trkpt>
      <trkpt lat="45.66597" lon="2.84902">
        <ele>1075.016768</ele>
        <time>2021-07-06T13:24:45+0200</time>
      </trkpt>
      <trkpt lat="45.66606" lon="2.84906">
        <ele>1074.569214</ele>
        <time>2021-07-06T13:24:46+0200</time>
      </trkpt>
      <trkpt lat="45.66614" lon="2.84908">
        <ele>1074.059902</ele>
        <time>2021-07-06T13:24:47+0200</time>
      </trkpt>
      <trkpt lat="45.66622" lon="2.84912">
        <ele>1073.824518</ele>
        <time>2021-07-06T13:24:48+0200</time>
      </trkpt>
      <trkpt lat="45.66631" lon="2.84913">
        <ele>1073.527163</ele>
        <time>2021-07-06T13:24:49+0200</time>
      </trkpt>
      <trkpt lat="45.6664" lon="2.84914">
        <ele>1072.938286</ele>
        <time>2021-07-06T13:24:50+0200</time>
      </trkpt>
      <trkpt lat="45.66649" lon="2.84916">
        <ele>1072.383085</ele>
        <time>2021-07-06T13:24:51+0200</time>
      </trkpt>
      <trkpt lat="45.66657" lon="2.84917">
        <ele>1071.912318</ele>
        <time>2021-07-06T13:24:52+0200</time>
      </trkpt>
      <trkpt lat="45.66666" lon="2.8492">
        <ele>1071.318062</ele>
        <time>2021-07-06T13:24:53+0200</time>
      </trkpt>
      <trkpt lat="45.66675" lon="2.84923">
        <ele>1070.175972</ele>
        <time>2021-07-06T13:24:54+0200</time>
      </trkpt>
      <trkpt lat="45.66684" lon="2.84927">
        <ele>1069.512256</ele>
        <time>2021-07-06T13:24:55+0200</time>
      </trkpt>
      <trkpt lat="45.66694" lon="2.8493">
        <ele>1068.786239</ele>
        <time>2021-07-06T13:24:56+0200</time>
      </trkpt>
      <trkpt lat="45.66703" lon="2.84934">
        <ele>1068.175148</ele>
        <time>2021-07-06T13:24:57+0200</time>
      </trkpt>
      <trkpt lat="45.66713" lon="2.84938">
        <ele>1067.53651</ele>
        <time>2021-07-06T13:24:58+0200</time>
      </trkpt>
      <trkpt lat="45.66723" lon="2.84942">
        <ele>1066.388075</ele>
        <time>2021-07-06T13:24:59+0200</time>
      </trkpt>
      <trkpt lat="45.66734" lon="2.84946">
        <ele>1065.200513</ele>
        <time>2021-07-06T13:25:00+0200</time>
      </trkpt>
      <trkpt lat="45.66745" lon="2.8495">
        <ele>1064.249933</ele>
        <time>2021-07-06T13:25:01+0200</time>
      </trkpt>
      <trkpt lat="45.66756" lon="2.84954">
        <ele>1063.053777</ele>
        <time>2021-07-06T13:25:02+0200</time>
      </trkpt>
      <trkpt lat="45.66767" lon="2.84958">
        <ele>1061.760762</ele>
        <time>2021-07-06T13:25:03+0200</time>
      </trkpt>
      <trkpt lat="45.66779" lon="2.84962">
        <ele>1060.251125</ele>
        <time>2021-07-06T13:25:04+0200</time>
      </trkpt>
      <trkpt lat="45.6679" lon="2.84966">
        <ele>1058.75658</ele>
        <time>2021-07-06T13:25:05+0200</time>
      </trkpt>
      <trkpt lat="45.66803" lon="2.84971">
        <ele>1057.656394</ele>
        <time>2021-07-06T13:25:06+0200</time>
      </trkpt>
      <trkpt lat="45.66815" lon="2.84975">
        <ele>1056.537432</ele>
        <time>2021-07-06T13:25:07+0200</time>
      </trkpt>
      <trkpt lat="45.66826" lon="2.84981">
        <ele>1055.27813</ele>
        <time>2021-07-06T13:25:08+0200</time>
      </trkpt>
      <trkpt lat="45.66838" lon="2.84986">
        <ele>1054.847937</ele>
        <time>2021-07-06T13:25:08+0200</time>
      </trkpt>
      <trkpt lat="45.6685" lon="2.8499">
        <ele>1054.01747</ele>
        <time>2021-07-06T13:25:09+0200</time>
      </trkpt>
      <trkpt lat="45.66862" lon="2.84996">
        <ele>1053.39067</ele>
        <time>2021-07-06T13:25:10+0200</time>
      </trkpt>
      <trkpt lat="45.66874" lon="2.85001">
        <ele>1051.819825</ele>
        <time>2021-07-06T13:25:11+0200</time>
      </trkpt>
      <trkpt lat="45.66887" lon="2.85007">
        <ele>1049.920534</ele>
        <time>2021-07-06T13:25:12+0200</time>
      </trkpt>
      <trkpt lat="45.669" lon="2.85013">
        <ele>1048.400769</ele>
        <time>2021-07-06T13:25:13+0200</time>
      </trkpt>
      <trkpt lat="45.66913" lon="2.8502">
        <ele>1046.778</ele>
        <time>2021-07-06T13:25:14+0200</time>
      </trkpt>
      <trkpt lat="45.66926" lon="2.85027">
        <ele>1045.353793</ele>
        <time>2021-07-06T13:25:15+0200</time>
      </trkpt>
      <trkpt lat="45.6694" lon="2.85033">
        <ele>1044.241441</ele>
        <time>2021-07-06T13:25:16+0200</time>
      </trkpt>
      <trkpt lat="45.66953" lon="2.8504">
        <ele>1043.006381</ele>
        <time>2021-07-06T13:25:17+0200</time>
      </trkpt>
      <trkpt lat="45.66966" lon="2.85047">
        <ele>1041.970361</ele>
        <time>2021-07-06T13:25:18+0200</time>
      </trkpt>
      <trkpt lat="45.66978" lon="2.85052">
        <ele>1041.220186</ele>
        <time>2021-07-06T13:25:19+0200</time>
      </trkpt>
      <trkpt lat="45.6699" lon="2.85057">
        <ele>1040.136763</ele>
        <time>2021-07-06T13:25:20+0200</time>
      </trkpt>
      <trkpt lat="45.67002" lon="2.85059">
        <ele>1039.403216</ele>
        <time>2021-07-06T13:25:21+0200</time>
      </trkpt>
      <trkpt lat="45.67014" lon="2.85064">
        <ele>1038.266647</ele>
        <time>2021-07-06T13:25:22+0200</time>
      </trkpt>
      <trkpt lat="45.67026" lon="2.85069">
        <ele>1037.611287</ele>
        <time>2021-07-06T13:25:23+0200</time>
      </trkpt>
      <trkpt lat="45.67038" lon="2.85073">
        <ele>1036.716012</ele>
        <time>2021-07-06T13:25:24+0200</time>
      </trkpt>
      <trkpt lat="45.67049" lon="2.85077">
        <ele>1036.07506</ele>
        <time>2021-07-06T13:25:25+0200</time>
      </trkpt>
      <trkpt lat="45.6706" lon="2.85081">
        <ele>1035.473968</ele>
        <time>2021-07-06T13:25:26+0200</time>
      </trkpt>
      <trkpt lat="45.6707" lon="2.85085">
        <ele>1034.987441</ele>
        <time>2021-07-06T13:25:27+0200</time>
      </trkpt>
      <trkpt lat="45.67081" lon="2.85089">
        <ele>1034.769664</ele>
        <time>2021-07-06T13:25:28+0200</time>
      </trkpt>
      <trkpt lat="45.67091" lon="2.85092">
        <ele>1034.51916</ele>
        <time>2021-07-06T13:25:29+0200</time>
      </trkpt>
      <trkpt lat="45.67102" lon="2.85095">
        <ele>1034.098703</ele>
        <time>2021-07-06T13:25:30+0200</time>
      </trkpt>
      <trkpt lat="45.67112" lon="2.85098">
        <ele>1033.765762</ele>
        <time>2021-07-06T13:25:31+0200</time>
      </trkpt>
      <trkpt lat="45.67121" lon="2.85102">
        <ele>1033.591285</ele>
        <time>2021-07-06T13:25:32+0200</time>
      </trkpt>
      <trkpt lat="45.67131" lon="2.85104">
        <ele>1033.294107</ele>
        <time>2021-07-06T13:25:33+0200</time>
      </trkpt>
      <trkpt lat="45.6714" lon="2.85107">
        <ele>1033.046863</ele>
        <time>2021-07-06T13:25:34+0200</time>
      </trkpt>
      <trkpt lat="45.67149" lon="2.85109">
        <ele>1033.015047</ele>
        <time>2021-07-06T13:25:35+0200</time>
      </trkpt>
      <trkpt lat="45.67157" lon="2.8511">
        <ele>1033.186488</ele>
        <time>2021-07-06T13:25:36+0200</time>
      </trkpt>
      <trkpt lat="45.67164" lon="2.85114">
        <ele>1033.133229</ele>
        <time>2021-07-06T13:25:37+0200</time>
      </trkpt>
      <trkpt lat="45.67171" lon="2.85118">
        <ele>1033.164794</ele>
        <time>2021-07-06T13:25:38+0200</time>
      </trkpt>
      <trkpt lat="45.67179" lon="2.85121">
        <ele>1032.952005</ele>
        <time>2021-07-06T13:25:39+0200</time>
      </trkpt>
      <trkpt lat="45.67186" lon="2.85123">
        <ele>1032.810892</ele>
        <time>2021-07-06T13:25:40+0200</time>
      </trkpt>
      <trkpt lat="45.6719" lon="2.85124">
        <ele>1032.686617</ele>
        <time>2021-07-06T13:25:41+0200</time>
      </trkpt>
      <trkpt lat="45.67195" lon="2.85121">
        <ele>1033.366435</ele>
        <time>2021-07-06T13:25:43+0200</time>
      </trkpt>
      <trkpt lat="45.6719" lon="2.85121">
        <ele>1034.69257</ele>
        <time>2021-07-06T13:25:56+0200</time>
      </trkpt>
      <trkpt lat="45.67196" lon="2.85118">
        <ele>1033.985229</ele>
        <time>2021-07-06T13:27:22+0200</time>
      </trkpt>
      <trkpt lat="45.67197" lon="2.8511">
        <ele>1034.239269</ele>
        <time>2021-07-06T13:27:25+0200</time>
      </trkpt>
      <trkpt lat="45.67194" lon="2.85103">
        <ele>1034.716976</ele>
        <time>2021-07-06T13:27:28+0200</time>
      </trkpt>
      <trkpt lat="45.6719" lon="2.85096">
        <ele>1034.631782</ele>
        <time>2021-07-06T13:27:31+0200</time>
      </trkpt>
      <trkpt lat="45.67187" lon="2.85091">
        <ele>1034.485589</ele>
        <time>2021-07-06T13:27:33+0200</time>
      </trkpt>
      <trkpt lat="45.67184" lon="2.85085">
        <ele>1034.063876</ele>
        <time>2021-07-06T13:27:35+0200</time>
      </trkpt>
      <trkpt lat="45.67181" lon="2.85078">
        <ele>1033.880821</ele>
        <time>2021-07-06T13:27:37+0200</time>
      </trkpt>
      <trkpt lat="45.67177" lon="2.85071">
        <ele>1034.034666</ele>
        <time>2021-07-06T13:27:39+0200</time>
      </trkpt>
      <trkpt lat="45.67172" lon="2.85064">
        <ele>1033.875295</ele>
        <time>2021-07-06T13:27:41+0200</time>
      </trkpt>
      <trkpt lat="45.67166" lon="2.85055">
        <ele>1033.766202</ele>
        <time>2021-07-06T13:27:43+0200</time>
      </trkpt>
      <trkpt lat="45.67161" lon="2.85047">
        <ele>1033.411387</ele>
        <time>2021-07-06T13:27:45+0200</time>
      </trkpt>
      <trkpt lat="45.67158" lon="2.85042">
        <ele>1033.335336</ele>
        <time>2021-07-06T13:27:46+0200</time>
      </trkpt>
      <trkpt lat="45.67154" lon="2.85037">
        <ele>1032.849644</ele>
        <time>2021-07-06T13:27:47+0200</time>
      </trkpt>
      <trkpt lat="45.67151" lon="2.85032">
        <ele>1032.281327</ele>
        <time>2021-07-06T13:27:48+0200</time>
      </trkpt>
      <trkpt lat="45.67147" lon="2.85027">
        <ele>1031.567014</ele>
        <time>2021-07-06T13:27:49+0200</time>
      </trkpt>
      <trkpt lat="45.67141" lon="2.85017">
        <ele>1030.824427</ele>
        <time>2021-07-06T13:27:51+0200</time>
      </trkpt>
      <trkpt lat="45.67137" lon="2.85013">
        <ele>1030.344167</ele>
        <time>2021-07-06T13:27:52+0200</time>
      </trkpt>
      <trkpt lat="45.67134" lon="2.85008">
        <ele>1029.909685</ele>
        <time>2021-07-06T13:27:53+0200</time>
      </trkpt>
      <trkpt lat="45.67129" lon="2.85004">
        <ele>1029.537298</ele>
        <time>2021-07-06T13:27:54+0200</time>
      </trkpt>
      <trkpt lat="45.67124" lon="2.85003">
        <ele>1029.150498</ele>
        <time>2021-07-06T13:27:55+0200</time>
      </trkpt>
      <trkpt lat="45.67122" lon="2.84994">
        <ele>1028.557191</ele>
        <time>2021-07-06T13:27:57+0200</time>
      </trkpt>
      <trkpt lat="45.6713" lon="2.84992">
        <ele>1027.349495</ele>
        <time>2021-07-06T13:27:59+0200</time>
      </trkpt>
      <trkpt lat="45.67139" lon="2.84993">
        <ele>1026.389734</ele>
        <time>2021-07-06T13:28:01+0200</time>
      </trkpt>
      <trkpt lat="45.67144" lon="2.84993">
        <ele>1025.460873</ele>
        <time>2021-07-06T13:28:02+0200</time>
      </trkpt>
      <trkpt lat="45.6715" lon="2.84992">
        <ele>1025.32951</ele>
        <time>2021-07-06T13:28:03+0200</time>
      </trkpt>
      <trkpt lat="45.67156" lon="2.84991">
        <ele>1024.925425</ele>
        <time>2021-07-06T13:28:04+0200</time>
      </trkpt>
      <trkpt lat="45.67162" lon="2.84991">
        <ele>1025.000368</ele>
        <time>2021-07-06T13:28:05+0200</time>
      </trkpt>
      <trkpt lat="45.67169" lon="2.8499">
        <ele>1024.12614</ele>
        <time>2021-07-06T13:28:06+0200</time>
      </trkpt>
      <trkpt lat="45.67175" lon="2.8499">
        <ele>1023.261841</ele>
        <time>2021-07-06T13:28:07+0200</time>
      </trkpt>
      <trkpt lat="45.67182" lon="2.84989">
        <ele>1023.305296</ele>
        <time>2021-07-06T13:28:08+0200</time>
      </trkpt>
      <trkpt lat="45.67188" lon="2.8499">
        <ele>1024.09914</ele>
        <time>2021-07-06T13:28:09+0200</time>
      </trkpt>
      <trkpt lat="45.67194" lon="2.8499">
        <ele>1024.445235</ele>
        <time>2021-07-06T13:28:10+0200</time>
      </trkpt>
      <trkpt lat="45.672" lon="2.84991">
        <ele>1024.723935</ele>
        <time>2021-07-06T13:28:11+0200</time>
      </trkpt>
      <trkpt lat="45.67206" lon="2.84988">
        <ele>1025.012501</ele>
        <time>2021-07-06T13:28:12+0200</time>
      </trkpt>
      <trkpt lat="45.6721" lon="2.84984">
        <ele>1024.61351</ele>
        <time>2021-07-06T13:28:13+0200</time>
      </trkpt>
      <trkpt lat="45.67214" lon="2.8498">
        <ele>1023.669532</ele>
        <time>2021-07-06T13:28:14+0200</time>
      </trkpt>
      <trkpt lat="45.67219" lon="2.84975">
        <ele>1023.711955</ele>
        <time>2021-07-06T13:28:15+0200</time>
      </trkpt>
      <trkpt lat="45.67221" lon="2.8497">
        <ele>1022.958086</ele>
        <time>2021-07-06T13:28:16+0200</time>
      </trkpt>
      <trkpt lat="45.67225" lon="2.84966">
        <ele>1022.911784</ele>
        <time>2021-07-06T13:28:17+0200</time>
      </trkpt>
      <trkpt lat="45.67231" lon="2.84958">
        <ele>1023.132289</ele>
        <time>2021-07-06T13:28:19+0200</time>
      </trkpt>
      <trkpt lat="45.67236" lon="2.8495">
        <ele>1023.285151</ele>
        <time>2021-07-06T13:28:21+0200</time>
      </trkpt>
      <trkpt lat="45.6724" lon="2.84941">
        <ele>1023.302524</ele>
        <time>2021-07-06T13:28:23+0200</time>
      </trkpt>
      <trkpt lat="45.67243" lon="2.84933">
        <ele>1023.222483</ele>
        <time>2021-07-06T13:28:25+0200</time>
      </trkpt>
      <trkpt lat="45.67245" lon="2.84927">
        <ele>1023.058912</ele>
        <time>2021-07-06T13:28:27+0200</time>
      </trkpt>
      <trkpt lat="45.67246" lon="2.84918">
        <ele>1022.866783</ele>
        <time>2021-07-06T13:28:29+0200</time>
      </trkpt>
      <trkpt lat="45.67249" lon="2.8491">
        <ele>1023.185011</ele>
        <time>2021-07-06T13:28:31+0200</time>
      </trkpt>
      <trkpt lat="45.67251" lon="2.84902">
        <ele>1023.013189</ele>
        <time>2021-07-06T13:28:33+0200</time>
      </trkpt>
      <trkpt lat="45.67253" lon="2.84894">
        <ele>1023.040578</ele>
        <time>2021-07-06T13:28:35+0200</time>
      </trkpt>
      <trkpt lat="45.67256" lon="2.84885">
        <ele>1023.349576</ele>
        <time>2021-07-06T13:28:37+0200</time>
      </trkpt>
      <trkpt lat="45.6726" lon="2.84877">
        <ele>1022.866034</ele>
        <time>2021-07-06T13:28:39+0200</time>
      </trkpt>
      <trkpt lat="45.67263" lon="2.84866">
        <ele>1023.701433</ele>
        <time>2021-07-06T13:28:41+0200</time>
      </trkpt>
      <trkpt lat="45.67265" lon="2.84856">
        <ele>1023.896567</ele>
        <time>2021-07-06T13:28:43+0200</time>
      </trkpt>
      <trkpt lat="45.67268" lon="2.84845">
        <ele>1023.174005</ele>
        <time>2021-07-06T13:28:45+0200</time>
      </trkpt>
      <trkpt lat="45.67271" lon="2.84835">
        <ele>1023.147134</ele>
        <time>2021-07-06T13:28:47+0200</time>
      </trkpt>
      <trkpt lat="45.67275" lon="2.8483">
        <ele>1023.287477</ele>
        <time>2021-07-06T13:28:49+0200</time>
      </trkpt>
      <trkpt lat="45.67279" lon="2.84824">
        <ele>1023.39964</ele>
        <time>2021-07-06T13:28:51+0200</time>
      </trkpt>
      <trkpt lat="45.67281" lon="2.84815">
        <ele>1022.803262</ele>
        <time>2021-07-06T13:28:54+0200</time>
      </trkpt>
      <trkpt lat="45.67283" lon="2.84806">
        <ele>1022.435347</ele>
        <time>2021-07-06T13:28:56+0200</time>
      </trkpt>
      <trkpt lat="45.67285" lon="2.84797">
        <ele>1021.985097</ele>
        <time>2021-07-06T13:28:58+0200</time>
      </trkpt>
      <trkpt lat="45.67287" lon="2.84789">
        <ele>1021.713306</ele>
        <time>2021-07-06T13:29:00+0200</time>
      </trkpt>
      <trkpt lat="45.67291" lon="2.84779">
        <ele>1020.407787</ele>
        <time>2021-07-06T13:29:02+0200</time>
      </trkpt>
      <trkpt lat="45.67295" lon="2.84768">
        <ele>1019.989939</ele>
        <time>2021-07-06T13:29:04+0200</time>
      </trkpt>
      <trkpt lat="45.67296" lon="2.84761">
        <ele>1019.380045</ele>
        <time>2021-07-06T13:29:05+0200</time>
      </trkpt>
      <trkpt lat="45.67298" lon="2.84752">
        <ele>1018.114725</ele>
        <time>2021-07-06T13:29:06+0200</time>
      </trkpt>
      <trkpt lat="45.673" lon="2.84743">
        <ele>1017.074592</ele>
        <time>2021-07-06T13:29:07+0200</time>
      </trkpt>
      <trkpt lat="45.67302" lon="2.84734">
        <ele>1016.646182</ele>
        <time>2021-07-06T13:29:08+0200</time>
      </trkpt>
      <trkpt lat="45.67305" lon="2.84724">
        <ele>1015.710931</ele>
        <time>2021-07-06T13:29:09+0200</time>
      </trkpt>
      <trkpt lat="45.67308" lon="2.84713">
        <ele>1014.282698</ele>
        <time>2021-07-06T13:29:10+0200</time>
      </trkpt>
      <trkpt lat="45.6731" lon="2.84703">
        <ele>1012.276221</ele>
        <time>2021-07-06T13:29:11+0200</time>
      </trkpt>
      <trkpt lat="45.67311" lon="2.84693">
        <ele>1011.424583</ele>
        <time>2021-07-06T13:29:12+0200</time>
      </trkpt>
      <trkpt lat="45.67313" lon="2.84681">
        <ele>1010.176297</ele>
        <time>2021-07-06T13:29:13+0200</time>
      </trkpt>
      <trkpt lat="45.67315" lon="2.84669">
        <ele>1008.652641</ele>
        <time>2021-07-06T13:29:14+0200</time>
      </trkpt>
      <trkpt lat="45.67315" lon="2.84661">
        <ele>1007.683796</ele>
        <time>2021-07-06T13:29:15+0200</time>
      </trkpt>
      <trkpt lat="45.67315" lon="2.84652">
        <ele>1006.523723</ele>
        <time>2021-07-06T13:29:16+0200</time>
      </trkpt>
      <trkpt lat="45.67313" lon="2.84642">
        <ele>1005.383345</ele>
        <time>2021-07-06T13:29:17+0200</time>
      </trkpt>
      <trkpt lat="45.6731" lon="2.84631">
        <ele>1004.055849</ele>
        <time>2021-07-06T13:29:18+0200</time>
      </trkpt>
      <trkpt lat="45.67308" lon="2.84621">
        <ele>1002.156158</ele>
        <time>2021-07-06T13:29:19+0200</time>
      </trkpt>
      <trkpt lat="45.67306" lon="2.84614">
        <ele>1001.063671</ele>
        <time>2021-07-06T13:29:20+0200</time>
      </trkpt>
      <trkpt lat="45.67309" lon="2.84602">
        <ele>998.986867</ele>
        <time>2021-07-06T13:29:22+0200</time>
      </trkpt>
      <trkpt lat="45.67314" lon="2.84598">
        <ele>998.215917</ele>
        <time>2021-07-06T13:29:23+0200</time>
      </trkpt>
      <trkpt lat="45.6732" lon="2.84597">
        <ele>997.190793</ele>
        <time>2021-07-06T13:29:24+0200</time>
      </trkpt>
      <trkpt lat="45.67326" lon="2.84599">
        <ele>996.446273</ele>
        <time>2021-07-06T13:29:25+0200</time>
      </trkpt>
      <trkpt lat="45.67333" lon="2.84601">
        <ele>996.046132</ele>
        <time>2021-07-06T13:29:26+0200</time>
      </trkpt>
      <trkpt lat="45.67339" lon="2.84606">
        <ele>995.129335</ele>
        <time>2021-07-06T13:29:27+0200</time>
      </trkpt>
      <trkpt lat="45.67346" lon="2.84612">
        <ele>994.507073</ele>
        <time>2021-07-06T13:29:28+0200</time>
      </trkpt>
      <trkpt lat="45.67352" lon="2.8462">
        <ele>992.816248</ele>
        <time>2021-07-06T13:29:29+0200</time>
      </trkpt>
      <trkpt lat="45.67356" lon="2.8463">
        <ele>992.029367</ele>
        <time>2021-07-06T13:29:30+0200</time>
      </trkpt>
      <trkpt lat="45.67361" lon="2.84638">
        <ele>991.510512</ele>
        <time>2021-07-06T13:29:31+0200</time>
      </trkpt>
      <trkpt lat="45.67366" lon="2.84645">
        <ele>991.337406</ele>
        <time>2021-07-06T13:29:32+0200</time>
      </trkpt>
      <trkpt lat="45.67372" lon="2.8465">
        <ele>990.914194</ele>
        <time>2021-07-06T13:29:33+0200</time>
      </trkpt>
      <trkpt lat="45.67378" lon="2.84654">
        <ele>990.47516</ele>
        <time>2021-07-06T13:29:34+0200</time>
      </trkpt>
      <trkpt lat="45.67385" lon="2.84656">
        <ele>989.496095</ele>
        <time>2021-07-06T13:29:35+0200</time>
      </trkpt>
      <trkpt lat="45.67393" lon="2.84658">
        <ele>988.203689</ele>
        <time>2021-07-06T13:29:36+0200</time>
      </trkpt>
      <trkpt lat="45.67401" lon="2.84659">
        <ele>988.138029</ele>
        <time>2021-07-06T13:29:37+0200</time>
      </trkpt>
      <trkpt lat="45.67408" lon="2.84662">
        <ele>987.591447</ele>
        <time>2021-07-06T13:29:38+0200</time>
      </trkpt>
      <trkpt lat="45.67416" lon="2.84661">
        <ele>986.916841</ele>
        <time>2021-07-06T13:29:39+0200</time>
      </trkpt>
      <trkpt lat="45.67425" lon="2.84658">
        <ele>986.049552</ele>
        <time>2021-07-06T13:29:40+0200</time>
      </trkpt>
      <trkpt lat="45.67434" lon="2.84656">
        <ele>985.280318</ele>
        <time>2021-07-06T13:29:41+0200</time>
      </trkpt>
      <trkpt lat="45.67442" lon="2.84654">
        <ele>984.298505</ele>
        <time>2021-07-06T13:29:42+0200</time>
      </trkpt>
      <trkpt lat="45.67452" lon="2.84649">
        <ele>983.633951</ele>
        <time>2021-07-06T13:29:44+0200</time>
      </trkpt>
      <trkpt lat="45.67444" lon="2.84646">
        <ele>984.715488</ele>
        <time>2021-07-06T13:29:45+0200</time>
      </trkpt>
      <trkpt lat="45.67448" lon="2.8464">
        <ele>982.589691</ele>
        <time>2021-07-06T13:29:49+0200</time>
      </trkpt>
      <trkpt lat="45.67452" lon="2.84634">
        <ele>981.353165</ele>
        <time>2021-07-06T13:29:53+0200</time>
      </trkpt>
      <trkpt lat="45.67458" lon="2.84625">
        <ele>980.654412</ele>
        <time>2021-07-06T13:29:55+0200</time>
      </trkpt>
      <trkpt lat="45.67464" lon="2.84615">
        <ele>980.123608</ele>
        <time>2021-07-06T13:29:56+0200</time>
      </trkpt>
      <trkpt lat="45.6747" lon="2.84605">
        <ele>979.509705</ele>
        <time>2021-07-06T13:29:57+0200</time>
      </trkpt>
      <trkpt lat="45.67477" lon="2.84596">
        <ele>978.680297</ele>
        <time>2021-07-06T13:29:58+0200</time>
      </trkpt>
      <trkpt lat="45.67484" lon="2.84582">
        <ele>977.35972</ele>
        <time>2021-07-06T13:29:59+0200</time>
      </trkpt>
      <trkpt lat="45.67492" lon="2.84575">
        <ele>975.820983</ele>
        <time>2021-07-06T13:30:00+0200</time>
      </trkpt>
      <trkpt lat="45.67498" lon="2.84564">
        <ele>974.024116</ele>
        <time>2021-07-06T13:30:01+0200</time>
      </trkpt>
      <trkpt lat="45.67504" lon="2.84548">
        <ele>971.972025</ele>
        <time>2021-07-06T13:30:02+0200</time>
      </trkpt>
      <trkpt lat="45.67511" lon="2.84534">
        <ele>969.052495</ele>
        <time>2021-07-06T13:30:03+0200</time>
      </trkpt>
      <trkpt lat="45.67519" lon="2.84517">
        <ele>955.826736</ele>
        <time>2021-07-06T13:30:04+0200</time>
      </trkpt>
      <trkpt lat="45.67527" lon="2.845">
        <ele>952.500496</ele>
        <time>2021-07-06T13:30:05+0200</time>
      </trkpt>
      <trkpt lat="45.67534" lon="2.84485">
        <ele>948.989045</ele>
        <time>2021-07-06T13:30:06+0200</time>
      </trkpt>
      <trkpt lat="45.67541" lon="2.84469">
        <ele>946.297186</ele>
        <time>2021-07-06T13:30:07+0200</time>
      </trkpt>
      <trkpt lat="45.67547" lon="2.84452">
        <ele>944.7995</ele>
        <time>2021-07-06T13:30:08+0200</time>
      </trkpt>
      <trkpt lat="45.67552" lon="2.84435">
        <ele>943.430016</ele>
        <time>2021-07-06T13:30:09+0200</time>
      </trkpt>
      <trkpt lat="45.67558" lon="2.8442">
        <ele>941.990657</ele>
        <time>2021-07-06T13:30:10+0200</time>
      </trkpt>
      <trkpt lat="45.67566" lon="2.84406">
        <ele>940.390097</ele>
        <time>2021-07-06T13:30:11+0200</time>
      </trkpt>
      <trkpt lat="45.67573" lon="2.84392">
        <ele>938.862537</ele>
        <time>2021-07-06T13:30:12+0200</time>
      </trkpt>
      <trkpt lat="45.67581" lon="2.84379">
        <ele>937.171971</ele>
        <time>2021-07-06T13:30:13+0200</time>
      </trkpt>
      <trkpt lat="45.67589" lon="2.84365">
        <ele>935.188568</ele>
        <time>2021-07-06T13:30:14+0200</time>
      </trkpt>
      <trkpt lat="45.67597" lon="2.84351">
        <ele>933.62911</ele>
        <time>2021-07-06T13:30:15+0200</time>
      </trkpt>
      <trkpt lat="45.67604" lon="2.84337">
        <ele>932.303311</ele>
        <time>2021-07-06T13:30:16+0200</time>
      </trkpt>
      <trkpt lat="45.67612" lon="2.84323">
        <ele>930.668685</ele>
        <time>2021-07-06T13:30:17+0200</time>
      </trkpt>
      <trkpt lat="45.67622" lon="2.8431">
        <ele>929.016682</ele>
        <time>2021-07-06T13:30:18+0200</time>
      </trkpt>
      <trkpt lat="45.67632" lon="2.84298">
        <ele>927.898641</ele>
        <time>2021-07-06T13:30:19+0200</time>
      </trkpt>
      <trkpt lat="45.67641" lon="2.84286">
        <ele>926.379802</ele>
        <time>2021-07-06T13:30:20+0200</time>
      </trkpt>
      <trkpt lat="45.67651" lon="2.84272">
        <ele>924.159359</ele>
        <time>2021-07-06T13:30:21+0200</time>
      </trkpt>
      <trkpt lat="45.6766" lon="2.8426">
        <ele>922.374163</ele>
        <time>2021-07-06T13:30:22+0200</time>
      </trkpt>
      <trkpt lat="45.67669" lon="2.84249">
        <ele>921.036295</ele>
        <time>2021-07-06T13:30:23+0200</time>
      </trkpt>
      <trkpt lat="45.67679" lon="2.8424">
        <ele>919.510317</ele>
        <time>2021-07-06T13:30:24+0200</time>
      </trkpt>
      <trkpt lat="45.67691" lon="2.8423">
        <ele>917.466775</ele>
        <time>2021-07-06T13:30:25+0200</time>
      </trkpt>
      <trkpt lat="45.67701" lon="2.84221">
        <ele>914.862741</ele>
        <time>2021-07-06T13:30:26+0200</time>
      </trkpt>
      <trkpt lat="45.6771" lon="2.84212">
        <ele>913.012587</ele>
        <time>2021-07-06T13:30:27+0200</time>
      </trkpt>
      <trkpt lat="45.67722" lon="2.84206">
        <ele>910.404259</ele>
        <time>2021-07-06T13:30:28+0200</time>
      </trkpt>
      <trkpt lat="45.67736" lon="2.84204">
        <ele>908.186093</ele>
        <time>2021-07-06T13:30:29+0200</time>
      </trkpt>
      <trkpt lat="45.67748" lon="2.842">
        <ele>906.165946</ele>
        <time>2021-07-06T13:30:30+0200</time>
      </trkpt>
      <trkpt lat="45.67764" lon="2.84205">
        <ele>911.080703</ele>
        <time>2021-07-06T13:30:31+0200</time>
      </trkpt>
      <trkpt lat="45.67778" lon="2.84203">
        <ele>908.857298</ele>
        <time>2021-07-06T13:30:32+0200</time>
      </trkpt>
      <trkpt lat="45.67792" lon="2.84201">
        <ele>906.866294</ele>
        <time>2021-07-06T13:30:33+0200</time>
      </trkpt>
      <trkpt lat="45.67807" lon="2.842">
        <ele>904.306522</ele>
        <time>2021-07-06T13:30:34+0200</time>
      </trkpt>
      <trkpt lat="45.67822" lon="2.84201">
        <ele>902.084389</ele>
        <time>2021-07-06T13:30:35+0200</time>
      </trkpt>
      <trkpt lat="45.67838" lon="2.842">
        <ele>899.849185</ele>
        <time>2021-07-06T13:30:36+0200</time>
      </trkpt>
      <trkpt lat="45.67854" lon="2.84199">
        <ele>898.406185</ele>
        <time>2021-07-06T13:30:37+0200</time>
      </trkpt>
      <trkpt lat="45.6787" lon="2.84196">
        <ele>896.60689</ele>
        <time>2021-07-06T13:30:38+0200</time>
      </trkpt>
      <trkpt lat="45.67886" lon="2.84194">
        <ele>896.778355</ele>
        <time>2021-07-06T13:30:39+0200</time>
      </trkpt>
      <trkpt lat="45.67902" lon="2.84195">
        <ele>896.54503</ele>
        <time>2021-07-06T13:30:40+0200</time>
      </trkpt>
      <trkpt lat="45.67915" lon="2.84197">
        <ele>896.299095</ele>
        <time>2021-07-06T13:30:41+0200</time>
      </trkpt>
      <trkpt lat="45.67929" lon="2.84198">
        <ele>896.069749</ele>
        <time>2021-07-06T13:30:42+0200</time>
      </trkpt>
      <trkpt lat="45.67942" lon="2.84201">
        <ele>896.239466</ele>
        <time>2021-07-06T13:30:43+0200</time>
      </trkpt>
      <trkpt lat="45.67953" lon="2.84205">
        <ele>896.343489</ele>
        <time>2021-07-06T13:30:44+0200</time>
      </trkpt>
      <trkpt lat="45.67963" lon="2.84211">
        <ele>896.031267</ele>
        <time>2021-07-06T13:30:45+0200</time>
      </trkpt>
      <trkpt lat="45.67974" lon="2.84218">
        <ele>895.997733</ele>
        <time>2021-07-06T13:30:46+0200</time>
      </trkpt>
      <trkpt lat="45.67985" lon="2.84225">
        <ele>895.072405</ele>
        <time>2021-07-06T13:30:47+0200</time>
      </trkpt>
      <trkpt lat="45.67995" lon="2.84232">
        <ele>894.589214</ele>
        <time>2021-07-06T13:30:48+0200</time>
      </trkpt>
      <trkpt lat="45.68006" lon="2.84239">
        <ele>894.104707</ele>
        <time>2021-07-06T13:30:49+0200</time>
      </trkpt>
      <trkpt lat="45.68016" lon="2.84246">
        <ele>890.166758</ele>
        <time>2021-07-06T13:30:50+0200</time>
      </trkpt>
      <trkpt lat="45.68023" lon="2.8425">
        <ele>889.881099</ele>
        <time>2021-07-06T13:30:51+0200</time>
      </trkpt>
      <trkpt lat="45.6803" lon="2.84256">
        <ele>889.665925</ele>
        <time>2021-07-06T13:30:52+0200</time>
      </trkpt>
      <trkpt lat="45.68038" lon="2.84261">
        <ele>889.330833</ele>
        <time>2021-07-06T13:30:53+0200</time>
      </trkpt>
      <trkpt lat="45.68044" lon="2.84265">
        <ele>889.330307</ele>
        <time>2021-07-06T13:30:54+0200</time>
      </trkpt>
      <trkpt lat="45.6805" lon="2.84266">
        <ele>888.869467</ele>
        <time>2021-07-06T13:30:55+0200</time>
      </trkpt>
      <trkpt lat="45.68055" lon="2.84266">
        <ele>888.463064</ele>
        <time>2021-07-06T13:30:56+0200</time>
      </trkpt>
      <trkpt lat="45.68062" lon="2.84268">
        <ele>887.554313</ele>
        <time>2021-07-06T13:30:58+0200</time>
      </trkpt>
      <trkpt lat="45.6807" lon="2.8427">
        <ele>887.178917</ele>
        <time>2021-07-06T13:30:59+0200</time>
      </trkpt>
      <trkpt lat="45.68075" lon="2.84274">
        <ele>887.382147</ele>
        <time>2021-07-06T13:31:00+0200</time>
      </trkpt>
      <trkpt lat="45.68082" lon="2.84275">
        <ele>887.570693</ele>
        <time>2021-07-06T13:31:01+0200</time>
      </trkpt>
      <trkpt lat="45.68088" lon="2.84276">
        <ele>887.180012</ele>
        <time>2021-07-06T13:31:02+0200</time>
      </trkpt>
      <trkpt lat="45.68094" lon="2.84278">
        <ele>886.851863</ele>
        <time>2021-07-06T13:31:03+0200</time>
      </trkpt>
      <trkpt lat="45.68101" lon="2.84281">
        <ele>885.993717</ele>
        <time>2021-07-06T13:31:04+0200</time>
      </trkpt>
      <trkpt lat="45.68109" lon="2.84283">
        <ele>885.721056</ele>
        <time>2021-07-06T13:31:05+0200</time>
      </trkpt>
      <trkpt lat="45.68116" lon="2.84285">
        <ele>884.750799</ele>
        <time>2021-07-06T13:31:06+0200</time>
      </trkpt>
      <trkpt lat="45.68123" lon="2.84285">
        <ele>884.287883</ele>
        <time>2021-07-06T13:31:07+0200</time>
      </trkpt>
      <trkpt lat="45.68131" lon="2.84287">
        <ele>884.745084</ele>
        <time>2021-07-06T13:31:08+0200</time>
      </trkpt>
      <trkpt lat="45.68137" lon="2.84289">
        <ele>885.194412</ele>
        <time>2021-07-06T13:31:09+0200</time>
      </trkpt>
      <trkpt lat="45.68141" lon="2.84293">
        <ele>885.464945</ele>
        <time>2021-07-06T13:31:10+0200</time>
      </trkpt>
      <trkpt lat="45.68147" lon="2.84296">
        <ele>886.914946</ele>
        <time>2021-07-06T13:31:11+0200</time>
      </trkpt>
      <trkpt lat="45.68151" lon="2.84298">
        <ele>887.195823</ele>
        <time>2021-07-06T13:31:12+0200</time>
      </trkpt>
      <trkpt lat="45.68156" lon="2.843">
        <ele>887.155064</ele>
        <time>2021-07-06T13:31:13+0200</time>
      </trkpt>
      <trkpt lat="45.6816" lon="2.84296">
        <ele>887.732109</ele>
        <time>2021-07-06T13:31:14+0200</time>
      </trkpt>
      <trkpt lat="45.68163" lon="2.8429">
        <ele>887.595092</ele>
        <time>2021-07-06T13:31:15+0200</time>
      </trkpt>
      <trkpt lat="45.6817" lon="2.84293">
        <ele>885.636095</ele>
        <time>2021-07-06T13:31:17+0200</time>
      </trkpt>
      <trkpt lat="45.68167" lon="2.84299">
        <ele>887.478463</ele>
        <time>2021-07-06T13:31:33+0200</time>
      </trkpt>
      <trkpt lat="45.68167" lon="2.84292">
        <ele>883.678788</ele>
        <time>2021-07-06T13:31:58+0200</time>
      </trkpt>
      <trkpt lat="45.6817" lon="2.84299">
        <ele>884.446215</ele>
        <time>2021-07-06T13:32:02+0200</time>
      </trkpt>
      <trkpt lat="45.68174" lon="2.84306">
        <ele>884.879452</ele>
        <time>2021-07-06T13:32:04+0200</time>
      </trkpt>
      <trkpt lat="45.68179" lon="2.84312">
        <ele>885.218689</ele>
        <time>2021-07-06T13:32:06+0200</time>
      </trkpt>
      <trkpt lat="45.68185" lon="2.84314">
        <ele>885.804038</ele>
        <time>2021-07-06T13:32:08+0200</time>
      </trkpt>
      <trkpt lat="45.68192" lon="2.84316">
        <ele>886.287713</ele>
        <time>2021-07-06T13:32:10+0200</time>
      </trkpt>
      <trkpt lat="45.682" lon="2.84318">
        <ele>887.613548</ele>
        <time>2021-07-06T13:32:12+0200</time>
      </trkpt>
      <trkpt lat="45.68205" lon="2.84319">
        <ele>887.58253</ele>
        <time>2021-07-06T13:32:13+0200</time>
      </trkpt>
      <trkpt lat="45.68213" lon="2.84322">
        <ele>887.99952</ele>
        <time>2021-07-06T13:32:15+0200</time>
      </trkpt>
      <trkpt lat="45.68221" lon="2.84325">
        <ele>888.183526</ele>
        <time>2021-07-06T13:32:17+0200</time>
      </trkpt>
      <trkpt lat="45.68226" lon="2.84327">
        <ele>887.998333</ele>
        <time>2021-07-06T13:32:18+0200</time>
      </trkpt>
      <trkpt lat="45.68231" lon="2.84329">
        <ele>887.917328</ele>
        <time>2021-07-06T13:32:19+0200</time>
      </trkpt>
      <trkpt lat="45.68235" lon="2.84331">
        <ele>887.853729</ele>
        <time>2021-07-06T13:32:20+0200</time>
      </trkpt>
      <trkpt lat="45.6824" lon="2.84333">
        <ele>887.771332</ele>
        <time>2021-07-06T13:32:21+0200</time>
      </trkpt>
      <trkpt lat="45.68245" lon="2.84336">
        <ele>887.728232</ele>
        <time>2021-07-06T13:32:22+0200</time>
      </trkpt>
      <trkpt lat="45.68249" lon="2.84338">
        <ele>887.769394</ele>
        <time>2021-07-06T13:32:23+0200</time>
      </trkpt>
      <trkpt lat="45.68258" lon="2.8434">
        <ele>887.977591</ele>
        <time>2021-07-06T13:32:25+0200</time>
      </trkpt>
      <trkpt lat="45.68263" lon="2.84341">
        <ele>888.242154</ele>
        <time>2021-07-06T13:32:26+0200</time>
      </trkpt>
      <trkpt lat="45.68268" lon="2.84343">
        <ele>888.038089</ele>
        <time>2021-07-06T13:32:27+0200</time>
      </trkpt>
      <trkpt lat="45.68272" lon="2.84345">
        <ele>888.194864</ele>
        <time>2021-07-06T13:32:28+0200</time>
      </trkpt>
      <trkpt lat="45.68277" lon="2.84346">
        <ele>888.04113</ele>
        <time>2021-07-06T13:32:29+0200</time>
      </trkpt>
      <trkpt lat="45.68282" lon="2.84348">
        <ele>887.910653</ele>
        <time>2021-07-06T13:32:30+0200</time>
      </trkpt>
      <trkpt lat="45.68287" lon="2.8435">
        <ele>887.771215</ele>
        <time>2021-07-06T13:32:31+0200</time>
      </trkpt>
      <trkpt lat="45.68292" lon="2.84352">
        <ele>887.667861</ele>
        <time>2021-07-06T13:32:32+0200</time>
      </trkpt>
      <trkpt lat="45.68301" lon="2.84354">
        <ele>887.81845</ele>
        <time>2021-07-06T13:32:34+0200</time>
      </trkpt>
      <trkpt lat="45.68305" lon="2.84356">
        <ele>887.773108</ele>
        <time>2021-07-06T13:32:35+0200</time>
      </trkpt>
      <trkpt lat="45.6831" lon="2.84357">
        <ele>888.704394</ele>
        <time>2021-07-06T13:32:36+0200</time>
      </trkpt>
      <trkpt lat="45.68315" lon="2.84358">
        <ele>889.162716</ele>
        <time>2021-07-06T13:32:37+0200</time>
      </trkpt>
      <trkpt lat="45.6832" lon="2.84359">
        <ele>889.569975</ele>
        <time>2021-07-06T13:32:38+0200</time>
      </trkpt>
      <trkpt lat="45.68325" lon="2.8436">
        <ele>889.932426</ele>
        <time>2021-07-06T13:32:39+0200</time>
      </trkpt>
      <trkpt lat="45.68333" lon="2.84362">
        <ele>891.086586</ele>
        <time>2021-07-06T13:32:41+0200</time>
      </trkpt>
      <trkpt lat="45.68338" lon="2.84364">
        <ele>890.990891</ele>
        <time>2021-07-06T13:32:42+0200</time>
      </trkpt>
      <trkpt lat="45.68344" lon="2.84365">
        <ele>890.164427</ele>
        <time>2021-07-06T13:32:43+0200</time>
      </trkpt>
      <trkpt lat="45.68348" lon="2.84365">
        <ele>890.707027</ele>
        <time>2021-07-06T13:32:44+0200</time>
      </trkpt>
      <trkpt lat="45.68353" lon="2.84367">
        <ele>890.547498</ele>
        <time>2021-07-06T13:32:45+0200</time>
      </trkpt>
      <trkpt lat="45.68358" lon="2.84369">
        <ele>890.923943</ele>
        <time>2021-07-06T13:32:46+0200</time>
      </trkpt>
      <trkpt lat="45.68364" lon="2.8437">
        <ele>891.4567</ele>
        <time>2021-07-06T13:32:47+0200</time>
      </trkpt>
      <trkpt lat="45.6837" lon="2.84371">
        <ele>891.368399</ele>
        <time>2021-07-06T13:32:48+0200</time>
      </trkpt>
      <trkpt lat="45.68375" lon="2.84372">
        <ele>891.512604</ele>
        <time>2021-07-06T13:32:49+0200</time>
      </trkpt>
      <trkpt lat="45.68381" lon="2.84374">
        <ele>891.247247</ele>
        <time>2021-07-06T13:32:50+0200</time>
      </trkpt>
      <trkpt lat="45.68388" lon="2.84377">
        <ele>890.598393</ele>
        <time>2021-07-06T13:32:51+0200</time>
      </trkpt>
      <trkpt lat="45.68394" lon="2.84379">
        <ele>890.022936</ele>
        <time>2021-07-06T13:32:52+0200</time>
      </trkpt>
      <trkpt lat="45.68401" lon="2.84383">
        <ele>889.545011</ele>
        <time>2021-07-06T13:32:54+0200</time>
      </trkpt>
      <trkpt lat="45.68408" lon="2.84386">
        <ele>888.878156</ele>
        <time>2021-07-06T13:32:55+0200</time>
      </trkpt>
      <trkpt lat="45.68415" lon="2.84389">
        <ele>888.53506</ele>
        <time>2021-07-06T13:32:56+0200</time>
      </trkpt>
      <trkpt lat="45.68422" lon="2.84392">
        <ele>887.957208</ele>
        <time>2021-07-06T13:32:57+0200</time>
      </trkpt>
      <trkpt lat="45.68429" lon="2.84394">
        <ele>887.85829</ele>
        <time>2021-07-06T13:32:58+0200</time>
      </trkpt>
      <trkpt lat="45.68434" lon="2.84396">
        <ele>887.256904</ele>
        <time>2021-07-06T13:32:59+0200</time>
      </trkpt>
      <trkpt lat="45.6844" lon="2.84397">
        <ele>886.891296</ele>
        <time>2021-07-06T13:32:59+0200</time>
      </trkpt>
      <trkpt lat="45.68446" lon="2.84397">
        <ele>886.371424</ele>
        <time>2021-07-06T13:33:00+0200</time>
      </trkpt>
      <trkpt lat="45.68453" lon="2.84397">
        <ele>885.839472</ele>
        <time>2021-07-06T13:33:01+0200</time>
      </trkpt>
      <trkpt lat="45.6846" lon="2.84397">
        <ele>885.412145</ele>
        <time>2021-07-06T13:33:02+0200</time>
      </trkpt>
      <trkpt lat="45.68467" lon="2.84397">
        <ele>885.155401</ele>
        <time>2021-07-06T13:33:03+0200</time>
      </trkpt>
      <trkpt lat="45.68474" lon="2.84396">
        <ele>885.439794</ele>
        <time>2021-07-06T13:33:04+0200</time>
      </trkpt>
      <trkpt lat="45.68481" lon="2.84395">
        <ele>885.060861</ele>
        <time>2021-07-06T13:33:05+0200</time>
      </trkpt>
      <trkpt lat="45.68487" lon="2.84394">
        <ele>884.942777</ele>
        <time>2021-07-06T13:33:06+0200</time>
      </trkpt>
      <trkpt lat="45.68493" lon="2.84395">
        <ele>884.998095</ele>
        <time>2021-07-06T13:33:07+0200</time>
      </trkpt>
      <trkpt lat="45.68498" lon="2.84399">
        <ele>885.112653</ele>
        <time>2021-07-06T13:33:08+0200</time>
      </trkpt>
      <trkpt lat="45.68502" lon="2.84405">
        <ele>885.235431</ele>
        <time>2021-07-06T13:33:09+0200</time>
      </trkpt>
      <trkpt lat="45.68507" lon="2.84409">
        <ele>885.599367</ele>
        <time>2021-07-06T13:33:10+0200</time>
      </trkpt>
      <trkpt lat="45.68514" lon="2.84411">
        <ele>886.236822</ele>
        <time>2021-07-06T13:33:12+0200</time>
      </trkpt>
      <trkpt lat="45.6852" lon="2.84411">
        <ele>887.200368</ele>
        <time>2021-07-06T13:33:14+0200</time>
      </trkpt>
      <trkpt lat="45.68525" lon="2.84412">
        <ele>887.175393</ele>
        <time>2021-07-06T13:33:16+0200</time>
      </trkpt>
      <trkpt lat="45.68531" lon="2.84414">
        <ele>887.847936</ele>
        <time>2021-07-06T13:33:19+0200</time>
      </trkpt>
      <trkpt lat="45.68537" lon="2.84415">
        <ele>888.724829</ele>
        <time>2021-07-06T13:33:22+0200</time>
      </trkpt>
      <trkpt lat="45.68542" lon="2.84417">
        <ele>888.86843</ele>
        <time>2021-07-06T13:33:24+0200</time>
      </trkpt>
      <trkpt lat="45.68548" lon="2.84418">
        <ele>889.403511</ele>
        <time>2021-07-06T13:33:28+0200</time>
      </trkpt>
      <trkpt lat="45.68554" lon="2.84417">
        <ele>891.601118</ele>
        <time>2021-07-06T13:33:31+0200</time>
      </trkpt>
      <trkpt lat="45.6856" lon="2.84419">
        <ele>892.529321</ele>
        <time>2021-07-06T13:33:34+0200</time>
      </trkpt>
      <trkpt lat="45.68566" lon="2.84422">
        <ele>892.343828</ele>
        <time>2021-07-06T13:33:37+0200</time>
      </trkpt>
      <trkpt lat="45.68571" lon="2.84425">
        <ele>893.149467</ele>
        <time>2021-07-06T13:33:40+0200</time>
      </trkpt>
      <trkpt lat="45.68576" lon="2.84427">
        <ele>898.010193</ele>
        <time>2021-07-06T13:33:44+0200</time>
      </trkpt>
      <trkpt lat="45.68582" lon="2.84429">
        <ele>903.931276</ele>
        <time>2021-07-06T13:33:49+0200</time>
      </trkpt>
      <trkpt lat="45.68586" lon="2.84434">
        <ele>903.918733</ele>
        <time>2021-07-06T13:33:54+0200</time>
      </trkpt>
      <trkpt lat="45.68592" lon="2.84434">
        <ele>902.823728</ele>
        <time>2021-07-06T13:33:57+0200</time>
      </trkpt>
      <trkpt lat="45.68598" lon="2.84434">
        <ele>901.195234</ele>
        <time>2021-07-06T13:34:01+0200</time>
      </trkpt>
      <trkpt lat="45.68603" lon="2.84437">
        <ele>901.716286</ele>
        <time>2021-07-06T13:34:04+0200</time>
      </trkpt>
      <trkpt lat="45.68607" lon="2.84436">
        <ele>902.3579</ele>
        <time>2021-07-06T13:34:07+0200</time>
      </trkpt>
      <trkpt lat="45.68613" lon="2.84436">
        <ele>904.999156</ele>
        <time>2021-07-06T13:34:11+0200</time>
      </trkpt>
      <trkpt lat="45.68618" lon="2.84438">
        <ele>906.354121</ele>
        <time>2021-07-06T13:34:15+0200</time>
      </trkpt>
      <trkpt lat="45.68623" lon="2.84439">
        <ele>908.075492</ele>
        <time>2021-07-06T13:34:19+0200</time>
      </trkpt>
      <trkpt lat="45.68628" lon="2.84438">
        <ele>910.16699</ele>
        <time>2021-07-06T13:34:23+0200</time>
      </trkpt>
      <trkpt lat="45.68634" lon="2.84438">
        <ele>908.430588</ele>
        <time>2021-07-06T13:34:26+0200</time>
      </trkpt>
      <trkpt lat="45.68639" lon="2.84438">
        <ele>908.078239</ele>
        <time>2021-07-06T13:34:29+0200</time>
      </trkpt>
      <trkpt lat="45.68644" lon="2.8444">
        <ele>905.895487</ele>
        <time>2021-07-06T13:34:32+0200</time>
      </trkpt>
      <trkpt lat="45.68649" lon="2.8444">
        <ele>904.531618</ele>
        <time>2021-07-06T13:34:34+0200</time>
      </trkpt>
      <trkpt lat="45.68654" lon="2.84439">
        <ele>904.377187</ele>
        <time>2021-07-06T13:34:37+0200</time>
      </trkpt>
      <trkpt lat="45.68659" lon="2.84438">
        <ele>903.647615</ele>
        <time>2021-07-06T13:34:41+0200</time>
      </trkpt>
      <trkpt lat="45.68664" lon="2.84438">
        <ele>903.683113</ele>
        <time>2021-07-06T13:34:44+0200</time>
      </trkpt>
      <trkpt lat="45.68669" lon="2.84437">
        <ele>903.934054</ele>
        <time>2021-07-06T13:34:47+0200</time>
      </trkpt>
      <trkpt lat="45.68674" lon="2.84438">
        <ele>904.688086</ele>
        <time>2021-07-06T13:34:51+0200</time>
      </trkpt>
      <trkpt lat="45.68679" lon="2.84438">
        <ele>905.81372</ele>
        <time>2021-07-06T13:34:53+0200</time>
      </trkpt>
      <trkpt lat="45.68684" lon="2.84438">
        <ele>907.622354</ele>
        <time>2021-07-06T13:34:56+0200</time>
      </trkpt>
      <trkpt lat="45.68689" lon="2.84436">
        <ele>909.558814</ele>
        <time>2021-07-06T13:35:01+0200</time>
      </trkpt>
      <trkpt lat="45.68694" lon="2.84438">
        <ele>909.148258</ele>
        <time>2021-07-06T13:35:04+0200</time>
      </trkpt>
      <trkpt lat="45.687" lon="2.84441">
        <ele>910.29072</ele>
        <time>2021-07-06T13:35:09+0200</time>
      </trkpt>
      <trkpt lat="45.68705" lon="2.84442">
        <ele>910.711039</ele>
        <time>2021-07-06T13:35:13+0200</time>
      </trkpt>
      <trkpt lat="45.6871" lon="2.84444">
        <ele>911.79791</ele>
        <time>2021-07-06T13:35:18+0200</time>
      </trkpt>
      <trkpt lat="45.68716" lon="2.84445">
        <ele>912.643125</ele>
        <time>2021-07-06T13:35:22+0200</time>
      </trkpt>
      <trkpt lat="45.6872" lon="2.84449">
        <ele>915.13571</ele>
        <time>2021-07-06T13:35:27+0200</time>
      </trkpt>
      <trkpt lat="45.68726" lon="2.8445">
        <ele>916.993017</ele>
        <time>2021-07-06T13:35:31+0200</time>
      </trkpt>
      <trkpt lat="45.68731" lon="2.84452">
        <ele>916.676793</ele>
        <time>2021-07-06T13:35:35+0200</time>
      </trkpt>
      <trkpt lat="45.68736" lon="2.84454">
        <ele>916.461735</ele>
        <time>2021-07-06T13:35:38+0200</time>
      </trkpt>
      <trkpt lat="45.68741" lon="2.84454">
        <ele>917.500665</ele>
        <time>2021-07-06T13:35:43+0200</time>
      </trkpt>
      <trkpt lat="45.68746" lon="2.84455">
        <ele>917.440757</ele>
        <time>2021-07-06T13:35:48+0200</time>
      </trkpt>
      <trkpt lat="45.68751" lon="2.84459">
        <ele>920.529763</ele>
        <time>2021-07-06T13:35:53+0200</time>
      </trkpt>
      <trkpt lat="45.68756" lon="2.8446">
        <ele>924.58007</ele>
        <time>2021-07-06T13:35:57+0200</time>
      </trkpt>
      <trkpt lat="45.6876" lon="2.84461">
        <ele>925.2802</ele>
        <time>2021-07-06T13:36:01+0200</time>
      </trkpt>
      <trkpt lat="45.68765" lon="2.84461">
        <ele>926.754209</ele>
        <time>2021-07-06T13:36:05+0200</time>
      </trkpt>
      <trkpt lat="45.68772" lon="2.8446">
        <ele>927.872872</ele>
        <time>2021-07-06T13:36:09+0200</time>
      </trkpt>
      <trkpt lat="45.68779" lon="2.84461">
        <ele>925.358242</ele>
        <time>2021-07-06T13:36:13+0200</time>
      </trkpt>
      <trkpt lat="45.68782" lon="2.84465">
        <ele>924.441819</ele>
        <time>2021-07-06T13:36:16+0200</time>
      </trkpt>
      <trkpt lat="45.68788" lon="2.84464">
        <ele>924.070557</ele>
        <time>2021-07-06T13:36:19+0200</time>
      </trkpt>
      <trkpt lat="45.68794" lon="2.84464">
        <ele>925.214717</ele>
        <time>2021-07-06T13:36:23+0200</time>
      </trkpt>
      <trkpt lat="45.68799" lon="2.84465">
        <ele>925.904002</ele>
        <time>2021-07-06T13:36:27+0200</time>
      </trkpt>
      <trkpt lat="45.68803" lon="2.84469">
        <ele>927.330688</ele>
        <time>2021-07-06T13:36:33+0200</time>
      </trkpt>
      <trkpt lat="45.68808" lon="2.84471">
        <ele>928.810541</ele>
        <time>2021-07-06T13:36:37+0200</time>
      </trkpt>
      <trkpt lat="45.68811" lon="2.84476">
        <ele>931.432951</ele>
        <time>2021-07-06T13:36:40+0200</time>
      </trkpt>
      <trkpt lat="45.68816" lon="2.84476">
        <ele>934.81099</ele>
        <time>2021-07-06T13:36:44+0200</time>
      </trkpt>
      <trkpt lat="45.68822" lon="2.84478">
        <ele>935.382711</ele>
        <time>2021-07-06T13:36:48+0200</time>
      </trkpt>
      <trkpt lat="45.68827" lon="2.84481">
        <ele>934.954347</ele>
        <time>2021-07-06T13:36:52+0200</time>
      </trkpt>
      <trkpt lat="45.68832" lon="2.84484">
        <ele>933.751885</ele>
        <time>2021-07-06T13:36:55+0200</time>
      </trkpt>
      <trkpt lat="45.68837" lon="2.84484">
        <ele>934.089644</ele>
        <time>2021-07-06T13:36:58+0200</time>
      </trkpt>
      <trkpt lat="45.68842" lon="2.84482">
        <ele>933.290411</ele>
        <time>2021-07-06T13:37:00+0200</time>
      </trkpt>
      <trkpt lat="45.68848" lon="2.84482">
        <ele>932.824114</ele>
        <time>2021-07-06T13:37:03+0200</time>
      </trkpt>
      <trkpt lat="45.68853" lon="2.84484">
        <ele>932.514679</ele>
        <time>2021-07-06T13:37:06+0200</time>
      </trkpt>
      <trkpt lat="45.68857" lon="2.84483">
        <ele>933.370935</ele>
        <time>2021-07-06T13:37:09+0200</time>
      </trkpt>
      <trkpt lat="45.68863" lon="2.84484">
        <ele>933.587247</ele>
        <time>2021-07-06T13:37:12+0200</time>
      </trkpt>
      <trkpt lat="45.68868" lon="2.84484">
        <ele>933.056668</ele>
        <time>2021-07-06T13:37:15+0200</time>
      </trkpt>
      <trkpt lat="45.68873" lon="2.84482">
        <ele>931.083662</ele>
        <time>2021-07-06T13:37:19+0200</time>
      </trkpt>
      <trkpt lat="45.68878" lon="2.84482">
        <ele>931.101445</ele>
        <time>2021-07-06T13:37:22+0200</time>
      </trkpt>
      <trkpt lat="45.68882" lon="2.84483">
        <ele>930.60653</ele>
        <time>2021-07-06T13:37:27+0200</time>
      </trkpt>
      <trkpt lat="45.68883" lon="2.8449">
        <ele>931.756269</ele>
        <time>2021-07-06T13:38:51+0200</time>
      </trkpt>
      <trkpt lat="45.68886" lon="2.84485">
        <ele>933.41779</ele>
        <time>2021-07-06T13:39:09+0200</time>
      </trkpt>
      <trkpt lat="45.68891" lon="2.84481">
        <ele>930.440648</ele>
        <time>2021-07-06T13:42:04+0200</time>
      </trkpt>
      <trkpt lat="45.68896" lon="2.84478">
        <ele>931.537465</ele>
        <time>2021-07-06T13:42:07+0200</time>
      </trkpt>
      <trkpt lat="45.68901" lon="2.84477">
        <ele>933.003192</ele>
        <time>2021-07-06T13:42:09+0200</time>
      </trkpt>
      <trkpt lat="45.68907" lon="2.84476">
        <ele>934.579241</ele>
        <time>2021-07-06T13:42:11+0200</time>
      </trkpt>
      <trkpt lat="45.68913" lon="2.84473">
        <ele>936.692941</ele>
        <time>2021-07-06T13:42:13+0200</time>
      </trkpt>
      <trkpt lat="45.68922" lon="2.84472">
        <ele>935.917421</ele>
        <time>2021-07-06T13:42:15+0200</time>
      </trkpt>
      <trkpt lat="45.6893" lon="2.84468">
        <ele>935.942694</ele>
        <time>2021-07-06T13:42:17+0200</time>
      </trkpt>
      <trkpt lat="45.68934" lon="2.84464">
        <ele>934.759745</ele>
        <time>2021-07-06T13:42:18+0200</time>
      </trkpt>
      <trkpt lat="45.68939" lon="2.84462">
        <ele>933.821395</ele>
        <time>2021-07-06T13:42:19+0200</time>
      </trkpt>
      <trkpt lat="45.68944" lon="2.84459">
        <ele>933.431964</ele>
        <time>2021-07-06T13:42:20+0200</time>
      </trkpt>
      <trkpt lat="45.68949" lon="2.84456">
        <ele>931.213097</ele>
        <time>2021-07-06T13:42:21+0200</time>
      </trkpt>
      <trkpt lat="45.68954" lon="2.84455">
        <ele>930.526288</ele>
        <time>2021-07-06T13:42:22+0200</time>
      </trkpt>
      <trkpt lat="45.6896" lon="2.8445">
        <ele>929.950774</ele>
        <time>2021-07-06T13:42:23+0200</time>
      </trkpt>
      <trkpt lat="45.68966" lon="2.84445">
        <ele>929.529189</ele>
        <time>2021-07-06T13:42:24+0200</time>
      </trkpt>
      <trkpt lat="45.68972" lon="2.8444">
        <ele>929.797403</ele>
        <time>2021-07-06T13:42:25+0200</time>
      </trkpt>
      <trkpt lat="45.68978" lon="2.84434">
        <ele>929.548552</ele>
        <time>2021-07-06T13:42:26+0200</time>
      </trkpt>
      <trkpt lat="45.68987" lon="2.84425">
        <ele>930.12368</ele>
        <time>2021-07-06T13:42:27+0200</time>
      </trkpt>
      <trkpt lat="45.68994" lon="2.84415">
        <ele>929.159417</ele>
        <time>2021-07-06T13:42:28+0200</time>
      </trkpt>
      <trkpt lat="45.69001" lon="2.84405">
        <ele>927.689215</ele>
        <time>2021-07-06T13:42:29+0200</time>
      </trkpt>
      <trkpt lat="45.6901" lon="2.84396">
        <ele>926.361811</ele>
        <time>2021-07-06T13:42:30+0200</time>
      </trkpt>
      <trkpt lat="45.6902" lon="2.84388">
        <ele>924.489254</ele>
        <time>2021-07-06T13:42:31+0200</time>
      </trkpt>
      <trkpt lat="45.6903" lon="2.84382">
        <ele>923.163217</ele>
        <time>2021-07-06T13:42:32+0200</time>
      </trkpt>
      <trkpt lat="45.69039" lon="2.84376">
        <ele>923.366039</ele>
        <time>2021-07-06T13:42:33+0200</time>
      </trkpt>
      <trkpt lat="45.69049" lon="2.84372">
        <ele>922.247944</ele>
        <time>2021-07-06T13:42:34+0200</time>
      </trkpt>
      <trkpt lat="45.69058" lon="2.8437">
        <ele>920.271237</ele>
        <time>2021-07-06T13:42:35+0200</time>
      </trkpt>
      <trkpt lat="45.69069" lon="2.84365">
        <ele>919.742873</ele>
        <time>2021-07-06T13:42:36+0200</time>
      </trkpt>
      <trkpt lat="45.6908" lon="2.84361">
        <ele>917.128173</ele>
        <time>2021-07-06T13:42:37+0200</time>
      </trkpt>
      <trkpt lat="45.69088" lon="2.84358">
        <ele>915.521826</ele>
        <time>2021-07-06T13:42:38+0200</time>
      </trkpt>
      <trkpt lat="45.69096" lon="2.84357">
        <ele>914.736503</ele>
        <time>2021-07-06T13:42:39+0200</time>
      </trkpt>
      <trkpt lat="45.69104" lon="2.84358">
        <ele>914.183351</ele>
        <time>2021-07-06T13:42:40+0200</time>
      </trkpt>
      <trkpt lat="45.69112" lon="2.84363">
        <ele>913.593695</ele>
        <time>2021-07-06T13:42:41+0200</time>
      </trkpt>
      <trkpt lat="45.69121" lon="2.8437">
        <ele>912.776777</ele>
        <time>2021-07-06T13:42:42+0200</time>
      </trkpt>
      <trkpt lat="45.6913" lon="2.84378">
        <ele>911.936355</ele>
        <time>2021-07-06T13:42:43+0200</time>
      </trkpt>
      <trkpt lat="45.6914" lon="2.84383">
        <ele>911.485138</ele>
        <time>2021-07-06T13:42:44+0200</time>
      </trkpt>
      <trkpt lat="45.6915" lon="2.84386">
        <ele>910.547284</ele>
        <time>2021-07-06T13:42:45+0200</time>
      </trkpt>
      <trkpt lat="45.69162" lon="2.84388">
        <ele>910.177433</ele>
        <time>2021-07-06T13:42:46+0200</time>
      </trkpt>
      <trkpt lat="45.69173" lon="2.84392">
        <ele>909.688154</ele>
        <time>2021-07-06T13:42:47+0200</time>
      </trkpt>
      <trkpt lat="45.69183" lon="2.84398">
        <ele>908.864085</ele>
        <time>2021-07-06T13:42:48+0200</time>
      </trkpt>
      <trkpt lat="45.69192" lon="2.84403">
        <ele>908.24367</ele>
        <time>2021-07-06T13:42:49+0200</time>
      </trkpt>
      <trkpt lat="45.69201" lon="2.84409">
        <ele>907.969218</ele>
        <time>2021-07-06T13:42:50+0200</time>
      </trkpt>
      <trkpt lat="45.69209" lon="2.84415">
        <ele>907.701785</ele>
        <time>2021-07-06T13:42:51+0200</time>
      </trkpt>
      <trkpt lat="45.69218" lon="2.84419">
        <ele>907.696083</ele>
        <time>2021-07-06T13:42:52+0200</time>
      </trkpt>
      <trkpt lat="45.69227" lon="2.84424">
        <ele>907.221461</ele>
        <time>2021-07-06T13:42:53+0200</time>
      </trkpt>
      <trkpt lat="45.69235" lon="2.84428">
        <ele>906.993935</ele>
        <time>2021-07-06T13:42:54+0200</time>
      </trkpt>
      <trkpt lat="45.69243" lon="2.84432">
        <ele>906.992876</ele>
        <time>2021-07-06T13:42:55+0200</time>
      </trkpt>
      <trkpt lat="45.69252" lon="2.84436">
        <ele>906.459214</ele>
        <time>2021-07-06T13:42:56+0200</time>
      </trkpt>
      <trkpt lat="45.6926" lon="2.8444">
        <ele>905.875368</ele>
        <time>2021-07-06T13:42:57+0200</time>
      </trkpt>
      <trkpt lat="45.69268" lon="2.84444">
        <ele>906.149541</ele>
        <time>2021-07-06T13:42:58+0200</time>
      </trkpt>
      <trkpt lat="45.69276" lon="2.84448">
        <ele>906.013149</ele>
        <time>2021-07-06T13:42:59+0200</time>
      </trkpt>
      <trkpt lat="45.69284" lon="2.84452">
        <ele>905.596568</ele>
        <time>2021-07-06T13:43:00+0200</time>
      </trkpt>
      <trkpt lat="45.69293" lon="2.84454">
        <ele>904.928285</ele>
        <time>2021-07-06T13:43:01+0200</time>
      </trkpt>
      <trkpt lat="45.69302" lon="2.84457">
        <ele>904.11384</ele>
        <time>2021-07-06T13:43:02+0200</time>
      </trkpt>
      <trkpt lat="45.69311" lon="2.84458">
        <ele>903.901059</ele>
        <time>2021-07-06T13:43:03+0200</time>
      </trkpt>
      <trkpt lat="45.69319" lon="2.84458">
        <ele>903.987032</ele>
        <time>2021-07-06T13:43:04+0200</time>
      </trkpt>
      <trkpt lat="45.69327" lon="2.84457">
        <ele>904.359687</ele>
        <time>2021-07-06T13:43:05+0200</time>
      </trkpt>
      <trkpt lat="45.69335" lon="2.84456">
        <ele>904.789539</ele>
        <time>2021-07-06T13:43:06+0200</time>
      </trkpt>
      <trkpt lat="45.69342" lon="2.84453">
        <ele>905.503796</ele>
        <time>2021-07-06T13:43:07+0200</time>
      </trkpt>
      <trkpt lat="45.69349" lon="2.84451">
        <ele>905.549631</ele>
        <time>2021-07-06T13:43:08+0200</time>
      </trkpt>
      <trkpt lat="45.69357" lon="2.84446">
        <ele>906.570308</ele>
        <time>2021-07-06T13:43:09+0200</time>
      </trkpt>
      <trkpt lat="45.69364" lon="2.84442">
        <ele>907.215755</ele>
        <time>2021-07-06T13:43:10+0200</time>
      </trkpt>
      <trkpt lat="45.69372" lon="2.84438">
        <ele>906.155164</ele>
        <time>2021-07-06T13:43:11+0200</time>
      </trkpt>
      <trkpt lat="45.6938" lon="2.84436">
        <ele>905.685463</ele>
        <time>2021-07-06T13:43:12+0200</time>
      </trkpt>
      <trkpt lat="45.69388" lon="2.84432">
        <ele>905.019924</ele>
        <time>2021-07-06T13:43:13+0200</time>
      </trkpt>
      <trkpt lat="45.69395" lon="2.84429">
        <ele>904.021188</ele>
        <time>2021-07-06T13:43:14+0200</time>
      </trkpt>
      <trkpt lat="45.69402" lon="2.84427">
        <ele>903.275265</ele>
        <time>2021-07-06T13:43:15+0200</time>
      </trkpt>
      <trkpt lat="45.6941" lon="2.84425">
        <ele>902.920549</ele>
        <time>2021-07-06T13:43:16+0200</time>
      </trkpt>
      <trkpt lat="45.69417" lon="2.84423">
        <ele>902.4783</ele>
        <time>2021-07-06T13:43:17+0200</time>
      </trkpt>
      <trkpt lat="45.69425" lon="2.84422">
        <ele>902.18819</ele>
        <time>2021-07-06T13:43:18+0200</time>
      </trkpt>
      <trkpt lat="45.69432" lon="2.84421">
        <ele>901.949402</ele>
        <time>2021-07-06T13:43:19+0200</time>
      </trkpt>
      <trkpt lat="45.69439" lon="2.8442">
        <ele>901.548649</ele>
        <time>2021-07-06T13:43:20+0200</time>
      </trkpt>
      <trkpt lat="45.69446" lon="2.84419">
        <ele>901.412258</ele>
        <time>2021-07-06T13:43:21+0200</time>
      </trkpt>
      <trkpt lat="45.69453" lon="2.84417">
        <ele>901.541986</ele>
        <time>2021-07-06T13:43:22+0200</time>
      </trkpt>
      <trkpt lat="45.6946" lon="2.84417">
        <ele>901.573402</ele>
        <time>2021-07-06T13:43:23+0200</time>
      </trkpt>
      <trkpt lat="45.69467" lon="2.84417">
        <ele>901.252572</ele>
        <time>2021-07-06T13:43:24+0200</time>
      </trkpt>
      <trkpt lat="45.69475" lon="2.84417">
        <ele>900.768914</ele>
        <time>2021-07-06T13:43:25+0200</time>
      </trkpt>
      <trkpt lat="45.69482" lon="2.84416">
        <ele>900.403637</ele>
        <time>2021-07-06T13:43:26+0200</time>
      </trkpt>
      <trkpt lat="45.69489" lon="2.84417">
        <ele>900.353752</ele>
        <time>2021-07-06T13:43:27+0200</time>
      </trkpt>
      <trkpt lat="45.69497" lon="2.84418">
        <ele>900.279905</ele>
        <time>2021-07-06T13:43:28+0200</time>
      </trkpt>
      <trkpt lat="45.69504" lon="2.84422">
        <ele>900.08781</ele>
        <time>2021-07-06T13:43:29+0200</time>
      </trkpt>
      <trkpt lat="45.69511" lon="2.84425">
        <ele>899.601377</ele>
        <time>2021-07-06T13:43:30+0200</time>
      </trkpt>
      <trkpt lat="45.69518" lon="2.84429">
        <ele>899.495695</ele>
        <time>2021-07-06T13:43:31+0200</time>
      </trkpt>
      <trkpt lat="45.69524" lon="2.84435">
        <ele>899.513815</ele>
        <time>2021-07-06T13:43:32+0200</time>
      </trkpt>
      <trkpt lat="45.69531" lon="2.84441">
        <ele>899.720414</ele>
        <time>2021-07-06T13:43:33+0200</time>
      </trkpt>
      <trkpt lat="45.69537" lon="2.84447">
        <ele>898.981229</ele>
        <time>2021-07-06T13:43:34+0200</time>
      </trkpt>
      <trkpt lat="45.69544" lon="2.84452">
        <ele>898.409867</ele>
        <time>2021-07-06T13:43:35+0200</time>
      </trkpt>
      <trkpt lat="45.6955" lon="2.84458">
        <ele>897.942141</ele>
        <time>2021-07-06T13:43:36+0200</time>
      </trkpt>
      <trkpt lat="45.69557" lon="2.84464">
        <ele>897.689096</ele>
        <time>2021-07-06T13:43:37+0200</time>
      </trkpt>
      <trkpt lat="45.69563" lon="2.84469">
        <ele>897.212734</ele>
        <time>2021-07-06T13:43:38+0200</time>
      </trkpt>
      <trkpt lat="45.6957" lon="2.84475">
        <ele>896.830836</ele>
        <time>2021-07-06T13:43:39+0200</time>
      </trkpt>
      <trkpt lat="45.69576" lon="2.8448">
        <ele>896.440537</ele>
        <time>2021-07-06T13:43:40+0200</time>
      </trkpt>
      <trkpt lat="45.69583" lon="2.84487">
        <ele>896.162008</ele>
        <time>2021-07-06T13:43:41+0200</time>
      </trkpt>
      <trkpt lat="45.69588" lon="2.84493">
        <ele>895.891722</ele>
        <time>2021-07-06T13:43:42+0200</time>
      </trkpt>
      <trkpt lat="45.69593" lon="2.845">
        <ele>895.618291</ele>
        <time>2021-07-06T13:43:43+0200</time>
      </trkpt>
      <trkpt lat="45.69596" lon="2.84505">
        <ele>895.101371</ele>
        <time>2021-07-06T13:43:44+0200</time>
      </trkpt>
      <trkpt lat="45.69599" lon="2.84512">
        <ele>894.511148</ele>
        <time>2021-07-06T13:43:45+0200</time>
      </trkpt>
      <trkpt lat="45.69602" lon="2.84518">
        <ele>894.399032</ele>
        <time>2021-07-06T13:43:46+0200</time>
      </trkpt>
      <trkpt lat="45.69605" lon="2.84522">
        <ele>894.706206</ele>
        <time>2021-07-06T13:43:47+0200</time>
      </trkpt>
      <trkpt lat="45.6961" lon="2.84523">
        <ele>894.817231</ele>
        <time>2021-07-06T13:43:48+0200</time>
      </trkpt>
      <trkpt lat="45.69617" lon="2.84521">
        <ele>894.75978</ele>
        <time>2021-07-06T13:43:50+0200</time>
      </trkpt>
      <trkpt lat="45.69622" lon="2.84513">
        <ele>895.46668</ele>
        <time>2021-07-06T13:43:52+0200</time>
      </trkpt>
      <trkpt lat="45.69625" lon="2.84502">
        <ele>895.763791</ele>
        <time>2021-07-06T13:43:54+0200</time>
      </trkpt>
      <trkpt lat="45.69627" lon="2.84495">
        <ele>895.043801</ele>
        <time>2021-07-06T13:43:55+0200</time>
      </trkpt>
      <trkpt lat="45.69628" lon="2.84488">
        <ele>894.519972</ele>
        <time>2021-07-06T13:43:56+0200</time>
      </trkpt>
      <trkpt lat="45.69629" lon="2.8448">
        <ele>893.980419</ele>
        <time>2021-07-06T13:43:57+0200</time>
      </trkpt>
      <trkpt lat="45.69629" lon="2.84472">
        <ele>894.00852</ele>
        <time>2021-07-06T13:43:58+0200</time>
      </trkpt>
      <trkpt lat="45.69629" lon="2.84463">
        <ele>893.451167</ele>
        <time>2021-07-06T13:43:59+0200</time>
      </trkpt>
      <trkpt lat="45.69627" lon="2.84453">
        <ele>893.151548</ele>
        <time>2021-07-06T13:44:00+0200</time>
      </trkpt>
      <trkpt lat="45.69625" lon="2.84443">
        <ele>892.889255</ele>
        <time>2021-07-06T13:44:01+0200</time>
      </trkpt>
      <trkpt lat="45.69623" lon="2.84433">
        <ele>892.244875</ele>
        <time>2021-07-06T13:44:02+0200</time>
      </trkpt>
      <trkpt lat="45.69621" lon="2.84422">
        <ele>891.2423</ele>
        <time>2021-07-06T13:44:03+0200</time>
      </trkpt>
      <trkpt lat="45.69619" lon="2.84411">
        <ele>890.096456</ele>
        <time>2021-07-06T13:44:04+0200</time>
      </trkpt>
      <trkpt lat="45.69619" lon="2.84399">
        <ele>888.923796</ele>
        <time>2021-07-06T13:44:05+0200</time>
      </trkpt>
      <trkpt lat="45.69621" lon="2.84387">
        <ele>887.925465</ele>
        <time>2021-07-06T13:44:06+0200</time>
      </trkpt>
      <trkpt lat="45.69626" lon="2.84374">
        <ele>887.476341</ele>
        <time>2021-07-06T13:44:07+0200</time>
      </trkpt>
      <trkpt lat="45.69633" lon="2.84365">
        <ele>886.336247</ele>
        <time>2021-07-06T13:44:08+0200</time>
      </trkpt>
      <trkpt lat="45.69642" lon="2.84359">
        <ele>885.58812</ele>
        <time>2021-07-06T13:44:09+0200</time>
      </trkpt>
      <trkpt lat="45.69651" lon="2.84354">
        <ele>884.765545</ele>
        <time>2021-07-06T13:44:10+0200</time>
      </trkpt>
      <trkpt lat="45.69661" lon="2.8435">
        <ele>883.556175</ele>
        <time>2021-07-06T13:44:11+0200</time>
      </trkpt>
      <trkpt lat="45.69671" lon="2.84345">
        <ele>882.238856</ele>
        <time>2021-07-06T13:44:12+0200</time>
      </trkpt>
      <trkpt lat="45.69679" lon="2.84339">
        <ele>881.079257</ele>
        <time>2021-07-06T13:44:13+0200</time>
      </trkpt>
      <trkpt lat="45.69687" lon="2.8433">
        <ele>881.117195</ele>
        <time>2021-07-06T13:44:14+0200</time>
      </trkpt>
      <trkpt lat="45.69692" lon="2.84319">
        <ele>879.682707</ele>
        <time>2021-07-06T13:44:15+0200</time>
      </trkpt>
      <trkpt lat="45.69689" lon="2.84304">
        <ele>880.706008</ele>
        <time>2021-07-06T13:44:16+0200</time>
      </trkpt>
      <trkpt lat="45.69687" lon="2.84289">
        <ele>880.370884</ele>
        <time>2021-07-06T13:44:17+0200</time>
      </trkpt>
      <trkpt lat="45.69684" lon="2.84274">
        <ele>879.927917</ele>
        <time>2021-07-06T13:44:18+0200</time>
      </trkpt>
      <trkpt lat="45.69681" lon="2.8426">
        <ele>878.744921</ele>
        <time>2021-07-06T13:44:19+0200</time>
      </trkpt>
      <trkpt lat="45.69678" lon="2.84246">
        <ele>877.646896</ele>
        <time>2021-07-06T13:44:20+0200</time>
      </trkpt>
      <trkpt lat="45.69675" lon="2.84232">
        <ele>876.85161</ele>
        <time>2021-07-06T13:44:21+0200</time>
      </trkpt>
      <trkpt lat="45.69672" lon="2.84217">
        <ele>876.056982</ele>
        <time>2021-07-06T13:44:22+0200</time>
      </trkpt>
      <trkpt lat="45.6967" lon="2.84203">
        <ele>875.477925</ele>
        <time>2021-07-06T13:44:24+0200</time>
      </trkpt>
      <trkpt lat="45.6967" lon="2.84188">
        <ele>875.015894</ele>
        <time>2021-07-06T13:44:25+0200</time>
      </trkpt>
      <trkpt lat="45.69672" lon="2.84174">
        <ele>874.295893</ele>
        <time>2021-07-06T13:44:26+0200</time>
      </trkpt>
      <trkpt lat="45.69678" lon="2.84162">
        <ele>873.606545</ele>
        <time>2021-07-06T13:44:27+0200</time>
      </trkpt>
      <trkpt lat="45.69687" lon="2.84153">
        <ele>872.648284</ele>
        <time>2021-07-06T13:44:28+0200</time>
      </trkpt>
      <trkpt lat="45.69696" lon="2.84145">
        <ele>872.21742</ele>
        <time>2021-07-06T13:44:29+0200</time>
      </trkpt>
      <trkpt lat="45.69705" lon="2.84138">
        <ele>871.338793</ele>
        <time>2021-07-06T13:44:30+0200</time>
      </trkpt>
      <trkpt lat="45.69715" lon="2.84131">
        <ele>870.71564</ele>
        <time>2021-07-06T13:44:31+0200</time>
      </trkpt>
      <trkpt lat="45.69723" lon="2.84123">
        <ele>869.969809</ele>
        <time>2021-07-06T13:44:32+0200</time>
      </trkpt>
      <trkpt lat="45.69732" lon="2.84116">
        <ele>869.001209</ele>
        <time>2021-07-06T13:44:33+0200</time>
      </trkpt>
      <trkpt lat="45.69741" lon="2.84109">
        <ele>868.232884</ele>
        <time>2021-07-06T13:44:34+0200</time>
      </trkpt>
      <trkpt lat="45.6975" lon="2.84102">
        <ele>867.578413</ele>
        <time>2021-07-06T13:44:35+0200</time>
      </trkpt>
      <trkpt lat="45.69759" lon="2.84096">
        <ele>866.957485</ele>
        <time>2021-07-06T13:44:36+0200</time>
      </trkpt>
      <trkpt lat="45.69766" lon="2.84089">
        <ele>866.614113</ele>
        <time>2021-07-06T13:44:37+0200</time>
      </trkpt>
      <trkpt lat="45.69774" lon="2.84083">
        <ele>865.87912</ele>
        <time>2021-07-06T13:44:38+0200</time>
      </trkpt>
      <trkpt lat="45.69782" lon="2.84077">
        <ele>865.611781</ele>
        <time>2021-07-06T13:44:39+0200</time>
      </trkpt>
      <trkpt lat="45.6979" lon="2.84071">
        <ele>865.248184</ele>
        <time>2021-07-06T13:44:40+0200</time>
      </trkpt>
      <trkpt lat="45.69796" lon="2.84063">
        <ele>864.824093</ele>
        <time>2021-07-06T13:44:41+0200</time>
      </trkpt>
      <trkpt lat="45.69804" lon="2.84057">
        <ele>864.62013</ele>
        <time>2021-07-06T13:44:42+0200</time>
      </trkpt>
      <trkpt lat="45.6981" lon="2.84051">
        <ele>864.646035</ele>
        <time>2021-07-06T13:44:43+0200</time>
      </trkpt>
      <trkpt lat="45.69817" lon="2.84046">
        <ele>864.702542</ele>
        <time>2021-07-06T13:44:44+0200</time>
      </trkpt>
      <trkpt lat="45.69825" lon="2.84042">
        <ele>865.0252</ele>
        <time>2021-07-06T13:44:45+0200</time>
      </trkpt>
      <trkpt lat="45.69831" lon="2.84037">
        <ele>864.918568</ele>
        <time>2021-07-06T13:44:46+0200</time>
      </trkpt>
      <trkpt lat="45.69837" lon="2.84032">
        <ele>864.397334</ele>
        <time>2021-07-06T13:44:47+0200</time>
      </trkpt>
      <trkpt lat="45.69844" lon="2.84028">
        <ele>864.131009</ele>
        <time>2021-07-06T13:44:48+0200</time>
      </trkpt>
      <trkpt lat="45.6985" lon="2.84024">
        <ele>864.388457</ele>
        <time>2021-07-06T13:44:49+0200</time>
      </trkpt>
      <trkpt lat="45.69855" lon="2.8402">
        <ele>864.561963</ele>
        <time>2021-07-06T13:44:50+0200</time>
      </trkpt>
      <trkpt lat="45.6986" lon="2.84015">
        <ele>864.041195</ele>
        <time>2021-07-06T13:44:51+0200</time>
      </trkpt>
      <trkpt lat="45.69865" lon="2.8401">
        <ele>863.818949</ele>
        <time>2021-07-06T13:44:52+0200</time>
      </trkpt>
      <trkpt lat="45.6987" lon="2.84006">
        <ele>863.524389</ele>
        <time>2021-07-06T13:44:53+0200</time>
      </trkpt>
      <trkpt lat="45.69874" lon="2.84001">
        <ele>862.891468</ele>
        <time>2021-07-06T13:44:54+0200</time>
      </trkpt>
      <trkpt lat="45.6988" lon="2.83997">
        <ele>862.318822</ele>
        <time>2021-07-06T13:44:55+0200</time>
      </trkpt>
      <trkpt lat="45.69884" lon="2.83994">
        <ele>862.157317</ele>
        <time>2021-07-06T13:44:56+0200</time>
      </trkpt>
      <trkpt lat="45.69889" lon="2.83989">
        <ele>862.457717</ele>
        <time>2021-07-06T13:44:57+0200</time>
      </trkpt>
      <trkpt lat="45.69894" lon="2.83985">
        <ele>862.581381</ele>
        <time>2021-07-06T13:44:58+0200</time>
      </trkpt>
      <trkpt lat="45.699" lon="2.83979">
        <ele>863.188693</ele>
        <time>2021-07-06T13:44:59+0200</time>
      </trkpt>
      <trkpt lat="45.69906" lon="2.83975">
        <ele>863.871057</ele>
        <time>2021-07-06T13:45:00+0200</time>
      </trkpt>
      <trkpt lat="45.69911" lon="2.83969">
        <ele>863.729006</ele>
        <time>2021-07-06T13:45:01+0200</time>
      </trkpt>
      <trkpt lat="45.69917" lon="2.83965">
        <ele>863.537511</ele>
        <time>2021-07-06T13:45:02+0200</time>
      </trkpt>
      <trkpt lat="45.69923" lon="2.8396">
        <ele>863.008768</ele>
        <time>2021-07-06T13:45:03+0200</time>
      </trkpt>
      <trkpt lat="45.69928" lon="2.83956">
        <ele>862.09786</ele>
        <time>2021-07-06T13:45:04+0200</time>
      </trkpt>
      <trkpt lat="45.69934" lon="2.83951">
        <ele>861.680207</ele>
        <time>2021-07-06T13:45:05+0200</time>
      </trkpt>
      <trkpt lat="45.6994" lon="2.83946">
        <ele>861.987044</ele>
        <time>2021-07-06T13:45:06+0200</time>
      </trkpt>
      <trkpt lat="45.69945" lon="2.83942">
        <ele>862.401432</ele>
        <time>2021-07-06T13:45:07+0200</time>
      </trkpt>
      <trkpt lat="45.69951" lon="2.83937">
        <ele>862.440952</ele>
        <time>2021-07-06T13:45:08+0200</time>
      </trkpt>
      <trkpt lat="45.69957" lon="2.83933">
        <ele>862.677612</ele>
        <time>2021-07-06T13:45:09+0200</time>
      </trkpt>
      <trkpt lat="45.69963" lon="2.83928">
        <ele>862.687081</ele>
        <time>2021-07-06T13:45:10+0200</time>
      </trkpt>
      <trkpt lat="45.69969" lon="2.83923">
        <ele>862.383782</ele>
        <time>2021-07-06T13:45:11+0200</time>
      </trkpt>
      <trkpt lat="45.69974" lon="2.83919">
        <ele>862.08047</ele>
        <time>2021-07-06T13:45:12+0200</time>
      </trkpt>
      <trkpt lat="45.6998" lon="2.83914">
        <ele>862.376768</ele>
        <time>2021-07-06T13:45:13+0200</time>
      </trkpt>
      <trkpt lat="45.69985" lon="2.83911">
        <ele>862.202112</ele>
        <time>2021-07-06T13:45:14+0200</time>
      </trkpt>
      <trkpt lat="45.6999" lon="2.83906">
        <ele>861.923285</ele>
        <time>2021-07-06T13:45:15+0200</time>
      </trkpt>
      <trkpt lat="45.69995" lon="2.83902">
        <ele>862.869561</ele>
        <time>2021-07-06T13:45:16+0200</time>
      </trkpt>
      <trkpt lat="45.7" lon="2.83897">
        <ele>862.356347</ele>
        <time>2021-07-06T13:45:17+0200</time>
      </trkpt>
      <trkpt lat="45.70006" lon="2.83893">
        <ele>861.924719</ele>
        <time>2021-07-06T13:45:18+0200</time>
      </trkpt>
      <trkpt lat="45.7001" lon="2.83888">
        <ele>861.467393</ele>
        <time>2021-07-06T13:45:19+0200</time>
      </trkpt>
      <trkpt lat="45.70014" lon="2.83886">
        <ele>861.825059</ele>
        <time>2021-07-06T13:45:20+0200</time>
      </trkpt>
      <trkpt lat="45.7002" lon="2.83881">
        <ele>860.81924</ele>
        <time>2021-07-06T13:45:21+0200</time>
      </trkpt>
      <trkpt lat="45.70025" lon="2.83878">
        <ele>860.348197</ele>
        <time>2021-07-06T13:45:22+0200</time>
      </trkpt>
      <trkpt lat="45.70031" lon="2.83874">
        <ele>859.319305</ele>
        <time>2021-07-06T13:45:23+0200</time>
      </trkpt>
      <trkpt lat="45.70036" lon="2.8387">
        <ele>858.883228</ele>
        <time>2021-07-06T13:45:24+0200</time>
      </trkpt>
      <trkpt lat="45.7004" lon="2.83865">
        <ele>858.272372</ele>
        <time>2021-07-06T13:45:25+0200</time>
      </trkpt>
      <trkpt lat="45.70045" lon="2.83859">
        <ele>858.126169</ele>
        <time>2021-07-06T13:45:26+0200</time>
      </trkpt>
      <trkpt lat="45.70053" lon="2.83854">
        <ele>857.262232</ele>
        <time>2021-07-06T13:45:27+0200</time>
      </trkpt>
      <trkpt lat="45.7006" lon="2.8385">
        <ele>855.89851</ele>
        <time>2021-07-06T13:45:28+0200</time>
      </trkpt>
      <trkpt lat="45.70067" lon="2.83845">
        <ele>854.79404</ele>
        <time>2021-07-06T13:45:29+0200</time>
      </trkpt>
      <trkpt lat="45.70073" lon="2.83838">
        <ele>854.475197</ele>
        <time>2021-07-06T13:45:30+0200</time>
      </trkpt>
      <trkpt lat="45.70078" lon="2.83831">
        <ele>854.332398</ele>
        <time>2021-07-06T13:45:31+0200</time>
      </trkpt>
      <trkpt lat="45.70084" lon="2.83825">
        <ele>853.623892</ele>
        <time>2021-07-06T13:45:32+0200</time>
      </trkpt>
      <trkpt lat="45.70091" lon="2.83818">
        <ele>852.998326</ele>
        <time>2021-07-06T13:45:33+0200</time>
      </trkpt>
      <trkpt lat="45.70095" lon="2.83812">
        <ele>852.792767</ele>
        <time>2021-07-06T13:45:34+0200</time>
      </trkpt>
      <trkpt lat="45.70097" lon="2.83805">
        <ele>852.859099</ele>
        <time>2021-07-06T13:45:37+0200</time>
      </trkpt>
      <trkpt lat="45.70097" lon="2.83812">
        <ele>853.679763</ele>
        <time>2021-07-06T13:45:41+0200</time>
      </trkpt>
      <trkpt lat="45.70092" lon="2.83812">
        <ele>854.456018</ele>
        <time>2021-07-06T13:45:44+0200</time>
      </trkpt>
      <trkpt lat="45.70086" lon="2.83817">
        <ele>855.121282</ele>
        <time>2021-07-06T13:45:47+0200</time>
      </trkpt>
      <trkpt lat="45.70082" lon="2.83823">
        <ele>855.747783</ele>
        <time>2021-07-06T13:45:49+0200</time>
      </trkpt>
      <trkpt lat="45.70076" lon="2.83826">
        <ele>855.553996</ele>
        <time>2021-07-06T13:45:52+0200</time>
      </trkpt>
      <trkpt lat="45.70075" lon="2.83818">
        <ele>856.164052</ele>
        <time>2021-07-06T13:45:54+0200</time>
      </trkpt>
      <trkpt lat="45.70081" lon="2.83813">
        <ele>856.404324</ele>
        <time>2021-07-06T13:45:56+0200</time>
      </trkpt>
      <trkpt lat="45.70089" lon="2.83808">
        <ele>855.983909</ele>
        <time>2021-07-06T13:45:58+0200</time>
      </trkpt>
      <trkpt lat="45.70093" lon="2.83804">
        <ele>855.910568</ele>
        <time>2021-07-06T13:45:59+0200</time>
      </trkpt>
      <trkpt lat="45.70101" lon="2.83795">
        <ele>855.317916</ele>
        <time>2021-07-06T13:46:01+0200</time>
      </trkpt>
      <trkpt lat="45.70106" lon="2.83791">
        <ele>854.57086</ele>
        <time>2021-07-06T13:46:02+0200</time>
      </trkpt>
      <trkpt lat="45.70111" lon="2.83787">
        <ele>853.902621</ele>
        <time>2021-07-06T13:46:03+0200</time>
      </trkpt>
      <trkpt lat="45.70117" lon="2.83783">
        <ele>853.528016</ele>
        <time>2021-07-06T13:46:04+0200</time>
      </trkpt>
      <trkpt lat="45.70123" lon="2.83777">
        <ele>853.220826</ele>
        <time>2021-07-06T13:46:05+0200</time>
      </trkpt>
      <trkpt lat="45.70129" lon="2.83773">
        <ele>853.009885</ele>
        <time>2021-07-06T13:46:06+0200</time>
      </trkpt>
      <trkpt lat="45.70134" lon="2.83771">
        <ele>852.937556</ele>
        <time>2021-07-06T13:46:07+0200</time>
      </trkpt>
      <trkpt lat="45.7014" lon="2.83769">
        <ele>852.193425</ele>
        <time>2021-07-06T13:46:08+0200</time>
      </trkpt>
      <trkpt lat="45.70146" lon="2.83766">
        <ele>851.826923</ele>
        <time>2021-07-06T13:46:09+0200</time>
      </trkpt>
      <trkpt lat="45.70152" lon="2.83763">
        <ele>851.83379</ele>
        <time>2021-07-06T13:46:10+0200</time>
      </trkpt>
      <trkpt lat="45.70159" lon="2.8376">
        <ele>851.764908</ele>
        <time>2021-07-06T13:46:11+0200</time>
      </trkpt>
      <trkpt lat="45.70166" lon="2.83758">
        <ele>850.96532</ele>
        <time>2021-07-06T13:46:12+0200</time>
      </trkpt>
      <trkpt lat="45.70173" lon="2.83756">
        <ele>849.779915</ele>
        <time>2021-07-06T13:46:13+0200</time>
      </trkpt>
      <trkpt lat="45.70182" lon="2.83753">
        <ele>847.485209</ele>
        <time>2021-07-06T13:46:14+0200</time>
      </trkpt>
      <trkpt lat="45.7019" lon="2.8375">
        <ele>847.337401</ele>
        <time>2021-07-06T13:46:15+0200</time>
      </trkpt>
      <trkpt lat="45.70198" lon="2.83746">
        <ele>846.657997</ele>
        <time>2021-07-06T13:46:16+0200</time>
      </trkpt>
      <trkpt lat="45.70206" lon="2.83744">
        <ele>846.441184</ele>
        <time>2021-07-06T13:46:17+0200</time>
      </trkpt>
      <trkpt lat="45.70215" lon="2.83742">
        <ele>845.945413</ele>
        <time>2021-07-06T13:46:18+0200</time>
      </trkpt>
      <trkpt lat="45.70223" lon="2.83739">
        <ele>845.753818</ele>
        <time>2021-07-06T13:46:19+0200</time>
      </trkpt>
      <trkpt lat="45.70231" lon="2.83735">
        <ele>845.368142</ele>
        <time>2021-07-06T13:46:20+0200</time>
      </trkpt>
      <trkpt lat="45.70237" lon="2.83733">
        <ele>845.25269</ele>
        <time>2021-07-06T13:46:21+0200</time>
      </trkpt>
      <trkpt lat="45.70244" lon="2.83731">
        <ele>845.320562</ele>
        <time>2021-07-06T13:46:22+0200</time>
      </trkpt>
      <trkpt lat="45.7025" lon="2.83728">
        <ele>845.17076</ele>
        <time>2021-07-06T13:46:23+0200</time>
      </trkpt>
      <trkpt lat="45.70257" lon="2.83726">
        <ele>845.819956</ele>
        <time>2021-07-06T13:46:24+0200</time>
      </trkpt>
      <trkpt lat="45.70261" lon="2.83726">
        <ele>845.876686</ele>
        <time>2021-07-06T13:46:25+0200</time>
      </trkpt>
      <trkpt lat="45.70257" lon="2.83728">
        <ele>848.505001</ele>
        <time>2021-07-06T13:46:44+0200</time>
      </trkpt>
      <trkpt lat="45.70252" lon="2.8373">
        <ele>847.982967</ele>
        <time>2021-07-06T13:46:46+0200</time>
      </trkpt>
      <trkpt lat="45.70246" lon="2.83733">
        <ele>847.455851</ele>
        <time>2021-07-06T13:46:48+0200</time>
      </trkpt>
      <trkpt lat="45.70239" lon="2.83728">
        <ele>847.84771</ele>
        <time>2021-07-06T13:46:50+0200</time>
      </trkpt>
      <trkpt lat="45.70237" lon="2.83717">
        <ele>848.969844</ele>
        <time>2021-07-06T13:46:52+0200</time>
      </trkpt>
      <trkpt lat="45.70239" lon="2.83706">
        <ele>851.478571</ele>
        <time>2021-07-06T13:46:54+0200</time>
      </trkpt>
      <trkpt lat="45.70244" lon="2.83701">
        <ele>850.192103</ele>
        <time>2021-07-06T13:46:56+0200</time>
      </trkpt>
      <trkpt lat="45.70248" lon="2.83695">
        <ele>850.164693</ele>
        <time>2021-07-06T13:46:58+0200</time>
      </trkpt>
      <trkpt lat="45.70253" lon="2.83692">
        <ele>850.184446</ele>
        <time>2021-07-06T13:47:00+0200</time>
      </trkpt>
      <trkpt lat="45.70259" lon="2.83691">
        <ele>848.695022</ele>
        <time>2021-07-06T13:47:03+0200</time>
      </trkpt>
      <trkpt lat="45.70264" lon="2.8369">
        <ele>849.075515</ele>
        <time>2021-07-06T13:47:05+0200</time>
      </trkpt>
      <trkpt lat="45.70269" lon="2.8369">
        <ele>848.211452</ele>
        <time>2021-07-06T13:47:06+0200</time>
      </trkpt>
      <trkpt lat="45.70277" lon="2.83692">
        <ele>847.63221</ele>
        <time>2021-07-06T13:47:08+0200</time>
      </trkpt>
      <trkpt lat="45.70281" lon="2.83693">
        <ele>847.634525</ele>
        <time>2021-07-06T13:47:09+0200</time>
      </trkpt>
      <trkpt lat="45.70291" lon="2.83698">
        <ele>844.010018</ele>
        <time>2021-07-06T13:47:11+0200</time>
      </trkpt>
      <trkpt lat="45.70296" lon="2.83701">
        <ele>841.252249</ele>
        <time>2021-07-06T13:47:12+0200</time>
      </trkpt>
      <trkpt lat="45.70302" lon="2.83705">
        <ele>839.263475</ele>
        <time>2021-07-06T13:47:13+0200</time>
      </trkpt>
      <trkpt lat="45.70308" lon="2.83709">
        <ele>837.024201</ele>
        <time>2021-07-06T13:47:14+0200</time>
      </trkpt>
      <trkpt lat="45.70315" lon="2.8371">
        <ele>836.18851</ele>
        <time>2021-07-06T13:47:15+0200</time>
      </trkpt>
      <trkpt lat="45.70322" lon="2.83713">
        <ele>835.677749</ele>
        <time>2021-07-06T13:47:16+0200</time>
      </trkpt>
      <trkpt lat="45.7033" lon="2.83714">
        <ele>834.50226</ele>
        <time>2021-07-06T13:47:17+0200</time>
      </trkpt>
      <trkpt lat="45.70338" lon="2.83715">
        <ele>832.533825</ele>
        <time>2021-07-06T13:47:18+0200</time>
      </trkpt>
      <trkpt lat="45.70343" lon="2.83717">
        <ele>830.974489</ele>
        <time>2021-07-06T13:47:19+0200</time>
      </trkpt>
      <trkpt lat="45.70348" lon="2.83716">
        <ele>830.400131</ele>
        <time>2021-07-06T13:47:20+0200</time>
      </trkpt>
      <trkpt lat="45.70356" lon="2.83718">
        <ele>831.137126</ele>
        <time>2021-07-06T13:47:22+0200</time>
      </trkpt>
      <trkpt lat="45.70364" lon="2.83718">
        <ele>831.545539</ele>
        <time>2021-07-06T13:47:24+0200</time>
      </trkpt>
      <trkpt lat="45.70371" lon="2.83717">
        <ele>828.902354</ele>
        <time>2021-07-06T13:47:26+0200</time>
      </trkpt>
      <trkpt lat="45.70378" lon="2.83718">
        <ele>829.101927</ele>
        <time>2021-07-06T13:47:27+0200</time>
      </trkpt>
      <trkpt lat="45.70385" lon="2.8372">
        <ele>828.132155</ele>
        <time>2021-07-06T13:47:28+0200</time>
      </trkpt>
      <trkpt lat="45.7039" lon="2.83721">
        <ele>826.236608</ele>
        <time>2021-07-06T13:47:29+0200</time>
      </trkpt>
      <trkpt lat="45.70397" lon="2.83723">
        <ele>825.300707</ele>
        <time>2021-07-06T13:47:30+0200</time>
      </trkpt>
      <trkpt lat="45.70403" lon="2.83725">
        <ele>825.381894</ele>
        <time>2021-07-06T13:47:31+0200</time>
      </trkpt>
      <trkpt lat="45.70412" lon="2.83728">
        <ele>822.984231</ele>
        <time>2021-07-06T13:47:32+0200</time>
      </trkpt>
      <trkpt lat="45.70418" lon="2.83731">
        <ele>821.614151</ele>
        <time>2021-07-06T13:47:33+0200</time>
      </trkpt>
      <trkpt lat="45.70423" lon="2.83733">
        <ele>820.140082</ele>
        <time>2021-07-06T13:47:34+0200</time>
      </trkpt>
      <trkpt lat="45.70428" lon="2.83733">
        <ele>819.849425</ele>
        <time>2021-07-06T13:47:35+0200</time>
      </trkpt>
      <trkpt lat="45.70433" lon="2.83735">
        <ele>817.92854</ele>
        <time>2021-07-06T13:47:36+0200</time>
      </trkpt>
      <trkpt lat="45.7044" lon="2.83737">
        <ele>816.568641</ele>
        <time>2021-07-06T13:47:37+0200</time>
      </trkpt>
      <trkpt lat="45.70447" lon="2.83738">
        <ele>816.061206</ele>
        <time>2021-07-06T13:47:38+0200</time>
      </trkpt>
      <trkpt lat="45.70453" lon="2.83735">
        <ele>814.923966</ele>
        <time>2021-07-06T13:47:39+0200</time>
      </trkpt>
      <trkpt lat="45.70459" lon="2.83735">
        <ele>814.467127</ele>
        <time>2021-07-06T13:47:40+0200</time>
      </trkpt>
      <trkpt lat="45.70464" lon="2.83738">
        <ele>813.039406</ele>
        <time>2021-07-06T13:47:41+0200</time>
      </trkpt>
      <trkpt lat="45.70471" lon="2.83742">
        <ele>810.571839</ele>
        <time>2021-07-06T13:47:42+0200</time>
      </trkpt>
      <trkpt lat="45.70476" lon="2.83748">
        <ele>808.259377</ele>
        <time>2021-07-06T13:47:43+0200</time>
      </trkpt>
      <trkpt lat="45.7048" lon="2.83753">
        <ele>807.817418</ele>
        <time>2021-07-06T13:47:44+0200</time>
      </trkpt>
      <trkpt lat="45.70484" lon="2.83759">
        <ele>807.528514</ele>
        <time>2021-07-06T13:47:46+0200</time>
      </trkpt>
      <trkpt lat="45.70489" lon="2.83765">
        <ele>807.097163</ele>
        <time>2021-07-06T13:47:51+0200</time>
      </trkpt>
      <trkpt lat="45.70491" lon="2.83771">
        <ele>809.313747</ele>
        <time>2021-07-06T13:48:15+0200</time>
      </trkpt>
      <trkpt lat="45.70496" lon="2.83775">
        <ele>808.540015</ele>
        <time>2021-07-06T13:48:18+0200</time>
      </trkpt>
      <trkpt lat="45.70501" lon="2.83779">
        <ele>807.7774</ele>
        <time>2021-07-06T13:48:21+0200</time>
      </trkpt>
      <trkpt lat="45.70506" lon="2.83777">
        <ele>808.841827</ele>
        <time>2021-07-06T13:48:24+0200</time>
      </trkpt>
      <trkpt lat="45.70509" lon="2.83771">
        <ele>809.913269</ele>
        <time>2021-07-06T13:48:29+0200</time>
      </trkpt>
      <trkpt lat="45.70513" lon="2.83765">
        <ele>811.379252</ele>
        <time>2021-07-06T13:48:32+0200</time>
      </trkpt>
      <trkpt lat="45.70516" lon="2.8376">
        <ele>812.880276</ele>
        <time>2021-07-06T13:48:35+0200</time>
      </trkpt>
      <trkpt lat="45.70521" lon="2.83754">
        <ele>813.330016</ele>
        <time>2021-07-06T13:48:39+0200</time>
      </trkpt>
      <trkpt lat="45.70525" lon="2.83748">
        <ele>813.287388</ele>
        <time>2021-07-06T13:48:42+0200</time>
      </trkpt>
      <trkpt lat="45.70529" lon="2.83744">
        <ele>812.857474</ele>
        <time>2021-07-06T13:48:45+0200</time>
      </trkpt>
      <trkpt lat="45.70534" lon="2.83738">
        <ele>813.602884</ele>
        <time>2021-07-06T13:48:48+0200</time>
      </trkpt>
      <trkpt lat="45.70538" lon="2.83734">
        <ele>815.38129</ele>
        <time>2021-07-06T13:48:52+0200</time>
      </trkpt>
      <trkpt lat="45.70542" lon="2.83729">
        <ele>816.243326</ele>
        <time>2021-07-06T13:48:55+0200</time>
      </trkpt>
      <trkpt lat="45.70547" lon="2.83725">
        <ele>816.641664</ele>
        <time>2021-07-06T13:48:58+0200</time>
      </trkpt>
      <trkpt lat="45.70552" lon="2.83722">
        <ele>816.583118</ele>
        <time>2021-07-06T13:49:00+0200</time>
      </trkpt>
      <trkpt lat="45.70557" lon="2.83718">
        <ele>815.9658</ele>
        <time>2021-07-06T13:49:04+0200</time>
      </trkpt>
      <trkpt lat="45.70563" lon="2.83715">
        <ele>816.248523</ele>
        <time>2021-07-06T13:49:07+0200</time>
      </trkpt>
      <trkpt lat="45.70567" lon="2.83712">
        <ele>818.182044</ele>
        <time>2021-07-06T13:49:10+0200</time>
      </trkpt>
      <trkpt lat="45.70573" lon="2.83709">
        <ele>817.990035</ele>
        <time>2021-07-06T13:49:12+0200</time>
      </trkpt>
      <trkpt lat="45.70579" lon="2.83705">
        <ele>818.684011</ele>
        <time>2021-07-06T13:49:15+0200</time>
      </trkpt>
      <trkpt lat="45.70584" lon="2.83704">
        <ele>818.539013</ele>
        <time>2021-07-06T13:49:18+0200</time>
      </trkpt>
      <trkpt lat="45.70589" lon="2.83701">
        <ele>818.833462</ele>
        <time>2021-07-06T13:49:20+0200</time>
      </trkpt>
      <trkpt lat="45.70593" lon="2.83698">
        <ele>818.410155</ele>
        <time>2021-07-06T13:49:23+0200</time>
      </trkpt>
      <trkpt lat="45.70598" lon="2.83698">
        <ele>816.917651</ele>
        <time>2021-07-06T13:49:25+0200</time>
      </trkpt>
      <trkpt lat="45.70604" lon="2.83698">
        <ele>818.067971</ele>
        <time>2021-07-06T13:49:28+0200</time>
      </trkpt>
      <trkpt lat="45.70609" lon="2.837">
        <ele>816.414245</ele>
        <time>2021-07-06T13:49:31+0200</time>
      </trkpt>
      <trkpt lat="45.70614" lon="2.83702">
        <ele>817.59909</ele>
        <time>2021-07-06T13:49:33+0200</time>
      </trkpt>
      <trkpt lat="45.70619" lon="2.83707">
        <ele>816.517042</ele>
        <time>2021-07-06T13:49:35+0200</time>
      </trkpt>
      <trkpt lat="45.70623" lon="2.83713">
        <ele>815.595081</ele>
        <time>2021-07-06T13:49:37+0200</time>
      </trkpt>
      <trkpt lat="45.70626" lon="2.83718">
        <ele>815.946524</ele>
        <time>2021-07-06T13:49:40+0200</time>
      </trkpt>
      <trkpt lat="45.70628" lon="2.83727">
        <ele>817.347861</ele>
        <time>2021-07-06T13:49:44+0200</time>
      </trkpt>
      <trkpt lat="45.70629" lon="2.83733">
        <ele>819.351348</ele>
        <time>2021-07-06T13:49:46+0200</time>
      </trkpt>
      <trkpt lat="45.70628" lon="2.83741">
        <ele>820.502361</ele>
        <time>2021-07-06T13:49:48+0200</time>
      </trkpt>
      <trkpt lat="45.70628" lon="2.83748">
        <ele>822.768682</ele>
        <time>2021-07-06T13:49:50+0200</time>
      </trkpt>
      <trkpt lat="45.70629" lon="2.83757">
        <ele>825.238266</ele>
        <time>2021-07-06T13:49:52+0200</time>
      </trkpt>
      <trkpt lat="45.70629" lon="2.83765">
        <ele>825.450744</ele>
        <time>2021-07-06T13:49:55+0200</time>
      </trkpt>
      <trkpt lat="45.70628" lon="2.83772">
        <ele>825.685911</ele>
        <time>2021-07-06T13:49:56+0200</time>
      </trkpt>
      <trkpt lat="45.70627" lon="2.83779">
        <ele>826.43277</ele>
        <time>2021-07-06T13:49:58+0200</time>
      </trkpt>
      <trkpt lat="45.70627" lon="2.83788">
        <ele>827.334627</ele>
        <time>2021-07-06T13:50:01+0200</time>
      </trkpt>
      <trkpt lat="45.70624" lon="2.83795">
        <ele>828.481489</ele>
        <time>2021-07-06T13:50:03+0200</time>
      </trkpt>
      <trkpt lat="45.70621" lon="2.83803">
        <ele>826.395772</ele>
        <time>2021-07-06T13:50:05+0200</time>
      </trkpt>
      <trkpt lat="45.7062" lon="2.83809">
        <ele>826.944383</ele>
        <time>2021-07-06T13:50:07+0200</time>
      </trkpt>
      <trkpt lat="45.7062" lon="2.83817">
        <ele>826.759539</ele>
        <time>2021-07-06T13:50:09+0200</time>
      </trkpt>
      <trkpt lat="45.70621" lon="2.83825">
        <ele>823.350145</ele>
        <time>2021-07-06T13:50:11+0200</time>
      </trkpt>
      <trkpt lat="45.70623" lon="2.83833">
        <ele>820.474509</ele>
        <time>2021-07-06T13:50:13+0200</time>
      </trkpt>
      <trkpt lat="45.70624" lon="2.8384">
        <ele>819.624174</ele>
        <time>2021-07-06T13:50:15+0200</time>
      </trkpt>
      <trkpt lat="45.70627" lon="2.83846">
        <ele>819.322502</ele>
        <time>2021-07-06T13:50:17+0200</time>
      </trkpt>
      <trkpt lat="45.70631" lon="2.83851">
        <ele>818.172691</ele>
        <time>2021-07-06T13:50:19+0200</time>
      </trkpt>
      <trkpt lat="45.70636" lon="2.83857">
        <ele>818.665771</ele>
        <time>2021-07-06T13:50:21+0200</time>
      </trkpt>
      <trkpt lat="45.70636" lon="2.83865">
        <ele>818.494387</ele>
        <time>2021-07-06T13:50:23+0200</time>
      </trkpt>
      <trkpt lat="45.70635" lon="2.83871">
        <ele>818.310786</ele>
        <time>2021-07-06T13:50:25+0200</time>
      </trkpt>
      <trkpt lat="45.70637" lon="2.83879">
        <ele>817.887748</ele>
        <time>2021-07-06T13:50:27+0200</time>
      </trkpt>
      <trkpt lat="45.70637" lon="2.83886">
        <ele>817.542522</ele>
        <time>2021-07-06T13:50:29+0200</time>
      </trkpt>
      <trkpt lat="45.70639" lon="2.83892">
        <ele>818.155723</ele>
        <time>2021-07-06T13:50:31+0200</time>
      </trkpt>
      <trkpt lat="45.70638" lon="2.83901">
        <ele>818.00365</ele>
        <time>2021-07-06T13:50:34+0200</time>
      </trkpt>
      <trkpt lat="45.70641" lon="2.83907">
        <ele>818.659865</ele>
        <time>2021-07-06T13:50:36+0200</time>
      </trkpt>
      <trkpt lat="45.70643" lon="2.83913">
        <ele>819.537496</ele>
        <time>2021-07-06T13:50:38+0200</time>
      </trkpt>
      <trkpt lat="45.70645" lon="2.83922">
        <ele>820.62262</ele>
        <time>2021-07-06T13:50:41+0200</time>
      </trkpt>
      <trkpt lat="45.70648" lon="2.83931">
        <ele>821.108133</ele>
        <time>2021-07-06T13:50:44+0200</time>
      </trkpt>
      <trkpt lat="45.7065" lon="2.83937">
        <ele>822.268649</ele>
        <time>2021-07-06T13:50:46+0200</time>
      </trkpt>
      <trkpt lat="45.70653" lon="2.83943">
        <ele>822.927013</ele>
        <time>2021-07-06T13:50:48+0200</time>
      </trkpt>
      <trkpt lat="45.70656" lon="2.83949">
        <ele>822.970193</ele>
        <time>2021-07-06T13:50:50+0200</time>
      </trkpt>
      <trkpt lat="45.70658" lon="2.83955">
        <ele>823.71522</ele>
        <time>2021-07-06T13:50:52+0200</time>
      </trkpt>
      <trkpt lat="45.70663" lon="2.8396">
        <ele>824.221181</ele>
        <time>2021-07-06T13:50:55+0200</time>
      </trkpt>
      <trkpt lat="45.70669" lon="2.83961">
        <ele>824.407365</ele>
        <time>2021-07-06T13:50:58+0200</time>
      </trkpt>
      <trkpt lat="45.70675" lon="2.83962">
        <ele>825.174965</ele>
        <time>2021-07-06T13:51:01+0200</time>
      </trkpt>
      <trkpt lat="45.70679" lon="2.8396">
        <ele>825.186149</ele>
        <time>2021-07-06T13:51:03+0200</time>
      </trkpt>
      <trkpt lat="45.70686" lon="2.8396">
        <ele>824.708284</ele>
        <time>2021-07-06T13:51:06+0200</time>
      </trkpt>
      <trkpt lat="45.70693" lon="2.83961">
        <ele>823.631351</ele>
        <time>2021-07-06T13:51:08+0200</time>
      </trkpt>
      <trkpt lat="45.70702" lon="2.83964">
        <ele>823.265628</ele>
        <time>2021-07-06T13:51:10+0200</time>
      </trkpt>
      <trkpt lat="45.70706" lon="2.83965">
        <ele>823.81491</ele>
        <time>2021-07-06T13:51:11+0200</time>
      </trkpt>
      <trkpt lat="45.70712" lon="2.83967">
        <ele>823.521104</ele>
        <time>2021-07-06T13:51:12+0200</time>
      </trkpt>
      <trkpt lat="45.70719" lon="2.8397">
        <ele>822.324403</ele>
        <time>2021-07-06T13:51:13+0200</time>
      </trkpt>
      <trkpt lat="45.70726" lon="2.83972">
        <ele>821.385178</ele>
        <time>2021-07-06T13:51:14+0200</time>
      </trkpt>
      <trkpt lat="45.70732" lon="2.83975">
        <ele>820.486501</ele>
        <time>2021-07-06T13:51:15+0200</time>
      </trkpt>
      <trkpt lat="45.70739" lon="2.83979">
        <ele>819.479837</ele>
        <time>2021-07-06T13:51:16+0200</time>
      </trkpt>
      <trkpt lat="45.70745" lon="2.83981">
        <ele>818.381858</ele>
        <time>2021-07-06T13:51:17+0200</time>
      </trkpt>
      <trkpt lat="45.70752" lon="2.83983">
        <ele>817.777806</ele>
        <time>2021-07-06T13:51:18+0200</time>
      </trkpt>
      <trkpt lat="45.70759" lon="2.83985">
        <ele>816.793263</ele>
        <time>2021-07-06T13:51:19+0200</time>
      </trkpt>
      <trkpt lat="45.70766" lon="2.83987">
        <ele>815.942389</ele>
        <time>2021-07-06T13:51:20+0200</time>
      </trkpt>
      <trkpt lat="45.70772" lon="2.83989">
        <ele>814.984059</ele>
        <time>2021-07-06T13:51:21+0200</time>
      </trkpt>
      <trkpt lat="45.70779" lon="2.8399">
        <ele>814.659426</ele>
        <time>2021-07-06T13:51:22+0200</time>
      </trkpt>
      <trkpt lat="45.70786" lon="2.8399">
        <ele>814.422938</ele>
        <time>2021-07-06T13:51:23+0200</time>
      </trkpt>
      <trkpt lat="45.70792" lon="2.83992">
        <ele>813.966036</ele>
        <time>2021-07-06T13:51:24+0200</time>
      </trkpt>
      <trkpt lat="45.70798" lon="2.83995">
        <ele>813.867998</ele>
        <time>2021-07-06T13:51:25+0200</time>
      </trkpt>
      <trkpt lat="45.70805" lon="2.83999">
        <ele>813.437506</ele>
        <time>2021-07-06T13:51:26+0200</time>
      </trkpt>
      <trkpt lat="45.7081" lon="2.84003">
        <ele>813.189712</ele>
        <time>2021-07-06T13:51:27+0200</time>
      </trkpt>
      <trkpt lat="45.70816" lon="2.84007">
        <ele>813.342848</ele>
        <time>2021-07-06T13:51:28+0200</time>
      </trkpt>
      <trkpt lat="45.70822" lon="2.84012">
        <ele>813.091465</ele>
        <time>2021-07-06T13:51:29+0200</time>
      </trkpt>
      <trkpt lat="45.70827" lon="2.84016">
        <ele>813.039512</ele>
        <time>2021-07-06T13:51:30+0200</time>
      </trkpt>
      <trkpt lat="45.70833" lon="2.8402">
        <ele>812.955453</ele>
        <time>2021-07-06T13:51:31+0200</time>
      </trkpt>
      <trkpt lat="45.70838" lon="2.84025">
        <ele>812.737109</ele>
        <time>2021-07-06T13:51:32+0200</time>
      </trkpt>
      <trkpt lat="45.70843" lon="2.84029">
        <ele>812.745563</ele>
        <time>2021-07-06T13:51:33+0200</time>
      </trkpt>
      <trkpt lat="45.70848" lon="2.84033">
        <ele>812.871929</ele>
        <time>2021-07-06T13:51:34+0200</time>
      </trkpt>
      <trkpt lat="45.70854" lon="2.84037">
        <ele>812.452775</ele>
        <time>2021-07-06T13:51:35+0200</time>
      </trkpt>
      <trkpt lat="45.70859" lon="2.84041">
        <ele>812.352361</ele>
        <time>2021-07-06T13:51:36+0200</time>
      </trkpt>
      <trkpt lat="45.70864" lon="2.84045">
        <ele>812.508967</ele>
        <time>2021-07-06T13:51:37+0200</time>
      </trkpt>
      <trkpt lat="45.7087" lon="2.84048">
        <ele>812.554371</ele>
        <time>2021-07-06T13:51:38+0200</time>
      </trkpt>
      <trkpt lat="45.70875" lon="2.8405">
        <ele>812.777003</ele>
        <time>2021-07-06T13:51:39+0200</time>
      </trkpt>
      <trkpt lat="45.7088" lon="2.84054">
        <ele>812.913104</ele>
        <time>2021-07-06T13:51:40+0200</time>
      </trkpt>
      <trkpt lat="45.70885" lon="2.84056">
        <ele>813.237841</ele>
        <time>2021-07-06T13:51:41+0200</time>
      </trkpt>
      <trkpt lat="45.70889" lon="2.84059">
        <ele>813.019953</ele>
        <time>2021-07-06T13:51:42+0200</time>
      </trkpt>
      <trkpt lat="45.70893" lon="2.84062">
        <ele>812.757942</ele>
        <time>2021-07-06T13:51:43+0200</time>
      </trkpt>
      <trkpt lat="45.70898" lon="2.84064">
        <ele>812.649262</ele>
        <time>2021-07-06T13:51:44+0200</time>
      </trkpt>
      <trkpt lat="45.70903" lon="2.84066">
        <ele>812.593081</ele>
        <time>2021-07-06T13:51:45+0200</time>
      </trkpt>
      <trkpt lat="45.70911" lon="2.84069">
        <ele>812.61061</ele>
        <time>2021-07-06T13:51:47+0200</time>
      </trkpt>
      <trkpt lat="45.7092" lon="2.84072">
        <ele>812.563397</ele>
        <time>2021-07-06T13:51:49+0200</time>
      </trkpt>
      <trkpt lat="45.70929" lon="2.84076">
        <ele>812.637231</ele>
        <time>2021-07-06T13:51:51+0200</time>
      </trkpt>
      <trkpt lat="45.70933" lon="2.84078">
        <ele>812.710639</ele>
        <time>2021-07-06T13:51:51+0200</time>
      </trkpt>
      <trkpt lat="45.70941" lon="2.84082">
        <ele>813.318706</ele>
        <time>2021-07-06T13:51:53+0200</time>
      </trkpt>
      <trkpt lat="45.70945" lon="2.84083">
        <ele>813.360352</ele>
        <time>2021-07-06T13:51:54+0200</time>
      </trkpt>
      <trkpt lat="45.7095" lon="2.84083">
        <ele>813.147892</ele>
        <time>2021-07-06T13:51:55+0200</time>
      </trkpt>
      <trkpt lat="45.70954" lon="2.84085">
        <ele>813.426641</ele>
        <time>2021-07-06T13:51:56+0200</time>
      </trkpt>
      <trkpt lat="45.70959" lon="2.84086">
        <ele>813.466802</ele>
        <time>2021-07-06T13:51:57+0200</time>
      </trkpt>
      <trkpt lat="45.70964" lon="2.84087">
        <ele>813.12161</ele>
        <time>2021-07-06T13:51:58+0200</time>
      </trkpt>
      <trkpt lat="45.70969" lon="2.84088">
        <ele>813.063342</ele>
        <time>2021-07-06T13:51:59+0200</time>
      </trkpt>
      <trkpt lat="45.70974" lon="2.8409">
        <ele>813.184784</ele>
        <time>2021-07-06T13:52:00+0200</time>
      </trkpt>
      <trkpt lat="45.7098" lon="2.84092">
        <ele>812.883351</ele>
        <time>2021-07-06T13:52:01+0200</time>
      </trkpt>
      <trkpt lat="45.70986" lon="2.84093">
        <ele>812.613062</ele>
        <time>2021-07-06T13:52:02+0200</time>
      </trkpt>
      <trkpt lat="45.70991" lon="2.84094">
        <ele>812.644847</ele>
        <time>2021-07-06T13:52:03+0200</time>
      </trkpt>
      <trkpt lat="45.70997" lon="2.84095">
        <ele>812.688549</ele>
        <time>2021-07-06T13:52:04+0200</time>
      </trkpt>
      <trkpt lat="45.71003" lon="2.84096">
        <ele>812.371836</ele>
        <time>2021-07-06T13:52:05+0200</time>
      </trkpt>
      <trkpt lat="45.7101" lon="2.84097">
        <ele>812.045087</ele>
        <time>2021-07-06T13:52:06+0200</time>
      </trkpt>
      <trkpt lat="45.71017" lon="2.84098">
        <ele>812.030784</ele>
        <time>2021-07-06T13:52:07+0200</time>
      </trkpt>
      <trkpt lat="45.71024" lon="2.841">
        <ele>812.091305</ele>
        <time>2021-07-06T13:52:08+0200</time>
      </trkpt>
      <trkpt lat="45.7103" lon="2.84102">
        <ele>812.248801</ele>
        <time>2021-07-06T13:52:10+0200</time>
      </trkpt>
      <trkpt lat="45.71037" lon="2.84104">
        <ele>811.669626</ele>
        <time>2021-07-06T13:52:11+0200</time>
      </trkpt>
      <trkpt lat="45.71045" lon="2.84105">
        <ele>810.843258</ele>
        <time>2021-07-06T13:52:12+0200</time>
      </trkpt>
      <trkpt lat="45.71052" lon="2.84106">
        <ele>810.421544</ele>
        <time>2021-07-06T13:52:13+0200</time>
      </trkpt>
      <trkpt lat="45.71059" lon="2.84105">
        <ele>809.709376</ele>
        <time>2021-07-06T13:52:14+0200</time>
      </trkpt>
      <trkpt lat="45.71066" lon="2.84105">
        <ele>809.308263</ele>
        <time>2021-07-06T13:52:15+0200</time>
      </trkpt>
      <trkpt lat="45.71073" lon="2.84106">
        <ele>808.887718</ele>
        <time>2021-07-06T13:52:16+0200</time>
      </trkpt>
      <trkpt lat="45.71081" lon="2.84105">
        <ele>808.288628</ele>
        <time>2021-07-06T13:52:17+0200</time>
      </trkpt>
      <trkpt lat="45.71088" lon="2.84106">
        <ele>807.79057</ele>
        <time>2021-07-06T13:52:18+0200</time>
      </trkpt>
      <trkpt lat="45.71097" lon="2.84106">
        <ele>807.047706</ele>
        <time>2021-07-06T13:52:19+0200</time>
      </trkpt>
      <trkpt lat="45.71105" lon="2.84107">
        <ele>806.646697</ele>
        <time>2021-07-06T13:52:20+0200</time>
      </trkpt>
      <trkpt lat="45.71114" lon="2.84107">
        <ele>805.603276</ele>
        <time>2021-07-06T13:52:21+0200</time>
      </trkpt>
      <trkpt lat="45.71123" lon="2.8411">
        <ele>804.894752</ele>
        <time>2021-07-06T13:52:22+0200</time>
      </trkpt>
      <trkpt lat="45.71132" lon="2.84112">
        <ele>804.293084</ele>
        <time>2021-07-06T13:52:23+0200</time>
      </trkpt>
      <trkpt lat="45.71142" lon="2.84114">
        <ele>803.36902</ele>
        <time>2021-07-06T13:52:24+0200</time>
      </trkpt>
      <trkpt lat="45.71152" lon="2.84116">
        <ele>802.427402</ele>
        <time>2021-07-06T13:52:25+0200</time>
      </trkpt>
      <trkpt lat="45.71162" lon="2.84117">
        <ele>801.518398</ele>
        <time>2021-07-06T13:52:26+0200</time>
      </trkpt>
      <trkpt lat="45.71173" lon="2.84118">
        <ele>799.645183</ele>
        <time>2021-07-06T13:52:27+0200</time>
      </trkpt>
      <trkpt lat="45.71183" lon="2.8412">
        <ele>798.636166</ele>
        <time>2021-07-06T13:52:28+0200</time>
      </trkpt>
      <trkpt lat="45.71193" lon="2.84124">
        <ele>797.761138</ele>
        <time>2021-07-06T13:52:29+0200</time>
      </trkpt>
      <trkpt lat="45.71202" lon="2.84127">
        <ele>797.263497</ele>
        <time>2021-07-06T13:52:30+0200</time>
      </trkpt>
      <trkpt lat="45.71213" lon="2.8413">
        <ele>796.381477</ele>
        <time>2021-07-06T13:52:31+0200</time>
      </trkpt>
      <trkpt lat="45.71223" lon="2.84132">
        <ele>795.916247</ele>
        <time>2021-07-06T13:52:32+0200</time>
      </trkpt>
      <trkpt lat="45.71233" lon="2.84134">
        <ele>795.524259</ele>
        <time>2021-07-06T13:52:33+0200</time>
      </trkpt>
      <trkpt lat="45.71244" lon="2.84139">
        <ele>795.499405</ele>
        <time>2021-07-06T13:52:34+0200</time>
      </trkpt>
      <trkpt lat="45.71253" lon="2.84149">
        <ele>794.253326</ele>
        <time>2021-07-06T13:52:35+0200</time>
      </trkpt>
      <trkpt lat="45.71262" lon="2.8416">
        <ele>793.332126</ele>
        <time>2021-07-06T13:52:36+0200</time>
      </trkpt>
      <trkpt lat="45.71271" lon="2.8417">
        <ele>792.437765</ele>
        <time>2021-07-06T13:52:37+0200</time>
      </trkpt>
      <trkpt lat="45.7128" lon="2.8418">
        <ele>791.423752</ele>
        <time>2021-07-06T13:52:38+0200</time>
      </trkpt>
      <trkpt lat="45.71289" lon="2.8419">
        <ele>790.445812</ele>
        <time>2021-07-06T13:52:39+0200</time>
      </trkpt>
      <trkpt lat="45.71297" lon="2.842">
        <ele>789.364954</ele>
        <time>2021-07-06T13:52:40+0200</time>
      </trkpt>
      <trkpt lat="45.71306" lon="2.8421">
        <ele>788.298427</ele>
        <time>2021-07-06T13:52:41+0200</time>
      </trkpt>
      <trkpt lat="45.71315" lon="2.84219">
        <ele>787.758381</ele>
        <time>2021-07-06T13:52:42+0200</time>
      </trkpt>
      <trkpt lat="45.71324" lon="2.84227">
        <ele>787.305634</ele>
        <time>2021-07-06T13:52:43+0200</time>
      </trkpt>
      <trkpt lat="45.71334" lon="2.84232">
        <ele>787.117423</ele>
        <time>2021-07-06T13:52:44+0200</time>
      </trkpt>
      <trkpt lat="45.71344" lon="2.84236">
        <ele>786.944861</ele>
        <time>2021-07-06T13:52:45+0200</time>
      </trkpt>
      <trkpt lat="45.71353" lon="2.84239">
        <ele>786.560192</ele>
        <time>2021-07-06T13:52:46+0200</time>
      </trkpt>
      <trkpt lat="45.71362" lon="2.84244">
        <ele>786.354575</ele>
        <time>2021-07-06T13:52:47+0200</time>
      </trkpt>
      <trkpt lat="45.7137" lon="2.84247">
        <ele>787.040109</ele>
        <time>2021-07-06T13:52:48+0200</time>
      </trkpt>
      <trkpt lat="45.71378" lon="2.84249">
        <ele>786.678912</ele>
        <time>2021-07-06T13:52:49+0200</time>
      </trkpt>
      <trkpt lat="45.71387" lon="2.84251">
        <ele>786.65943</ele>
        <time>2021-07-06T13:52:50+0200</time>
      </trkpt>
      <trkpt lat="45.71395" lon="2.84253">
        <ele>786.624921</ele>
        <time>2021-07-06T13:52:51+0200</time>
      </trkpt>
      <trkpt lat="45.71403" lon="2.84255">
        <ele>787.076908</ele>
        <time>2021-07-06T13:52:52+0200</time>
      </trkpt>
      <trkpt lat="45.71409" lon="2.84255">
        <ele>786.521665</ele>
        <time>2021-07-06T13:52:53+0200</time>
      </trkpt>
      <trkpt lat="45.71414" lon="2.84256">
        <ele>786.98941</ele>
        <time>2021-07-06T13:52:55+0200</time>
      </trkpt>
      <trkpt lat="45.71418" lon="2.84252">
        <ele>788.135901</ele>
        <time>2021-07-06T13:52:57+0200</time>
      </trkpt>
      <trkpt lat="45.71419" lon="2.84245">
        <ele>788.231376</ele>
        <time>2021-07-06T13:52:59+0200</time>
      </trkpt>
      <trkpt lat="45.71421" lon="2.84238">
        <ele>791.309582</ele>
        <time>2021-07-06T13:53:02+0200</time>
      </trkpt>
      <trkpt lat="45.71422" lon="2.84232">
        <ele>791.856598</ele>
        <time>2021-07-06T13:53:04+0200</time>
      </trkpt>
      <trkpt lat="45.71426" lon="2.84226">
        <ele>792.03377</ele>
        <time>2021-07-06T13:53:08+0200</time>
      </trkpt>
      <trkpt lat="45.71428" lon="2.84219">
        <ele>791.279228</ele>
        <time>2021-07-06T13:53:11+0200</time>
      </trkpt>
      <trkpt lat="45.71431" lon="2.84212">
        <ele>790.771701</ele>
        <time>2021-07-06T13:53:14+0200</time>
      </trkpt>
      <trkpt lat="45.71434" lon="2.84204">
        <ele>789.004529</ele>
        <time>2021-07-06T13:53:17+0200</time>
      </trkpt>
      <trkpt lat="45.71437" lon="2.84195">
        <ele>789.272233</ele>
        <time>2021-07-06T13:53:19+0200</time>
      </trkpt>
      <trkpt lat="45.71441" lon="2.84184">
        <ele>787.75583</ele>
        <time>2021-07-06T13:53:21+0200</time>
      </trkpt>
      <trkpt lat="45.71446" lon="2.84174">
        <ele>787.054562</ele>
        <time>2021-07-06T13:53:23+0200</time>
      </trkpt>
      <trkpt lat="45.7145" lon="2.84164">
        <ele>786.839499</ele>
        <time>2021-07-06T13:53:25+0200</time>
      </trkpt>
      <trkpt lat="45.71455" lon="2.84152">
        <ele>782.547983</ele>
        <time>2021-07-06T13:53:27+0200</time>
      </trkpt>
      <trkpt lat="45.71457" lon="2.84145">
        <ele>782.505431</ele>
        <time>2021-07-06T13:53:28+0200</time>
      </trkpt>
      <trkpt lat="45.7146" lon="2.84138">
        <ele>781.897411</ele>
        <time>2021-07-06T13:53:29+0200</time>
      </trkpt>
      <trkpt lat="45.71465" lon="2.84132">
        <ele>780.941164</ele>
        <time>2021-07-06T13:53:30+0200</time>
      </trkpt>
      <trkpt lat="45.71469" lon="2.84128">
        <ele>780.081032</ele>
        <time>2021-07-06T13:53:31+0200</time>
      </trkpt>
      <trkpt lat="45.71475" lon="2.84124">
        <ele>778.723915</ele>
        <time>2021-07-06T13:53:33+0200</time>
      </trkpt>
      <trkpt lat="45.71484" lon="2.84122">
        <ele>778.354218</ele>
        <time>2021-07-06T13:53:35+0200</time>
      </trkpt>
      <trkpt lat="45.7149" lon="2.84119">
        <ele>779.313551</ele>
        <time>2021-07-06T13:53:37+0200</time>
      </trkpt>
      <trkpt lat="45.71496" lon="2.84119">
        <ele>779.522412</ele>
        <time>2021-07-06T13:53:39+0200</time>
      </trkpt>
      <trkpt lat="45.71504" lon="2.84118">
        <ele>779.192099</ele>
        <time>2021-07-06T13:53:41+0200</time>
      </trkpt>
      <trkpt lat="45.71509" lon="2.84118">
        <ele>778.549667</ele>
        <time>2021-07-06T13:53:42+0200</time>
      </trkpt>
      <trkpt lat="45.71516" lon="2.8412">
        <ele>776.882286</ele>
        <time>2021-07-06T13:53:43+0200</time>
      </trkpt>
      <trkpt lat="45.71521" lon="2.84123">
        <ele>776.347012</ele>
        <time>2021-07-06T13:53:44+0200</time>
      </trkpt>
      <trkpt lat="45.71527" lon="2.84127">
        <ele>776.067685</ele>
        <time>2021-07-06T13:53:45+0200</time>
      </trkpt>
      <trkpt lat="45.71534" lon="2.84134">
        <ele>775.363396</ele>
        <time>2021-07-06T13:53:46+0200</time>
      </trkpt>
      <trkpt lat="45.71542" lon="2.84142">
        <ele>775.37926</ele>
        <time>2021-07-06T13:53:47+0200</time>
      </trkpt>
      <trkpt lat="45.71548" lon="2.84152">
        <ele>773.725715</ele>
        <time>2021-07-06T13:53:48+0200</time>
      </trkpt>
      <trkpt lat="45.71555" lon="2.84161">
        <ele>772.465178</ele>
        <time>2021-07-06T13:53:49+0200</time>
      </trkpt>
      <trkpt lat="45.71562" lon="2.84171">
        <ele>770.828709</ele>
        <time>2021-07-06T13:53:50+0200</time>
      </trkpt>
      <trkpt lat="45.7157" lon="2.84177">
        <ele>769.897458</ele>
        <time>2021-07-06T13:53:51+0200</time>
      </trkpt>
      <trkpt lat="45.71577" lon="2.8418">
        <ele>768.605469</ele>
        <time>2021-07-06T13:53:52+0200</time>
      </trkpt>
      <trkpt lat="45.71583" lon="2.84181">
        <ele>767.926874</ele>
        <time>2021-07-06T13:53:53+0200</time>
      </trkpt>
      <trkpt lat="45.71589" lon="2.84178">
        <ele>767.509796</ele>
        <time>2021-07-06T13:53:54+0200</time>
      </trkpt>
      <trkpt lat="45.71595" lon="2.84175">
        <ele>767.504102</ele>
        <time>2021-07-06T13:53:55+0200</time>
      </trkpt>
      <trkpt lat="45.71602" lon="2.84176">
        <ele>766.204675</ele>
        <time>2021-07-06T13:53:56+0200</time>
      </trkpt>
      <trkpt lat="45.71609" lon="2.84182">
        <ele>765.292798</ele>
        <time>2021-07-06T13:53:57+0200</time>
      </trkpt>
      <trkpt lat="45.71616" lon="2.8419">
        <ele>764.363685</ele>
        <time>2021-07-06T13:53:58+0200</time>
      </trkpt>
      <trkpt lat="45.71619" lon="2.842">
        <ele>764.061994</ele>
        <time>2021-07-06T13:53:59+0200</time>
      </trkpt>
      <trkpt lat="45.71623" lon="2.8421">
        <ele>763.7794</ele>
        <time>2021-07-06T13:54:00+0200</time>
      </trkpt>
      <trkpt lat="45.71626" lon="2.8422">
        <ele>763.349489</ele>
        <time>2021-07-06T13:54:01+0200</time>
      </trkpt>
      <trkpt lat="45.7163" lon="2.84229">
        <ele>763.114545</ele>
        <time>2021-07-06T13:54:02+0200</time>
      </trkpt>
      <trkpt lat="45.71633" lon="2.84238">
        <ele>763.405646</ele>
        <time>2021-07-06T13:54:03+0200</time>
      </trkpt>
      <trkpt lat="45.71635" lon="2.84247">
        <ele>763.323208</ele>
        <time>2021-07-06T13:54:04+0200</time>
      </trkpt>
      <trkpt lat="45.71637" lon="2.84256">
        <ele>763.359554</ele>
        <time>2021-07-06T13:54:05+0200</time>
      </trkpt>
      <trkpt lat="45.71639" lon="2.84264">
        <ele>763.278897</ele>
        <time>2021-07-06T13:54:06+0200</time>
      </trkpt>
      <trkpt lat="45.71641" lon="2.84272">
        <ele>763.342953</ele>
        <time>2021-07-06T13:54:07+0200</time>
      </trkpt>
      <trkpt lat="45.71643" lon="2.8428">
        <ele>763.353022</ele>
        <time>2021-07-06T13:54:08+0200</time>
      </trkpt>
      <trkpt lat="45.71645" lon="2.84287">
        <ele>763.422627</ele>
        <time>2021-07-06T13:54:09+0200</time>
      </trkpt>
      <trkpt lat="45.71647" lon="2.84293">
        <ele>763.426582</ele>
        <time>2021-07-06T13:54:10+0200</time>
      </trkpt>
      <trkpt lat="45.7165" lon="2.843">
        <ele>763.103745</ele>
        <time>2021-07-06T13:54:11+0200</time>
      </trkpt>
      <trkpt lat="45.71653" lon="2.84307">
        <ele>762.747815</ele>
        <time>2021-07-06T13:54:12+0200</time>
      </trkpt>
      <trkpt lat="45.71656" lon="2.84313">
        <ele>762.409358</ele>
        <time>2021-07-06T13:54:13+0200</time>
      </trkpt>
      <trkpt lat="45.71659" lon="2.84319">
        <ele>762.128495</ele>
        <time>2021-07-06T13:54:14+0200</time>
      </trkpt>
      <trkpt lat="45.71662" lon="2.84326">
        <ele>761.600699</ele>
        <time>2021-07-06T13:54:15+0200</time>
      </trkpt>
      <trkpt lat="45.71666" lon="2.84335">
        <ele>760.965739</ele>
        <time>2021-07-06T13:54:16+0200</time>
      </trkpt>
      <trkpt lat="45.71671" lon="2.84344">
        <ele>760.22002</ele>
        <time>2021-07-06T13:54:17+0200</time>
      </trkpt>
      <trkpt lat="45.71675" lon="2.84353">
        <ele>758.396583</ele>
        <time>2021-07-06T13:54:18+0200</time>
      </trkpt>
      <trkpt lat="45.7168" lon="2.84364">
        <ele>757.539799</ele>
        <time>2021-07-06T13:54:19+0200</time>
      </trkpt>
      <trkpt lat="45.71685" lon="2.84375">
        <ele>756.353006</ele>
        <time>2021-07-06T13:54:20+0200</time>
      </trkpt>
      <trkpt lat="45.71691" lon="2.84386">
        <ele>755.835034</ele>
        <time>2021-07-06T13:54:21+0200</time>
      </trkpt>
      <trkpt lat="45.71697" lon="2.84395">
        <ele>755.228819</ele>
        <time>2021-07-06T13:54:22+0200</time>
      </trkpt>
      <trkpt lat="45.71702" lon="2.84406">
        <ele>754.668036</ele>
        <time>2021-07-06T13:54:23+0200</time>
      </trkpt>
      <trkpt lat="45.71708" lon="2.84416">
        <ele>754.421014</ele>
        <time>2021-07-06T13:54:24+0200</time>
      </trkpt>
      <trkpt lat="45.71713" lon="2.84425">
        <ele>754.216902</ele>
        <time>2021-07-06T13:54:25+0200</time>
      </trkpt>
      <trkpt lat="45.71718" lon="2.84435">
        <ele>754.007313</ele>
        <time>2021-07-06T13:54:26+0200</time>
      </trkpt>
      <trkpt lat="45.71724" lon="2.84444">
        <ele>754.104001</ele>
        <time>2021-07-06T13:54:27+0200</time>
      </trkpt>
      <trkpt lat="45.71729" lon="2.84452">
        <ele>753.98836</ele>
        <time>2021-07-06T13:54:28+0200</time>
      </trkpt>
      <trkpt lat="45.71735" lon="2.84461">
        <ele>753.96414</ele>
        <time>2021-07-06T13:54:29+0200</time>
      </trkpt>
      <trkpt lat="45.71741" lon="2.84468">
        <ele>754.17017</ele>
        <time>2021-07-06T13:54:30+0200</time>
      </trkpt>
      <trkpt lat="45.71746" lon="2.84475">
        <ele>753.992418</ele>
        <time>2021-07-06T13:54:31+0200</time>
      </trkpt>
      <trkpt lat="45.71751" lon="2.84482">
        <ele>753.791682</ele>
        <time>2021-07-06T13:54:32+0200</time>
      </trkpt>
      <trkpt lat="45.71756" lon="2.84489">
        <ele>753.671863</ele>
        <time>2021-07-06T13:54:33+0200</time>
      </trkpt>
      <trkpt lat="45.71762" lon="2.84494">
        <ele>753.512186</ele>
        <time>2021-07-06T13:54:34+0200</time>
      </trkpt>
      <trkpt lat="45.71768" lon="2.84499">
        <ele>753.468426</ele>
        <time>2021-07-06T13:54:35+0200</time>
      </trkpt>
      <trkpt lat="45.71773" lon="2.84504">
        <ele>753.494866</ele>
        <time>2021-07-06T13:54:36+0200</time>
      </trkpt>
      <trkpt lat="45.71779" lon="2.84509">
        <ele>753.363669</ele>
        <time>2021-07-06T13:54:37+0200</time>
      </trkpt>
      <trkpt lat="45.71785" lon="2.84514">
        <ele>753.148092</ele>
        <time>2021-07-06T13:54:38+0200</time>
      </trkpt>
      <trkpt lat="45.7179" lon="2.84521">
        <ele>752.866832</ele>
        <time>2021-07-06T13:54:39+0200</time>
      </trkpt>
      <trkpt lat="45.71796" lon="2.84527">
        <ele>752.680802</ele>
        <time>2021-07-06T13:54:40+0200</time>
      </trkpt>
      <trkpt lat="45.71801" lon="2.84533">
        <ele>752.609709</ele>
        <time>2021-07-06T13:54:41+0200</time>
      </trkpt>
      <trkpt lat="45.71806" lon="2.84539">
        <ele>752.593873</ele>
        <time>2021-07-06T13:54:42+0200</time>
      </trkpt>
      <trkpt lat="45.7181" lon="2.84545">
        <ele>752.787276</ele>
        <time>2021-07-06T13:54:43+0200</time>
      </trkpt>
      <trkpt lat="45.71815" lon="2.8455">
        <ele>753.056699</ele>
        <time>2021-07-06T13:54:44+0200</time>
      </trkpt>
      <trkpt lat="45.71821" lon="2.84554">
        <ele>753.003737</ele>
        <time>2021-07-06T13:54:45+0200</time>
      </trkpt>
      <trkpt lat="45.71827" lon="2.84556">
        <ele>753.278106</ele>
        <time>2021-07-06T13:54:46+0200</time>
      </trkpt>
      <trkpt lat="45.71834" lon="2.84558">
        <ele>753.316422</ele>
        <time>2021-07-06T13:54:47+0200</time>
      </trkpt>
      <trkpt lat="45.7184" lon="2.8456">
        <ele>752.879498</ele>
        <time>2021-07-06T13:54:48+0200</time>
      </trkpt>
      <trkpt lat="45.71847" lon="2.84561">
        <ele>752.367581</ele>
        <time>2021-07-06T13:54:49+0200</time>
      </trkpt>
      <trkpt lat="45.71854" lon="2.84563">
        <ele>752.278909</ele>
        <time>2021-07-06T13:54:50+0200</time>
      </trkpt>
      <trkpt lat="45.71861" lon="2.84564">
        <ele>751.705678</ele>
        <time>2021-07-06T13:54:51+0200</time>
      </trkpt>
      <trkpt lat="45.71868" lon="2.84566">
        <ele>751.130824</ele>
        <time>2021-07-06T13:54:52+0200</time>
      </trkpt>
      <trkpt lat="45.71875" lon="2.84568">
        <ele>751.161453</ele>
        <time>2021-07-06T13:54:53+0200</time>
      </trkpt>
      <trkpt lat="45.71882" lon="2.84568">
        <ele>750.716191</ele>
        <time>2021-07-06T13:54:54+0200</time>
      </trkpt>
      <trkpt lat="45.71889" lon="2.8457">
        <ele>750.456298</ele>
        <time>2021-07-06T13:54:55+0200</time>
      </trkpt>
      <trkpt lat="45.71896" lon="2.84572">
        <ele>750.000472</ele>
        <time>2021-07-06T13:54:56+0200</time>
      </trkpt>
      <trkpt lat="45.71903" lon="2.84574">
        <ele>749.979824</ele>
        <time>2021-07-06T13:54:57+0200</time>
      </trkpt>
      <trkpt lat="45.7191" lon="2.84575">
        <ele>749.68706</ele>
        <time>2021-07-06T13:54:58+0200</time>
      </trkpt>
      <trkpt lat="45.71915" lon="2.84579">
        <ele>749.651737</ele>
        <time>2021-07-06T13:54:59+0200</time>
      </trkpt>
      <trkpt lat="45.71919" lon="2.84583">
        <ele>749.836962</ele>
        <time>2021-07-06T13:55:00+0200</time>
      </trkpt>
      <trkpt lat="45.71922" lon="2.8459">
        <ele>750.126228</ele>
        <time>2021-07-06T13:55:01+0200</time>
      </trkpt>
      <trkpt lat="45.71923" lon="2.84598">
        <ele>750.210488</ele>
        <time>2021-07-06T13:55:02+0200</time>
      </trkpt>
      <trkpt lat="45.71925" lon="2.84605">
        <ele>751.005301</ele>
        <time>2021-07-06T13:55:03+0200</time>
      </trkpt>
      <trkpt lat="45.71927" lon="2.84611">
        <ele>751.627852</ele>
        <time>2021-07-06T13:55:04+0200</time>
      </trkpt>
      <trkpt lat="45.71929" lon="2.84618">
        <ele>753.065559</ele>
        <time>2021-07-06T13:55:05+0200</time>
      </trkpt>
      <trkpt lat="45.71931" lon="2.84624">
        <ele>754.264628</ele>
        <time>2021-07-06T13:55:06+0200</time>
      </trkpt>
      <trkpt lat="45.71933" lon="2.8463">
        <ele>755.214874</ele>
        <time>2021-07-06T13:55:07+0200</time>
      </trkpt>
      <trkpt lat="45.71936" lon="2.84641">
        <ele>756.19285</ele>
        <time>2021-07-06T13:55:09+0200</time>
      </trkpt>
      <trkpt lat="45.7194" lon="2.84652">
        <ele>756.207582</ele>
        <time>2021-07-06T13:55:11+0200</time>
      </trkpt>
      <trkpt lat="45.71944" lon="2.8466">
        <ele>755.817203</ele>
        <time>2021-07-06T13:55:13+0200</time>
      </trkpt>
      <trkpt lat="45.71948" lon="2.84669">
        <ele>755.94541</ele>
        <time>2021-07-06T13:55:15+0200</time>
      </trkpt>
      <trkpt lat="45.71952" lon="2.84675">
        <ele>756.717261</ele>
        <time>2021-07-06T13:55:17+0200</time>
      </trkpt>
      <trkpt lat="45.71956" lon="2.84681">
        <ele>756.984126</ele>
        <time>2021-07-06T13:55:19+0200</time>
      </trkpt>
      <trkpt lat="45.71959" lon="2.84687">
        <ele>757.293814</ele>
        <time>2021-07-06T13:55:21+0200</time>
      </trkpt>
      <trkpt lat="45.71963" lon="2.84694">
        <ele>757.041639</ele>
        <time>2021-07-06T13:55:23+0200</time>
      </trkpt>
      <trkpt lat="45.71966" lon="2.84699">
        <ele>757.071178</ele>
        <time>2021-07-06T13:55:25+0200</time>
      </trkpt>
      <trkpt lat="45.71969" lon="2.84705">
        <ele>757.795453</ele>
        <time>2021-07-06T13:55:27+0200</time>
      </trkpt>
      <trkpt lat="45.71973" lon="2.84712">
        <ele>757.571067</ele>
        <time>2021-07-06T13:55:29+0200</time>
      </trkpt>
      <trkpt lat="45.71976" lon="2.84718">
        <ele>757.833615</ele>
        <time>2021-07-06T13:55:31+0200</time>
      </trkpt>
      <trkpt lat="45.71979" lon="2.84725">
        <ele>758.155403</ele>
        <time>2021-07-06T13:55:33+0200</time>
      </trkpt>
      <trkpt lat="45.71982" lon="2.84731">
        <ele>758.423431</ele>
        <time>2021-07-06T13:55:35+0200</time>
      </trkpt>
      <trkpt lat="45.71985" lon="2.84738">
        <ele>758.295215</ele>
        <time>2021-07-06T13:55:37+0200</time>
      </trkpt>
      <trkpt lat="45.71987" lon="2.84745">
        <ele>758.411615</ele>
        <time>2021-07-06T13:55:39+0200</time>
      </trkpt>
      <trkpt lat="45.71988" lon="2.84752">
        <ele>758.901545</ele>
        <time>2021-07-06T13:55:41+0200</time>
      </trkpt>
      <trkpt lat="45.71989" lon="2.84759">
        <ele>759.425478</ele>
        <time>2021-07-06T13:55:43+0200</time>
      </trkpt>
      <trkpt lat="45.71991" lon="2.84769">
        <ele>759.73339</ele>
        <time>2021-07-06T13:55:46+0200</time>
      </trkpt>
      <trkpt lat="45.71992" lon="2.84775">
        <ele>759.549582</ele>
        <time>2021-07-06T13:55:48+0200</time>
      </trkpt>
      <trkpt lat="45.71994" lon="2.84783">
        <ele>759.324295</ele>
        <time>2021-07-06T13:55:50+0200</time>
      </trkpt>
      <trkpt lat="45.71995" lon="2.8479">
        <ele>759.537983</ele>
        <time>2021-07-06T13:55:52+0200</time>
      </trkpt>
      <trkpt lat="45.71996" lon="2.84797">
        <ele>760.66638</ele>
        <time>2021-07-06T13:55:54+0200</time>
      </trkpt>
      <trkpt lat="45.71997" lon="2.84804">
        <ele>760.827558</ele>
        <time>2021-07-06T13:55:56+0200</time>
      </trkpt>
      <trkpt lat="45.71999" lon="2.84811">
        <ele>763.080827</ele>
        <time>2021-07-06T13:55:58+0200</time>
      </trkpt>
      <trkpt lat="45.72" lon="2.84818">
        <ele>763.861344</ele>
        <time>2021-07-06T13:56:00+0200</time>
      </trkpt>
      <trkpt lat="45.72003" lon="2.84824">
        <ele>764.603083</ele>
        <time>2021-07-06T13:56:02+0200</time>
      </trkpt>
      <trkpt lat="45.72004" lon="2.84832">
        <ele>764.64862</ele>
        <time>2021-07-06T13:56:05+0200</time>
      </trkpt>
      <trkpt lat="45.7201" lon="2.84832">
        <ele>762.304907</ele>
        <time>2021-07-06T13:56:11+0200</time>
      </trkpt>
      <trkpt lat="45.72015" lon="2.84829">
        <ele>762.1729</ele>
        <time>2021-07-06T13:56:13+0200</time>
      </trkpt>
      <trkpt lat="45.72021" lon="2.84826">
        <ele>762.132114</ele>
        <time>2021-07-06T13:56:15+0200</time>
      </trkpt>
      <trkpt lat="45.72027" lon="2.84825">
        <ele>761.950885</ele>
        <time>2021-07-06T13:56:17+0200</time>
      </trkpt>
      <trkpt lat="45.72034" lon="2.84822">
        <ele>761.396543</ele>
        <time>2021-07-06T13:56:19+0200</time>
      </trkpt>
      <trkpt lat="45.7204" lon="2.84817">
        <ele>761.744429</ele>
        <time>2021-07-06T13:56:21+0200</time>
      </trkpt>
      <trkpt lat="45.72048" lon="2.84815">
        <ele>761.261167</ele>
        <time>2021-07-06T13:56:23+0200</time>
      </trkpt>
      <trkpt lat="45.72053" lon="2.84815">
        <ele>761.135869</ele>
        <time>2021-07-06T13:56:24+0200</time>
      </trkpt>
      <trkpt lat="45.72061" lon="2.84815">
        <ele>760.561397</ele>
        <time>2021-07-06T13:56:26+0200</time>
      </trkpt>
      <trkpt lat="45.72067" lon="2.84815">
        <ele>760.400398</ele>
        <time>2021-07-06T13:56:27+0200</time>
      </trkpt>
      <trkpt lat="45.72072" lon="2.84815">
        <ele>760.486432</ele>
        <time>2021-07-06T13:56:28+0200</time>
      </trkpt>
      <trkpt lat="45.72079" lon="2.84815">
        <ele>759.958194</ele>
        <time>2021-07-06T13:56:29+0200</time>
      </trkpt>
      <trkpt lat="45.72084" lon="2.84817">
        <ele>759.810371</ele>
        <time>2021-07-06T13:56:30+0200</time>
      </trkpt>
      <trkpt lat="45.7209" lon="2.84817">
        <ele>759.927542</ele>
        <time>2021-07-06T13:56:31+0200</time>
      </trkpt>
      <trkpt lat="45.72097" lon="2.84818">
        <ele>759.618498</ele>
        <time>2021-07-06T13:56:32+0200</time>
      </trkpt>
      <trkpt lat="45.72103" lon="2.8482">
        <ele>759.268738</ele>
        <time>2021-07-06T13:56:33+0200</time>
      </trkpt>
      <trkpt lat="45.72108" lon="2.84823">
        <ele>759.351993</ele>
        <time>2021-07-06T13:56:34+0200</time>
      </trkpt>
      <trkpt lat="45.72112" lon="2.84824">
        <ele>759.742927</ele>
        <time>2021-07-06T13:56:35+0200</time>
      </trkpt>
      <trkpt lat="45.72119" lon="2.84824">
        <ele>760.086214</ele>
        <time>2021-07-06T13:56:37+0200</time>
      </trkpt>
      <trkpt lat="45.72126" lon="2.84826">
        <ele>759.90322</ele>
        <time>2021-07-06T13:56:40+0200</time>
      </trkpt>
      <trkpt lat="45.72131" lon="2.84827">
        <ele>759.83175</ele>
        <time>2021-07-06T13:56:42+0200</time>
      </trkpt>
      <trkpt lat="45.72136" lon="2.8483">
        <ele>760.334133</ele>
        <time>2021-07-06T13:56:45+0200</time>
      </trkpt>
      <trkpt lat="45.72143" lon="2.84832">
        <ele>761.583072</ele>
        <time>2021-07-06T13:56:48+0200</time>
      </trkpt>
      <trkpt lat="45.72147" lon="2.84833">
        <ele>761.943737</ele>
        <time>2021-07-06T13:56:50+0200</time>
      </trkpt>
      <trkpt lat="45.72153" lon="2.84836">
        <ele>762.85918</ele>
        <time>2021-07-06T13:56:53+0200</time>
      </trkpt>
      <trkpt lat="45.72159" lon="2.84837">
        <ele>763.466379</ele>
        <time>2021-07-06T13:56:56+0200</time>
      </trkpt>
      <trkpt lat="45.72164" lon="2.84836">
        <ele>765.830626</ele>
        <time>2021-07-06T13:56:59+0200</time>
      </trkpt>
      <trkpt lat="45.72169" lon="2.84837">
        <ele>766.330925</ele>
        <time>2021-07-06T13:57:02+0200</time>
      </trkpt>
      <trkpt lat="45.72174" lon="2.84837">
        <ele>766.530528</ele>
        <time>2021-07-06T13:57:04+0200</time>
      </trkpt>
      <trkpt lat="45.72179" lon="2.84838">
        <ele>766.248506</ele>
        <time>2021-07-06T13:57:07+0200</time>
      </trkpt>
      <trkpt lat="45.72185" lon="2.84836">
        <ele>767.235413</ele>
        <time>2021-07-06T13:57:10+0200</time>
      </trkpt>
      <trkpt lat="45.72191" lon="2.84834">
        <ele>767.352242</ele>
        <time>2021-07-06T13:57:13+0200</time>
      </trkpt>
      <trkpt lat="45.72196" lon="2.84835">
        <ele>766.802603</ele>
        <time>2021-07-06T13:57:15+0200</time>
      </trkpt>
      <trkpt lat="45.72202" lon="2.84833">
        <ele>768.413286</ele>
        <time>2021-07-06T13:57:19+0200</time>
      </trkpt>
      <trkpt lat="45.72207" lon="2.84832">
        <ele>769.68333</ele>
        <time>2021-07-06T13:57:22+0200</time>
      </trkpt>
      <trkpt lat="45.72214" lon="2.84831">
        <ele>768.778065</ele>
        <time>2021-07-06T13:57:25+0200</time>
      </trkpt>
      <trkpt lat="45.72219" lon="2.84831">
        <ele>768.73392</ele>
        <time>2021-07-06T13:57:28+0200</time>
      </trkpt>
      <trkpt lat="45.72224" lon="2.84832">
        <ele>770.841899</ele>
        <time>2021-07-06T13:57:32+0200</time>
      </trkpt>
      <trkpt lat="45.72229" lon="2.84836">
        <ele>770.553787</ele>
        <time>2021-07-06T13:57:35+0200</time>
      </trkpt>
      <trkpt lat="45.72235" lon="2.84836">
        <ele>770.577841</ele>
        <time>2021-07-06T13:57:38+0200</time>
      </trkpt>
      <trkpt lat="45.72241" lon="2.84838">
        <ele>770.749913</ele>
        <time>2021-07-06T13:57:40+0200</time>
      </trkpt>
      <trkpt lat="45.72245" lon="2.84839">
        <ele>770.313336</ele>
        <time>2021-07-06T13:57:42+0200</time>
      </trkpt>
      <trkpt lat="45.72251" lon="2.84841">
        <ele>770.914864</ele>
        <time>2021-07-06T13:57:45+0200</time>
      </trkpt>
      <trkpt lat="45.72256" lon="2.84844">
        <ele>771.767571</ele>
        <time>2021-07-06T13:57:48+0200</time>
      </trkpt>
      <trkpt lat="45.72262" lon="2.84846">
        <ele>773.615266</ele>
        <time>2021-07-06T13:57:51+0200</time>
      </trkpt>
      <trkpt lat="45.72267" lon="2.84849">
        <ele>773.877445</ele>
        <time>2021-07-06T13:57:54+0200</time>
      </trkpt>
      <trkpt lat="45.72273" lon="2.84853">
        <ele>773.982834</ele>
        <time>2021-07-06T13:57:57+0200</time>
      </trkpt>
      <trkpt lat="45.72277" lon="2.84854">
        <ele>774.112964</ele>
        <time>2021-07-06T13:57:59+0200</time>
      </trkpt>
      <trkpt lat="45.72283" lon="2.84857">
        <ele>774.041241</ele>
        <time>2021-07-06T13:58:02+0200</time>
      </trkpt>
      <trkpt lat="45.72288" lon="2.84858">
        <ele>773.884446</ele>
        <time>2021-07-06T13:58:04+0200</time>
      </trkpt>
      <trkpt lat="45.72293" lon="2.8486">
        <ele>774.337479</ele>
        <time>2021-07-06T13:58:07+0200</time>
      </trkpt>
      <trkpt lat="45.72298" lon="2.84861">
        <ele>775.070579</ele>
        <time>2021-07-06T13:58:11+0200</time>
      </trkpt>
      <trkpt lat="45.72302" lon="2.84864">
        <ele>774.317744</ele>
        <time>2021-07-06T13:58:14+0200</time>
      </trkpt>
      <trkpt lat="45.72308" lon="2.84865">
        <ele>775.754752</ele>
        <time>2021-07-06T13:58:16+0200</time>
      </trkpt>
      <trkpt lat="45.72314" lon="2.84868">
        <ele>776.600434</ele>
        <time>2021-07-06T13:58:20+0200</time>
      </trkpt>
      <trkpt lat="45.72319" lon="2.84871">
        <ele>778.960238</ele>
        <time>2021-07-06T13:58:24+0200</time>
      </trkpt>
      <trkpt lat="45.72324" lon="2.84872">
        <ele>780.014524</ele>
        <time>2021-07-06T13:58:27+0200</time>
      </trkpt>
      <trkpt lat="45.72329" lon="2.84873">
        <ele>781.671552</ele>
        <time>2021-07-06T13:58:30+0200</time>
      </trkpt>
      <trkpt lat="45.72335" lon="2.84874">
        <ele>783.659298</ele>
        <time>2021-07-06T13:58:34+0200</time>
      </trkpt>
      <trkpt lat="45.72339" lon="2.84877">
        <ele>784.740639</ele>
        <time>2021-07-06T13:58:37+0200</time>
      </trkpt>
      <trkpt lat="45.72343" lon="2.84881">
        <ele>786.919991</ele>
        <time>2021-07-06T13:58:41+0200</time>
      </trkpt>
      <trkpt lat="45.72349" lon="2.84884">
        <ele>787.44948</ele>
        <time>2021-07-06T13:58:44+0200</time>
      </trkpt>
      <trkpt lat="45.72354" lon="2.84885">
        <ele>788.756262</ele>
        <time>2021-07-06T13:58:47+0200</time>
      </trkpt>
      <trkpt lat="45.72359" lon="2.84888">
        <ele>787.175811</ele>
        <time>2021-07-06T13:58:50+0200</time>
      </trkpt>
      <trkpt lat="45.72366" lon="2.84889">
        <ele>786.417474</ele>
        <time>2021-07-06T13:58:54+0200</time>
      </trkpt>
      <trkpt lat="45.72372" lon="2.8489">
        <ele>785.183456</ele>
        <time>2021-07-06T13:58:57+0200</time>
      </trkpt>
      <trkpt lat="45.72378" lon="2.84892">
        <ele>785.427968</ele>
        <time>2021-07-06T13:59:00+0200</time>
      </trkpt>
      <trkpt lat="45.72383" lon="2.84894">
        <ele>785.370667</ele>
        <time>2021-07-06T13:59:03+0200</time>
      </trkpt>
      <trkpt lat="45.7239" lon="2.84896">
        <ele>785.403526</ele>
        <time>2021-07-06T13:59:06+0200</time>
      </trkpt>
      <trkpt lat="45.72396" lon="2.84896">
        <ele>786.846032</ele>
        <time>2021-07-06T13:59:09+0200</time>
      </trkpt>
      <trkpt lat="45.72401" lon="2.84898">
        <ele>787.570779</ele>
        <time>2021-07-06T13:59:11+0200</time>
      </trkpt>
      <trkpt lat="45.72405" lon="2.84899">
        <ele>789.01802</ele>
        <time>2021-07-06T13:59:13+0200</time>
      </trkpt>
      <trkpt lat="45.72409" lon="2.84901">
        <ele>788.702697</ele>
        <time>2021-07-06T13:59:15+0200</time>
      </trkpt>
      <trkpt lat="45.72415" lon="2.84905">
        <ele>789.620991</ele>
        <time>2021-07-06T13:59:18+0200</time>
      </trkpt>
      <trkpt lat="45.7242" lon="2.84909">
        <ele>789.799858</ele>
        <time>2021-07-06T13:59:22+0200</time>
      </trkpt>
      <trkpt lat="45.72426" lon="2.84911">
        <ele>789.74758</ele>
        <time>2021-07-06T13:59:25+0200</time>
      </trkpt>
      <trkpt lat="45.72431" lon="2.84913">
        <ele>789.202043</ele>
        <time>2021-07-06T13:59:28+0200</time>
      </trkpt>
      <trkpt lat="45.72436" lon="2.84914">
        <ele>789.278971</ele>
        <time>2021-07-06T13:59:31+0200</time>
      </trkpt>
      <trkpt lat="45.7244" lon="2.84915">
        <ele>789.775319</ele>
        <time>2021-07-06T13:59:33+0200</time>
      </trkpt>
      <trkpt lat="45.72447" lon="2.84916">
        <ele>790.675277</ele>
        <time>2021-07-06T13:59:36+0200</time>
      </trkpt>
      <trkpt lat="45.72452" lon="2.84918">
        <ele>789.918564</ele>
        <time>2021-07-06T13:59:40+0200</time>
      </trkpt>
      <trkpt lat="45.72458" lon="2.8492">
        <ele>790.978664</ele>
        <time>2021-07-06T13:59:43+0200</time>
      </trkpt>
      <trkpt lat="45.72463" lon="2.84922">
        <ele>790.52623</ele>
        <time>2021-07-06T13:59:45+0200</time>
      </trkpt>
      <trkpt lat="45.72468" lon="2.84926">
        <ele>790.976929</ele>
        <time>2021-07-06T13:59:48+0200</time>
      </trkpt>
      <trkpt lat="45.72474" lon="2.84928">
        <ele>790.560226</ele>
        <time>2021-07-06T13:59:51+0200</time>
      </trkpt>
      <trkpt lat="45.72479" lon="2.8493">
        <ele>791.152245</ele>
        <time>2021-07-06T13:59:54+0200</time>
      </trkpt>
      <trkpt lat="45.72484" lon="2.84932">
        <ele>791.131647</ele>
        <time>2021-07-06T13:59:56+0200</time>
      </trkpt>
      <trkpt lat="45.72486" lon="2.84939">
        <ele>791.664168</ele>
        <time>2021-07-06T13:59:59+0200</time>
      </trkpt>
      <trkpt lat="45.72486" lon="2.84947">
        <ele>793.826402</ele>
        <time>2021-07-06T14:00:02+0200</time>
      </trkpt>
      <trkpt lat="45.72487" lon="2.84954">
        <ele>794.847108</ele>
        <time>2021-07-06T14:00:05+0200</time>
      </trkpt>
      <trkpt lat="45.72487" lon="2.84961">
        <ele>795.751648</ele>
        <time>2021-07-06T14:00:08+0200</time>
      </trkpt>
      <trkpt lat="45.72486" lon="2.84968">
        <ele>796.653199</ele>
        <time>2021-07-06T14:00:11+0200</time>
      </trkpt>
      <trkpt lat="45.72486" lon="2.84976">
        <ele>796.210266</ele>
        <time>2021-07-06T14:00:13+0200</time>
      </trkpt>
      <trkpt lat="45.72485" lon="2.84985">
        <ele>795.48381</ele>
        <time>2021-07-06T14:00:17+0200</time>
      </trkpt>
      <trkpt lat="45.72485" lon="2.84993">
        <ele>795.934016</ele>
        <time>2021-07-06T14:00:20+0200</time>
      </trkpt>
      <trkpt lat="45.72484" lon="2.85">
        <ele>797.255132</ele>
        <time>2021-07-06T14:00:23+0200</time>
      </trkpt>
      <trkpt lat="45.72483" lon="2.85008">
        <ele>797.537499</ele>
        <time>2021-07-06T14:00:25+0200</time>
      </trkpt>
      <trkpt lat="45.72484" lon="2.85014">
        <ele>798.207361</ele>
        <time>2021-07-06T14:00:27+0200</time>
      </trkpt>
      <trkpt lat="45.72484" lon="2.85022">
        <ele>799.595195</ele>
        <time>2021-07-06T14:00:30+0200</time>
      </trkpt>
      <trkpt lat="45.72484" lon="2.85031">
        <ele>800.826208</ele>
        <time>2021-07-06T14:00:33+0200</time>
      </trkpt>
      <trkpt lat="45.72484" lon="2.85039">
        <ele>801.797218</ele>
        <time>2021-07-06T14:00:37+0200</time>
      </trkpt>
      <trkpt lat="45.72482" lon="2.85047">
        <ele>802.529964</ele>
        <time>2021-07-06T14:00:41+0200</time>
      </trkpt>
      <trkpt lat="45.72482" lon="2.85053">
        <ele>804.875331</ele>
        <time>2021-07-06T14:00:44+0200</time>
      </trkpt>
      <trkpt lat="45.72481" lon="2.85063">
        <ele>805.159687</ele>
        <time>2021-07-06T14:00:48+0200</time>
      </trkpt>
      <trkpt lat="45.72481" lon="2.8507">
        <ele>806.015847</ele>
        <time>2021-07-06T14:00:51+0200</time>
      </trkpt>
      <trkpt lat="45.72481" lon="2.85079">
        <ele>807.811551</ele>
        <time>2021-07-06T14:00:55+0200</time>
      </trkpt>
      <trkpt lat="45.72478" lon="2.85086">
        <ele>807.950393</ele>
        <time>2021-07-06T14:00:58+0200</time>
      </trkpt>
      <trkpt lat="45.7248" lon="2.85093">
        <ele>808.891459</ele>
        <time>2021-07-06T14:01:03+0200</time>
      </trkpt>
      <trkpt lat="45.72485" lon="2.85094">
        <ele>811.745259</ele>
        <time>2021-07-06T14:01:42+0200</time>
      </trkpt>
      <trkpt lat="45.72481" lon="2.85099">
        <ele>806.451262</ele>
        <time>2021-07-06T14:02:24+0200</time>
      </trkpt>
      <trkpt lat="45.72486" lon="2.851">
        <ele>806.819177</ele>
        <time>2021-07-06T14:02:37+0200</time>
      </trkpt>
      <trkpt lat="45.72483" lon="2.85096">
        <ele>808.246975</ele>
        <time>2021-07-06T14:03:32+0200</time>
      </trkpt>
      <trkpt lat="45.72488" lon="2.85097">
        <ele>807.648735</ele>
        <time>2021-07-06T14:03:43+0200</time>
      </trkpt>
      <trkpt lat="45.72493" lon="2.851">
        <ele>807.804489</ele>
        <time>2021-07-06T14:03:46+0200</time>
      </trkpt>
      <trkpt lat="45.72499" lon="2.85101">
        <ele>806.957795</ele>
        <time>2021-07-06T14:03:49+0200</time>
      </trkpt>
      <trkpt lat="45.72504" lon="2.85103">
        <ele>808.263311</ele>
        <time>2021-07-06T14:03:52+0200</time>
      </trkpt>
      <trkpt lat="45.7251" lon="2.85106">
        <ele>807.817019</ele>
        <time>2021-07-06T14:03:55+0200</time>
      </trkpt>
      <trkpt lat="45.72515" lon="2.85108">
        <ele>808.132534</ele>
        <time>2021-07-06T14:03:58+0200</time>
      </trkpt>
      <trkpt lat="45.72519" lon="2.85111">
        <ele>807.905796</ele>
        <time>2021-07-06T14:04:00+0200</time>
      </trkpt>
      <trkpt lat="45.72524" lon="2.85112">
        <ele>809.547841</ele>
        <time>2021-07-06T14:04:02+0200</time>
      </trkpt>
      <trkpt lat="45.72529" lon="2.85115">
        <ele>810.994804</ele>
        <time>2021-07-06T14:04:05+0200</time>
      </trkpt>
      <trkpt lat="45.72536" lon="2.85118">
        <ele>813.334226</ele>
        <time>2021-07-06T14:04:08+0200</time>
      </trkpt>
      <trkpt lat="45.72541" lon="2.8512">
        <ele>814.64928</ele>
        <time>2021-07-06T14:04:11+0200</time>
      </trkpt>
      <trkpt lat="45.72545" lon="2.85125">
        <ele>815.583668</ele>
        <time>2021-07-06T14:04:14+0200</time>
      </trkpt>
      <trkpt lat="45.72548" lon="2.85129">
        <ele>815.572126</ele>
        <time>2021-07-06T14:04:16+0200</time>
      </trkpt>
      <trkpt lat="45.72552" lon="2.85135">
        <ele>815.261372</ele>
        <time>2021-07-06T14:04:18+0200</time>
      </trkpt>
      <trkpt lat="45.72556" lon="2.85141">
        <ele>815.885456</ele>
        <time>2021-07-06T14:04:21+0200</time>
      </trkpt>
      <trkpt lat="45.72559" lon="2.85149">
        <ele>814.516701</ele>
        <time>2021-07-06T14:04:23+0200</time>
      </trkpt>
      <trkpt lat="45.72562" lon="2.85154">
        <ele>815.32494</ele>
        <time>2021-07-06T14:04:25+0200</time>
      </trkpt>
      <trkpt lat="45.72567" lon="2.85161">
        <ele>816.935465</ele>
        <time>2021-07-06T14:04:28+0200</time>
      </trkpt>
      <trkpt lat="45.72571" lon="2.85163">
        <ele>816.926179</ele>
        <time>2021-07-06T14:04:30+0200</time>
      </trkpt>
      <trkpt lat="45.72576" lon="2.85168">
        <ele>814.562898</ele>
        <time>2021-07-06T14:04:32+0200</time>
      </trkpt>
      <trkpt lat="45.72581" lon="2.85173">
        <ele>813.048305</ele>
        <time>2021-07-06T14:04:33+0200</time>
      </trkpt>
      <trkpt lat="45.72586" lon="2.85177">
        <ele>812.705627</ele>
        <time>2021-07-06T14:04:35+0200</time>
      </trkpt>
      <trkpt lat="45.72591" lon="2.85181">
        <ele>812.879036</ele>
        <time>2021-07-06T14:04:37+0200</time>
      </trkpt>
      <trkpt lat="45.72597" lon="2.85185">
        <ele>813.0445</ele>
        <time>2021-07-06T14:04:39+0200</time>
      </trkpt>
      <trkpt lat="45.72603" lon="2.85192">
        <ele>813.508526</ele>
        <time>2021-07-06T14:04:41+0200</time>
      </trkpt>
      <trkpt lat="45.72606" lon="2.85197">
        <ele>812.991987</ele>
        <time>2021-07-06T14:04:42+0200</time>
      </trkpt>
      <trkpt lat="45.72612" lon="2.85201">
        <ele>813.153329</ele>
        <time>2021-07-06T14:04:43+0200</time>
      </trkpt>
      <trkpt lat="45.72616" lon="2.85207">
        <ele>812.003335</ele>
        <time>2021-07-06T14:04:45+0200</time>
      </trkpt>
      <trkpt lat="45.72621" lon="2.85212">
        <ele>810.251437</ele>
        <time>2021-07-06T14:04:46+0200</time>
      </trkpt>
      <trkpt lat="45.72627" lon="2.85219">
        <ele>809.623545</ele>
        <time>2021-07-06T14:04:47+0200</time>
      </trkpt>
      <trkpt lat="45.72632" lon="2.85224">
        <ele>809.212771</ele>
        <time>2021-07-06T14:04:48+0200</time>
      </trkpt>
      <trkpt lat="45.72638" lon="2.8523">
        <ele>808.900935</ele>
        <time>2021-07-06T14:04:49+0200</time>
      </trkpt>
      <trkpt lat="45.72643" lon="2.85238">
        <ele>808.622331</ele>
        <time>2021-07-06T14:04:50+0200</time>
      </trkpt>
      <trkpt lat="45.72646" lon="2.85245">
        <ele>808.638459</ele>
        <time>2021-07-06T14:04:51+0200</time>
      </trkpt>
      <trkpt lat="45.7265" lon="2.8525">
        <ele>808.512143</ele>
        <time>2021-07-06T14:04:52+0200</time>
      </trkpt>
      <trkpt lat="45.72656" lon="2.85257">
        <ele>808.662448</ele>
        <time>2021-07-06T14:04:54+0200</time>
      </trkpt>
      <trkpt lat="45.7266" lon="2.85262">
        <ele>809.660376</ele>
        <time>2021-07-06T14:04:56+0200</time>
      </trkpt>
      <trkpt lat="45.72665" lon="2.85264">
        <ele>810.339988</ele>
        <time>2021-07-06T14:04:58+0200</time>
      </trkpt>
      <trkpt lat="45.72664" lon="2.85257">
        <ele>811.778572</ele>
        <time>2021-07-06T14:05:14+0200</time>
      </trkpt>
      <trkpt lat="45.7266" lon="2.85255">
        <ele>811.295444</ele>
        <time>2021-07-06T14:05:16+0200</time>
      </trkpt>
      <trkpt lat="45.72654" lon="2.85251">
        <ele>811.419952</ele>
        <time>2021-07-06T14:05:18+0200</time>
      </trkpt>
      <trkpt lat="45.72648" lon="2.85245">
        <ele>811.319758</ele>
        <time>2021-07-06T14:05:20+0200</time>
      </trkpt>
      <trkpt lat="45.72644" lon="2.85237">
        <ele>811.973029</ele>
        <time>2021-07-06T14:05:22+0200</time>
      </trkpt>
      <trkpt lat="45.72646" lon="2.8523">
        <ele>811.716117</ele>
        <time>2021-07-06T14:05:23+0200</time>
      </trkpt>
      <trkpt lat="45.72652" lon="2.85224">
        <ele>811.537404</ele>
        <time>2021-07-06T14:05:25+0200</time>
      </trkpt>
      <trkpt lat="45.72659" lon="2.85231">
        <ele>811.647587</ele>
        <time>2021-07-06T14:05:27+0200</time>
      </trkpt>
      <trkpt lat="45.72667" lon="2.85233">
        <ele>812.402722</ele>
        <time>2021-07-06T14:05:29+0200</time>
      </trkpt>
      <trkpt lat="45.72671" lon="2.85234">
        <ele>812.376789</ele>
        <time>2021-07-06T14:05:30+0200</time>
      </trkpt>
      <trkpt lat="45.72677" lon="2.85234">
        <ele>812.305649</ele>
        <time>2021-07-06T14:05:31+0200</time>
      </trkpt>
      <trkpt lat="45.72681" lon="2.85234">
        <ele>812.739729</ele>
        <time>2021-07-06T14:05:32+0200</time>
      </trkpt>
      <trkpt lat="45.7269" lon="2.85234">
        <ele>811.640676</ele>
        <time>2021-07-06T14:05:34+0200</time>
      </trkpt>
      <trkpt lat="45.727" lon="2.85235">
        <ele>811.736415</ele>
        <time>2021-07-06T14:05:36+0200</time>
      </trkpt>
      <trkpt lat="45.72705" lon="2.85235">
        <ele>811.288827</ele>
        <time>2021-07-06T14:05:37+0200</time>
      </trkpt>
      <trkpt lat="45.72709" lon="2.85234">
        <ele>810.887076</ele>
        <time>2021-07-06T14:05:38+0200</time>
      </trkpt>
      <trkpt lat="45.72715" lon="2.85234">
        <ele>810.678377</ele>
        <time>2021-07-06T14:05:39+0200</time>
      </trkpt>
      <trkpt lat="45.72721" lon="2.85234">
        <ele>810.022575</ele>
        <time>2021-07-06T14:05:40+0200</time>
      </trkpt>
      <trkpt lat="45.72728" lon="2.85234">
        <ele>808.528247</ele>
        <time>2021-07-06T14:05:41+0200</time>
      </trkpt>
      <trkpt lat="45.72735" lon="2.85234">
        <ele>807.475311</ele>
        <time>2021-07-06T14:05:42+0200</time>
      </trkpt>
      <trkpt lat="45.72742" lon="2.85236">
        <ele>806.511934</ele>
        <time>2021-07-06T14:05:43+0200</time>
      </trkpt>
      <trkpt lat="45.72748" lon="2.85237">
        <ele>806.370455</ele>
        <time>2021-07-06T14:05:44+0200</time>
      </trkpt>
      <trkpt lat="45.72755" lon="2.8524">
        <ele>806.162786</ele>
        <time>2021-07-06T14:05:45+0200</time>
      </trkpt>
      <trkpt lat="45.72762" lon="2.85242">
        <ele>806.261094</ele>
        <time>2021-07-06T14:05:46+0200</time>
      </trkpt>
      <trkpt lat="45.72768" lon="2.85245">
        <ele>806.49958</ele>
        <time>2021-07-06T14:05:47+0200</time>
      </trkpt>
      <trkpt lat="45.72777" lon="2.85247">
        <ele>805.035006</ele>
        <time>2021-07-06T14:05:48+0200</time>
      </trkpt>
      <trkpt lat="45.72785" lon="2.85249">
        <ele>803.218062</ele>
        <time>2021-07-06T14:05:49+0200</time>
      </trkpt>
      <trkpt lat="45.72792" lon="2.85252">
        <ele>802.560764</ele>
        <time>2021-07-06T14:05:50+0200</time>
      </trkpt>
      <trkpt lat="45.72801" lon="2.85255">
        <ele>800.69366</ele>
        <time>2021-07-06T14:05:51+0200</time>
      </trkpt>
      <trkpt lat="45.7281" lon="2.85258">
        <ele>800.120681</ele>
        <time>2021-07-06T14:05:52+0200</time>
      </trkpt>
      <trkpt lat="45.72818" lon="2.85262">
        <ele>799.528046</ele>
        <time>2021-07-06T14:05:53+0200</time>
      </trkpt>
      <trkpt lat="45.72826" lon="2.85267">
        <ele>797.674492</ele>
        <time>2021-07-06T14:05:54+0200</time>
      </trkpt>
      <trkpt lat="45.72835" lon="2.85271">
        <ele>797.373809</ele>
        <time>2021-07-06T14:05:55+0200</time>
      </trkpt>
      <trkpt lat="45.72843" lon="2.85274">
        <ele>796.886084</ele>
        <time>2021-07-06T14:05:56+0200</time>
      </trkpt>
      <trkpt lat="45.72851" lon="2.85278">
        <ele>795.712889</ele>
        <time>2021-07-06T14:05:57+0200</time>
      </trkpt>
      <trkpt lat="45.72858" lon="2.85282">
        <ele>794.590929</ele>
        <time>2021-07-06T14:05:58+0200</time>
      </trkpt>
      <trkpt lat="45.72865" lon="2.85287">
        <ele>794.151739</ele>
        <time>2021-07-06T14:05:59+0200</time>
      </trkpt>
      <trkpt lat="45.72869" lon="2.85297">
        <ele>793.569851</ele>
        <time>2021-07-06T14:06:00+0200</time>
      </trkpt>
      <trkpt lat="45.72873" lon="2.85307">
        <ele>793.598219</ele>
        <time>2021-07-06T14:06:01+0200</time>
      </trkpt>
      <trkpt lat="45.72876" lon="2.85316">
        <ele>793.575096</ele>
        <time>2021-07-06T14:06:02+0200</time>
      </trkpt>
      <trkpt lat="45.72881" lon="2.85326">
        <ele>793.443338</ele>
        <time>2021-07-06T14:06:03+0200</time>
      </trkpt>
      <trkpt lat="45.72887" lon="2.85336">
        <ele>792.985514</ele>
        <time>2021-07-06T14:06:04+0200</time>
      </trkpt>
      <trkpt lat="45.72893" lon="2.85348">
        <ele>792.146256</ele>
        <time>2021-07-06T14:06:05+0200</time>
      </trkpt>
      <trkpt lat="45.72899" lon="2.85359">
        <ele>790.996625</ele>
        <time>2021-07-06T14:06:06+0200</time>
      </trkpt>
      <trkpt lat="45.72903" lon="2.85369">
        <ele>790.725092</ele>
        <time>2021-07-06T14:06:07+0200</time>
      </trkpt>
      <trkpt lat="45.72908" lon="2.85378">
        <ele>789.914153</ele>
        <time>2021-07-06T14:06:08+0200</time>
      </trkpt>
      <trkpt lat="45.72915" lon="2.85385">
        <ele>789.456181</ele>
        <time>2021-07-06T14:06:09+0200</time>
      </trkpt>
      <trkpt lat="45.72922" lon="2.85388">
        <ele>787.993062</ele>
        <time>2021-07-06T14:06:10+0200</time>
      </trkpt>
      <trkpt lat="45.7293" lon="2.85389">
        <ele>787.306004</ele>
        <time>2021-07-06T14:06:11+0200</time>
      </trkpt>
      <trkpt lat="45.72937" lon="2.8539">
        <ele>786.744856</ele>
        <time>2021-07-06T14:06:12+0200</time>
      </trkpt>
      <trkpt lat="45.72944" lon="2.85393">
        <ele>786.223757</ele>
        <time>2021-07-06T14:06:13+0200</time>
      </trkpt>
      <trkpt lat="45.7295" lon="2.85396">
        <ele>786.01669</ele>
        <time>2021-07-06T14:06:14+0200</time>
      </trkpt>
      <trkpt lat="45.72955" lon="2.85399">
        <ele>785.272833</ele>
        <time>2021-07-06T14:06:15+0200</time>
      </trkpt>
      <trkpt lat="45.72962" lon="2.85406">
        <ele>784.518576</ele>
        <time>2021-07-06T14:06:17+0200</time>
      </trkpt>
      <trkpt lat="45.72967" lon="2.8541">
        <ele>784.595192</ele>
        <time>2021-07-06T14:06:18+0200</time>
      </trkpt>
      <trkpt lat="45.72972" lon="2.85413">
        <ele>785.819177</ele>
        <time>2021-07-06T14:06:20+0200</time>
      </trkpt>
      <trkpt lat="45.72979" lon="2.85418">
        <ele>786.840129</ele>
        <time>2021-07-06T14:06:22+0200</time>
      </trkpt>
      <trkpt lat="45.72984" lon="2.8542">
        <ele>787.365152</ele>
        <time>2021-07-06T14:06:24+0200</time>
      </trkpt>
      <trkpt lat="45.72989" lon="2.8542">
        <ele>787.78229</ele>
        <time>2021-07-06T14:06:26+0200</time>
      </trkpt>
      <trkpt lat="45.72995" lon="2.85423">
        <ele>788.988594</ele>
        <time>2021-07-06T14:06:29+0200</time>
      </trkpt>
      <trkpt lat="45.73001" lon="2.85425">
        <ele>789.383246</ele>
        <time>2021-07-06T14:06:31+0200</time>
      </trkpt>
      <trkpt lat="45.73006" lon="2.85428">
        <ele>788.765238</ele>
        <time>2021-07-06T14:06:33+0200</time>
      </trkpt>
      <trkpt lat="45.73012" lon="2.8543">
        <ele>788.351852</ele>
        <time>2021-07-06T14:06:36+0200</time>
      </trkpt>
      <trkpt lat="45.73017" lon="2.85434">
        <ele>788.455113</ele>
        <time>2021-07-06T14:06:39+0200</time>
      </trkpt>
      <trkpt lat="45.73022" lon="2.85435">
        <ele>787.949158</ele>
        <time>2021-07-06T14:06:41+0200</time>
      </trkpt>
      <trkpt lat="45.73028" lon="2.85436">
        <ele>788.470596</ele>
        <time>2021-07-06T14:06:43+0200</time>
      </trkpt>
      <trkpt lat="45.73032" lon="2.85439">
        <ele>788.542206</ele>
        <time>2021-07-06T14:06:44+0200</time>
      </trkpt>
      <trkpt lat="45.7304" lon="2.85443">
        <ele>788.123318</ele>
        <time>2021-07-06T14:06:46+0200</time>
      </trkpt>
      <trkpt lat="45.73044" lon="2.85446">
        <ele>788.036114</ele>
        <time>2021-07-06T14:06:47+0200</time>
      </trkpt>
      <trkpt lat="45.73049" lon="2.85447">
        <ele>787.873717</ele>
        <time>2021-07-06T14:06:48+0200</time>
      </trkpt>
      <trkpt lat="45.73057" lon="2.8545">
        <ele>787.792253</ele>
        <time>2021-07-06T14:06:50+0200</time>
      </trkpt>
      <trkpt lat="45.73064" lon="2.85454">
        <ele>788.03917</ele>
        <time>2021-07-06T14:06:52+0200</time>
      </trkpt>
      <trkpt lat="45.73069" lon="2.85457">
        <ele>787.641655</ele>
        <time>2021-07-06T14:06:54+0200</time>
      </trkpt>
      <trkpt lat="45.73076" lon="2.85461">
        <ele>787.077583</ele>
        <time>2021-07-06T14:06:56+0200</time>
      </trkpt>
      <trkpt lat="45.73084" lon="2.85464">
        <ele>786.039351</ele>
        <time>2021-07-06T14:06:58+0200</time>
      </trkpt>
      <trkpt lat="45.73091" lon="2.85469">
        <ele>785.146902</ele>
        <time>2021-07-06T14:07:00+0200</time>
      </trkpt>
      <trkpt lat="45.73096" lon="2.85473">
        <ele>785.071388</ele>
        <time>2021-07-06T14:07:01+0200</time>
      </trkpt>
      <trkpt lat="45.73102" lon="2.85479">
        <ele>785.665242</ele>
        <time>2021-07-06T14:07:03+0200</time>
      </trkpt>
      <trkpt lat="45.73108" lon="2.85484">
        <ele>785.266281</ele>
        <time>2021-07-06T14:07:05+0200</time>
      </trkpt>
      <trkpt lat="45.73113" lon="2.85491">
        <ele>784.476631</ele>
        <time>2021-07-06T14:07:07+0200</time>
      </trkpt>
      <trkpt lat="45.73118" lon="2.85497">
        <ele>783.99109</ele>
        <time>2021-07-06T14:07:09+0200</time>
      </trkpt>
      <trkpt lat="45.73124" lon="2.85502">
        <ele>785.198939</ele>
        <time>2021-07-06T14:07:11+0200</time>
      </trkpt>
      <trkpt lat="45.73131" lon="2.85509">
        <ele>786.720725</ele>
        <time>2021-07-06T14:07:13+0200</time>
      </trkpt>
      <trkpt lat="45.73136" lon="2.85515">
        <ele>786.378307</ele>
        <time>2021-07-06T14:07:15+0200</time>
      </trkpt>
      <trkpt lat="45.73142" lon="2.8552">
        <ele>786.844855</ele>
        <time>2021-07-06T14:07:17+0200</time>
      </trkpt>
      <trkpt lat="45.73148" lon="2.85526">
        <ele>787.019633</ele>
        <time>2021-07-06T14:07:19+0200</time>
      </trkpt>
      <trkpt lat="45.73153" lon="2.85531">
        <ele>787.134259</ele>
        <time>2021-07-06T14:07:21+0200</time>
      </trkpt>
      <trkpt lat="45.7316" lon="2.85535">
        <ele>787.741499</ele>
        <time>2021-07-06T14:07:23+0200</time>
      </trkpt>
      <trkpt lat="45.73166" lon="2.85539">
        <ele>787.84016</ele>
        <time>2021-07-06T14:07:25+0200</time>
      </trkpt>
      <trkpt lat="45.73172" lon="2.85543">
        <ele>788.472108</ele>
        <time>2021-07-06T14:07:27+0200</time>
      </trkpt>
      <trkpt lat="45.73178" lon="2.85549">
        <ele>788.694762</ele>
        <time>2021-07-06T14:07:29+0200</time>
      </trkpt>
      <trkpt lat="45.73186" lon="2.85554">
        <ele>788.285569</ele>
        <time>2021-07-06T14:07:31+0200</time>
      </trkpt>
      <trkpt lat="45.7319" lon="2.85557">
        <ele>787.515346</ele>
        <time>2021-07-06T14:07:32+0200</time>
      </trkpt>
      <trkpt lat="45.73198" lon="2.85563">
        <ele>786.864102</ele>
        <time>2021-07-06T14:07:34+0200</time>
      </trkpt>
      <trkpt lat="45.73202" lon="2.85565">
        <ele>787.145171</ele>
        <time>2021-07-06T14:07:35+0200</time>
      </trkpt>
      <trkpt lat="45.73207" lon="2.85568">
        <ele>787.345633</ele>
        <time>2021-07-06T14:07:36+0200</time>
      </trkpt>
      <trkpt lat="45.73211" lon="2.85571">
        <ele>787.127744</ele>
        <time>2021-07-06T14:07:37+0200</time>
      </trkpt>
      <trkpt lat="45.73216" lon="2.85573">
        <ele>786.83816</ele>
        <time>2021-07-06T14:07:38+0200</time>
      </trkpt>
      <trkpt lat="45.73224" lon="2.85579">
        <ele>787.762118</ele>
        <time>2021-07-06T14:07:40+0200</time>
      </trkpt>
      <trkpt lat="45.73231" lon="2.85585">
        <ele>787.861928</ele>
        <time>2021-07-06T14:07:42+0200</time>
      </trkpt>
      <trkpt lat="45.73236" lon="2.85589">
        <ele>787.27681</ele>
        <time>2021-07-06T14:07:43+0200</time>
      </trkpt>
      <trkpt lat="45.7324" lon="2.85591">
        <ele>787.155555</ele>
        <time>2021-07-06T14:07:44+0200</time>
      </trkpt>
      <trkpt lat="45.73245" lon="2.85595">
        <ele>787.128686</ele>
        <time>2021-07-06T14:07:45+0200</time>
      </trkpt>
      <trkpt lat="45.7325" lon="2.85598">
        <ele>786.457384</ele>
        <time>2021-07-06T14:07:46+0200</time>
      </trkpt>
      <trkpt lat="45.73254" lon="2.85601">
        <ele>786.748874</ele>
        <time>2021-07-06T14:07:47+0200</time>
      </trkpt>
      <trkpt lat="45.73258" lon="2.85604">
        <ele>786.756063</ele>
        <time>2021-07-06T14:07:48+0200</time>
      </trkpt>
      <trkpt lat="45.73266" lon="2.85609">
        <ele>787.14956</ele>
        <time>2021-07-06T14:07:50+0200</time>
      </trkpt>
      <trkpt lat="45.7327" lon="2.8561">
        <ele>787.161932</ele>
        <time>2021-07-06T14:07:51+0200</time>
      </trkpt>
      <trkpt lat="45.73277" lon="2.85615">
        <ele>787.493946</ele>
        <time>2021-07-06T14:07:53+0200</time>
      </trkpt>
      <trkpt lat="45.73285" lon="2.85619">
        <ele>787.316155</ele>
        <time>2021-07-06T14:07:55+0200</time>
      </trkpt>
      <trkpt lat="45.73292" lon="2.85624">
        <ele>786.639375</ele>
        <time>2021-07-06T14:07:57+0200</time>
      </trkpt>
      <trkpt lat="45.733" lon="2.8563">
        <ele>786.358385</ele>
        <time>2021-07-06T14:07:59+0200</time>
      </trkpt>
      <trkpt lat="45.73306" lon="2.85636">
        <ele>786.632264</ele>
        <time>2021-07-06T14:08:01+0200</time>
      </trkpt>
      <trkpt lat="45.73312" lon="2.85643">
        <ele>786.472513</ele>
        <time>2021-07-06T14:08:03+0200</time>
      </trkpt>
      <trkpt lat="45.73316" lon="2.85648">
        <ele>785.598306</ele>
        <time>2021-07-06T14:08:05+0200</time>
      </trkpt>
      <trkpt lat="45.73322" lon="2.85655">
        <ele>784.928451</ele>
        <time>2021-07-06T14:08:07+0200</time>
      </trkpt>
      <trkpt lat="45.73329" lon="2.8566">
        <ele>785.141145</ele>
        <time>2021-07-06T14:08:09+0200</time>
      </trkpt>
      <trkpt lat="45.73337" lon="2.85667">
        <ele>784.785509</ele>
        <time>2021-07-06T14:08:11+0200</time>
      </trkpt>
      <trkpt lat="45.73341" lon="2.85669">
        <ele>784.544512</ele>
        <time>2021-07-06T14:08:12+0200</time>
      </trkpt>
      <trkpt lat="45.7335" lon="2.85675">
        <ele>784.448493</ele>
        <time>2021-07-06T14:08:14+0200</time>
      </trkpt>
      <trkpt lat="45.73354" lon="2.85678">
        <ele>784.327924</ele>
        <time>2021-07-06T14:08:15+0200</time>
      </trkpt>
      <trkpt lat="45.73357" lon="2.85682">
        <ele>784.133203</ele>
        <time>2021-07-06T14:08:16+0200</time>
      </trkpt>
      <trkpt lat="45.73361" lon="2.85686">
        <ele>783.540774</ele>
        <time>2021-07-06T14:08:17+0200</time>
      </trkpt>
      <trkpt lat="45.73365" lon="2.85688">
        <ele>782.965092</ele>
        <time>2021-07-06T14:08:18+0200</time>
      </trkpt>
      <trkpt lat="45.73369" lon="2.85692">
        <ele>782.552231</ele>
        <time>2021-07-06T14:08:19+0200</time>
      </trkpt>
      <trkpt lat="45.73374" lon="2.85695">
        <ele>782.057313</ele>
        <time>2021-07-06T14:08:20+0200</time>
      </trkpt>
      <trkpt lat="45.73378" lon="2.85698">
        <ele>781.709082</ele>
        <time>2021-07-06T14:08:21+0200</time>
      </trkpt>
      <trkpt lat="45.73383" lon="2.85701">
        <ele>781.632928</ele>
        <time>2021-07-06T14:08:22+0200</time>
      </trkpt>
      <trkpt lat="45.73388" lon="2.85703">
        <ele>781.523623</ele>
        <time>2021-07-06T14:08:23+0200</time>
      </trkpt>
      <trkpt lat="45.73393" lon="2.85707">
        <ele>781.453659</ele>
        <time>2021-07-06T14:08:25+0200</time>
      </trkpt>
      <trkpt lat="45.73399" lon="2.85703">
        <ele>780.833204</ele>
        <time>2021-07-06T14:08:28+0200</time>
      </trkpt>
      <trkpt lat="45.73404" lon="2.85698">
        <ele>780.677038</ele>
        <time>2021-07-06T14:08:30+0200</time>
      </trkpt>
      <trkpt lat="45.73408" lon="2.85693">
        <ele>780.606519</ele>
        <time>2021-07-06T14:08:32+0200</time>
      </trkpt>
      <trkpt lat="45.73412" lon="2.85686">
        <ele>780.980425</ele>
        <time>2021-07-06T14:08:34+0200</time>
      </trkpt>
      <trkpt lat="45.73417" lon="2.8568">
        <ele>780.728975</ele>
        <time>2021-07-06T14:08:36+0200</time>
      </trkpt>
      <trkpt lat="45.73421" lon="2.85673">
        <ele>781.113977</ele>
        <time>2021-07-06T14:08:38+0200</time>
      </trkpt>
      <trkpt lat="45.73423" lon="2.85666">
        <ele>781.520649</ele>
        <time>2021-07-06T14:08:40+0200</time>
      </trkpt>
      <trkpt lat="45.73428" lon="2.8566">
        <ele>782.695223</ele>
        <time>2021-07-06T14:08:42+0200</time>
      </trkpt>
      <trkpt lat="45.73432" lon="2.85653">
        <ele>782.459446</ele>
        <time>2021-07-06T14:08:44+0200</time>
      </trkpt>
      <trkpt lat="45.73437" lon="2.85646">
        <ele>783.016624</ele>
        <time>2021-07-06T14:08:46+0200</time>
      </trkpt>
      <trkpt lat="45.73442" lon="2.85639">
        <ele>783.934758</ele>
        <time>2021-07-06T14:08:48+0200</time>
      </trkpt>
      <trkpt lat="45.73447" lon="2.85632">
        <ele>783.867942</ele>
        <time>2021-07-06T14:08:50+0200</time>
      </trkpt>
      <trkpt lat="45.73453" lon="2.85623">
        <ele>783.121059</ele>
        <time>2021-07-06T14:08:52+0200</time>
      </trkpt>
      <trkpt lat="45.73459" lon="2.85613">
        <ele>781.969466</ele>
        <time>2021-07-06T14:08:54+0200</time>
      </trkpt>
      <trkpt lat="45.73465" lon="2.85604">
        <ele>782.057315</ele>
        <time>2021-07-06T14:08:56+0200</time>
      </trkpt>
      <trkpt lat="45.73469" lon="2.85599">
        <ele>782.321706</ele>
        <time>2021-07-06T14:08:57+0200</time>
      </trkpt>
      <trkpt lat="45.73473" lon="2.85594">
        <ele>782.571206</ele>
        <time>2021-07-06T14:08:58+0200</time>
      </trkpt>
      <trkpt lat="45.73476" lon="2.85588">
        <ele>784.031913</ele>
        <time>2021-07-06T14:08:59+0200</time>
      </trkpt>
      <trkpt lat="45.73481" lon="2.85579">
        <ele>785.786541</ele>
        <time>2021-07-06T14:09:01+0200</time>
      </trkpt>
      <trkpt lat="45.73484" lon="2.85574">
        <ele>785.992532</ele>
        <time>2021-07-06T14:09:02+0200</time>
      </trkpt>
      <trkpt lat="45.73489" lon="2.85568">
        <ele>785.243968</ele>
        <time>2021-07-06T14:09:03+0200</time>
      </trkpt>
      <trkpt lat="45.73492" lon="2.85564">
        <ele>784.921727</ele>
        <time>2021-07-06T14:09:04+0200</time>
      </trkpt>
      <trkpt lat="45.73496" lon="2.85558">
        <ele>784.465996</ele>
        <time>2021-07-06T14:09:05+0200</time>
      </trkpt>
      <trkpt lat="45.735" lon="2.85553">
        <ele>783.463309</ele>
        <time>2021-07-06T14:09:06+0200</time>
      </trkpt>
      <trkpt lat="45.73505" lon="2.8555">
        <ele>782.635789</ele>
        <time>2021-07-06T14:09:07+0200</time>
      </trkpt>
      <trkpt lat="45.7351" lon="2.85551">
        <ele>782.270113</ele>
        <time>2021-07-06T14:09:08+0200</time>
      </trkpt>
      <trkpt lat="45.73515" lon="2.85558">
        <ele>782.258793</ele>
        <time>2021-07-06T14:09:09+0200</time>
      </trkpt>
      <trkpt lat="45.73516" lon="2.85564">
        <ele>782.15738</ele>
        <time>2021-07-06T14:09:10+0200</time>
      </trkpt>
      <trkpt lat="45.73519" lon="2.85576">
        <ele>780.631838</ele>
        <time>2021-07-06T14:09:12+0200</time>
      </trkpt>
      <trkpt lat="45.73522" lon="2.85588">
        <ele>779.695497</ele>
        <time>2021-07-06T14:09:14+0200</time>
      </trkpt>
      <trkpt lat="45.73526" lon="2.85598">
        <ele>779.459736</ele>
        <time>2021-07-06T14:09:16+0200</time>
      </trkpt>
      <trkpt lat="45.73529" lon="2.85609">
        <ele>778.892689</ele>
        <time>2021-07-06T14:09:18+0200</time>
      </trkpt>
      <trkpt lat="45.73533" lon="2.85619">
        <ele>778.809547</ele>
        <time>2021-07-06T14:09:20+0200</time>
      </trkpt>
      <trkpt lat="45.73537" lon="2.8563">
        <ele>778.468738</ele>
        <time>2021-07-06T14:09:22+0200</time>
      </trkpt>
      <trkpt lat="45.7354" lon="2.8564">
        <ele>778.162593</ele>
        <time>2021-07-06T14:09:24+0200</time>
      </trkpt>
      <trkpt lat="45.73543" lon="2.85649">
        <ele>778.253746</ele>
        <time>2021-07-06T14:09:26+0200</time>
      </trkpt>
      <trkpt lat="45.73545" lon="2.85659">
        <ele>778.236161</ele>
        <time>2021-07-06T14:09:28+0200</time>
      </trkpt>
      <trkpt lat="45.73548" lon="2.85669">
        <ele>778.096155</ele>
        <time>2021-07-06T14:09:30+0200</time>
      </trkpt>
      <trkpt lat="45.73552" lon="2.85679">
        <ele>777.878128</ele>
        <time>2021-07-06T14:09:32+0200</time>
      </trkpt>
      <trkpt lat="45.73556" lon="2.85689">
        <ele>777.950153</ele>
        <time>2021-07-06T14:09:34+0200</time>
      </trkpt>
      <trkpt lat="45.73559" lon="2.85699">
        <ele>777.813616</ele>
        <time>2021-07-06T14:09:36+0200</time>
      </trkpt>
      <trkpt lat="45.73562" lon="2.85709">
        <ele>778.251603</ele>
        <time>2021-07-06T14:09:38+0200</time>
      </trkpt>
      <trkpt lat="45.73566" lon="2.85718">
        <ele>778.225361</ele>
        <time>2021-07-06T14:09:40+0200</time>
      </trkpt>
      <trkpt lat="45.73569" lon="2.85728">
        <ele>777.740906</ele>
        <time>2021-07-06T14:09:42+0200</time>
      </trkpt>
      <trkpt lat="45.73574" lon="2.85736">
        <ele>777.227635</ele>
        <time>2021-07-06T14:09:44+0200</time>
      </trkpt>
      <trkpt lat="45.73583" lon="2.8574">
        <ele>776.723138</ele>
        <time>2021-07-06T14:09:46+0200</time>
      </trkpt>
      <trkpt lat="45.73587" lon="2.85741">
        <ele>776.500699</ele>
        <time>2021-07-06T14:09:47+0200</time>
      </trkpt>
      <trkpt lat="45.73593" lon="2.85742">
        <ele>775.965412</ele>
        <time>2021-07-06T14:09:48+0200</time>
      </trkpt>
      <trkpt lat="45.73602" lon="2.85744">
        <ele>775.859039</ele>
        <time>2021-07-06T14:09:50+0200</time>
      </trkpt>
      <trkpt lat="45.73611" lon="2.85746">
        <ele>775.059613</ele>
        <time>2021-07-06T14:09:52+0200</time>
      </trkpt>
      <trkpt lat="45.73615" lon="2.85749">
        <ele>774.890328</ele>
        <time>2021-07-06T14:09:53+0200</time>
      </trkpt>
      <trkpt lat="45.7362" lon="2.8575">
        <ele>775.092241</ele>
        <time>2021-07-06T14:09:54+0200</time>
      </trkpt>
      <trkpt lat="45.73624" lon="2.85751">
        <ele>774.388197</ele>
        <time>2021-07-06T14:09:55+0200</time>
      </trkpt>
      <trkpt lat="45.73629" lon="2.85753">
        <ele>774.417613</ele>
        <time>2021-07-06T14:09:56+0200</time>
      </trkpt>
      <trkpt lat="45.73634" lon="2.85755">
        <ele>773.958295</ele>
        <time>2021-07-06T14:09:57+0200</time>
      </trkpt>
      <trkpt lat="45.73639" lon="2.85756">
        <ele>773.984443</ele>
        <time>2021-07-06T14:09:58+0200</time>
      </trkpt>
      <trkpt lat="45.73644" lon="2.85758">
        <ele>773.659413</ele>
        <time>2021-07-06T14:09:59+0200</time>
      </trkpt>
      <trkpt lat="45.73649" lon="2.85759">
        <ele>773.548703</ele>
        <time>2021-07-06T14:10:00+0200</time>
      </trkpt>
      <trkpt lat="45.73654" lon="2.85761">
        <ele>773.295693</ele>
        <time>2021-07-06T14:10:01+0200</time>
      </trkpt>
      <trkpt lat="45.73659" lon="2.85762">
        <ele>773.249837</ele>
        <time>2021-07-06T14:10:02+0200</time>
      </trkpt>
      <trkpt lat="45.73664" lon="2.85762">
        <ele>773.347021</ele>
        <time>2021-07-06T14:10:03+0200</time>
      </trkpt>
      <trkpt lat="45.73669" lon="2.85763">
        <ele>772.852959</ele>
        <time>2021-07-06T14:10:04+0200</time>
      </trkpt>
      <trkpt lat="45.73674" lon="2.85765">
        <ele>772.616214</ele>
        <time>2021-07-06T14:10:05+0200</time>
      </trkpt>
      <trkpt lat="45.73679" lon="2.85767">
        <ele>772.376093</ele>
        <time>2021-07-06T14:10:06+0200</time>
      </trkpt>
      <trkpt lat="45.73682" lon="2.85773">
        <ele>772.543226</ele>
        <time>2021-07-06T14:10:07+0200</time>
      </trkpt>
      <trkpt lat="45.73685" lon="2.8578">
        <ele>772.560599</ele>
        <time>2021-07-06T14:10:08+0200</time>
      </trkpt>
      <trkpt lat="45.73686" lon="2.85788">
        <ele>772.434584</ele>
        <time>2021-07-06T14:10:09+0200</time>
      </trkpt>
      <trkpt lat="45.73687" lon="2.85795">
        <ele>772.068697</ele>
        <time>2021-07-06T14:10:10+0200</time>
      </trkpt>
      <trkpt lat="45.73689" lon="2.85802">
        <ele>771.870396</ele>
        <time>2021-07-06T14:10:11+0200</time>
      </trkpt>
      <trkpt lat="45.73691" lon="2.85809">
        <ele>771.533481</ele>
        <time>2021-07-06T14:10:12+0200</time>
      </trkpt>
      <trkpt lat="45.73692" lon="2.85816">
        <ele>771.412488</ele>
        <time>2021-07-06T14:10:13+0200</time>
      </trkpt>
      <trkpt lat="45.73694" lon="2.85823">
        <ele>771.026393</ele>
        <time>2021-07-06T14:10:14+0200</time>
      </trkpt>
      <trkpt lat="45.73696" lon="2.85831">
        <ele>770.744571</ele>
        <time>2021-07-06T14:10:15+0200</time>
      </trkpt>
      <trkpt lat="45.73698" lon="2.85837">
        <ele>770.593704</ele>
        <time>2021-07-06T14:10:16+0200</time>
      </trkpt>
      <trkpt lat="45.737" lon="2.85844">
        <ele>770.307351</ele>
        <time>2021-07-06T14:10:17+0200</time>
      </trkpt>
      <trkpt lat="45.73702" lon="2.85852">
        <ele>769.908135</ele>
        <time>2021-07-06T14:10:18+0200</time>
      </trkpt>
      <trkpt lat="45.73704" lon="2.8586">
        <ele>769.546209</ele>
        <time>2021-07-06T14:10:19+0200</time>
      </trkpt>
      <trkpt lat="45.73706" lon="2.85867">
        <ele>769.600179</ele>
        <time>2021-07-06T14:10:20+0200</time>
      </trkpt>
      <trkpt lat="45.73709" lon="2.85874">
        <ele>769.556357</ele>
        <time>2021-07-06T14:10:21+0200</time>
      </trkpt>
      <trkpt lat="45.7371" lon="2.85881">
        <ele>769.428716</ele>
        <time>2021-07-06T14:10:22+0200</time>
      </trkpt>
      <trkpt lat="45.73712" lon="2.85889">
        <ele>769.338614</ele>
        <time>2021-07-06T14:10:23+0200</time>
      </trkpt>
      <trkpt lat="45.73715" lon="2.85896">
        <ele>769.171629</ele>
        <time>2021-07-06T14:10:24+0200</time>
      </trkpt>
      <trkpt lat="45.73716" lon="2.85905">
        <ele>768.760466</ele>
        <time>2021-07-06T14:10:25+0200</time>
      </trkpt>
      <trkpt lat="45.73718" lon="2.85913">
        <ele>768.468859</ele>
        <time>2021-07-06T14:10:26+0200</time>
      </trkpt>
      <trkpt lat="45.7372" lon="2.85921">
        <ele>768.141706</ele>
        <time>2021-07-06T14:10:27+0200</time>
      </trkpt>
      <trkpt lat="45.73723" lon="2.8593">
        <ele>767.869845</ele>
        <time>2021-07-06T14:10:28+0200</time>
      </trkpt>
      <trkpt lat="45.73725" lon="2.85938">
        <ele>767.582006</ele>
        <time>2021-07-06T14:10:29+0200</time>
      </trkpt>
      <trkpt lat="45.73728" lon="2.85947">
        <ele>766.882936</ele>
        <time>2021-07-06T14:10:30+0200</time>
      </trkpt>
      <trkpt lat="45.7373" lon="2.85957">
        <ele>766.173989</ele>
        <time>2021-07-06T14:10:31+0200</time>
      </trkpt>
      <trkpt lat="45.73734" lon="2.85965">
        <ele>765.538676</ele>
        <time>2021-07-06T14:10:32+0200</time>
      </trkpt>
      <trkpt lat="45.73739" lon="2.85972">
        <ele>765.094455</ele>
        <time>2021-07-06T14:10:33+0200</time>
      </trkpt>
      <trkpt lat="45.73747" lon="2.85977">
        <ele>764.132289</ele>
        <time>2021-07-06T14:10:34+0200</time>
      </trkpt>
      <trkpt lat="45.73756" lon="2.85981">
        <ele>762.880327</ele>
        <time>2021-07-06T14:10:35+0200</time>
      </trkpt>
      <trkpt lat="45.73765" lon="2.85986">
        <ele>761.489865</ele>
        <time>2021-07-06T14:10:36+0200</time>
      </trkpt>
      <trkpt lat="45.73773" lon="2.85992">
        <ele>759.810818</ele>
        <time>2021-07-06T14:10:37+0200</time>
      </trkpt>
      <trkpt lat="45.73783" lon="2.86">
        <ele>757.757604</ele>
        <time>2021-07-06T14:10:38+0200</time>
      </trkpt>
      <trkpt lat="45.73792" lon="2.86008">
        <ele>755.382257</ele>
        <time>2021-07-06T14:10:39+0200</time>
      </trkpt>
      <trkpt lat="45.73803" lon="2.86017">
        <ele>752.933238</ele>
        <time>2021-07-06T14:10:40+0200</time>
      </trkpt>
      <trkpt lat="45.73814" lon="2.86027">
        <ele>750.971422</ele>
        <time>2021-07-06T14:10:41+0200</time>
      </trkpt>
      <trkpt lat="45.73825" lon="2.86035">
        <ele>748.962684</ele>
        <time>2021-07-06T14:10:42+0200</time>
      </trkpt>
      <trkpt lat="45.73836" lon="2.86044">
        <ele>747.053587</ele>
        <time>2021-07-06T14:10:43+0200</time>
      </trkpt>
      <trkpt lat="45.73844" lon="2.86053">
        <ele>746.169855</ele>
        <time>2021-07-06T14:10:44+0200</time>
      </trkpt>
      <trkpt lat="45.73849" lon="2.86061">
        <ele>746.335843</ele>
        <time>2021-07-06T14:10:45+0200</time>
      </trkpt>
      <trkpt lat="45.73856" lon="2.86069">
        <ele>747.044199</ele>
        <time>2021-07-06T14:10:46+0200</time>
      </trkpt>
      <trkpt lat="45.73863" lon="2.86076">
        <ele>747.886496</ele>
        <time>2021-07-06T14:10:47+0200</time>
      </trkpt>
      <trkpt lat="45.7387" lon="2.86083">
        <ele>747.859421</ele>
        <time>2021-07-06T14:10:48+0200</time>
      </trkpt>
      <trkpt lat="45.73874" lon="2.86089">
        <ele>747.212087</ele>
        <time>2021-07-06T14:10:49+0200</time>
      </trkpt>
      <trkpt lat="45.73877" lon="2.86096">
        <ele>747.111758</ele>
        <time>2021-07-06T14:10:50+0200</time>
      </trkpt>
      <trkpt lat="45.7388" lon="2.86103">
        <ele>746.42759</ele>
        <time>2021-07-06T14:10:51+0200</time>
      </trkpt>
      <trkpt lat="45.73881" lon="2.8611">
        <ele>747.137112</ele>
        <time>2021-07-06T14:10:52+0200</time>
      </trkpt>
      <trkpt lat="45.73881" lon="2.86118">
        <ele>746.575374</ele>
        <time>2021-07-06T14:10:53+0200</time>
      </trkpt>
      <trkpt lat="45.7388" lon="2.86128">
        <ele>746.229089</ele>
        <time>2021-07-06T14:10:54+0200</time>
      </trkpt>
      <trkpt lat="45.7388" lon="2.86139">
        <ele>745.996607</ele>
        <time>2021-07-06T14:10:55+0200</time>
      </trkpt>
      <trkpt lat="45.73879" lon="2.86149">
        <ele>745.33355</ele>
        <time>2021-07-06T14:10:56+0200</time>
      </trkpt>
      <trkpt lat="45.73879" lon="2.86159">
        <ele>744.141414</ele>
        <time>2021-07-06T14:10:57+0200</time>
      </trkpt>
      <trkpt lat="45.73879" lon="2.86169">
        <ele>743.205151</ele>
        <time>2021-07-06T14:10:58+0200</time>
      </trkpt>
      <trkpt lat="45.7388" lon="2.86176">
        <ele>743.63476</ele>
        <time>2021-07-06T14:10:59+0200</time>
      </trkpt>
      <trkpt lat="45.73876" lon="2.86171">
        <ele>745.155401</ele>
        <time>2021-07-06T14:12:42+0200</time>
      </trkpt>
      <trkpt lat="45.73874" lon="2.86177">
        <ele>743.936854</ele>
        <time>2021-07-06T14:13:57+0200</time>
      </trkpt>
      <trkpt lat="45.73879" lon="2.86177">
        <ele>743.691753</ele>
        <time>2021-07-06T14:14:12+0200</time>
      </trkpt>
      <trkpt lat="45.73876" lon="2.86172">
        <ele>743.88614</ele>
        <time>2021-07-06T14:14:51+0200</time>
      </trkpt>
      <trkpt lat="45.73877" lon="2.8618">
        <ele>744.619462</ele>
        <time>2021-07-06T14:15:55+0200</time>
      </trkpt>
      <trkpt lat="45.73877" lon="2.86188">
        <ele>743.786937</ele>
        <time>2021-07-06T14:15:58+0200</time>
      </trkpt>
      <trkpt lat="45.73878" lon="2.86198">
        <ele>744.22136</ele>
        <time>2021-07-06T14:16:00+0200</time>
      </trkpt>
      <trkpt lat="45.73879" lon="2.8621">
        <ele>744.196126</ele>
        <time>2021-07-06T14:16:02+0200</time>
      </trkpt>
      <trkpt lat="45.7388" lon="2.8622">
        <ele>743.81687</ele>
        <time>2021-07-06T14:16:04+0200</time>
      </trkpt>
      <trkpt lat="45.73883" lon="2.86231">
        <ele>742.561957</ele>
        <time>2021-07-06T14:16:06+0200</time>
      </trkpt>
      <trkpt lat="45.73888" lon="2.86239">
        <ele>743.024389</ele>
        <time>2021-07-06T14:16:08+0200</time>
      </trkpt>
      <trkpt lat="45.73891" lon="2.86244">
        <ele>742.944764</ele>
        <time>2021-07-06T14:16:09+0200</time>
      </trkpt>
      <trkpt lat="45.73896" lon="2.86247">
        <ele>742.735174</ele>
        <time>2021-07-06T14:16:10+0200</time>
      </trkpt>
      <trkpt lat="45.739" lon="2.86249">
        <ele>742.288258</ele>
        <time>2021-07-06T14:16:11+0200</time>
      </trkpt>
      <trkpt lat="45.73908" lon="2.8625">
        <ele>741.89371</ele>
        <time>2021-07-06T14:16:13+0200</time>
      </trkpt>
      <trkpt lat="45.73913" lon="2.86251">
        <ele>741.136302</ele>
        <time>2021-07-06T14:16:14+0200</time>
      </trkpt>
      <trkpt lat="45.73918" lon="2.86255">
        <ele>740.472925</ele>
        <time>2021-07-06T14:16:15+0200</time>
      </trkpt>
      <trkpt lat="45.73924" lon="2.86259">
        <ele>739.746353</ele>
        <time>2021-07-06T14:16:16+0200</time>
      </trkpt>
      <trkpt lat="45.73928" lon="2.86263">
        <ele>739.022233</ele>
        <time>2021-07-06T14:16:17+0200</time>
      </trkpt>
      <trkpt lat="45.73931" lon="2.8627">
        <ele>738.511576</ele>
        <time>2021-07-06T14:16:18+0200</time>
      </trkpt>
      <trkpt lat="45.73935" lon="2.86278">
        <ele>737.826896</ele>
        <time>2021-07-06T14:16:19+0200</time>
      </trkpt>
      <trkpt lat="45.73937" lon="2.86288">
        <ele>737.871213</ele>
        <time>2021-07-06T14:16:20+0200</time>
      </trkpt>
      <trkpt lat="45.73939" lon="2.86298">
        <ele>737.874095</ele>
        <time>2021-07-06T14:16:21+0200</time>
      </trkpt>
      <trkpt lat="45.7394" lon="2.86307">
        <ele>738.374558</ele>
        <time>2021-07-06T14:16:22+0200</time>
      </trkpt>
      <trkpt lat="45.73941" lon="2.86316">
        <ele>738.364707</ele>
        <time>2021-07-06T14:16:23+0200</time>
      </trkpt>
      <trkpt lat="45.73943" lon="2.86324">
        <ele>738.231731</ele>
        <time>2021-07-06T14:16:24+0200</time>
      </trkpt>
      <trkpt lat="45.73945" lon="2.86331">
        <ele>738.384177</ele>
        <time>2021-07-06T14:16:25+0200</time>
      </trkpt>
      <trkpt lat="45.73945" lon="2.86339">
        <ele>737.92628</ele>
        <time>2021-07-06T14:16:26+0200</time>
      </trkpt>
      <trkpt lat="45.73948" lon="2.86346">
        <ele>737.769539</ele>
        <time>2021-07-06T14:16:27+0200</time>
      </trkpt>
      <trkpt lat="45.73951" lon="2.86352">
        <ele>737.808767</ele>
        <time>2021-07-06T14:16:28+0200</time>
      </trkpt>
      <trkpt lat="45.73954" lon="2.86358">
        <ele>736.881398</ele>
        <time>2021-07-06T14:16:29+0200</time>
      </trkpt>
      <trkpt lat="45.73957" lon="2.86363">
        <ele>736.603044</ele>
        <time>2021-07-06T14:16:30+0200</time>
      </trkpt>
      <trkpt lat="45.73966" lon="2.86369">
        <ele>736.263574</ele>
        <time>2021-07-06T14:16:32+0200</time>
      </trkpt>
      <trkpt lat="45.73973" lon="2.86372">
        <ele>736.204174</ele>
        <time>2021-07-06T14:16:34+0200</time>
      </trkpt>
      <trkpt lat="45.7398" lon="2.86375">
        <ele>735.915542</ele>
        <time>2021-07-06T14:16:36+0200</time>
      </trkpt>
      <trkpt lat="45.73984" lon="2.86379">
        <ele>736.882053</ele>
        <time>2021-07-06T14:16:38+0200</time>
      </trkpt>
      <trkpt lat="45.7399" lon="2.8638">
        <ele>737.641052</ele>
        <time>2021-07-06T14:16:41+0200</time>
      </trkpt>
      <trkpt lat="45.73997" lon="2.86385">
        <ele>738.499006</ele>
        <time>2021-07-06T14:16:44+0200</time>
      </trkpt>
      <trkpt lat="45.74002" lon="2.86389">
        <ele>739.198737</ele>
        <time>2021-07-06T14:16:46+0200</time>
      </trkpt>
      <trkpt lat="45.74006" lon="2.86394">
        <ele>740.161292</ele>
        <time>2021-07-06T14:16:48+0200</time>
      </trkpt>
      <trkpt lat="45.74009" lon="2.86399">
        <ele>741.202108</ele>
        <time>2021-07-06T14:16:50+0200</time>
      </trkpt>
      <trkpt lat="45.74014" lon="2.86404">
        <ele>741.283857</ele>
        <time>2021-07-06T14:16:52+0200</time>
      </trkpt>
      <trkpt lat="45.74018" lon="2.86409">
        <ele>741.989981</ele>
        <time>2021-07-06T14:16:54+0200</time>
      </trkpt>
      <trkpt lat="45.74023" lon="2.86414">
        <ele>742.892541</ele>
        <time>2021-07-06T14:16:56+0200</time>
      </trkpt>
      <trkpt lat="45.74027" lon="2.86419">
        <ele>743.338871</ele>
        <time>2021-07-06T14:16:58+0200</time>
      </trkpt>
      <trkpt lat="45.74031" lon="2.86425">
        <ele>744.191038</ele>
        <time>2021-07-06T14:17:00+0200</time>
      </trkpt>
      <trkpt lat="45.74035" lon="2.86431">
        <ele>744.340131</ele>
        <time>2021-07-06T14:17:02+0200</time>
      </trkpt>
      <trkpt lat="45.74039" lon="2.86437">
        <ele>744.327071</ele>
        <time>2021-07-06T14:17:04+0200</time>
      </trkpt>
      <trkpt lat="45.74043" lon="2.86443">
        <ele>743.768292</ele>
        <time>2021-07-06T14:17:06+0200</time>
      </trkpt>
      <trkpt lat="45.74047" lon="2.86449">
        <ele>743.710241</ele>
        <time>2021-07-06T14:17:08+0200</time>
      </trkpt>
      <trkpt lat="45.7405" lon="2.86456">
        <ele>743.494674</ele>
        <time>2021-07-06T14:17:10+0200</time>
      </trkpt>
      <trkpt lat="45.74054" lon="2.86463">
        <ele>743.160434</ele>
        <time>2021-07-06T14:17:12+0200</time>
      </trkpt>
      <trkpt lat="45.74058" lon="2.86468">
        <ele>743.207226</ele>
        <time>2021-07-06T14:17:14+0200</time>
      </trkpt>
      <trkpt lat="45.74063" lon="2.86474">
        <ele>743.43472</ele>
        <time>2021-07-06T14:17:16+0200</time>
      </trkpt>
      <trkpt lat="45.74068" lon="2.86479">
        <ele>744.109154</ele>
        <time>2021-07-06T14:17:18+0200</time>
      </trkpt>
      <trkpt lat="45.74075" lon="2.86484">
        <ele>743.489445</ele>
        <time>2021-07-06T14:17:20+0200</time>
      </trkpt>
      <trkpt lat="45.7408" lon="2.86489">
        <ele>742.823742</ele>
        <time>2021-07-06T14:17:22+0200</time>
      </trkpt>
      <trkpt lat="45.74086" lon="2.86493">
        <ele>742.477605</ele>
        <time>2021-07-06T14:17:24+0200</time>
      </trkpt>
      <trkpt lat="45.74093" lon="2.86497">
        <ele>741.926742</ele>
        <time>2021-07-06T14:17:26+0200</time>
      </trkpt>
      <trkpt lat="45.74099" lon="2.86501">
        <ele>741.90916</ele>
        <time>2021-07-06T14:17:28+0200</time>
      </trkpt>
      <trkpt lat="45.74105" lon="2.86504">
        <ele>741.881437</ele>
        <time>2021-07-06T14:17:30+0200</time>
      </trkpt>
      <trkpt lat="45.7411" lon="2.86508">
        <ele>741.251287</ele>
        <time>2021-07-06T14:17:32+0200</time>
      </trkpt>
      <trkpt lat="45.74116" lon="2.86515">
        <ele>741.080752</ele>
        <time>2021-07-06T14:17:34+0200</time>
      </trkpt>
      <trkpt lat="45.74122" lon="2.8652">
        <ele>741.370972</ele>
        <time>2021-07-06T14:17:36+0200</time>
      </trkpt>
      <trkpt lat="45.74128" lon="2.86527">
        <ele>740.651735</ele>
        <time>2021-07-06T14:17:38+0200</time>
      </trkpt>
      <trkpt lat="45.74132" lon="2.86531">
        <ele>740.615999</ele>
        <time>2021-07-06T14:17:39+0200</time>
      </trkpt>
      <trkpt lat="45.74135" lon="2.86536">
        <ele>740.089634</ele>
        <time>2021-07-06T14:17:40+0200</time>
      </trkpt>
      <trkpt lat="45.74139" lon="2.8654">
        <ele>739.742682</ele>
        <time>2021-07-06T14:17:41+0200</time>
      </trkpt>
      <trkpt lat="45.74143" lon="2.86544">
        <ele>739.400624</ele>
        <time>2021-07-06T14:17:42+0200</time>
      </trkpt>
      <trkpt lat="45.74151" lon="2.86551">
        <ele>739.173982</ele>
        <time>2021-07-06T14:17:44+0200</time>
      </trkpt>
      <trkpt lat="45.74156" lon="2.86554">
        <ele>739.542392</ele>
        <time>2021-07-06T14:17:45+0200</time>
      </trkpt>
      <trkpt lat="45.7416" lon="2.86556">
        <ele>739.195581</ele>
        <time>2021-07-06T14:17:46+0200</time>
      </trkpt>
      <trkpt lat="45.74167" lon="2.86559">
        <ele>739.485173</ele>
        <time>2021-07-06T14:17:48+0200</time>
      </trkpt>
      <trkpt lat="45.74174" lon="2.86561">
        <ele>739.313473</ele>
        <time>2021-07-06T14:17:50+0200</time>
      </trkpt>
      <trkpt lat="45.7418" lon="2.86563">
        <ele>739.671881</ele>
        <time>2021-07-06T14:17:52+0200</time>
      </trkpt>
      <trkpt lat="45.74185" lon="2.86564">
        <ele>740.823691</ele>
        <time>2021-07-06T14:17:53+0200</time>
      </trkpt>
      <trkpt lat="45.7419" lon="2.86568">
        <ele>742.331861</ele>
        <time>2021-07-06T14:17:54+0200</time>
      </trkpt>
      <trkpt lat="45.74199" lon="2.86572">
        <ele>742.607448</ele>
        <time>2021-07-06T14:17:56+0200</time>
      </trkpt>
      <trkpt lat="45.74203" lon="2.86575">
        <ele>742.248822</ele>
        <time>2021-07-06T14:17:57+0200</time>
      </trkpt>
      <trkpt lat="45.74211" lon="2.8658">
        <ele>742.149031</ele>
        <time>2021-07-06T14:17:59+0200</time>
      </trkpt>
      <trkpt lat="45.74216" lon="2.86582">
        <ele>742.191647</ele>
        <time>2021-07-06T14:18:00+0200</time>
      </trkpt>
      <trkpt lat="45.7422" lon="2.86585">
        <ele>742.08352</ele>
        <time>2021-07-06T14:18:01+0200</time>
      </trkpt>
      <trkpt lat="45.74227" lon="2.8659">
        <ele>742.04319</ele>
        <time>2021-07-06T14:18:03+0200</time>
      </trkpt>
      <trkpt lat="45.74234" lon="2.86592">
        <ele>743.112368</ele>
        <time>2021-07-06T14:18:05+0200</time>
      </trkpt>
      <trkpt lat="45.7424" lon="2.86594">
        <ele>743.934127</ele>
        <time>2021-07-06T14:18:07+0200</time>
      </trkpt>
      <trkpt lat="45.74247" lon="2.86594">
        <ele>747.573669</ele>
        <time>2021-07-06T14:18:10+0200</time>
      </trkpt>
      <trkpt lat="45.74252" lon="2.86597">
        <ele>751.102989</ele>
        <time>2021-07-06T14:18:13+0200</time>
      </trkpt>
      <trkpt lat="45.74258" lon="2.866">
        <ele>752.417282</ele>
        <time>2021-07-06T14:18:16+0200</time>
      </trkpt>
      <trkpt lat="45.74263" lon="2.86604">
        <ele>752.836664</ele>
        <time>2021-07-06T14:18:18+0200</time>
      </trkpt>
      <trkpt lat="45.74269" lon="2.86608">
        <ele>750.614303</ele>
        <time>2021-07-06T14:18:20+0200</time>
      </trkpt>
      <trkpt lat="45.74273" lon="2.86615">
        <ele>750.90497</ele>
        <time>2021-07-06T14:18:22+0200</time>
      </trkpt>
      <trkpt lat="45.74278" lon="2.86619">
        <ele>752.597071</ele>
        <time>2021-07-06T14:18:25+0200</time>
      </trkpt>
      <trkpt lat="45.74283" lon="2.86624">
        <ele>752.695767</ele>
        <time>2021-07-06T14:18:28+0200</time>
      </trkpt>
      <trkpt lat="45.74287" lon="2.86626">
        <ele>751.277734</ele>
        <time>2021-07-06T14:18:30+0200</time>
      </trkpt>
      <trkpt lat="45.74293" lon="2.86628">
        <ele>750.919471</ele>
        <time>2021-07-06T14:18:33+0200</time>
      </trkpt>
      <trkpt lat="45.74297" lon="2.86632">
        <ele>749.763041</ele>
        <time>2021-07-06T14:18:36+0200</time>
      </trkpt>
      <trkpt lat="45.74302" lon="2.86637">
        <ele>750.755321</ele>
        <time>2021-07-06T14:18:39+0200</time>
      </trkpt>
      <trkpt lat="45.74307" lon="2.86639">
        <ele>751.461729</ele>
        <time>2021-07-06T14:18:42+0200</time>
      </trkpt>
      <trkpt lat="45.74313" lon="2.86642">
        <ele>752.414947</ele>
        <time>2021-07-06T14:18:45+0200</time>
      </trkpt>
      <trkpt lat="45.74317" lon="2.86645">
        <ele>753.549091</ele>
        <time>2021-07-06T14:18:48+0200</time>
      </trkpt>
      <trkpt lat="45.74323" lon="2.86646">
        <ele>754.432605</ele>
        <time>2021-07-06T14:18:51+0200</time>
      </trkpt>
      <trkpt lat="45.74329" lon="2.86647">
        <ele>754.50551</ele>
        <time>2021-07-06T14:18:54+0200</time>
      </trkpt>
      <trkpt lat="45.74335" lon="2.8665">
        <ele>754.523825</ele>
        <time>2021-07-06T14:18:57+0200</time>
      </trkpt>
      <trkpt lat="45.7434" lon="2.8665">
        <ele>755.214284</ele>
        <time>2021-07-06T14:19:00+0200</time>
      </trkpt>
      <trkpt lat="45.74345" lon="2.8665">
        <ele>757.632687</ele>
        <time>2021-07-06T14:19:03+0200</time>
      </trkpt>
      <trkpt lat="45.74351" lon="2.86649">
        <ele>759.911919</ele>
        <time>2021-07-06T14:19:06+0200</time>
      </trkpt>
      <trkpt lat="45.74357" lon="2.86647">
        <ele>760.417405</ele>
        <time>2021-07-06T14:19:09+0200</time>
      </trkpt>
      <trkpt lat="45.74362" lon="2.86646">
        <ele>760.337052</ele>
        <time>2021-07-06T14:19:11+0200</time>
      </trkpt>
      <trkpt lat="45.74366" lon="2.86645">
        <ele>760.687982</ele>
        <time>2021-07-06T14:19:13+0200</time>
      </trkpt>
      <trkpt lat="45.74371" lon="2.86642">
        <ele>761.539414</ele>
        <time>2021-07-06T14:19:15+0200</time>
      </trkpt>
      <trkpt lat="45.74376" lon="2.86641">
        <ele>761.673496</ele>
        <time>2021-07-06T14:19:17+0200</time>
      </trkpt>
      <trkpt lat="45.74379" lon="2.86636">
        <ele>761.885204</ele>
        <time>2021-07-06T14:19:20+0200</time>
      </trkpt>
      <trkpt lat="45.74383" lon="2.86632">
        <ele>763.705715</ele>
        <time>2021-07-06T14:19:23+0200</time>
      </trkpt>
      <trkpt lat="45.74389" lon="2.86631">
        <ele>762.0689</ele>
        <time>2021-07-06T14:19:25+0200</time>
      </trkpt>
      <trkpt lat="45.74394" lon="2.86633">
        <ele>761.640571</ele>
        <time>2021-07-06T14:19:27+0200</time>
      </trkpt>
      <trkpt lat="45.74399" lon="2.86634">
        <ele>762.847919</ele>
        <time>2021-07-06T14:19:29+0200</time>
      </trkpt>
      <trkpt lat="45.74404" lon="2.86635">
        <ele>762.925404</ele>
        <time>2021-07-06T14:19:31+0200</time>
      </trkpt>
      <trkpt lat="45.74409" lon="2.86637">
        <ele>763.029831</ele>
        <time>2021-07-06T14:19:36+0200</time>
      </trkpt>
      <trkpt lat="45.74414" lon="2.86632">
        <ele>763.394793</ele>
        <time>2021-07-06T14:19:38+0200</time>
      </trkpt>
      <trkpt lat="45.7442" lon="2.86626">
        <ele>762.970776</ele>
        <time>2021-07-06T14:19:40+0200</time>
      </trkpt>
      <trkpt lat="45.74425" lon="2.86619">
        <ele>764.148318</ele>
        <time>2021-07-06T14:19:42+0200</time>
      </trkpt>
      <trkpt lat="45.74431" lon="2.86615">
        <ele>764.424965</ele>
        <time>2021-07-06T14:19:44+0200</time>
      </trkpt>
      <trkpt lat="45.74437" lon="2.86611">
        <ele>765.065951</ele>
        <time>2021-07-06T14:19:46+0200</time>
      </trkpt>
      <trkpt lat="45.74444" lon="2.86604">
        <ele>764.282928</ele>
        <time>2021-07-06T14:19:48+0200</time>
      </trkpt>
      <trkpt lat="45.74449" lon="2.86602">
        <ele>764.26119</ele>
        <time>2021-07-06T14:19:49+0200</time>
      </trkpt>
      <trkpt lat="45.74453" lon="2.86599">
        <ele>764.03719</ele>
        <time>2021-07-06T14:19:50+0200</time>
      </trkpt>
      <trkpt lat="45.74458" lon="2.86596">
        <ele>764.022568</ele>
        <time>2021-07-06T14:19:51+0200</time>
      </trkpt>
      <trkpt lat="45.74463" lon="2.86596">
        <ele>763.127699</ele>
        <time>2021-07-06T14:19:52+0200</time>
      </trkpt>
      <trkpt lat="45.74468" lon="2.86598">
        <ele>762.977496</ele>
        <time>2021-07-06T14:19:53+0200</time>
      </trkpt>
      <trkpt lat="45.74473" lon="2.86601">
        <ele>763.219022</ele>
        <time>2021-07-06T14:19:54+0200</time>
      </trkpt>
      <trkpt lat="45.74482" lon="2.86604">
        <ele>764.570515</ele>
        <time>2021-07-06T14:19:56+0200</time>
      </trkpt>
      <trkpt lat="45.74486" lon="2.86606">
        <ele>765.215664</ele>
        <time>2021-07-06T14:19:57+0200</time>
      </trkpt>
      <trkpt lat="45.74491" lon="2.86609">
        <ele>765.752571</ele>
        <time>2021-07-06T14:19:58+0200</time>
      </trkpt>
      <trkpt lat="45.74495" lon="2.86613">
        <ele>765.212816</ele>
        <time>2021-07-06T14:19:59+0200</time>
      </trkpt>
      <trkpt lat="45.74499" lon="2.86615">
        <ele>764.800964</ele>
        <time>2021-07-06T14:20:00+0200</time>
      </trkpt>
      <trkpt lat="45.74507" lon="2.86621">
        <ele>764.710745</ele>
        <time>2021-07-06T14:20:02+0200</time>
      </trkpt>
      <trkpt lat="45.74512" lon="2.86626">
        <ele>764.78039</ele>
        <time>2021-07-06T14:20:04+0200</time>
      </trkpt>
      <trkpt lat="45.74518" lon="2.86634">
        <ele>762.994075</ele>
        <time>2021-07-06T14:20:06+0200</time>
      </trkpt>
      <trkpt lat="45.74525" lon="2.86636">
        <ele>762.149555</ele>
        <time>2021-07-06T14:20:08+0200</time>
      </trkpt>
      <trkpt lat="45.74531" lon="2.86632">
        <ele>761.516194</ele>
        <time>2021-07-06T14:20:10+0200</time>
      </trkpt>
      <trkpt lat="45.74536" lon="2.86631">
        <ele>762.513186</ele>
        <time>2021-07-06T14:20:12+0200</time>
      </trkpt>
      <trkpt lat="45.74541" lon="2.86631">
        <ele>762.163131</ele>
        <time>2021-07-06T14:20:14+0200</time>
      </trkpt>
      <trkpt lat="45.74548" lon="2.86628">
        <ele>760.504609</ele>
        <time>2021-07-06T14:20:16+0200</time>
      </trkpt>
      <trkpt lat="45.74553" lon="2.86623">
        <ele>762.367906</ele>
        <time>2021-07-06T14:20:18+0200</time>
      </trkpt>
      <trkpt lat="45.74558" lon="2.86621">
        <ele>763.13401</ele>
        <time>2021-07-06T14:20:20+0200</time>
      </trkpt>
      <trkpt lat="45.74563" lon="2.86616">
        <ele>768.649718</ele>
        <time>2021-07-06T14:20:24+0200</time>
      </trkpt>
      <trkpt lat="45.74568" lon="2.86616">
        <ele>767.91859</ele>
        <time>2021-07-06T14:20:26+0200</time>
      </trkpt>
      <trkpt lat="45.74574" lon="2.86618">
        <ele>766.717788</ele>
        <time>2021-07-06T14:20:28+0200</time>
      </trkpt>
      <trkpt lat="45.74579" lon="2.86617">
        <ele>766.351026</ele>
        <time>2021-07-06T14:20:30+0200</time>
      </trkpt>
      <trkpt lat="45.74584" lon="2.8662">
        <ele>766.038156</ele>
        <time>2021-07-06T14:20:32+0200</time>
      </trkpt>
      <trkpt lat="45.7459" lon="2.8662">
        <ele>764.349461</ele>
        <time>2021-07-06T14:20:34+0200</time>
      </trkpt>
      <trkpt lat="45.74597" lon="2.86622">
        <ele>762.372485</ele>
        <time>2021-07-06T14:20:36+0200</time>
      </trkpt>
      <trkpt lat="45.74604" lon="2.86624">
        <ele>762.189931</ele>
        <time>2021-07-06T14:20:38+0200</time>
      </trkpt>
      <trkpt lat="45.74611" lon="2.86625">
        <ele>761.372285</ele>
        <time>2021-07-06T14:20:40+0200</time>
      </trkpt>
      <trkpt lat="45.74617" lon="2.86626">
        <ele>759.926536</ele>
        <time>2021-07-06T14:20:42+0200</time>
      </trkpt>
      <trkpt lat="45.74623" lon="2.86625">
        <ele>759.318983</ele>
        <time>2021-07-06T14:20:44+0200</time>
      </trkpt>
      <trkpt lat="45.74629" lon="2.86626">
        <ele>759.835335</ele>
        <time>2021-07-06T14:20:46+0200</time>
      </trkpt>
      <trkpt lat="45.74636" lon="2.86627">
        <ele>759.041459</ele>
        <time>2021-07-06T14:20:48+0200</time>
      </trkpt>
      <trkpt lat="45.74643" lon="2.86628">
        <ele>757.767845</ele>
        <time>2021-07-06T14:20:50+0200</time>
      </trkpt>
      <trkpt lat="45.7465" lon="2.86628">
        <ele>757.631095</ele>
        <time>2021-07-06T14:20:52+0200</time>
      </trkpt>
      <trkpt lat="45.74658" lon="2.8663">
        <ele>757.485477</ele>
        <time>2021-07-06T14:20:54+0200</time>
      </trkpt>
      <trkpt lat="45.74666" lon="2.86632">
        <ele>757.751078</ele>
        <time>2021-07-06T14:20:56+0200</time>
      </trkpt>
      <trkpt lat="45.74671" lon="2.86633">
        <ele>757.470783</ele>
        <time>2021-07-06T14:20:57+0200</time>
      </trkpt>
      <trkpt lat="45.74679" lon="2.86635">
        <ele>757.199323</ele>
        <time>2021-07-06T14:20:59+0200</time>
      </trkpt>
      <trkpt lat="45.74688" lon="2.86637">
        <ele>755.960878</ele>
        <time>2021-07-06T14:21:01+0200</time>
      </trkpt>
      <trkpt lat="45.74697" lon="2.86638">
        <ele>755.197879</ele>
        <time>2021-07-06T14:21:03+0200</time>
      </trkpt>
      <trkpt lat="45.74702" lon="2.86638">
        <ele>755.390423</ele>
        <time>2021-07-06T14:21:04+0200</time>
      </trkpt>
      <trkpt lat="45.74706" lon="2.86639">
        <ele>755.205796</ele>
        <time>2021-07-06T14:21:05+0200</time>
      </trkpt>
      <trkpt lat="45.74711" lon="2.8664">
        <ele>754.752447</ele>
        <time>2021-07-06T14:21:06+0200</time>
      </trkpt>
      <trkpt lat="45.74719" lon="2.86642">
        <ele>754.653803</ele>
        <time>2021-07-06T14:21:08+0200</time>
      </trkpt>
      <trkpt lat="45.74727" lon="2.86646">
        <ele>754.85768</ele>
        <time>2021-07-06T14:21:10+0200</time>
      </trkpt>
      <trkpt lat="45.74734" lon="2.86652">
        <ele>754.645007</ele>
        <time>2021-07-06T14:21:12+0200</time>
      </trkpt>
      <trkpt lat="45.74737" lon="2.86657">
        <ele>754.015882</ele>
        <time>2021-07-06T14:21:13+0200</time>
      </trkpt>
      <trkpt lat="45.74743" lon="2.86664">
        <ele>753.400073</ele>
        <time>2021-07-06T14:21:15+0200</time>
      </trkpt>
      <trkpt lat="45.74749" lon="2.86672">
        <ele>752.737169</ele>
        <time>2021-07-06T14:21:17+0200</time>
      </trkpt>
      <trkpt lat="45.74756" lon="2.86679">
        <ele>752.916177</ele>
        <time>2021-07-06T14:21:19+0200</time>
      </trkpt>
      <trkpt lat="45.74762" lon="2.86684">
        <ele>753.176671</ele>
        <time>2021-07-06T14:21:21+0200</time>
      </trkpt>
      <trkpt lat="45.74768" lon="2.8669">
        <ele>753.303527</ele>
        <time>2021-07-06T14:21:23+0200</time>
      </trkpt>
      <trkpt lat="45.74773" lon="2.86697">
        <ele>754.22065</ele>
        <time>2021-07-06T14:21:25+0200</time>
      </trkpt>
      <trkpt lat="45.74779" lon="2.86703">
        <ele>753.93571</ele>
        <time>2021-07-06T14:21:26+0200</time>
      </trkpt>
      <trkpt lat="45.74786" lon="2.8671">
        <ele>753.293428</ele>
        <time>2021-07-06T14:21:29+0200</time>
      </trkpt>
      <trkpt lat="45.74792" lon="2.86717">
        <ele>753.248997</ele>
        <time>2021-07-06T14:21:30+0200</time>
      </trkpt>
      <trkpt lat="45.74799" lon="2.86725">
        <ele>752.58752</ele>
        <time>2021-07-06T14:21:32+0200</time>
      </trkpt>
      <trkpt lat="45.74804" lon="2.86734">
        <ele>753.334583</ele>
        <time>2021-07-06T14:21:34+0200</time>
      </trkpt>
      <trkpt lat="45.74807" lon="2.86738">
        <ele>753.35864</ele>
        <time>2021-07-06T14:21:35+0200</time>
      </trkpt>
      <trkpt lat="45.74811" lon="2.86743">
        <ele>753.113125</ele>
        <time>2021-07-06T14:21:36+0200</time>
      </trkpt>
      <trkpt lat="45.74814" lon="2.86748">
        <ele>752.680483</ele>
        <time>2021-07-06T14:21:37+0200</time>
      </trkpt>
      <trkpt lat="45.74817" lon="2.86752">
        <ele>752.349064</ele>
        <time>2021-07-06T14:21:38+0200</time>
      </trkpt>
      <trkpt lat="45.74821" lon="2.86757">
        <ele>752.193052</ele>
        <time>2021-07-06T14:21:39+0200</time>
      </trkpt>
      <trkpt lat="45.74827" lon="2.86767">
        <ele>751.554901</ele>
        <time>2021-07-06T14:21:41+0200</time>
      </trkpt>
      <trkpt lat="45.74832" lon="2.86776">
        <ele>750.814704</ele>
        <time>2021-07-06T14:21:43+0200</time>
      </trkpt>
      <trkpt lat="45.74835" lon="2.86782">
        <ele>751.176817</ele>
        <time>2021-07-06T14:21:44+0200</time>
      </trkpt>
      <trkpt lat="45.74838" lon="2.86787">
        <ele>751.313172</ele>
        <time>2021-07-06T14:21:45+0200</time>
      </trkpt>
      <trkpt lat="45.74841" lon="2.86792">
        <ele>751.224239</ele>
        <time>2021-07-06T14:21:46+0200</time>
      </trkpt>
      <trkpt lat="45.74844" lon="2.86798">
        <ele>751.1753</ele>
        <time>2021-07-06T14:21:47+0200</time>
      </trkpt>
      <trkpt lat="45.7485" lon="2.86807">
        <ele>751.697721</ele>
        <time>2021-07-06T14:21:49+0200</time>
      </trkpt>
      <trkpt lat="45.74856" lon="2.86816">
        <ele>751.72008</ele>
        <time>2021-07-06T14:21:51+0200</time>
      </trkpt>
      <trkpt lat="45.74859" lon="2.86821">
        <ele>751.662904</ele>
        <time>2021-07-06T14:21:52+0200</time>
      </trkpt>
      <trkpt lat="45.74866" lon="2.86828">
        <ele>751.23392</ele>
        <time>2021-07-06T14:21:54+0200</time>
      </trkpt>
      <trkpt lat="45.74871" lon="2.8683">
        <ele>751.119555</ele>
        <time>2021-07-06T14:21:55+0200</time>
      </trkpt>
      <trkpt lat="45.74876" lon="2.86831">
        <ele>750.534656</ele>
        <time>2021-07-06T14:21:56+0200</time>
      </trkpt>
      <trkpt lat="45.74881" lon="2.86831">
        <ele>750.493662</ele>
        <time>2021-07-06T14:21:57+0200</time>
      </trkpt>
      <trkpt lat="45.74885" lon="2.86831">
        <ele>750.095498</ele>
        <time>2021-07-06T14:21:59+0200</time>
      </trkpt>
      <trkpt lat="45.7489" lon="2.86833">
        <ele>750.012987</ele>
        <time>2021-07-06T14:22:00+0200</time>
      </trkpt>
      <trkpt lat="45.74895" lon="2.86835">
        <ele>749.767202</ele>
        <time>2021-07-06T14:22:01+0200</time>
      </trkpt>
      <trkpt lat="45.74901" lon="2.86837">
        <ele>749.616797</ele>
        <time>2021-07-06T14:22:02+0200</time>
      </trkpt>
      <trkpt lat="45.74906" lon="2.86839">
        <ele>749.190173</ele>
        <time>2021-07-06T14:22:03+0200</time>
      </trkpt>
      <trkpt lat="45.74911" lon="2.86841">
        <ele>748.970311</ele>
        <time>2021-07-06T14:22:04+0200</time>
      </trkpt>
      <trkpt lat="45.74917" lon="2.86844">
        <ele>748.627926</ele>
        <time>2021-07-06T14:22:05+0200</time>
      </trkpt>
      <trkpt lat="45.74922" lon="2.86846">
        <ele>748.474562</ele>
        <time>2021-07-06T14:22:06+0200</time>
      </trkpt>
      <trkpt lat="45.74928" lon="2.86848">
        <ele>748.314116</ele>
        <time>2021-07-06T14:22:07+0200</time>
      </trkpt>
      <trkpt lat="45.74934" lon="2.86851">
        <ele>748.141505</ele>
        <time>2021-07-06T14:22:08+0200</time>
      </trkpt>
      <trkpt lat="45.74939" lon="2.86854">
        <ele>747.990864</ele>
        <time>2021-07-06T14:22:09+0200</time>
      </trkpt>
      <trkpt lat="45.74945" lon="2.86856">
        <ele>748.062021</ele>
        <time>2021-07-06T14:22:10+0200</time>
      </trkpt>
      <trkpt lat="45.74951" lon="2.86858">
        <ele>747.810697</ele>
        <time>2021-07-06T14:22:11+0200</time>
      </trkpt>
      <trkpt lat="45.74956" lon="2.86861">
        <ele>747.629694</ele>
        <time>2021-07-06T14:22:12+0200</time>
      </trkpt>
      <trkpt lat="45.74962" lon="2.86863">
        <ele>747.704749</ele>
        <time>2021-07-06T14:22:13+0200</time>
      </trkpt>
      <trkpt lat="45.74967" lon="2.86865">
        <ele>747.648883</ele>
        <time>2021-07-06T14:22:14+0200</time>
      </trkpt>
      <trkpt lat="45.74972" lon="2.86867">
        <ele>747.437678</ele>
        <time>2021-07-06T14:22:15+0200</time>
      </trkpt>
      <trkpt lat="45.74977" lon="2.8687">
        <ele>747.282988</ele>
        <time>2021-07-06T14:22:16+0200</time>
      </trkpt>
      <trkpt lat="45.74983" lon="2.86872">
        <ele>747.334513</ele>
        <time>2021-07-06T14:22:17+0200</time>
      </trkpt>
      <trkpt lat="45.74988" lon="2.86873">
        <ele>747.11667</ele>
        <time>2021-07-06T14:22:18+0200</time>
      </trkpt>
      <trkpt lat="45.74994" lon="2.86875">
        <ele>747.075553</ele>
        <time>2021-07-06T14:22:19+0200</time>
      </trkpt>
      <trkpt lat="45.75" lon="2.86877">
        <ele>746.744534</ele>
        <time>2021-07-06T14:22:20+0200</time>
      </trkpt>
      <trkpt lat="45.75006" lon="2.8688">
        <ele>746.539822</ele>
        <time>2021-07-06T14:22:21+0200</time>
      </trkpt>
      <trkpt lat="45.75012" lon="2.86883">
        <ele>746.213589</ele>
        <time>2021-07-06T14:22:22+0200</time>
      </trkpt>
      <trkpt lat="45.75019" lon="2.86884">
        <ele>746.083998</ele>
        <time>2021-07-06T14:22:23+0200</time>
      </trkpt>
      <trkpt lat="45.75025" lon="2.86884">
        <ele>745.609129</ele>
        <time>2021-07-06T14:22:24+0200</time>
      </trkpt>
      <trkpt lat="45.75032" lon="2.86885">
        <ele>745.491277</ele>
        <time>2021-07-06T14:22:25+0200</time>
      </trkpt>
      <trkpt lat="45.75039" lon="2.86886">
        <ele>745.19694</ele>
        <time>2021-07-06T14:22:26+0200</time>
      </trkpt>
      <trkpt lat="45.75047" lon="2.86887">
        <ele>745.063428</ele>
        <time>2021-07-06T14:22:27+0200</time>
      </trkpt>
      <trkpt lat="45.75054" lon="2.86888">
        <ele>744.657529</ele>
        <time>2021-07-06T14:22:28+0200</time>
      </trkpt>
      <trkpt lat="45.75062" lon="2.8689">
        <ele>744.518974</ele>
        <time>2021-07-06T14:22:29+0200</time>
      </trkpt>
      <trkpt lat="45.75069" lon="2.86892">
        <ele>744.184057</ele>
        <time>2021-07-06T14:22:30+0200</time>
      </trkpt>
      <trkpt lat="45.75077" lon="2.86894">
        <ele>743.574015</ele>
        <time>2021-07-06T14:22:31+0200</time>
      </trkpt>
      <trkpt lat="45.75085" lon="2.86895">
        <ele>743.199354</ele>
        <time>2021-07-06T14:22:32+0200</time>
      </trkpt>
      <trkpt lat="45.75093" lon="2.86896">
        <ele>742.7697</ele>
        <time>2021-07-06T14:22:33+0200</time>
      </trkpt>
      <trkpt lat="45.75102" lon="2.86898">
        <ele>742.14772</ele>
        <time>2021-07-06T14:22:34+0200</time>
      </trkpt>
      <trkpt lat="45.75111" lon="2.86899">
        <ele>741.739989</ele>
        <time>2021-07-06T14:22:35+0200</time>
      </trkpt>
      <trkpt lat="45.7512" lon="2.869">
        <ele>741.089706</ele>
        <time>2021-07-06T14:22:36+0200</time>
      </trkpt>
      <trkpt lat="45.7513" lon="2.86902">
        <ele>740.503503</ele>
        <time>2021-07-06T14:22:37+0200</time>
      </trkpt>
      <trkpt lat="45.7514" lon="2.86904">
        <ele>739.751811</ele>
        <time>2021-07-06T14:22:38+0200</time>
      </trkpt>
      <trkpt lat="45.7515" lon="2.86907">
        <ele>739.089155</ele>
        <time>2021-07-06T14:22:39+0200</time>
      </trkpt>
      <trkpt lat="45.7516" lon="2.86911">
        <ele>738.617842</ele>
        <time>2021-07-06T14:22:40+0200</time>
      </trkpt>
      <trkpt lat="45.75169" lon="2.86916">
        <ele>738.083788</ele>
        <time>2021-07-06T14:22:41+0200</time>
      </trkpt>
      <trkpt lat="45.75178" lon="2.8692">
        <ele>737.393442</ele>
        <time>2021-07-06T14:22:42+0200</time>
      </trkpt>
      <trkpt lat="45.75187" lon="2.86924">
        <ele>737.336449</ele>
        <time>2021-07-06T14:22:43+0200</time>
      </trkpt>
      <trkpt lat="45.75196" lon="2.86929">
        <ele>736.596269</ele>
        <time>2021-07-06T14:22:44+0200</time>
      </trkpt>
      <trkpt lat="45.75205" lon="2.86932">
        <ele>736.549402</ele>
        <time>2021-07-06T14:22:45+0200</time>
      </trkpt>
      <trkpt lat="45.75215" lon="2.86934">
        <ele>736.538956</ele>
        <time>2021-07-06T14:22:46+0200</time>
      </trkpt>
      <trkpt lat="45.75224" lon="2.86936">
        <ele>736.725421</ele>
        <time>2021-07-06T14:22:47+0200</time>
      </trkpt>
      <trkpt lat="45.75232" lon="2.86938">
        <ele>736.967801</ele>
        <time>2021-07-06T14:22:48+0200</time>
      </trkpt>
      <trkpt lat="45.75241" lon="2.8694">
        <ele>737.053843</ele>
        <time>2021-07-06T14:22:49+0200</time>
      </trkpt>
      <trkpt lat="45.75248" lon="2.86942">
        <ele>737.450358</ele>
        <time>2021-07-06T14:22:50+0200</time>
      </trkpt>
      <trkpt lat="45.75256" lon="2.86943">
        <ele>737.351644</ele>
        <time>2021-07-06T14:22:51+0200</time>
      </trkpt>
      <trkpt lat="45.75263" lon="2.86944">
        <ele>737.559482</ele>
        <time>2021-07-06T14:22:52+0200</time>
      </trkpt>
      <trkpt lat="45.75269" lon="2.86945">
        <ele>737.857857</ele>
        <time>2021-07-06T14:22:53+0200</time>
      </trkpt>
      <trkpt lat="45.75276" lon="2.86947">
        <ele>738.077492</ele>
        <time>2021-07-06T14:22:54+0200</time>
      </trkpt>
      <trkpt lat="45.75282" lon="2.8695">
        <ele>738.425896</ele>
        <time>2021-07-06T14:22:55+0200</time>
      </trkpt>
      <trkpt lat="45.75288" lon="2.86952">
        <ele>738.566731</ele>
        <time>2021-07-06T14:22:56+0200</time>
      </trkpt>
      <trkpt lat="45.75294" lon="2.86955">
        <ele>738.722629</ele>
        <time>2021-07-06T14:22:57+0200</time>
      </trkpt>
      <trkpt lat="45.753" lon="2.86958">
        <ele>738.713588</ele>
        <time>2021-07-06T14:22:58+0200</time>
      </trkpt>
      <trkpt lat="45.75306" lon="2.8696">
        <ele>738.735568</ele>
        <time>2021-07-06T14:22:59+0200</time>
      </trkpt>
      <trkpt lat="45.75311" lon="2.86963">
        <ele>738.356414</ele>
        <time>2021-07-06T14:23:00+0200</time>
      </trkpt>
      <trkpt lat="45.75316" lon="2.86965">
        <ele>737.743486</ele>
        <time>2021-07-06T14:23:01+0200</time>
      </trkpt>
      <trkpt lat="45.75321" lon="2.86967">
        <ele>737.989437</ele>
        <time>2021-07-06T14:23:02+0200</time>
      </trkpt>
      <trkpt lat="45.75327" lon="2.86971">
        <ele>738.326881</ele>
        <time>2021-07-06T14:23:03+0200</time>
      </trkpt>
      <trkpt lat="45.75332" lon="2.86973">
        <ele>738.423999</ele>
        <time>2021-07-06T14:23:04+0200</time>
      </trkpt>
      <trkpt lat="45.75337" lon="2.86975">
        <ele>738.562158</ele>
        <time>2021-07-06T14:23:05+0200</time>
      </trkpt>
      <trkpt lat="45.75343" lon="2.86977">
        <ele>738.753543</ele>
        <time>2021-07-06T14:23:06+0200</time>
      </trkpt>
      <trkpt lat="45.75348" lon="2.86979">
        <ele>738.915544</ele>
        <time>2021-07-06T14:23:07+0200</time>
      </trkpt>
      <trkpt lat="45.75353" lon="2.86982">
        <ele>739.488927</ele>
        <time>2021-07-06T14:23:08+0200</time>
      </trkpt>
      <trkpt lat="45.75358" lon="2.86984">
        <ele>739.559445</ele>
        <time>2021-07-06T14:23:09+0200</time>
      </trkpt>
      <trkpt lat="45.75363" lon="2.86986">
        <ele>739.633288</ele>
        <time>2021-07-06T14:23:10+0200</time>
      </trkpt>
      <trkpt lat="45.75371" lon="2.8699">
        <ele>740.145092</ele>
        <time>2021-07-06T14:23:12+0200</time>
      </trkpt>
      <trkpt lat="45.75376" lon="2.86992">
        <ele>740.556263</ele>
        <time>2021-07-06T14:23:13+0200</time>
      </trkpt>
      <trkpt lat="45.75381" lon="2.86995">
        <ele>740.789602</ele>
        <time>2021-07-06T14:23:14+0200</time>
      </trkpt>
      <trkpt lat="45.7539" lon="2.86997">
        <ele>740.239999</ele>
        <time>2021-07-06T14:23:16+0200</time>
      </trkpt>
      <trkpt lat="45.75396" lon="2.87001">
        <ele>740.297151</ele>
        <time>2021-07-06T14:23:18+0200</time>
      </trkpt>
      <trkpt lat="45.754" lon="2.87005">
        <ele>740.491754</ele>
        <time>2021-07-06T14:23:19+0200</time>
      </trkpt>
      <trkpt lat="45.75405" lon="2.87009">
        <ele>740.961982</ele>
        <time>2021-07-06T14:23:20+0200</time>
      </trkpt>
      <trkpt lat="45.7541" lon="2.87013">
        <ele>741.645682</ele>
        <time>2021-07-06T14:23:21+0200</time>
      </trkpt>
      <trkpt lat="45.75414" lon="2.87017">
        <ele>741.545683</ele>
        <time>2021-07-06T14:23:22+0200</time>
      </trkpt>
      <trkpt lat="45.75418" lon="2.87022">
        <ele>741.274235</ele>
        <time>2021-07-06T14:23:23+0200</time>
      </trkpt>
      <trkpt lat="45.75422" lon="2.87026">
        <ele>741.384054</ele>
        <time>2021-07-06T14:23:24+0200</time>
      </trkpt>
      <trkpt lat="45.75426" lon="2.87029">
        <ele>741.52806</ele>
        <time>2021-07-06T14:23:25+0200</time>
      </trkpt>
      <trkpt lat="45.75431" lon="2.87033">
        <ele>741.603277</ele>
        <time>2021-07-06T14:23:25+0200</time>
      </trkpt>
      <trkpt lat="45.75435" lon="2.87035">
        <ele>741.37759</ele>
        <time>2021-07-06T14:23:26+0200</time>
      </trkpt>
      <trkpt lat="45.7544" lon="2.87038">
        <ele>741.094517</ele>
        <time>2021-07-06T14:23:27+0200</time>
      </trkpt>
      <trkpt lat="45.75445" lon="2.87041">
        <ele>741.148547</ele>
        <time>2021-07-06T14:23:28+0200</time>
      </trkpt>
      <trkpt lat="45.75449" lon="2.87042">
        <ele>740.888198</ele>
        <time>2021-07-06T14:23:29+0200</time>
      </trkpt>
      <trkpt lat="45.75454" lon="2.87044">
        <ele>740.773895</ele>
        <time>2021-07-06T14:23:30+0200</time>
      </trkpt>
      <trkpt lat="45.75459" lon="2.87046">
        <ele>740.937442</ele>
        <time>2021-07-06T14:23:31+0200</time>
      </trkpt>
      <trkpt lat="45.75463" lon="2.87047">
        <ele>741.256277</ele>
        <time>2021-07-06T14:23:32+0200</time>
      </trkpt>
      <trkpt lat="45.75471" lon="2.87051">
        <ele>741.819504</ele>
        <time>2021-07-06T14:23:34+0200</time>
      </trkpt>
      <trkpt lat="45.75479" lon="2.87055">
        <ele>742.824347</ele>
        <time>2021-07-06T14:23:36+0200</time>
      </trkpt>
      <trkpt lat="45.75487" lon="2.87059">
        <ele>743.9438</ele>
        <time>2021-07-06T14:23:38+0200</time>
      </trkpt>
      <trkpt lat="45.75494" lon="2.87064">
        <ele>744.592975</ele>
        <time>2021-07-06T14:23:40+0200</time>
      </trkpt>
      <trkpt lat="45.75503" lon="2.8707">
        <ele>743.764791</ele>
        <time>2021-07-06T14:23:42+0200</time>
      </trkpt>
      <trkpt lat="45.75507" lon="2.87074">
        <ele>743.758645</ele>
        <time>2021-07-06T14:23:43+0200</time>
      </trkpt>
      <trkpt lat="45.75512" lon="2.87078">
        <ele>743.775644</ele>
        <time>2021-07-06T14:23:44+0200</time>
      </trkpt>
      <trkpt lat="45.75517" lon="2.87081">
        <ele>742.714401</ele>
        <time>2021-07-06T14:23:45+0200</time>
      </trkpt>
      <trkpt lat="45.75522" lon="2.87083">
        <ele>742.348843</ele>
        <time>2021-07-06T14:23:46+0200</time>
      </trkpt>
      <trkpt lat="45.75529" lon="2.87088">
        <ele>743.023593</ele>
        <time>2021-07-06T14:23:49+0200</time>
      </trkpt>
      <trkpt lat="45.75536" lon="2.87091">
        <ele>744.621128</ele>
        <time>2021-07-06T14:23:51+0200</time>
      </trkpt>
      <trkpt lat="45.75541" lon="2.87095">
        <ele>744.461732</ele>
        <time>2021-07-06T14:23:52+0200</time>
      </trkpt>
      <trkpt lat="45.75546" lon="2.87098">
        <ele>743.421902</ele>
        <time>2021-07-06T14:23:53+0200</time>
      </trkpt>
      <trkpt lat="45.75553" lon="2.87103">
        <ele>743.263192</ele>
        <time>2021-07-06T14:23:55+0200</time>
      </trkpt>
      <trkpt lat="45.75559" lon="2.87107">
        <ele>743.977743</ele>
        <time>2021-07-06T14:23:57+0200</time>
      </trkpt>
      <trkpt lat="45.75565" lon="2.87111">
        <ele>744.55485</ele>
        <time>2021-07-06T14:23:59+0200</time>
      </trkpt>
      <trkpt lat="45.75571" lon="2.87111">
        <ele>745.448968</ele>
        <time>2021-07-06T14:24:01+0200</time>
      </trkpt>
      <trkpt lat="45.75576" lon="2.87111">
        <ele>746.425909</ele>
        <time>2021-07-06T14:24:03+0200</time>
      </trkpt>
      <trkpt lat="45.75582" lon="2.87112">
        <ele>746.807427</ele>
        <time>2021-07-06T14:24:05+0200</time>
      </trkpt>
      <trkpt lat="45.75588" lon="2.87112">
        <ele>747.207515</ele>
        <time>2021-07-06T14:24:07+0200</time>
      </trkpt>
      <trkpt lat="45.75594" lon="2.87113">
        <ele>748.234853</ele>
        <time>2021-07-06T14:24:09+0200</time>
      </trkpt>
      <trkpt lat="45.75599" lon="2.87113">
        <ele>748.973828</ele>
        <time>2021-07-06T14:24:11+0200</time>
      </trkpt>
      <trkpt lat="45.75605" lon="2.87112">
        <ele>749.529673</ele>
        <time>2021-07-06T14:24:13+0200</time>
      </trkpt>
      <trkpt lat="45.75611" lon="2.87112">
        <ele>750.094978</ele>
        <time>2021-07-06T14:24:15+0200</time>
      </trkpt>
      <trkpt lat="45.75616" lon="2.87111">
        <ele>751.331691</ele>
        <time>2021-07-06T14:24:17+0200</time>
      </trkpt>
      <trkpt lat="45.75622" lon="2.87111">
        <ele>753.263943</ele>
        <time>2021-07-06T14:24:20+0200</time>
      </trkpt>
      <trkpt lat="45.75627" lon="2.87112">
        <ele>753.699302</ele>
        <time>2021-07-06T14:24:22+0200</time>
      </trkpt>
      <trkpt lat="45.75633" lon="2.87113">
        <ele>753.968191</ele>
        <time>2021-07-06T14:24:24+0200</time>
      </trkpt>
      <trkpt lat="45.75638" lon="2.87115">
        <ele>753.928374</ele>
        <time>2021-07-06T14:24:26+0200</time>
      </trkpt>
      <trkpt lat="45.75644" lon="2.87116">
        <ele>754.751717</ele>
        <time>2021-07-06T14:24:28+0200</time>
      </trkpt>
      <trkpt lat="45.75648" lon="2.87118">
        <ele>755.128759</ele>
        <time>2021-07-06T14:24:30+0200</time>
      </trkpt>
      <trkpt lat="45.75654" lon="2.87117">
        <ele>755.547537</ele>
        <time>2021-07-06T14:24:32+0200</time>
      </trkpt>
      <trkpt lat="45.75659" lon="2.87117">
        <ele>755.329211</ele>
        <time>2021-07-06T14:24:34+0200</time>
      </trkpt>
      <trkpt lat="45.75664" lon="2.8712">
        <ele>754.123225</ele>
        <time>2021-07-06T14:24:36+0200</time>
      </trkpt>
      <trkpt lat="45.75668" lon="2.87125">
        <ele>754.041343</ele>
        <time>2021-07-06T14:24:39+0200</time>
      </trkpt>
      <trkpt lat="45.75672" lon="2.8713">
        <ele>755.770985</ele>
        <time>2021-07-06T14:24:43+0200</time>
      </trkpt>
      <trkpt lat="45.75675" lon="2.87135">
        <ele>756.855006</ele>
        <time>2021-07-06T14:24:46+0200</time>
      </trkpt>
      <trkpt lat="45.7568" lon="2.87141">
        <ele>758.381254</ele>
        <time>2021-07-06T14:24:50+0200</time>
      </trkpt>
      <trkpt lat="45.75684" lon="2.87145">
        <ele>758.975319</ele>
        <time>2021-07-06T14:24:53+0200</time>
      </trkpt>
      <trkpt lat="45.75688" lon="2.87149">
        <ele>759.219879</ele>
        <time>2021-07-06T14:24:56+0200</time>
      </trkpt>
      <trkpt lat="45.75692" lon="2.87154">
        <ele>761.226788</ele>
        <time>2021-07-06T14:24:59+0200</time>
      </trkpt>
      <trkpt lat="45.75696" lon="2.87158">
        <ele>762.834298</ele>
        <time>2021-07-06T14:25:02+0200</time>
      </trkpt>
      <trkpt lat="45.757" lon="2.87162">
        <ele>763.831179</ele>
        <time>2021-07-06T14:25:05+0200</time>
      </trkpt>
      <trkpt lat="45.75706" lon="2.87165">
        <ele>765.742272</ele>
        <time>2021-07-06T14:25:09+0200</time>
      </trkpt>
      <trkpt lat="45.75711" lon="2.87165">
        <ele>766.555085</ele>
        <time>2021-07-06T14:25:12+0200</time>
      </trkpt>
      <trkpt lat="45.75716" lon="2.87165">
        <ele>764.558816</ele>
        <time>2021-07-06T14:25:16+0200</time>
      </trkpt>
      <trkpt lat="45.75721" lon="2.87161">
        <ele>764.284945</ele>
        <time>2021-07-06T14:25:19+0200</time>
      </trkpt>
      <trkpt lat="45.75726" lon="2.87157">
        <ele>763.692337</ele>
        <time>2021-07-06T14:25:22+0200</time>
      </trkpt>
      <trkpt lat="45.75731" lon="2.87154">
        <ele>763.564758</ele>
        <time>2021-07-06T14:25:25+0200</time>
      </trkpt>
      <trkpt lat="45.75736" lon="2.87153">
        <ele>764.366009</ele>
        <time>2021-07-06T14:25:28+0200</time>
      </trkpt>
      <trkpt lat="45.75741" lon="2.87153">
        <ele>765.847932</ele>
        <time>2021-07-06T14:25:32+0200</time>
      </trkpt>
      <trkpt lat="45.75747" lon="2.87153">
        <ele>768.257784</ele>
        <time>2021-07-06T14:25:36+0200</time>
      </trkpt>
      <trkpt lat="45.75752" lon="2.87154">
        <ele>768.660262</ele>
        <time>2021-07-06T14:25:40+0200</time>
      </trkpt>
      <trkpt lat="45.75757" lon="2.87156">
        <ele>769.45619</ele>
        <time>2021-07-06T14:25:44+0200</time>
      </trkpt>
      <trkpt lat="45.75761" lon="2.87158">
        <ele>768.870961</ele>
        <time>2021-07-06T14:25:47+0200</time>
      </trkpt>
      <trkpt lat="45.75766" lon="2.8716">
        <ele>768.339246</ele>
        <time>2021-07-06T14:25:50+0200</time>
      </trkpt>
      <trkpt lat="45.7577" lon="2.87165">
        <ele>769.444324</ele>
        <time>2021-07-06T14:25:53+0200</time>
      </trkpt>
      <trkpt lat="45.75775" lon="2.87167">
        <ele>770.769572</ele>
        <time>2021-07-06T14:25:56+0200</time>
      </trkpt>
      <trkpt lat="45.75779" lon="2.8717">
        <ele>771.631625</ele>
        <time>2021-07-06T14:25:59+0200</time>
      </trkpt>
      <trkpt lat="45.75785" lon="2.87173">
        <ele>772.42271</ele>
        <time>2021-07-06T14:26:03+0200</time>
      </trkpt>
      <trkpt lat="45.7579" lon="2.87176">
        <ele>772.989893</ele>
        <time>2021-07-06T14:26:06+0200</time>
      </trkpt>
      <trkpt lat="45.75794" lon="2.87179">
        <ele>774.802687</ele>
        <time>2021-07-06T14:26:10+0200</time>
      </trkpt>
      <trkpt lat="45.75798" lon="2.87183">
        <ele>774.52029</ele>
        <time>2021-07-06T14:26:13+0200</time>
      </trkpt>
      <trkpt lat="45.75803" lon="2.87188">
        <ele>773.641739</ele>
        <time>2021-07-06T14:26:16+0200</time>
      </trkpt>
      <trkpt lat="45.75807" lon="2.87192">
        <ele>774.380324</ele>
        <time>2021-07-06T14:26:20+0200</time>
      </trkpt>
      <trkpt lat="45.7581" lon="2.87196">
        <ele>775.18744</ele>
        <time>2021-07-06T14:26:24+0200</time>
      </trkpt>
      <trkpt lat="45.75814" lon="2.872">
        <ele>776.762386</ele>
        <time>2021-07-06T14:26:28+0200</time>
      </trkpt>
      <trkpt lat="45.75818" lon="2.87204">
        <ele>779.746226</ele>
        <time>2021-07-06T14:26:33+0200</time>
      </trkpt>
      <trkpt lat="45.75823" lon="2.87207">
        <ele>782.076167</ele>
        <time>2021-07-06T14:26:38+0200</time>
      </trkpt>
      <trkpt lat="45.75826" lon="2.87212">
        <ele>782.333065</ele>
        <time>2021-07-06T14:26:41+0200</time>
      </trkpt>
      <trkpt lat="45.75828" lon="2.8722">
        <ele>784.128946</ele>
        <time>2021-07-06T14:26:46+0200</time>
      </trkpt>
      <trkpt lat="45.75829" lon="2.87227">
        <ele>785.70359</ele>
        <time>2021-07-06T14:26:51+0200</time>
      </trkpt>
      <trkpt lat="45.75827" lon="2.87233">
        <ele>788.60396</ele>
        <time>2021-07-06T14:26:56+0200</time>
      </trkpt>
      <trkpt lat="45.75828" lon="2.87241">
        <ele>787.347588</ele>
        <time>2021-07-06T14:27:00+0200</time>
      </trkpt>
      <trkpt lat="45.75829" lon="2.87248">
        <ele>788.438891</ele>
        <time>2021-07-06T14:27:04+0200</time>
      </trkpt>
      <trkpt lat="45.75831" lon="2.87255">
        <ele>788.478662</ele>
        <time>2021-07-06T14:27:07+0200</time>
      </trkpt>
      <trkpt lat="45.75832" lon="2.87263">
        <ele>788.579434</ele>
        <time>2021-07-06T14:27:10+0200</time>
      </trkpt>
      <trkpt lat="45.75833" lon="2.87269">
        <ele>789.513221</ele>
        <time>2021-07-06T14:27:14+0200</time>
      </trkpt>
      <trkpt lat="45.75836" lon="2.87274">
        <ele>788.264582</ele>
        <time>2021-07-06T14:27:18+0200</time>
      </trkpt>
      <trkpt lat="45.75839" lon="2.8728">
        <ele>789.895217</ele>
        <time>2021-07-06T14:27:22+0200</time>
      </trkpt>
      <trkpt lat="45.75843" lon="2.87284">
        <ele>790.428789</ele>
        <time>2021-07-06T14:27:27+0200</time>
      </trkpt>
      <trkpt lat="45.75847" lon="2.87288">
        <ele>791.977472</ele>
        <time>2021-07-06T14:27:32+0200</time>
      </trkpt>
      <trkpt lat="45.75852" lon="2.87291">
        <ele>794.256717</ele>
        <time>2021-07-06T14:27:36+0200</time>
      </trkpt>
      <trkpt lat="45.75857" lon="2.87293">
        <ele>794.835081</ele>
        <time>2021-07-06T14:27:40+0200</time>
      </trkpt>
      <trkpt lat="45.75862" lon="2.87297">
        <ele>795.473057</ele>
        <time>2021-07-06T14:27:44+0200</time>
      </trkpt>
      <trkpt lat="45.75865" lon="2.87303">
        <ele>797.440218</ele>
        <time>2021-07-06T14:27:50+0200</time>
      </trkpt>
      <trkpt lat="45.75868" lon="2.87308">
        <ele>797.758377</ele>
        <time>2021-07-06T14:27:58+0200</time>
      </trkpt>
      <trkpt lat="45.75872" lon="2.87313">
        <ele>798.917866</ele>
        <time>2021-07-06T14:28:02+0200</time>
      </trkpt>
      <trkpt lat="45.75877" lon="2.87316">
        <ele>800.214285</ele>
        <time>2021-07-06T14:28:06+0200</time>
      </trkpt>
      <trkpt lat="45.75882" lon="2.87321">
        <ele>801.150921</ele>
        <time>2021-07-06T14:28:09+0200</time>
      </trkpt>
      <trkpt lat="45.75886" lon="2.87327">
        <ele>803.036443</ele>
        <time>2021-07-06T14:28:13+0200</time>
      </trkpt>
      <trkpt lat="45.75892" lon="2.87329">
        <ele>802.154938</ele>
        <time>2021-07-06T14:28:16+0200</time>
      </trkpt>
      <trkpt lat="45.75896" lon="2.87333">
        <ele>801.959997</ele>
        <time>2021-07-06T14:28:19+0200</time>
      </trkpt>
      <trkpt lat="45.75899" lon="2.8734">
        <ele>800.881375</ele>
        <time>2021-07-06T14:28:23+0200</time>
      </trkpt>
      <trkpt lat="45.75904" lon="2.87345">
        <ele>800.029022</ele>
        <time>2021-07-06T14:28:26+0200</time>
      </trkpt>
      <trkpt lat="45.75908" lon="2.8735">
        <ele>800.314768</ele>
        <time>2021-07-06T14:28:29+0200</time>
      </trkpt>
      <trkpt lat="45.75912" lon="2.87356">
        <ele>801.204278</ele>
        <time>2021-07-06T14:28:33+0200</time>
      </trkpt>
      <trkpt lat="45.75915" lon="2.87361">
        <ele>800.529147</ele>
        <time>2021-07-06T14:28:36+0200</time>
      </trkpt>
      <trkpt lat="45.75919" lon="2.87367">
        <ele>800.695671</ele>
        <time>2021-07-06T14:28:39+0200</time>
      </trkpt>
      <trkpt lat="45.75923" lon="2.87374">
        <ele>800.971814</ele>
        <time>2021-07-06T14:28:42+0200</time>
      </trkpt>
      <trkpt lat="45.75927" lon="2.8738">
        <ele>801.246077</ele>
        <time>2021-07-06T14:28:45+0200</time>
      </trkpt>
      <trkpt lat="45.75931" lon="2.87386">
        <ele>801.687425</ele>
        <time>2021-07-06T14:28:48+0200</time>
      </trkpt>
      <trkpt lat="45.75935" lon="2.87392">
        <ele>802.387666</ele>
        <time>2021-07-06T14:28:51+0200</time>
      </trkpt>
      <trkpt lat="45.75939" lon="2.87398">
        <ele>802.978558</ele>
        <time>2021-07-06T14:28:54+0200</time>
      </trkpt>
      <trkpt lat="45.75944" lon="2.87403">
        <ele>802.8546</ele>
        <time>2021-07-06T14:28:57+0200</time>
      </trkpt>
      <trkpt lat="45.75947" lon="2.87408">
        <ele>802.793181</ele>
        <time>2021-07-06T14:29:00+0200</time>
      </trkpt>
      <trkpt lat="45.75952" lon="2.87413">
        <ele>801.955143</ele>
        <time>2021-07-06T14:29:03+0200</time>
      </trkpt>
      <trkpt lat="45.75958" lon="2.87419">
        <ele>801.943151</ele>
        <time>2021-07-06T14:29:06+0200</time>
      </trkpt>
      <trkpt lat="45.75962" lon="2.87424">
        <ele>802.47031</ele>
        <time>2021-07-06T14:29:09+0200</time>
      </trkpt>
      <trkpt lat="45.75967" lon="2.87432">
        <ele>802.780549</ele>
        <time>2021-07-06T14:29:12+0200</time>
      </trkpt>
      <trkpt lat="45.75971" lon="2.87435">
        <ele>802.535173</ele>
        <time>2021-07-06T14:29:14+0200</time>
      </trkpt>
      <trkpt lat="45.75975" lon="2.87442">
        <ele>802.941656</ele>
        <time>2021-07-06T14:29:17+0200</time>
      </trkpt>
      <trkpt lat="45.75979" lon="2.87449">
        <ele>802.415929</ele>
        <time>2021-07-06T14:29:20+0200</time>
      </trkpt>
      <trkpt lat="45.75982" lon="2.87454">
        <ele>801.326384</ele>
        <time>2021-07-06T14:29:33+0200</time>
      </trkpt>
      <trkpt lat="45.75986" lon="2.87456">
        <ele>801.029541</ele>
        <time>2021-07-06T14:30:49+0200</time>
      </trkpt>
      <trkpt lat="45.7599" lon="2.87461">
        <ele>801.131788</ele>
        <time>2021-07-06T14:30:51+0200</time>
      </trkpt>
      <trkpt lat="45.75993" lon="2.87468">
        <ele>801.16686</ele>
        <time>2021-07-06T14:30:53+0200</time>
      </trkpt>
      <trkpt lat="45.75996" lon="2.87475">
        <ele>801.781096</ele>
        <time>2021-07-06T14:30:55+0200</time>
      </trkpt>
      <trkpt lat="45.75999" lon="2.87481">
        <ele>801.436334</ele>
        <time>2021-07-06T14:30:57+0200</time>
      </trkpt>
      <trkpt lat="45.76003" lon="2.87487">
        <ele>801.54238</ele>
        <time>2021-07-06T14:30:59+0200</time>
      </trkpt>
      <trkpt lat="45.76008" lon="2.87494">
        <ele>801.643516</ele>
        <time>2021-07-06T14:31:01+0200</time>
      </trkpt>
      <trkpt lat="45.76011" lon="2.875">
        <ele>801.391987</ele>
        <time>2021-07-06T14:31:03+0200</time>
      </trkpt>
      <trkpt lat="45.76015" lon="2.87506">
        <ele>801.191768</ele>
        <time>2021-07-06T14:31:05+0200</time>
      </trkpt>
      <trkpt lat="45.76019" lon="2.87512">
        <ele>802.086582</ele>
        <time>2021-07-06T14:31:07+0200</time>
      </trkpt>
      <trkpt lat="45.76023" lon="2.87519">
        <ele>802.34311</ele>
        <time>2021-07-06T14:31:09+0200</time>
      </trkpt>
      <trkpt lat="45.76027" lon="2.87526">
        <ele>804.358248</ele>
        <time>2021-07-06T14:31:11+0200</time>
      </trkpt>
      <trkpt lat="45.76031" lon="2.87533">
        <ele>806.148632</ele>
        <time>2021-07-06T14:31:13+0200</time>
      </trkpt>
      <trkpt lat="45.76037" lon="2.8754">
        <ele>806.746021</ele>
        <time>2021-07-06T14:31:15+0200</time>
      </trkpt>
      <trkpt lat="45.7604" lon="2.87545">
        <ele>806.386604</ele>
        <time>2021-07-06T14:31:16+0200</time>
      </trkpt>
      <trkpt lat="45.76045" lon="2.87553">
        <ele>806.559956</ele>
        <time>2021-07-06T14:31:18+0200</time>
      </trkpt>
      <trkpt lat="45.76051" lon="2.8756">
        <ele>805.798038</ele>
        <time>2021-07-06T14:31:20+0200</time>
      </trkpt>
      <trkpt lat="45.76055" lon="2.87565">
        <ele>805.257798</ele>
        <time>2021-07-06T14:31:21+0200</time>
      </trkpt>
      <trkpt lat="45.76058" lon="2.87569">
        <ele>804.035432</ele>
        <time>2021-07-06T14:31:22+0200</time>
      </trkpt>
      <trkpt lat="45.76062" lon="2.87576">
        <ele>804.261824</ele>
        <time>2021-07-06T14:31:24+0200</time>
      </trkpt>
      <trkpt lat="45.76067" lon="2.87582">
        <ele>804.392904</ele>
        <time>2021-07-06T14:31:26+0200</time>
      </trkpt>
      <trkpt lat="45.76071" lon="2.87589">
        <ele>804.146258</ele>
        <time>2021-07-06T14:31:28+0200</time>
      </trkpt>
      <trkpt lat="45.76075" lon="2.87596">
        <ele>804.687555</ele>
        <time>2021-07-06T14:31:30+0200</time>
      </trkpt>
      <trkpt lat="45.76079" lon="2.87603">
        <ele>804.730262</ele>
        <time>2021-07-06T14:31:32+0200</time>
      </trkpt>
      <trkpt lat="45.76084" lon="2.87608">
        <ele>803.668119</ele>
        <time>2021-07-06T14:31:34+0200</time>
      </trkpt>
      <trkpt lat="45.76088" lon="2.87614">
        <ele>804.104476</ele>
        <time>2021-07-06T14:31:36+0200</time>
      </trkpt>
      <trkpt lat="45.76093" lon="2.87622">
        <ele>805.016194</ele>
        <time>2021-07-06T14:31:38+0200</time>
      </trkpt>
      <trkpt lat="45.76098" lon="2.8763">
        <ele>804.907913</ele>
        <time>2021-07-06T14:31:40+0200</time>
      </trkpt>
      <trkpt lat="45.76103" lon="2.87638">
        <ele>805.031286</ele>
        <time>2021-07-06T14:31:42+0200</time>
      </trkpt>
      <trkpt lat="45.76106" lon="2.87648">
        <ele>804.543337</ele>
        <time>2021-07-06T14:31:44+0200</time>
      </trkpt>
      <trkpt lat="45.76109" lon="2.87657">
        <ele>804.357069</ele>
        <time>2021-07-06T14:31:46+0200</time>
      </trkpt>
      <trkpt lat="45.76113" lon="2.87663">
        <ele>803.424194</ele>
        <time>2021-07-06T14:31:48+0200</time>
      </trkpt>
      <trkpt lat="45.76117" lon="2.87672">
        <ele>803.83023</ele>
        <time>2021-07-06T14:31:50+0200</time>
      </trkpt>
      <trkpt lat="45.7612" lon="2.87679">
        <ele>804.040996</ele>
        <time>2021-07-06T14:31:52+0200</time>
      </trkpt>
      <trkpt lat="45.76123" lon="2.87688">
        <ele>804.261348</ele>
        <time>2021-07-06T14:31:54+0200</time>
      </trkpt>
      <trkpt lat="45.76126" lon="2.87697">
        <ele>804.093525</ele>
        <time>2021-07-06T14:31:56+0200</time>
      </trkpt>
      <trkpt lat="45.76129" lon="2.87706">
        <ele>803.904708</ele>
        <time>2021-07-06T14:31:58+0200</time>
      </trkpt>
      <trkpt lat="45.76132" lon="2.87714">
        <ele>803.070933</ele>
        <time>2021-07-06T14:32:00+0200</time>
      </trkpt>
      <trkpt lat="45.76135" lon="2.87724">
        <ele>803.520345</ele>
        <time>2021-07-06T14:32:02+0200</time>
      </trkpt>
      <trkpt lat="45.76139" lon="2.87732">
        <ele>803.289046</ele>
        <time>2021-07-06T14:32:04+0200</time>
      </trkpt>
      <trkpt lat="45.76145" lon="2.87742">
        <ele>803.152743</ele>
        <time>2021-07-06T14:32:06+0200</time>
      </trkpt>
      <trkpt lat="45.76151" lon="2.87751">
        <ele>803.383214</ele>
        <time>2021-07-06T14:32:08+0200</time>
      </trkpt>
      <trkpt lat="45.76155" lon="2.8776">
        <ele>803.686581</ele>
        <time>2021-07-06T14:32:10+0200</time>
      </trkpt>
      <trkpt lat="45.76158" lon="2.87766">
        <ele>803.68254</ele>
        <time>2021-07-06T14:32:12+0200</time>
      </trkpt>
      <trkpt lat="45.76162" lon="2.87772">
        <ele>803.81801</ele>
        <time>2021-07-06T14:32:15+0200</time>
      </trkpt>
      <trkpt lat="45.76165" lon="2.87778">
        <ele>803.3752</ele>
        <time>2021-07-06T14:32:18+0200</time>
      </trkpt>
      <trkpt lat="45.76168" lon="2.87783">
        <ele>802.647596</ele>
        <time>2021-07-06T14:32:20+0200</time>
      </trkpt>
      <trkpt lat="45.76172" lon="2.8779">
        <ele>802.733533</ele>
        <time>2021-07-06T14:32:23+0200</time>
      </trkpt>
      <trkpt lat="45.76177" lon="2.87797">
        <ele>803.024936</ele>
        <time>2021-07-06T14:32:26+0200</time>
      </trkpt>
      <trkpt lat="45.76181" lon="2.87803">
        <ele>802.98895</ele>
        <time>2021-07-06T14:32:28+0200</time>
      </trkpt>
      <trkpt lat="45.76185" lon="2.87811">
        <ele>803.421866</ele>
        <time>2021-07-06T14:32:30+0200</time>
      </trkpt>
      <trkpt lat="45.76189" lon="2.87819">
        <ele>803.478337</ele>
        <time>2021-07-06T14:32:32+0200</time>
      </trkpt>
      <trkpt lat="45.76193" lon="2.87826">
        <ele>803.785478</ele>
        <time>2021-07-06T14:32:34+0200</time>
      </trkpt>
      <trkpt lat="45.76196" lon="2.87831">
        <ele>803.547662</ele>
        <time>2021-07-06T14:32:35+0200</time>
      </trkpt>
      <trkpt lat="45.76201" lon="2.87839">
        <ele>803.778768</ele>
        <time>2021-07-06T14:32:37+0200</time>
      </trkpt>
      <trkpt lat="45.76208" lon="2.87846">
        <ele>803.939027</ele>
        <time>2021-07-06T14:32:39+0200</time>
      </trkpt>
      <trkpt lat="45.76215" lon="2.87852">
        <ele>804.524556</ele>
        <time>2021-07-06T14:32:41+0200</time>
      </trkpt>
      <trkpt lat="45.7622" lon="2.87856">
        <ele>804.742457</ele>
        <time>2021-07-06T14:32:43+0200</time>
      </trkpt>
      <trkpt lat="45.76227" lon="2.8786">
        <ele>804.138478</ele>
        <time>2021-07-06T14:32:45+0200</time>
      </trkpt>
      <trkpt lat="45.76234" lon="2.87865">
        <ele>804.293823</ele>
        <time>2021-07-06T14:32:47+0200</time>
      </trkpt>
      <trkpt lat="45.7624" lon="2.87869">
        <ele>804.733507</ele>
        <time>2021-07-06T14:32:49+0200</time>
      </trkpt>
      <trkpt lat="45.76245" lon="2.87872">
        <ele>805.310763</ele>
        <time>2021-07-06T14:32:51+0200</time>
      </trkpt>
      <trkpt lat="45.76252" lon="2.87878">
        <ele>805.467313</ele>
        <time>2021-07-06T14:32:53+0200</time>
      </trkpt>
      <trkpt lat="45.7626" lon="2.87884">
        <ele>805.704641</ele>
        <time>2021-07-06T14:32:55+0200</time>
      </trkpt>
      <trkpt lat="45.76264" lon="2.87888">
        <ele>805.79028</ele>
        <time>2021-07-06T14:32:56+0200</time>
      </trkpt>
      <trkpt lat="45.76268" lon="2.87891">
        <ele>805.719991</ele>
        <time>2021-07-06T14:32:57+0200</time>
      </trkpt>
      <trkpt lat="45.76275" lon="2.87896">
        <ele>805.493687</ele>
        <time>2021-07-06T14:32:59+0200</time>
      </trkpt>
      <trkpt lat="45.7628" lon="2.87904">
        <ele>804.803053</ele>
        <time>2021-07-06T14:33:01+0200</time>
      </trkpt>
      <trkpt lat="45.76284" lon="2.87912">
        <ele>804.716216</ele>
        <time>2021-07-06T14:33:03+0200</time>
      </trkpt>
      <trkpt lat="45.76288" lon="2.87919">
        <ele>803.91321</ele>
        <time>2021-07-06T14:33:05+0200</time>
      </trkpt>
      <trkpt lat="45.76292" lon="2.87926">
        <ele>803.898899</ele>
        <time>2021-07-06T14:33:07+0200</time>
      </trkpt>
      <trkpt lat="45.76296" lon="2.87933">
        <ele>803.829608</ele>
        <time>2021-07-06T14:33:09+0200</time>
      </trkpt>
      <trkpt lat="45.76299" lon="2.8794">
        <ele>805.007742</ele>
        <time>2021-07-06T14:33:11+0200</time>
      </trkpt>
      <trkpt lat="45.76304" lon="2.87948">
        <ele>805.314621</ele>
        <time>2021-07-06T14:33:13+0200</time>
      </trkpt>
      <trkpt lat="45.76308" lon="2.87956">
        <ele>805.176738</ele>
        <time>2021-07-06T14:33:15+0200</time>
      </trkpt>
      <trkpt lat="45.76312" lon="2.87963">
        <ele>804.76076</ele>
        <time>2021-07-06T14:33:17+0200</time>
      </trkpt>
      <trkpt lat="45.76315" lon="2.87969">
        <ele>805.343805</ele>
        <time>2021-07-06T14:33:19+0200</time>
      </trkpt>
      <trkpt lat="45.76318" lon="2.87977">
        <ele>805.919007</ele>
        <time>2021-07-06T14:33:21+0200</time>
      </trkpt>
      <trkpt lat="45.76323" lon="2.87987">
        <ele>806.199016</ele>
        <time>2021-07-06T14:33:23+0200</time>
      </trkpt>
      <trkpt lat="45.76327" lon="2.87994">
        <ele>806.702076</ele>
        <time>2021-07-06T14:33:25+0200</time>
      </trkpt>
      <trkpt lat="45.76332" lon="2.88002">
        <ele>805.574829</ele>
        <time>2021-07-06T14:33:27+0200</time>
      </trkpt>
      <trkpt lat="45.76335" lon="2.88008">
        <ele>805.53393</ele>
        <time>2021-07-06T14:33:29+0200</time>
      </trkpt>
      <trkpt lat="45.76338" lon="2.88013">
        <ele>805.201806</ele>
        <time>2021-07-06T14:33:31+0200</time>
      </trkpt>
      <trkpt lat="45.76342" lon="2.88021">
        <ele>804.597838</ele>
        <time>2021-07-06T14:33:34+0200</time>
      </trkpt>
      <trkpt lat="45.76346" lon="2.88026">
        <ele>805.752141</ele>
        <time>2021-07-06T14:33:36+0200</time>
      </trkpt>
      <trkpt lat="45.76349" lon="2.88031">
        <ele>805.228137</ele>
        <time>2021-07-06T14:33:38+0200</time>
      </trkpt>
      <trkpt lat="45.76353" lon="2.88039">
        <ele>805.447983</ele>
        <time>2021-07-06T14:33:40+0200</time>
      </trkpt>
      <trkpt lat="45.76357" lon="2.88047">
        <ele>805.402731</ele>
        <time>2021-07-06T14:33:42+0200</time>
      </trkpt>
      <trkpt lat="45.76361" lon="2.88055">
        <ele>805.283863</ele>
        <time>2021-07-06T14:33:44+0200</time>
      </trkpt>
      <trkpt lat="45.76365" lon="2.88062">
        <ele>804.594521</ele>
        <time>2021-07-06T14:33:46+0200</time>
      </trkpt>
      <trkpt lat="45.76368" lon="2.88068">
        <ele>804.544968</ele>
        <time>2021-07-06T14:33:48+0200</time>
      </trkpt>
      <trkpt lat="45.76372" lon="2.88075">
        <ele>804.636658</ele>
        <time>2021-07-06T14:33:50+0200</time>
      </trkpt>
      <trkpt lat="45.76376" lon="2.88082">
        <ele>805.034646</ele>
        <time>2021-07-06T14:33:52+0200</time>
      </trkpt>
      <trkpt lat="45.7638" lon="2.8809">
        <ele>805.323594</ele>
        <time>2021-07-06T14:33:54+0200</time>
      </trkpt>
      <trkpt lat="45.76384" lon="2.88098">
        <ele>805.344111</ele>
        <time>2021-07-06T14:33:56+0200</time>
      </trkpt>
      <trkpt lat="45.76387" lon="2.88105">
        <ele>804.553172</ele>
        <time>2021-07-06T14:33:58+0200</time>
      </trkpt>
      <trkpt lat="45.76391" lon="2.8811">
        <ele>804.84097</ele>
        <time>2021-07-06T14:34:00+0200</time>
      </trkpt>
      <trkpt lat="45.76394" lon="2.88118">
        <ele>805.109343</ele>
        <time>2021-07-06T14:34:02+0200</time>
      </trkpt>
      <trkpt lat="45.76398" lon="2.88126">
        <ele>805.445289</ele>
        <time>2021-07-06T14:34:04+0200</time>
      </trkpt>
      <trkpt lat="45.764" lon="2.88133">
        <ele>805.035406</ele>
        <time>2021-07-06T14:34:06+0200</time>
      </trkpt>
      <trkpt lat="45.76404" lon="2.88138">
        <ele>805.254686</ele>
        <time>2021-07-06T14:34:08+0200</time>
      </trkpt>
      <trkpt lat="45.76407" lon="2.88143">
        <ele>805.169766</ele>
        <time>2021-07-06T14:34:10+0200</time>
      </trkpt>
      <trkpt lat="45.7641" lon="2.88151">
        <ele>805.430852</ele>
        <time>2021-07-06T14:34:12+0200</time>
      </trkpt>
      <trkpt lat="45.76416" lon="2.88158">
        <ele>805.085854</ele>
        <time>2021-07-06T14:34:14+0200</time>
      </trkpt>
      <trkpt lat="45.76419" lon="2.88167">
        <ele>805.410017</ele>
        <time>2021-07-06T14:34:16+0200</time>
      </trkpt>
      <trkpt lat="45.76423" lon="2.88176">
        <ele>804.79024</ele>
        <time>2021-07-06T14:34:18+0200</time>
      </trkpt>
      <trkpt lat="45.76428" lon="2.88183">
        <ele>805.102449</ele>
        <time>2021-07-06T14:34:20+0200</time>
      </trkpt>
      <trkpt lat="45.76433" lon="2.88193">
        <ele>804.911796</ele>
        <time>2021-07-06T14:34:22+0200</time>
      </trkpt>
      <trkpt lat="45.76438" lon="2.88203">
        <ele>804.71511</ele>
        <time>2021-07-06T14:34:24+0200</time>
      </trkpt>
      <trkpt lat="45.76442" lon="2.88213">
        <ele>803.956177</ele>
        <time>2021-07-06T14:34:26+0200</time>
      </trkpt>
      <trkpt lat="45.76446" lon="2.88218">
        <ele>803.336374</ele>
        <time>2021-07-06T14:34:27+0200</time>
      </trkpt>
      <trkpt lat="45.76449" lon="2.88224">
        <ele>803.934284</ele>
        <time>2021-07-06T14:34:28+0200</time>
      </trkpt>
      <trkpt lat="45.76452" lon="2.88229">
        <ele>803.45798</ele>
        <time>2021-07-06T14:34:29+0200</time>
      </trkpt>
      <trkpt lat="45.76454" lon="2.88236">
        <ele>803.540366</ele>
        <time>2021-07-06T14:34:30+0200</time>
      </trkpt>
      <trkpt lat="45.76457" lon="2.88243">
        <ele>803.75351</ele>
        <time>2021-07-06T14:34:31+0200</time>
      </trkpt>
      <trkpt lat="45.7646" lon="2.8825">
        <ele>804.022667</ele>
        <time>2021-07-06T14:34:32+0200</time>
      </trkpt>
      <trkpt lat="45.76463" lon="2.88258">
        <ele>803.328896</ele>
        <time>2021-07-06T14:34:33+0200</time>
      </trkpt>
      <trkpt lat="45.76465" lon="2.88264">
        <ele>803.058881</ele>
        <time>2021-07-06T14:34:34+0200</time>
      </trkpt>
      <trkpt lat="45.76467" lon="2.8827">
        <ele>803.320968</ele>
        <time>2021-07-06T14:34:35+0200</time>
      </trkpt>
      <trkpt lat="45.76469" lon="2.88276">
        <ele>803.246754</ele>
        <time>2021-07-06T14:34:36+0200</time>
      </trkpt>
      <trkpt lat="45.76472" lon="2.88282">
        <ele>803.227508</ele>
        <time>2021-07-06T14:34:37+0200</time>
      </trkpt>
      <trkpt lat="45.76474" lon="2.88288">
        <ele>802.966639</ele>
        <time>2021-07-06T14:34:38+0200</time>
      </trkpt>
      <trkpt lat="45.76476" lon="2.88296">
        <ele>803.236505</ele>
        <time>2021-07-06T14:34:39+0200</time>
      </trkpt>
      <trkpt lat="45.76479" lon="2.88302">
        <ele>803.1985</ele>
        <time>2021-07-06T14:34:40+0200</time>
      </trkpt>
      <trkpt lat="45.76481" lon="2.88307">
        <ele>802.885744</ele>
        <time>2021-07-06T14:34:41+0200</time>
      </trkpt>
      <trkpt lat="45.76483" lon="2.88315">
        <ele>802.727203</ele>
        <time>2021-07-06T14:34:42+0200</time>
      </trkpt>
      <trkpt lat="45.76485" lon="2.88322">
        <ele>801.899923</ele>
        <time>2021-07-06T14:34:43+0200</time>
      </trkpt>
      <trkpt lat="45.76487" lon="2.88328">
        <ele>801.961805</ele>
        <time>2021-07-06T14:34:44+0200</time>
      </trkpt>
      <trkpt lat="45.76489" lon="2.88335">
        <ele>801.780128</ele>
        <time>2021-07-06T14:34:45+0200</time>
      </trkpt>
      <trkpt lat="45.76491" lon="2.88341">
        <ele>801.227984</ele>
        <time>2021-07-06T14:34:46+0200</time>
      </trkpt>
      <trkpt lat="45.76492" lon="2.88348">
        <ele>801.326311</ele>
        <time>2021-07-06T14:34:47+0200</time>
      </trkpt>
      <trkpt lat="45.76493" lon="2.88355">
        <ele>801.19258</ele>
        <time>2021-07-06T14:34:48+0200</time>
      </trkpt>
      <trkpt lat="45.76496" lon="2.8836">
        <ele>800.9289</ele>
        <time>2021-07-06T14:34:49+0200</time>
      </trkpt>
      <trkpt lat="45.76498" lon="2.88366">
        <ele>800.398208</ele>
        <time>2021-07-06T14:34:50+0200</time>
      </trkpt>
      <trkpt lat="45.76501" lon="2.88371">
        <ele>799.542625</ele>
        <time>2021-07-06T14:34:51+0200</time>
      </trkpt>
      <trkpt lat="45.76504" lon="2.88376">
        <ele>800.492058</ele>
        <time>2021-07-06T14:34:52+0200</time>
      </trkpt>
      <trkpt lat="45.76508" lon="2.88381">
        <ele>800.575326</ele>
        <time>2021-07-06T14:34:53+0200</time>
      </trkpt>
      <trkpt lat="45.76512" lon="2.88387">
        <ele>800.480341</ele>
        <time>2021-07-06T14:34:54+0200</time>
      </trkpt>
      <trkpt lat="45.76516" lon="2.88392">
        <ele>800.239973</ele>
        <time>2021-07-06T14:34:55+0200</time>
      </trkpt>
      <trkpt lat="45.7652" lon="2.88397">
        <ele>800.491638</ele>
        <time>2021-07-06T14:34:56+0200</time>
      </trkpt>
      <trkpt lat="45.76524" lon="2.88401">
        <ele>800.223313</ele>
        <time>2021-07-06T14:34:57+0200</time>
      </trkpt>
      <trkpt lat="45.76528" lon="2.88404">
        <ele>800.358084</ele>
        <time>2021-07-06T14:34:58+0200</time>
      </trkpt>
      <trkpt lat="45.76536" lon="2.88409">
        <ele>799.923866</ele>
        <time>2021-07-06T14:35:00+0200</time>
      </trkpt>
      <trkpt lat="45.76544" lon="2.88412">
        <ele>800.562679</ele>
        <time>2021-07-06T14:35:02+0200</time>
      </trkpt>
      <trkpt lat="45.76551" lon="2.88417">
        <ele>800.896289</ele>
        <time>2021-07-06T14:35:04+0200</time>
      </trkpt>
      <trkpt lat="45.76558" lon="2.88425">
        <ele>801.24671</ele>
        <time>2021-07-06T14:35:06+0200</time>
      </trkpt>
      <trkpt lat="45.76561" lon="2.88432">
        <ele>801.113257</ele>
        <time>2021-07-06T14:35:07+0200</time>
      </trkpt>
      <trkpt lat="45.76563" lon="2.88438">
        <ele>800.687338</ele>
        <time>2021-07-06T14:35:08+0200</time>
      </trkpt>
      <trkpt lat="45.76568" lon="2.88448">
        <ele>800.860801</ele>
        <time>2021-07-06T14:35:10+0200</time>
      </trkpt>
      <trkpt lat="45.76571" lon="2.88453">
        <ele>800.50961</ele>
        <time>2021-07-06T14:35:11+0200</time>
      </trkpt>
      <trkpt lat="45.76574" lon="2.88459">
        <ele>799.708394</ele>
        <time>2021-07-06T14:35:12+0200</time>
      </trkpt>
      <trkpt lat="45.76579" lon="2.88469">
        <ele>799.259429</ele>
        <time>2021-07-06T14:35:14+0200</time>
      </trkpt>
      <trkpt lat="45.76581" lon="2.88475">
        <ele>799.389601</ele>
        <time>2021-07-06T14:35:15+0200</time>
      </trkpt>
      <trkpt lat="45.76584" lon="2.88482">
        <ele>800.201937</ele>
        <time>2021-07-06T14:35:16+0200</time>
      </trkpt>
      <trkpt lat="45.76587" lon="2.88487">
        <ele>800.43936</ele>
        <time>2021-07-06T14:35:17+0200</time>
      </trkpt>
      <trkpt lat="45.76592" lon="2.88494">
        <ele>801.04526</ele>
        <time>2021-07-06T14:35:19+0200</time>
      </trkpt>
      <trkpt lat="45.76598" lon="2.88502">
        <ele>801.633783</ele>
        <time>2021-07-06T14:35:21+0200</time>
      </trkpt>
      <trkpt lat="45.76602" lon="2.8851">
        <ele>801.149849</ele>
        <time>2021-07-06T14:35:23+0200</time>
      </trkpt>
      <trkpt lat="45.76607" lon="2.88519">
        <ele>799.926956</ele>
        <time>2021-07-06T14:35:25+0200</time>
      </trkpt>
      <trkpt lat="45.76613" lon="2.88528">
        <ele>798.399398</ele>
        <time>2021-07-06T14:35:27+0200</time>
      </trkpt>
      <trkpt lat="45.76615" lon="2.88534">
        <ele>798.479429</ele>
        <time>2021-07-06T14:35:28+0200</time>
      </trkpt>
      <trkpt lat="45.76618" lon="2.88541">
        <ele>799.279866</ele>
        <time>2021-07-06T14:35:29+0200</time>
      </trkpt>
      <trkpt lat="45.76621" lon="2.88549">
        <ele>799.326082</ele>
        <time>2021-07-06T14:35:30+0200</time>
      </trkpt>
      <trkpt lat="45.76622" lon="2.88558">
        <ele>799.585586</ele>
        <time>2021-07-06T14:35:31+0200</time>
      </trkpt>
      <trkpt lat="45.76623" lon="2.88564">
        <ele>798.887812</ele>
        <time>2021-07-06T14:35:33+0200</time>
      </trkpt>
      <trkpt lat="45.76628" lon="2.88567">
        <ele>799.64615</ele>
        <time>2021-07-06T14:35:37+0200</time>
      </trkpt>
      <trkpt lat="45.76633" lon="2.88568">
        <ele>799.403138</ele>
        <time>2021-07-06T14:35:39+0200</time>
      </trkpt>
      <trkpt lat="45.76639" lon="2.8857">
        <ele>799.043852</ele>
        <time>2021-07-06T14:35:42+0200</time>
      </trkpt>
      <trkpt lat="45.76644" lon="2.88572">
        <ele>799.068535</ele>
        <time>2021-07-06T14:35:44+0200</time>
      </trkpt>
      <trkpt lat="45.76649" lon="2.88575">
        <ele>798.192428</ele>
        <time>2021-07-06T14:35:46+0200</time>
      </trkpt>
      <trkpt lat="45.76655" lon="2.88579">
        <ele>797.716963</ele>
        <time>2021-07-06T14:35:48+0200</time>
      </trkpt>
      <trkpt lat="45.76661" lon="2.88582">
        <ele>797.49792</ele>
        <time>2021-07-06T14:35:50+0200</time>
      </trkpt>
      <trkpt lat="45.76668" lon="2.88587">
        <ele>797.403415</ele>
        <time>2021-07-06T14:35:52+0200</time>
      </trkpt>
      <trkpt lat="45.76676" lon="2.88592">
        <ele>797.65951</ele>
        <time>2021-07-06T14:35:54+0200</time>
      </trkpt>
      <trkpt lat="45.76684" lon="2.88598">
        <ele>797.098434</ele>
        <time>2021-07-06T14:35:56+0200</time>
      </trkpt>
      <trkpt lat="45.76692" lon="2.88603">
        <ele>796.99104</ele>
        <time>2021-07-06T14:35:58+0200</time>
      </trkpt>
      <trkpt lat="45.76696" lon="2.88606">
        <ele>796.372825</ele>
        <time>2021-07-06T14:35:59+0200</time>
      </trkpt>
      <trkpt lat="45.76704" lon="2.8861">
        <ele>795.730617</ele>
        <time>2021-07-06T14:36:01+0200</time>
      </trkpt>
      <trkpt lat="45.76713" lon="2.88615">
        <ele>795.553585</ele>
        <time>2021-07-06T14:36:03+0200</time>
      </trkpt>
      <trkpt lat="45.76718" lon="2.88618">
        <ele>795.300408</ele>
        <time>2021-07-06T14:36:04+0200</time>
      </trkpt>
      <trkpt lat="45.76723" lon="2.8862">
        <ele>794.946137</ele>
        <time>2021-07-06T14:36:05+0200</time>
      </trkpt>
      <trkpt lat="45.76728" lon="2.88623">
        <ele>794.305113</ele>
        <time>2021-07-06T14:36:06+0200</time>
      </trkpt>
      <trkpt lat="45.76733" lon="2.88624">
        <ele>794.259526</ele>
        <time>2021-07-06T14:36:07+0200</time>
      </trkpt>
      <trkpt lat="45.76737" lon="2.88625">
        <ele>794.05569</ele>
        <time>2021-07-06T14:36:08+0200</time>
      </trkpt>
      <trkpt lat="45.76741" lon="2.88628">
        <ele>794.159889</ele>
        <time>2021-07-06T14:36:09+0200</time>
      </trkpt>
      <trkpt lat="45.76746" lon="2.88634">
        <ele>793.592176</ele>
        <time>2021-07-06T14:36:11+0200</time>
      </trkpt>
      <trkpt lat="45.76752" lon="2.88638">
        <ele>793.165871</ele>
        <time>2021-07-06T14:36:13+0200</time>
      </trkpt>
      <trkpt lat="45.76759" lon="2.88642">
        <ele>793.945384</ele>
        <time>2021-07-06T14:36:15+0200</time>
      </trkpt>
      <trkpt lat="45.76764" lon="2.88643">
        <ele>795.890829</ele>
        <time>2021-07-06T14:36:17+0200</time>
      </trkpt>
      <trkpt lat="45.7677" lon="2.88644">
        <ele>796.509361</ele>
        <time>2021-07-06T14:36:19+0200</time>
      </trkpt>
      <trkpt lat="45.76776" lon="2.88644">
        <ele>797.81641</ele>
        <time>2021-07-06T14:36:21+0200</time>
      </trkpt>
      <trkpt lat="45.76783" lon="2.88643">
        <ele>798.978268</ele>
        <time>2021-07-06T14:36:23+0200</time>
      </trkpt>
      <trkpt lat="45.76788" lon="2.88643">
        <ele>800.324761</ele>
        <time>2021-07-06T14:36:25+0200</time>
      </trkpt>
      <trkpt lat="45.76795" lon="2.88644">
        <ele>799.419652</ele>
        <time>2021-07-06T14:36:27+0200</time>
      </trkpt>
      <trkpt lat="45.76803" lon="2.88644">
        <ele>798.979264</ele>
        <time>2021-07-06T14:36:29+0200</time>
      </trkpt>
      <trkpt lat="45.7681" lon="2.88646">
        <ele>798.631103</ele>
        <time>2021-07-06T14:36:31+0200</time>
      </trkpt>
      <trkpt lat="45.76816" lon="2.88647">
        <ele>800.006313</ele>
        <time>2021-07-06T14:36:33+0200</time>
      </trkpt>
      <trkpt lat="45.76822" lon="2.88649">
        <ele>800.78006</ele>
        <time>2021-07-06T14:36:35+0200</time>
      </trkpt>
      <trkpt lat="45.7683" lon="2.88651">
        <ele>799.887629</ele>
        <time>2021-07-06T14:36:37+0200</time>
      </trkpt>
      <trkpt lat="45.76836" lon="2.88652">
        <ele>799.969392</ele>
        <time>2021-07-06T14:36:39+0200</time>
      </trkpt>
      <trkpt lat="45.76843" lon="2.88654">
        <ele>799.666614</ele>
        <time>2021-07-06T14:36:41+0200</time>
      </trkpt>
      <trkpt lat="45.76849" lon="2.88656">
        <ele>799.909843</ele>
        <time>2021-07-06T14:36:43+0200</time>
      </trkpt>
      <trkpt lat="45.76854" lon="2.88658">
        <ele>800.050337</ele>
        <time>2021-07-06T14:36:45+0200</time>
      </trkpt>
      <trkpt lat="45.7686" lon="2.88662">
        <ele>799.986567</ele>
        <time>2021-07-06T14:36:47+0200</time>
      </trkpt>
      <trkpt lat="45.76867" lon="2.88668">
        <ele>800.722349</ele>
        <time>2021-07-06T14:36:49+0200</time>
      </trkpt>
      <trkpt lat="45.76872" lon="2.88673">
        <ele>800.612196</ele>
        <time>2021-07-06T14:36:51+0200</time>
      </trkpt>
      <trkpt lat="45.76876" lon="2.88679">
        <ele>800.90391</ele>
        <time>2021-07-06T14:36:53+0200</time>
      </trkpt>
      <trkpt lat="45.76881" lon="2.88684">
        <ele>801.827584</ele>
        <time>2021-07-06T14:36:56+0200</time>
      </trkpt>
      <trkpt lat="45.76884" lon="2.88689">
        <ele>803.099447</ele>
        <time>2021-07-06T14:36:58+0200</time>
      </trkpt>
      <trkpt lat="45.76889" lon="2.88695">
        <ele>803.352205</ele>
        <time>2021-07-06T14:37:00+0200</time>
      </trkpt>
      <trkpt lat="45.76893" lon="2.88701">
        <ele>803.995884</ele>
        <time>2021-07-06T14:37:02+0200</time>
      </trkpt>
      <trkpt lat="45.76898" lon="2.88709">
        <ele>804.024064</ele>
        <time>2021-07-06T14:37:04+0200</time>
      </trkpt>
      <trkpt lat="45.76903" lon="2.88715">
        <ele>803.811822</ele>
        <time>2021-07-06T14:37:06+0200</time>
      </trkpt>
      <trkpt lat="45.76907" lon="2.88721">
        <ele>804.857158</ele>
        <time>2021-07-06T14:37:08+0200</time>
      </trkpt>
      <trkpt lat="45.76911" lon="2.88726">
        <ele>805.611156</ele>
        <time>2021-07-06T14:37:10+0200</time>
      </trkpt>
      <trkpt lat="45.76915" lon="2.88733">
        <ele>806.800439</ele>
        <time>2021-07-06T14:37:12+0200</time>
      </trkpt>
      <trkpt lat="45.7692" lon="2.88739">
        <ele>805.325515</ele>
        <time>2021-07-06T14:37:14+0200</time>
      </trkpt>
      <trkpt lat="45.76924" lon="2.88744">
        <ele>805.594793</ele>
        <time>2021-07-06T14:37:16+0200</time>
      </trkpt>
      <trkpt lat="45.76928" lon="2.88748">
        <ele>805.540149</ele>
        <time>2021-07-06T14:37:18+0200</time>
      </trkpt>
      <trkpt lat="45.76933" lon="2.88753">
        <ele>804.92529</ele>
        <time>2021-07-06T14:37:20+0200</time>
      </trkpt>
      <trkpt lat="45.76939" lon="2.8876">
        <ele>802.524432</ele>
        <time>2021-07-06T14:37:22+0200</time>
      </trkpt>
      <trkpt lat="45.76945" lon="2.88767">
        <ele>801.518527</ele>
        <time>2021-07-06T14:37:24+0200</time>
      </trkpt>
      <trkpt lat="45.7695" lon="2.88773">
        <ele>801.504039</ele>
        <time>2021-07-06T14:37:26+0200</time>
      </trkpt>
      <trkpt lat="45.76954" lon="2.88781">
        <ele>803.020109</ele>
        <time>2021-07-06T14:37:28+0200</time>
      </trkpt>
      <trkpt lat="45.76958" lon="2.88786">
        <ele>805.028031</ele>
        <time>2021-07-06T14:37:30+0200</time>
      </trkpt>
      <trkpt lat="45.76962" lon="2.88792">
        <ele>806.717776</ele>
        <time>2021-07-06T14:37:33+0200</time>
      </trkpt>
      <trkpt lat="45.76967" lon="2.88798">
        <ele>806.468135</ele>
        <time>2021-07-06T14:37:35+0200</time>
      </trkpt>
      <trkpt lat="45.76972" lon="2.88803">
        <ele>806.461534</ele>
        <time>2021-07-06T14:37:37+0200</time>
      </trkpt>
      <trkpt lat="45.76977" lon="2.88809">
        <ele>806.198443</ele>
        <time>2021-07-06T14:37:39+0200</time>
      </trkpt>
      <trkpt lat="45.76982" lon="2.88816">
        <ele>804.525498</ele>
        <time>2021-07-06T14:37:41+0200</time>
      </trkpt>
      <trkpt lat="45.76985" lon="2.88823">
        <ele>804.54489</ele>
        <time>2021-07-06T14:37:43+0200</time>
      </trkpt>
      <trkpt lat="45.76989" lon="2.88828">
        <ele>804.309127</ele>
        <time>2021-07-06T14:37:45+0200</time>
      </trkpt>
      <trkpt lat="45.76993" lon="2.88834">
        <ele>804.844222</ele>
        <time>2021-07-06T14:37:47+0200</time>
      </trkpt>
      <trkpt lat="45.76997" lon="2.88839">
        <ele>804.872109</ele>
        <time>2021-07-06T14:37:49+0200</time>
      </trkpt>
      <trkpt lat="45.77001" lon="2.88844">
        <ele>804.523006</ele>
        <time>2021-07-06T14:37:51+0200</time>
      </trkpt>
      <trkpt lat="45.77006" lon="2.88847">
        <ele>803.489192</ele>
        <time>2021-07-06T14:37:53+0200</time>
      </trkpt>
      <trkpt lat="45.7701" lon="2.88851">
        <ele>803.098242</ele>
        <time>2021-07-06T14:37:55+0200</time>
      </trkpt>
      <trkpt lat="45.77013" lon="2.88856">
        <ele>803.533426</ele>
        <time>2021-07-06T14:37:57+0200</time>
      </trkpt>
      <trkpt lat="45.77018" lon="2.8886">
        <ele>802.262204</ele>
        <time>2021-07-06T14:37:59+0200</time>
      </trkpt>
      <trkpt lat="45.77022" lon="2.88865">
        <ele>804.731332</ele>
        <time>2021-07-06T14:38:01+0200</time>
      </trkpt>
      <trkpt lat="45.77026" lon="2.88871">
        <ele>805.839513</ele>
        <time>2021-07-06T14:38:03+0200</time>
      </trkpt>
      <trkpt lat="45.77031" lon="2.88875">
        <ele>806.171135</ele>
        <time>2021-07-06T14:38:05+0200</time>
      </trkpt>
      <trkpt lat="45.77037" lon="2.8888">
        <ele>807.37522</ele>
        <time>2021-07-06T14:38:07+0200</time>
      </trkpt>
      <trkpt lat="45.77043" lon="2.88885">
        <ele>807.492894</ele>
        <time>2021-07-06T14:38:09+0200</time>
      </trkpt>
      <trkpt lat="45.77048" lon="2.8889">
        <ele>806.350386</ele>
        <time>2021-07-06T14:38:11+0200</time>
      </trkpt>
      <trkpt lat="45.77055" lon="2.88896">
        <ele>806.485529</ele>
        <time>2021-07-06T14:38:13+0200</time>
      </trkpt>
      <trkpt lat="45.77059" lon="2.88901">
        <ele>807.695633</ele>
        <time>2021-07-06T14:38:15+0200</time>
      </trkpt>
      <trkpt lat="45.77064" lon="2.88907">
        <ele>807.831502</ele>
        <time>2021-07-06T14:38:17+0200</time>
      </trkpt>
      <trkpt lat="45.7707" lon="2.88913">
        <ele>805.300028</ele>
        <time>2021-07-06T14:38:19+0200</time>
      </trkpt>
      <trkpt lat="45.77077" lon="2.88918">
        <ele>803.698836</ele>
        <time>2021-07-06T14:38:21+0200</time>
      </trkpt>
      <trkpt lat="45.77083" lon="2.88925">
        <ele>802.20583</ele>
        <time>2021-07-06T14:38:23+0200</time>
      </trkpt>
      <trkpt lat="45.77088" lon="2.88931">
        <ele>801.30243</ele>
        <time>2021-07-06T14:38:25+0200</time>
      </trkpt>
      <trkpt lat="45.77093" lon="2.88937">
        <ele>801.320795</ele>
        <time>2021-07-06T14:38:27+0200</time>
      </trkpt>
      <trkpt lat="45.77099" lon="2.88942">
        <ele>800.741346</ele>
        <time>2021-07-06T14:38:29+0200</time>
      </trkpt>
      <trkpt lat="45.77102" lon="2.88947">
        <ele>800.994001</ele>
        <time>2021-07-06T14:38:31+0200</time>
      </trkpt>
      <trkpt lat="45.77103" lon="2.88955">
        <ele>803.712986</ele>
        <time>2021-07-06T14:38:34+0200</time>
      </trkpt>
      <trkpt lat="45.771" lon="2.88962">
        <ele>806.978382</ele>
        <time>2021-07-06T14:38:38+0200</time>
      </trkpt>
      <trkpt lat="45.77096" lon="2.88966">
        <ele>810.343074</ele>
        <time>2021-07-06T14:39:09+0200</time>
      </trkpt>
      <trkpt lat="45.7709" lon="2.88968">
        <ele>809.601098</ele>
        <time>2021-07-06T14:39:12+0200</time>
      </trkpt>
      <trkpt lat="45.77086" lon="2.88971">
        <ele>809.151645</ele>
        <time>2021-07-06T14:39:14+0200</time>
      </trkpt>
      <trkpt lat="45.77081" lon="2.88975">
        <ele>808.833364</ele>
        <time>2021-07-06T14:39:16+0200</time>
      </trkpt>
      <trkpt lat="45.77076" lon="2.88978">
        <ele>808.641353</ele>
        <time>2021-07-06T14:39:18+0200</time>
      </trkpt>
      <trkpt lat="45.77069" lon="2.88981">
        <ele>808.832494</ele>
        <time>2021-07-06T14:39:20+0200</time>
      </trkpt>
      <trkpt lat="45.77065" lon="2.88984">
        <ele>808.293088</ele>
        <time>2021-07-06T14:39:22+0200</time>
      </trkpt>
      <trkpt lat="45.77059" lon="2.88987">
        <ele>808.61575</ele>
        <time>2021-07-06T14:39:24+0200</time>
      </trkpt>
      <trkpt lat="45.77053" lon="2.8899">
        <ele>808.502808</ele>
        <time>2021-07-06T14:39:26+0200</time>
      </trkpt>
      <trkpt lat="45.77046" lon="2.88994">
        <ele>808.400903</ele>
        <time>2021-07-06T14:39:28+0200</time>
      </trkpt>
      <trkpt lat="45.77039" lon="2.88998">
        <ele>808.256411</ele>
        <time>2021-07-06T14:39:30+0200</time>
      </trkpt>
      <trkpt lat="45.77031" lon="2.89003">
        <ele>808.102696</ele>
        <time>2021-07-06T14:39:32+0200</time>
      </trkpt>
      <trkpt lat="45.77025" lon="2.89007">
        <ele>807.908515</ele>
        <time>2021-07-06T14:39:34+0200</time>
      </trkpt>
      <trkpt lat="45.77017" lon="2.89012">
        <ele>808.50522</ele>
        <time>2021-07-06T14:39:36+0200</time>
      </trkpt>
      <trkpt lat="45.7701" lon="2.89017">
        <ele>808.439127</ele>
        <time>2021-07-06T14:39:38+0200</time>
      </trkpt>
      <trkpt lat="45.77002" lon="2.89021">
        <ele>808.887025</ele>
        <time>2021-07-06T14:39:40+0200</time>
      </trkpt>
      <trkpt lat="45.76994" lon="2.89025">
        <ele>809.721944</ele>
        <time>2021-07-06T14:39:42+0200</time>
      </trkpt>
      <trkpt lat="45.76987" lon="2.8903">
        <ele>808.99116</ele>
        <time>2021-07-06T14:39:44+0200</time>
      </trkpt>
      <trkpt lat="45.7698" lon="2.89034">
        <ele>809.50153</ele>
        <time>2021-07-06T14:39:46+0200</time>
      </trkpt>
      <trkpt lat="45.76972" lon="2.89039">
        <ele>809.16199</ele>
        <time>2021-07-06T14:39:48+0200</time>
      </trkpt>
      <trkpt lat="45.76965" lon="2.89044">
        <ele>809.430685</ele>
        <time>2021-07-06T14:39:50+0200</time>
      </trkpt>
      <trkpt lat="45.76961" lon="2.89051">
        <ele>809.435237</ele>
        <time>2021-07-06T14:39:52+0200</time>
      </trkpt>
      <trkpt lat="45.7696" lon="2.89062">
        <ele>810.3337</ele>
        <time>2021-07-06T14:39:54+0200</time>
      </trkpt>
      <trkpt lat="45.7696" lon="2.89072">
        <ele>811.398215</ele>
        <time>2021-07-06T14:39:56+0200</time>
      </trkpt>
      <trkpt lat="45.76962" lon="2.89081">
        <ele>812.20021</ele>
        <time>2021-07-06T14:39:58+0200</time>
      </trkpt>
      <trkpt lat="45.76962" lon="2.89089">
        <ele>813.812228</ele>
        <time>2021-07-06T14:40:00+0200</time>
      </trkpt>
      <trkpt lat="45.76962" lon="2.89098">
        <ele>815.291646</ele>
        <time>2021-07-06T14:40:02+0200</time>
      </trkpt>
      <trkpt lat="45.76962" lon="2.89108">
        <ele>816.13231</ele>
        <time>2021-07-06T14:40:04+0200</time>
      </trkpt>
      <trkpt lat="45.76961" lon="2.89119">
        <ele>815.806878</ele>
        <time>2021-07-06T14:40:06+0200</time>
      </trkpt>
      <trkpt lat="45.7696" lon="2.89129">
        <ele>814.913863</ele>
        <time>2021-07-06T14:40:08+0200</time>
      </trkpt>
      <trkpt lat="45.7696" lon="2.8914">
        <ele>814.557847</ele>
        <time>2021-07-06T14:40:10+0200</time>
      </trkpt>
      <trkpt lat="45.7696" lon="2.89149">
        <ele>814.114007</ele>
        <time>2021-07-06T14:40:12+0200</time>
      </trkpt>
      <trkpt lat="45.7696" lon="2.89157">
        <ele>813.608156</ele>
        <time>2021-07-06T14:40:14+0200</time>
      </trkpt>
      <trkpt lat="45.7696" lon="2.89165">
        <ele>813.441941</ele>
        <time>2021-07-06T14:40:16+0200</time>
      </trkpt>
      <trkpt lat="45.7696" lon="2.89175">
        <ele>813.080729</ele>
        <time>2021-07-06T14:40:18+0200</time>
      </trkpt>
      <trkpt lat="45.76961" lon="2.89185">
        <ele>812.629188</ele>
        <time>2021-07-06T14:40:20+0200</time>
      </trkpt>
      <trkpt lat="45.7696" lon="2.89196">
        <ele>812.949695</ele>
        <time>2021-07-06T14:40:22+0200</time>
      </trkpt>
      <trkpt lat="45.76959" lon="2.89205">
        <ele>812.357652</ele>
        <time>2021-07-06T14:40:24+0200</time>
      </trkpt>
      <trkpt lat="45.76957" lon="2.89215">
        <ele>813.024545</ele>
        <time>2021-07-06T14:40:26+0200</time>
      </trkpt>
      <trkpt lat="45.76955" lon="2.89226">
        <ele>813.149528</ele>
        <time>2021-07-06T14:40:28+0200</time>
      </trkpt>
      <trkpt lat="45.76955" lon="2.89236">
        <ele>813.217596</ele>
        <time>2021-07-06T14:40:30+0200</time>
      </trkpt>
      <trkpt lat="45.76956" lon="2.89246">
        <ele>812.917862</ele>
        <time>2021-07-06T14:40:32+0200</time>
      </trkpt>
      <trkpt lat="45.76956" lon="2.89256">
        <ele>813.013975</ele>
        <time>2021-07-06T14:40:34+0200</time>
      </trkpt>
      <trkpt lat="45.76956" lon="2.89266">
        <ele>812.798673</ele>
        <time>2021-07-06T14:40:36+0200</time>
      </trkpt>
      <trkpt lat="45.76955" lon="2.89277">
        <ele>813.08007</ele>
        <time>2021-07-06T14:40:38+0200</time>
      </trkpt>
      <trkpt lat="45.76954" lon="2.89286">
        <ele>813.245987</ele>
        <time>2021-07-06T14:40:40+0200</time>
      </trkpt>
      <trkpt lat="45.76955" lon="2.89294">
        <ele>813.768621</ele>
        <time>2021-07-06T14:40:42+0200</time>
      </trkpt>
      <trkpt lat="45.76954" lon="2.89301">
        <ele>813.543639</ele>
        <time>2021-07-06T14:40:44+0200</time>
      </trkpt>
      <trkpt lat="45.76954" lon="2.89311">
        <ele>813.261851</ele>
        <time>2021-07-06T14:40:46+0200</time>
      </trkpt>
      <trkpt lat="45.76954" lon="2.8932">
        <ele>813.144462</ele>
        <time>2021-07-06T14:40:48+0200</time>
      </trkpt>
      <trkpt lat="45.76955" lon="2.89328">
        <ele>812.550963</ele>
        <time>2021-07-06T14:40:50+0200</time>
      </trkpt>
      <trkpt lat="45.76955" lon="2.89336">
        <ele>812.561672</ele>
        <time>2021-07-06T14:40:52+0200</time>
      </trkpt>
      <trkpt lat="45.76955" lon="2.89345">
        <ele>812.604312</ele>
        <time>2021-07-06T14:40:54+0200</time>
      </trkpt>
      <trkpt lat="45.76955" lon="2.89353">
        <ele>813.119864</ele>
        <time>2021-07-06T14:40:56+0200</time>
      </trkpt>
      <trkpt lat="45.76955" lon="2.89361">
        <ele>812.587614</ele>
        <time>2021-07-06T14:40:58+0200</time>
      </trkpt>
      <trkpt lat="45.76955" lon="2.89371">
        <ele>812.149539</ele>
        <time>2021-07-06T14:41:00+0200</time>
      </trkpt>
      <trkpt lat="45.76955" lon="2.8938">
        <ele>811.867093</ele>
        <time>2021-07-06T14:41:02+0200</time>
      </trkpt>
      <trkpt lat="45.76955" lon="2.8939">
        <ele>811.692389</ele>
        <time>2021-07-06T14:41:04+0200</time>
      </trkpt>
      <trkpt lat="45.76955" lon="2.89399">
        <ele>811.158932</ele>
        <time>2021-07-06T14:41:06+0200</time>
      </trkpt>
      <trkpt lat="45.76954" lon="2.89408">
        <ele>812.083081</ele>
        <time>2021-07-06T14:41:08+0200</time>
      </trkpt>
      <trkpt lat="45.76954" lon="2.89417">
        <ele>812.542192</ele>
        <time>2021-07-06T14:41:10+0200</time>
      </trkpt>
      <trkpt lat="45.76954" lon="2.89426">
        <ele>813.401341</ele>
        <time>2021-07-06T14:41:12+0200</time>
      </trkpt>
      <trkpt lat="45.76954" lon="2.89436">
        <ele>812.908003</ele>
        <time>2021-07-06T14:41:14+0200</time>
      </trkpt>
      <trkpt lat="45.76953" lon="2.89445">
        <ele>812.027598</ele>
        <time>2021-07-06T14:41:16+0200</time>
      </trkpt>
      <trkpt lat="45.76954" lon="2.89454">
        <ele>811.113034</ele>
        <time>2021-07-06T14:41:18+0200</time>
      </trkpt>
      <trkpt lat="45.76953" lon="2.89465">
        <ele>810.792712</ele>
        <time>2021-07-06T14:41:20+0200</time>
      </trkpt>
      <trkpt lat="45.76953" lon="2.89474">
        <ele>811.041366</ele>
        <time>2021-07-06T14:41:22+0200</time>
      </trkpt>
      <trkpt lat="45.76953" lon="2.89484">
        <ele>811.475671</ele>
        <time>2021-07-06T14:41:24+0200</time>
      </trkpt>
      <trkpt lat="45.76953" lon="2.89494">
        <ele>811.103562</ele>
        <time>2021-07-06T14:41:26+0200</time>
      </trkpt>
      <trkpt lat="45.76953" lon="2.89504">
        <ele>811.139899</ele>
        <time>2021-07-06T14:41:28+0200</time>
      </trkpt>
      <trkpt lat="45.76953" lon="2.89513">
        <ele>811.856031</ele>
        <time>2021-07-06T14:41:30+0200</time>
      </trkpt>
      <trkpt lat="45.76952" lon="2.89525">
        <ele>811.723035</ele>
        <time>2021-07-06T14:41:32+0200</time>
      </trkpt>
      <trkpt lat="45.76951" lon="2.89535">
        <ele>811.800963</ele>
        <time>2021-07-06T14:41:34+0200</time>
      </trkpt>
      <trkpt lat="45.7695" lon="2.89545">
        <ele>811.866314</ele>
        <time>2021-07-06T14:41:36+0200</time>
      </trkpt>
      <trkpt lat="45.7695" lon="2.89555">
        <ele>812.036404</ele>
        <time>2021-07-06T14:41:38+0200</time>
      </trkpt>
      <trkpt lat="45.76951" lon="2.89565">
        <ele>812.265702</ele>
        <time>2021-07-06T14:41:40+0200</time>
      </trkpt>
      <trkpt lat="45.7695" lon="2.89575">
        <ele>812.59938</ele>
        <time>2021-07-06T14:41:42+0200</time>
      </trkpt>
      <trkpt lat="45.7695" lon="2.89585">
        <ele>812.939268</ele>
        <time>2021-07-06T14:41:44+0200</time>
      </trkpt>
      <trkpt lat="45.7695" lon="2.89595">
        <ele>813.731103</ele>
        <time>2021-07-06T14:41:46+0200</time>
      </trkpt>
      <trkpt lat="45.76951" lon="2.89606">
        <ele>816.213773</ele>
        <time>2021-07-06T14:41:48+0200</time>
      </trkpt>
      <trkpt lat="45.76953" lon="2.89615">
        <ele>817.821917</ele>
        <time>2021-07-06T14:41:50+0200</time>
      </trkpt>
      <trkpt lat="45.76954" lon="2.89625">
        <ele>818.691469</ele>
        <time>2021-07-06T14:41:52+0200</time>
      </trkpt>
      <trkpt lat="45.76953" lon="2.89636">
        <ele>819.203467</ele>
        <time>2021-07-06T14:41:54+0200</time>
      </trkpt>
      <trkpt lat="45.76952" lon="2.89646">
        <ele>820.189617</ele>
        <time>2021-07-06T14:41:56+0200</time>
      </trkpt>
      <trkpt lat="45.76952" lon="2.89656">
        <ele>820.80283</ele>
        <time>2021-07-06T14:41:58+0200</time>
      </trkpt>
      <trkpt lat="45.76951" lon="2.89667">
        <ele>820.404662</ele>
        <time>2021-07-06T14:42:00+0200</time>
      </trkpt>
      <trkpt lat="45.7695" lon="2.89677">
        <ele>819.995566</ele>
        <time>2021-07-06T14:42:02+0200</time>
      </trkpt>
      <trkpt lat="45.7695" lon="2.89687">
        <ele>819.562514</ele>
        <time>2021-07-06T14:42:04+0200</time>
      </trkpt>
      <trkpt lat="45.76949" lon="2.89695">
        <ele>818.679455</ele>
        <time>2021-07-06T14:42:06+0200</time>
      </trkpt>
      <trkpt lat="45.76948" lon="2.89703">
        <ele>817.346644</ele>
        <time>2021-07-06T14:42:08+0200</time>
      </trkpt>
      <trkpt lat="45.76947" lon="2.89712">
        <ele>816.711936</ele>
        <time>2021-07-06T14:42:10+0200</time>
      </trkpt>
      <trkpt lat="45.76945" lon="2.8972">
        <ele>816.288909</ele>
        <time>2021-07-06T14:42:12+0200</time>
      </trkpt>
      <trkpt lat="45.76941" lon="2.89723">
        <ele>817.734866</ele>
        <time>2021-07-06T14:43:05+0200</time>
      </trkpt>
      <trkpt lat="45.76934" lon="2.89719">
        <ele>816.917242</ele>
        <time>2021-07-06T14:43:08+0200</time>
      </trkpt>
      <trkpt lat="45.76928" lon="2.89715">
        <ele>816.613165</ele>
        <time>2021-07-06T14:43:10+0200</time>
      </trkpt>
      <trkpt lat="45.76921" lon="2.89711">
        <ele>816.218037</ele>
        <time>2021-07-06T14:43:12+0200</time>
      </trkpt>
      <trkpt lat="45.76915" lon="2.89706">
        <ele>816.737063</ele>
        <time>2021-07-06T14:43:14+0200</time>
      </trkpt>
      <trkpt lat="45.76909" lon="2.89701">
        <ele>816.493568</ele>
        <time>2021-07-06T14:43:16+0200</time>
      </trkpt>
      <trkpt lat="45.76905" lon="2.89697">
        <ele>816.340097</ele>
        <time>2021-07-06T14:43:17+0200</time>
      </trkpt>
      <trkpt lat="45.76897" lon="2.89692">
        <ele>816.02403</ele>
        <time>2021-07-06T14:43:19+0200</time>
      </trkpt>
      <trkpt lat="45.76889" lon="2.89687">
        <ele>817.530548</ele>
        <time>2021-07-06T14:43:21+0200</time>
      </trkpt>
      <trkpt lat="45.76884" lon="2.89684">
        <ele>817.56825</ele>
        <time>2021-07-06T14:43:22+0200</time>
      </trkpt>
      <trkpt lat="45.76879" lon="2.89681">
        <ele>817.131409</ele>
        <time>2021-07-06T14:43:23+0200</time>
      </trkpt>
      <trkpt lat="45.76873" lon="2.89676">
        <ele>816.35371</ele>
        <time>2021-07-06T14:43:24+0200</time>
      </trkpt>
      <trkpt lat="45.76869" lon="2.89672">
        <ele>817.205858</ele>
        <time>2021-07-06T14:43:25+0200</time>
      </trkpt>
      <trkpt lat="45.76864" lon="2.89667">
        <ele>817.434025</ele>
        <time>2021-07-06T14:43:26+0200</time>
      </trkpt>
      <trkpt lat="45.76859" lon="2.89663">
        <ele>816.883801</ele>
        <time>2021-07-06T14:43:27+0200</time>
      </trkpt>
      <trkpt lat="45.76855" lon="2.89657">
        <ele>815.754685</ele>
        <time>2021-07-06T14:43:28+0200</time>
      </trkpt>
      <trkpt lat="45.7685" lon="2.89653">
        <ele>814.7883</ele>
        <time>2021-07-06T14:43:29+0200</time>
      </trkpt>
      <trkpt lat="45.76843" lon="2.89648">
        <ele>812.743565</ele>
        <time>2021-07-06T14:43:30+0200</time>
      </trkpt>
      <trkpt lat="45.76838" lon="2.89645">
        <ele>812.257894</ele>
        <time>2021-07-06T14:43:31+0200</time>
      </trkpt>
      <trkpt lat="45.76832" lon="2.89642">
        <ele>811.599371</ele>
        <time>2021-07-06T14:43:32+0200</time>
      </trkpt>
      <trkpt lat="45.76825" lon="2.89638">
        <ele>811.185269</ele>
        <time>2021-07-06T14:43:33+0200</time>
      </trkpt>
      <trkpt lat="45.7682" lon="2.89634">
        <ele>810.561318</ele>
        <time>2021-07-06T14:43:34+0200</time>
      </trkpt>
      <trkpt lat="45.76814" lon="2.89631">
        <ele>809.975192</ele>
        <time>2021-07-06T14:43:35+0200</time>
      </trkpt>
      <trkpt lat="45.76808" lon="2.89628">
        <ele>809.317495</ele>
        <time>2021-07-06T14:43:36+0200</time>
      </trkpt>
      <trkpt lat="45.76803" lon="2.89626">
        <ele>808.797991</ele>
        <time>2021-07-06T14:43:37+0200</time>
      </trkpt>
      <trkpt lat="45.76797" lon="2.89623">
        <ele>808.862042</ele>
        <time>2021-07-06T14:43:38+0200</time>
      </trkpt>
      <trkpt lat="45.76792" lon="2.89621">
        <ele>809.141133</ele>
        <time>2021-07-06T14:43:39+0200</time>
      </trkpt>
      <trkpt lat="45.76787" lon="2.89619">
        <ele>809.369612</ele>
        <time>2021-07-06T14:43:40+0200</time>
      </trkpt>
      <trkpt lat="45.76782" lon="2.89616">
        <ele>809.344953</ele>
        <time>2021-07-06T14:43:41+0200</time>
      </trkpt>
      <trkpt lat="45.76777" lon="2.89613">
        <ele>808.997188</ele>
        <time>2021-07-06T14:43:42+0200</time>
      </trkpt>
      <trkpt lat="45.76772" lon="2.89612">
        <ele>808.407144</ele>
        <time>2021-07-06T14:43:43+0200</time>
      </trkpt>
      <trkpt lat="45.76767" lon="2.8961">
        <ele>807.998663</ele>
        <time>2021-07-06T14:43:44+0200</time>
      </trkpt>
      <trkpt lat="45.76762" lon="2.89608">
        <ele>807.905668</ele>
        <time>2021-07-06T14:43:45+0200</time>
      </trkpt>
      <trkpt lat="45.76758" lon="2.89606">
        <ele>807.867456</ele>
        <time>2021-07-06T14:43:46+0200</time>
      </trkpt>
      <trkpt lat="45.76753" lon="2.89606">
        <ele>808.175788</ele>
        <time>2021-07-06T14:43:47+0200</time>
      </trkpt>
      <trkpt lat="45.76748" lon="2.89608">
        <ele>808.488416</ele>
        <time>2021-07-06T14:43:48+0200</time>
      </trkpt>
      <trkpt lat="45.7674" lon="2.89612">
        <ele>808.928242</ele>
        <time>2021-07-06T14:43:50+0200</time>
      </trkpt>
      <trkpt lat="45.76736" lon="2.89618">
        <ele>808.142232</ele>
        <time>2021-07-06T14:43:52+0200</time>
      </trkpt>
      <trkpt lat="45.76737" lon="2.89631">
        <ele>809.612376</ele>
        <time>2021-07-06T14:43:54+0200</time>
      </trkpt>
      <trkpt lat="45.76736" lon="2.89641">
        <ele>809.285285</ele>
        <time>2021-07-06T14:43:56+0200</time>
      </trkpt>
      <trkpt lat="45.76738" lon="2.89651">
        <ele>809.045203</ele>
        <time>2021-07-06T14:43:58+0200</time>
      </trkpt>
      <trkpt lat="45.76739" lon="2.89663">
        <ele>808.695448</ele>
        <time>2021-07-06T14:44:00+0200</time>
      </trkpt>
      <trkpt lat="45.76741" lon="2.89673">
        <ele>809.890759</ele>
        <time>2021-07-06T14:44:02+0200</time>
      </trkpt>
      <trkpt lat="45.76742" lon="2.8968">
        <ele>811.065594</ele>
        <time>2021-07-06T14:44:04+0200</time>
      </trkpt>
      <trkpt lat="45.76743" lon="2.89688">
        <ele>812.67677</ele>
        <time>2021-07-06T14:44:06+0200</time>
      </trkpt>
      <trkpt lat="45.76743" lon="2.89697">
        <ele>813.60201</ele>
        <time>2021-07-06T14:44:08+0200</time>
      </trkpt>
      <trkpt lat="45.76744" lon="2.89708">
        <ele>813.93263</ele>
        <time>2021-07-06T14:44:10+0200</time>
      </trkpt>
      <trkpt lat="45.76746" lon="2.89719">
        <ele>814.135946</ele>
        <time>2021-07-06T14:44:12+0200</time>
      </trkpt>
      <trkpt lat="45.76748" lon="2.89729">
        <ele>813.602525</ele>
        <time>2021-07-06T14:44:14+0200</time>
      </trkpt>
      <trkpt lat="45.76748" lon="2.8974">
        <ele>813.712565</ele>
        <time>2021-07-06T14:44:16+0200</time>
      </trkpt>
      <trkpt lat="45.76748" lon="2.89749">
        <ele>812.71572</ele>
        <time>2021-07-06T14:44:18+0200</time>
      </trkpt>
      <trkpt lat="45.7675" lon="2.89758">
        <ele>812.64365</ele>
        <time>2021-07-06T14:44:20+0200</time>
      </trkpt>
      <trkpt lat="45.7675" lon="2.89768">
        <ele>812.248449</ele>
        <time>2021-07-06T14:44:22+0200</time>
      </trkpt>
      <trkpt lat="45.7675" lon="2.89777">
        <ele>813.209085</ele>
        <time>2021-07-06T14:44:24+0200</time>
      </trkpt>
      <trkpt lat="45.7675" lon="2.89789">
        <ele>814.436872</ele>
        <time>2021-07-06T14:44:26+0200</time>
      </trkpt>
      <trkpt lat="45.76751" lon="2.89799">
        <ele>814.228994</ele>
        <time>2021-07-06T14:44:28+0200</time>
      </trkpt>
      <trkpt lat="45.76751" lon="2.89811">
        <ele>815.689326</ele>
        <time>2021-07-06T14:44:30+0200</time>
      </trkpt>
      <trkpt lat="45.76751" lon="2.89823">
        <ele>816.457471</ele>
        <time>2021-07-06T14:44:32+0200</time>
      </trkpt>
      <trkpt lat="45.7675" lon="2.89833">
        <ele>816.878529</ele>
        <time>2021-07-06T14:44:34+0200</time>
      </trkpt>
      <trkpt lat="45.76748" lon="2.89844">
        <ele>816.946758</ele>
        <time>2021-07-06T14:44:36+0200</time>
      </trkpt>
      <trkpt lat="45.76747" lon="2.89853">
        <ele>816.503754</ele>
        <time>2021-07-06T14:44:38+0200</time>
      </trkpt>
      <trkpt lat="45.76745" lon="2.8986">
        <ele>818.119277</ele>
        <time>2021-07-06T14:44:40+0200</time>
      </trkpt>
      <trkpt lat="45.76744" lon="2.89868">
        <ele>818.272904</ele>
        <time>2021-07-06T14:44:43+0200</time>
      </trkpt>
      <trkpt lat="45.76749" lon="2.89872">
        <ele>818.614656</ele>
        <time>2021-07-06T14:44:47+0200</time>
      </trkpt>
      <trkpt lat="45.76755" lon="2.89874">
        <ele>819.716216</ele>
        <time>2021-07-06T14:44:49+0200</time>
      </trkpt>
      <trkpt lat="45.76763" lon="2.89878">
        <ele>820.977283</ele>
        <time>2021-07-06T14:44:51+0200</time>
      </trkpt>
      <trkpt lat="45.76768" lon="2.89881">
        <ele>821.948578</ele>
        <time>2021-07-06T14:44:53+0200</time>
      </trkpt>
      <trkpt lat="45.76773" lon="2.89888">
        <ele>822.132775</ele>
        <time>2021-07-06T14:44:55+0200</time>
      </trkpt>
      <trkpt lat="45.76778" lon="2.89891">
        <ele>822.379933</ele>
        <time>2021-07-06T14:44:57+0200</time>
      </trkpt>
      <trkpt lat="45.76782" lon="2.89896">
        <ele>821.461329</ele>
        <time>2021-07-06T14:44:59+0200</time>
      </trkpt>
      <trkpt lat="45.76786" lon="2.899">
        <ele>821.177467</ele>
        <time>2021-07-06T14:45:01+0200</time>
      </trkpt>
      <trkpt lat="45.7679" lon="2.89906">
        <ele>821.183672</ele>
        <time>2021-07-06T14:45:03+0200</time>
      </trkpt>
      <trkpt lat="45.76794" lon="2.89909">
        <ele>822.309178</ele>
        <time>2021-07-06T14:45:05+0200</time>
      </trkpt>
      <trkpt lat="45.76799" lon="2.89913">
        <ele>822.30778</ele>
        <time>2021-07-06T14:45:07+0200</time>
      </trkpt>
      <trkpt lat="45.76803" lon="2.89919">
        <ele>821.266565</ele>
        <time>2021-07-06T14:45:09+0200</time>
      </trkpt>
      <trkpt lat="45.76807" lon="2.89922">
        <ele>819.320451</ele>
        <time>2021-07-06T14:45:10+0200</time>
      </trkpt>
      <trkpt lat="45.76813" lon="2.89929">
        <ele>816.177061</ele>
        <time>2021-07-06T14:45:12+0200</time>
      </trkpt>
      <trkpt lat="45.76818" lon="2.89935">
        <ele>815.593386</ele>
        <time>2021-07-06T14:45:14+0200</time>
      </trkpt>
      <trkpt lat="45.76824" lon="2.89939">
        <ele>815.974207</ele>
        <time>2021-07-06T14:45:16+0200</time>
      </trkpt>
      <trkpt lat="45.76828" lon="2.89942">
        <ele>816.533979</ele>
        <time>2021-07-06T14:45:18+0200</time>
      </trkpt>
      <trkpt lat="45.76832" lon="2.89946">
        <ele>816.339721</ele>
        <time>2021-07-06T14:45:20+0200</time>
      </trkpt>
      <trkpt lat="45.76837" lon="2.89951">
        <ele>816.590235</ele>
        <time>2021-07-06T14:45:22+0200</time>
      </trkpt>
      <trkpt lat="45.76842" lon="2.89957">
        <ele>816.339822</ele>
        <time>2021-07-06T14:45:24+0200</time>
      </trkpt>
      <trkpt lat="45.76846" lon="2.89964">
        <ele>816.896811</ele>
        <time>2021-07-06T14:45:26+0200</time>
      </trkpt>
      <trkpt lat="45.76849" lon="2.89971">
        <ele>817.399443</ele>
        <time>2021-07-06T14:45:28+0200</time>
      </trkpt>
      <trkpt lat="45.76854" lon="2.89976">
        <ele>818.244113</ele>
        <time>2021-07-06T14:45:30+0200</time>
      </trkpt>
      <trkpt lat="45.76859" lon="2.89981">
        <ele>818.412533</ele>
        <time>2021-07-06T14:45:32+0200</time>
      </trkpt>
      <trkpt lat="45.76863" lon="2.89986">
        <ele>818.651826</ele>
        <time>2021-07-06T14:45:34+0200</time>
      </trkpt>
      <trkpt lat="45.76867" lon="2.89992">
        <ele>819.987875</ele>
        <time>2021-07-06T14:45:36+0200</time>
      </trkpt>
      <trkpt lat="45.76871" lon="2.89998">
        <ele>821.032164</ele>
        <time>2021-07-06T14:45:38+0200</time>
      </trkpt>
      <trkpt lat="45.76875" lon="2.90005">
        <ele>821.896641</ele>
        <time>2021-07-06T14:45:40+0200</time>
      </trkpt>
      <trkpt lat="45.76877" lon="2.90012">
        <ele>823.123267</ele>
        <time>2021-07-06T14:45:42+0200</time>
      </trkpt>
      <trkpt lat="45.76879" lon="2.90019">
        <ele>823.261092</ele>
        <time>2021-07-06T14:45:44+0200</time>
      </trkpt>
      <trkpt lat="45.76882" lon="2.90024">
        <ele>823.547455</ele>
        <time>2021-07-06T14:45:46+0200</time>
      </trkpt>
      <trkpt lat="45.76884" lon="2.9003">
        <ele>825.297567</ele>
        <time>2021-07-06T14:45:48+0200</time>
      </trkpt>
      <trkpt lat="45.76886" lon="2.90038">
        <ele>826.177772</ele>
        <time>2021-07-06T14:45:50+0200</time>
      </trkpt>
      <trkpt lat="45.76889" lon="2.90044">
        <ele>827.847258</ele>
        <time>2021-07-06T14:45:52+0200</time>
      </trkpt>
      <trkpt lat="45.76891" lon="2.90051">
        <ele>827.555118</ele>
        <time>2021-07-06T14:45:54+0200</time>
      </trkpt>
      <trkpt lat="45.76894" lon="2.90058">
        <ele>827.066244</ele>
        <time>2021-07-06T14:45:56+0200</time>
      </trkpt>
      <trkpt lat="45.76898" lon="2.90067">
        <ele>825.645156</ele>
        <time>2021-07-06T14:45:59+0200</time>
      </trkpt>
      <trkpt lat="45.76901" lon="2.90075">
        <ele>825.313072</ele>
        <time>2021-07-06T14:46:01+0200</time>
      </trkpt>
      <trkpt lat="45.76901" lon="2.90083">
        <ele>828.273736</ele>
        <time>2021-07-06T14:46:04+0200</time>
      </trkpt>
      <trkpt lat="45.769" lon="2.9009">
        <ele>829.704403</ele>
        <time>2021-07-06T14:46:07+0200</time>
      </trkpt>
      <trkpt lat="45.769" lon="2.90098">
        <ele>830.469974</ele>
        <time>2021-07-06T14:46:11+0200</time>
      </trkpt>
      <trkpt lat="45.76901" lon="2.90105">
        <ele>832.683525</ele>
        <time>2021-07-06T14:46:15+0200</time>
      </trkpt>
      <trkpt lat="45.76901" lon="2.90114">
        <ele>832.926949</ele>
        <time>2021-07-06T14:46:19+0200</time>
      </trkpt>
      <trkpt lat="45.76899" lon="2.90121">
        <ele>835.243822</ele>
        <time>2021-07-06T14:46:22+0200</time>
      </trkpt>
      <trkpt lat="45.76899" lon="2.90129">
        <ele>837.201759</ele>
        <time>2021-07-06T14:46:26+0200</time>
      </trkpt>
      <trkpt lat="45.76899" lon="2.90136">
        <ele>840.079857</ele>
        <time>2021-07-06T14:46:29+0200</time>
      </trkpt>
      <trkpt lat="45.769" lon="2.90144">
        <ele>839.908393</ele>
        <time>2021-07-06T14:46:32+0200</time>
      </trkpt>
      <trkpt lat="45.769" lon="2.90153">
        <ele>839.142138</ele>
        <time>2021-07-06T14:46:35+0200</time>
      </trkpt>
      <trkpt lat="45.76901" lon="2.9016">
        <ele>840.138939</ele>
        <time>2021-07-06T14:46:38+0200</time>
      </trkpt>
      <trkpt lat="45.769" lon="2.90167">
        <ele>840.660402</ele>
        <time>2021-07-06T14:46:41+0200</time>
      </trkpt>
      <trkpt lat="45.76901" lon="2.90174">
        <ele>841.515017</ele>
        <time>2021-07-06T14:46:44+0200</time>
      </trkpt>
      <trkpt lat="45.76902" lon="2.90182">
        <ele>841.313735</ele>
        <time>2021-07-06T14:46:47+0200</time>
      </trkpt>
      <trkpt lat="45.76904" lon="2.90189">
        <ele>842.259051</ele>
        <time>2021-07-06T14:46:50+0200</time>
      </trkpt>
      <trkpt lat="45.76907" lon="2.90197">
        <ele>843.271697</ele>
        <time>2021-07-06T14:46:54+0200</time>
      </trkpt>
      <trkpt lat="45.76909" lon="2.90203">
        <ele>842.262376</ele>
        <time>2021-07-06T14:46:57+0200</time>
      </trkpt>
      <trkpt lat="45.76914" lon="2.90208">
        <ele>841.659656</ele>
        <time>2021-07-06T14:47:00+0200</time>
      </trkpt>
      <trkpt lat="45.76917" lon="2.90212">
        <ele>843.104275</ele>
        <time>2021-07-06T14:47:04+0200</time>
      </trkpt>
      <trkpt lat="45.76922" lon="2.90217">
        <ele>843.099951</ele>
        <time>2021-07-06T14:47:09+0200</time>
      </trkpt>
      <trkpt lat="45.76922" lon="2.90223">
        <ele>839.257448</ele>
        <time>2021-07-06T14:47:50+0200</time>
      </trkpt>
      <trkpt lat="45.76925" lon="2.90229">
        <ele>842.145766</ele>
        <time>2021-07-06T14:47:56+0200</time>
      </trkpt>
      <trkpt lat="45.76929" lon="2.90233">
        <ele>842.730904</ele>
        <time>2021-07-06T14:47:59+0200</time>
      </trkpt>
      <trkpt lat="45.76932" lon="2.90239">
        <ele>843.779385</ele>
        <time>2021-07-06T14:48:02+0200</time>
      </trkpt>
      <trkpt lat="45.76934" lon="2.90245">
        <ele>846.724138</ele>
        <time>2021-07-06T14:48:05+0200</time>
      </trkpt>
      <trkpt lat="45.76935" lon="2.90252">
        <ele>848.488729</ele>
        <time>2021-07-06T14:48:08+0200</time>
      </trkpt>
      <trkpt lat="45.76939" lon="2.90257">
        <ele>848.664273</ele>
        <time>2021-07-06T14:48:11+0200</time>
      </trkpt>
      <trkpt lat="45.76943" lon="2.90261">
        <ele>847.748317</ele>
        <time>2021-07-06T14:48:14+0200</time>
      </trkpt>
      <trkpt lat="45.76945" lon="2.90268">
        <ele>847.079224</ele>
        <time>2021-07-06T14:48:16+0200</time>
      </trkpt>
      <trkpt lat="45.76948" lon="2.90275">
        <ele>846.644834</ele>
        <time>2021-07-06T14:48:19+0200</time>
      </trkpt>
      <trkpt lat="45.76951" lon="2.90281">
        <ele>847.137312</ele>
        <time>2021-07-06T14:48:21+0200</time>
      </trkpt>
      <trkpt lat="45.76953" lon="2.90287">
        <ele>847.914623</ele>
        <time>2021-07-06T14:48:23+0200</time>
      </trkpt>
      <trkpt lat="45.76957" lon="2.90294">
        <ele>848.232299</ele>
        <time>2021-07-06T14:48:26+0200</time>
      </trkpt>
      <trkpt lat="45.7696" lon="2.90301">
        <ele>849.686897</ele>
        <time>2021-07-06T14:48:29+0200</time>
      </trkpt>
      <trkpt lat="45.76963" lon="2.90309">
        <ele>849.128665</ele>
        <time>2021-07-06T14:48:31+0200</time>
      </trkpt>
      <trkpt lat="45.76965" lon="2.90315">
        <ele>849.084021</ele>
        <time>2021-07-06T14:48:33+0200</time>
      </trkpt>
      <trkpt lat="45.7697" lon="2.90323">
        <ele>849.213193</ele>
        <time>2021-07-06T14:48:35+0200</time>
      </trkpt>
      <trkpt lat="45.76974" lon="2.90328">
        <ele>849.457391</ele>
        <time>2021-07-06T14:48:37+0200</time>
      </trkpt>
      <trkpt lat="45.76978" lon="2.90334">
        <ele>850.432943</ele>
        <time>2021-07-06T14:48:40+0200</time>
      </trkpt>
      <trkpt lat="45.76981" lon="2.90339">
        <ele>849.541758</ele>
        <time>2021-07-06T14:48:42+0200</time>
      </trkpt>
      <trkpt lat="45.76986" lon="2.90344">
        <ele>849.117246</ele>
        <time>2021-07-06T14:48:44+0200</time>
      </trkpt>
      <trkpt lat="45.76991" lon="2.90348">
        <ele>848.655442</ele>
        <time>2021-07-06T14:48:46+0200</time>
      </trkpt>
      <trkpt lat="45.76994" lon="2.90353">
        <ele>849.72617</ele>
        <time>2021-07-06T14:48:48+0200</time>
      </trkpt>
      <trkpt lat="45.76997" lon="2.90358">
        <ele>849.682138</ele>
        <time>2021-07-06T14:48:50+0200</time>
      </trkpt>
      <trkpt lat="45.77001" lon="2.90366">
        <ele>850.433537</ele>
        <time>2021-07-06T14:48:53+0200</time>
      </trkpt>
      <trkpt lat="45.77004" lon="2.90371">
        <ele>851.116854</ele>
        <time>2021-07-06T14:48:55+0200</time>
      </trkpt>
      <trkpt lat="45.77007" lon="2.90377">
        <ele>851.348883</ele>
        <time>2021-07-06T14:48:57+0200</time>
      </trkpt>
      <trkpt lat="45.77009" lon="2.90385">
        <ele>852.109613</ele>
        <time>2021-07-06T14:49:00+0200</time>
      </trkpt>
      <trkpt lat="45.77013" lon="2.90394">
        <ele>852.618811</ele>
        <time>2021-07-06T14:49:03+0200</time>
      </trkpt>
      <trkpt lat="45.77014" lon="2.90401">
        <ele>853.453485</ele>
        <time>2021-07-06T14:49:06+0200</time>
      </trkpt>
      <trkpt lat="45.77017" lon="2.90407">
        <ele>853.212061</ele>
        <time>2021-07-06T14:49:08+0200</time>
      </trkpt>
      <trkpt lat="45.77018" lon="2.90414">
        <ele>854.088424</ele>
        <time>2021-07-06T14:49:10+0200</time>
      </trkpt>
      <trkpt lat="45.7702" lon="2.90421">
        <ele>854.885221</ele>
        <time>2021-07-06T14:49:12+0200</time>
      </trkpt>
      <trkpt lat="45.77022" lon="2.9043">
        <ele>854.845533</ele>
        <time>2021-07-06T14:49:14+0200</time>
      </trkpt>
      <trkpt lat="45.77024" lon="2.90438">
        <ele>855.024943</ele>
        <time>2021-07-06T14:49:16+0200</time>
      </trkpt>
      <trkpt lat="45.77025" lon="2.90444">
        <ele>856.119541</ele>
        <time>2021-07-06T14:49:18+0200</time>
      </trkpt>
      <trkpt lat="45.77027" lon="2.90453">
        <ele>856.860565</ele>
        <time>2021-07-06T14:49:20+0200</time>
      </trkpt>
      <trkpt lat="45.77028" lon="2.9046">
        <ele>857.0285</ele>
        <time>2021-07-06T14:49:22+0200</time>
      </trkpt>
      <trkpt lat="45.7703" lon="2.90467">
        <ele>857.737621</ele>
        <time>2021-07-06T14:49:24+0200</time>
      </trkpt>
      <trkpt lat="45.77032" lon="2.90474">
        <ele>857.415898</ele>
        <time>2021-07-06T14:49:26+0200</time>
      </trkpt>
      <trkpt lat="45.77035" lon="2.90479">
        <ele>858.179189</ele>
        <time>2021-07-06T14:49:28+0200</time>
      </trkpt>
      <trkpt lat="45.77038" lon="2.90486">
        <ele>858.112889</ele>
        <time>2021-07-06T14:49:30+0200</time>
      </trkpt>
      <trkpt lat="45.7704" lon="2.90493">
        <ele>857.651738</ele>
        <time>2021-07-06T14:49:32+0200</time>
      </trkpt>
      <trkpt lat="45.77044" lon="2.90499">
        <ele>857.544681</ele>
        <time>2021-07-06T14:49:34+0200</time>
      </trkpt>
      <trkpt lat="45.77045" lon="2.90506">
        <ele>857.501074</ele>
        <time>2021-07-06T14:49:36+0200</time>
      </trkpt>
      <trkpt lat="45.77047" lon="2.90515">
        <ele>857.999878</ele>
        <time>2021-07-06T14:49:39+0200</time>
      </trkpt>
      <trkpt lat="45.77051" lon="2.90521">
        <ele>858.317709</ele>
        <time>2021-07-06T14:49:41+0200</time>
      </trkpt>
      <trkpt lat="45.77052" lon="2.90528">
        <ele>859.166004</ele>
        <time>2021-07-06T14:49:43+0200</time>
      </trkpt>
      <trkpt lat="45.77055" lon="2.90535">
        <ele>859.936847</ele>
        <time>2021-07-06T14:49:45+0200</time>
      </trkpt>
      <trkpt lat="45.77058" lon="2.90541">
        <ele>860.94644</ele>
        <time>2021-07-06T14:49:47+0200</time>
      </trkpt>
      <trkpt lat="45.7706" lon="2.9055">
        <ele>861.156411</ele>
        <time>2021-07-06T14:49:50+0200</time>
      </trkpt>
      <trkpt lat="45.77062" lon="2.90557">
        <ele>861.143685</ele>
        <time>2021-07-06T14:49:52+0200</time>
      </trkpt>
      <trkpt lat="45.77064" lon="2.90563">
        <ele>862.361865</ele>
        <time>2021-07-06T14:49:54+0200</time>
      </trkpt>
      <trkpt lat="45.77066" lon="2.9057">
        <ele>863.981344</ele>
        <time>2021-07-06T14:49:56+0200</time>
      </trkpt>
      <trkpt lat="45.77068" lon="2.90578">
        <ele>864.652705</ele>
        <time>2021-07-06T14:49:58+0200</time>
      </trkpt>
      <trkpt lat="45.7707" lon="2.90586">
        <ele>864.970496</ele>
        <time>2021-07-06T14:50:00+0200</time>
      </trkpt>
      <trkpt lat="45.77073" lon="2.90594">
        <ele>865.133654</ele>
        <time>2021-07-06T14:50:02+0200</time>
      </trkpt>
      <trkpt lat="45.77076" lon="2.90601">
        <ele>863.957945</ele>
        <time>2021-07-06T14:50:04+0200</time>
      </trkpt>
      <trkpt lat="45.77078" lon="2.90608">
        <ele>863.27514</ele>
        <time>2021-07-06T14:50:06+0200</time>
      </trkpt>
      <trkpt lat="45.77082" lon="2.90617">
        <ele>863.675743</ele>
        <time>2021-07-06T14:50:08+0200</time>
      </trkpt>
      <trkpt lat="45.77083" lon="2.90625">
        <ele>862.675429</ele>
        <time>2021-07-06T14:50:10+0200</time>
      </trkpt>
      <trkpt lat="45.77085" lon="2.90634">
        <ele>861.264766</ele>
        <time>2021-07-06T14:50:13+0200</time>
      </trkpt>
      <trkpt lat="45.77086" lon="2.90641">
        <ele>861.907121</ele>
        <time>2021-07-06T14:50:17+0200</time>
      </trkpt>
      <trkpt lat="45.77087" lon="2.90648">
        <ele>861.955257</ele>
        <time>2021-07-06T14:50:20+0200</time>
      </trkpt>
      <trkpt lat="45.77089" lon="2.90654">
        <ele>862.875521</ele>
        <time>2021-07-06T14:50:23+0200</time>
      </trkpt>
      <trkpt lat="45.7709" lon="2.90661">
        <ele>863.575367</ele>
        <time>2021-07-06T14:50:26+0200</time>
      </trkpt>
      <trkpt lat="45.77092" lon="2.90669">
        <ele>863.999734</ele>
        <time>2021-07-06T14:50:34+0200</time>
      </trkpt>
      <trkpt lat="45.77094" lon="2.90675">
        <ele>863.02517</ele>
        <time>2021-07-06T14:50:45+0200</time>
      </trkpt>
      <trkpt lat="45.77096" lon="2.90682">
        <ele>863.588334</ele>
        <time>2021-07-06T14:50:48+0200</time>
      </trkpt>
      <trkpt lat="45.77098" lon="2.90689">
        <ele>863.304914</ele>
        <time>2021-07-06T14:50:50+0200</time>
      </trkpt>
      <trkpt lat="45.771" lon="2.90698">
        <ele>865.32618</ele>
        <time>2021-07-06T14:50:53+0200</time>
      </trkpt>
      <trkpt lat="45.77102" lon="2.90707">
        <ele>865.892473</ele>
        <time>2021-07-06T14:50:56+0200</time>
      </trkpt>
      <trkpt lat="45.77104" lon="2.90715">
        <ele>864.899472</ele>
        <time>2021-07-06T14:50:58+0200</time>
      </trkpt>
      <trkpt lat="45.77105" lon="2.90723">
        <ele>866.109161</ele>
        <time>2021-07-06T14:51:00+0200</time>
      </trkpt>
      <trkpt lat="45.77108" lon="2.90733">
        <ele>865.710195</ele>
        <time>2021-07-06T14:51:02+0200</time>
      </trkpt>
      <trkpt lat="45.77109" lon="2.90741">
        <ele>865.86011</ele>
        <time>2021-07-06T14:51:04+0200</time>
      </trkpt>
      <trkpt lat="45.77111" lon="2.9075">
        <ele>866.963757</ele>
        <time>2021-07-06T14:51:06+0200</time>
      </trkpt>
      <trkpt lat="45.77113" lon="2.90758">
        <ele>867.182782</ele>
        <time>2021-07-06T14:51:08+0200</time>
      </trkpt>
      <trkpt lat="45.77116" lon="2.90768">
        <ele>866.776443</ele>
        <time>2021-07-06T14:51:10+0200</time>
      </trkpt>
      <trkpt lat="45.7712" lon="2.90777">
        <ele>866.684915</ele>
        <time>2021-07-06T14:51:12+0200</time>
      </trkpt>
      <trkpt lat="45.77123" lon="2.90786">
        <ele>867.029435</ele>
        <time>2021-07-06T14:51:14+0200</time>
      </trkpt>
      <trkpt lat="45.77127" lon="2.90796">
        <ele>866.4666</ele>
        <time>2021-07-06T14:51:16+0200</time>
      </trkpt>
      <trkpt lat="45.77129" lon="2.90806">
        <ele>866.089138</ele>
        <time>2021-07-06T14:51:18+0200</time>
      </trkpt>
      <trkpt lat="45.77132" lon="2.90816">
        <ele>864.966127</ele>
        <time>2021-07-06T14:51:20+0200</time>
      </trkpt>
      <trkpt lat="45.77134" lon="2.90823">
        <ele>864.100925</ele>
        <time>2021-07-06T14:51:21+0200</time>
      </trkpt>
      <trkpt lat="45.77136" lon="2.90834">
        <ele>863.580355</ele>
        <time>2021-07-06T14:51:23+0200</time>
      </trkpt>
      <trkpt lat="45.7714" lon="2.90846">
        <ele>862.935714</ele>
        <time>2021-07-06T14:51:25+0200</time>
      </trkpt>
      <trkpt lat="45.77142" lon="2.90853">
        <ele>863.107477</ele>
        <time>2021-07-06T14:51:26+0200</time>
      </trkpt>
      <trkpt lat="45.77144" lon="2.90859">
        <ele>863.823573</ele>
        <time>2021-07-06T14:51:27+0200</time>
      </trkpt>
      <trkpt lat="45.77146" lon="2.90865">
        <ele>863.540519</ele>
        <time>2021-07-06T14:51:28+0200</time>
      </trkpt>
      <trkpt lat="45.77148" lon="2.90872">
        <ele>863.299261</ele>
        <time>2021-07-06T14:51:29+0200</time>
      </trkpt>
      <trkpt lat="45.7715" lon="2.90879">
        <ele>862.769346</ele>
        <time>2021-07-06T14:51:30+0200</time>
      </trkpt>
      <trkpt lat="45.77153" lon="2.90884">
        <ele>862.787939</ele>
        <time>2021-07-06T14:51:31+0200</time>
      </trkpt>
      <trkpt lat="45.77156" lon="2.90891">
        <ele>862.653684</ele>
        <time>2021-07-06T14:51:32+0200</time>
      </trkpt>
      <trkpt lat="45.77158" lon="2.90897">
        <ele>862.683498</ele>
        <time>2021-07-06T14:51:33+0200</time>
      </trkpt>
      <trkpt lat="45.77161" lon="2.90902">
        <ele>862.784967</ele>
        <time>2021-07-06T14:51:34+0200</time>
      </trkpt>
      <trkpt lat="45.77164" lon="2.90908">
        <ele>863.176933</ele>
        <time>2021-07-06T14:51:35+0200</time>
      </trkpt>
      <trkpt lat="45.77168" lon="2.90917">
        <ele>864.153853</ele>
        <time>2021-07-06T14:51:37+0200</time>
      </trkpt>
      <trkpt lat="45.7717" lon="2.90923">
        <ele>864.199964</ele>
        <time>2021-07-06T14:51:38+0200</time>
      </trkpt>
      <trkpt lat="45.77175" lon="2.90934">
        <ele>864.103891</ele>
        <time>2021-07-06T14:51:40+0200</time>
      </trkpt>
      <trkpt lat="45.77179" lon="2.90944">
        <ele>863.648738</ele>
        <time>2021-07-06T14:51:42+0200</time>
      </trkpt>
      <trkpt lat="45.77183" lon="2.90954">
        <ele>865.823096</ele>
        <time>2021-07-06T14:51:44+0200</time>
      </trkpt>
      <trkpt lat="45.77186" lon="2.90964">
        <ele>866.35035</ele>
        <time>2021-07-06T14:51:46+0200</time>
      </trkpt>
      <trkpt lat="45.77191" lon="2.90976">
        <ele>866.230156</ele>
        <time>2021-07-06T14:51:48+0200</time>
      </trkpt>
      <trkpt lat="45.77195" lon="2.90987">
        <ele>866.574267</ele>
        <time>2021-07-06T14:51:50+0200</time>
      </trkpt>
      <trkpt lat="45.77199" lon="2.90996">
        <ele>866.389139</ele>
        <time>2021-07-06T14:51:52+0200</time>
      </trkpt>
      <trkpt lat="45.77203" lon="2.91006">
        <ele>867.020617</ele>
        <time>2021-07-06T14:51:54+0200</time>
      </trkpt>
      <trkpt lat="45.77205" lon="2.91012">
        <ele>868.494315</ele>
        <time>2021-07-06T14:51:56+0200</time>
      </trkpt>
      <trkpt lat="45.77208" lon="2.91021">
        <ele>868.090938</ele>
        <time>2021-07-06T14:51:58+0200</time>
      </trkpt>
      <trkpt lat="45.77211" lon="2.91029">
        <ele>868.564127</ele>
        <time>2021-07-06T14:52:00+0200</time>
      </trkpt>
      <trkpt lat="45.77213" lon="2.91038">
        <ele>867.96419</ele>
        <time>2021-07-06T14:52:02+0200</time>
      </trkpt>
      <trkpt lat="45.77215" lon="2.91044">
        <ele>867.367901</ele>
        <time>2021-07-06T14:52:03+0200</time>
      </trkpt>
      <trkpt lat="45.77219" lon="2.91054">
        <ele>866.715206</ele>
        <time>2021-07-06T14:52:05+0200</time>
      </trkpt>
      <trkpt lat="45.7722" lon="2.91062">
        <ele>865.853399</ele>
        <time>2021-07-06T14:52:07+0200</time>
      </trkpt>
      <trkpt lat="45.77223" lon="2.91072">
        <ele>864.304438</ele>
        <time>2021-07-06T14:52:09+0200</time>
      </trkpt>
      <trkpt lat="45.77227" lon="2.91079">
        <ele>864.241135</ele>
        <time>2021-07-06T14:52:11+0200</time>
      </trkpt>
      <trkpt lat="45.7723" lon="2.91087">
        <ele>864.233695</ele>
        <time>2021-07-06T14:52:13+0200</time>
      </trkpt>
      <trkpt lat="45.77234" lon="2.91095">
        <ele>864.421303</ele>
        <time>2021-07-06T14:52:15+0200</time>
      </trkpt>
      <trkpt lat="45.77238" lon="2.91102">
        <ele>864.782978</ele>
        <time>2021-07-06T14:52:17+0200</time>
      </trkpt>
      <trkpt lat="45.77242" lon="2.9111">
        <ele>865.670537</ele>
        <time>2021-07-06T14:52:19+0200</time>
      </trkpt>
      <trkpt lat="45.77246" lon="2.91119">
        <ele>865.609487</ele>
        <time>2021-07-06T14:52:21+0200</time>
      </trkpt>
      <trkpt lat="45.77249" lon="2.91126">
        <ele>866.112844</ele>
        <time>2021-07-06T14:52:23+0200</time>
      </trkpt>
      <trkpt lat="45.77254" lon="2.91133">
        <ele>866.693979</ele>
        <time>2021-07-06T14:52:25+0200</time>
      </trkpt>
      <trkpt lat="45.77257" lon="2.91139">
        <ele>866.772717</ele>
        <time>2021-07-06T14:52:27+0200</time>
      </trkpt>
      <trkpt lat="45.77261" lon="2.91146">
        <ele>866.924524</ele>
        <time>2021-07-06T14:52:29+0200</time>
      </trkpt>
      <trkpt lat="45.77265" lon="2.91151">
        <ele>867.309016</ele>
        <time>2021-07-06T14:52:31+0200</time>
      </trkpt>
      <trkpt lat="45.77269" lon="2.91158">
        <ele>867.743014</ele>
        <time>2021-07-06T14:52:33+0200</time>
      </trkpt>
      <trkpt lat="45.77272" lon="2.91166">
        <ele>867.625145</ele>
        <time>2021-07-06T14:52:35+0200</time>
      </trkpt>
      <trkpt lat="45.77277" lon="2.91173">
        <ele>868.643363</ele>
        <time>2021-07-06T14:52:37+0200</time>
      </trkpt>
      <trkpt lat="45.77281" lon="2.91181">
        <ele>867.961403</ele>
        <time>2021-07-06T14:52:39+0200</time>
      </trkpt>
      <trkpt lat="45.77285" lon="2.9119">
        <ele>867.169058</ele>
        <time>2021-07-06T14:52:41+0200</time>
      </trkpt>
      <trkpt lat="45.77289" lon="2.91197">
        <ele>867.530076</ele>
        <time>2021-07-06T14:52:43+0200</time>
      </trkpt>
      <trkpt lat="45.77294" lon="2.91204">
        <ele>868.012772</ele>
        <time>2021-07-06T14:52:45+0200</time>
      </trkpt>
      <trkpt lat="45.77298" lon="2.91211">
        <ele>868.310938</ele>
        <time>2021-07-06T14:52:47+0200</time>
      </trkpt>
      <trkpt lat="45.77302" lon="2.91218">
        <ele>868.678253</ele>
        <time>2021-07-06T14:52:49+0200</time>
      </trkpt>
      <trkpt lat="45.77306" lon="2.91223">
        <ele>869.526778</ele>
        <time>2021-07-06T14:52:51+0200</time>
      </trkpt>
      <trkpt lat="45.7731" lon="2.91229">
        <ele>870.558631</ele>
        <time>2021-07-06T14:52:53+0200</time>
      </trkpt>
      <trkpt lat="45.77314" lon="2.91236">
        <ele>870.882168</ele>
        <time>2021-07-06T14:52:55+0200</time>
      </trkpt>
      <trkpt lat="45.77321" lon="2.91243">
        <ele>870.30431</ele>
        <time>2021-07-06T14:52:57+0200</time>
      </trkpt>
      <trkpt lat="45.77326" lon="2.91248">
        <ele>869.832044</ele>
        <time>2021-07-06T14:52:59+0200</time>
      </trkpt>
      <trkpt lat="45.77331" lon="2.91253">
        <ele>870.734476</ele>
        <time>2021-07-06T14:53:01+0200</time>
      </trkpt>
      <trkpt lat="45.77336" lon="2.91259">
        <ele>870.302334</ele>
        <time>2021-07-06T14:53:03+0200</time>
      </trkpt>
      <trkpt lat="45.7734" lon="2.91262">
        <ele>870.854952</ele>
        <time>2021-07-06T14:53:05+0200</time>
      </trkpt>
      <trkpt lat="45.77345" lon="2.91264">
        <ele>870.986697</ele>
        <time>2021-07-06T14:53:07+0200</time>
      </trkpt>
      <trkpt lat="45.77351" lon="2.91267">
        <ele>871.709432</ele>
        <time>2021-07-06T14:53:09+0200</time>
      </trkpt>
      <trkpt lat="45.77356" lon="2.91268">
        <ele>871.756387</ele>
        <time>2021-07-06T14:53:11+0200</time>
      </trkpt>
      <trkpt lat="45.77361" lon="2.91269">
        <ele>872.713647</ele>
        <time>2021-07-06T14:53:13+0200</time>
      </trkpt>
      <trkpt lat="45.77367" lon="2.9127">
        <ele>874.022563</ele>
        <time>2021-07-06T14:53:15+0200</time>
      </trkpt>
      <trkpt lat="45.77374" lon="2.91273">
        <ele>874.29723</ele>
        <time>2021-07-06T14:53:18+0200</time>
      </trkpt>
      <trkpt lat="45.77381" lon="2.91275">
        <ele>874.228038</ele>
        <time>2021-07-06T14:53:20+0200</time>
      </trkpt>
      <trkpt lat="45.77387" lon="2.91276">
        <ele>875.867035</ele>
        <time>2021-07-06T14:53:22+0200</time>
      </trkpt>
      <trkpt lat="45.77393" lon="2.91278">
        <ele>876.691507</ele>
        <time>2021-07-06T14:53:24+0200</time>
      </trkpt>
      <trkpt lat="45.77399" lon="2.9128">
        <ele>877.255686</ele>
        <time>2021-07-06T14:53:26+0200</time>
      </trkpt>
      <trkpt lat="45.77404" lon="2.91282">
        <ele>877.503291</ele>
        <time>2021-07-06T14:53:28+0200</time>
      </trkpt>
      <trkpt lat="45.77411" lon="2.91285">
        <ele>876.757586</ele>
        <time>2021-07-06T14:53:30+0200</time>
      </trkpt>
      <trkpt lat="45.77417" lon="2.91289">
        <ele>875.268342</ele>
        <time>2021-07-06T14:53:32+0200</time>
      </trkpt>
      <trkpt lat="45.77424" lon="2.91292">
        <ele>874.28511</ele>
        <time>2021-07-06T14:53:34+0200</time>
      </trkpt>
      <trkpt lat="45.77431" lon="2.91297">
        <ele>873.003195</ele>
        <time>2021-07-06T14:53:36+0200</time>
      </trkpt>
      <trkpt lat="45.77436" lon="2.91299">
        <ele>874.126624</ele>
        <time>2021-07-06T14:53:38+0200</time>
      </trkpt>
      <trkpt lat="45.77442" lon="2.91301">
        <ele>874.176003</ele>
        <time>2021-07-06T14:53:40+0200</time>
      </trkpt>
      <trkpt lat="45.77447" lon="2.91305">
        <ele>874.553386</ele>
        <time>2021-07-06T14:53:42+0200</time>
      </trkpt>
      <trkpt lat="45.77453" lon="2.91309">
        <ele>874.223752</ele>
        <time>2021-07-06T14:53:44+0200</time>
      </trkpt>
      <trkpt lat="45.77457" lon="2.91313">
        <ele>875.104952</ele>
        <time>2021-07-06T14:53:46+0200</time>
      </trkpt>
      <trkpt lat="45.77463" lon="2.91317">
        <ele>874.976452</ele>
        <time>2021-07-06T14:53:48+0200</time>
      </trkpt>
      <trkpt lat="45.77469" lon="2.91324">
        <ele>875.230519</ele>
        <time>2021-07-06T14:53:49+0200</time>
      </trkpt>
      <trkpt lat="45.77475" lon="2.91328">
        <ele>876.343341</ele>
        <time>2021-07-06T14:53:51+0200</time>
      </trkpt>
      <trkpt lat="45.7748" lon="2.91333">
        <ele>876.069266</ele>
        <time>2021-07-06T14:53:53+0200</time>
      </trkpt>
      <trkpt lat="45.77485" lon="2.91337">
        <ele>877.634372</ele>
        <time>2021-07-06T14:53:55+0200</time>
      </trkpt>
      <trkpt lat="45.77492" lon="2.91342">
        <ele>878.028533</ele>
        <time>2021-07-06T14:53:57+0200</time>
      </trkpt>
      <trkpt lat="45.77496" lon="2.91345">
        <ele>877.224334</ele>
        <time>2021-07-06T14:53:58+0200</time>
      </trkpt>
      <trkpt lat="45.77503" lon="2.9135">
        <ele>877.315724</ele>
        <time>2021-07-06T14:54:00+0200</time>
      </trkpt>
      <trkpt lat="45.77509" lon="2.91357">
        <ele>877.84205</ele>
        <time>2021-07-06T14:54:02+0200</time>
      </trkpt>
      <trkpt lat="45.77515" lon="2.91364">
        <ele>877.958375</ele>
        <time>2021-07-06T14:54:04+0200</time>
      </trkpt>
      <trkpt lat="45.77521" lon="2.9137">
        <ele>878.867261</ele>
        <time>2021-07-06T14:54:06+0200</time>
      </trkpt>
      <trkpt lat="45.77527" lon="2.91375">
        <ele>879.581878</ele>
        <time>2021-07-06T14:54:08+0200</time>
      </trkpt>
      <trkpt lat="45.77533" lon="2.91379">
        <ele>880.372242</ele>
        <time>2021-07-06T14:54:10+0200</time>
      </trkpt>
      <trkpt lat="45.77538" lon="2.91382">
        <ele>882.554423</ele>
        <time>2021-07-06T14:54:12+0200</time>
      </trkpt>
      <trkpt lat="45.77544" lon="2.91386">
        <ele>882.395749</ele>
        <time>2021-07-06T14:54:14+0200</time>
      </trkpt>
      <trkpt lat="45.7755" lon="2.91391">
        <ele>882.275389</ele>
        <time>2021-07-06T14:54:16+0200</time>
      </trkpt>
      <trkpt lat="45.77554" lon="2.91394">
        <ele>881.710947</ele>
        <time>2021-07-06T14:54:17+0200</time>
      </trkpt>
      <trkpt lat="45.77559" lon="2.91401">
        <ele>882.848641</ele>
        <time>2021-07-06T14:54:19+0200</time>
      </trkpt>
      <trkpt lat="45.77566" lon="2.91407">
        <ele>883.342053</ele>
        <time>2021-07-06T14:54:21+0200</time>
      </trkpt>
      <trkpt lat="45.7757" lon="2.91411">
        <ele>885.034564</ele>
        <time>2021-07-06T14:54:23+0200</time>
      </trkpt>
      <trkpt lat="45.77575" lon="2.91415">
        <ele>885.962774</ele>
        <time>2021-07-06T14:54:25+0200</time>
      </trkpt>
      <trkpt lat="45.77581" lon="2.91419">
        <ele>885.692407</ele>
        <time>2021-07-06T14:54:27+0200</time>
      </trkpt>
      <trkpt lat="45.77586" lon="2.91426">
        <ele>885.042284</ele>
        <time>2021-07-06T14:54:29+0200</time>
      </trkpt>
      <trkpt lat="45.77593" lon="2.91432">
        <ele>884.015773</ele>
        <time>2021-07-06T14:54:31+0200</time>
      </trkpt>
      <trkpt lat="45.77598" lon="2.91437">
        <ele>883.413186</ele>
        <time>2021-07-06T14:54:33+0200</time>
      </trkpt>
      <trkpt lat="45.77602" lon="2.91442">
        <ele>882.892618</ele>
        <time>2021-07-06T14:54:35+0200</time>
      </trkpt>
      <trkpt lat="45.77607" lon="2.91448">
        <ele>880.841411</ele>
        <time>2021-07-06T14:54:37+0200</time>
      </trkpt>
      <trkpt lat="45.77612" lon="2.91453">
        <ele>880.602445</ele>
        <time>2021-07-06T14:54:39+0200</time>
      </trkpt>
      <trkpt lat="45.77615" lon="2.91458">
        <ele>879.51577</ele>
        <time>2021-07-06T14:54:41+0200</time>
      </trkpt>
      <trkpt lat="45.77618" lon="2.91464">
        <ele>879.018612</ele>
        <time>2021-07-06T14:54:43+0200</time>
      </trkpt>
      <trkpt lat="45.77622" lon="2.91469">
        <ele>877.659107</ele>
        <time>2021-07-06T14:54:46+0200</time>
      </trkpt>
      <trkpt lat="45.77618" lon="2.91473">
        <ele>878.026896</ele>
        <time>2021-07-06T14:54:52+0200</time>
      </trkpt>
      <trkpt lat="45.77616" lon="2.9148">
        <ele>880.596136</ele>
        <time>2021-07-06T14:55:33+0200</time>
      </trkpt>
      <trkpt lat="45.77611" lon="2.91478">
        <ele>885.287287</ele>
        <time>2021-07-06T14:56:17+0200</time>
      </trkpt>
      <trkpt lat="45.77615" lon="2.91481">
        <ele>881.104201</ele>
        <time>2021-07-06T14:56:31+0200</time>
      </trkpt>
      <trkpt lat="45.77616" lon="2.91488">
        <ele>881.601954</ele>
        <time>2021-07-06T14:57:06+0200</time>
      </trkpt>
      <trkpt lat="45.77612" lon="2.91492">
        <ele>883.100867</ele>
        <time>2021-07-06T14:57:35+0200</time>
      </trkpt>
      <trkpt lat="45.77615" lon="2.91487">
        <ele>880.581485</ele>
        <time>2021-07-06T14:57:39+0200</time>
      </trkpt>
      <trkpt lat="45.77619" lon="2.91482">
        <ele>880.405079</ele>
        <time>2021-07-06T14:58:38+0200</time>
      </trkpt>
      <trkpt lat="45.77614" lon="2.91483">
        <ele>878.666181</ele>
        <time>2021-07-06T14:59:23+0200</time>
      </trkpt>
      <trkpt lat="45.77614" lon="2.9149">
        <ele>879.244626</ele>
        <time>2021-07-06T14:59:32+0200</time>
      </trkpt>
      <trkpt lat="45.77617" lon="2.91485">
        <ele>879.383659</ele>
        <time>2021-07-06T14:59:46+0200</time>
      </trkpt>
      <trkpt lat="45.77619" lon="2.91479">
        <ele>882.163454</ele>
        <time>2021-07-06T15:00:11+0200</time>
      </trkpt>
      <trkpt lat="45.7762" lon="2.91486">
        <ele>881.675636</ele>
        <time>2021-07-06T15:00:23+0200</time>
      </trkpt>
      <trkpt lat="45.77624" lon="2.91491">
        <ele>882.037724</ele>
        <time>2021-07-06T15:00:27+0200</time>
      </trkpt>
      <trkpt lat="45.77628" lon="2.91498">
        <ele>881.885521</ele>
        <time>2021-07-06T15:00:30+0200</time>
      </trkpt>
      <trkpt lat="45.77632" lon="2.91503">
        <ele>882.38182</ele>
        <time>2021-07-06T15:00:33+0200</time>
      </trkpt>
      <trkpt lat="45.77638" lon="2.91505">
        <ele>884.839982</ele>
        <time>2021-07-06T15:00:37+0200</time>
      </trkpt>
      <trkpt lat="45.77643" lon="2.91508">
        <ele>886.612746</ele>
        <time>2021-07-06T15:00:40+0200</time>
      </trkpt>
      <trkpt lat="45.77648" lon="2.9151">
        <ele>887.001622</ele>
        <time>2021-07-06T15:00:43+0200</time>
      </trkpt>
      <trkpt lat="45.77653" lon="2.91511">
        <ele>887.95338</ele>
        <time>2021-07-06T15:00:46+0200</time>
      </trkpt>
      <trkpt lat="45.77658" lon="2.91511">
        <ele>888.190206</ele>
        <time>2021-07-06T15:00:49+0200</time>
      </trkpt>
      <trkpt lat="45.77665" lon="2.91511">
        <ele>887.456824</ele>
        <time>2021-07-06T15:00:52+0200</time>
      </trkpt>
      <trkpt lat="45.77669" lon="2.91514">
        <ele>888.145956</ele>
        <time>2021-07-06T15:00:54+0200</time>
      </trkpt>
      <trkpt lat="45.77674" lon="2.91518">
        <ele>891.056293</ele>
        <time>2021-07-06T15:00:57+0200</time>
      </trkpt>
      <trkpt lat="45.77679" lon="2.91522">
        <ele>891.114512</ele>
        <time>2021-07-06T15:00:59+0200</time>
      </trkpt>
      <trkpt lat="45.77683" lon="2.91525">
        <ele>891.908517</ele>
        <time>2021-07-06T15:01:01+0200</time>
      </trkpt>
      <trkpt lat="45.77689" lon="2.91529">
        <ele>892.519152</ele>
        <time>2021-07-06T15:01:03+0200</time>
      </trkpt>
      <trkpt lat="45.77694" lon="2.91533">
        <ele>892.875185</ele>
        <time>2021-07-06T15:01:05+0200</time>
      </trkpt>
      <trkpt lat="45.77698" lon="2.91539">
        <ele>892.034345</ele>
        <time>2021-07-06T15:01:07+0200</time>
      </trkpt>
      <trkpt lat="45.77704" lon="2.91546">
        <ele>889.658533</ele>
        <time>2021-07-06T15:01:09+0200</time>
      </trkpt>
      <trkpt lat="45.7771" lon="2.91551">
        <ele>890.039088</ele>
        <time>2021-07-06T15:01:12+0200</time>
      </trkpt>
      <trkpt lat="45.77715" lon="2.91557">
        <ele>888.699789</ele>
        <time>2021-07-06T15:01:14+0200</time>
      </trkpt>
      <trkpt lat="45.7772" lon="2.91564">
        <ele>885.608397</ele>
        <time>2021-07-06T15:01:17+0200</time>
      </trkpt>
      <trkpt lat="45.77723" lon="2.9157">
        <ele>884.59784</ele>
        <time>2021-07-06T15:01:20+0200</time>
      </trkpt>
      <trkpt lat="45.77728" lon="2.91573">
        <ele>884.170171</ele>
        <time>2021-07-06T15:01:22+0200</time>
      </trkpt>
      <trkpt lat="45.77732" lon="2.91576">
        <ele>884.326423</ele>
        <time>2021-07-06T15:01:24+0200</time>
      </trkpt>
      <trkpt lat="45.77738" lon="2.91581">
        <ele>885.191002</ele>
        <time>2021-07-06T15:01:26+0200</time>
      </trkpt>
      <trkpt lat="45.77743" lon="2.91584">
        <ele>884.422636</ele>
        <time>2021-07-06T15:01:28+0200</time>
      </trkpt>
      <trkpt lat="45.77749" lon="2.91588">
        <ele>884.548916</ele>
        <time>2021-07-06T15:01:30+0200</time>
      </trkpt>
      <trkpt lat="45.77755" lon="2.91592">
        <ele>885.211275</ele>
        <time>2021-07-06T15:01:32+0200</time>
      </trkpt>
      <trkpt lat="45.77759" lon="2.91597">
        <ele>884.82496</ele>
        <time>2021-07-06T15:01:33+0200</time>
      </trkpt>
      <trkpt lat="45.77765" lon="2.91605">
        <ele>883.811889</ele>
        <time>2021-07-06T15:01:35+0200</time>
      </trkpt>
      <trkpt lat="45.77769" lon="2.91609">
        <ele>884.059189</ele>
        <time>2021-07-06T15:01:36+0200</time>
      </trkpt>
      <trkpt lat="45.77775" lon="2.91616">
        <ele>884.083501</ele>
        <time>2021-07-06T15:01:38+0200</time>
      </trkpt>
      <trkpt lat="45.7778" lon="2.91623">
        <ele>885.327318</ele>
        <time>2021-07-06T15:01:40+0200</time>
      </trkpt>
      <trkpt lat="45.77785" lon="2.91632">
        <ele>885.865704</ele>
        <time>2021-07-06T15:01:42+0200</time>
      </trkpt>
      <trkpt lat="45.7779" lon="2.9164">
        <ele>886.155147</ele>
        <time>2021-07-06T15:01:44+0200</time>
      </trkpt>
      <trkpt lat="45.77794" lon="2.91647">
        <ele>885.977764</ele>
        <time>2021-07-06T15:01:46+0200</time>
      </trkpt>
      <trkpt lat="45.77797" lon="2.91653">
        <ele>885.593273</ele>
        <time>2021-07-06T15:01:48+0200</time>
      </trkpt>
      <trkpt lat="45.77801" lon="2.91658">
        <ele>885.616025</ele>
        <time>2021-07-06T15:01:50+0200</time>
      </trkpt>
      <trkpt lat="45.77804" lon="2.91663">
        <ele>884.949853</ele>
        <time>2021-07-06T15:01:52+0200</time>
      </trkpt>
      <trkpt lat="45.77809" lon="2.91672">
        <ele>885.704608</ele>
        <time>2021-07-06T15:01:55+0200</time>
      </trkpt>
      <trkpt lat="45.77814" lon="2.91678">
        <ele>884.165886</ele>
        <time>2021-07-06T15:01:57+0200</time>
      </trkpt>
      <trkpt lat="45.7782" lon="2.91684">
        <ele>885.764623</ele>
        <time>2021-07-06T15:02:00+0200</time>
      </trkpt>
      <trkpt lat="45.77825" lon="2.91686">
        <ele>886.078935</ele>
        <time>2021-07-06T15:02:06+0200</time>
      </trkpt>
      <trkpt lat="45.77829" lon="2.91692">
        <ele>884.605174</ele>
        <time>2021-07-06T15:02:09+0200</time>
      </trkpt>
      <trkpt lat="45.77832" lon="2.91697">
        <ele>884.971979</ele>
        <time>2021-07-06T15:02:11+0200</time>
      </trkpt>
      <trkpt lat="45.77836" lon="2.91704">
        <ele>882.583066</ele>
        <time>2021-07-06T15:02:13+0200</time>
      </trkpt>
      <trkpt lat="45.7784" lon="2.9171">
        <ele>882.043833</ele>
        <time>2021-07-06T15:02:15+0200</time>
      </trkpt>
      <trkpt lat="45.77845" lon="2.91718">
        <ele>881.082215</ele>
        <time>2021-07-06T15:02:17+0200</time>
      </trkpt>
      <trkpt lat="45.77849" lon="2.91726">
        <ele>880.392802</ele>
        <time>2021-07-06T15:02:19+0200</time>
      </trkpt>
      <trkpt lat="45.77853" lon="2.91733">
        <ele>881.381796</ele>
        <time>2021-07-06T15:02:21+0200</time>
      </trkpt>
      <trkpt lat="45.77856" lon="2.91739">
        <ele>881.155927</ele>
        <time>2021-07-06T15:02:23+0200</time>
      </trkpt>
      <trkpt lat="45.77858" lon="2.91745">
        <ele>881.067417</ele>
        <time>2021-07-06T15:02:25+0200</time>
      </trkpt>
      <trkpt lat="45.77859" lon="2.91752">
        <ele>880.795024</ele>
        <time>2021-07-06T15:02:27+0200</time>
      </trkpt>
      <trkpt lat="45.77863" lon="2.91761">
        <ele>880.855995</ele>
        <time>2021-07-06T15:02:30+0200</time>
      </trkpt>
      <trkpt lat="45.77866" lon="2.9177">
        <ele>882.215485</ele>
        <time>2021-07-06T15:02:33+0200</time>
      </trkpt>
      <trkpt lat="45.77867" lon="2.91777">
        <ele>881.292693</ele>
        <time>2021-07-06T15:02:35+0200</time>
      </trkpt>
      <trkpt lat="45.7787" lon="2.91783">
        <ele>882.185759</ele>
        <time>2021-07-06T15:02:38+0200</time>
      </trkpt>
      <trkpt lat="45.77873" lon="2.91789">
        <ele>882.549237</ele>
        <time>2021-07-06T15:02:40+0200</time>
      </trkpt>
      <trkpt lat="45.77875" lon="2.91796">
        <ele>881.923652</ele>
        <time>2021-07-06T15:02:42+0200</time>
      </trkpt>
      <trkpt lat="45.77878" lon="2.91803">
        <ele>882.381389</ele>
        <time>2021-07-06T15:02:45+0200</time>
      </trkpt>
      <trkpt lat="45.77881" lon="2.91811">
        <ele>883.819944</ele>
        <time>2021-07-06T15:02:48+0200</time>
      </trkpt>
      <trkpt lat="45.77884" lon="2.91817">
        <ele>883.932765</ele>
        <time>2021-07-06T15:02:50+0200</time>
      </trkpt>
      <trkpt lat="45.77885" lon="2.91826">
        <ele>885.3845</ele>
        <time>2021-07-06T15:02:53+0200</time>
      </trkpt>
      <trkpt lat="45.77888" lon="2.91832">
        <ele>887.100582</ele>
        <time>2021-07-06T15:02:56+0200</time>
      </trkpt>
      <trkpt lat="45.7789" lon="2.91839">
        <ele>888.285785</ele>
        <time>2021-07-06T15:02:59+0200</time>
      </trkpt>
      <trkpt lat="45.77895" lon="2.91847">
        <ele>887.52429</ele>
        <time>2021-07-06T15:03:02+0200</time>
      </trkpt>
      <trkpt lat="45.77898" lon="2.91853">
        <ele>888.20259</ele>
        <time>2021-07-06T15:03:04+0200</time>
      </trkpt>
      <trkpt lat="45.779" lon="2.9186">
        <ele>889.156136</ele>
        <time>2021-07-06T15:03:08+0200</time>
      </trkpt>
      <trkpt lat="45.77904" lon="2.91867">
        <ele>889.683971</ele>
        <time>2021-07-06T15:03:12+0200</time>
      </trkpt>
      <trkpt lat="45.77907" lon="2.91874">
        <ele>890.311141</ele>
        <time>2021-07-06T15:03:16+0200</time>
      </trkpt>
      <trkpt lat="45.77911" lon="2.9188">
        <ele>889.819374</ele>
        <time>2021-07-06T15:03:18+0200</time>
      </trkpt>
      <trkpt lat="45.77915" lon="2.91887">
        <ele>888.508282</ele>
        <time>2021-07-06T15:03:20+0200</time>
      </trkpt>
      <trkpt lat="45.77917" lon="2.91893">
        <ele>889.98718</ele>
        <time>2021-07-06T15:03:23+0200</time>
      </trkpt>
      <trkpt lat="45.77921" lon="2.919">
        <ele>889.76524</ele>
        <time>2021-07-06T15:03:25+0200</time>
      </trkpt>
      <trkpt lat="45.77925" lon="2.91908">
        <ele>890.30826</ele>
        <time>2021-07-06T15:03:28+0200</time>
      </trkpt>
      <trkpt lat="45.77929" lon="2.91913">
        <ele>889.850746</ele>
        <time>2021-07-06T15:03:30+0200</time>
      </trkpt>
      <trkpt lat="45.77932" lon="2.91918">
        <ele>889.95896</ele>
        <time>2021-07-06T15:03:32+0200</time>
      </trkpt>
      <trkpt lat="45.77935" lon="2.91924">
        <ele>890.550483</ele>
        <time>2021-07-06T15:03:34+0200</time>
      </trkpt>
      <trkpt lat="45.77939" lon="2.91931">
        <ele>891.334143</ele>
        <time>2021-07-06T15:03:37+0200</time>
      </trkpt>
      <trkpt lat="45.77942" lon="2.91936">
        <ele>893.30453</ele>
        <time>2021-07-06T15:03:40+0200</time>
      </trkpt>
      <trkpt lat="45.77947" lon="2.9194">
        <ele>895.350926</ele>
        <time>2021-07-06T15:03:43+0200</time>
      </trkpt>
      <trkpt lat="45.77951" lon="2.91945">
        <ele>894.151303</ele>
        <time>2021-07-06T15:03:45+0200</time>
      </trkpt>
      <trkpt lat="45.77956" lon="2.91951">
        <ele>893.840449</ele>
        <time>2021-07-06T15:03:48+0200</time>
      </trkpt>
      <trkpt lat="45.77961" lon="2.91955">
        <ele>895.098018</ele>
        <time>2021-07-06T15:03:51+0200</time>
      </trkpt>
      <trkpt lat="45.77966" lon="2.91961">
        <ele>894.564787</ele>
        <time>2021-07-06T15:03:54+0200</time>
      </trkpt>
      <trkpt lat="45.77971" lon="2.91965">
        <ele>895.492597</ele>
        <time>2021-07-06T15:03:57+0200</time>
      </trkpt>
      <trkpt lat="45.77977" lon="2.91969">
        <ele>895.838579</ele>
        <time>2021-07-06T15:04:00+0200</time>
      </trkpt>
      <trkpt lat="45.77982" lon="2.91973">
        <ele>894.538124</ele>
        <time>2021-07-06T15:04:02+0200</time>
      </trkpt>
      <trkpt lat="45.77989" lon="2.91977">
        <ele>893.889939</ele>
        <time>2021-07-06T15:04:05+0200</time>
      </trkpt>
      <trkpt lat="45.77994" lon="2.91979">
        <ele>893.347764</ele>
        <time>2021-07-06T15:04:07+0200</time>
      </trkpt>
      <trkpt lat="45.78" lon="2.91982">
        <ele>893.187449</ele>
        <time>2021-07-06T15:04:09+0200</time>
      </trkpt>
      <trkpt lat="45.78005" lon="2.91984">
        <ele>893.281978</ele>
        <time>2021-07-06T15:04:11+0200</time>
      </trkpt>
      <trkpt lat="45.78011" lon="2.91987">
        <ele>893.383982</ele>
        <time>2021-07-06T15:04:13+0200</time>
      </trkpt>
      <trkpt lat="45.78018" lon="2.9199">
        <ele>893.857219</ele>
        <time>2021-07-06T15:04:15+0200</time>
      </trkpt>
      <trkpt lat="45.78022" lon="2.91991">
        <ele>896.224704</ele>
        <time>2021-07-06T15:04:17+0200</time>
      </trkpt>
      <trkpt lat="45.78027" lon="2.91996">
        <ele>897.012494</ele>
        <time>2021-07-06T15:04:19+0200</time>
      </trkpt>
      <trkpt lat="45.78032" lon="2.91998">
        <ele>896.00412</ele>
        <time>2021-07-06T15:04:21+0200</time>
      </trkpt>
      <trkpt lat="45.78037" lon="2.91998">
        <ele>897.27229</ele>
        <time>2021-07-06T15:04:23+0200</time>
      </trkpt>
      <trkpt lat="45.78042" lon="2.91999">
        <ele>898.058092</ele>
        <time>2021-07-06T15:04:25+0200</time>
      </trkpt>
      <trkpt lat="45.78047" lon="2.91999">
        <ele>900.379842</ele>
        <time>2021-07-06T15:04:28+0200</time>
      </trkpt>
      <trkpt lat="45.78052" lon="2.91999">
        <ele>902.498913</ele>
        <time>2021-07-06T15:04:30+0200</time>
      </trkpt>
      <trkpt lat="45.78057" lon="2.91999">
        <ele>904.01234</ele>
        <time>2021-07-06T15:04:32+0200</time>
      </trkpt>
      <trkpt lat="45.78063" lon="2.91997">
        <ele>904.462038</ele>
        <time>2021-07-06T15:04:35+0200</time>
      </trkpt>
      <trkpt lat="45.78068" lon="2.91996">
        <ele>905.464984</ele>
        <time>2021-07-06T15:04:38+0200</time>
      </trkpt>
      <trkpt lat="45.78073" lon="2.91999">
        <ele>905.641937</ele>
        <time>2021-07-06T15:04:40+0200</time>
      </trkpt>
      <trkpt lat="45.78079" lon="2.92001">
        <ele>903.953721</ele>
        <time>2021-07-06T15:04:42+0200</time>
      </trkpt>
      <trkpt lat="45.78084" lon="2.92002">
        <ele>903.222596</ele>
        <time>2021-07-06T15:04:44+0200</time>
      </trkpt>
      <trkpt lat="45.78089" lon="2.92003">
        <ele>903.608313</ele>
        <time>2021-07-06T15:04:47+0200</time>
      </trkpt>
      <trkpt lat="45.78095" lon="2.92004">
        <ele>903.576904</ele>
        <time>2021-07-06T15:04:50+0200</time>
      </trkpt>
      <trkpt lat="45.78102" lon="2.92007">
        <ele>904.076049</ele>
        <time>2021-07-06T15:04:53+0200</time>
      </trkpt>
      <trkpt lat="45.7811" lon="2.92008">
        <ele>902.488723</ele>
        <time>2021-07-06T15:04:56+0200</time>
      </trkpt>
      <trkpt lat="45.78117" lon="2.92011">
        <ele>902.618068</ele>
        <time>2021-07-06T15:04:58+0200</time>
      </trkpt>
      <trkpt lat="45.78125" lon="2.92013">
        <ele>901.597844</ele>
        <time>2021-07-06T15:05:00+0200</time>
      </trkpt>
      <trkpt lat="45.7813" lon="2.92016">
        <ele>901.726931</ele>
        <time>2021-07-06T15:05:02+0200</time>
      </trkpt>
      <trkpt lat="45.78137" lon="2.92022">
        <ele>900.09956</ele>
        <time>2021-07-06T15:05:04+0200</time>
      </trkpt>
      <trkpt lat="45.78143" lon="2.92023">
        <ele>900.219277</ele>
        <time>2021-07-06T15:05:06+0200</time>
      </trkpt>
      <trkpt lat="45.78148" lon="2.92024">
        <ele>900.56754</ele>
        <time>2021-07-06T15:05:08+0200</time>
      </trkpt>
      <trkpt lat="45.78154" lon="2.92024">
        <ele>899.721524</ele>
        <time>2021-07-06T15:05:11+0200</time>
      </trkpt>
      <trkpt lat="45.78159" lon="2.92023">
        <ele>898.888807</ele>
        <time>2021-07-06T15:05:13+0200</time>
      </trkpt>
      <trkpt lat="45.78164" lon="2.92023">
        <ele>898.292597</ele>
        <time>2021-07-06T15:05:15+0200</time>
      </trkpt>
      <trkpt lat="45.7817" lon="2.92023">
        <ele>897.917244</ele>
        <time>2021-07-06T15:05:19+0200</time>
      </trkpt>
      <trkpt lat="45.78176" lon="2.92024">
        <ele>897.87873</ele>
        <time>2021-07-06T15:05:22+0200</time>
      </trkpt>
      <trkpt lat="45.78181" lon="2.92025">
        <ele>897.626708</ele>
        <time>2021-07-06T15:05:24+0200</time>
      </trkpt>
      <trkpt lat="45.78186" lon="2.92031">
        <ele>898.930479</ele>
        <time>2021-07-06T15:05:26+0200</time>
      </trkpt>
      <trkpt lat="45.78191" lon="2.92033">
        <ele>898.795682</ele>
        <time>2021-07-06T15:05:29+0200</time>
      </trkpt>
      <trkpt lat="45.78197" lon="2.92036">
        <ele>899.763755</ele>
        <time>2021-07-06T15:05:32+0200</time>
      </trkpt>
      <trkpt lat="45.78201" lon="2.9204">
        <ele>900.484873</ele>
        <time>2021-07-06T15:05:34+0200</time>
      </trkpt>
      <trkpt lat="45.78206" lon="2.92041">
        <ele>904.164575</ele>
        <time>2021-07-06T15:05:38+0200</time>
      </trkpt>
      <trkpt lat="45.78212" lon="2.92044">
        <ele>906.140104</ele>
        <time>2021-07-06T15:05:41+0200</time>
      </trkpt>
      <trkpt lat="45.78217" lon="2.92048">
        <ele>905.176344</ele>
        <time>2021-07-06T15:05:44+0200</time>
      </trkpt>
      <trkpt lat="45.78222" lon="2.92053">
        <ele>904.242774</ele>
        <time>2021-07-06T15:05:47+0200</time>
      </trkpt>
      <trkpt lat="45.78227" lon="2.92056">
        <ele>905.087197</ele>
        <time>2021-07-06T15:05:49+0200</time>
      </trkpt>
      <trkpt lat="45.78233" lon="2.92058">
        <ele>906.267653</ele>
        <time>2021-07-06T15:05:52+0200</time>
      </trkpt>
      <trkpt lat="45.78237" lon="2.92062">
        <ele>904.905254</ele>
        <time>2021-07-06T15:05:54+0200</time>
      </trkpt>
      <trkpt lat="45.78241" lon="2.92067">
        <ele>906.149017</ele>
        <time>2021-07-06T15:05:57+0200</time>
      </trkpt>
      <trkpt lat="45.78245" lon="2.9207">
        <ele>907.677314</ele>
        <time>2021-07-06T15:06:00+0200</time>
      </trkpt>
      <trkpt lat="45.7825" lon="2.92073">
        <ele>906.606752</ele>
        <time>2021-07-06T15:06:02+0200</time>
      </trkpt>
      <trkpt lat="45.78253" lon="2.92078">
        <ele>905.950744</ele>
        <time>2021-07-06T15:06:04+0200</time>
      </trkpt>
      <trkpt lat="45.78257" lon="2.92083">
        <ele>906.277166</ele>
        <time>2021-07-06T15:06:07+0200</time>
      </trkpt>
      <trkpt lat="45.78261" lon="2.92088">
        <ele>906.792002</ele>
        <time>2021-07-06T15:06:11+0200</time>
      </trkpt>
      <trkpt lat="45.78265" lon="2.92094">
        <ele>905.48107</ele>
        <time>2021-07-06T15:06:13+0200</time>
      </trkpt>
      <trkpt lat="45.78269" lon="2.921">
        <ele>905.203857</ele>
        <time>2021-07-06T15:06:16+0200</time>
      </trkpt>
      <trkpt lat="45.78273" lon="2.92107">
        <ele>904.379269</ele>
        <time>2021-07-06T15:06:19+0200</time>
      </trkpt>
      <trkpt lat="45.78277" lon="2.92111">
        <ele>903.540136</ele>
        <time>2021-07-06T15:06:21+0200</time>
      </trkpt>
      <trkpt lat="45.78281" lon="2.92115">
        <ele>904.236824</ele>
        <time>2021-07-06T15:06:25+0200</time>
      </trkpt>
      <trkpt lat="45.78285" lon="2.92121">
        <ele>905.007485</ele>
        <time>2021-07-06T15:06:28+0200</time>
      </trkpt>
      <trkpt lat="45.7829" lon="2.92124">
        <ele>905.367183</ele>
        <time>2021-07-06T15:06:30+0200</time>
      </trkpt>
      <trkpt lat="45.78294" lon="2.9213">
        <ele>908.872944</ele>
        <time>2021-07-06T15:06:34+0200</time>
      </trkpt>
      <trkpt lat="45.78297" lon="2.92135">
        <ele>910.447507</ele>
        <time>2021-07-06T15:06:37+0200</time>
      </trkpt>
      <trkpt lat="45.78303" lon="2.92139">
        <ele>909.650339</ele>
        <time>2021-07-06T15:06:41+0200</time>
      </trkpt>
      <trkpt lat="45.78307" lon="2.92142">
        <ele>907.374598</ele>
        <time>2021-07-06T15:06:44+0200</time>
      </trkpt>
      <trkpt lat="45.78313" lon="2.92146">
        <ele>909.899436</ele>
        <time>2021-07-06T15:06:48+0200</time>
      </trkpt>
      <trkpt lat="45.78317" lon="2.9215">
        <ele>909.465822</ele>
        <time>2021-07-06T15:06:51+0200</time>
      </trkpt>
      <trkpt lat="45.78321" lon="2.92152">
        <ele>912.497463</ele>
        <time>2021-07-06T15:06:56+0200</time>
      </trkpt>
      <trkpt lat="45.78327" lon="2.92153">
        <ele>914.853878</ele>
        <time>2021-07-06T15:07:00+0200</time>
      </trkpt>
      <trkpt lat="45.78333" lon="2.92156">
        <ele>915.835653</ele>
        <time>2021-07-06T15:07:03+0200</time>
      </trkpt>
      <trkpt lat="45.78339" lon="2.92161">
        <ele>915.537488</ele>
        <time>2021-07-06T15:07:06+0200</time>
      </trkpt>
      <trkpt lat="45.78343" lon="2.92165">
        <ele>914.072666</ele>
        <time>2021-07-06T15:07:08+0200</time>
      </trkpt>
      <trkpt lat="45.78348" lon="2.92169">
        <ele>911.416397</ele>
        <time>2021-07-06T15:07:10+0200</time>
      </trkpt>
      <trkpt lat="45.78353" lon="2.92172">
        <ele>912.806261</ele>
        <time>2021-07-06T15:07:13+0200</time>
      </trkpt>
      <trkpt lat="45.78358" lon="2.92178">
        <ele>911.199453</ele>
        <time>2021-07-06T15:07:16+0200</time>
      </trkpt>
      <trkpt lat="45.78363" lon="2.92184">
        <ele>911.502393</ele>
        <time>2021-07-06T15:07:19+0200</time>
      </trkpt>
      <trkpt lat="45.78368" lon="2.9219">
        <ele>909.629858</ele>
        <time>2021-07-06T15:07:21+0200</time>
      </trkpt>
      <trkpt lat="45.78372" lon="2.92195">
        <ele>908.695463</ele>
        <time>2021-07-06T15:07:23+0200</time>
      </trkpt>
      <trkpt lat="45.78376" lon="2.922">
        <ele>908.988743</ele>
        <time>2021-07-06T15:07:26+0200</time>
      </trkpt>
      <trkpt lat="45.78381" lon="2.92206">
        <ele>910.350503</ele>
        <time>2021-07-06T15:07:29+0200</time>
      </trkpt>
      <trkpt lat="45.78385" lon="2.92212">
        <ele>910.038325</ele>
        <time>2021-07-06T15:07:31+0200</time>
      </trkpt>
      <trkpt lat="45.78392" lon="2.92218">
        <ele>908.678577</ele>
        <time>2021-07-06T15:07:33+0200</time>
      </trkpt>
      <trkpt lat="45.78394" lon="2.92224">
        <ele>909.890357</ele>
        <time>2021-07-06T15:07:35+0200</time>
      </trkpt>
      <trkpt lat="45.78398" lon="2.92227">
        <ele>911.425091</ele>
        <time>2021-07-06T15:07:37+0200</time>
      </trkpt>
      <trkpt lat="45.78402" lon="2.9223">
        <ele>913.666637</ele>
        <time>2021-07-06T15:07:39+0200</time>
      </trkpt>
      <trkpt lat="45.78407" lon="2.92236">
        <ele>913.447826</ele>
        <time>2021-07-06T15:07:42+0200</time>
      </trkpt>
      <trkpt lat="45.78412" lon="2.92242">
        <ele>915.940514</ele>
        <time>2021-07-06T15:07:45+0200</time>
      </trkpt>
      <trkpt lat="45.78416" lon="2.92245">
        <ele>917.478959</ele>
        <time>2021-07-06T15:07:47+0200</time>
      </trkpt>
      <trkpt lat="45.78421" lon="2.9225">
        <ele>917.720917</ele>
        <time>2021-07-06T15:07:49+0200</time>
      </trkpt>
      <trkpt lat="45.78425" lon="2.92254">
        <ele>916.598432</ele>
        <time>2021-07-06T15:07:51+0200</time>
      </trkpt>
      <trkpt lat="45.7843" lon="2.9226">
        <ele>915.384432</ele>
        <time>2021-07-06T15:07:53+0200</time>
      </trkpt>
      <trkpt lat="45.78434" lon="2.92264">
        <ele>915.276991</ele>
        <time>2021-07-06T15:07:55+0200</time>
      </trkpt>
      <trkpt lat="45.7844" lon="2.92268">
        <ele>917.612345</ele>
        <time>2021-07-06T15:07:57+0200</time>
      </trkpt>
      <trkpt lat="45.78445" lon="2.92271">
        <ele>919.955239</ele>
        <time>2021-07-06T15:07:59+0200</time>
      </trkpt>
      <trkpt lat="45.78449" lon="2.92277">
        <ele>917.727624</ele>
        <time>2021-07-06T15:08:01+0200</time>
      </trkpt>
      <trkpt lat="45.78452" lon="2.92283">
        <ele>917.678829</ele>
        <time>2021-07-06T15:08:03+0200</time>
      </trkpt>
      <trkpt lat="45.78457" lon="2.92289">
        <ele>919.452756</ele>
        <time>2021-07-06T15:08:06+0200</time>
      </trkpt>
      <trkpt lat="45.78461" lon="2.92293">
        <ele>919.889166</ele>
        <time>2021-07-06T15:08:08+0200</time>
      </trkpt>
      <trkpt lat="45.78467" lon="2.92299">
        <ele>919.39046</ele>
        <time>2021-07-06T15:08:11+0200</time>
      </trkpt>
      <trkpt lat="45.78471" lon="2.92305">
        <ele>918.168751</ele>
        <time>2021-07-06T15:08:13+0200</time>
      </trkpt>
      <trkpt lat="45.78474" lon="2.9231">
        <ele>918.730644</ele>
        <time>2021-07-06T15:08:15+0200</time>
      </trkpt>
      <trkpt lat="45.78478" lon="2.92315">
        <ele>918.866336</ele>
        <time>2021-07-06T15:08:17+0200</time>
      </trkpt>
      <trkpt lat="45.78482" lon="2.92319">
        <ele>919.782284</ele>
        <time>2021-07-06T15:08:19+0200</time>
      </trkpt>
      <trkpt lat="45.78486" lon="2.92324">
        <ele>921.152819</ele>
        <time>2021-07-06T15:08:22+0200</time>
      </trkpt>
      <trkpt lat="45.78489" lon="2.9233">
        <ele>921.16478</ele>
        <time>2021-07-06T15:08:25+0200</time>
      </trkpt>
      <trkpt lat="45.78493" lon="2.92333">
        <ele>922.747067</ele>
        <time>2021-07-06T15:08:28+0200</time>
      </trkpt>
      <trkpt lat="45.78496" lon="2.92339">
        <ele>922.076087</ele>
        <time>2021-07-06T15:08:31+0200</time>
      </trkpt>
      <trkpt lat="45.785" lon="2.92344">
        <ele>919.649693</ele>
        <time>2021-07-06T15:08:34+0200</time>
      </trkpt>
      <trkpt lat="45.78505" lon="2.92347">
        <ele>918.354519</ele>
        <time>2021-07-06T15:08:40+0200</time>
      </trkpt>
      <trkpt lat="45.78499" lon="2.92346">
        <ele>919.838194</ele>
        <time>2021-07-06T15:09:17+0200</time>
      </trkpt>
      <trkpt lat="45.78501" lon="2.92352">
        <ele>914.522878</ele>
        <time>2021-07-06T15:09:36+0200</time>
      </trkpt>
      <trkpt lat="45.78498" lon="2.92346">
        <ele>916.637137</ele>
        <time>2021-07-06T15:10:10+0200</time>
      </trkpt>
      <trkpt lat="45.78504" lon="2.92347">
        <ele>916.021299</ele>
        <time>2021-07-06T15:10:20+0200</time>
      </trkpt>
      <trkpt lat="45.78509" lon="2.92349">
        <ele>921.056741</ele>
        <time>2021-07-06T15:10:47+0200</time>
      </trkpt>
      <trkpt lat="45.78511" lon="2.92355">
        <ele>920.342419</ele>
        <time>2021-07-06T15:11:02+0200</time>
      </trkpt>
      <trkpt lat="45.78507" lon="2.92356">
        <ele>921.35821</ele>
        <time>2021-07-06T15:11:18+0200</time>
      </trkpt>
      <trkpt lat="45.78506" lon="2.9235">
        <ele>919.712056</ele>
        <time>2021-07-06T15:12:42+0200</time>
      </trkpt>
      <trkpt lat="45.7851" lon="2.92354">
        <ele>918.031562</ele>
        <time>2021-07-06T15:14:11+0200</time>
      </trkpt>
      <trkpt lat="45.78516" lon="2.9236">
        <ele>917.627872</ele>
        <time>2021-07-06T15:14:14+0200</time>
      </trkpt>
      <trkpt lat="45.7852" lon="2.92367">
        <ele>919.070016</ele>
        <time>2021-07-06T15:14:18+0200</time>
      </trkpt>
      <trkpt lat="45.78524" lon="2.92372">
        <ele>919.125105</ele>
        <time>2021-07-06T15:14:21+0200</time>
      </trkpt>
      <trkpt lat="45.78528" lon="2.92376">
        <ele>920.156971</ele>
        <time>2021-07-06T15:14:24+0200</time>
      </trkpt>
      <trkpt lat="45.78532" lon="2.92381">
        <ele>920.300293</ele>
        <time>2021-07-06T15:14:27+0200</time>
      </trkpt>
      <trkpt lat="45.78535" lon="2.92386">
        <ele>922.544816</ele>
        <time>2021-07-06T15:14:30+0200</time>
      </trkpt>
      <trkpt lat="45.7854" lon="2.92393">
        <ele>922.615523</ele>
        <time>2021-07-06T15:14:33+0200</time>
      </trkpt>
      <trkpt lat="45.78542" lon="2.924">
        <ele>923.428664</ele>
        <time>2021-07-06T15:14:36+0200</time>
      </trkpt>
      <trkpt lat="45.78547" lon="2.92404">
        <ele>925.374328</ele>
        <time>2021-07-06T15:14:39+0200</time>
      </trkpt>
      <trkpt lat="45.78551" lon="2.92408">
        <ele>927.320634</ele>
        <time>2021-07-06T15:14:41+0200</time>
      </trkpt>
      <trkpt lat="45.78555" lon="2.92414">
        <ele>929.419501</ele>
        <time>2021-07-06T15:14:44+0200</time>
      </trkpt>
      <trkpt lat="45.78559" lon="2.9242">
        <ele>929.282761</ele>
        <time>2021-07-06T15:14:47+0200</time>
      </trkpt>
      <trkpt lat="45.78564" lon="2.92427">
        <ele>930.201072</ele>
        <time>2021-07-06T15:14:50+0200</time>
      </trkpt>
      <trkpt lat="45.78569" lon="2.92433">
        <ele>928.128356</ele>
        <time>2021-07-06T15:14:52+0200</time>
      </trkpt>
      <trkpt lat="45.78573" lon="2.92439">
        <ele>929.199522</ele>
        <time>2021-07-06T15:14:55+0200</time>
      </trkpt>
      <trkpt lat="45.78577" lon="2.92443">
        <ele>929.268194</ele>
        <time>2021-07-06T15:14:57+0200</time>
      </trkpt>
      <trkpt lat="45.78581" lon="2.92448">
        <ele>929.627728</ele>
        <time>2021-07-06T15:15:00+0200</time>
      </trkpt>
      <trkpt lat="45.78585" lon="2.92453">
        <ele>929.847798</ele>
        <time>2021-07-06T15:15:03+0200</time>
      </trkpt>
      <trkpt lat="45.78588" lon="2.92458">
        <ele>930.042863</ele>
        <time>2021-07-06T15:15:05+0200</time>
      </trkpt>
      <trkpt lat="45.78593" lon="2.92464">
        <ele>929.238441</ele>
        <time>2021-07-06T15:15:08+0200</time>
      </trkpt>
      <trkpt lat="45.78598" lon="2.9247">
        <ele>926.625229</ele>
        <time>2021-07-06T15:15:11+0200</time>
      </trkpt>
      <trkpt lat="45.78602" lon="2.92476">
        <ele>925.06038</ele>
        <time>2021-07-06T15:15:13+0200</time>
      </trkpt>
      <trkpt lat="45.78606" lon="2.92482">
        <ele>924.362523</ele>
        <time>2021-07-06T15:15:16+0200</time>
      </trkpt>
      <trkpt lat="45.7861" lon="2.92489">
        <ele>926.683297</ele>
        <time>2021-07-06T15:15:19+0200</time>
      </trkpt>
      <trkpt lat="45.78617" lon="2.92494">
        <ele>928.673306</ele>
        <time>2021-07-06T15:15:22+0200</time>
      </trkpt>
      <trkpt lat="45.78621" lon="2.92499">
        <ele>928.371965</ele>
        <time>2021-07-06T15:15:25+0200</time>
      </trkpt>
      <trkpt lat="45.78626" lon="2.92502">
        <ele>927.759131</ele>
        <time>2021-07-06T15:15:28+0200</time>
      </trkpt>
      <trkpt lat="45.78631" lon="2.92504">
        <ele>928.57415</ele>
        <time>2021-07-06T15:15:31+0200</time>
      </trkpt>
      <trkpt lat="45.78637" lon="2.92507">
        <ele>926.129019</ele>
        <time>2021-07-06T15:15:34+0200</time>
      </trkpt>
      <trkpt lat="45.78641" lon="2.92508">
        <ele>925.227681</ele>
        <time>2021-07-06T15:15:36+0200</time>
      </trkpt>
      <trkpt lat="45.78646" lon="2.9251">
        <ele>926.590408</ele>
        <time>2021-07-06T15:15:38+0200</time>
      </trkpt>
      <trkpt lat="45.78652" lon="2.9251">
        <ele>928.742317</ele>
        <time>2021-07-06T15:15:41+0200</time>
      </trkpt>
      <trkpt lat="45.78659" lon="2.92514">
        <ele>928.324145</ele>
        <time>2021-07-06T15:15:45+0200</time>
      </trkpt>
      <trkpt lat="45.78664" lon="2.92516">
        <ele>929.594472</ele>
        <time>2021-07-06T15:15:47+0200</time>
      </trkpt>
      <trkpt lat="45.78668" lon="2.92518">
        <ele>930.947458</ele>
        <time>2021-07-06T15:15:49+0200</time>
      </trkpt>
      <trkpt lat="45.78674" lon="2.92518">
        <ele>928.420074</ele>
        <time>2021-07-06T15:15:52+0200</time>
      </trkpt>
      <trkpt lat="45.7868" lon="2.92519">
        <ele>926.830309</ele>
        <time>2021-07-06T15:15:55+0200</time>
      </trkpt>
      <trkpt lat="45.78685" lon="2.92521">
        <ele>926.345714</ele>
        <time>2021-07-06T15:15:58+0200</time>
      </trkpt>
      <trkpt lat="45.78689" lon="2.92523">
        <ele>927.217609</ele>
        <time>2021-07-06T15:16:01+0200</time>
      </trkpt>
      <trkpt lat="45.78694" lon="2.92528">
        <ele>926.000835</ele>
        <time>2021-07-06T15:16:03+0200</time>
      </trkpt>
      <trkpt lat="45.78699" lon="2.92532">
        <ele>926.859941</ele>
        <time>2021-07-06T15:16:06+0200</time>
      </trkpt>
      <trkpt lat="45.78704" lon="2.92537">
        <ele>927.910112</ele>
        <time>2021-07-06T15:16:09+0200</time>
      </trkpt>
      <trkpt lat="45.78709" lon="2.9254">
        <ele>930.288862</ele>
        <time>2021-07-06T15:16:12+0200</time>
      </trkpt>
      <trkpt lat="45.78712" lon="2.92544">
        <ele>931.502376</ele>
        <time>2021-07-06T15:16:15+0200</time>
      </trkpt>
      <trkpt lat="45.78717" lon="2.92549">
        <ele>930.965866</ele>
        <time>2021-07-06T15:16:18+0200</time>
      </trkpt>
      <trkpt lat="45.7872" lon="2.92555">
        <ele>931.080606</ele>
        <time>2021-07-06T15:16:22+0200</time>
      </trkpt>
      <trkpt lat="45.78725" lon="2.92561">
        <ele>930.719665</ele>
        <time>2021-07-06T15:16:26+0200</time>
      </trkpt>
      <trkpt lat="45.78729" lon="2.92567">
        <ele>930.94604</ele>
        <time>2021-07-06T15:16:29+0200</time>
      </trkpt>
      <trkpt lat="45.78733" lon="2.92571">
        <ele>929.89477</ele>
        <time>2021-07-06T15:16:32+0200</time>
      </trkpt>
      <trkpt lat="45.78737" lon="2.92577">
        <ele>929.63955</ele>
        <time>2021-07-06T15:16:35+0200</time>
      </trkpt>
      <trkpt lat="45.7874" lon="2.92584">
        <ele>929.640512</ele>
        <time>2021-07-06T15:16:38+0200</time>
      </trkpt>
      <trkpt lat="45.78745" lon="2.92588">
        <ele>931.388295</ele>
        <time>2021-07-06T15:16:41+0200</time>
      </trkpt>
      <trkpt lat="45.78749" lon="2.92594">
        <ele>933.516437</ele>
        <time>2021-07-06T15:16:45+0200</time>
      </trkpt>
      <trkpt lat="45.78754" lon="2.92601">
        <ele>932.78134</ele>
        <time>2021-07-06T15:16:49+0200</time>
      </trkpt>
      <trkpt lat="45.78758" lon="2.92604">
        <ele>934.558776</ele>
        <time>2021-07-06T15:16:52+0200</time>
      </trkpt>
      <trkpt lat="45.78762" lon="2.92609">
        <ele>935.715421</ele>
        <time>2021-07-06T15:16:56+0200</time>
      </trkpt>
      <trkpt lat="45.78766" lon="2.92615">
        <ele>935.099571</ele>
        <time>2021-07-06T15:16:58+0200</time>
      </trkpt>
      <trkpt lat="45.78769" lon="2.92619">
        <ele>933.57821</ele>
        <time>2021-07-06T15:17:01+0200</time>
      </trkpt>
      <trkpt lat="45.78775" lon="2.92623">
        <ele>935.258156</ele>
        <time>2021-07-06T15:17:05+0200</time>
      </trkpt>
      <trkpt lat="45.78779" lon="2.92626">
        <ele>936.456287</ele>
        <time>2021-07-06T15:17:09+0200</time>
      </trkpt>
      <trkpt lat="45.78784" lon="2.92629">
        <ele>936.806918</ele>
        <time>2021-07-06T15:17:12+0200</time>
      </trkpt>
      <trkpt lat="45.78788" lon="2.92633">
        <ele>936.671224</ele>
        <time>2021-07-06T15:17:15+0200</time>
      </trkpt>
      <trkpt lat="45.78792" lon="2.92638">
        <ele>935.879193</ele>
        <time>2021-07-06T15:17:18+0200</time>
      </trkpt>
      <trkpt lat="45.78796" lon="2.92643">
        <ele>934.336626</ele>
        <time>2021-07-06T15:17:21+0200</time>
      </trkpt>
      <trkpt lat="45.788" lon="2.92646">
        <ele>934.62241</ele>
        <time>2021-07-06T15:17:24+0200</time>
      </trkpt>
      <trkpt lat="45.78805" lon="2.92648">
        <ele>934.846937</ele>
        <time>2021-07-06T15:17:27+0200</time>
      </trkpt>
      <trkpt lat="45.7881" lon="2.92651">
        <ele>936.350603</ele>
        <time>2021-07-06T15:17:30+0200</time>
      </trkpt>
      <trkpt lat="45.78814" lon="2.92657">
        <ele>937.146077</ele>
        <time>2021-07-06T15:17:34+0200</time>
      </trkpt>
      <trkpt lat="45.78817" lon="2.92662">
        <ele>935.433869</ele>
        <time>2021-07-06T15:17:37+0200</time>
      </trkpt>
      <trkpt lat="45.78821" lon="2.92667">
        <ele>934.969942</ele>
        <time>2021-07-06T15:17:39+0200</time>
      </trkpt>
      <trkpt lat="45.78826" lon="2.9267">
        <ele>935.875652</ele>
        <time>2021-07-06T15:17:43+0200</time>
      </trkpt>
      <trkpt lat="45.7883" lon="2.92675">
        <ele>936.38789</ele>
        <time>2021-07-06T15:17:45+0200</time>
      </trkpt>
      <trkpt lat="45.78833" lon="2.92679">
        <ele>936.851673</ele>
        <time>2021-07-06T15:17:48+0200</time>
      </trkpt>
      <trkpt lat="45.78837" lon="2.92685">
        <ele>936.360507</ele>
        <time>2021-07-06T15:17:52+0200</time>
      </trkpt>
      <trkpt lat="45.78841" lon="2.9269">
        <ele>936.301993</ele>
        <time>2021-07-06T15:17:55+0200</time>
      </trkpt>
      <trkpt lat="45.78845" lon="2.92696">
        <ele>936.601071</ele>
        <time>2021-07-06T15:17:58+0200</time>
      </trkpt>
      <trkpt lat="45.78849" lon="2.927">
        <ele>938.08433</ele>
        <time>2021-07-06T15:18:01+0200</time>
      </trkpt>
      <trkpt lat="45.78853" lon="2.92704">
        <ele>938.500715</ele>
        <time>2021-07-06T15:18:04+0200</time>
      </trkpt>
      <trkpt lat="45.78857" lon="2.92707">
        <ele>938.504297</ele>
        <time>2021-07-06T15:18:07+0200</time>
      </trkpt>
      <trkpt lat="45.78861" lon="2.92712">
        <ele>938.352314</ele>
        <time>2021-07-06T15:18:13+0200</time>
      </trkpt>
      <trkpt lat="45.78866" lon="2.92714">
        <ele>939.21015</ele>
        <time>2021-07-06T15:18:16+0200</time>
      </trkpt>
      <trkpt lat="45.78871" lon="2.92719">
        <ele>940.791204</ele>
        <time>2021-07-06T15:18:21+0200</time>
      </trkpt>
      <trkpt lat="45.78875" lon="2.92723">
        <ele>940.635087</ele>
        <time>2021-07-06T15:18:24+0200</time>
      </trkpt>
      <trkpt lat="45.78879" lon="2.92726">
        <ele>940.220079</ele>
        <time>2021-07-06T15:18:27+0200</time>
      </trkpt>
      <trkpt lat="45.78884" lon="2.9273">
        <ele>936.648</ele>
        <time>2021-07-06T15:18:30+0200</time>
      </trkpt>
      <trkpt lat="45.78889" lon="2.92734">
        <ele>935.89316</ele>
        <time>2021-07-06T15:18:35+0200</time>
      </trkpt>
      <trkpt lat="45.78893" lon="2.92738">
        <ele>937.915536</ele>
        <time>2021-07-06T15:18:38+0200</time>
      </trkpt>
      <trkpt lat="45.78899" lon="2.9274">
        <ele>939.667802</ele>
        <time>2021-07-06T15:18:43+0200</time>
      </trkpt>
      <trkpt lat="45.78905" lon="2.92741">
        <ele>940.609152</ele>
        <time>2021-07-06T15:18:46+0200</time>
      </trkpt>
      <trkpt lat="45.7891" lon="2.92739">
        <ele>939.753856</ele>
        <time>2021-07-06T15:18:49+0200</time>
      </trkpt>
      <trkpt lat="45.78915" lon="2.92738">
        <ele>940.163576</ele>
        <time>2021-07-06T15:18:53+0200</time>
      </trkpt>
      <trkpt lat="45.7892" lon="2.92736">
        <ele>941.465647</ele>
        <time>2021-07-06T15:18:55+0200</time>
      </trkpt>
      <trkpt lat="45.78925" lon="2.92736">
        <ele>941.557549</ele>
        <time>2021-07-06T15:18:58+0200</time>
      </trkpt>
      <trkpt lat="45.78931" lon="2.92737">
        <ele>941.781721</ele>
        <time>2021-07-06T15:19:00+0200</time>
      </trkpt>
      <trkpt lat="45.78937" lon="2.92734">
        <ele>943.9746</ele>
        <time>2021-07-06T15:19:04+0200</time>
      </trkpt>
      <trkpt lat="45.78943" lon="2.92732">
        <ele>943.66716</ele>
        <time>2021-07-06T15:19:07+0200</time>
      </trkpt>
      <trkpt lat="45.78949" lon="2.92731">
        <ele>944.181964</ele>
        <time>2021-07-06T15:19:09+0200</time>
      </trkpt>
      <trkpt lat="45.78954" lon="2.9273">
        <ele>946.709309</ele>
        <time>2021-07-06T15:19:12+0200</time>
      </trkpt>
      <trkpt lat="45.78959" lon="2.92732">
        <ele>947.431802</ele>
        <time>2021-07-06T15:19:15+0200</time>
      </trkpt>
      <trkpt lat="45.78964" lon="2.92732">
        <ele>947.212193</ele>
        <time>2021-07-06T15:19:17+0200</time>
      </trkpt>
      <trkpt lat="45.7897" lon="2.92734">
        <ele>948.465026</ele>
        <time>2021-07-06T15:19:20+0200</time>
      </trkpt>
      <trkpt lat="45.78976" lon="2.92736">
        <ele>947.415498</ele>
        <time>2021-07-06T15:19:23+0200</time>
      </trkpt>
      <trkpt lat="45.78982" lon="2.92738">
        <ele>949.524853</ele>
        <time>2021-07-06T15:19:26+0200</time>
      </trkpt>
      <trkpt lat="45.78986" lon="2.92739">
        <ele>949.810037</ele>
        <time>2021-07-06T15:19:28+0200</time>
      </trkpt>
      <trkpt lat="45.78991" lon="2.92741">
        <ele>948.353773</ele>
        <time>2021-07-06T15:19:30+0200</time>
      </trkpt>
      <trkpt lat="45.78995" lon="2.92744">
        <ele>949.259141</ele>
        <time>2021-07-06T15:19:32+0200</time>
      </trkpt>
      <trkpt lat="45.79001" lon="2.92749">
        <ele>949.435013</ele>
        <time>2021-07-06T15:19:34+0200</time>
      </trkpt>
      <trkpt lat="45.79005" lon="2.92751">
        <ele>949.65666</ele>
        <time>2021-07-06T15:19:36+0200</time>
      </trkpt>
      <trkpt lat="45.7901" lon="2.92754">
        <ele>951.860799</ele>
        <time>2021-07-06T15:19:39+0200</time>
      </trkpt>
      <trkpt lat="45.79014" lon="2.92757">
        <ele>952.604808</ele>
        <time>2021-07-06T15:19:42+0200</time>
      </trkpt>
      <trkpt lat="45.7902" lon="2.92761">
        <ele>952.783019</ele>
        <time>2021-07-06T15:19:45+0200</time>
      </trkpt>
      <trkpt lat="45.79025" lon="2.92764">
        <ele>953.02863</ele>
        <time>2021-07-06T15:19:48+0200</time>
      </trkpt>
      <trkpt lat="45.79029" lon="2.92768">
        <ele>953.938578</ele>
        <time>2021-07-06T15:19:51+0200</time>
      </trkpt>
      <trkpt lat="45.79033" lon="2.92773">
        <ele>953.243107</ele>
        <time>2021-07-06T15:19:54+0200</time>
      </trkpt>
      <trkpt lat="45.79039" lon="2.92777">
        <ele>951.881406</ele>
        <time>2021-07-06T15:19:57+0200</time>
      </trkpt>
      <trkpt lat="45.79044" lon="2.92781">
        <ele>951.728978</ele>
        <time>2021-07-06T15:20:01+0200</time>
      </trkpt>
      <trkpt lat="45.79049" lon="2.92783">
        <ele>949.688819</ele>
        <time>2021-07-06T15:20:03+0200</time>
      </trkpt>
      <trkpt lat="45.79054" lon="2.92784">
        <ele>949.521976</ele>
        <time>2021-07-06T15:20:06+0200</time>
      </trkpt>
      <trkpt lat="45.79059" lon="2.92785">
        <ele>949.863931</ele>
        <time>2021-07-06T15:20:09+0200</time>
      </trkpt>
      <trkpt lat="45.79064" lon="2.92788">
        <ele>949.121356</ele>
        <time>2021-07-06T15:20:12+0200</time>
      </trkpt>
      <trkpt lat="45.79069" lon="2.92791">
        <ele>947.801793</ele>
        <time>2021-07-06T15:20:14+0200</time>
      </trkpt>
      <trkpt lat="45.79074" lon="2.92794">
        <ele>948.317214</ele>
        <time>2021-07-06T15:20:18+0200</time>
      </trkpt>
      <trkpt lat="45.79079" lon="2.92797">
        <ele>949.464233</ele>
        <time>2021-07-06T15:20:22+0200</time>
      </trkpt>
      <trkpt lat="45.79085" lon="2.92799">
        <ele>952.094452</ele>
        <time>2021-07-06T15:20:26+0200</time>
      </trkpt>
      <trkpt lat="45.7909" lon="2.92799">
        <ele>953.075559</ele>
        <time>2021-07-06T15:20:29+0200</time>
      </trkpt>
      <trkpt lat="45.79095" lon="2.92804">
        <ele>954.424836</ele>
        <time>2021-07-06T15:20:33+0200</time>
      </trkpt>
      <trkpt lat="45.79101" lon="2.9281">
        <ele>954.160787</ele>
        <time>2021-07-06T15:20:36+0200</time>
      </trkpt>
      <trkpt lat="45.79106" lon="2.92816">
        <ele>952.332798</ele>
        <time>2021-07-06T15:20:39+0200</time>
      </trkpt>
      <trkpt lat="45.7911" lon="2.9282">
        <ele>953.036149</ele>
        <time>2021-07-06T15:20:42+0200</time>
      </trkpt>
      <trkpt lat="45.79115" lon="2.92824">
        <ele>952.032264</ele>
        <time>2021-07-06T15:20:45+0200</time>
      </trkpt>
      <trkpt lat="45.7912" lon="2.92828">
        <ele>952.080315</ele>
        <time>2021-07-06T15:20:48+0200</time>
      </trkpt>
      <trkpt lat="45.79125" lon="2.92833">
        <ele>952.667813</ele>
        <time>2021-07-06T15:20:51+0200</time>
      </trkpt>
      <trkpt lat="45.79128" lon="2.92839">
        <ele>952.838334</ele>
        <time>2021-07-06T15:20:54+0200</time>
      </trkpt>
      <trkpt lat="45.79133" lon="2.92843">
        <ele>954.847369</ele>
        <time>2021-07-06T15:20:58+0200</time>
      </trkpt>
      <trkpt lat="45.79139" lon="2.92843">
        <ele>956.143302</ele>
        <time>2021-07-06T15:21:02+0200</time>
      </trkpt>
      <trkpt lat="45.79145" lon="2.92844">
        <ele>954.302025</ele>
        <time>2021-07-06T15:21:06+0200</time>
      </trkpt>
      <trkpt lat="45.7915" lon="2.92845">
        <ele>953.99483</ele>
        <time>2021-07-06T15:21:09+0200</time>
      </trkpt>
      <trkpt lat="45.79155" lon="2.92847">
        <ele>954.341196</ele>
        <time>2021-07-06T15:21:12+0200</time>
      </trkpt>
      <trkpt lat="45.79161" lon="2.92845">
        <ele>954.209496</ele>
        <time>2021-07-06T15:21:15+0200</time>
      </trkpt>
      <trkpt lat="45.79166" lon="2.92844">
        <ele>953.954628</ele>
        <time>2021-07-06T15:21:18+0200</time>
      </trkpt>
      <trkpt lat="45.79171" lon="2.92846">
        <ele>954.471275</ele>
        <time>2021-07-06T15:21:22+0200</time>
      </trkpt>
      <trkpt lat="45.79177" lon="2.92848">
        <ele>955.351155</ele>
        <time>2021-07-06T15:21:26+0200</time>
      </trkpt>
      <trkpt lat="45.79182" lon="2.92849">
        <ele>957.233157</ele>
        <time>2021-07-06T15:21:29+0200</time>
      </trkpt>
      <trkpt lat="45.79187" lon="2.92852">
        <ele>958.755072</ele>
        <time>2021-07-06T15:21:33+0200</time>
      </trkpt>
      <trkpt lat="45.79193" lon="2.92854">
        <ele>958.636441</ele>
        <time>2021-07-06T15:21:36+0200</time>
      </trkpt>
      <trkpt lat="45.792" lon="2.92859">
        <ele>958.063908</ele>
        <time>2021-07-06T15:21:40+0200</time>
      </trkpt>
      <trkpt lat="45.79205" lon="2.92859">
        <ele>957.646722</ele>
        <time>2021-07-06T15:21:43+0200</time>
      </trkpt>
      <trkpt lat="45.7921" lon="2.92859">
        <ele>958.057666</ele>
        <time>2021-07-06T15:21:45+0200</time>
      </trkpt>
      <trkpt lat="45.79215" lon="2.92863">
        <ele>958.826794</ele>
        <time>2021-07-06T15:21:48+0200</time>
      </trkpt>
      <trkpt lat="45.79219" lon="2.92866">
        <ele>959.492264</ele>
        <time>2021-07-06T15:21:50+0200</time>
      </trkpt>
      <trkpt lat="45.79224" lon="2.92868">
        <ele>960.717538</ele>
        <time>2021-07-06T15:21:53+0200</time>
      </trkpt>
      <trkpt lat="45.79231" lon="2.92871">
        <ele>961.356433</ele>
        <time>2021-07-06T15:21:55+0200</time>
      </trkpt>
      <trkpt lat="45.79236" lon="2.92873">
        <ele>960.714181</ele>
        <time>2021-07-06T15:21:57+0200</time>
      </trkpt>
      <trkpt lat="45.79241" lon="2.92874">
        <ele>961.047989</ele>
        <time>2021-07-06T15:22:00+0200</time>
      </trkpt>
      <trkpt lat="45.79247" lon="2.92874">
        <ele>963.82154</ele>
        <time>2021-07-06T15:22:02+0200</time>
      </trkpt>
      <trkpt lat="45.79251" lon="2.92878">
        <ele>963.230816</ele>
        <time>2021-07-06T15:22:04+0200</time>
      </trkpt>
      <trkpt lat="45.79258" lon="2.92878">
        <ele>961.715111</ele>
        <time>2021-07-06T15:22:07+0200</time>
      </trkpt>
      <trkpt lat="45.79263" lon="2.92878">
        <ele>961.220668</ele>
        <time>2021-07-06T15:22:09+0200</time>
      </trkpt>
      <trkpt lat="45.79268" lon="2.92881">
        <ele>961.687675</ele>
        <time>2021-07-06T15:22:11+0200</time>
      </trkpt>
      <trkpt lat="45.79273" lon="2.92883">
        <ele>960.854128</ele>
        <time>2021-07-06T15:22:13+0200</time>
      </trkpt>
      <trkpt lat="45.79277" lon="2.92886">
        <ele>960.466687</ele>
        <time>2021-07-06T15:22:15+0200</time>
      </trkpt>
      <trkpt lat="45.79282" lon="2.92889">
        <ele>961.701235</ele>
        <time>2021-07-06T15:22:17+0200</time>
      </trkpt>
      <trkpt lat="45.79287" lon="2.9289">
        <ele>963.388245</ele>
        <time>2021-07-06T15:22:20+0200</time>
      </trkpt>
      <trkpt lat="45.79292" lon="2.92892">
        <ele>963.84214</ele>
        <time>2021-07-06T15:22:22+0200</time>
      </trkpt>
      <trkpt lat="45.79296" lon="2.92896">
        <ele>962.626224</ele>
        <time>2021-07-06T15:22:24+0200</time>
      </trkpt>
      <trkpt lat="45.79302" lon="2.92899">
        <ele>961.861924</ele>
        <time>2021-07-06T15:22:27+0200</time>
      </trkpt>
      <trkpt lat="45.79308" lon="2.92902">
        <ele>962.455236</ele>
        <time>2021-07-06T15:22:29+0200</time>
      </trkpt>
      <trkpt lat="45.79313" lon="2.92903">
        <ele>961.691914</ele>
        <time>2021-07-06T15:22:32+0200</time>
      </trkpt>
      <trkpt lat="45.79318" lon="2.92904">
        <ele>961.786692</ele>
        <time>2021-07-06T15:22:35+0200</time>
      </trkpt>
      <trkpt lat="45.79324" lon="2.92907">
        <ele>961.730765</ele>
        <time>2021-07-06T15:22:38+0200</time>
      </trkpt>
      <trkpt lat="45.7933" lon="2.9291">
        <ele>963.391637</ele>
        <time>2021-07-06T15:22:41+0200</time>
      </trkpt>
      <trkpt lat="45.79335" lon="2.92913">
        <ele>964.552747</ele>
        <time>2021-07-06T15:22:45+0200</time>
      </trkpt>
      <trkpt lat="45.7934" lon="2.92913">
        <ele>964.224893</ele>
        <time>2021-07-06T15:22:48+0200</time>
      </trkpt>
      <trkpt lat="45.79344" lon="2.92917">
        <ele>962.062371</ele>
        <time>2021-07-06T15:22:50+0200</time>
      </trkpt>
      <trkpt lat="45.79349" lon="2.92921">
        <ele>961.600192</ele>
        <time>2021-07-06T15:22:53+0200</time>
      </trkpt>
      <trkpt lat="45.79354" lon="2.92923">
        <ele>961.687852</ele>
        <time>2021-07-06T15:22:55+0200</time>
      </trkpt>
      <trkpt lat="45.79358" lon="2.92926">
        <ele>961.77868</ele>
        <time>2021-07-06T15:22:57+0200</time>
      </trkpt>
      <trkpt lat="45.79364" lon="2.92927">
        <ele>961.430988</ele>
        <time>2021-07-06T15:23:00+0200</time>
      </trkpt>
      <trkpt lat="45.79369" lon="2.92929">
        <ele>959.634129</ele>
        <time>2021-07-06T15:23:03+0200</time>
      </trkpt>
      <trkpt lat="45.79375" lon="2.92928">
        <ele>960.444594</ele>
        <time>2021-07-06T15:23:06+0200</time>
      </trkpt>
      <trkpt lat="45.7938" lon="2.92928">
        <ele>962.878451</ele>
        <time>2021-07-06T15:23:10+0200</time>
      </trkpt>
      <trkpt lat="45.79386" lon="2.92931">
        <ele>963.833073</ele>
        <time>2021-07-06T15:23:13+0200</time>
      </trkpt>
      <trkpt lat="45.79392" lon="2.92932">
        <ele>964.434719</ele>
        <time>2021-07-06T15:23:17+0200</time>
      </trkpt>
      <trkpt lat="45.79398" lon="2.92933">
        <ele>964.902948</ele>
        <time>2021-07-06T15:23:20+0200</time>
      </trkpt>
      <trkpt lat="45.79404" lon="2.92933">
        <ele>963.846169</ele>
        <time>2021-07-06T15:23:23+0200</time>
      </trkpt>
      <trkpt lat="45.79409" lon="2.92933">
        <ele>962.044192</ele>
        <time>2021-07-06T15:23:25+0200</time>
      </trkpt>
      <trkpt lat="45.79415" lon="2.92933">
        <ele>962.161866</ele>
        <time>2021-07-06T15:23:28+0200</time>
      </trkpt>
      <trkpt lat="45.79419" lon="2.92937">
        <ele>964.699674</ele>
        <time>2021-07-06T15:23:33+0200</time>
      </trkpt>
      <trkpt lat="45.79425" lon="2.92938">
        <ele>964.894085</ele>
        <time>2021-07-06T15:23:37+0200</time>
      </trkpt>
      <trkpt lat="45.79429" lon="2.9294">
        <ele>964.22784</ele>
        <time>2021-07-06T15:23:40+0200</time>
      </trkpt>
      <trkpt lat="45.79434" lon="2.92939">
        <ele>965.774675</ele>
        <time>2021-07-06T15:23:43+0200</time>
      </trkpt>
      <trkpt lat="45.79439" lon="2.9294">
        <ele>965.663115</ele>
        <time>2021-07-06T15:23:46+0200</time>
      </trkpt>
      <trkpt lat="45.79445" lon="2.92942">
        <ele>966.576941</ele>
        <time>2021-07-06T15:23:50+0200</time>
      </trkpt>
      <trkpt lat="45.7945" lon="2.92943">
        <ele>965.122684</ele>
        <time>2021-07-06T15:23:53+0200</time>
      </trkpt>
      <trkpt lat="45.79456" lon="2.92944">
        <ele>965.769957</ele>
        <time>2021-07-06T15:23:57+0200</time>
      </trkpt>
      <trkpt lat="45.79461" lon="2.92945">
        <ele>966.554006</ele>
        <time>2021-07-06T15:23:59+0200</time>
      </trkpt>
      <trkpt lat="45.79467" lon="2.92947">
        <ele>965.950325</ele>
        <time>2021-07-06T15:24:02+0200</time>
      </trkpt>
      <trkpt lat="45.79472" lon="2.92949">
        <ele>966.972374</ele>
        <time>2021-07-06T15:24:05+0200</time>
      </trkpt>
      <trkpt lat="45.79476" lon="2.92948">
        <ele>967.111063</ele>
        <time>2021-07-06T15:24:07+0200</time>
      </trkpt>
      <trkpt lat="45.79483" lon="2.9295">
        <ele>965.569123</ele>
        <time>2021-07-06T15:24:10+0200</time>
      </trkpt>
      <trkpt lat="45.79488" lon="2.9295">
        <ele>966.223327</ele>
        <time>2021-07-06T15:24:13+0200</time>
      </trkpt>
      <trkpt lat="45.79493" lon="2.92951">
        <ele>967.204824</ele>
        <time>2021-07-06T15:24:15+0200</time>
      </trkpt>
      <trkpt lat="45.79498" lon="2.92953">
        <ele>968.331854</ele>
        <time>2021-07-06T15:24:17+0200</time>
      </trkpt>
      <trkpt lat="45.79503" lon="2.92952">
        <ele>967.324985</ele>
        <time>2021-07-06T15:24:19+0200</time>
      </trkpt>
      <trkpt lat="45.79508" lon="2.92951">
        <ele>966.148648</ele>
        <time>2021-07-06T15:24:20+0200</time>
      </trkpt>
      <trkpt lat="45.79514" lon="2.92951">
        <ele>966.196202</ele>
        <time>2021-07-06T15:24:24+0200</time>
      </trkpt>
      <trkpt lat="45.79521" lon="2.92951">
        <ele>966.771468</ele>
        <time>2021-07-06T15:24:26+0200</time>
      </trkpt>
      <trkpt lat="45.79528" lon="2.92951">
        <ele>966.910224</ele>
        <time>2021-07-06T15:24:30+0200</time>
      </trkpt>
      <trkpt lat="45.79533" lon="2.92953">
        <ele>964.859261</ele>
        <time>2021-07-06T15:24:32+0200</time>
      </trkpt>
      <trkpt lat="45.79539" lon="2.92953">
        <ele>965.023752</ele>
        <time>2021-07-06T15:24:35+0200</time>
      </trkpt>
      <trkpt lat="45.79544" lon="2.92952">
        <ele>966.585863</ele>
        <time>2021-07-06T15:24:38+0200</time>
      </trkpt>
      <trkpt lat="45.7955" lon="2.92949">
        <ele>969.680152</ele>
        <time>2021-07-06T15:24:41+0200</time>
      </trkpt>
      <trkpt lat="45.79554" lon="2.92947">
        <ele>970.653455</ele>
        <time>2021-07-06T15:24:43+0200</time>
      </trkpt>
      <trkpt lat="45.79559" lon="2.9295">
        <ele>968.593244</ele>
        <time>2021-07-06T15:24:46+0200</time>
      </trkpt>
      <trkpt lat="45.79558" lon="2.92957">
        <ele>966.141968</ele>
        <time>2021-07-06T15:24:52+0200</time>
      </trkpt>
      <trkpt lat="45.79553" lon="2.92961">
        <ele>966.577892</ele>
        <time>2021-07-06T15:24:55+0200</time>
      </trkpt>
      <trkpt lat="45.7955" lon="2.92968">
        <ele>961.917802</ele>
        <time>2021-07-06T15:24:58+0200</time>
      </trkpt>
      <trkpt lat="45.79545" lon="2.92971">
        <ele>963.015596</ele>
        <time>2021-07-06T15:25:02+0200</time>
      </trkpt>
      <trkpt lat="45.79541" lon="2.92974">
        <ele>962.542684</ele>
        <time>2021-07-06T15:25:05+0200</time>
      </trkpt>
      <trkpt lat="45.79536" lon="2.92978">
        <ele>963.955714</ele>
        <time>2021-07-06T15:25:08+0200</time>
      </trkpt>
      <trkpt lat="45.79533" lon="2.92984">
        <ele>964.239019</ele>
        <time>2021-07-06T15:25:11+0200</time>
      </trkpt>
      <trkpt lat="45.7953" lon="2.92991">
        <ele>964.284232</ele>
        <time>2021-07-06T15:25:14+0200</time>
      </trkpt>
      <trkpt lat="45.79524" lon="2.92994">
        <ele>965.243339</ele>
        <time>2021-07-06T15:25:17+0200</time>
      </trkpt>
      <trkpt lat="45.7952" lon="2.93001">
        <ele>964.152714</ele>
        <time>2021-07-06T15:25:20+0200</time>
      </trkpt>
      <trkpt lat="45.79517" lon="2.93008">
        <ele>962.827704</ele>
        <time>2021-07-06T15:25:23+0200</time>
      </trkpt>
      <trkpt lat="45.79512" lon="2.93016">
        <ele>964.718102</ele>
        <time>2021-07-06T15:25:26+0200</time>
      </trkpt>
      <trkpt lat="45.79506" lon="2.9302">
        <ele>967.182376</ele>
        <time>2021-07-06T15:25:30+0200</time>
      </trkpt>
      <trkpt lat="45.795" lon="2.93023">
        <ele>969.377466</ele>
        <time>2021-07-06T15:25:33+0200</time>
      </trkpt>
      <trkpt lat="45.79497" lon="2.93028">
        <ele>969.756029</ele>
        <time>2021-07-06T15:25:35+0200</time>
      </trkpt>
      <trkpt lat="45.79491" lon="2.93031">
        <ele>969.751325</ele>
        <time>2021-07-06T15:25:38+0200</time>
      </trkpt>
      <trkpt lat="45.79484" lon="2.93036">
        <ele>968.49029</ele>
        <time>2021-07-06T15:25:41+0200</time>
      </trkpt>
      <trkpt lat="45.79479" lon="2.93041">
        <ele>967.552412</ele>
        <time>2021-07-06T15:25:44+0200</time>
      </trkpt>
      <trkpt lat="45.79476" lon="2.93047">
        <ele>965.92779</ele>
        <time>2021-07-06T15:25:46+0200</time>
      </trkpt>
      <trkpt lat="45.7947" lon="2.93053">
        <ele>965.799606</ele>
        <time>2021-07-06T15:25:49+0200</time>
      </trkpt>
      <trkpt lat="45.79466" lon="2.93058">
        <ele>965.678525</ele>
        <time>2021-07-06T15:25:51+0200</time>
      </trkpt>
      <trkpt lat="45.79462" lon="2.93062">
        <ele>964.695857</ele>
        <time>2021-07-06T15:25:53+0200</time>
      </trkpt>
      <trkpt lat="45.79456" lon="2.93066">
        <ele>964.287823</ele>
        <time>2021-07-06T15:25:55+0200</time>
      </trkpt>
      <trkpt lat="45.7945" lon="2.93069">
        <ele>965.959309</ele>
        <time>2021-07-06T15:25:58+0200</time>
      </trkpt>
      <trkpt lat="45.79446" lon="2.93075">
        <ele>966.848272</ele>
        <time>2021-07-06T15:26:00+0200</time>
      </trkpt>
      <trkpt lat="45.79442" lon="2.9308">
        <ele>966.264926</ele>
        <time>2021-07-06T15:26:02+0200</time>
      </trkpt>
      <trkpt lat="45.79437" lon="2.93084">
        <ele>966.995999</ele>
        <time>2021-07-06T15:26:03+0200</time>
      </trkpt>
      <trkpt lat="45.79432" lon="2.93086">
        <ele>966.494405</ele>
        <time>2021-07-06T15:26:05+0200</time>
      </trkpt>
      <trkpt lat="45.79427" lon="2.93091">
        <ele>965.570614</ele>
        <time>2021-07-06T15:26:07+0200</time>
      </trkpt>
      <trkpt lat="45.79422" lon="2.93095">
        <ele>964.088155</ele>
        <time>2021-07-06T15:26:09+0200</time>
      </trkpt>
      <trkpt lat="45.79417" lon="2.93099">
        <ele>964.03456</ele>
        <time>2021-07-06T15:26:11+0200</time>
      </trkpt>
      <trkpt lat="45.79411" lon="2.93105">
        <ele>962.490041</ele>
        <time>2021-07-06T15:26:13+0200</time>
      </trkpt>
      <trkpt lat="45.79406" lon="2.93106">
        <ele>962.836446</ele>
        <time>2021-07-06T15:26:15+0200</time>
      </trkpt>
      <trkpt lat="45.79402" lon="2.93112">
        <ele>962.363481</ele>
        <time>2021-07-06T15:26:18+0200</time>
      </trkpt>
      <trkpt lat="45.79401" lon="2.93118">
        <ele>962.324832</ele>
        <time>2021-07-06T15:26:20+0200</time>
      </trkpt>
      <trkpt lat="45.79401" lon="2.93126">
        <ele>964.35282</ele>
        <time>2021-07-06T15:26:24+0200</time>
      </trkpt>
      <trkpt lat="45.794" lon="2.93134">
        <ele>963.299854</ele>
        <time>2021-07-06T15:26:27+0200</time>
      </trkpt>
      <trkpt lat="45.794" lon="2.93141">
        <ele>965.60319</ele>
        <time>2021-07-06T15:26:29+0200</time>
      </trkpt>
      <trkpt lat="45.79397" lon="2.93148">
        <ele>966.042101</ele>
        <time>2021-07-06T15:26:31+0200</time>
      </trkpt>
      <trkpt lat="45.79395" lon="2.93154">
        <ele>966.343775</ele>
        <time>2021-07-06T15:26:33+0200</time>
      </trkpt>
      <trkpt lat="45.79392" lon="2.93163">
        <ele>966.123128</ele>
        <time>2021-07-06T15:26:36+0200</time>
      </trkpt>
      <trkpt lat="45.79391" lon="2.93171">
        <ele>967.307123</ele>
        <time>2021-07-06T15:26:38+0200</time>
      </trkpt>
      <trkpt lat="45.79388" lon="2.9318">
        <ele>968.226086</ele>
        <time>2021-07-06T15:26:41+0200</time>
      </trkpt>
      <trkpt lat="45.79387" lon="2.93187">
        <ele>967.615737</ele>
        <time>2021-07-06T15:26:43+0200</time>
      </trkpt>
      <trkpt lat="45.79385" lon="2.93195">
        <ele>966.840339</ele>
        <time>2021-07-06T15:26:45+0200</time>
      </trkpt>
      <trkpt lat="45.79385" lon="2.93203">
        <ele>967.847973</ele>
        <time>2021-07-06T15:26:47+0200</time>
      </trkpt>
      <trkpt lat="45.79383" lon="2.93209">
        <ele>967.432862</ele>
        <time>2021-07-06T15:26:49+0200</time>
      </trkpt>
      <trkpt lat="45.79382" lon="2.93216">
        <ele>966.250225</ele>
        <time>2021-07-06T15:26:51+0200</time>
      </trkpt>
      <trkpt lat="45.79381" lon="2.93225">
        <ele>967.831438</ele>
        <time>2021-07-06T15:26:54+0200</time>
      </trkpt>
      <trkpt lat="45.79379" lon="2.93233">
        <ele>968.85694</ele>
        <time>2021-07-06T15:26:56+0200</time>
      </trkpt>
      <trkpt lat="45.79378" lon="2.93239">
        <ele>968.857854</ele>
        <time>2021-07-06T15:26:59+0200</time>
      </trkpt>
      <trkpt lat="45.79376" lon="2.93246">
        <ele>969.040721</ele>
        <time>2021-07-06T15:27:01+0200</time>
      </trkpt>
      <trkpt lat="45.79375" lon="2.93252">
        <ele>970.018674</ele>
        <time>2021-07-06T15:27:03+0200</time>
      </trkpt>
      <trkpt lat="45.79375" lon="2.93259">
        <ele>970.561719</ele>
        <time>2021-07-06T15:27:05+0200</time>
      </trkpt>
      <trkpt lat="45.79375" lon="2.93266">
        <ele>970.36174</ele>
        <time>2021-07-06T15:27:07+0200</time>
      </trkpt>
      <trkpt lat="45.79375" lon="2.93274">
        <ele>969.926027</ele>
        <time>2021-07-06T15:27:09+0200</time>
      </trkpt>
      <trkpt lat="45.79373" lon="2.93283">
        <ele>969.356519</ele>
        <time>2021-07-06T15:27:12+0200</time>
      </trkpt>
      <trkpt lat="45.79373" lon="2.9329">
        <ele>969.385212</ele>
        <time>2021-07-06T15:27:14+0200</time>
      </trkpt>
      <trkpt lat="45.79371" lon="2.93296">
        <ele>970.266746</ele>
        <time>2021-07-06T15:27:16+0200</time>
      </trkpt>
      <trkpt lat="45.79369" lon="2.93303">
        <ele>971.179322</ele>
        <time>2021-07-06T15:27:19+0200</time>
      </trkpt>
      <trkpt lat="45.79368" lon="2.93316">
        <ele>970.0392</ele>
        <time>2021-07-06T15:27:22+0200</time>
      </trkpt>
      <trkpt lat="45.79367" lon="2.93322">
        <ele>967.940325</ele>
        <time>2021-07-06T15:27:23+0200</time>
      </trkpt>
      <trkpt lat="45.79364" lon="2.93329">
        <ele>967.096861</ele>
        <time>2021-07-06T15:27:25+0200</time>
      </trkpt>
      <trkpt lat="45.79362" lon="2.93336">
        <ele>967.66764</ele>
        <time>2021-07-06T15:27:28+0200</time>
      </trkpt>
      <trkpt lat="45.79358" lon="2.93341">
        <ele>968.140597</ele>
        <time>2021-07-06T15:27:30+0200</time>
      </trkpt>
      <trkpt lat="45.79354" lon="2.93343">
        <ele>970.897907</ele>
        <time>2021-07-06T15:27:32+0200</time>
      </trkpt>
      <trkpt lat="45.7935" lon="2.93349">
        <ele>970.815134</ele>
        <time>2021-07-06T15:27:34+0200</time>
      </trkpt>
      <trkpt lat="45.79348" lon="2.93354">
        <ele>970.243547</ele>
        <time>2021-07-06T15:27:37+0200</time>
      </trkpt>
      <trkpt lat="45.79343" lon="2.93361">
        <ele>970.316644</ele>
        <time>2021-07-06T15:27:40+0200</time>
      </trkpt>
      <trkpt lat="45.79339" lon="2.93365">
        <ele>970.5078</ele>
        <time>2021-07-06T15:27:43+0200</time>
      </trkpt>
      <trkpt lat="45.79335" lon="2.93372">
        <ele>970.384162</ele>
        <time>2021-07-06T15:27:46+0200</time>
      </trkpt>
      <trkpt lat="45.79331" lon="2.93376">
        <ele>969.186134</ele>
        <time>2021-07-06T15:27:48+0200</time>
      </trkpt>
      <trkpt lat="45.79327" lon="2.93382">
        <ele>970.617262</ele>
        <time>2021-07-06T15:27:51+0200</time>
      </trkpt>
      <trkpt lat="45.79323" lon="2.93386">
        <ele>970.794655</ele>
        <time>2021-07-06T15:27:54+0200</time>
      </trkpt>
      <trkpt lat="45.79319" lon="2.93389">
        <ele>969.674005</ele>
        <time>2021-07-06T15:27:55+0200</time>
      </trkpt>
      <trkpt lat="45.79315" lon="2.9339">
        <ele>971.030789</ele>
        <time>2021-07-06T15:27:58+0200</time>
      </trkpt>
      <trkpt lat="45.79311" lon="2.93395">
        <ele>972.199334</ele>
        <time>2021-07-06T15:28:01+0200</time>
      </trkpt>
      <trkpt lat="45.79305" lon="2.93399">
        <ele>973.157101</ele>
        <time>2021-07-06T15:28:04+0200</time>
      </trkpt>
      <trkpt lat="45.79301" lon="2.93403">
        <ele>972.773363</ele>
        <time>2021-07-06T15:28:06+0200</time>
      </trkpt>
      <trkpt lat="45.79297" lon="2.93405">
        <ele>971.893986</ele>
        <time>2021-07-06T15:28:08+0200</time>
      </trkpt>
      <trkpt lat="45.79292" lon="2.93408">
        <ele>972.321164</ele>
        <time>2021-07-06T15:28:11+0200</time>
      </trkpt>
      <trkpt lat="45.7929" lon="2.93415">
        <ele>972.614576</ele>
        <time>2021-07-06T15:28:17+0200</time>
      </trkpt>
      <trkpt lat="45.79285" lon="2.93418">
        <ele>970.270622</ele>
        <time>2021-07-06T15:28:25+0200</time>
      </trkpt>
      <trkpt lat="45.79281" lon="2.93421">
        <ele>969.954021</ele>
        <time>2021-07-06T15:28:28+0200</time>
      </trkpt>
      <trkpt lat="45.79277" lon="2.93426">
        <ele>968.304905</ele>
        <time>2021-07-06T15:28:31+0200</time>
      </trkpt>
      <trkpt lat="45.79272" lon="2.9343">
        <ele>968.779842</ele>
        <time>2021-07-06T15:28:34+0200</time>
      </trkpt>
      <trkpt lat="45.79268" lon="2.93433">
        <ele>972.875841</ele>
        <time>2021-07-06T15:28:37+0200</time>
      </trkpt>
      <trkpt lat="45.79264" lon="2.93441">
        <ele>971.263509</ele>
        <time>2021-07-06T15:28:41+0200</time>
      </trkpt>
      <trkpt lat="45.79261" lon="2.93448">
        <ele>971.36218</ele>
        <time>2021-07-06T15:28:45+0200</time>
      </trkpt>
      <trkpt lat="45.79257" lon="2.93454">
        <ele>974.107264</ele>
        <time>2021-07-06T15:28:48+0200</time>
      </trkpt>
      <trkpt lat="45.79253" lon="2.9346">
        <ele>972.59586</ele>
        <time>2021-07-06T15:28:51+0200</time>
      </trkpt>
      <trkpt lat="45.79249" lon="2.93465">
        <ele>972.866385</ele>
        <time>2021-07-06T15:28:55+0200</time>
      </trkpt>
      <trkpt lat="45.79245" lon="2.93469">
        <ele>973.1131</ele>
        <time>2021-07-06T15:28:58+0200</time>
      </trkpt>
      <trkpt lat="45.79241" lon="2.93475">
        <ele>972.59956</ele>
        <time>2021-07-06T15:29:01+0200</time>
      </trkpt>
      <trkpt lat="45.79237" lon="2.93481">
        <ele>973.603655</ele>
        <time>2021-07-06T15:29:06+0200</time>
      </trkpt>
      <trkpt lat="45.79234" lon="2.93487">
        <ele>972.936244</ele>
        <time>2021-07-06T15:29:09+0200</time>
      </trkpt>
      <trkpt lat="45.79232" lon="2.93494">
        <ele>973.557674</ele>
        <time>2021-07-06T15:29:12+0200</time>
      </trkpt>
      <trkpt lat="45.79229" lon="2.935">
        <ele>974.177957</ele>
        <time>2021-07-06T15:29:14+0200</time>
      </trkpt>
      <trkpt lat="45.79227" lon="2.93506">
        <ele>973.683015</ele>
        <time>2021-07-06T15:29:17+0200</time>
      </trkpt>
      <trkpt lat="45.79223" lon="2.93513">
        <ele>973.062495</ele>
        <time>2021-07-06T15:29:20+0200</time>
      </trkpt>
      <trkpt lat="45.79223" lon="2.93522">
        <ele>972.897556</ele>
        <time>2021-07-06T15:29:23+0200</time>
      </trkpt>
      <trkpt lat="45.79222" lon="2.9353">
        <ele>975.976327</ele>
        <time>2021-07-06T15:29:27+0200</time>
      </trkpt>
      <trkpt lat="45.79223" lon="2.93538">
        <ele>977.888276</ele>
        <time>2021-07-06T15:29:31+0200</time>
      </trkpt>
      <trkpt lat="45.7922" lon="2.93544">
        <ele>978.241999</ele>
        <time>2021-07-06T15:29:36+0200</time>
      </trkpt>
      <trkpt lat="45.79218" lon="2.93552">
        <ele>977.384812</ele>
        <time>2021-07-06T15:29:39+0200</time>
      </trkpt>
      <trkpt lat="45.79216" lon="2.93559">
        <ele>976.512657</ele>
        <time>2021-07-06T15:29:43+0200</time>
      </trkpt>
      <trkpt lat="45.79216" lon="2.93567">
        <ele>974.908375</ele>
        <time>2021-07-06T15:29:46+0200</time>
      </trkpt>
      <trkpt lat="45.79216" lon="2.93574">
        <ele>975.359125</ele>
        <time>2021-07-06T15:29:52+0200</time>
      </trkpt>
      <trkpt lat="45.7922" lon="2.93572">
        <ele>974.070964</ele>
        <time>2021-07-06T15:30:41+0200</time>
      </trkpt>
      <trkpt lat="45.79218" lon="2.93578">
        <ele>972.930888</ele>
        <time>2021-07-06T15:31:12+0200</time>
      </trkpt>
      <trkpt lat="45.79215" lon="2.93582">
        <ele>975.298531</ele>
        <time>2021-07-06T15:31:17+0200</time>
      </trkpt>
      <trkpt lat="45.79211" lon="2.93587">
        <ele>978.429278</ele>
        <time>2021-07-06T15:31:21+0200</time>
      </trkpt>
      <trkpt lat="45.79208" lon="2.93593">
        <ele>978.339916</ele>
        <time>2021-07-06T15:31:24+0200</time>
      </trkpt>
      <trkpt lat="45.79205" lon="2.936">
        <ele>981.015206</ele>
        <time>2021-07-06T15:31:28+0200</time>
      </trkpt>
      <trkpt lat="45.79203" lon="2.93608">
        <ele>983.708422</ele>
        <time>2021-07-06T15:31:31+0200</time>
      </trkpt>
      <trkpt lat="45.792" lon="2.93614">
        <ele>985.228493</ele>
        <time>2021-07-06T15:31:34+0200</time>
      </trkpt>
      <trkpt lat="45.79199" lon="2.93621">
        <ele>984.65487</ele>
        <time>2021-07-06T15:31:37+0200</time>
      </trkpt>
      <trkpt lat="45.79194" lon="2.93628">
        <ele>983.733545</ele>
        <time>2021-07-06T15:31:40+0200</time>
      </trkpt>
      <trkpt lat="45.79193" lon="2.93635">
        <ele>982.418479</ele>
        <time>2021-07-06T15:31:42+0200</time>
      </trkpt>
      <trkpt lat="45.7919" lon="2.93642">
        <ele>981.556796</ele>
        <time>2021-07-06T15:31:45+0200</time>
      </trkpt>
      <trkpt lat="45.79188" lon="2.9365">
        <ele>980.693783</ele>
        <time>2021-07-06T15:31:48+0200</time>
      </trkpt>
      <trkpt lat="45.79187" lon="2.93658">
        <ele>980.805513</ele>
        <time>2021-07-06T15:31:51+0200</time>
      </trkpt>
      <trkpt lat="45.79182" lon="2.93662">
        <ele>982.616443</ele>
        <time>2021-07-06T15:31:55+0200</time>
      </trkpt>
      <trkpt lat="45.79181" lon="2.9367">
        <ele>984.89577</ele>
        <time>2021-07-06T15:31:59+0200</time>
      </trkpt>
      <trkpt lat="45.7918" lon="2.93678">
        <ele>983.990374</ele>
        <time>2021-07-06T15:32:03+0200</time>
      </trkpt>
      <trkpt lat="45.7918" lon="2.93685">
        <ele>984.310489</ele>
        <time>2021-07-06T15:32:06+0200</time>
      </trkpt>
      <trkpt lat="45.7918" lon="2.93692">
        <ele>985.547419</ele>
        <time>2021-07-06T15:32:10+0200</time>
      </trkpt>
      <trkpt lat="45.79179" lon="2.937">
        <ele>988.411159</ele>
        <time>2021-07-06T15:32:15+0200</time>
      </trkpt>
      <trkpt lat="45.79176" lon="2.93707">
        <ele>988.543655</ele>
        <time>2021-07-06T15:32:18+0200</time>
      </trkpt>
      <trkpt lat="45.79176" lon="2.93716">
        <ele>987.35891</ele>
        <time>2021-07-06T15:32:21+0200</time>
      </trkpt>
      <trkpt lat="45.79176" lon="2.93725">
        <ele>986.710977</ele>
        <time>2021-07-06T15:32:24+0200</time>
      </trkpt>
      <trkpt lat="45.79175" lon="2.93732">
        <ele>986.908914</ele>
        <time>2021-07-06T15:32:27+0200</time>
      </trkpt>
      <trkpt lat="45.79175" lon="2.93739">
        <ele>990.139069</ele>
        <time>2021-07-06T15:32:31+0200</time>
      </trkpt>
      <trkpt lat="45.79174" lon="2.93746">
        <ele>994.355009</ele>
        <time>2021-07-06T15:32:37+0200</time>
      </trkpt>
      <trkpt lat="45.79174" lon="2.93754">
        <ele>993.824182</ele>
        <time>2021-07-06T15:32:41+0200</time>
      </trkpt>
      <trkpt lat="45.79172" lon="2.93762">
        <ele>995.150871</ele>
        <time>2021-07-06T15:32:45+0200</time>
      </trkpt>
      <trkpt lat="45.7917" lon="2.93767">
        <ele>996.83915</ele>
        <time>2021-07-06T15:32:47+0200</time>
      </trkpt>
      <trkpt lat="45.7917" lon="2.93775">
        <ele>996.982792</ele>
        <time>2021-07-06T15:32:52+0200</time>
      </trkpt>
      <trkpt lat="45.7917" lon="2.93782">
        <ele>998.850706</ele>
        <time>2021-07-06T15:32:56+0200</time>
      </trkpt>
      <trkpt lat="45.79169" lon="2.93791">
        <ele>1002.183551</ele>
        <time>2021-07-06T15:33:02+0200</time>
      </trkpt>
      <trkpt lat="45.79169" lon="2.93798">
        <ele>1001.253554</ele>
        <time>2021-07-06T15:33:05+0200</time>
      </trkpt>
      <trkpt lat="45.79169" lon="2.93806">
        <ele>999.34869</ele>
        <time>2021-07-06T15:33:09+0200</time>
      </trkpt>
      <trkpt lat="45.79166" lon="2.93811">
        <ele>1002.551487</ele>
        <time>2021-07-06T15:33:14+0200</time>
      </trkpt>
      <trkpt lat="45.79164" lon="2.93818">
        <ele>1006.400633</ele>
        <time>2021-07-06T15:33:18+0200</time>
      </trkpt>
      <trkpt lat="45.79163" lon="2.93826">
        <ele>1005.122668</ele>
        <time>2021-07-06T15:33:21+0200</time>
      </trkpt>
      <trkpt lat="45.79163" lon="2.93832">
        <ele>1003.528829</ele>
        <time>2021-07-06T15:33:24+0200</time>
      </trkpt>
      <trkpt lat="45.79161" lon="2.9384">
        <ele>1002.453097</ele>
        <time>2021-07-06T15:33:28+0200</time>
      </trkpt>
      <trkpt lat="45.79159" lon="2.93846">
        <ele>1005.911622</ele>
        <time>2021-07-06T15:33:32+0200</time>
      </trkpt>
      <trkpt lat="45.79161" lon="2.93853">
        <ele>1007.320548</ele>
        <time>2021-07-06T15:33:55+0200</time>
      </trkpt>
      <trkpt lat="45.79165" lon="2.93858">
        <ele>1008.490525</ele>
        <time>2021-07-06T15:34:00+0200</time>
      </trkpt>
      <trkpt lat="45.79165" lon="2.93865">
        <ele>1009.620398</ele>
        <time>2021-07-06T15:34:05+0200</time>
      </trkpt>
      <trkpt lat="45.79163" lon="2.93872">
        <ele>1007.858193</ele>
        <time>2021-07-06T15:34:08+0200</time>
      </trkpt>
      <trkpt lat="45.79163" lon="2.9388">
        <ele>1010.838627</ele>
        <time>2021-07-06T15:34:13+0200</time>
      </trkpt>
      <trkpt lat="45.79165" lon="2.93887">
        <ele>1011.908939</ele>
        <time>2021-07-06T15:34:18+0200</time>
      </trkpt>
      <trkpt lat="45.79166" lon="2.93895">
        <ele>1013.577822</ele>
        <time>2021-07-06T15:34:23+0200</time>
      </trkpt>
      <trkpt lat="45.79165" lon="2.93902">
        <ele>1014.854798</ele>
        <time>2021-07-06T15:34:27+0200</time>
      </trkpt>
      <trkpt lat="45.79164" lon="2.93909">
        <ele>1015.514073</ele>
        <time>2021-07-06T15:34:31+0200</time>
      </trkpt>
      <trkpt lat="45.79165" lon="2.93915">
        <ele>1015.341976</ele>
        <time>2021-07-06T15:34:35+0200</time>
      </trkpt>
      <trkpt lat="45.7916" lon="2.93918">
        <ele>1016.383994</ele>
        <time>2021-07-06T15:34:45+0200</time>
      </trkpt>
      <trkpt lat="45.79159" lon="2.93925">
        <ele>1018.038213</ele>
        <time>2021-07-06T15:34:55+0200</time>
      </trkpt>
      <trkpt lat="45.79159" lon="2.93931">
        <ele>1017.870776</ele>
        <time>2021-07-06T15:35:00+0200</time>
      </trkpt>
      <trkpt lat="45.79159" lon="2.93938">
        <ele>1021.576814</ele>
        <time>2021-07-06T15:35:08+0200</time>
      </trkpt>
      <trkpt lat="45.79159" lon="2.93945">
        <ele>1022.379549</ele>
        <time>2021-07-06T15:35:15+0200</time>
      </trkpt>
      <trkpt lat="45.79161" lon="2.93951">
        <ele>1022.161897</ele>
        <time>2021-07-06T15:35:19+0200</time>
      </trkpt>
      <trkpt lat="45.7916" lon="2.93958">
        <ele>1020.917927</ele>
        <time>2021-07-06T15:35:28+0200</time>
      </trkpt>
      <trkpt lat="45.79162" lon="2.93963">
        <ele>1019.857711</ele>
        <time>2021-07-06T15:36:44+0200</time>
      </trkpt>
      <trkpt lat="45.79164" lon="2.93971">
        <ele>1019.960099</ele>
        <time>2021-07-06T15:36:48+0200</time>
      </trkpt>
      <trkpt lat="45.79164" lon="2.93977">
        <ele>1023.568996</ele>
        <time>2021-07-06T15:36:53+0200</time>
      </trkpt>
      <trkpt lat="45.79167" lon="2.93984">
        <ele>1026.126001</ele>
        <time>2021-07-06T15:36:57+0200</time>
      </trkpt>
      <trkpt lat="45.79167" lon="2.9399">
        <ele>1027.317554</ele>
        <time>2021-07-06T15:37:01+0200</time>
      </trkpt>
      <trkpt lat="45.7917" lon="2.93997">
        <ele>1025.324524</ele>
        <time>2021-07-06T15:37:04+0200</time>
      </trkpt>
      <trkpt lat="45.79172" lon="2.94002">
        <ele>1023.967068</ele>
        <time>2021-07-06T15:37:08+0200</time>
      </trkpt>
      <trkpt lat="45.79171" lon="2.9401">
        <ele>1024.557239</ele>
        <time>2021-07-06T15:37:12+0200</time>
      </trkpt>
      <trkpt lat="45.79169" lon="2.94016">
        <ele>1025.652206</ele>
        <time>2021-07-06T15:37:16+0200</time>
      </trkpt>
      <trkpt lat="45.79167" lon="2.94022">
        <ele>1025.631884</ele>
        <time>2021-07-06T15:37:20+0200</time>
      </trkpt>
      <trkpt lat="45.79164" lon="2.94028">
        <ele>1025.359094</ele>
        <time>2021-07-06T15:37:23+0200</time>
      </trkpt>
      <trkpt lat="45.79166" lon="2.94037">
        <ele>1023.21995</ele>
        <time>2021-07-06T15:37:27+0200</time>
      </trkpt>
      <trkpt lat="45.79165" lon="2.94045">
        <ele>1022.85092</ele>
        <time>2021-07-06T15:37:30+0200</time>
      </trkpt>
      <trkpt lat="45.79166" lon="2.94054">
        <ele>1023.186844</ele>
        <time>2021-07-06T15:37:34+0200</time>
      </trkpt>
      <trkpt lat="45.79165" lon="2.9406">
        <ele>1023.051121</ele>
        <time>2021-07-06T15:37:39+0200</time>
      </trkpt>
      <trkpt lat="45.79166" lon="2.94067">
        <ele>1024.594443</ele>
        <time>2021-07-06T15:37:42+0200</time>
      </trkpt>
      <trkpt lat="45.79166" lon="2.94075">
        <ele>1025.652578</ele>
        <time>2021-07-06T15:37:46+0200</time>
      </trkpt>
      <trkpt lat="45.79166" lon="2.94081">
        <ele>1025.634803</ele>
        <time>2021-07-06T15:37:47+0200</time>
      </trkpt>
      <trkpt lat="45.79164" lon="2.9409">
        <ele>1024.83113</ele>
        <time>2021-07-06T15:37:50+0200</time>
      </trkpt>
      <trkpt lat="45.79164" lon="2.94097">
        <ele>1023.915543</ele>
        <time>2021-07-06T15:37:53+0200</time>
      </trkpt>
      <trkpt lat="45.79163" lon="2.94104">
        <ele>1026.545888</ele>
        <time>2021-07-06T15:37:57+0200</time>
      </trkpt>
      <trkpt lat="45.79163" lon="2.94111">
        <ele>1026.441603</ele>
        <time>2021-07-06T15:38:00+0200</time>
      </trkpt>
      <trkpt lat="45.79165" lon="2.94118">
        <ele>1026.046014</ele>
        <time>2021-07-06T15:38:03+0200</time>
      </trkpt>
      <trkpt lat="45.79167" lon="2.94124">
        <ele>1026.06958</ele>
        <time>2021-07-06T15:38:05+0200</time>
      </trkpt>
      <trkpt lat="45.79169" lon="2.9413">
        <ele>1027.137997</ele>
        <time>2021-07-06T15:38:07+0200</time>
      </trkpt>
      <trkpt lat="45.7917" lon="2.94139">
        <ele>1027.060348</ele>
        <time>2021-07-06T15:38:10+0200</time>
      </trkpt>
      <trkpt lat="45.79171" lon="2.94147">
        <ele>1027.494598</ele>
        <time>2021-07-06T15:38:13+0200</time>
      </trkpt>
      <trkpt lat="45.79171" lon="2.94156">
        <ele>1028.766967</ele>
        <time>2021-07-06T15:38:16+0200</time>
      </trkpt>
      <trkpt lat="45.79171" lon="2.94163">
        <ele>1028.889588</ele>
        <time>2021-07-06T15:38:18+0200</time>
      </trkpt>
      <trkpt lat="45.79172" lon="2.94173">
        <ele>1028.114896</ele>
        <time>2021-07-06T15:38:21+0200</time>
      </trkpt>
      <trkpt lat="45.79171" lon="2.9418">
        <ele>1028.065964</ele>
        <time>2021-07-06T15:38:23+0200</time>
      </trkpt>
      <trkpt lat="45.79171" lon="2.94187">
        <ele>1029.276429</ele>
        <time>2021-07-06T15:38:26+0200</time>
      </trkpt>
      <trkpt lat="45.79173" lon="2.94193">
        <ele>1029.359138</ele>
        <time>2021-07-06T15:38:28+0200</time>
      </trkpt>
      <trkpt lat="45.79174" lon="2.94201">
        <ele>1031.812833</ele>
        <time>2021-07-06T15:38:31+0200</time>
      </trkpt>
      <trkpt lat="45.79174" lon="2.9421">
        <ele>1031.450408</ele>
        <time>2021-07-06T15:38:34+0200</time>
      </trkpt>
      <trkpt lat="45.79174" lon="2.94217">
        <ele>1032.567496</ele>
        <time>2021-07-06T15:38:37+0200</time>
      </trkpt>
      <trkpt lat="45.79175" lon="2.94223">
        <ele>1034.178536</ele>
        <time>2021-07-06T15:38:39+0200</time>
      </trkpt>
      <trkpt lat="45.79175" lon="2.94232">
        <ele>1034.756015</ele>
        <time>2021-07-06T15:38:42+0200</time>
      </trkpt>
      <trkpt lat="45.79179" lon="2.94238">
        <ele>1033.959783</ele>
        <time>2021-07-06T15:38:43+0200</time>
      </trkpt>
      <trkpt lat="45.7918" lon="2.94245">
        <ele>1033.212054</ele>
        <time>2021-07-06T15:38:45+0200</time>
      </trkpt>
      <trkpt lat="45.79181" lon="2.94254">
        <ele>1034.454566</ele>
        <time>2021-07-06T15:38:48+0200</time>
      </trkpt>
      <trkpt lat="45.79183" lon="2.9426">
        <ele>1035.641038</ele>
        <time>2021-07-06T15:38:50+0200</time>
      </trkpt>
      <trkpt lat="45.79184" lon="2.94268">
        <ele>1034.8887</ele>
        <time>2021-07-06T15:38:52+0200</time>
      </trkpt>
      <trkpt lat="45.79187" lon="2.94276">
        <ele>1033.073038</ele>
        <time>2021-07-06T15:38:55+0200</time>
      </trkpt>
      <trkpt lat="45.79189" lon="2.94283">
        <ele>1032.9233</ele>
        <time>2021-07-06T15:38:57+0200</time>
      </trkpt>
      <trkpt lat="45.7919" lon="2.94289">
        <ele>1032.130354</ele>
        <time>2021-07-06T15:38:59+0200</time>
      </trkpt>
      <trkpt lat="45.79192" lon="2.94296">
        <ele>1030.72695</ele>
        <time>2021-07-06T15:39:01+0200</time>
      </trkpt>
      <trkpt lat="45.79194" lon="2.94305">
        <ele>1030.029871</ele>
        <time>2021-07-06T15:39:04+0200</time>
      </trkpt>
      <trkpt lat="45.79195" lon="2.94315">
        <ele>1029.83137</ele>
        <time>2021-07-06T15:39:07+0200</time>
      </trkpt>
      <trkpt lat="45.79196" lon="2.94322">
        <ele>1029.717808</ele>
        <time>2021-07-06T15:39:09+0200</time>
      </trkpt>
      <trkpt lat="45.79198" lon="2.94331">
        <ele>1028.867551</ele>
        <time>2021-07-06T15:39:12+0200</time>
      </trkpt>
      <trkpt lat="45.79199" lon="2.94338">
        <ele>1028.66679</ele>
        <time>2021-07-06T15:39:14+0200</time>
      </trkpt>
      <trkpt lat="45.79201" lon="2.94347">
        <ele>1027.344472</ele>
        <time>2021-07-06T15:39:17+0200</time>
      </trkpt>
      <trkpt lat="45.79203" lon="2.94355">
        <ele>1027.449951</ele>
        <time>2021-07-06T15:39:20+0200</time>
      </trkpt>
      <trkpt lat="45.79204" lon="2.94364">
        <ele>1028.532974</ele>
        <time>2021-07-06T15:39:23+0200</time>
      </trkpt>
      <trkpt lat="45.79204" lon="2.94371">
        <ele>1029.785967</ele>
        <time>2021-07-06T15:39:26+0200</time>
      </trkpt>
      <trkpt lat="45.79205" lon="2.94377">
        <ele>1030.310837</ele>
        <time>2021-07-06T15:39:28+0200</time>
      </trkpt>
      <trkpt lat="45.79209" lon="2.94384">
        <ele>1029.033809</ele>
        <time>2021-07-06T15:39:31+0200</time>
      </trkpt>
      <trkpt lat="45.79213" lon="2.94392">
        <ele>1028.366174</ele>
        <time>2021-07-06T15:39:34+0200</time>
      </trkpt>
      <trkpt lat="45.79217" lon="2.94398">
        <ele>1027.616365</ele>
        <time>2021-07-06T15:39:36+0200</time>
      </trkpt>
      <trkpt lat="45.79219" lon="2.94404">
        <ele>1027.303366</ele>
        <time>2021-07-06T15:39:38+0200</time>
      </trkpt>
      <trkpt lat="45.79221" lon="2.94411">
        <ele>1027.339803</ele>
        <time>2021-07-06T15:39:40+0200</time>
      </trkpt>
      <trkpt lat="45.79221" lon="2.94418">
        <ele>1027.876875</ele>
        <time>2021-07-06T15:39:42+0200</time>
      </trkpt>
      <trkpt lat="45.79223" lon="2.94424">
        <ele>1027.896271</ele>
        <time>2021-07-06T15:39:44+0200</time>
      </trkpt>
      <trkpt lat="45.79223" lon="2.94435">
        <ele>1028.524489</ele>
        <time>2021-07-06T15:39:47+0200</time>
      </trkpt>
      <trkpt lat="45.79226" lon="2.94441">
        <ele>1028.307029</ele>
        <time>2021-07-06T15:39:49+0200</time>
      </trkpt>
      <trkpt lat="45.79228" lon="2.94449">
        <ele>1029.525175</ele>
        <time>2021-07-06T15:39:52+0200</time>
      </trkpt>
      <trkpt lat="45.7923" lon="2.94456">
        <ele>1029.705374</ele>
        <time>2021-07-06T15:39:54+0200</time>
      </trkpt>
      <trkpt lat="45.79233" lon="2.94461">
        <ele>1030.326786</ele>
        <time>2021-07-06T15:39:56+0200</time>
      </trkpt>
      <trkpt lat="45.79236" lon="2.94468">
        <ele>1030.987459</ele>
        <time>2021-07-06T15:39:58+0200</time>
      </trkpt>
      <trkpt lat="45.79236" lon="2.94476">
        <ele>1030.79805</ele>
        <time>2021-07-06T15:40:00+0200</time>
      </trkpt>
      <trkpt lat="45.79239" lon="2.94483">
        <ele>1030.299923</ele>
        <time>2021-07-06T15:40:02+0200</time>
      </trkpt>
      <trkpt lat="45.79241" lon="2.94491">
        <ele>1030.271792</ele>
        <time>2021-07-06T15:40:04+0200</time>
      </trkpt>
      <trkpt lat="45.79243" lon="2.94498">
        <ele>1029.729554</ele>
        <time>2021-07-06T15:40:06+0200</time>
      </trkpt>
      <trkpt lat="45.79245" lon="2.94504">
        <ele>1030.399407</ele>
        <time>2021-07-06T15:40:08+0200</time>
      </trkpt>
      <trkpt lat="45.79248" lon="2.94509">
        <ele>1029.328608</ele>
        <time>2021-07-06T15:40:10+0200</time>
      </trkpt>
      <trkpt lat="45.79252" lon="2.94515">
        <ele>1028.73001</ele>
        <time>2021-07-06T15:40:12+0200</time>
      </trkpt>
      <trkpt lat="45.79253" lon="2.94523">
        <ele>1027.848852</ele>
        <time>2021-07-06T15:40:15+0200</time>
      </trkpt>
      <trkpt lat="45.79255" lon="2.9453">
        <ele>1027.11868</ele>
        <time>2021-07-06T15:40:18+0200</time>
      </trkpt>
      <trkpt lat="45.7925" lon="2.94527">
        <ele>1026.854976</ele>
        <time>2021-07-06T15:40:24+0200</time>
      </trkpt>
      <trkpt lat="45.79248" lon="2.9452">
        <ele>1028.408032</ele>
        <time>2021-07-06T15:40:26+0200</time>
      </trkpt>
      <trkpt lat="45.79243" lon="2.94515">
        <ele>1029.293796</ele>
        <time>2021-07-06T15:40:30+0200</time>
      </trkpt>
      <trkpt lat="45.79238" lon="2.94511">
        <ele>1028.524624</ele>
        <time>2021-07-06T15:40:33+0200</time>
      </trkpt>
      <trkpt lat="45.79235" lon="2.94505">
        <ele>1028.234275</ele>
        <time>2021-07-06T15:40:35+0200</time>
      </trkpt>
      <trkpt lat="45.7923" lon="2.945">
        <ele>1029.241376</ele>
        <time>2021-07-06T15:40:37+0200</time>
      </trkpt>
      <trkpt lat="45.79224" lon="2.94499">
        <ele>1029.608751</ele>
        <time>2021-07-06T15:40:40+0200</time>
      </trkpt>
      <trkpt lat="45.79219" lon="2.945">
        <ele>1029.25971</ele>
        <time>2021-07-06T15:40:42+0200</time>
      </trkpt>
      <trkpt lat="45.79214" lon="2.94501">
        <ele>1030.590049</ele>
        <time>2021-07-06T15:40:45+0200</time>
      </trkpt>
      <trkpt lat="45.79209" lon="2.94498">
        <ele>1032.083552</ele>
        <time>2021-07-06T15:40:48+0200</time>
      </trkpt>
      <trkpt lat="45.79205" lon="2.94496">
        <ele>1032.581347</ele>
        <time>2021-07-06T15:40:51+0200</time>
      </trkpt>
      <trkpt lat="45.792" lon="2.94493">
        <ele>1033.463308</ele>
        <time>2021-07-06T15:40:53+0200</time>
      </trkpt>
      <trkpt lat="45.79196" lon="2.9449">
        <ele>1033.927611</ele>
        <time>2021-07-06T15:40:55+0200</time>
      </trkpt>
      <trkpt lat="45.79192" lon="2.94484">
        <ele>1030.900857</ele>
        <time>2021-07-06T15:40:58+0200</time>
      </trkpt>
      <trkpt lat="45.79186" lon="2.9448">
        <ele>1032.022622</ele>
        <time>2021-07-06T15:41:02+0200</time>
      </trkpt>
      <trkpt lat="45.79182" lon="2.94476">
        <ele>1032.350011</ele>
        <time>2021-07-06T15:41:04+0200</time>
      </trkpt>
      <trkpt lat="45.79178" lon="2.94471">
        <ele>1034.896908</ele>
        <time>2021-07-06T15:41:06+0200</time>
      </trkpt>
      <trkpt lat="45.79173" lon="2.94466">
        <ele>1038.544531</ele>
        <time>2021-07-06T15:41:11+0200</time>
      </trkpt>
      <trkpt lat="45.79169" lon="2.94462">
        <ele>1039.841784</ele>
        <time>2021-07-06T15:41:14+0200</time>
      </trkpt>
      <trkpt lat="45.79165" lon="2.94458">
        <ele>1039.469914</ele>
        <time>2021-07-06T15:41:17+0200</time>
      </trkpt>
      <trkpt lat="45.79158" lon="2.94455">
        <ele>1038.82031</ele>
        <time>2021-07-06T15:41:21+0200</time>
      </trkpt>
      <trkpt lat="45.79152" lon="2.94451">
        <ele>1039.72002</ele>
        <time>2021-07-06T15:41:24+0200</time>
      </trkpt>
      <trkpt lat="45.79148" lon="2.94444">
        <ele>1040.500201</ele>
        <time>2021-07-06T15:41:27+0200</time>
      </trkpt>
      <trkpt lat="45.79141" lon="2.94442">
        <ele>1040.573731</ele>
        <time>2021-07-06T15:41:30+0200</time>
      </trkpt>
      <trkpt lat="45.79134" lon="2.94439">
        <ele>1041.206565</ele>
        <time>2021-07-06T15:41:32+0200</time>
      </trkpt>
      <trkpt lat="45.7913" lon="2.94437">
        <ele>1041.094178</ele>
        <time>2021-07-06T15:41:34+0200</time>
      </trkpt>
      <trkpt lat="45.79124" lon="2.94436">
        <ele>1040.047127</ele>
        <time>2021-07-06T15:41:37+0200</time>
      </trkpt>
      <trkpt lat="45.79118" lon="2.94436">
        <ele>1038.241558</ele>
        <time>2021-07-06T15:41:40+0200</time>
      </trkpt>
      <trkpt lat="45.79112" lon="2.94435">
        <ele>1038.672866</ele>
        <time>2021-07-06T15:41:42+0200</time>
      </trkpt>
      <trkpt lat="45.79107" lon="2.94434">
        <ele>1038.807622</ele>
        <time>2021-07-06T15:41:44+0200</time>
      </trkpt>
      <trkpt lat="45.79102" lon="2.9443">
        <ele>1039.557513</ele>
        <time>2021-07-06T15:41:46+0200</time>
      </trkpt>
      <trkpt lat="45.79096" lon="2.9443">
        <ele>1040.78738</ele>
        <time>2021-07-06T15:41:48+0200</time>
      </trkpt>
      <trkpt lat="45.79092" lon="2.9443">
        <ele>1041.709894</ele>
        <time>2021-07-06T15:41:50+0200</time>
      </trkpt>
      <trkpt lat="45.79086" lon="2.94427">
        <ele>1042.451203</ele>
        <time>2021-07-06T15:41:53+0200</time>
      </trkpt>
      <trkpt lat="45.79081" lon="2.94424">
        <ele>1041.894952</ele>
        <time>2021-07-06T15:41:55+0200</time>
      </trkpt>
      <trkpt lat="45.79075" lon="2.9442">
        <ele>1041.314106</ele>
        <time>2021-07-06T15:41:57+0200</time>
      </trkpt>
      <trkpt lat="45.79069" lon="2.9442">
        <ele>1042.335165</ele>
        <time>2021-07-06T15:42:00+0200</time>
      </trkpt>
      <trkpt lat="45.79063" lon="2.94419">
        <ele>1043.134659</ele>
        <time>2021-07-06T15:42:03+0200</time>
      </trkpt>
      <trkpt lat="45.79057" lon="2.94415">
        <ele>1041.882584</ele>
        <time>2021-07-06T15:42:06+0200</time>
      </trkpt>
      <trkpt lat="45.79051" lon="2.94414">
        <ele>1040.715868</ele>
        <time>2021-07-06T15:42:08+0200</time>
      </trkpt>
      <trkpt lat="45.79045" lon="2.9441">
        <ele>1040.213436</ele>
        <time>2021-07-06T15:42:11+0200</time>
      </trkpt>
      <trkpt lat="45.79038" lon="2.9441">
        <ele>1040.3154</ele>
        <time>2021-07-06T15:42:14+0200</time>
      </trkpt>
      <trkpt lat="45.79031" lon="2.94409">
        <ele>1044.724122</ele>
        <time>2021-07-06T15:42:16+0200</time>
      </trkpt>
      <trkpt lat="45.79027" lon="2.94408">
        <ele>1043.91387</ele>
        <time>2021-07-06T15:42:20+0200</time>
      </trkpt>
      <trkpt lat="45.79022" lon="2.94408">
        <ele>1043.059011</ele>
        <time>2021-07-06T15:42:22+0200</time>
      </trkpt>
      <trkpt lat="45.79017" lon="2.94409">
        <ele>1042.658089</ele>
        <time>2021-07-06T15:42:25+0200</time>
      </trkpt>
      <trkpt lat="45.79011" lon="2.94406">
        <ele>1042.718123</ele>
        <time>2021-07-06T15:42:28+0200</time>
      </trkpt>
      <trkpt lat="45.79006" lon="2.94407">
        <ele>1043.190954</ele>
        <time>2021-07-06T15:42:31+0200</time>
      </trkpt>
      <trkpt lat="45.79001" lon="2.94408">
        <ele>1045.298741</ele>
        <time>2021-07-06T15:42:34+0200</time>
      </trkpt>
      <trkpt lat="45.78996" lon="2.9441">
        <ele>1044.94792</ele>
        <time>2021-07-06T15:42:37+0200</time>
      </trkpt>
      <trkpt lat="45.7899" lon="2.94408">
        <ele>1045.45743</ele>
        <time>2021-07-06T15:42:40+0200</time>
      </trkpt>
      <trkpt lat="45.78983" lon="2.94409">
        <ele>1048.074569</ele>
        <time>2021-07-06T15:42:43+0200</time>
      </trkpt>
      <trkpt lat="45.78978" lon="2.9441">
        <ele>1047.590727</ele>
        <time>2021-07-06T15:42:46+0200</time>
      </trkpt>
      <trkpt lat="45.78973" lon="2.94409">
        <ele>1048.414909</ele>
        <time>2021-07-06T15:42:49+0200</time>
      </trkpt>
      <trkpt lat="45.78968" lon="2.94409">
        <ele>1048.184812</ele>
        <time>2021-07-06T15:42:52+0200</time>
      </trkpt>
      <trkpt lat="45.78963" lon="2.94409">
        <ele>1047.732805</ele>
        <time>2021-07-06T15:42:57+0200</time>
      </trkpt>
      <trkpt lat="45.78957" lon="2.9441">
        <ele>1049.400241</ele>
        <time>2021-07-06T15:43:01+0200</time>
      </trkpt>
      <trkpt lat="45.78952" lon="2.9441">
        <ele>1050.224197</ele>
        <time>2021-07-06T15:43:04+0200</time>
      </trkpt>
      <trkpt lat="45.78946" lon="2.9441">
        <ele>1050.530115</ele>
        <time>2021-07-06T15:43:08+0200</time>
      </trkpt>
      <trkpt lat="45.78941" lon="2.9441">
        <ele>1050.109645</ele>
        <time>2021-07-06T15:43:11+0200</time>
      </trkpt>
      <trkpt lat="45.78934" lon="2.94408">
        <ele>1050.118509</ele>
        <time>2021-07-06T15:43:15+0200</time>
      </trkpt>
      <trkpt lat="45.7893" lon="2.94406">
        <ele>1050.697787</ele>
        <time>2021-07-06T15:43:17+0200</time>
      </trkpt>
      <trkpt lat="45.78925" lon="2.94406">
        <ele>1049.531147</ele>
        <time>2021-07-06T15:43:19+0200</time>
      </trkpt>
      <trkpt lat="45.78922" lon="2.944">
        <ele>1049.793508</ele>
        <time>2021-07-06T15:43:22+0200</time>
      </trkpt>
      <trkpt lat="45.78925" lon="2.94395">
        <ele>1052.627386</ele>
        <time>2021-07-06T15:43:33+0200</time>
      </trkpt>
      <trkpt lat="45.78923" lon="2.944">
        <ele>1046.766243</ele>
        <time>2021-07-06T15:43:39+0200</time>
      </trkpt>
      <trkpt lat="45.78919" lon="2.94396">
        <ele>1048.800999</ele>
        <time>2021-07-06T15:43:54+0200</time>
      </trkpt>
      <trkpt lat="45.78914" lon="2.94396">
        <ele>1053.55582</ele>
        <time>2021-07-06T15:44:04+0200</time>
      </trkpt>
      <trkpt lat="45.7891" lon="2.94399">
        <ele>1054.342284</ele>
        <time>2021-07-06T15:44:13+0200</time>
      </trkpt>
      <trkpt lat="45.78913" lon="2.94404">
        <ele>1049.311217</ele>
        <time>2021-07-06T15:44:23+0200</time>
      </trkpt>
      <trkpt lat="45.78908" lon="2.94406">
        <ele>1054.104735</ele>
        <time>2021-07-06T15:44:42+0200</time>
      </trkpt>
      <trkpt lat="45.78903" lon="2.94403">
        <ele>1052.677182</ele>
        <time>2021-07-06T15:44:44+0200</time>
      </trkpt>
      <trkpt lat="45.78897" lon="2.94406">
        <ele>1050.211563</ele>
        <time>2021-07-06T15:44:46+0200</time>
      </trkpt>
      <trkpt lat="45.78891" lon="2.94409">
        <ele>1048.766314</ele>
        <time>2021-07-06T15:44:48+0200</time>
      </trkpt>
      <trkpt lat="45.78884" lon="2.94411">
        <ele>1047.511528</ele>
        <time>2021-07-06T15:44:50+0200</time>
      </trkpt>
      <trkpt lat="45.78877" lon="2.94412">
        <ele>1046.878233</ele>
        <time>2021-07-06T15:44:52+0200</time>
      </trkpt>
      <trkpt lat="45.78871" lon="2.94414">
        <ele>1045.524142</ele>
        <time>2021-07-06T15:44:54+0200</time>
      </trkpt>
      <trkpt lat="45.78864" lon="2.94416">
        <ele>1044.316422</ele>
        <time>2021-07-06T15:44:56+0200</time>
      </trkpt>
      <trkpt lat="45.78857" lon="2.9442">
        <ele>1044.011752</ele>
        <time>2021-07-06T15:44:58+0200</time>
      </trkpt>
      <trkpt lat="45.78851" lon="2.94423">
        <ele>1044.780828</ele>
        <time>2021-07-06T15:45:00+0200</time>
      </trkpt>
      <trkpt lat="45.78843" lon="2.94428">
        <ele>1045.382482</ele>
        <time>2021-07-06T15:45:02+0200</time>
      </trkpt>
      <trkpt lat="45.78838" lon="2.94433">
        <ele>1043.841267</ele>
        <time>2021-07-06T15:45:04+0200</time>
      </trkpt>
      <trkpt lat="45.78829" lon="2.94436">
        <ele>1042.619865</ele>
        <time>2021-07-06T15:45:06+0200</time>
      </trkpt>
      <trkpt lat="45.78824" lon="2.9444">
        <ele>1042.041427</ele>
        <time>2021-07-06T15:45:07+0200</time>
      </trkpt>
      <trkpt lat="45.7882" lon="2.94442">
        <ele>1041.859278</ele>
        <time>2021-07-06T15:45:08+0200</time>
      </trkpt>
      <trkpt lat="45.78814" lon="2.94444">
        <ele>1041.69949</ele>
        <time>2021-07-06T15:45:09+0200</time>
      </trkpt>
      <trkpt lat="45.78809" lon="2.94446">
        <ele>1040.716652</ele>
        <time>2021-07-06T15:45:10+0200</time>
      </trkpt>
      <trkpt lat="45.78805" lon="2.94448">
        <ele>1040.052671</ele>
        <time>2021-07-06T15:45:12+0200</time>
      </trkpt>
      <trkpt lat="45.78796" lon="2.94449">
        <ele>1038.45915</ele>
        <time>2021-07-06T15:45:14+0200</time>
      </trkpt>
      <trkpt lat="45.78788" lon="2.94452">
        <ele>1038.161451</ele>
        <time>2021-07-06T15:45:16+0200</time>
      </trkpt>
      <trkpt lat="45.78783" lon="2.94454">
        <ele>1039.058087</ele>
        <time>2021-07-06T15:45:17+0200</time>
      </trkpt>
      <trkpt lat="45.78777" lon="2.94453">
        <ele>1038.538918</ele>
        <time>2021-07-06T15:45:18+0200</time>
      </trkpt>
      <trkpt lat="45.78772" lon="2.94453">
        <ele>1038.014294</ele>
        <time>2021-07-06T15:45:19+0200</time>
      </trkpt>
      <trkpt lat="45.78767" lon="2.94455">
        <ele>1038.36669</ele>
        <time>2021-07-06T15:45:20+0200</time>
      </trkpt>
      <trkpt lat="45.78762" lon="2.94456">
        <ele>1038.042491</ele>
        <time>2021-07-06T15:45:21+0200</time>
      </trkpt>
      <trkpt lat="45.78757" lon="2.94455">
        <ele>1037.620758</ele>
        <time>2021-07-06T15:45:22+0200</time>
      </trkpt>
      <trkpt lat="45.78746" lon="2.94452">
        <ele>1038.871252</ele>
        <time>2021-07-06T15:45:24+0200</time>
      </trkpt>
      <trkpt lat="45.78741" lon="2.94451">
        <ele>1038.513835</ele>
        <time>2021-07-06T15:45:25+0200</time>
      </trkpt>
      <trkpt lat="45.78734" lon="2.94449">
        <ele>1037.614531</ele>
        <time>2021-07-06T15:45:26+0200</time>
      </trkpt>
      <trkpt lat="45.78727" lon="2.94444">
        <ele>1037.378285</ele>
        <time>2021-07-06T15:45:27+0200</time>
      </trkpt>
      <trkpt lat="45.78719" lon="2.94439">
        <ele>1038.23091</ele>
        <time>2021-07-06T15:45:28+0200</time>
      </trkpt>
      <trkpt lat="45.78712" lon="2.94436">
        <ele>1038.074001</ele>
        <time>2021-07-06T15:45:29+0200</time>
      </trkpt>
      <trkpt lat="45.78706" lon="2.94434">
        <ele>1037.49291</ele>
        <time>2021-07-06T15:45:30+0200</time>
      </trkpt>
      <trkpt lat="45.787" lon="2.94431">
        <ele>1037.642454</ele>
        <time>2021-07-06T15:45:31+0200</time>
      </trkpt>
      <trkpt lat="45.78694" lon="2.94428">
        <ele>1037.538299</ele>
        <time>2021-07-06T15:45:32+0200</time>
      </trkpt>
      <trkpt lat="45.78689" lon="2.94427">
        <ele>1037.048541</ele>
        <time>2021-07-06T15:45:33+0200</time>
      </trkpt>
      <trkpt lat="45.78684" lon="2.94424">
        <ele>1037.006391</ele>
        <time>2021-07-06T15:45:34+0200</time>
      </trkpt>
      <trkpt lat="45.7868" lon="2.94422">
        <ele>1036.140476</ele>
        <time>2021-07-06T15:45:35+0200</time>
      </trkpt>
      <trkpt lat="45.78675" lon="2.94422">
        <ele>1035.746735</ele>
        <time>2021-07-06T15:45:36+0200</time>
      </trkpt>
      <trkpt lat="45.7867" lon="2.94421">
        <ele>1035.666819</ele>
        <time>2021-07-06T15:45:37+0200</time>
      </trkpt>
      <trkpt lat="45.78665" lon="2.94419">
        <ele>1035.116134</ele>
        <time>2021-07-06T15:45:38+0200</time>
      </trkpt>
      <trkpt lat="45.78657" lon="2.94424">
        <ele>1035.315426</ele>
        <time>2021-07-06T15:45:40+0200</time>
      </trkpt>
      <trkpt lat="45.78651" lon="2.94427">
        <ele>1034.650594</ele>
        <time>2021-07-06T15:45:42+0200</time>
      </trkpt>
      <trkpt lat="45.78647" lon="2.94431">
        <ele>1036.769419</ele>
        <time>2021-07-06T15:45:45+0200</time>
      </trkpt>
      <trkpt lat="45.78644" lon="2.94436">
        <ele>1038.674633</ele>
        <time>2021-07-06T15:45:49+0200</time>
      </trkpt>
      <trkpt lat="45.78643" lon="2.94444">
        <ele>1039.277906</ele>
        <time>2021-07-06T15:45:51+0200</time>
      </trkpt>
      <trkpt lat="45.78641" lon="2.94453">
        <ele>1040.731867</ele>
        <time>2021-07-06T15:45:54+0200</time>
      </trkpt>
      <trkpt lat="45.7864" lon="2.94462">
        <ele>1040.404216</ele>
        <time>2021-07-06T15:45:56+0200</time>
      </trkpt>
      <trkpt lat="45.7864" lon="2.94472">
        <ele>1040.056462</ele>
        <time>2021-07-06T15:45:59+0200</time>
      </trkpt>
      <trkpt lat="45.78639" lon="2.94478">
        <ele>1039.985797</ele>
        <time>2021-07-06T15:46:01+0200</time>
      </trkpt>
      <trkpt lat="45.78638" lon="2.94485">
        <ele>1039.629281</ele>
        <time>2021-07-06T15:46:03+0200</time>
      </trkpt>
      <trkpt lat="45.78638" lon="2.94492">
        <ele>1039.980577</ele>
        <time>2021-07-06T15:46:05+0200</time>
      </trkpt>
      <trkpt lat="45.78639" lon="2.94501">
        <ele>1041.04387</ele>
        <time>2021-07-06T15:46:08+0200</time>
      </trkpt>
      <trkpt lat="45.78639" lon="2.9451">
        <ele>1042.350332</ele>
        <time>2021-07-06T15:46:11+0200</time>
      </trkpt>
      <trkpt lat="45.78638" lon="2.94518">
        <ele>1044.308694</ele>
        <time>2021-07-06T15:46:14+0200</time>
      </trkpt>
      <trkpt lat="45.78634" lon="2.94524">
        <ele>1046.165062</ele>
        <time>2021-07-06T15:46:17+0200</time>
      </trkpt>
      <trkpt lat="45.78631" lon="2.9453">
        <ele>1046.506848</ele>
        <time>2021-07-06T15:46:20+0200</time>
      </trkpt>
      <trkpt lat="45.78629" lon="2.94538">
        <ele>1045.225631</ele>
        <time>2021-07-06T15:46:23+0200</time>
      </trkpt>
      <trkpt lat="45.78629" lon="2.94545">
        <ele>1044.338804</ele>
        <time>2021-07-06T15:46:25+0200</time>
      </trkpt>
      <trkpt lat="45.78629" lon="2.94551">
        <ele>1043.304668</ele>
        <time>2021-07-06T15:46:27+0200</time>
      </trkpt>
      <trkpt lat="45.78629" lon="2.94559">
        <ele>1044.016918</ele>
        <time>2021-07-06T15:46:30+0200</time>
      </trkpt>
      <trkpt lat="45.78627" lon="2.94568">
        <ele>1045.00155</ele>
        <time>2021-07-06T15:46:33+0200</time>
      </trkpt>
      <trkpt lat="45.78624" lon="2.94574">
        <ele>1047.400388</ele>
        <time>2021-07-06T15:46:36+0200</time>
      </trkpt>
      <trkpt lat="45.78621" lon="2.94579">
        <ele>1047.578809</ele>
        <time>2021-07-06T15:46:38+0200</time>
      </trkpt>
      <trkpt lat="45.78618" lon="2.94586">
        <ele>1049.154129</ele>
        <time>2021-07-06T15:46:41+0200</time>
      </trkpt>
      <trkpt lat="45.78614" lon="2.94593">
        <ele>1048.208785</ele>
        <time>2021-07-06T15:46:43+0200</time>
      </trkpt>
      <trkpt lat="45.78612" lon="2.94601">
        <ele>1047.729452</ele>
        <time>2021-07-06T15:46:46+0200</time>
      </trkpt>
      <trkpt lat="45.7861" lon="2.9461">
        <ele>1048.561057</ele>
        <time>2021-07-06T15:46:49+0200</time>
      </trkpt>
      <trkpt lat="45.7861" lon="2.9462">
        <ele>1047.651626</ele>
        <time>2021-07-06T15:46:51+0200</time>
      </trkpt>
      <trkpt lat="45.7861" lon="2.94627">
        <ele>1045.884646</ele>
        <time>2021-07-06T15:46:53+0200</time>
      </trkpt>
      <trkpt lat="45.78609" lon="2.94636">
        <ele>1047.762501</ele>
        <time>2021-07-06T15:46:56+0200</time>
      </trkpt>
      <trkpt lat="45.7861" lon="2.94645">
        <ele>1045.797305</ele>
        <time>2021-07-06T15:46:58+0200</time>
      </trkpt>
      <trkpt lat="45.7861" lon="2.94652">
        <ele>1046.509721</ele>
        <time>2021-07-06T15:47:01+0200</time>
      </trkpt>
      <trkpt lat="45.78611" lon="2.94659">
        <ele>1046.479953</ele>
        <time>2021-07-06T15:47:03+0200</time>
      </trkpt>
      <trkpt lat="45.78611" lon="2.94668">
        <ele>1047.541851</ele>
        <time>2021-07-06T15:47:06+0200</time>
      </trkpt>
      <trkpt lat="45.7861" lon="2.94674">
        <ele>1047.43017</ele>
        <time>2021-07-06T15:47:09+0200</time>
      </trkpt>
      <trkpt lat="45.78612" lon="2.94683">
        <ele>1047.697902</ele>
        <time>2021-07-06T15:47:12+0200</time>
      </trkpt>
      <trkpt lat="45.78613" lon="2.9469">
        <ele>1046.899282</ele>
        <time>2021-07-06T15:47:15+0200</time>
      </trkpt>
      <trkpt lat="45.78613" lon="2.94699">
        <ele>1048.447967</ele>
        <time>2021-07-06T15:47:18+0200</time>
      </trkpt>
      <trkpt lat="45.78612" lon="2.94705">
        <ele>1050.230707</ele>
        <time>2021-07-06T15:47:20+0200</time>
      </trkpt>
      <trkpt lat="45.78612" lon="2.94712">
        <ele>1050.681504</ele>
        <time>2021-07-06T15:47:23+0200</time>
      </trkpt>
      <trkpt lat="45.78613" lon="2.9472">
        <ele>1052.739613</ele>
        <time>2021-07-06T15:47:26+0200</time>
      </trkpt>
      <trkpt lat="45.78615" lon="2.94727">
        <ele>1053.875095</ele>
        <time>2021-07-06T15:47:29+0200</time>
      </trkpt>
      <trkpt lat="45.78616" lon="2.94738">
        <ele>1052.441715</ele>
        <time>2021-07-06T15:47:32+0200</time>
      </trkpt>
      <trkpt lat="45.78618" lon="2.94745">
        <ele>1050.556635</ele>
        <time>2021-07-06T15:47:35+0200</time>
      </trkpt>
      <trkpt lat="45.78618" lon="2.94752">
        <ele>1050.428789</ele>
        <time>2021-07-06T15:47:37+0200</time>
      </trkpt>
      <trkpt lat="45.78619" lon="2.94759">
        <ele>1048.989323</ele>
        <time>2021-07-06T15:47:39+0200</time>
      </trkpt>
      <trkpt lat="45.78621" lon="2.94766">
        <ele>1048.04906</ele>
        <time>2021-07-06T15:47:41+0200</time>
      </trkpt>
      <trkpt lat="45.7862" lon="2.94773">
        <ele>1050.233302</ele>
        <time>2021-07-06T15:47:44+0200</time>
      </trkpt>
      <trkpt lat="45.78621" lon="2.9478">
        <ele>1053.880815</ele>
        <time>2021-07-06T15:47:48+0200</time>
      </trkpt>
      <trkpt lat="45.78622" lon="2.94787">
        <ele>1057.35824</ele>
        <time>2021-07-06T15:47:52+0200</time>
      </trkpt>
      <trkpt lat="45.78623" lon="2.94794">
        <ele>1060.01399</ele>
        <time>2021-07-06T15:47:56+0200</time>
      </trkpt>
      <trkpt lat="45.78624" lon="2.94801">
        <ele>1061.142738</ele>
        <time>2021-07-06T15:47:59+0200</time>
      </trkpt>
      <trkpt lat="45.78626" lon="2.94808">
        <ele>1062.293771</ele>
        <time>2021-07-06T15:48:03+0200</time>
      </trkpt>
      <trkpt lat="45.78627" lon="2.94816">
        <ele>1061.307829</ele>
        <time>2021-07-06T15:48:07+0200</time>
      </trkpt>
      <trkpt lat="45.78628" lon="2.94823">
        <ele>1057.10274</ele>
        <time>2021-07-06T15:48:15+0200</time>
      </trkpt>
      <trkpt lat="45.78626" lon="2.94829">
        <ele>1056.826965</ele>
        <time>2021-07-06T15:48:39+0200</time>
      </trkpt>
      <trkpt lat="45.7863" lon="2.94834">
        <ele>1054.023755</ele>
        <time>2021-07-06T15:48:43+0200</time>
      </trkpt>
      <trkpt lat="45.78634" lon="2.94841">
        <ele>1053.59868</ele>
        <time>2021-07-06T15:48:47+0200</time>
      </trkpt>
      <trkpt lat="45.78635" lon="2.94848">
        <ele>1051.316284</ele>
        <time>2021-07-06T15:48:51+0200</time>
      </trkpt>
      <trkpt lat="45.78636" lon="2.94855">
        <ele>1052.002501</ele>
        <time>2021-07-06T15:48:54+0200</time>
      </trkpt>
      <trkpt lat="45.78638" lon="2.94864">
        <ele>1051.848441</ele>
        <time>2021-07-06T15:48:58+0200</time>
      </trkpt>
      <trkpt lat="45.7864" lon="2.94872">
        <ele>1052.185016</ele>
        <time>2021-07-06T15:49:02+0200</time>
      </trkpt>
      <trkpt lat="45.7864" lon="2.94879">
        <ele>1053.265493</ele>
        <time>2021-07-06T15:49:06+0200</time>
      </trkpt>
      <trkpt lat="45.78642" lon="2.94886">
        <ele>1052.946508</ele>
        <time>2021-07-06T15:49:09+0200</time>
      </trkpt>
      <trkpt lat="45.78643" lon="2.94895">
        <ele>1053.691001</ele>
        <time>2021-07-06T15:49:12+0200</time>
      </trkpt>
      <trkpt lat="45.78644" lon="2.94902">
        <ele>1053.741511</ele>
        <time>2021-07-06T15:49:15+0200</time>
      </trkpt>
      <trkpt lat="45.78647" lon="2.94909">
        <ele>1055.81405</ele>
        <time>2021-07-06T15:49:19+0200</time>
      </trkpt>
      <trkpt lat="45.78649" lon="2.94918">
        <ele>1056.734097</ele>
        <time>2021-07-06T15:49:25+0200</time>
      </trkpt>
      <trkpt lat="45.7865" lon="2.94925">
        <ele>1058.091053</ele>
        <time>2021-07-06T15:49:28+0200</time>
      </trkpt>
      <trkpt lat="45.7865" lon="2.94932">
        <ele>1060.162702</ele>
        <time>2021-07-06T15:49:31+0200</time>
      </trkpt>
      <trkpt lat="45.7865" lon="2.9494">
        <ele>1061.55169</ele>
        <time>2021-07-06T15:49:35+0200</time>
      </trkpt>
      <trkpt lat="45.7865" lon="2.94948">
        <ele>1063.051336</ele>
        <time>2021-07-06T15:49:38+0200</time>
      </trkpt>
      <trkpt lat="45.78649" lon="2.94956">
        <ele>1062.69281</ele>
        <time>2021-07-06T15:49:43+0200</time>
      </trkpt>
      <trkpt lat="45.78646" lon="2.94962">
        <ele>1063.735859</ele>
        <time>2021-07-06T15:49:46+0200</time>
      </trkpt>
      <trkpt lat="45.78643" lon="2.94969">
        <ele>1065.97995</ele>
        <time>2021-07-06T15:49:50+0200</time>
      </trkpt>
      <trkpt lat="45.78641" lon="2.94975">
        <ele>1066.642194</ele>
        <time>2021-07-06T15:49:53+0200</time>
      </trkpt>
      <trkpt lat="45.78637" lon="2.94983">
        <ele>1065.860641</ele>
        <time>2021-07-06T15:49:56+0200</time>
      </trkpt>
      <trkpt lat="45.78634" lon="2.94988">
        <ele>1065.85599</ele>
        <time>2021-07-06T15:49:59+0200</time>
      </trkpt>
      <trkpt lat="45.78631" lon="2.94994">
        <ele>1067.661663</ele>
        <time>2021-07-06T15:50:02+0200</time>
      </trkpt>
      <trkpt lat="45.78629" lon="2.95003">
        <ele>1068.119934</ele>
        <time>2021-07-06T15:50:05+0200</time>
      </trkpt>
      <trkpt lat="45.78628" lon="2.95011">
        <ele>1067.58691</ele>
        <time>2021-07-06T15:50:08+0200</time>
      </trkpt>
      <trkpt lat="45.78626" lon="2.95019">
        <ele>1066.442484</ele>
        <time>2021-07-06T15:50:11+0200</time>
      </trkpt>
      <trkpt lat="45.78628" lon="2.95029">
        <ele>1067.603969</ele>
        <time>2021-07-06T15:50:14+0200</time>
      </trkpt>
      <trkpt lat="45.78628" lon="2.95037">
        <ele>1068.342445</ele>
        <time>2021-07-06T15:50:16+0200</time>
      </trkpt>
      <trkpt lat="45.78627" lon="2.95047">
        <ele>1067.518453</ele>
        <time>2021-07-06T15:50:19+0200</time>
      </trkpt>
      <trkpt lat="45.78628" lon="2.95054">
        <ele>1067.900367</ele>
        <time>2021-07-06T15:50:21+0200</time>
      </trkpt>
      <trkpt lat="45.78631" lon="2.95063">
        <ele>1067.850928</ele>
        <time>2021-07-06T15:50:24+0200</time>
      </trkpt>
      <trkpt lat="45.78632" lon="2.95071">
        <ele>1068.378221</ele>
        <time>2021-07-06T15:50:26+0200</time>
      </trkpt>
      <trkpt lat="45.78632" lon="2.95078">
        <ele>1068.826353</ele>
        <time>2021-07-06T15:50:28+0200</time>
      </trkpt>
      <trkpt lat="45.78631" lon="2.95085">
        <ele>1068.828095</ele>
        <time>2021-07-06T15:50:30+0200</time>
      </trkpt>
      <trkpt lat="45.78632" lon="2.95094">
        <ele>1069.253407</ele>
        <time>2021-07-06T15:50:32+0200</time>
      </trkpt>
      <trkpt lat="45.78634" lon="2.95103">
        <ele>1069.177665</ele>
        <time>2021-07-06T15:50:35+0200</time>
      </trkpt>
      <trkpt lat="45.78636" lon="2.9511">
        <ele>1070.777384</ele>
        <time>2021-07-06T15:50:37+0200</time>
      </trkpt>
      <trkpt lat="45.78634" lon="2.95117">
        <ele>1072.205717</ele>
        <time>2021-07-06T15:50:40+0200</time>
      </trkpt>
      <trkpt lat="45.78632" lon="2.95123">
        <ele>1072.344382</ele>
        <time>2021-07-06T15:50:42+0200</time>
      </trkpt>
      <trkpt lat="45.78632" lon="2.95131">
        <ele>1073.70948</ele>
        <time>2021-07-06T15:50:45+0200</time>
      </trkpt>
      <trkpt lat="45.78632" lon="2.9514">
        <ele>1074.350947</ele>
        <time>2021-07-06T15:50:48+0200</time>
      </trkpt>
      <trkpt lat="45.78631" lon="2.95149">
        <ele>1073.448948</ele>
        <time>2021-07-06T15:50:51+0200</time>
      </trkpt>
      <trkpt lat="45.78629" lon="2.95157">
        <ele>1075.053572</ele>
        <time>2021-07-06T15:50:54+0200</time>
      </trkpt>
      <trkpt lat="45.78631" lon="2.95165">
        <ele>1076.252509</ele>
        <time>2021-07-06T15:50:57+0200</time>
      </trkpt>
      <trkpt lat="45.78629" lon="2.95172">
        <ele>1076.412371</ele>
        <time>2021-07-06T15:51:00+0200</time>
      </trkpt>
      <trkpt lat="45.78629" lon="2.95181">
        <ele>1075.401493</ele>
        <time>2021-07-06T15:51:02+0200</time>
      </trkpt>
      <trkpt lat="45.78628" lon="2.95189">
        <ele>1077.781595</ele>
        <time>2021-07-06T15:51:05+0200</time>
      </trkpt>
      <trkpt lat="45.78628" lon="2.95196">
        <ele>1079.003147</ele>
        <time>2021-07-06T15:51:08+0200</time>
      </trkpt>
      <trkpt lat="45.78627" lon="2.95205">
        <ele>1078.634105</ele>
        <time>2021-07-06T15:51:11+0200</time>
      </trkpt>
      <trkpt lat="45.78625" lon="2.95213">
        <ele>1077.108762</ele>
        <time>2021-07-06T15:51:14+0200</time>
      </trkpt>
      <trkpt lat="45.78625" lon="2.95221">
        <ele>1078.817053</ele>
        <time>2021-07-06T15:51:17+0200</time>
      </trkpt>
      <trkpt lat="45.78624" lon="2.9523">
        <ele>1080.303378</ele>
        <time>2021-07-06T15:51:20+0200</time>
      </trkpt>
      <trkpt lat="45.78622" lon="2.95239">
        <ele>1080.768324</ele>
        <time>2021-07-06T15:51:23+0200</time>
      </trkpt>
      <trkpt lat="45.78623" lon="2.95245">
        <ele>1078.435687</ele>
        <time>2021-07-06T15:51:27+0200</time>
      </trkpt>
      <trkpt lat="45.78623" lon="2.95253">
        <ele>1071.187432</ele>
        <time>2021-07-06T15:51:51+0200</time>
      </trkpt>
      <trkpt lat="45.78621" lon="2.9526">
        <ele>1076.170602</ele>
        <time>2021-07-06T15:52:02+0200</time>
      </trkpt>
      <trkpt lat="45.78619" lon="2.95266">
        <ele>1076.635463</ele>
        <time>2021-07-06T15:52:04+0200</time>
      </trkpt>
      <trkpt lat="45.78617" lon="2.95274">
        <ele>1075.363081</ele>
        <time>2021-07-06T15:52:05+0200</time>
      </trkpt>
      <trkpt lat="45.78617" lon="2.95287">
        <ele>1076.035971</ele>
        <time>2021-07-06T15:52:07+0200</time>
      </trkpt>
      <trkpt lat="45.78617" lon="2.95295">
        <ele>1077.059088</ele>
        <time>2021-07-06T15:52:08+0200</time>
      </trkpt>
      <trkpt lat="45.78615" lon="2.95304">
        <ele>1078.309674</ele>
        <time>2021-07-06T15:52:09+0200</time>
      </trkpt>
      <trkpt lat="45.78615" lon="2.95312">
        <ele>1077.40367</ele>
        <time>2021-07-06T15:52:10+0200</time>
      </trkpt>
      <trkpt lat="45.78615" lon="2.95323">
        <ele>1078.112573</ele>
        <time>2021-07-06T15:52:11+0200</time>
      </trkpt>
      <trkpt lat="45.78614" lon="2.95333">
        <ele>1078.192041</ele>
        <time>2021-07-06T15:52:12+0200</time>
      </trkpt>
      <trkpt lat="45.78612" lon="2.95341">
        <ele>1077.986607</ele>
        <time>2021-07-06T15:52:13+0200</time>
      </trkpt>
      <trkpt lat="45.78611" lon="2.9535">
        <ele>1077.948259</ele>
        <time>2021-07-06T15:52:14+0200</time>
      </trkpt>
      <trkpt lat="45.78612" lon="2.9536">
        <ele>1077.372185</ele>
        <time>2021-07-06T15:52:15+0200</time>
      </trkpt>
      <trkpt lat="45.78613" lon="2.95371">
        <ele>1077.297145</ele>
        <time>2021-07-06T15:52:16+0200</time>
      </trkpt>
      <trkpt lat="45.78613" lon="2.95381">
        <ele>1076.583714</ele>
        <time>2021-07-06T15:52:17+0200</time>
      </trkpt>
      <trkpt lat="45.78612" lon="2.95389">
        <ele>1076.01013</ele>
        <time>2021-07-06T15:52:18+0200</time>
      </trkpt>
      <trkpt lat="45.78612" lon="2.95401">
        <ele>1076.143222</ele>
        <time>2021-07-06T15:52:19+0200</time>
      </trkpt>
      <trkpt lat="45.78613" lon="2.95413">
        <ele>1073.944608</ele>
        <time>2021-07-06T15:52:20+0200</time>
      </trkpt>
      <trkpt lat="45.78612" lon="2.95423">
        <ele>1072.799216</ele>
        <time>2021-07-06T15:52:21+0200</time>
      </trkpt>
      <trkpt lat="45.78611" lon="2.95431">
        <ele>1071.390621</ele>
        <time>2021-07-06T15:52:22+0200</time>
      </trkpt>
      <trkpt lat="45.78602" lon="2.95437">
        <ele>1071.284255</ele>
        <time>2021-07-06T15:52:24+0200</time>
      </trkpt>
      <trkpt lat="45.78598" lon="2.95443">
        <ele>1069.854546</ele>
        <time>2021-07-06T15:52:25+0200</time>
      </trkpt>
      <trkpt lat="45.78595" lon="2.95454">
        <ele>1070.74193</ele>
        <time>2021-07-06T15:52:27+0200</time>
      </trkpt>
      <trkpt lat="45.78595" lon="2.95464">
        <ele>1072.372273</ele>
        <time>2021-07-06T15:52:29+0200</time>
      </trkpt>
      <trkpt lat="45.78592" lon="2.95469">
        <ele>1072.652725</ele>
        <time>2021-07-06T15:52:31+0200</time>
      </trkpt>
      <trkpt lat="45.78591" lon="2.95477">
        <ele>1072.025826</ele>
        <time>2021-07-06T15:52:33+0200</time>
      </trkpt>
      <trkpt lat="45.78592" lon="2.95486">
        <ele>1068.54935</ele>
        <time>2021-07-06T15:52:36+0200</time>
      </trkpt>
      <trkpt lat="45.78592" lon="2.95493">
        <ele>1069.971646</ele>
        <time>2021-07-06T15:52:44+0200</time>
      </trkpt>
      <trkpt lat="45.78596" lon="2.95499">
        <ele>1068.913731</ele>
        <time>2021-07-06T15:52:50+0200</time>
      </trkpt>
      <trkpt lat="45.78599" lon="2.95505">
        <ele>1069.487046</ele>
        <time>2021-07-06T15:52:54+0200</time>
      </trkpt>
      <trkpt lat="45.78602" lon="2.95511">
        <ele>1071.920072</ele>
        <time>2021-07-06T15:52:58+0200</time>
      </trkpt>
      <trkpt lat="45.78601" lon="2.95505">
        <ele>1070.798227</ele>
        <time>2021-07-06T15:53:49+0200</time>
      </trkpt>
      <trkpt lat="45.78603" lon="2.95499">
        <ele>1077.719418</ele>
        <time>2021-07-06T15:55:57+0200</time>
      </trkpt>
      <trkpt lat="45.78598" lon="2.95498">
        <ele>1073.467265</ele>
        <time>2021-07-06T15:56:20+0200</time>
      </trkpt>
      <trkpt lat="45.78598" lon="2.95505">
        <ele>1071.061434</ele>
        <time>2021-07-06T15:56:27+0200</time>
      </trkpt>
      <trkpt lat="45.78596" lon="2.95511">
        <ele>1074.906399</ele>
        <time>2021-07-06T15:57:03+0200</time>
      </trkpt>
      <trkpt lat="45.78599" lon="2.95505">
        <ele>1072.779492</ele>
        <time>2021-07-06T15:57:23+0200</time>
      </trkpt>
      <trkpt lat="45.78602" lon="2.95509">
        <ele>1067.933458</ele>
        <time>2021-07-06T15:57:57+0200</time>
      </trkpt>
      <trkpt lat="45.78603" lon="2.95501">
        <ele>1070.312687</ele>
        <time>2021-07-06T15:58:02+0200</time>
      </trkpt>
      <trkpt lat="45.78605" lon="2.95494">
        <ele>1072.855564</ele>
        <time>2021-07-06T15:58:09+0200</time>
      </trkpt>
      <trkpt lat="45.78602" lon="2.95501">
        <ele>1080.474335</ele>
        <time>2021-07-06T15:58:44+0200</time>
      </trkpt>
      <trkpt lat="45.78598" lon="2.95505">
        <ele>1077.879302</ele>
        <time>2021-07-06T15:58:48+0200</time>
      </trkpt>
      <trkpt lat="45.78594" lon="2.95508">
        <ele>1073.751081</ele>
        <time>2021-07-06T15:58:53+0200</time>
      </trkpt>
      <trkpt lat="45.78596" lon="2.95502">
        <ele>1076.784632</ele>
        <time>2021-07-06T15:59:10+0200</time>
      </trkpt>
      <trkpt lat="45.78598" lon="2.95496">
        <ele>1071.591897</ele>
        <time>2021-07-06T15:59:31+0200</time>
      </trkpt>
      <trkpt lat="45.78602" lon="2.95491">
        <ele>1072.251527</ele>
        <time>2021-07-06T16:00:14+0200</time>
      </trkpt>
      <trkpt lat="45.78605" lon="2.95497">
        <ele>1077.47</ele>
        <time>2021-07-06T16:00:33+0200</time>
      </trkpt>
      <trkpt lat="45.786" lon="2.955">
        <ele>1075.963737</ele>
        <time>2021-07-06T16:00:42+0200</time>
      </trkpt>
      <trkpt lat="45.78596" lon="2.95499">
        <ele>1075.837015</ele>
        <time>2021-07-06T16:01:32+0200</time>
      </trkpt>
      <trkpt lat="45.78596" lon="2.95491">
        <ele>1067.137759</ele>
        <time>2021-07-06T16:02:04+0200</time>
      </trkpt>
      <trkpt lat="45.78596" lon="2.95498">
        <ele>1080.924303</ele>
        <time>2021-07-06T16:02:31+0200</time>
      </trkpt>
      <trkpt lat="45.78595" lon="2.95505">
        <ele>1071.433879</ele>
        <time>2021-07-06T16:03:35+0200</time>
      </trkpt>
      <trkpt lat="45.78593" lon="2.95498">
        <ele>1068.21083</ele>
        <time>2021-07-06T16:03:54+0200</time>
      </trkpt>
      <trkpt lat="45.78594" lon="2.95492">
        <ele>1072.096232</ele>
        <time>2021-07-06T16:04:07+0200</time>
      </trkpt>
      <trkpt lat="45.78596" lon="2.95498">
        <ele>1073.139947</ele>
        <time>2021-07-06T16:04:28+0200</time>
      </trkpt>
      <trkpt lat="45.78595" lon="2.95491">
        <ele>1078.752607</ele>
        <time>2021-07-06T16:04:58+0200</time>
      </trkpt>
      <trkpt lat="45.78591" lon="2.9549">
        <ele>1078.116097</ele>
        <time>2021-07-06T16:05:08+0200</time>
      </trkpt>
      <trkpt lat="45.78594" lon="2.95493">
        <ele>1080.240748</ele>
        <time>2021-07-06T16:05:47+0200</time>
      </trkpt>
      <trkpt lat="45.78599" lon="2.95497">
        <ele>1076.781653</ele>
        <time>2021-07-06T16:06:09+0200</time>
      </trkpt>
      <trkpt lat="45.78597" lon="2.9549">
        <ele>1071.637436</ele>
        <time>2021-07-06T16:06:23+0200</time>
      </trkpt>
      <trkpt lat="45.78595" lon="2.95496">
        <ele>1070.305677</ele>
        <time>2021-07-06T16:06:27+0200</time>
      </trkpt>
      <trkpt lat="45.78598" lon="2.95501">
        <ele>1069.41685</ele>
        <time>2021-07-06T16:06:39+0200</time>
      </trkpt>
      <trkpt lat="45.78596" lon="2.95495">
        <ele>1067.042227</ele>
        <time>2021-07-06T16:07:21+0200</time>
      </trkpt>
      <trkpt lat="45.78595" lon="2.95502">
        <ele>1065.240685</ele>
        <time>2021-07-06T16:07:51+0200</time>
      </trkpt>
      <trkpt lat="45.786" lon="2.95502">
        <ele>1083.228033</ele>
        <time>2021-07-06T16:09:06+0200</time>
      </trkpt>
      <trkpt lat="45.78595" lon="2.95504">
        <ele>1081.51023</ele>
        <time>2021-07-06T16:09:24+0200</time>
      </trkpt>
      <trkpt lat="45.78596" lon="2.95497">
        <ele>1082.42642</ele>
        <time>2021-07-06T16:09:42+0200</time>
      </trkpt>
      <trkpt lat="45.78594" lon="2.95503">
        <ele>1074.785912</ele>
        <time>2021-07-06T16:09:58+0200</time>
      </trkpt>
      <trkpt lat="45.78598" lon="2.95498">
        <ele>1077.246061</ele>
        <time>2021-07-06T16:10:21+0200</time>
      </trkpt>
      <trkpt lat="45.78602" lon="2.95502">
        <ele>1086.281356</ele>
        <time>2021-07-06T16:11:34+0200</time>
      </trkpt>
      <trkpt lat="45.78597" lon="2.955">
        <ele>1079.47901</ele>
        <time>2021-07-06T16:11:58+0200</time>
      </trkpt>
      <trkpt lat="45.78602" lon="2.95501">
        <ele>1077.646373</ele>
        <time>2021-07-06T16:12:54+0200</time>
      </trkpt>
      <trkpt lat="45.78597" lon="2.95502">
        <ele>1069.212831</ele>
        <time>2021-07-06T16:13:11+0200</time>
      </trkpt>
      <trkpt lat="45.78597" lon="2.95511">
        <ele>1066.662455</ele>
        <time>2021-07-06T16:13:36+0200</time>
      </trkpt>
      <trkpt lat="45.78597" lon="2.9552">
        <ele>1067.671408</ele>
        <time>2021-07-06T16:13:39+0200</time>
      </trkpt>
      <trkpt lat="45.78597" lon="2.95527">
        <ele>1067.611096</ele>
        <time>2021-07-06T16:13:41+0200</time>
      </trkpt>
      <trkpt lat="45.78595" lon="2.95534">
        <ele>1069.29159</ele>
        <time>2021-07-06T16:13:43+0200</time>
      </trkpt>
      <trkpt lat="45.78595" lon="2.95542">
        <ele>1069.094225</ele>
        <time>2021-07-06T16:13:45+0200</time>
      </trkpt>
      <trkpt lat="45.78594" lon="2.95551">
        <ele>1068.518913</ele>
        <time>2021-07-06T16:13:47+0200</time>
      </trkpt>
      <trkpt lat="45.78593" lon="2.95559">
        <ele>1070.082641</ele>
        <time>2021-07-06T16:13:49+0200</time>
      </trkpt>
      <trkpt lat="45.78594" lon="2.95566">
        <ele>1068.96295</ele>
        <time>2021-07-06T16:13:51+0200</time>
      </trkpt>
      <trkpt lat="45.78593" lon="2.95575">
        <ele>1069.438754</ele>
        <time>2021-07-06T16:13:54+0200</time>
      </trkpt>
      <trkpt lat="45.78591" lon="2.95581">
        <ele>1069.34143</ele>
        <time>2021-07-06T16:13:56+0200</time>
      </trkpt>
      <trkpt lat="45.7859" lon="2.95589">
        <ele>1070.753508</ele>
        <time>2021-07-06T16:13:59+0200</time>
      </trkpt>
      <trkpt lat="45.78589" lon="2.95596">
        <ele>1070.993452</ele>
        <time>2021-07-06T16:14:01+0200</time>
      </trkpt>
      <trkpt lat="45.78588" lon="2.95604">
        <ele>1071.611349</ele>
        <time>2021-07-06T16:14:04+0200</time>
      </trkpt>
      <trkpt lat="45.78587" lon="2.95611">
        <ele>1070.651052</ele>
        <time>2021-07-06T16:14:06+0200</time>
      </trkpt>
      <trkpt lat="45.78587" lon="2.95618">
        <ele>1070.610285</ele>
        <time>2021-07-06T16:14:08+0200</time>
      </trkpt>
      <trkpt lat="45.78585" lon="2.95625">
        <ele>1070.640172</ele>
        <time>2021-07-06T16:14:10+0200</time>
      </trkpt>
      <trkpt lat="45.78586" lon="2.95632">
        <ele>1069.690737</ele>
        <time>2021-07-06T16:14:12+0200</time>
      </trkpt>
      <trkpt lat="45.78585" lon="2.95642">
        <ele>1069.439785</ele>
        <time>2021-07-06T16:14:15+0200</time>
      </trkpt>
      <trkpt lat="45.78584" lon="2.95651">
        <ele>1071.238493</ele>
        <time>2021-07-06T16:14:18+0200</time>
      </trkpt>
      <trkpt lat="45.78584" lon="2.95658">
        <ele>1071.399249</ele>
        <time>2021-07-06T16:14:20+0200</time>
      </trkpt>
      <trkpt lat="45.78584" lon="2.95666">
        <ele>1071.636726</ele>
        <time>2021-07-06T16:14:22+0200</time>
      </trkpt>
      <trkpt lat="45.78583" lon="2.95674">
        <ele>1070.697276</ele>
        <time>2021-07-06T16:14:25+0200</time>
      </trkpt>
      <trkpt lat="45.78583" lon="2.95682">
        <ele>1071.613145</ele>
        <time>2021-07-06T16:14:28+0200</time>
      </trkpt>
      <trkpt lat="45.78583" lon="2.95689">
        <ele>1073.278334</ele>
        <time>2021-07-06T16:14:31+0200</time>
      </trkpt>
      <trkpt lat="45.78585" lon="2.95696">
        <ele>1072.807317</ele>
        <time>2021-07-06T16:14:33+0200</time>
      </trkpt>
      <trkpt lat="45.78585" lon="2.95703">
        <ele>1073.165882</ele>
        <time>2021-07-06T16:14:37+0200</time>
      </trkpt>
      <trkpt lat="45.78584" lon="2.95712">
        <ele>1073.123316</ele>
        <time>2021-07-06T16:14:40+0200</time>
      </trkpt>
      <trkpt lat="45.78584" lon="2.95722">
        <ele>1071.562829</ele>
        <time>2021-07-06T16:14:43+0200</time>
      </trkpt>
      <trkpt lat="45.78584" lon="2.95731">
        <ele>1073.414036</ele>
        <time>2021-07-06T16:14:46+0200</time>
      </trkpt>
      <trkpt lat="45.78586" lon="2.95737">
        <ele>1072.522663</ele>
        <time>2021-07-06T16:14:47+0200</time>
      </trkpt>
      <trkpt lat="45.78585" lon="2.95744">
        <ele>1073.090885</ele>
        <time>2021-07-06T16:14:50+0200</time>
      </trkpt>
      <trkpt lat="45.78586" lon="2.95753">
        <ele>1073.651114</ele>
        <time>2021-07-06T16:14:54+0200</time>
      </trkpt>
      <trkpt lat="45.78586" lon="2.95762">
        <ele>1073.821755</ele>
        <time>2021-07-06T16:14:57+0200</time>
      </trkpt>
      <trkpt lat="45.78586" lon="2.9577">
        <ele>1073.116238</ele>
        <time>2021-07-06T16:15:00+0200</time>
      </trkpt>
      <trkpt lat="45.78586" lon="2.95778">
        <ele>1073.952617</ele>
        <time>2021-07-06T16:15:03+0200</time>
      </trkpt>
      <trkpt lat="45.78586" lon="2.95786">
        <ele>1073.937922</ele>
        <time>2021-07-06T16:15:06+0200</time>
      </trkpt>
      <trkpt lat="45.78587" lon="2.95792">
        <ele>1075.011096</ele>
        <time>2021-07-06T16:15:09+0200</time>
      </trkpt>
      <trkpt lat="45.78587" lon="2.95801">
        <ele>1074.537247</ele>
        <time>2021-07-06T16:15:12+0200</time>
      </trkpt>
      <trkpt lat="45.78586" lon="2.95809">
        <ele>1074.807749</ele>
        <time>2021-07-06T16:15:15+0200</time>
      </trkpt>
      <trkpt lat="45.78587" lon="2.95817">
        <ele>1074.567792</ele>
        <time>2021-07-06T16:15:18+0200</time>
      </trkpt>
      <trkpt lat="45.78588" lon="2.95825">
        <ele>1076.580031</ele>
        <time>2021-07-06T16:15:22+0200</time>
      </trkpt>
      <trkpt lat="45.78588" lon="2.95832">
        <ele>1077.573211</ele>
        <time>2021-07-06T16:15:25+0200</time>
      </trkpt>
      <trkpt lat="45.78589" lon="2.95839">
        <ele>1077.134758</ele>
        <time>2021-07-06T16:15:28+0200</time>
      </trkpt>
      <trkpt lat="45.78588" lon="2.95846">
        <ele>1077.465913</ele>
        <time>2021-07-06T16:15:31+0200</time>
      </trkpt>
      <trkpt lat="45.7859" lon="2.95852">
        <ele>1076.852879</ele>
        <time>2021-07-06T16:15:33+0200</time>
      </trkpt>
      <trkpt lat="45.78592" lon="2.95859">
        <ele>1077.392244</ele>
        <time>2021-07-06T16:15:36+0200</time>
      </trkpt>
      <trkpt lat="45.78594" lon="2.95865">
        <ele>1078.587063</ele>
        <time>2021-07-06T16:15:39+0200</time>
      </trkpt>
      <trkpt lat="45.78595" lon="2.95872">
        <ele>1078.993142</ele>
        <time>2021-07-06T16:15:41+0200</time>
      </trkpt>
      <trkpt lat="45.78594" lon="2.9588">
        <ele>1079.029654</ele>
        <time>2021-07-06T16:15:45+0200</time>
      </trkpt>
      <trkpt lat="45.78595" lon="2.95888">
        <ele>1078.254018</ele>
        <time>2021-07-06T16:15:47+0200</time>
      </trkpt>
      <trkpt lat="45.78596" lon="2.95897">
        <ele>1078.544267</ele>
        <time>2021-07-06T16:15:51+0200</time>
      </trkpt>
      <trkpt lat="45.78597" lon="2.95904">
        <ele>1079.606984</ele>
        <time>2021-07-06T16:15:54+0200</time>
      </trkpt>
      <trkpt lat="45.78598" lon="2.95911">
        <ele>1079.996378</ele>
        <time>2021-07-06T16:15:57+0200</time>
      </trkpt>
      <trkpt lat="45.78599" lon="2.95918">
        <ele>1081.009398</ele>
        <time>2021-07-06T16:16:00+0200</time>
      </trkpt>
      <trkpt lat="45.78602" lon="2.95925">
        <ele>1080.780366</ele>
        <time>2021-07-06T16:16:03+0200</time>
      </trkpt>
      <trkpt lat="45.78605" lon="2.95931">
        <ele>1080.57648</ele>
        <time>2021-07-06T16:16:05+0200</time>
      </trkpt>
      <trkpt lat="45.78607" lon="2.95937">
        <ele>1081.040658</ele>
        <time>2021-07-06T16:16:09+0200</time>
      </trkpt>
      <trkpt lat="45.7861" lon="2.95944">
        <ele>1082.602538</ele>
        <time>2021-07-06T16:16:12+0200</time>
      </trkpt>
      <trkpt lat="45.78612" lon="2.9595">
        <ele>1082.29119</ele>
        <time>2021-07-06T16:16:15+0200</time>
      </trkpt>
      <trkpt lat="45.78615" lon="2.95957">
        <ele>1082.061265</ele>
        <time>2021-07-06T16:16:18+0200</time>
      </trkpt>
      <trkpt lat="45.78617" lon="2.95965">
        <ele>1083.027151</ele>
        <time>2021-07-06T16:16:22+0200</time>
      </trkpt>
      <trkpt lat="45.78618" lon="2.95971">
        <ele>1083.02696</ele>
        <time>2021-07-06T16:16:25+0200</time>
      </trkpt>
      <trkpt lat="45.7862" lon="2.95979">
        <ele>1082.319984</ele>
        <time>2021-07-06T16:16:29+0200</time>
      </trkpt>
      <trkpt lat="45.78619" lon="2.95987">
        <ele>1083.331103</ele>
        <time>2021-07-06T16:16:32+0200</time>
      </trkpt>
      <trkpt lat="45.78618" lon="2.95994">
        <ele>1085.457989</ele>
        <time>2021-07-06T16:16:35+0200</time>
      </trkpt>
      <trkpt lat="45.78617" lon="2.96001">
        <ele>1087.496875</ele>
        <time>2021-07-06T16:16:39+0200</time>
      </trkpt>
      <trkpt lat="45.78616" lon="2.96008">
        <ele>1089.235207</ele>
        <time>2021-07-06T16:16:44+0200</time>
      </trkpt>
      <trkpt lat="45.78615" lon="2.96015">
        <ele>1089.628124</ele>
        <time>2021-07-06T16:16:47+0200</time>
      </trkpt>
      <trkpt lat="45.78611" lon="2.96021">
        <ele>1090.703681</ele>
        <time>2021-07-06T16:16:51+0200</time>
      </trkpt>
      <trkpt lat="45.78607" lon="2.96027">
        <ele>1090.703179</ele>
        <time>2021-07-06T16:16:55+0200</time>
      </trkpt>
      <trkpt lat="45.78605" lon="2.96033">
        <ele>1090.701796</ele>
        <time>2021-07-06T16:16:58+0200</time>
      </trkpt>
      <trkpt lat="45.78603" lon="2.96039">
        <ele>1091.365601</ele>
        <time>2021-07-06T16:17:02+0200</time>
      </trkpt>
      <trkpt lat="45.78598" lon="2.96044">
        <ele>1090.860245</ele>
        <time>2021-07-06T16:17:06+0200</time>
      </trkpt>
      <trkpt lat="45.78594" lon="2.96047">
        <ele>1092.13482</ele>
        <time>2021-07-06T16:17:09+0200</time>
      </trkpt>
      <trkpt lat="45.78591" lon="2.96053">
        <ele>1093.043457</ele>
        <time>2021-07-06T16:17:13+0200</time>
      </trkpt>
      <trkpt lat="45.78589" lon="2.96059">
        <ele>1092.818732</ele>
        <time>2021-07-06T16:17:16+0200</time>
      </trkpt>
      <trkpt lat="45.78585" lon="2.96064">
        <ele>1094.351449</ele>
        <time>2021-07-06T16:17:19+0200</time>
      </trkpt>
      <trkpt lat="45.78583" lon="2.96071">
        <ele>1094.519325</ele>
        <time>2021-07-06T16:17:23+0200</time>
      </trkpt>
      <trkpt lat="45.78578" lon="2.96077">
        <ele>1094.412911</ele>
        <time>2021-07-06T16:17:27+0200</time>
      </trkpt>
      <trkpt lat="45.78574" lon="2.96081">
        <ele>1095.684685</ele>
        <time>2021-07-06T16:17:31+0200</time>
      </trkpt>
      <trkpt lat="45.7857" lon="2.96086">
        <ele>1095.455446</ele>
        <time>2021-07-06T16:17:34+0200</time>
      </trkpt>
      <trkpt lat="45.78564" lon="2.96089">
        <ele>1095.162458</ele>
        <time>2021-07-06T16:17:38+0200</time>
      </trkpt>
      <trkpt lat="45.78561" lon="2.96094">
        <ele>1095.878831</ele>
        <time>2021-07-06T16:17:41+0200</time>
      </trkpt>
      <trkpt lat="45.78558" lon="2.961">
        <ele>1097.076185</ele>
        <time>2021-07-06T16:17:46+0200</time>
      </trkpt>
      <trkpt lat="45.78554" lon="2.96104">
        <ele>1097.004472</ele>
        <time>2021-07-06T16:17:49+0200</time>
      </trkpt>
      <trkpt lat="45.78551" lon="2.9611">
        <ele>1096.717051</ele>
        <time>2021-07-06T16:17:53+0200</time>
      </trkpt>
      <trkpt lat="45.78546" lon="2.96115">
        <ele>1098.378058</ele>
        <time>2021-07-06T16:17:57+0200</time>
      </trkpt>
      <trkpt lat="45.78542" lon="2.96121">
        <ele>1099.117014</ele>
        <time>2021-07-06T16:18:01+0200</time>
      </trkpt>
      <trkpt lat="45.78539" lon="2.96126">
        <ele>1099.015254</ele>
        <time>2021-07-06T16:18:04+0200</time>
      </trkpt>
      <trkpt lat="45.78534" lon="2.96128">
        <ele>1099.686585</ele>
        <time>2021-07-06T16:18:08+0200</time>
      </trkpt>
      <trkpt lat="45.7853" lon="2.96132">
        <ele>1100.977697</ele>
        <time>2021-07-06T16:18:12+0200</time>
      </trkpt>
      <trkpt lat="45.78525" lon="2.96138">
        <ele>1100.475702</ele>
        <time>2021-07-06T16:18:16+0200</time>
      </trkpt>
      <trkpt lat="45.78521" lon="2.96141">
        <ele>1099.418064</ele>
        <time>2021-07-06T16:18:19+0200</time>
      </trkpt>
      <trkpt lat="45.78517" lon="2.96145">
        <ele>1101.543193</ele>
        <time>2021-07-06T16:18:23+0200</time>
      </trkpt>
      <trkpt lat="45.78513" lon="2.96149">
        <ele>1103.418123</ele>
        <time>2021-07-06T16:18:27+0200</time>
      </trkpt>
      <trkpt lat="45.78509" lon="2.96148">
        <ele>1102.61806</ele>
        <time>2021-07-06T16:18:29+0200</time>
      </trkpt>
      <trkpt lat="45.78504" lon="2.96142">
        <ele>1103.541008</ele>
        <time>2021-07-06T16:18:31+0200</time>
      </trkpt>
      <trkpt lat="45.785" lon="2.96138">
        <ele>1103.801617</ele>
        <time>2021-07-06T16:18:32+0200</time>
      </trkpt>
      <trkpt lat="45.78495" lon="2.96128">
        <ele>1104.031172</ele>
        <time>2021-07-06T16:18:34+0200</time>
      </trkpt>
      <trkpt lat="45.7849" lon="2.96122">
        <ele>1102.431419</ele>
        <time>2021-07-06T16:18:35+0200</time>
      </trkpt>
      <trkpt lat="45.78485" lon="2.96115">
        <ele>1102.340911</ele>
        <time>2021-07-06T16:18:36+0200</time>
      </trkpt>
      <trkpt lat="45.78477" lon="2.96109">
        <ele>1101.663954</ele>
        <time>2021-07-06T16:18:37+0200</time>
      </trkpt>
      <trkpt lat="45.78471" lon="2.96106">
        <ele>1100.492338</ele>
        <time>2021-07-06T16:18:38+0200</time>
      </trkpt>
      <trkpt lat="45.78464" lon="2.96101">
        <ele>1100.093868</ele>
        <time>2021-07-06T16:18:39+0200</time>
      </trkpt>
      <trkpt lat="45.78458" lon="2.96099">
        <ele>1098.753797</ele>
        <time>2021-07-06T16:18:40+0200</time>
      </trkpt>
      <trkpt lat="45.78453" lon="2.96101">
        <ele>1098.090614</ele>
        <time>2021-07-06T16:18:41+0200</time>
      </trkpt>
      <trkpt lat="45.78446" lon="2.961">
        <ele>1097.850207</ele>
        <time>2021-07-06T16:18:42+0200</time>
      </trkpt>
      <trkpt lat="45.78441" lon="2.96101">
        <ele>1097.04417</ele>
        <time>2021-07-06T16:18:43+0200</time>
      </trkpt>
      <trkpt lat="45.78436" lon="2.96102">
        <ele>1095.968608</ele>
        <time>2021-07-06T16:18:44+0200</time>
      </trkpt>
      <trkpt lat="45.78428" lon="2.96105">
        <ele>1094.639467</ele>
        <time>2021-07-06T16:18:46+0200</time>
      </trkpt>
      <trkpt lat="45.78418" lon="2.96109">
        <ele>1093.526424</ele>
        <time>2021-07-06T16:18:49+0200</time>
      </trkpt>
      <trkpt lat="45.78412" lon="2.96112">
        <ele>1092.276263</ele>
        <time>2021-07-06T16:18:50+0200</time>
      </trkpt>
      <trkpt lat="45.78406" lon="2.96115">
        <ele>1092.272465</ele>
        <time>2021-07-06T16:18:51+0200</time>
      </trkpt>
      <trkpt lat="45.78401" lon="2.96116">
        <ele>1092.064682</ele>
        <time>2021-07-06T16:18:52+0200</time>
      </trkpt>
      <trkpt lat="45.78396" lon="2.96117">
        <ele>1091.643129</ele>
        <time>2021-07-06T16:18:53+0200</time>
      </trkpt>
      <trkpt lat="45.7839" lon="2.96116">
        <ele>1091.815641</ele>
        <time>2021-07-06T16:18:54+0200</time>
      </trkpt>
      <trkpt lat="45.78384" lon="2.96117">
        <ele>1091.91819</ele>
        <time>2021-07-06T16:18:55+0200</time>
      </trkpt>
      <trkpt lat="45.7838" lon="2.96121">
        <ele>1090.858511</ele>
        <time>2021-07-06T16:18:56+0200</time>
      </trkpt>
      <trkpt lat="45.78375" lon="2.96123">
        <ele>1089.793253</ele>
        <time>2021-07-06T16:18:57+0200</time>
      </trkpt>
      <trkpt lat="45.78369" lon="2.96126">
        <ele>1089.323395</ele>
        <time>2021-07-06T16:18:58+0200</time>
      </trkpt>
      <trkpt lat="45.78361" lon="2.96123">
        <ele>1088.338278</ele>
        <time>2021-07-06T16:18:59+0200</time>
      </trkpt>
      <trkpt lat="45.78355" lon="2.96119">
        <ele>1087.920584</ele>
        <time>2021-07-06T16:19:00+0200</time>
      </trkpt>
      <trkpt lat="45.78349" lon="2.96119">
        <ele>1086.386447</ele>
        <time>2021-07-06T16:19:01+0200</time>
      </trkpt>
      <trkpt lat="45.78343" lon="2.96117">
        <ele>1086.99695</ele>
        <time>2021-07-06T16:19:02+0200</time>
      </trkpt>
      <trkpt lat="45.78337" lon="2.96114">
        <ele>1086.526236</ele>
        <time>2021-07-06T16:19:03+0200</time>
      </trkpt>
      <trkpt lat="45.78329" lon="2.96111">
        <ele>1086.105319</ele>
        <time>2021-07-06T16:19:04+0200</time>
      </trkpt>
      <trkpt lat="45.78324" lon="2.96104">
        <ele>1086.207378</ele>
        <time>2021-07-06T16:19:05+0200</time>
      </trkpt>
      <trkpt lat="45.78321" lon="2.96097">
        <ele>1086.382389</ele>
        <time>2021-07-06T16:19:06+0200</time>
      </trkpt>
      <trkpt lat="45.78316" lon="2.96095">
        <ele>1086.154317</ele>
        <time>2021-07-06T16:19:07+0200</time>
      </trkpt>
      <trkpt lat="45.78309" lon="2.96094">
        <ele>1086.312334</ele>
        <time>2021-07-06T16:19:08+0200</time>
      </trkpt>
      <trkpt lat="45.78303" lon="2.96084">
        <ele>1087.575225</ele>
        <time>2021-07-06T16:19:09+0200</time>
      </trkpt>
      <trkpt lat="45.78303" lon="2.96077">
        <ele>1087.057411</ele>
        <time>2021-07-06T16:19:10+0200</time>
      </trkpt>
      <trkpt lat="45.78299" lon="2.96067">
        <ele>1086.693537</ele>
        <time>2021-07-06T16:19:11+0200</time>
      </trkpt>
      <trkpt lat="45.78293" lon="2.96065">
        <ele>1086.993251</ele>
        <time>2021-07-06T16:19:12+0200</time>
      </trkpt>
      <trkpt lat="45.78289" lon="2.96059">
        <ele>1086.578895</ele>
        <time>2021-07-06T16:19:13+0200</time>
      </trkpt>
      <trkpt lat="45.78287" lon="2.96051">
        <ele>1087.531412</ele>
        <time>2021-07-06T16:19:14+0200</time>
      </trkpt>
      <trkpt lat="45.7828" lon="2.96041">
        <ele>1090.030514</ele>
        <time>2021-07-06T16:19:16+0200</time>
      </trkpt>
      <trkpt lat="45.78277" lon="2.96032">
        <ele>1089.917891</ele>
        <time>2021-07-06T16:19:17+0200</time>
      </trkpt>
      <trkpt lat="45.78275" lon="2.96025">
        <ele>1088.924727</ele>
        <time>2021-07-06T16:19:18+0200</time>
      </trkpt>
      <trkpt lat="45.78274" lon="2.96019">
        <ele>1089.613674</ele>
        <time>2021-07-06T16:19:19+0200</time>
      </trkpt>
      <trkpt lat="45.78271" lon="2.96012">
        <ele>1090.091952</ele>
        <time>2021-07-06T16:19:20+0200</time>
      </trkpt>
      <trkpt lat="45.78268" lon="2.96006">
        <ele>1089.811942</ele>
        <time>2021-07-06T16:19:21+0200</time>
      </trkpt>
      <trkpt lat="45.78266" lon="2.95999">
        <ele>1089.69235</ele>
        <time>2021-07-06T16:19:22+0200</time>
      </trkpt>
      <trkpt lat="45.78264" lon="2.95991">
        <ele>1089.607218</ele>
        <time>2021-07-06T16:19:23+0200</time>
      </trkpt>
      <trkpt lat="45.78261" lon="2.95983">
        <ele>1090.264787</ele>
        <time>2021-07-06T16:19:24+0200</time>
      </trkpt>
      <trkpt lat="45.78258" lon="2.95975">
        <ele>1090.818917</ele>
        <time>2021-07-06T16:19:25+0200</time>
      </trkpt>
      <trkpt lat="45.78257" lon="2.95965">
        <ele>1090.550497</ele>
        <time>2021-07-06T16:19:26+0200</time>
      </trkpt>
      <trkpt lat="45.78254" lon="2.95957">
        <ele>1090.407187</ele>
        <time>2021-07-06T16:19:27+0200</time>
      </trkpt>
      <trkpt lat="45.78251" lon="2.95948">
        <ele>1090.551306</ele>
        <time>2021-07-06T16:19:28+0200</time>
      </trkpt>
      <trkpt lat="45.78249" lon="2.95935">
        <ele>1089.864704</ele>
        <time>2021-07-06T16:19:30+0200</time>
      </trkpt>
      <trkpt lat="45.78246" lon="2.95929">
        <ele>1089.487801</ele>
        <time>2021-07-06T16:19:31+0200</time>
      </trkpt>
      <trkpt lat="45.78244" lon="2.95923">
        <ele>1088.85113</ele>
        <time>2021-07-06T16:19:32+0200</time>
      </trkpt>
      <trkpt lat="45.7824" lon="2.95917">
        <ele>1088.984917</ele>
        <time>2021-07-06T16:19:33+0200</time>
      </trkpt>
      <trkpt lat="45.78236" lon="2.95908">
        <ele>1088.789381</ele>
        <time>2021-07-06T16:19:34+0200</time>
      </trkpt>
      <trkpt lat="45.78234" lon="2.959">
        <ele>1088.147551</ele>
        <time>2021-07-06T16:19:35+0200</time>
      </trkpt>
      <trkpt lat="45.78233" lon="2.95892">
        <ele>1087.656169</ele>
        <time>2021-07-06T16:19:36+0200</time>
      </trkpt>
      <trkpt lat="45.7823" lon="2.95884">
        <ele>1086.538006</ele>
        <time>2021-07-06T16:19:37+0200</time>
      </trkpt>
      <trkpt lat="45.78229" lon="2.95876">
        <ele>1084.902754</ele>
        <time>2021-07-06T16:19:38+0200</time>
      </trkpt>
      <trkpt lat="45.78227" lon="2.95869">
        <ele>1083.664141</ele>
        <time>2021-07-06T16:19:39+0200</time>
      </trkpt>
      <trkpt lat="45.78225" lon="2.95863">
        <ele>1082.972433</ele>
        <time>2021-07-06T16:19:40+0200</time>
      </trkpt>
      <trkpt lat="45.78221" lon="2.95851">
        <ele>1079.966987</ele>
        <time>2021-07-06T16:19:42+0200</time>
      </trkpt>
      <trkpt lat="45.78219" lon="2.95839">
        <ele>1078.63341</ele>
        <time>2021-07-06T16:19:43+0200</time>
      </trkpt>
      <trkpt lat="45.78215" lon="2.95831">
        <ele>1078.441269</ele>
        <time>2021-07-06T16:19:44+0200</time>
      </trkpt>
      <trkpt lat="45.78212" lon="2.95824">
        <ele>1078.878866</ele>
        <time>2021-07-06T16:19:45+0200</time>
      </trkpt>
      <trkpt lat="45.78209" lon="2.95811">
        <ele>1079.106136</ele>
        <time>2021-07-06T16:19:47+0200</time>
      </trkpt>
      <trkpt lat="45.78206" lon="2.95805">
        <ele>1079.380079</ele>
        <time>2021-07-06T16:19:48+0200</time>
      </trkpt>
      <trkpt lat="45.782" lon="2.95796">
        <ele>1079.641538</ele>
        <time>2021-07-06T16:19:50+0200</time>
      </trkpt>
      <trkpt lat="45.78196" lon="2.9579">
        <ele>1079.463915</ele>
        <time>2021-07-06T16:19:51+0200</time>
      </trkpt>
      <trkpt lat="45.78193" lon="2.95784">
        <ele>1079.363434</ele>
        <time>2021-07-06T16:19:52+0200</time>
      </trkpt>
      <trkpt lat="45.7819" lon="2.95779">
        <ele>1079.300897</ele>
        <time>2021-07-06T16:19:53+0200</time>
      </trkpt>
      <trkpt lat="45.78186" lon="2.95769">
        <ele>1078.899028</ele>
        <time>2021-07-06T16:19:55+0200</time>
      </trkpt>
      <trkpt lat="45.78181" lon="2.95761">
        <ele>1078.883585</ele>
        <time>2021-07-06T16:19:57+0200</time>
      </trkpt>
      <trkpt lat="45.78176" lon="2.95753">
        <ele>1078.787423</ele>
        <time>2021-07-06T16:19:59+0200</time>
      </trkpt>
      <trkpt lat="45.78171" lon="2.95747">
        <ele>1078.489176</ele>
        <time>2021-07-06T16:20:01+0200</time>
      </trkpt>
      <trkpt lat="45.78167" lon="2.95739">
        <ele>1078.505223</ele>
        <time>2021-07-06T16:20:03+0200</time>
      </trkpt>
      <trkpt lat="45.78162" lon="2.95732">
        <ele>1078.210152</ele>
        <time>2021-07-06T16:20:05+0200</time>
      </trkpt>
      <trkpt lat="45.78157" lon="2.95725">
        <ele>1077.944274</ele>
        <time>2021-07-06T16:20:07+0200</time>
      </trkpt>
      <trkpt lat="45.78153" lon="2.95718">
        <ele>1078.603481</ele>
        <time>2021-07-06T16:20:09+0200</time>
      </trkpt>
      <trkpt lat="45.78152" lon="2.95711">
        <ele>1079.380568</ele>
        <time>2021-07-06T16:20:11+0200</time>
      </trkpt>
      <trkpt lat="45.78148" lon="2.95704">
        <ele>1080.792918</ele>
        <time>2021-07-06T16:20:13+0200</time>
      </trkpt>
      <trkpt lat="45.78145" lon="2.95695">
        <ele>1081.120479</ele>
        <time>2021-07-06T16:20:16+0200</time>
      </trkpt>
      <trkpt lat="45.78143" lon="2.95689">
        <ele>1082.880969</ele>
        <time>2021-07-06T16:20:18+0200</time>
      </trkpt>
      <trkpt lat="45.78141" lon="2.95683">
        <ele>1084.468312</ele>
        <time>2021-07-06T16:20:20+0200</time>
      </trkpt>
      <trkpt lat="45.7814" lon="2.95675">
        <ele>1085.398448</ele>
        <time>2021-07-06T16:20:22+0200</time>
      </trkpt>
      <trkpt lat="45.7814" lon="2.95667">
        <ele>1084.798305</ele>
        <time>2021-07-06T16:20:25+0200</time>
      </trkpt>
      <trkpt lat="45.78138" lon="2.9566">
        <ele>1085.725246</ele>
        <time>2021-07-06T16:20:27+0200</time>
      </trkpt>
      <trkpt lat="45.78136" lon="2.95653">
        <ele>1086.891687</ele>
        <time>2021-07-06T16:20:29+0200</time>
      </trkpt>
      <trkpt lat="45.78132" lon="2.95644">
        <ele>1087.482396</ele>
        <time>2021-07-06T16:20:31+0200</time>
      </trkpt>
      <trkpt lat="45.78128" lon="2.95636">
        <ele>1084.919115</ele>
        <time>2021-07-06T16:20:34+0200</time>
      </trkpt>
      <trkpt lat="45.78126" lon="2.9563">
        <ele>1082.950795</ele>
        <time>2021-07-06T16:20:36+0200</time>
      </trkpt>
      <trkpt lat="45.78126" lon="2.95623">
        <ele>1082.07771</ele>
        <time>2021-07-06T16:20:38+0200</time>
      </trkpt>
      <trkpt lat="45.78125" lon="2.95616">
        <ele>1080.860116</ele>
        <time>2021-07-06T16:20:40+0200</time>
      </trkpt>
      <trkpt lat="45.78123" lon="2.95608">
        <ele>1080.559773</ele>
        <time>2021-07-06T16:20:42+0200</time>
      </trkpt>
      <trkpt lat="45.78123" lon="2.95601">
        <ele>1081.059266</ele>
        <time>2021-07-06T16:20:44+0200</time>
      </trkpt>
      <trkpt lat="45.7812" lon="2.95594">
        <ele>1080.931743</ele>
        <time>2021-07-06T16:20:48+0200</time>
      </trkpt>
      <trkpt lat="45.78117" lon="2.9559">
        <ele>1080.353093</ele>
        <time>2021-07-06T16:20:50+0200</time>
      </trkpt>
      <trkpt lat="45.78113" lon="2.95584">
        <ele>1079.987367</ele>
        <time>2021-07-06T16:20:53+0200</time>
      </trkpt>
      <trkpt lat="45.78108" lon="2.95579">
        <ele>1079.630571</ele>
        <time>2021-07-06T16:20:56+0200</time>
      </trkpt>
      <trkpt lat="45.78106" lon="2.95573">
        <ele>1081.444266</ele>
        <time>2021-07-06T16:20:58+0200</time>
      </trkpt>
      <trkpt lat="45.78102" lon="2.95568">
        <ele>1083.768183</ele>
        <time>2021-07-06T16:21:01+0200</time>
      </trkpt>
      <trkpt lat="45.78099" lon="2.95563">
        <ele>1086.282605</ele>
        <time>2021-07-06T16:21:03+0200</time>
      </trkpt>
      <trkpt lat="45.78096" lon="2.95555">
        <ele>1086.919691</ele>
        <time>2021-07-06T16:21:05+0200</time>
      </trkpt>
      <trkpt lat="45.78091" lon="2.95547">
        <ele>1088.791152</ele>
        <time>2021-07-06T16:21:08+0200</time>
      </trkpt>
      <trkpt lat="45.78087" lon="2.9554">
        <ele>1089.604375</ele>
        <time>2021-07-06T16:21:11+0200</time>
      </trkpt>
      <trkpt lat="45.78084" lon="2.95533">
        <ele>1090.401218</ele>
        <time>2021-07-06T16:21:14+0200</time>
      </trkpt>
      <trkpt lat="45.78082" lon="2.95525">
        <ele>1091.245549</ele>
        <time>2021-07-06T16:21:16+0200</time>
      </trkpt>
      <trkpt lat="45.78079" lon="2.95518">
        <ele>1091.111013</ele>
        <time>2021-07-06T16:21:18+0200</time>
      </trkpt>
      <trkpt lat="45.78076" lon="2.95509">
        <ele>1089.745795</ele>
        <time>2021-07-06T16:21:21+0200</time>
      </trkpt>
      <trkpt lat="45.78075" lon="2.95502">
        <ele>1086.811918</ele>
        <time>2021-07-06T16:21:23+0200</time>
      </trkpt>
      <trkpt lat="45.78073" lon="2.95494">
        <ele>1086.869068</ele>
        <time>2021-07-06T16:21:25+0200</time>
      </trkpt>
      <trkpt lat="45.78066" lon="2.95488">
        <ele>1083.998612</ele>
        <time>2021-07-06T16:21:29+0200</time>
      </trkpt>
      <trkpt lat="45.78061" lon="2.95479">
        <ele>1082.122335</ele>
        <time>2021-07-06T16:21:31+0200</time>
      </trkpt>
      <trkpt lat="45.78059" lon="2.9547">
        <ele>1083.618546</ele>
        <time>2021-07-06T16:21:33+0200</time>
      </trkpt>
      <trkpt lat="45.78057" lon="2.95462">
        <ele>1085.390611</ele>
        <time>2021-07-06T16:21:35+0200</time>
      </trkpt>
      <trkpt lat="45.78054" lon="2.95458">
        <ele>1085.692428</ele>
        <time>2021-07-06T16:21:36+0200</time>
      </trkpt>
      <trkpt lat="45.7805" lon="2.95449">
        <ele>1088.416285</ele>
        <time>2021-07-06T16:21:38+0200</time>
      </trkpt>
      <trkpt lat="45.78048" lon="2.95441">
        <ele>1090.499086</ele>
        <time>2021-07-06T16:21:40+0200</time>
      </trkpt>
      <trkpt lat="45.78045" lon="2.95431">
        <ele>1089.990723</ele>
        <time>2021-07-06T16:21:42+0200</time>
      </trkpt>
      <trkpt lat="45.78041" lon="2.95424">
        <ele>1088.220933</ele>
        <time>2021-07-06T16:21:43+0200</time>
      </trkpt>
      <trkpt lat="45.78038" lon="2.95415">
        <ele>1088.178769</ele>
        <time>2021-07-06T16:21:46+0200</time>
      </trkpt>
      <trkpt lat="45.78033" lon="2.95405">
        <ele>1087.147886</ele>
        <time>2021-07-06T16:21:48+0200</time>
      </trkpt>
      <trkpt lat="45.7803" lon="2.95397">
        <ele>1086.034553</ele>
        <time>2021-07-06T16:21:50+0200</time>
      </trkpt>
      <trkpt lat="45.78024" lon="2.95388">
        <ele>1084.68849</ele>
        <time>2021-07-06T16:21:52+0200</time>
      </trkpt>
      <trkpt lat="45.7802" lon="2.95381">
        <ele>1084.159253</ele>
        <time>2021-07-06T16:21:54+0200</time>
      </trkpt>
      <trkpt lat="45.78015" lon="2.95377">
        <ele>1082.896352</ele>
        <time>2021-07-06T16:21:56+0200</time>
      </trkpt>
      <trkpt lat="45.7801" lon="2.95372">
        <ele>1081.095114</ele>
        <time>2021-07-06T16:21:58+0200</time>
      </trkpt>
      <trkpt lat="45.78006" lon="2.95368">
        <ele>1080.279907</ele>
        <time>2021-07-06T16:21:59+0200</time>
      </trkpt>
      <trkpt lat="45.77998" lon="2.95362">
        <ele>1081.237709</ele>
        <time>2021-07-06T16:22:00+0200</time>
      </trkpt>
      <trkpt lat="45.77993" lon="2.95357">
        <ele>1080.626633</ele>
        <time>2021-07-06T16:22:01+0200</time>
      </trkpt>
      <trkpt lat="45.77988" lon="2.95355">
        <ele>1079.420218</ele>
        <time>2021-07-06T16:22:02+0200</time>
      </trkpt>
      <trkpt lat="45.77982" lon="2.95352">
        <ele>1078.209524</ele>
        <time>2021-07-06T16:22:03+0200</time>
      </trkpt>
      <trkpt lat="45.77976" lon="2.95349">
        <ele>1077.504936</ele>
        <time>2021-07-06T16:22:04+0200</time>
      </trkpt>
      <trkpt lat="45.7797" lon="2.95348">
        <ele>1076.446534</ele>
        <time>2021-07-06T16:22:05+0200</time>
      </trkpt>
      <trkpt lat="45.77958" lon="2.95344">
        <ele>1076.266219</ele>
        <time>2021-07-06T16:22:07+0200</time>
      </trkpt>
      <trkpt lat="45.77953" lon="2.95342">
        <ele>1077.049912</ele>
        <time>2021-07-06T16:22:08+0200</time>
      </trkpt>
      <trkpt lat="45.77948" lon="2.95339">
        <ele>1076.333785</ele>
        <time>2021-07-06T16:22:09+0200</time>
      </trkpt>
      <trkpt lat="45.77944" lon="2.95336">
        <ele>1076.509488</ele>
        <time>2021-07-06T16:22:10+0200</time>
      </trkpt>
      <trkpt lat="45.77939" lon="2.95332">
        <ele>1075.086333</ele>
        <time>2021-07-06T16:22:12+0200</time>
      </trkpt>
      <trkpt lat="45.77934" lon="2.95328">
        <ele>1074.291251</ele>
        <time>2021-07-06T16:22:14+0200</time>
      </trkpt>
      <trkpt lat="45.7793" lon="2.95326">
        <ele>1072.363515</ele>
        <time>2021-07-06T16:22:16+0200</time>
      </trkpt>
      <trkpt lat="45.77923" lon="2.95318">
        <ele>1072.738778</ele>
        <time>2021-07-06T16:22:18+0200</time>
      </trkpt>
      <trkpt lat="45.77916" lon="2.95312">
        <ele>1075.410786</ele>
        <time>2021-07-06T16:22:20+0200</time>
      </trkpt>
      <trkpt lat="45.77911" lon="2.95307">
        <ele>1076.151708</ele>
        <time>2021-07-06T16:22:21+0200</time>
      </trkpt>
      <trkpt lat="45.77904" lon="2.95303">
        <ele>1077.793457</ele>
        <time>2021-07-06T16:22:23+0200</time>
      </trkpt>
      <trkpt lat="45.77898" lon="2.95298">
        <ele>1078.870904</ele>
        <time>2021-07-06T16:22:25+0200</time>
      </trkpt>
      <trkpt lat="45.77894" lon="2.95295">
        <ele>1079.546414</ele>
        <time>2021-07-06T16:22:27+0200</time>
      </trkpt>
      <trkpt lat="45.77888" lon="2.95293">
        <ele>1078.816203</ele>
        <time>2021-07-06T16:22:29+0200</time>
      </trkpt>
      <trkpt lat="45.77883" lon="2.9529">
        <ele>1077.164519</ele>
        <time>2021-07-06T16:22:31+0200</time>
      </trkpt>
      <trkpt lat="45.77877" lon="2.95288">
        <ele>1075.534589</ele>
        <time>2021-07-06T16:22:34+0200</time>
      </trkpt>
      <trkpt lat="45.77871" lon="2.95285">
        <ele>1076.128757</ele>
        <time>2021-07-06T16:22:36+0200</time>
      </trkpt>
      <trkpt lat="45.77865" lon="2.95283">
        <ele>1074.390604</ele>
        <time>2021-07-06T16:22:38+0200</time>
      </trkpt>
      <trkpt lat="45.7786" lon="2.95281">
        <ele>1072.613967</ele>
        <time>2021-07-06T16:22:40+0200</time>
      </trkpt>
      <trkpt lat="45.77854" lon="2.9528">
        <ele>1071.869029</ele>
        <time>2021-07-06T16:22:43+0200</time>
      </trkpt>
      <trkpt lat="45.77849" lon="2.95277">
        <ele>1076.145316</ele>
        <time>2021-07-06T16:22:45+0200</time>
      </trkpt>
      <trkpt lat="45.77843" lon="2.95275">
        <ele>1078.636318</ele>
        <time>2021-07-06T16:22:48+0200</time>
      </trkpt>
      <trkpt lat="45.77838" lon="2.95272">
        <ele>1079.42151</ele>
        <time>2021-07-06T16:22:50+0200</time>
      </trkpt>
      <trkpt lat="45.77833" lon="2.95272">
        <ele>1077.726433</ele>
        <time>2021-07-06T16:22:52+0200</time>
      </trkpt>
      <trkpt lat="45.77828" lon="2.95269">
        <ele>1079.973901</ele>
        <time>2021-07-06T16:22:55+0200</time>
      </trkpt>
      <trkpt lat="45.77823" lon="2.95263">
        <ele>1081.135934</ele>
        <time>2021-07-06T16:22:58+0200</time>
      </trkpt>
      <trkpt lat="45.77818" lon="2.95259">
        <ele>1082.965859</ele>
        <time>2021-07-06T16:23:02+0200</time>
      </trkpt>
      <trkpt lat="45.77813" lon="2.95258">
        <ele>1081.614254</ele>
        <time>2021-07-06T16:23:05+0200</time>
      </trkpt>
      <trkpt lat="45.77809" lon="2.95259">
        <ele>1081.428751</ele>
        <time>2021-07-06T16:23:07+0200</time>
      </trkpt>
      <trkpt lat="45.77804" lon="2.9526">
        <ele>1081.682502</ele>
        <time>2021-07-06T16:23:10+0200</time>
      </trkpt>
      <trkpt lat="45.77799" lon="2.9526">
        <ele>1080.829426</ele>
        <time>2021-07-06T16:23:13+0200</time>
      </trkpt>
      <trkpt lat="45.77792" lon="2.95259">
        <ele>1082.412012</ele>
        <time>2021-07-06T16:23:17+0200</time>
      </trkpt>
      <trkpt lat="45.77785" lon="2.95258">
        <ele>1083.539832</ele>
        <time>2021-07-06T16:23:20+0200</time>
      </trkpt>
      <trkpt lat="45.77778" lon="2.95255">
        <ele>1084.178104</ele>
        <time>2021-07-06T16:23:23+0200</time>
      </trkpt>
      <trkpt lat="45.77773" lon="2.95254">
        <ele>1082.669839</ele>
        <time>2021-07-06T16:23:25+0200</time>
      </trkpt>
      <trkpt lat="45.77768" lon="2.95252">
        <ele>1080.886386</ele>
        <time>2021-07-06T16:23:27+0200</time>
      </trkpt>
      <trkpt lat="45.77763" lon="2.95251">
        <ele>1080.618532</ele>
        <time>2021-07-06T16:23:30+0200</time>
      </trkpt>
      <trkpt lat="45.77757" lon="2.95246">
        <ele>1081.481265</ele>
        <time>2021-07-06T16:23:32+0200</time>
      </trkpt>
      <trkpt lat="45.77753" lon="2.95246">
        <ele>1081.559771</ele>
        <time>2021-07-06T16:23:34+0200</time>
      </trkpt>
      <trkpt lat="45.77748" lon="2.95245">
        <ele>1081.442226</ele>
        <time>2021-07-06T16:23:37+0200</time>
      </trkpt>
      <trkpt lat="45.77743" lon="2.95243">
        <ele>1082.573752</ele>
        <time>2021-07-06T16:23:40+0200</time>
      </trkpt>
      <trkpt lat="45.77738" lon="2.95242">
        <ele>1084.115609</ele>
        <time>2021-07-06T16:23:42+0200</time>
      </trkpt>
      <trkpt lat="45.77733" lon="2.95241">
        <ele>1086.06788</ele>
        <time>2021-07-06T16:23:45+0200</time>
      </trkpt>
      <trkpt lat="45.77729" lon="2.95237">
        <ele>1085.20592</ele>
        <time>2021-07-06T16:23:51+0200</time>
      </trkpt>
      <trkpt lat="45.77726" lon="2.95241">
        <ele>1078.684701</ele>
        <time>2021-07-06T16:24:12+0200</time>
      </trkpt>
      <trkpt lat="45.77721" lon="2.95237">
        <ele>1081.953545</ele>
        <time>2021-07-06T16:24:25+0200</time>
      </trkpt>
      <trkpt lat="45.77717" lon="2.95235">
        <ele>1082.123529</ele>
        <time>2021-07-06T16:24:32+0200</time>
      </trkpt>
      <trkpt lat="45.77712" lon="2.95234">
        <ele>1082.643531</ele>
        <time>2021-07-06T16:24:37+0200</time>
      </trkpt>
      <trkpt lat="45.77706" lon="2.95232">
        <ele>1083.820744</ele>
        <time>2021-07-06T16:24:39+0200</time>
      </trkpt>
      <trkpt lat="45.77699" lon="2.95237">
        <ele>1085.338294</ele>
        <time>2021-07-06T16:24:41+0200</time>
      </trkpt>
      <trkpt lat="45.77691" lon="2.95243">
        <ele>1084.420593</ele>
        <time>2021-07-06T16:24:43+0200</time>
      </trkpt>
      <trkpt lat="45.77684" lon="2.95245">
        <ele>1085.402702</ele>
        <time>2021-07-06T16:24:44+0200</time>
      </trkpt>
      <trkpt lat="45.77677" lon="2.95247">
        <ele>1085.764488</ele>
        <time>2021-07-06T16:24:45+0200</time>
      </trkpt>
      <trkpt lat="45.7767" lon="2.95251">
        <ele>1085.041939</ele>
        <time>2021-07-06T16:24:46+0200</time>
      </trkpt>
      <trkpt lat="45.77663" lon="2.95252">
        <ele>1084.267238</ele>
        <time>2021-07-06T16:24:47+0200</time>
      </trkpt>
      <trkpt lat="45.77657" lon="2.95257">
        <ele>1083.182089</ele>
        <time>2021-07-06T16:24:48+0200</time>
      </trkpt>
      <trkpt lat="45.77652" lon="2.95262">
        <ele>1083.600661</ele>
        <time>2021-07-06T16:24:49+0200</time>
      </trkpt>
      <trkpt lat="45.77644" lon="2.95264">
        <ele>1082.983738</ele>
        <time>2021-07-06T16:24:50+0200</time>
      </trkpt>
      <trkpt lat="45.77636" lon="2.95267">
        <ele>1081.340412</ele>
        <time>2021-07-06T16:24:51+0200</time>
      </trkpt>
      <trkpt lat="45.7763" lon="2.95271">
        <ele>1080.129095</ele>
        <time>2021-07-06T16:24:52+0200</time>
      </trkpt>
      <trkpt lat="45.77624" lon="2.95275">
        <ele>1079.441747</ele>
        <time>2021-07-06T16:24:53+0200</time>
      </trkpt>
      <trkpt lat="45.77616" lon="2.95277">
        <ele>1078.45022</ele>
        <time>2021-07-06T16:24:54+0200</time>
      </trkpt>
      <trkpt lat="45.77607" lon="2.95281">
        <ele>1076.779409</ele>
        <time>2021-07-06T16:24:55+0200</time>
      </trkpt>
      <trkpt lat="45.776" lon="2.95288">
        <ele>1075.320811</ele>
        <time>2021-07-06T16:24:56+0200</time>
      </trkpt>
      <trkpt lat="45.77594" lon="2.95291">
        <ele>1074.893217</ele>
        <time>2021-07-06T16:24:57+0200</time>
      </trkpt>
      <trkpt lat="45.77583" lon="2.95289">
        <ele>1073.507186</ele>
        <time>2021-07-06T16:24:59+0200</time>
      </trkpt>
      <trkpt lat="45.77576" lon="2.95285">
        <ele>1073.692874</ele>
        <time>2021-07-06T16:25:00+0200</time>
      </trkpt>
      <trkpt lat="45.77569" lon="2.95279">
        <ele>1073.506829</ele>
        <time>2021-07-06T16:25:01+0200</time>
      </trkpt>
      <trkpt lat="45.77564" lon="2.95272">
        <ele>1072.866596</ele>
        <time>2021-07-06T16:25:02+0200</time>
      </trkpt>
      <trkpt lat="45.7756" lon="2.95262">
        <ele>1073.332767</ele>
        <time>2021-07-06T16:25:03+0200</time>
      </trkpt>
      <trkpt lat="45.77555" lon="2.95255">
        <ele>1073.012308</ele>
        <time>2021-07-06T16:25:04+0200</time>
      </trkpt>
      <trkpt lat="45.7755" lon="2.95245">
        <ele>1072.269467</ele>
        <time>2021-07-06T16:25:06+0200</time>
      </trkpt>
      <trkpt lat="45.77544" lon="2.95238">
        <ele>1072.839737</ele>
        <time>2021-07-06T16:25:07+0200</time>
      </trkpt>
      <trkpt lat="45.77539" lon="2.95231">
        <ele>1072.910973</ele>
        <time>2021-07-06T16:25:08+0200</time>
      </trkpt>
      <trkpt lat="45.77534" lon="2.95227">
        <ele>1071.789185</ele>
        <time>2021-07-06T16:25:09+0200</time>
      </trkpt>
      <trkpt lat="45.77529" lon="2.95225">
        <ele>1070.046048</ele>
        <time>2021-07-06T16:25:10+0200</time>
      </trkpt>
      <trkpt lat="45.77524" lon="2.95225">
        <ele>1068.314457</ele>
        <time>2021-07-06T16:25:11+0200</time>
      </trkpt>
      <trkpt lat="45.77519" lon="2.95223">
        <ele>1066.82732</ele>
        <time>2021-07-06T16:25:12+0200</time>
      </trkpt>
      <trkpt lat="45.77512" lon="2.95221">
        <ele>1065.160599</ele>
        <time>2021-07-06T16:25:14+0200</time>
      </trkpt>
      <trkpt lat="45.77506" lon="2.95218">
        <ele>1064.621985</ele>
        <time>2021-07-06T16:25:15+0200</time>
      </trkpt>
      <trkpt lat="45.775" lon="2.95217">
        <ele>1065.362228</ele>
        <time>2021-07-06T16:25:16+0200</time>
      </trkpt>
      <trkpt lat="45.77495" lon="2.95215">
        <ele>1066.070912</ele>
        <time>2021-07-06T16:25:17+0200</time>
      </trkpt>
      <trkpt lat="45.77488" lon="2.9521">
        <ele>1066.856791</ele>
        <time>2021-07-06T16:25:19+0200</time>
      </trkpt>
      <trkpt lat="45.77482" lon="2.95209">
        <ele>1067.865772</ele>
        <time>2021-07-06T16:25:21+0200</time>
      </trkpt>
      <trkpt lat="45.77477" lon="2.95207">
        <ele>1068.62036</ele>
        <time>2021-07-06T16:25:22+0200</time>
      </trkpt>
      <trkpt lat="45.77472" lon="2.95205">
        <ele>1068.366887</ele>
        <time>2021-07-06T16:25:23+0200</time>
      </trkpt>
      <trkpt lat="45.77467" lon="2.95206">
        <ele>1068.286464</ele>
        <time>2021-07-06T16:25:25+0200</time>
      </trkpt>
      <trkpt lat="45.7746" lon="2.95204">
        <ele>1068.899233</ele>
        <time>2021-07-06T16:25:27+0200</time>
      </trkpt>
      <trkpt lat="45.77452" lon="2.95204">
        <ele>1067.59449</ele>
        <time>2021-07-06T16:25:29+0200</time>
      </trkpt>
      <trkpt lat="45.77447" lon="2.95202">
        <ele>1067.319181</ele>
        <time>2021-07-06T16:25:30+0200</time>
      </trkpt>
      <trkpt lat="45.77439" lon="2.95198">
        <ele>1068.763929</ele>
        <time>2021-07-06T16:25:32+0200</time>
      </trkpt>
      <trkpt lat="45.77433" lon="2.95196">
        <ele>1070.89462</ele>
        <time>2021-07-06T16:25:34+0200</time>
      </trkpt>
      <trkpt lat="45.77428" lon="2.95196">
        <ele>1071.731342</ele>
        <time>2021-07-06T16:25:36+0200</time>
      </trkpt>
      <trkpt lat="45.77424" lon="2.95195">
        <ele>1072.694002</ele>
        <time>2021-07-06T16:25:38+0200</time>
      </trkpt>
      <trkpt lat="45.77419" lon="2.95192">
        <ele>1072.828746</ele>
        <time>2021-07-06T16:25:40+0200</time>
      </trkpt>
      <trkpt lat="45.77413" lon="2.95191">
        <ele>1074.43165</ele>
        <time>2021-07-06T16:25:42+0200</time>
      </trkpt>
      <trkpt lat="45.77407" lon="2.9519">
        <ele>1075.312041</ele>
        <time>2021-07-06T16:25:44+0200</time>
      </trkpt>
      <trkpt lat="45.77401" lon="2.95191">
        <ele>1075.615847</ele>
        <time>2021-07-06T16:25:46+0200</time>
      </trkpt>
      <trkpt lat="45.77394" lon="2.95189">
        <ele>1077.459136</ele>
        <time>2021-07-06T16:25:48+0200</time>
      </trkpt>
      <trkpt lat="45.77389" lon="2.95189">
        <ele>1080.390459</ele>
        <time>2021-07-06T16:25:50+0200</time>
      </trkpt>
      <trkpt lat="45.77383" lon="2.95189">
        <ele>1080.854861</ele>
        <time>2021-07-06T16:25:52+0200</time>
      </trkpt>
      <trkpt lat="45.77379" lon="2.9519">
        <ele>1081.165603</ele>
        <time>2021-07-06T16:25:54+0200</time>
      </trkpt>
      <trkpt lat="45.77373" lon="2.95191">
        <ele>1079.789982</ele>
        <time>2021-07-06T16:25:56+0200</time>
      </trkpt>
      <trkpt lat="45.77368" lon="2.95193">
        <ele>1080.674997</ele>
        <time>2021-07-06T16:25:58+0200</time>
      </trkpt>
      <trkpt lat="45.77362" lon="2.95194">
        <ele>1081.415994</ele>
        <time>2021-07-06T16:26:00+0200</time>
      </trkpt>
      <trkpt lat="45.77356" lon="2.95194">
        <ele>1081.398118</ele>
        <time>2021-07-06T16:26:03+0200</time>
      </trkpt>
      <trkpt lat="45.77351" lon="2.95194">
        <ele>1083.045004</ele>
        <time>2021-07-06T16:26:05+0200</time>
      </trkpt>
      <trkpt lat="45.77343" lon="2.95194">
        <ele>1082.556411</ele>
        <time>2021-07-06T16:26:07+0200</time>
      </trkpt>
      <trkpt lat="45.77337" lon="2.95194">
        <ele>1080.844812</ele>
        <time>2021-07-06T16:26:09+0200</time>
      </trkpt>
      <trkpt lat="45.77331" lon="2.95195">
        <ele>1080.532092</ele>
        <time>2021-07-06T16:26:11+0200</time>
      </trkpt>
      <trkpt lat="45.77324" lon="2.95195">
        <ele>1083.18327</ele>
        <time>2021-07-06T16:26:13+0200</time>
      </trkpt>
      <trkpt lat="45.77318" lon="2.95195">
        <ele>1083.732734</ele>
        <time>2021-07-06T16:26:15+0200</time>
      </trkpt>
      <trkpt lat="45.77311" lon="2.95198">
        <ele>1083.038141</ele>
        <time>2021-07-06T16:26:17+0200</time>
      </trkpt>
      <trkpt lat="45.77303" lon="2.95198">
        <ele>1085.071924</ele>
        <time>2021-07-06T16:26:20+0200</time>
      </trkpt>
      <trkpt lat="45.77298" lon="2.95198">
        <ele>1084.198626</ele>
        <time>2021-07-06T16:26:22+0200</time>
      </trkpt>
      <trkpt lat="45.77292" lon="2.95198">
        <ele>1085.717926</ele>
        <time>2021-07-06T16:26:24+0200</time>
      </trkpt>
      <trkpt lat="45.77287" lon="2.95199">
        <ele>1085.85826</ele>
        <time>2021-07-06T16:26:27+0200</time>
      </trkpt>
      <trkpt lat="45.7728" lon="2.95201">
        <ele>1083.377396</ele>
        <time>2021-07-06T16:26:30+0200</time>
      </trkpt>
      <trkpt lat="45.77276" lon="2.95203">
        <ele>1083.024272</ele>
        <time>2021-07-06T16:26:32+0200</time>
      </trkpt>
      <trkpt lat="45.7727" lon="2.95202">
        <ele>1082.532407</ele>
        <time>2021-07-06T16:26:35+0200</time>
      </trkpt>
      <trkpt lat="45.77264" lon="2.95201">
        <ele>1083.800138</ele>
        <time>2021-07-06T16:26:38+0200</time>
      </trkpt>
      <trkpt lat="45.77258" lon="2.95202">
        <ele>1082.599321</ele>
        <time>2021-07-06T16:26:41+0200</time>
      </trkpt>
      <trkpt lat="45.77254" lon="2.95203">
        <ele>1083.226353</ele>
        <time>2021-07-06T16:26:44+0200</time>
      </trkpt>
      <trkpt lat="45.77247" lon="2.95203">
        <ele>1083.059788</ele>
        <time>2021-07-06T16:26:47+0200</time>
      </trkpt>
      <trkpt lat="45.77241" lon="2.95205">
        <ele>1083.2076</ele>
        <time>2021-07-06T16:26:50+0200</time>
      </trkpt>
      <trkpt lat="45.77237" lon="2.9521">
        <ele>1083.983491</ele>
        <time>2021-07-06T16:26:54+0200</time>
      </trkpt>
      <trkpt lat="45.77232" lon="2.95211">
        <ele>1084.57913</ele>
        <time>2021-07-06T16:26:56+0200</time>
      </trkpt>
      <trkpt lat="45.77227" lon="2.95215">
        <ele>1084.132441</ele>
        <time>2021-07-06T16:26:58+0200</time>
      </trkpt>
      <trkpt lat="45.7722" lon="2.95218">
        <ele>1086.833326</ele>
        <time>2021-07-06T16:27:01+0200</time>
      </trkpt>
      <trkpt lat="45.77213" lon="2.9522">
        <ele>1088.571595</ele>
        <time>2021-07-06T16:27:04+0200</time>
      </trkpt>
      <trkpt lat="45.77208" lon="2.95222">
        <ele>1090.743107</ele>
        <time>2021-07-06T16:27:07+0200</time>
      </trkpt>
      <trkpt lat="45.77203" lon="2.95222">
        <ele>1088.943116</ele>
        <time>2021-07-06T16:27:09+0200</time>
      </trkpt>
      <trkpt lat="45.77198" lon="2.95225">
        <ele>1089.078659</ele>
        <time>2021-07-06T16:27:11+0200</time>
      </trkpt>
      <trkpt lat="45.77192" lon="2.95226">
        <ele>1089.130442</ele>
        <time>2021-07-06T16:27:15+0200</time>
      </trkpt>
      <trkpt lat="45.77187" lon="2.95227">
        <ele>1089.540635</ele>
        <time>2021-07-06T16:27:18+0200</time>
      </trkpt>
      <trkpt lat="45.7718" lon="2.95227">
        <ele>1089.524318</ele>
        <time>2021-07-06T16:27:21+0200</time>
      </trkpt>
      <trkpt lat="45.77175" lon="2.95227">
        <ele>1090.963412</ele>
        <time>2021-07-06T16:27:22+0200</time>
      </trkpt>
      <trkpt lat="45.77169" lon="2.95227">
        <ele>1089.277262</ele>
        <time>2021-07-06T16:27:25+0200</time>
      </trkpt>
      <trkpt lat="45.77165" lon="2.95229">
        <ele>1088.657608</ele>
        <time>2021-07-06T16:27:27+0200</time>
      </trkpt>
      <trkpt lat="45.77159" lon="2.9523">
        <ele>1089.815402</ele>
        <time>2021-07-06T16:27:30+0200</time>
      </trkpt>
      <trkpt lat="45.77154" lon="2.9523">
        <ele>1090.112868</ele>
        <time>2021-07-06T16:27:32+0200</time>
      </trkpt>
      <trkpt lat="45.77148" lon="2.95232">
        <ele>1091.443813</ele>
        <time>2021-07-06T16:27:36+0200</time>
      </trkpt>
      <trkpt lat="45.77143" lon="2.95235">
        <ele>1090.923905</ele>
        <time>2021-07-06T16:27:39+0200</time>
      </trkpt>
      <trkpt lat="45.77137" lon="2.95237">
        <ele>1093.059933</ele>
        <time>2021-07-06T16:27:42+0200</time>
      </trkpt>
      <trkpt lat="45.77132" lon="2.95239">
        <ele>1095.839677</ele>
        <time>2021-07-06T16:27:45+0200</time>
      </trkpt>
      <trkpt lat="45.77128" lon="2.95242">
        <ele>1098.322871</ele>
        <time>2021-07-06T16:27:49+0200</time>
      </trkpt>
      <trkpt lat="45.77122" lon="2.95244">
        <ele>1098.884165</ele>
        <time>2021-07-06T16:27:52+0200</time>
      </trkpt>
      <trkpt lat="45.77117" lon="2.95248">
        <ele>1098.074972</ele>
        <time>2021-07-06T16:27:55+0200</time>
      </trkpt>
      <trkpt lat="45.77113" lon="2.95254">
        <ele>1096.929569</ele>
        <time>2021-07-06T16:27:57+0200</time>
      </trkpt>
      <trkpt lat="45.77107" lon="2.95258">
        <ele>1095.773597</ele>
        <time>2021-07-06T16:28:00+0200</time>
      </trkpt>
      <trkpt lat="45.77102" lon="2.95261">
        <ele>1095.511471</ele>
        <time>2021-07-06T16:28:03+0200</time>
      </trkpt>
      <trkpt lat="45.77098" lon="2.95266">
        <ele>1095.800658</ele>
        <time>2021-07-06T16:28:07+0200</time>
      </trkpt>
      <trkpt lat="45.77093" lon="2.95269">
        <ele>1094.727462</ele>
        <time>2021-07-06T16:28:10+0200</time>
      </trkpt>
      <trkpt lat="45.77088" lon="2.95274">
        <ele>1096.975525</ele>
        <time>2021-07-06T16:28:13+0200</time>
      </trkpt>
      <trkpt lat="45.77083" lon="2.95276">
        <ele>1096.82875</ele>
        <time>2021-07-06T16:28:16+0200</time>
      </trkpt>
      <trkpt lat="45.77079" lon="2.95278">
        <ele>1097.070215</ele>
        <time>2021-07-06T16:28:18+0200</time>
      </trkpt>
      <trkpt lat="45.77073" lon="2.95281">
        <ele>1096.686691</ele>
        <time>2021-07-06T16:28:21+0200</time>
      </trkpt>
      <trkpt lat="45.77068" lon="2.95283">
        <ele>1097.348232</ele>
        <time>2021-07-06T16:28:24+0200</time>
      </trkpt>
      <trkpt lat="45.77063" lon="2.95287">
        <ele>1099.558734</ele>
        <time>2021-07-06T16:28:28+0200</time>
      </trkpt>
      <trkpt lat="45.77059" lon="2.95291">
        <ele>1098.116117</ele>
        <time>2021-07-06T16:28:32+0200</time>
      </trkpt>
      <trkpt lat="45.77053" lon="2.95292">
        <ele>1096.312486</ele>
        <time>2021-07-06T16:28:37+0200</time>
      </trkpt>
      <trkpt lat="45.77048" lon="2.95294">
        <ele>1096.49637</ele>
        <time>2021-07-06T16:28:40+0200</time>
      </trkpt>
      <trkpt lat="45.77043" lon="2.95297">
        <ele>1097.706007</ele>
        <time>2021-07-06T16:28:43+0200</time>
      </trkpt>
      <trkpt lat="45.77039" lon="2.953">
        <ele>1097.197658</ele>
        <time>2021-07-06T16:28:45+0200</time>
      </trkpt>
      <trkpt lat="45.77034" lon="2.95303">
        <ele>1099.014863</ele>
        <time>2021-07-06T16:28:48+0200</time>
      </trkpt>
      <trkpt lat="45.77029" lon="2.95304">
        <ele>1098.523537</ele>
        <time>2021-07-06T16:28:51+0200</time>
      </trkpt>
      <trkpt lat="45.77025" lon="2.95308">
        <ele>1098.339456</ele>
        <time>2021-07-06T16:28:53+0200</time>
      </trkpt>
      <trkpt lat="45.7702" lon="2.95311">
        <ele>1098.471327</ele>
        <time>2021-07-06T16:28:56+0200</time>
      </trkpt>
      <trkpt lat="45.77014" lon="2.95314">
        <ele>1098.959284</ele>
        <time>2021-07-06T16:28:59+0200</time>
      </trkpt>
      <trkpt lat="45.77009" lon="2.95314">
        <ele>1099.520114</ele>
        <time>2021-07-06T16:29:02+0200</time>
      </trkpt>
      <trkpt lat="45.77004" lon="2.95314">
        <ele>1098.428747</ele>
        <time>2021-07-06T16:29:04+0200</time>
      </trkpt>
      <trkpt lat="45.77" lon="2.95315">
        <ele>1097.566392</ele>
        <time>2021-07-06T16:29:06+0200</time>
      </trkpt>
      <trkpt lat="45.76995" lon="2.95315">
        <ele>1095.304159</ele>
        <time>2021-07-06T16:29:09+0200</time>
      </trkpt>
      <trkpt lat="45.7699" lon="2.95312">
        <ele>1095.028877</ele>
        <time>2021-07-06T16:29:15+0200</time>
      </trkpt>
      <trkpt lat="45.76985" lon="2.95312">
        <ele>1095.23491</ele>
        <time>2021-07-06T16:29:30+0200</time>
      </trkpt>
      <trkpt lat="45.7698" lon="2.95312">
        <ele>1095.702294</ele>
        <time>2021-07-06T16:29:32+0200</time>
      </trkpt>
      <trkpt lat="45.76975" lon="2.95317">
        <ele>1095.23869</ele>
        <time>2021-07-06T16:29:34+0200</time>
      </trkpt>
      <trkpt lat="45.7697" lon="2.95321">
        <ele>1095.013544</ele>
        <time>2021-07-06T16:29:36+0200</time>
      </trkpt>
      <trkpt lat="45.76963" lon="2.95326">
        <ele>1092.531461</ele>
        <time>2021-07-06T16:29:38+0200</time>
      </trkpt>
      <trkpt lat="45.76956" lon="2.95329">
        <ele>1093.006139</ele>
        <time>2021-07-06T16:29:40+0200</time>
      </trkpt>
      <trkpt lat="45.76952" lon="2.95332">
        <ele>1093.656312</ele>
        <time>2021-07-06T16:29:41+0200</time>
      </trkpt>
      <trkpt lat="45.76943" lon="2.95336">
        <ele>1095.080634</ele>
        <time>2021-07-06T16:29:43+0200</time>
      </trkpt>
      <trkpt lat="45.76939" lon="2.95341">
        <ele>1095.193838</ele>
        <time>2021-07-06T16:29:44+0200</time>
      </trkpt>
      <trkpt lat="45.76935" lon="2.95345">
        <ele>1094.409861</ele>
        <time>2021-07-06T16:29:45+0200</time>
      </trkpt>
      <trkpt lat="45.76926" lon="2.9535">
        <ele>1092.853905</ele>
        <time>2021-07-06T16:29:47+0200</time>
      </trkpt>
      <trkpt lat="45.76921" lon="2.95352">
        <ele>1091.555576</ele>
        <time>2021-07-06T16:29:48+0200</time>
      </trkpt>
      <trkpt lat="45.76917" lon="2.95355">
        <ele>1090.589799</ele>
        <time>2021-07-06T16:29:49+0200</time>
      </trkpt>
      <trkpt lat="45.76913" lon="2.95359">
        <ele>1089.158361</ele>
        <time>2021-07-06T16:29:50+0200</time>
      </trkpt>
      <trkpt lat="45.76905" lon="2.95366">
        <ele>1089.974437</ele>
        <time>2021-07-06T16:29:52+0200</time>
      </trkpt>
      <trkpt lat="45.769" lon="2.95371">
        <ele>1089.07044</ele>
        <time>2021-07-06T16:29:53+0200</time>
      </trkpt>
      <trkpt lat="45.76895" lon="2.95372">
        <ele>1089.729538</ele>
        <time>2021-07-06T16:29:54+0200</time>
      </trkpt>
      <trkpt lat="45.7689" lon="2.95374">
        <ele>1089.909349</ele>
        <time>2021-07-06T16:29:55+0200</time>
      </trkpt>
      <trkpt lat="45.76885" lon="2.95375">
        <ele>1090.87544</ele>
        <time>2021-07-06T16:29:56+0200</time>
      </trkpt>
      <trkpt lat="45.7688" lon="2.95375">
        <ele>1092.272748</ele>
        <time>2021-07-06T16:29:57+0200</time>
      </trkpt>
      <trkpt lat="45.76874" lon="2.95378">
        <ele>1094.513971</ele>
        <time>2021-07-06T16:29:59+0200</time>
      </trkpt>
      <trkpt lat="45.76866" lon="2.9538">
        <ele>1093.047887</ele>
        <time>2021-07-06T16:30:01+0200</time>
      </trkpt>
      <trkpt lat="45.76857" lon="2.95384">
        <ele>1093.256376</ele>
        <time>2021-07-06T16:30:03+0200</time>
      </trkpt>
      <trkpt lat="45.76852" lon="2.95388">
        <ele>1093.202233</ele>
        <time>2021-07-06T16:30:05+0200</time>
      </trkpt>
      <trkpt lat="45.76848" lon="2.95391">
        <ele>1093.607618</ele>
        <time>2021-07-06T16:30:06+0200</time>
      </trkpt>
      <trkpt lat="45.76842" lon="2.95395">
        <ele>1092.551943</ele>
        <time>2021-07-06T16:30:07+0200</time>
      </trkpt>
      <trkpt lat="45.76837" lon="2.95398">
        <ele>1092.225174</ele>
        <time>2021-07-06T16:30:08+0200</time>
      </trkpt>
      <trkpt lat="45.76831" lon="2.95401">
        <ele>1093.426684</ele>
        <time>2021-07-06T16:30:09+0200</time>
      </trkpt>
      <trkpt lat="45.76827" lon="2.95406">
        <ele>1093.707659</ele>
        <time>2021-07-06T16:30:10+0200</time>
      </trkpt>
      <trkpt lat="45.76822" lon="2.95408">
        <ele>1093.782086</ele>
        <time>2021-07-06T16:30:11+0200</time>
      </trkpt>
      <trkpt lat="45.76816" lon="2.9541">
        <ele>1093.674444</ele>
        <time>2021-07-06T16:30:12+0200</time>
      </trkpt>
      <trkpt lat="45.7681" lon="2.95411">
        <ele>1094.731052</ele>
        <time>2021-07-06T16:30:13+0200</time>
      </trkpt>
      <trkpt lat="45.76805" lon="2.95413">
        <ele>1095.425489</ele>
        <time>2021-07-06T16:30:14+0200</time>
      </trkpt>
      <trkpt lat="45.768" lon="2.95414">
        <ele>1095.966352</ele>
        <time>2021-07-06T16:30:15+0200</time>
      </trkpt>
      <trkpt lat="45.76791" lon="2.9541">
        <ele>1095.689332</ele>
        <time>2021-07-06T16:30:16+0200</time>
      </trkpt>
      <trkpt lat="45.76784" lon="2.95407">
        <ele>1094.398633</ele>
        <time>2021-07-06T16:30:17+0200</time>
      </trkpt>
      <trkpt lat="45.76776" lon="2.95407">
        <ele>1094.287769</ele>
        <time>2021-07-06T16:30:18+0200</time>
      </trkpt>
      <trkpt lat="45.76768" lon="2.95407">
        <ele>1093.607791</ele>
        <time>2021-07-06T16:30:19+0200</time>
      </trkpt>
      <trkpt lat="45.76761" lon="2.95406">
        <ele>1093.506122</ele>
        <time>2021-07-06T16:30:20+0200</time>
      </trkpt>
      <trkpt lat="45.76753" lon="2.95407">
        <ele>1092.685421</ele>
        <time>2021-07-06T16:30:21+0200</time>
      </trkpt>
      <trkpt lat="45.76745" lon="2.95408">
        <ele>1092.012109</ele>
        <time>2021-07-06T16:30:22+0200</time>
      </trkpt>
      <trkpt lat="45.76738" lon="2.95409">
        <ele>1091.894435</ele>
        <time>2021-07-06T16:30:23+0200</time>
      </trkpt>
      <trkpt lat="45.76732" lon="2.9541">
        <ele>1092.966494</ele>
        <time>2021-07-06T16:30:24+0200</time>
      </trkpt>
      <trkpt lat="45.76725" lon="2.95412">
        <ele>1092.99712</ele>
        <time>2021-07-06T16:30:25+0200</time>
      </trkpt>
      <trkpt lat="45.76718" lon="2.95411">
        <ele>1092.518468</ele>
        <time>2021-07-06T16:30:26+0200</time>
      </trkpt>
      <trkpt lat="45.76714" lon="2.95412">
        <ele>1091.700629</ele>
        <time>2021-07-06T16:30:27+0200</time>
      </trkpt>
      <trkpt lat="45.76708" lon="2.95413">
        <ele>1091.042537</ele>
        <time>2021-07-06T16:30:28+0200</time>
      </trkpt>
      <trkpt lat="45.76699" lon="2.95415">
        <ele>1089.964054</ele>
        <time>2021-07-06T16:30:29+0200</time>
      </trkpt>
      <trkpt lat="45.76689" lon="2.95416">
        <ele>1087.061141</ele>
        <time>2021-07-06T16:30:30+0200</time>
      </trkpt>
      <trkpt lat="45.76682" lon="2.95419">
        <ele>1085.635707</ele>
        <time>2021-07-06T16:30:31+0200</time>
      </trkpt>
      <trkpt lat="45.76673" lon="2.95422">
        <ele>1083.469276</ele>
        <time>2021-07-06T16:30:32+0200</time>
      </trkpt>
      <trkpt lat="45.76665" lon="2.95428">
        <ele>1081.154487</ele>
        <time>2021-07-06T16:30:33+0200</time>
      </trkpt>
      <trkpt lat="45.76657" lon="2.95431">
        <ele>1081.064065</ele>
        <time>2021-07-06T16:30:34+0200</time>
      </trkpt>
      <trkpt lat="45.76651" lon="2.95436">
        <ele>1083.048116</ele>
        <time>2021-07-06T16:30:36+0200</time>
      </trkpt>
      <trkpt lat="45.76641" lon="2.9544">
        <ele>1081.85512</ele>
        <time>2021-07-06T16:30:38+0200</time>
      </trkpt>
      <trkpt lat="45.76633" lon="2.95444">
        <ele>1083.755414</ele>
        <time>2021-07-06T16:30:40+0200</time>
      </trkpt>
      <trkpt lat="45.76629" lon="2.95448">
        <ele>1086.380694</ele>
        <time>2021-07-06T16:30:42+0200</time>
      </trkpt>
      <trkpt lat="45.76624" lon="2.95454">
        <ele>1088.621834</ele>
        <time>2021-07-06T16:30:44+0200</time>
      </trkpt>
      <trkpt lat="45.7662" lon="2.95458">
        <ele>1089.161117</ele>
        <time>2021-07-06T16:30:46+0200</time>
      </trkpt>
      <trkpt lat="45.76616" lon="2.95464">
        <ele>1088.949254</ele>
        <time>2021-07-06T16:30:48+0200</time>
      </trkpt>
      <trkpt lat="45.76612" lon="2.9547">
        <ele>1089.109962</ele>
        <time>2021-07-06T16:30:50+0200</time>
      </trkpt>
      <trkpt lat="45.76605" lon="2.95474">
        <ele>1087.796755</ele>
        <time>2021-07-06T16:30:52+0200</time>
      </trkpt>
      <trkpt lat="45.766" lon="2.95477">
        <ele>1086.787648</ele>
        <time>2021-07-06T16:30:53+0200</time>
      </trkpt>
      <trkpt lat="45.76593" lon="2.95481">
        <ele>1090.367342</ele>
        <time>2021-07-06T16:30:55+0200</time>
      </trkpt>
      <trkpt lat="45.76589" lon="2.95483">
        <ele>1092.223553</ele>
        <time>2021-07-06T16:30:57+0200</time>
      </trkpt>
      <trkpt lat="45.76581" lon="2.95484">
        <ele>1091.306845</ele>
        <time>2021-07-06T16:30:59+0200</time>
      </trkpt>
      <trkpt lat="45.76574" lon="2.95489">
        <ele>1088.726561</ele>
        <time>2021-07-06T16:31:00+0200</time>
      </trkpt>
      <trkpt lat="45.76569" lon="2.95494">
        <ele>1086.584704</ele>
        <time>2021-07-06T16:31:01+0200</time>
      </trkpt>
      <trkpt lat="45.76558" lon="2.95497">
        <ele>1082.905181</ele>
        <time>2021-07-06T16:31:03+0200</time>
      </trkpt>
      <trkpt lat="45.76549" lon="2.955">
        <ele>1084.519315</ele>
        <time>2021-07-06T16:31:04+0200</time>
      </trkpt>
      <trkpt lat="45.76541" lon="2.95503">
        <ele>1084.908252</ele>
        <time>2021-07-06T16:31:05+0200</time>
      </trkpt>
      <trkpt lat="45.76534" lon="2.95505">
        <ele>1084.240423</ele>
        <time>2021-07-06T16:31:06+0200</time>
      </trkpt>
      <trkpt lat="45.76527" lon="2.95508">
        <ele>1085.40668</ele>
        <time>2021-07-06T16:31:07+0200</time>
      </trkpt>
      <trkpt lat="45.76523" lon="2.95512">
        <ele>1086.032293</ele>
        <time>2021-07-06T16:31:08+0200</time>
      </trkpt>
      <trkpt lat="45.76514" lon="2.95515">
        <ele>1086.890653</ele>
        <time>2021-07-06T16:31:10+0200</time>
      </trkpt>
      <trkpt lat="45.76509" lon="2.95517">
        <ele>1085.864442</ele>
        <time>2021-07-06T16:31:11+0200</time>
      </trkpt>
      <trkpt lat="45.76502" lon="2.95519">
        <ele>1085.786627</ele>
        <time>2021-07-06T16:31:13+0200</time>
      </trkpt>
      <trkpt lat="45.76495" lon="2.95524">
        <ele>1086.37655</ele>
        <time>2021-07-06T16:31:15+0200</time>
      </trkpt>
      <trkpt lat="45.76488" lon="2.95525">
        <ele>1088.215342</ele>
        <time>2021-07-06T16:31:17+0200</time>
      </trkpt>
      <trkpt lat="45.76483" lon="2.95527">
        <ele>1089.06544</ele>
        <time>2021-07-06T16:31:19+0200</time>
      </trkpt>
      <trkpt lat="45.76476" lon="2.95528">
        <ele>1091.195261</ele>
        <time>2021-07-06T16:31:21+0200</time>
      </trkpt>
      <trkpt lat="45.76472" lon="2.9553">
        <ele>1092.933716</ele>
        <time>2021-07-06T16:31:23+0200</time>
      </trkpt>
      <trkpt lat="45.76467" lon="2.95531">
        <ele>1092.085576</ele>
        <time>2021-07-06T16:31:25+0200</time>
      </trkpt>
      <trkpt lat="45.7646" lon="2.95532">
        <ele>1091.665362</ele>
        <time>2021-07-06T16:31:27+0200</time>
      </trkpt>
      <trkpt lat="45.76455" lon="2.95536">
        <ele>1090.327016</ele>
        <time>2021-07-06T16:31:28+0200</time>
      </trkpt>
      <trkpt lat="45.76448" lon="2.95539">
        <ele>1089.372089</ele>
        <time>2021-07-06T16:31:29+0200</time>
      </trkpt>
      <trkpt lat="45.76442" lon="2.95539">
        <ele>1087.915474</ele>
        <time>2021-07-06T16:31:31+0200</time>
      </trkpt>
      <trkpt lat="45.76436" lon="2.95541">
        <ele>1085.510997</ele>
        <time>2021-07-06T16:31:37+0200</time>
      </trkpt>
      <trkpt lat="45.76429" lon="2.95544">
        <ele>1085.660162</ele>
        <time>2021-07-06T16:31:39+0200</time>
      </trkpt>
      <trkpt lat="45.76424" lon="2.95547">
        <ele>1084.64355</ele>
        <time>2021-07-06T16:31:41+0200</time>
      </trkpt>
      <trkpt lat="45.76417" lon="2.95549">
        <ele>1083.898332</ele>
        <time>2021-07-06T16:31:43+0200</time>
      </trkpt>
      <trkpt lat="45.7641" lon="2.95547">
        <ele>1084.259912</ele>
        <time>2021-07-06T16:31:45+0200</time>
      </trkpt>
      <trkpt lat="45.76405" lon="2.9555">
        <ele>1083.906176</ele>
        <time>2021-07-06T16:31:47+0200</time>
      </trkpt>
      <trkpt lat="45.764" lon="2.95556">
        <ele>1082.979995</ele>
        <time>2021-07-06T16:31:49+0200</time>
      </trkpt>
      <trkpt lat="45.76398" lon="2.95562">
        <ele>1082.708949</ele>
        <time>2021-07-06T16:31:50+0200</time>
      </trkpt>
      <trkpt lat="45.76395" lon="2.95568">
        <ele>1082.115465</ele>
        <time>2021-07-06T16:31:51+0200</time>
      </trkpt>
      <trkpt lat="45.76393" lon="2.95575">
        <ele>1081.494991</ele>
        <time>2021-07-06T16:31:52+0200</time>
      </trkpt>
      <trkpt lat="45.76392" lon="2.95583">
        <ele>1080.97145</ele>
        <time>2021-07-06T16:31:53+0200</time>
      </trkpt>
      <trkpt lat="45.7639" lon="2.95593">
        <ele>1080.093404</ele>
        <time>2021-07-06T16:31:54+0200</time>
      </trkpt>
      <trkpt lat="45.76388" lon="2.95602">
        <ele>1079.209447</ele>
        <time>2021-07-06T16:31:55+0200</time>
      </trkpt>
      <trkpt lat="45.76385" lon="2.95611">
        <ele>1079.353818</ele>
        <time>2021-07-06T16:31:56+0200</time>
      </trkpt>
      <trkpt lat="45.76381" lon="2.9562">
        <ele>1078.963625</ele>
        <time>2021-07-06T16:31:57+0200</time>
      </trkpt>
      <trkpt lat="45.76375" lon="2.95628">
        <ele>1077.861595</ele>
        <time>2021-07-06T16:31:58+0200</time>
      </trkpt>
      <trkpt lat="45.76367" lon="2.95634">
        <ele>1076.737315</ele>
        <time>2021-07-06T16:31:59+0200</time>
      </trkpt>
      <trkpt lat="45.76359" lon="2.9564">
        <ele>1076.071652</ele>
        <time>2021-07-06T16:32:00+0200</time>
      </trkpt>
      <trkpt lat="45.76349" lon="2.95645">
        <ele>1074.945208</ele>
        <time>2021-07-06T16:32:01+0200</time>
      </trkpt>
      <trkpt lat="45.76342" lon="2.95653">
        <ele>1073.74804</ele>
        <time>2021-07-06T16:32:02+0200</time>
      </trkpt>
      <trkpt lat="45.76335" lon="2.95661">
        <ele>1072.764585</ele>
        <time>2021-07-06T16:32:03+0200</time>
      </trkpt>
      <trkpt lat="45.76329" lon="2.95665">
        <ele>1071.577258</ele>
        <time>2021-07-06T16:32:04+0200</time>
      </trkpt>
      <trkpt lat="45.76324" lon="2.95667">
        <ele>1070.385191</ele>
        <time>2021-07-06T16:32:05+0200</time>
      </trkpt>
      <trkpt lat="45.76318" lon="2.95668">
        <ele>1067.393806</ele>
        <time>2021-07-06T16:32:07+0200</time>
      </trkpt>
      <trkpt lat="45.7631" lon="2.95678">
        <ele>1063.753759</ele>
        <time>2021-07-06T16:32:10+0200</time>
      </trkpt>
      <trkpt lat="45.76307" lon="2.95684">
        <ele>1063.593046</ele>
        <time>2021-07-06T16:32:11+0200</time>
      </trkpt>
      <trkpt lat="45.76302" lon="2.95692">
        <ele>1062.986239</ele>
        <time>2021-07-06T16:32:12+0200</time>
      </trkpt>
      <trkpt lat="45.76299" lon="2.95696">
        <ele>1062.307168</ele>
        <time>2021-07-06T16:32:13+0200</time>
      </trkpt>
      <trkpt lat="45.76291" lon="2.95704">
        <ele>1061.482026</ele>
        <time>2021-07-06T16:32:15+0200</time>
      </trkpt>
      <trkpt lat="45.76287" lon="2.95709">
        <ele>1060.814327</ele>
        <time>2021-07-06T16:32:18+0200</time>
      </trkpt>
      <trkpt lat="45.76285" lon="2.95715">
        <ele>1060.015645</ele>
        <time>2021-07-06T16:32:22+0200</time>
      </trkpt>
      <trkpt lat="45.76283" lon="2.95721">
        <ele>1061.036388</ele>
        <time>2021-07-06T16:32:28+0200</time>
      </trkpt>
      <trkpt lat="45.76283" lon="2.95727">
        <ele>1056.651033</ele>
        <time>2021-07-06T16:32:58+0200</time>
      </trkpt>
      <trkpt lat="45.76285" lon="2.95734">
        <ele>1059.772481</ele>
        <time>2021-07-06T16:33:05+0200</time>
      </trkpt>
      <trkpt lat="45.76286" lon="2.95741">
        <ele>1058.592091</ele>
        <time>2021-07-06T16:33:08+0200</time>
      </trkpt>
      <trkpt lat="45.76284" lon="2.95752">
        <ele>1058.242003</ele>
        <time>2021-07-06T16:33:10+0200</time>
      </trkpt>
      <trkpt lat="45.76281" lon="2.95757">
        <ele>1056.055508</ele>
        <time>2021-07-06T16:33:13+0200</time>
      </trkpt>
      <trkpt lat="45.76276" lon="2.95762">
        <ele>1052.190125</ele>
        <time>2021-07-06T16:33:20+0200</time>
      </trkpt>
      <trkpt lat="45.76272" lon="2.95768">
        <ele>1050.862708</ele>
        <time>2021-07-06T16:33:24+0200</time>
      </trkpt>
      <trkpt lat="45.76269" lon="2.95773">
        <ele>1051.533578</ele>
        <time>2021-07-06T16:33:26+0200</time>
      </trkpt>
      <trkpt lat="45.76266" lon="2.95778">
        <ele>1051.209909</ele>
        <time>2021-07-06T16:33:30+0200</time>
      </trkpt>
      <trkpt lat="45.76262" lon="2.95786">
        <ele>1051.115287</ele>
        <time>2021-07-06T16:33:32+0200</time>
      </trkpt>
      <trkpt lat="45.76257" lon="2.95795">
        <ele>1049.41038</ele>
        <time>2021-07-06T16:33:34+0200</time>
      </trkpt>
      <trkpt lat="45.76252" lon="2.95806">
        <ele>1048.113357</ele>
        <time>2021-07-06T16:33:35+0200</time>
      </trkpt>
      <trkpt lat="45.76248" lon="2.95811">
        <ele>1047.056408</ele>
        <time>2021-07-06T16:33:36+0200</time>
      </trkpt>
      <trkpt lat="45.76245" lon="2.95816">
        <ele>1046.266986</ele>
        <time>2021-07-06T16:33:37+0200</time>
      </trkpt>
      <trkpt lat="45.76244" lon="2.95825">
        <ele>1045.255392</ele>
        <time>2021-07-06T16:33:38+0200</time>
      </trkpt>
      <trkpt lat="45.76242" lon="2.95833">
        <ele>1045.211376</ele>
        <time>2021-07-06T16:33:39+0200</time>
      </trkpt>
      <trkpt lat="45.76238" lon="2.9584">
        <ele>1044.120396</ele>
        <time>2021-07-06T16:33:41+0200</time>
      </trkpt>
      <trkpt lat="45.76237" lon="2.9585">
        <ele>1040.979346</ele>
        <time>2021-07-06T16:33:43+0200</time>
      </trkpt>
      <trkpt lat="45.76233" lon="2.95854">
        <ele>1041.845508</ele>
        <time>2021-07-06T16:33:44+0200</time>
      </trkpt>
      <trkpt lat="45.7623" lon="2.95859">
        <ele>1041.467896</ele>
        <time>2021-07-06T16:33:45+0200</time>
      </trkpt>
      <trkpt lat="45.76222" lon="2.95865">
        <ele>1040.114249</ele>
        <time>2021-07-06T16:33:47+0200</time>
      </trkpt>
      <trkpt lat="45.76219" lon="2.95875">
        <ele>1038.198963</ele>
        <time>2021-07-06T16:33:49+0200</time>
      </trkpt>
      <trkpt lat="45.76217" lon="2.95887">
        <ele>1038.404658</ele>
        <time>2021-07-06T16:33:51+0200</time>
      </trkpt>
      <trkpt lat="45.76218" lon="2.95895">
        <ele>1037.965847</ele>
        <time>2021-07-06T16:33:52+0200</time>
      </trkpt>
      <trkpt lat="45.76215" lon="2.95906">
        <ele>1035.094744</ele>
        <time>2021-07-06T16:33:54+0200</time>
      </trkpt>
      <trkpt lat="45.76215" lon="2.95916">
        <ele>1034.541492</ele>
        <time>2021-07-06T16:33:55+0200</time>
      </trkpt>
      <trkpt lat="45.76213" lon="2.95925">
        <ele>1030.625906</ele>
        <time>2021-07-06T16:33:57+0200</time>
      </trkpt>
      <trkpt lat="45.76213" lon="2.95932">
        <ele>1029.057567</ele>
        <time>2021-07-06T16:33:59+0200</time>
      </trkpt>
      <trkpt lat="45.76213" lon="2.95941">
        <ele>1027.551332</ele>
        <time>2021-07-06T16:34:00+0200</time>
      </trkpt>
      <trkpt lat="45.76214" lon="2.95952">
        <ele>1026.415286</ele>
        <time>2021-07-06T16:34:01+0200</time>
      </trkpt>
      <trkpt lat="45.76214" lon="2.95961">
        <ele>1025.319599</ele>
        <time>2021-07-06T16:34:02+0200</time>
      </trkpt>
      <trkpt lat="45.76215" lon="2.95969">
        <ele>1024.524297</ele>
        <time>2021-07-06T16:34:03+0200</time>
      </trkpt>
      <trkpt lat="45.76214" lon="2.9598">
        <ele>1021.232377</ele>
        <time>2021-07-06T16:34:05+0200</time>
      </trkpt>
      <trkpt lat="45.76214" lon="2.9599">
        <ele>1019.610698</ele>
        <time>2021-07-06T16:34:06+0200</time>
      </trkpt>
      <trkpt lat="45.76217" lon="2.95997">
        <ele>1017.78134</ele>
        <time>2021-07-06T16:34:07+0200</time>
      </trkpt>
      <trkpt lat="45.76217" lon="2.96006">
        <ele>1016.263773</ele>
        <time>2021-07-06T16:34:08+0200</time>
      </trkpt>
      <trkpt lat="45.7622" lon="2.96016">
        <ele>1013.872812</ele>
        <time>2021-07-06T16:34:09+0200</time>
      </trkpt>
      <trkpt lat="45.76222" lon="2.96026">
        <ele>1012.243822</ele>
        <time>2021-07-06T16:34:10+0200</time>
      </trkpt>
      <trkpt lat="45.76226" lon="2.96035">
        <ele>1010.652889</ele>
        <time>2021-07-06T16:34:11+0200</time>
      </trkpt>
      <trkpt lat="45.76228" lon="2.96043">
        <ele>1009.26934</ele>
        <time>2021-07-06T16:34:12+0200</time>
      </trkpt>
      <trkpt lat="45.76229" lon="2.96051">
        <ele>1008.996503</ele>
        <time>2021-07-06T16:34:13+0200</time>
      </trkpt>
      <trkpt lat="45.76229" lon="2.96059">
        <ele>1008.287529</ele>
        <time>2021-07-06T16:34:14+0200</time>
      </trkpt>
      <trkpt lat="45.76226" lon="2.96067">
        <ele>1007.110213</ele>
        <time>2021-07-06T16:34:15+0200</time>
      </trkpt>
      <trkpt lat="45.76224" lon="2.96075">
        <ele>1006.148234</ele>
        <time>2021-07-06T16:34:16+0200</time>
      </trkpt>
      <trkpt lat="45.76222" lon="2.96084">
        <ele>1004.756131</ele>
        <time>2021-07-06T16:34:18+0200</time>
      </trkpt>
      <trkpt lat="45.76218" lon="2.96087">
        <ele>1003.947449</ele>
        <time>2021-07-06T16:34:19+0200</time>
      </trkpt>
      <trkpt lat="45.76214" lon="2.96091">
        <ele>1003.527047</ele>
        <time>2021-07-06T16:34:20+0200</time>
      </trkpt>
      <trkpt lat="45.76212" lon="2.96099">
        <ele>1002.970105</ele>
        <time>2021-07-06T16:34:21+0200</time>
      </trkpt>
      <trkpt lat="45.76207" lon="2.96107">
        <ele>1003.000587</ele>
        <time>2021-07-06T16:34:22+0200</time>
      </trkpt>
      <trkpt lat="45.76203" lon="2.96114">
        <ele>1002.523523</ele>
        <time>2021-07-06T16:34:23+0200</time>
      </trkpt>
      <trkpt lat="45.76197" lon="2.96122">
        <ele>1001.808808</ele>
        <time>2021-07-06T16:34:24+0200</time>
      </trkpt>
      <trkpt lat="45.76193" lon="2.96129">
        <ele>1001.217603</ele>
        <time>2021-07-06T16:34:25+0200</time>
      </trkpt>
      <trkpt lat="45.76189" lon="2.96138">
        <ele>1000.284497</ele>
        <time>2021-07-06T16:34:26+0200</time>
      </trkpt>
      <trkpt lat="45.76186" lon="2.96147">
        <ele>998.80039</ele>
        <time>2021-07-06T16:34:27+0200</time>
      </trkpt>
      <trkpt lat="45.76188" lon="2.96157">
        <ele>998.08435</ele>
        <time>2021-07-06T16:34:28+0200</time>
      </trkpt>
      <trkpt lat="45.76187" lon="2.96164">
        <ele>995.996501</ele>
        <time>2021-07-06T16:34:29+0200</time>
      </trkpt>
      <trkpt lat="45.76185" lon="2.96175">
        <ele>994.531372</ele>
        <time>2021-07-06T16:34:30+0200</time>
      </trkpt>
      <trkpt lat="45.76178" lon="2.96188">
        <ele>994.735792</ele>
        <time>2021-07-06T16:34:31+0200</time>
      </trkpt>
      <trkpt lat="45.76175" lon="2.96198">
        <ele>993.522177</ele>
        <time>2021-07-06T16:34:32+0200</time>
      </trkpt>
      <trkpt lat="45.76173" lon="2.96215">
        <ele>992.513703</ele>
        <time>2021-07-06T16:34:33+0200</time>
      </trkpt>
      <trkpt lat="45.76169" lon="2.96231">
        <ele>991.812835</ele>
        <time>2021-07-06T16:34:34+0200</time>
      </trkpt>
      <trkpt lat="45.76164" lon="2.96242">
        <ele>991.056036</ele>
        <time>2021-07-06T16:34:35+0200</time>
      </trkpt>
      <trkpt lat="45.76158" lon="2.96255">
        <ele>990.319129</ele>
        <time>2021-07-06T16:34:36+0200</time>
      </trkpt>
      <trkpt lat="45.76153" lon="2.96267">
        <ele>988.381236</ele>
        <time>2021-07-06T16:34:37+0200</time>
      </trkpt>
      <trkpt lat="45.7615" lon="2.96282">
        <ele>988.066326</ele>
        <time>2021-07-06T16:34:38+0200</time>
      </trkpt>
      <trkpt lat="45.76149" lon="2.96297">
        <ele>986.987152</ele>
        <time>2021-07-06T16:34:39+0200</time>
      </trkpt>
      <trkpt lat="45.76144" lon="2.96307">
        <ele>986.02529</ele>
        <time>2021-07-06T16:34:40+0200</time>
      </trkpt>
      <trkpt lat="45.76138" lon="2.96316">
        <ele>984.232848</ele>
        <time>2021-07-06T16:34:41+0200</time>
      </trkpt>
      <trkpt lat="45.76131" lon="2.96321">
        <ele>982.877368</ele>
        <time>2021-07-06T16:34:42+0200</time>
      </trkpt>
      <trkpt lat="45.76125" lon="2.96331">
        <ele>982.022885</ele>
        <time>2021-07-06T16:34:43+0200</time>
      </trkpt>
      <trkpt lat="45.76121" lon="2.96343">
        <ele>980.371453</ele>
        <time>2021-07-06T16:34:44+0200</time>
      </trkpt>
      <trkpt lat="45.76118" lon="2.96357">
        <ele>979.369519</ele>
        <time>2021-07-06T16:34:45+0200</time>
      </trkpt>
      <trkpt lat="45.76114" lon="2.96372">
        <ele>979.08249</ele>
        <time>2021-07-06T16:34:46+0200</time>
      </trkpt>
      <trkpt lat="45.76108" lon="2.96382">
        <ele>979.139855</ele>
        <time>2021-07-06T16:34:47+0200</time>
      </trkpt>
      <trkpt lat="45.76104" lon="2.9639">
        <ele>978.236883</ele>
        <time>2021-07-06T16:34:48+0200</time>
      </trkpt>
      <trkpt lat="45.761" lon="2.96398">
        <ele>976.662468</ele>
        <time>2021-07-06T16:34:48+0200</time>
      </trkpt>
      <trkpt lat="45.76096" lon="2.96407">
        <ele>975.757715</ele>
        <time>2021-07-06T16:34:49+0200</time>
      </trkpt>
      <trkpt lat="45.76091" lon="2.96414">
        <ele>975.903194</ele>
        <time>2021-07-06T16:34:50+0200</time>
      </trkpt>
      <trkpt lat="45.76083" lon="2.96422">
        <ele>974.661876</ele>
        <time>2021-07-06T16:34:51+0200</time>
      </trkpt>
      <trkpt lat="45.76076" lon="2.96428">
        <ele>974.09939</ele>
        <time>2021-07-06T16:34:52+0200</time>
      </trkpt>
      <trkpt lat="45.76067" lon="2.96436">
        <ele>974.022323</ele>
        <time>2021-07-06T16:34:53+0200</time>
      </trkpt>
      <trkpt lat="45.76061" lon="2.96444">
        <ele>973.675974</ele>
        <time>2021-07-06T16:34:54+0200</time>
      </trkpt>
      <trkpt lat="45.76057" lon="2.96449">
        <ele>973.209797</ele>
        <time>2021-07-06T16:34:55+0200</time>
      </trkpt>
      <trkpt lat="45.76051" lon="2.96456">
        <ele>972.943847</ele>
        <time>2021-07-06T16:34:56+0200</time>
      </trkpt>
      <trkpt lat="45.76043" lon="2.96464">
        <ele>973.062327</ele>
        <time>2021-07-06T16:34:57+0200</time>
      </trkpt>
      <trkpt lat="45.76034" lon="2.96469">
        <ele>972.988683</ele>
        <time>2021-07-06T16:34:58+0200</time>
      </trkpt>
      <trkpt lat="45.76025" lon="2.96472">
        <ele>973.056356</ele>
        <time>2021-07-06T16:34:59+0200</time>
      </trkpt>
      <trkpt lat="45.76017" lon="2.96474">
        <ele>973.762712</ele>
        <time>2021-07-06T16:35:00+0200</time>
      </trkpt>
      <trkpt lat="45.76007" lon="2.96476">
        <ele>974.032949</ele>
        <time>2021-07-06T16:35:01+0200</time>
      </trkpt>
      <trkpt lat="45.75999" lon="2.96476">
        <ele>975.297859</ele>
        <time>2021-07-06T16:35:02+0200</time>
      </trkpt>
      <trkpt lat="45.75994" lon="2.96475">
        <ele>974.274425</ele>
        <time>2021-07-06T16:35:03+0200</time>
      </trkpt>
      <trkpt lat="45.75987" lon="2.96474">
        <ele>974.421846</ele>
        <time>2021-07-06T16:35:04+0200</time>
      </trkpt>
      <trkpt lat="45.75981" lon="2.96475">
        <ele>974.627031</ele>
        <time>2021-07-06T16:35:05+0200</time>
      </trkpt>
      <trkpt lat="45.75976" lon="2.96476">
        <ele>974.789955</ele>
        <time>2021-07-06T16:35:06+0200</time>
      </trkpt>
      <trkpt lat="45.75971" lon="2.96475">
        <ele>975.079994</ele>
        <time>2021-07-06T16:35:08+0200</time>
      </trkpt>
      <trkpt lat="45.75966" lon="2.96479">
        <ele>975.022125</ele>
        <time>2021-07-06T16:35:13+0200</time>
      </trkpt>
      <trkpt lat="45.75962" lon="2.96485">
        <ele>975.589964</ele>
        <time>2021-07-06T16:35:25+0200</time>
      </trkpt>
      <trkpt lat="45.75958" lon="2.96481">
        <ele>979.684398</ele>
        <time>2021-07-06T16:35:32+0200</time>
      </trkpt>
      <trkpt lat="45.75962" lon="2.96475">
        <ele>978.546242</ele>
        <time>2021-07-06T16:35:44+0200</time>
      </trkpt>
      <trkpt lat="45.75956" lon="2.96479">
        <ele>979.433306</ele>
        <time>2021-07-06T16:35:52+0200</time>
      </trkpt>
      <trkpt lat="45.75951" lon="2.96482">
        <ele>980.397224</ele>
        <time>2021-07-06T16:35:55+0200</time>
      </trkpt>
      <trkpt lat="45.75945" lon="2.96486">
        <ele>981.349541</ele>
        <time>2021-07-06T16:35:58+0200</time>
      </trkpt>
      <trkpt lat="45.7594" lon="2.9649">
        <ele>982.133192</ele>
        <time>2021-07-06T16:36:00+0200</time>
      </trkpt>
      <trkpt lat="45.75932" lon="2.96494">
        <ele>980.98118</ele>
        <time>2021-07-06T16:36:03+0200</time>
      </trkpt>
      <trkpt lat="45.75928" lon="2.965">
        <ele>978.440444</ele>
        <time>2021-07-06T16:36:05+0200</time>
      </trkpt>
      <trkpt lat="45.75923" lon="2.96503">
        <ele>977.884285</ele>
        <time>2021-07-06T16:36:07+0200</time>
      </trkpt>
      <trkpt lat="45.75916" lon="2.96503">
        <ele>977.441844</ele>
        <time>2021-07-06T16:36:09+0200</time>
      </trkpt>
      <trkpt lat="45.75907" lon="2.96503">
        <ele>976.904941</ele>
        <time>2021-07-06T16:36:11+0200</time>
      </trkpt>
      <trkpt lat="45.759" lon="2.96504">
        <ele>978.139965</ele>
        <time>2021-07-06T16:36:13+0200</time>
      </trkpt>
      <trkpt lat="45.75891" lon="2.96506">
        <ele>976.791082</ele>
        <time>2021-07-06T16:36:15+0200</time>
      </trkpt>
      <trkpt lat="45.7588" lon="2.96509">
        <ele>977.107131</ele>
        <time>2021-07-06T16:36:17+0200</time>
      </trkpt>
      <trkpt lat="45.75875" lon="2.96512">
        <ele>976.767705</ele>
        <time>2021-07-06T16:36:18+0200</time>
      </trkpt>
      <trkpt lat="45.75866" lon="2.96516">
        <ele>975.800833</ele>
        <time>2021-07-06T16:36:20+0200</time>
      </trkpt>
      <trkpt lat="45.75857" lon="2.96515">
        <ele>977.186501</ele>
        <time>2021-07-06T16:36:22+0200</time>
      </trkpt>
      <trkpt lat="45.75853" lon="2.96515">
        <ele>976.133295</ele>
        <time>2021-07-06T16:36:23+0200</time>
      </trkpt>
      <trkpt lat="45.75848" lon="2.96517">
        <ele>975.640018</ele>
        <time>2021-07-06T16:36:24+0200</time>
      </trkpt>
      <trkpt lat="45.75843" lon="2.96518">
        <ele>975.379648</ele>
        <time>2021-07-06T16:36:25+0200</time>
      </trkpt>
      <trkpt lat="45.75839" lon="2.96521">
        <ele>974.665315</ele>
        <time>2021-07-06T16:36:27+0200</time>
      </trkpt>
      <trkpt lat="45.75832" lon="2.96523">
        <ele>972.607892</ele>
        <time>2021-07-06T16:36:29+0200</time>
      </trkpt>
      <trkpt lat="45.75825" lon="2.96523">
        <ele>972.831922</ele>
        <time>2021-07-06T16:36:31+0200</time>
      </trkpt>
      <trkpt lat="45.75818" lon="2.96524">
        <ele>973.130365</ele>
        <time>2021-07-06T16:36:33+0200</time>
      </trkpt>
      <trkpt lat="45.75811" lon="2.96527">
        <ele>972.665865</ele>
        <time>2021-07-06T16:36:35+0200</time>
      </trkpt>
      <trkpt lat="45.75803" lon="2.96529">
        <ele>973.21207</ele>
        <time>2021-07-06T16:36:37+0200</time>
      </trkpt>
      <trkpt lat="45.75798" lon="2.96531">
        <ele>972.900654</ele>
        <time>2021-07-06T16:36:39+0200</time>
      </trkpt>
      <trkpt lat="45.75792" lon="2.96532">
        <ele>972.323624</ele>
        <time>2021-07-06T16:36:41+0200</time>
      </trkpt>
      <trkpt lat="45.75785" lon="2.96534">
        <ele>973.155374</ele>
        <time>2021-07-06T16:36:43+0200</time>
      </trkpt>
      <trkpt lat="45.75779" lon="2.96539">
        <ele>974.49462</ele>
        <time>2021-07-06T16:36:45+0200</time>
      </trkpt>
      <trkpt lat="45.75773" lon="2.96541">
        <ele>974.986461</ele>
        <time>2021-07-06T16:36:47+0200</time>
      </trkpt>
      <trkpt lat="45.75766" lon="2.96543">
        <ele>974.914308</ele>
        <time>2021-07-06T16:36:49+0200</time>
      </trkpt>
      <trkpt lat="45.75759" lon="2.96546">
        <ele>975.198576</ele>
        <time>2021-07-06T16:36:51+0200</time>
      </trkpt>
      <trkpt lat="45.75752" lon="2.96547">
        <ele>975.828572</ele>
        <time>2021-07-06T16:36:53+0200</time>
      </trkpt>
      <trkpt lat="45.75747" lon="2.96548">
        <ele>975.512056</ele>
        <time>2021-07-06T16:36:54+0200</time>
      </trkpt>
      <trkpt lat="45.7574" lon="2.96548">
        <ele>978.132219</ele>
        <time>2021-07-06T16:36:55+0200</time>
      </trkpt>
      <trkpt lat="45.75734" lon="2.96551">
        <ele>978.596454</ele>
        <time>2021-07-06T16:36:56+0200</time>
      </trkpt>
      <trkpt lat="45.75728" lon="2.96555">
        <ele>978.519243</ele>
        <time>2021-07-06T16:36:58+0200</time>
      </trkpt>
      <trkpt lat="45.7572" lon="2.96558">
        <ele>978.634926</ele>
        <time>2021-07-06T16:37:00+0200</time>
      </trkpt>
      <trkpt lat="45.75716" lon="2.96559">
        <ele>978.687461</ele>
        <time>2021-07-06T16:37:01+0200</time>
      </trkpt>
      <trkpt lat="45.75709" lon="2.96563">
        <ele>979.123926</ele>
        <time>2021-07-06T16:37:03+0200</time>
      </trkpt>
      <trkpt lat="45.757" lon="2.96565">
        <ele>978.211596</ele>
        <time>2021-07-06T16:37:05+0200</time>
      </trkpt>
      <trkpt lat="45.75695" lon="2.96567">
        <ele>978.349636</ele>
        <time>2021-07-06T16:37:06+0200</time>
      </trkpt>
      <trkpt lat="45.75687" lon="2.96571">
        <ele>977.744295</ele>
        <time>2021-07-06T16:37:08+0200</time>
      </trkpt>
      <trkpt lat="45.75683" lon="2.96574">
        <ele>977.352991</ele>
        <time>2021-07-06T16:37:09+0200</time>
      </trkpt>
      <trkpt lat="45.75678" lon="2.96575">
        <ele>977.719694</ele>
        <time>2021-07-06T16:37:10+0200</time>
      </trkpt>
      <trkpt lat="45.75672" lon="2.96578">
        <ele>977.158457</ele>
        <time>2021-07-06T16:37:12+0200</time>
      </trkpt>
      <trkpt lat="45.75664" lon="2.96581">
        <ele>978.60907</ele>
        <time>2021-07-06T16:37:14+0200</time>
      </trkpt>
      <trkpt lat="45.75656" lon="2.96583">
        <ele>978.652959</ele>
        <time>2021-07-06T16:37:16+0200</time>
      </trkpt>
      <trkpt lat="45.75649" lon="2.96587">
        <ele>978.015821</ele>
        <time>2021-07-06T16:37:18+0200</time>
      </trkpt>
      <trkpt lat="45.75644" lon="2.9659">
        <ele>977.262985</ele>
        <time>2021-07-06T16:37:19+0200</time>
      </trkpt>
      <trkpt lat="45.75635" lon="2.96592">
        <ele>977.090925</ele>
        <time>2021-07-06T16:37:21+0200</time>
      </trkpt>
      <trkpt lat="45.75628" lon="2.96596">
        <ele>975.886265</ele>
        <time>2021-07-06T16:37:24+0200</time>
      </trkpt>
      <trkpt lat="45.7562" lon="2.96601">
        <ele>975.773542</ele>
        <time>2021-07-06T16:37:25+0200</time>
      </trkpt>
      <trkpt lat="45.75615" lon="2.96604">
        <ele>974.836021</ele>
        <time>2021-07-06T16:37:26+0200</time>
      </trkpt>
      <trkpt lat="45.75609" lon="2.96607">
        <ele>973.482102</ele>
        <time>2021-07-06T16:37:27+0200</time>
      </trkpt>
      <trkpt lat="45.75604" lon="2.9661">
        <ele>972.831696</ele>
        <time>2021-07-06T16:37:28+0200</time>
      </trkpt>
      <trkpt lat="45.75598" lon="2.96612">
        <ele>972.643313</ele>
        <time>2021-07-06T16:37:29+0200</time>
      </trkpt>
      <trkpt lat="45.75591" lon="2.96615">
        <ele>972.518965</ele>
        <time>2021-07-06T16:37:31+0200</time>
      </trkpt>
      <trkpt lat="45.75587" lon="2.96618">
        <ele>970.141104</ele>
        <time>2021-07-06T16:37:32+0200</time>
      </trkpt>
      <trkpt lat="45.75579" lon="2.96624">
        <ele>969.936393</ele>
        <time>2021-07-06T16:37:34+0200</time>
      </trkpt>
      <trkpt lat="45.75573" lon="2.96626">
        <ele>970.216419</ele>
        <time>2021-07-06T16:37:35+0200</time>
      </trkpt>
      <trkpt lat="45.75569" lon="2.96628">
        <ele>969.856793</ele>
        <time>2021-07-06T16:37:36+0200</time>
      </trkpt>
      <trkpt lat="45.75563" lon="2.96628">
        <ele>970.293201</ele>
        <time>2021-07-06T16:37:37+0200</time>
      </trkpt>
      <trkpt lat="45.75555" lon="2.96629">
        <ele>973.75804</ele>
        <time>2021-07-06T16:37:39+0200</time>
      </trkpt>
      <trkpt lat="45.75549" lon="2.96635">
        <ele>973.916279</ele>
        <time>2021-07-06T16:37:42+0200</time>
      </trkpt>
      <trkpt lat="45.75541" lon="2.96639">
        <ele>973.215559</ele>
        <time>2021-07-06T16:37:44+0200</time>
      </trkpt>
      <trkpt lat="45.75535" lon="2.96639">
        <ele>971.801528</ele>
        <time>2021-07-06T16:37:45+0200</time>
      </trkpt>
      <trkpt lat="45.7553" lon="2.96641">
        <ele>970.320603</ele>
        <time>2021-07-06T16:37:46+0200</time>
      </trkpt>
      <trkpt lat="45.75525" lon="2.96643">
        <ele>969.416316</ele>
        <time>2021-07-06T16:37:47+0200</time>
      </trkpt>
      <trkpt lat="45.75519" lon="2.96647">
        <ele>971.161133</ele>
        <time>2021-07-06T16:37:49+0200</time>
      </trkpt>
      <trkpt lat="45.75515" lon="2.96651">
        <ele>972.193108</ele>
        <time>2021-07-06T16:37:50+0200</time>
      </trkpt>
      <trkpt lat="45.7551" lon="2.96654">
        <ele>972.314717</ele>
        <time>2021-07-06T16:37:51+0200</time>
      </trkpt>
      <trkpt lat="45.75506" lon="2.96657">
        <ele>972.58672</ele>
        <time>2021-07-06T16:37:52+0200</time>
      </trkpt>
      <trkpt lat="45.75497" lon="2.96661">
        <ele>971.472768</ele>
        <time>2021-07-06T16:37:54+0200</time>
      </trkpt>
      <trkpt lat="45.7549" lon="2.96667">
        <ele>969.971849</ele>
        <time>2021-07-06T16:37:56+0200</time>
      </trkpt>
      <trkpt lat="45.75487" lon="2.9667">
        <ele>969.221192</ele>
        <time>2021-07-06T16:37:57+0200</time>
      </trkpt>
      <trkpt lat="45.75481" lon="2.96672">
        <ele>968.945202</ele>
        <time>2021-07-06T16:37:58+0200</time>
      </trkpt>
      <trkpt lat="45.75477" lon="2.96675">
        <ele>969.136264</ele>
        <time>2021-07-06T16:37:59+0200</time>
      </trkpt>
      <trkpt lat="45.75473" lon="2.96677">
        <ele>967.951149</ele>
        <time>2021-07-06T16:38:00+0200</time>
      </trkpt>
      <trkpt lat="45.75467" lon="2.96679">
        <ele>968.827308</ele>
        <time>2021-07-06T16:38:01+0200</time>
      </trkpt>
      <trkpt lat="45.75463" lon="2.96682">
        <ele>969.151411</ele>
        <time>2021-07-06T16:38:02+0200</time>
      </trkpt>
      <trkpt lat="45.75458" lon="2.96685">
        <ele>968.778402</ele>
        <time>2021-07-06T16:38:03+0200</time>
      </trkpt>
      <trkpt lat="45.75453" lon="2.96687">
        <ele>968.922174</ele>
        <time>2021-07-06T16:38:04+0200</time>
      </trkpt>
      <trkpt lat="45.75448" lon="2.96688">
        <ele>969.534077</ele>
        <time>2021-07-06T16:38:05+0200</time>
      </trkpt>
      <trkpt lat="45.75443" lon="2.9669">
        <ele>969.384198</ele>
        <time>2021-07-06T16:38:06+0200</time>
      </trkpt>
      <trkpt lat="45.75439" lon="2.96692">
        <ele>969.31151</ele>
        <time>2021-07-06T16:38:07+0200</time>
      </trkpt>
      <trkpt lat="45.75433" lon="2.96694">
        <ele>968.724356</ele>
        <time>2021-07-06T16:38:08+0200</time>
      </trkpt>
      <trkpt lat="45.75428" lon="2.96697">
        <ele>968.898</ele>
        <time>2021-07-06T16:38:09+0200</time>
      </trkpt>
      <trkpt lat="45.75423" lon="2.96698">
        <ele>966.978493</ele>
        <time>2021-07-06T16:38:10+0200</time>
      </trkpt>
      <trkpt lat="45.75416" lon="2.96701">
        <ele>966.66418</ele>
        <time>2021-07-06T16:38:11+0200</time>
      </trkpt>
      <trkpt lat="45.75407" lon="2.96705">
        <ele>966.825413</ele>
        <time>2021-07-06T16:38:13+0200</time>
      </trkpt>
      <trkpt lat="45.75402" lon="2.96707">
        <ele>966.879771</ele>
        <time>2021-07-06T16:38:14+0200</time>
      </trkpt>
      <trkpt lat="45.75398" lon="2.96709">
        <ele>967.103788</ele>
        <time>2021-07-06T16:38:15+0200</time>
      </trkpt>
      <trkpt lat="45.75393" lon="2.96711">
        <ele>966.898233</ele>
        <time>2021-07-06T16:38:16+0200</time>
      </trkpt>
      <trkpt lat="45.75388" lon="2.96713">
        <ele>967.106997</ele>
        <time>2021-07-06T16:38:17+0200</time>
      </trkpt>
      <trkpt lat="45.75383" lon="2.96714">
        <ele>968.262951</ele>
        <time>2021-07-06T16:38:18+0200</time>
      </trkpt>
      <trkpt lat="45.75375" lon="2.96718">
        <ele>967.481002</ele>
        <time>2021-07-06T16:38:20+0200</time>
      </trkpt>
      <trkpt lat="45.75366" lon="2.96722">
        <ele>966.467718</ele>
        <time>2021-07-06T16:38:22+0200</time>
      </trkpt>
      <trkpt lat="45.7536" lon="2.96722">
        <ele>965.506178</ele>
        <time>2021-07-06T16:38:23+0200</time>
      </trkpt>
      <trkpt lat="45.75353" lon="2.96723">
        <ele>964.633487</ele>
        <time>2021-07-06T16:38:24+0200</time>
      </trkpt>
      <trkpt lat="45.75349" lon="2.96724">
        <ele>965.973932</ele>
        <time>2021-07-06T16:38:25+0200</time>
      </trkpt>
      <trkpt lat="45.75341" lon="2.96725">
        <ele>966.248764</ele>
        <time>2021-07-06T16:38:27+0200</time>
      </trkpt>
      <trkpt lat="45.75332" lon="2.9673">
        <ele>964.70185</ele>
        <time>2021-07-06T16:38:29+0200</time>
      </trkpt>
      <trkpt lat="45.75326" lon="2.96735">
        <ele>964.191753</ele>
        <time>2021-07-06T16:38:31+0200</time>
      </trkpt>
      <trkpt lat="45.75319" lon="2.96739">
        <ele>963.407533</ele>
        <time>2021-07-06T16:38:33+0200</time>
      </trkpt>
      <trkpt lat="45.75312" lon="2.96743">
        <ele>962.391388</ele>
        <time>2021-07-06T16:38:35+0200</time>
      </trkpt>
      <trkpt lat="45.75305" lon="2.96746">
        <ele>961.857419</ele>
        <time>2021-07-06T16:38:37+0200</time>
      </trkpt>
      <trkpt lat="45.75296" lon="2.96749">
        <ele>961.860581</ele>
        <time>2021-07-06T16:38:39+0200</time>
      </trkpt>
      <trkpt lat="45.75293" lon="2.96752">
        <ele>961.731691</ele>
        <time>2021-07-06T16:38:40+0200</time>
      </trkpt>
      <trkpt lat="45.75287" lon="2.96762">
        <ele>961.622034</ele>
        <time>2021-07-06T16:38:42+0200</time>
      </trkpt>
      <trkpt lat="45.75284" lon="2.96772">
        <ele>961.863288</ele>
        <time>2021-07-06T16:38:44+0200</time>
      </trkpt>
      <trkpt lat="45.75279" lon="2.96776">
        <ele>961.316311</ele>
        <time>2021-07-06T16:38:46+0200</time>
      </trkpt>
      <trkpt lat="45.75275" lon="2.9678">
        <ele>959.516916</ele>
        <time>2021-07-06T16:38:51+0200</time>
      </trkpt>
      <trkpt lat="45.75275" lon="2.96789">
        <ele>959.272416</ele>
        <time>2021-07-06T16:38:54+0200</time>
      </trkpt>
      <trkpt lat="45.75274" lon="2.96797">
        <ele>959.204523</ele>
        <time>2021-07-06T16:38:56+0200</time>
      </trkpt>
      <trkpt lat="45.75265" lon="2.96796">
        <ele>957.373024</ele>
        <time>2021-07-06T16:38:58+0200</time>
      </trkpt>
      <trkpt lat="45.7526" lon="2.96794">
        <ele>956.985041</ele>
        <time>2021-07-06T16:38:59+0200</time>
      </trkpt>
      <trkpt lat="45.75255" lon="2.96792">
        <ele>957.135561</ele>
        <time>2021-07-06T16:39:00+0200</time>
      </trkpt>
      <trkpt lat="45.75247" lon="2.96792">
        <ele>957.262266</ele>
        <time>2021-07-06T16:39:01+0200</time>
      </trkpt>
      <trkpt lat="45.7524" lon="2.96793">
        <ele>956.940034</ele>
        <time>2021-07-06T16:39:02+0200</time>
      </trkpt>
      <trkpt lat="45.75233" lon="2.96795">
        <ele>956.64443</ele>
        <time>2021-07-06T16:39:03+0200</time>
      </trkpt>
      <trkpt lat="45.75226" lon="2.96796">
        <ele>956.591455</ele>
        <time>2021-07-06T16:39:04+0200</time>
      </trkpt>
      <trkpt lat="45.75219" lon="2.96797">
        <ele>956.713532</ele>
        <time>2021-07-06T16:39:05+0200</time>
      </trkpt>
      <trkpt lat="45.75213" lon="2.96798">
        <ele>956.752827</ele>
        <time>2021-07-06T16:39:06+0200</time>
      </trkpt>
      <trkpt lat="45.75206" lon="2.96799">
        <ele>956.853892</ele>
        <time>2021-07-06T16:39:07+0200</time>
      </trkpt>
      <trkpt lat="45.752" lon="2.96799">
        <ele>957.323825</ele>
        <time>2021-07-06T16:39:08+0200</time>
      </trkpt>
      <trkpt lat="45.75194" lon="2.96801">
        <ele>957.048237</ele>
        <time>2021-07-06T16:39:09+0200</time>
      </trkpt>
      <trkpt lat="45.75189" lon="2.96801">
        <ele>957.421038</ele>
        <time>2021-07-06T16:39:10+0200</time>
      </trkpt>
      <trkpt lat="45.75183" lon="2.96803">
        <ele>957.085503</ele>
        <time>2021-07-06T16:39:11+0200</time>
      </trkpt>
      <trkpt lat="45.75177" lon="2.96804">
        <ele>957.41021</ele>
        <time>2021-07-06T16:39:12+0200</time>
      </trkpt>
      <trkpt lat="45.75172" lon="2.96806">
        <ele>957.291684</ele>
        <time>2021-07-06T16:39:13+0200</time>
      </trkpt>
      <trkpt lat="45.75166" lon="2.96807">
        <ele>957.32335</ele>
        <time>2021-07-06T16:39:14+0200</time>
      </trkpt>
      <trkpt lat="45.75161" lon="2.96808">
        <ele>957.626183</ele>
        <time>2021-07-06T16:39:15+0200</time>
      </trkpt>
      <trkpt lat="45.75156" lon="2.96809">
        <ele>957.884691</ele>
        <time>2021-07-06T16:39:16+0200</time>
      </trkpt>
      <trkpt lat="45.7515" lon="2.96809">
        <ele>957.661558</ele>
        <time>2021-07-06T16:39:17+0200</time>
      </trkpt>
      <trkpt lat="45.75145" lon="2.9681">
        <ele>958.175808</ele>
        <time>2021-07-06T16:39:18+0200</time>
      </trkpt>
      <trkpt lat="45.7514" lon="2.96813">
        <ele>957.892852</ele>
        <time>2021-07-06T16:39:19+0200</time>
      </trkpt>
      <trkpt lat="45.75134" lon="2.96813">
        <ele>958.056099</ele>
        <time>2021-07-06T16:39:20+0200</time>
      </trkpt>
      <trkpt lat="45.75128" lon="2.96813">
        <ele>958.054303</ele>
        <time>2021-07-06T16:39:21+0200</time>
      </trkpt>
      <trkpt lat="45.75124" lon="2.96814">
        <ele>958.852653</ele>
        <time>2021-07-06T16:39:22+0200</time>
      </trkpt>
      <trkpt lat="45.75118" lon="2.96818">
        <ele>958.823271</ele>
        <time>2021-07-06T16:39:23+0200</time>
      </trkpt>
      <trkpt lat="45.75112" lon="2.96819">
        <ele>957.889407</ele>
        <time>2021-07-06T16:39:24+0200</time>
      </trkpt>
      <trkpt lat="45.75106" lon="2.96821">
        <ele>957.315971</ele>
        <time>2021-07-06T16:39:25+0200</time>
      </trkpt>
      <trkpt lat="45.75101" lon="2.96823">
        <ele>957.476785</ele>
        <time>2021-07-06T16:39:26+0200</time>
      </trkpt>
      <trkpt lat="45.75095" lon="2.96825">
        <ele>956.964623</ele>
        <time>2021-07-06T16:39:27+0200</time>
      </trkpt>
      <trkpt lat="45.7509" lon="2.96826">
        <ele>956.515269</ele>
        <time>2021-07-06T16:39:28+0200</time>
      </trkpt>
      <trkpt lat="45.75084" lon="2.96827">
        <ele>956.417627</ele>
        <time>2021-07-06T16:39:29+0200</time>
      </trkpt>
      <trkpt lat="45.7508" lon="2.96829">
        <ele>956.573818</ele>
        <time>2021-07-06T16:39:30+0200</time>
      </trkpt>
      <trkpt lat="45.75075" lon="2.9683">
        <ele>957.268665</ele>
        <time>2021-07-06T16:39:31+0200</time>
      </trkpt>
      <trkpt lat="45.7507" lon="2.96831">
        <ele>958.047017</ele>
        <time>2021-07-06T16:39:32+0200</time>
      </trkpt>
      <trkpt lat="45.7506" lon="2.96831">
        <ele>957.871935</ele>
        <time>2021-07-06T16:39:34+0200</time>
      </trkpt>
      <trkpt lat="45.75051" lon="2.96834">
        <ele>957.858131</ele>
        <time>2021-07-06T16:39:36+0200</time>
      </trkpt>
      <trkpt lat="45.75045" lon="2.96836">
        <ele>958.709824</ele>
        <time>2021-07-06T16:39:37+0200</time>
      </trkpt>
      <trkpt lat="45.75039" lon="2.96838">
        <ele>957.178267</ele>
        <time>2021-07-06T16:39:38+0200</time>
      </trkpt>
      <trkpt lat="45.75033" lon="2.96841">
        <ele>956.440708</ele>
        <time>2021-07-06T16:39:39+0200</time>
      </trkpt>
      <trkpt lat="45.75028" lon="2.96842">
        <ele>955.978521</ele>
        <time>2021-07-06T16:39:40+0200</time>
      </trkpt>
      <trkpt lat="45.75022" lon="2.96844">
        <ele>956.589843</ele>
        <time>2021-07-06T16:39:41+0200</time>
      </trkpt>
      <trkpt lat="45.75017" lon="2.96846">
        <ele>955.733211</ele>
        <time>2021-07-06T16:39:42+0200</time>
      </trkpt>
      <trkpt lat="45.75011" lon="2.96847">
        <ele>955.681616</ele>
        <time>2021-07-06T16:39:43+0200</time>
      </trkpt>
      <trkpt lat="45.75006" lon="2.96849">
        <ele>955.125406</ele>
        <time>2021-07-06T16:39:44+0200</time>
      </trkpt>
      <trkpt lat="45.75001" lon="2.9685">
        <ele>955.55177</ele>
        <time>2021-07-06T16:39:45+0200</time>
      </trkpt>
      <trkpt lat="45.74996" lon="2.96852">
        <ele>955.789343</ele>
        <time>2021-07-06T16:39:46+0200</time>
      </trkpt>
      <trkpt lat="45.74991" lon="2.96854">
        <ele>956.00415</ele>
        <time>2021-07-06T16:39:47+0200</time>
      </trkpt>
      <trkpt lat="45.74986" lon="2.96856">
        <ele>955.515531</ele>
        <time>2021-07-06T16:39:48+0200</time>
      </trkpt>
      <trkpt lat="45.74981" lon="2.96857">
        <ele>955.408603</ele>
        <time>2021-07-06T16:39:49+0200</time>
      </trkpt>
      <trkpt lat="45.74976" lon="2.96858">
        <ele>955.194764</ele>
        <time>2021-07-06T16:39:50+0200</time>
      </trkpt>
      <trkpt lat="45.74971" lon="2.96859">
        <ele>954.755902</ele>
        <time>2021-07-06T16:39:51+0200</time>
      </trkpt>
      <trkpt lat="45.74965" lon="2.96859">
        <ele>954.234478</ele>
        <time>2021-07-06T16:39:52+0200</time>
      </trkpt>
      <trkpt lat="45.7496" lon="2.9686">
        <ele>954.209614</ele>
        <time>2021-07-06T16:39:53+0200</time>
      </trkpt>
      <trkpt lat="45.74955" lon="2.96861">
        <ele>953.843879</ele>
        <time>2021-07-06T16:39:54+0200</time>
      </trkpt>
      <trkpt lat="45.7495" lon="2.96862">
        <ele>953.7772</ele>
        <time>2021-07-06T16:39:55+0200</time>
      </trkpt>
      <trkpt lat="45.74945" lon="2.96863">
        <ele>953.685142</ele>
        <time>2021-07-06T16:39:56+0200</time>
      </trkpt>
      <trkpt lat="45.74937" lon="2.96868">
        <ele>954.842345</ele>
        <time>2021-07-06T16:39:58+0200</time>
      </trkpt>
      <trkpt lat="45.74929" lon="2.96872">
        <ele>955.812654</ele>
        <time>2021-07-06T16:40:00+0200</time>
      </trkpt>
      <trkpt lat="45.74924" lon="2.96874">
        <ele>956.509871</ele>
        <time>2021-07-06T16:40:01+0200</time>
      </trkpt>
      <trkpt lat="45.74915" lon="2.96875">
        <ele>956.978445</ele>
        <time>2021-07-06T16:40:03+0200</time>
      </trkpt>
      <trkpt lat="45.74906" lon="2.96878">
        <ele>957.460439</ele>
        <time>2021-07-06T16:40:05+0200</time>
      </trkpt>
      <trkpt lat="45.74902" lon="2.96879">
        <ele>957.708959</ele>
        <time>2021-07-06T16:40:06+0200</time>
      </trkpt>
      <trkpt lat="45.74897" lon="2.96881">
        <ele>958.770575</ele>
        <time>2021-07-06T16:40:07+0200</time>
      </trkpt>
      <trkpt lat="45.74891" lon="2.96883">
        <ele>958.993021</ele>
        <time>2021-07-06T16:40:08+0200</time>
      </trkpt>
      <trkpt lat="45.74886" lon="2.96885">
        <ele>958.813863</ele>
        <time>2021-07-06T16:40:09+0200</time>
      </trkpt>
      <trkpt lat="45.74881" lon="2.96886">
        <ele>958.366939</ele>
        <time>2021-07-06T16:40:10+0200</time>
      </trkpt>
      <trkpt lat="45.74877" lon="2.96887">
        <ele>958.207993</ele>
        <time>2021-07-06T16:40:11+0200</time>
      </trkpt>
      <trkpt lat="45.74872" lon="2.96888">
        <ele>958.109855</ele>
        <time>2021-07-06T16:40:12+0200</time>
      </trkpt>
      <trkpt lat="45.74867" lon="2.96889">
        <ele>958.251562</ele>
        <time>2021-07-06T16:40:12+0200</time>
      </trkpt>
      <trkpt lat="45.74862" lon="2.96888">
        <ele>960.635069</ele>
        <time>2021-07-06T16:40:13+0200</time>
      </trkpt>
      <trkpt lat="45.74857" lon="2.96891">
        <ele>960.099683</ele>
        <time>2021-07-06T16:40:14+0200</time>
      </trkpt>
      <trkpt lat="45.74852" lon="2.96893">
        <ele>960.062124</ele>
        <time>2021-07-06T16:40:15+0200</time>
      </trkpt>
      <trkpt lat="45.74843" lon="2.96897">
        <ele>960.576734</ele>
        <time>2021-07-06T16:40:17+0200</time>
      </trkpt>
      <trkpt lat="45.74838" lon="2.96899">
        <ele>960.714366</ele>
        <time>2021-07-06T16:40:18+0200</time>
      </trkpt>
      <trkpt lat="45.74833" lon="2.96902">
        <ele>960.495606</ele>
        <time>2021-07-06T16:40:19+0200</time>
      </trkpt>
      <trkpt lat="45.74823" lon="2.96906">
        <ele>960.490467</ele>
        <time>2021-07-06T16:40:21+0200</time>
      </trkpt>
      <trkpt lat="45.74819" lon="2.96908">
        <ele>960.472136</ele>
        <time>2021-07-06T16:40:22+0200</time>
      </trkpt>
      <trkpt lat="45.74814" lon="2.96911">
        <ele>958.930098</ele>
        <time>2021-07-06T16:40:23+0200</time>
      </trkpt>
      <trkpt lat="45.74808" lon="2.96913">
        <ele>956.707946</ele>
        <time>2021-07-06T16:40:24+0200</time>
      </trkpt>
      <trkpt lat="45.748" lon="2.96918">
        <ele>956.093155</ele>
        <time>2021-07-06T16:40:26+0200</time>
      </trkpt>
      <trkpt lat="45.74795" lon="2.9692">
        <ele>955.350764</ele>
        <time>2021-07-06T16:40:27+0200</time>
      </trkpt>
      <trkpt lat="45.74791" lon="2.96925">
        <ele>954.217542</ele>
        <time>2021-07-06T16:40:28+0200</time>
      </trkpt>
      <trkpt lat="45.74786" lon="2.96928">
        <ele>954.297757</ele>
        <time>2021-07-06T16:40:29+0200</time>
      </trkpt>
      <trkpt lat="45.7478" lon="2.96928">
        <ele>954.064828</ele>
        <time>2021-07-06T16:40:30+0200</time>
      </trkpt>
      <trkpt lat="45.74775" lon="2.9693">
        <ele>954.378764</ele>
        <time>2021-07-06T16:40:31+0200</time>
      </trkpt>
      <trkpt lat="45.7477" lon="2.96932">
        <ele>954.136198</ele>
        <time>2021-07-06T16:40:32+0200</time>
      </trkpt>
      <trkpt lat="45.74765" lon="2.96934">
        <ele>954.142863</ele>
        <time>2021-07-06T16:40:33+0200</time>
      </trkpt>
      <trkpt lat="45.7476" lon="2.96938">
        <ele>953.867188</ele>
        <time>2021-07-06T16:40:34+0200</time>
      </trkpt>
      <trkpt lat="45.74755" lon="2.96939">
        <ele>953.573076</ele>
        <time>2021-07-06T16:40:35+0200</time>
      </trkpt>
      <trkpt lat="45.74751" lon="2.96941">
        <ele>953.801698</ele>
        <time>2021-07-06T16:40:36+0200</time>
      </trkpt>
      <trkpt lat="45.74743" lon="2.96945">
        <ele>954.144338</ele>
        <time>2021-07-06T16:40:38+0200</time>
      </trkpt>
      <trkpt lat="45.74735" lon="2.9695">
        <ele>955.02194</ele>
        <time>2021-07-06T16:40:40+0200</time>
      </trkpt>
      <trkpt lat="45.74727" lon="2.96953">
        <ele>955.600947</ele>
        <time>2021-07-06T16:40:42+0200</time>
      </trkpt>
      <trkpt lat="45.7472" lon="2.96957">
        <ele>955.642831</ele>
        <time>2021-07-06T16:40:44+0200</time>
      </trkpt>
      <trkpt lat="45.74712" lon="2.96962">
        <ele>955.800685</ele>
        <time>2021-07-06T16:40:46+0200</time>
      </trkpt>
      <trkpt lat="45.74705" lon="2.96965">
        <ele>956.990602</ele>
        <time>2021-07-06T16:40:48+0200</time>
      </trkpt>
      <trkpt lat="45.74698" lon="2.9697">
        <ele>957.20424</ele>
        <time>2021-07-06T16:40:50+0200</time>
      </trkpt>
      <trkpt lat="45.74693" lon="2.96973">
        <ele>957.348864</ele>
        <time>2021-07-06T16:40:52+0200</time>
      </trkpt>
      <trkpt lat="45.74686" lon="2.96975">
        <ele>956.712023</ele>
        <time>2021-07-06T16:40:54+0200</time>
      </trkpt>
      <trkpt lat="45.74681" lon="2.96978">
        <ele>956.434324</ele>
        <time>2021-07-06T16:40:56+0200</time>
      </trkpt>
      <trkpt lat="45.74674" lon="2.9698">
        <ele>956.212055</ele>
        <time>2021-07-06T16:40:58+0200</time>
      </trkpt>
      <trkpt lat="45.74669" lon="2.96983">
        <ele>956.308223</ele>
        <time>2021-07-06T16:40:59+0200</time>
      </trkpt>
      <trkpt lat="45.74661" lon="2.96987">
        <ele>956.496892</ele>
        <time>2021-07-06T16:41:01+0200</time>
      </trkpt>
      <trkpt lat="45.74655" lon="2.9699">
        <ele>956.863396</ele>
        <time>2021-07-06T16:41:03+0200</time>
      </trkpt>
      <trkpt lat="45.74649" lon="2.96993">
        <ele>956.774077</ele>
        <time>2021-07-06T16:41:05+0200</time>
      </trkpt>
      <trkpt lat="45.74644" lon="2.96996">
        <ele>956.83493</ele>
        <time>2021-07-06T16:41:06+0200</time>
      </trkpt>
      <trkpt lat="45.74638" lon="2.96999">
        <ele>957.278614</ele>
        <time>2021-07-06T16:41:08+0200</time>
      </trkpt>
      <trkpt lat="45.74632" lon="2.97004">
        <ele>957.841367</ele>
        <time>2021-07-06T16:41:10+0200</time>
      </trkpt>
      <trkpt lat="45.74624" lon="2.97008">
        <ele>957.810327</ele>
        <time>2021-07-06T16:41:12+0200</time>
      </trkpt>
      <trkpt lat="45.74617" lon="2.9701">
        <ele>957.189444</ele>
        <time>2021-07-06T16:41:14+0200</time>
      </trkpt>
      <trkpt lat="45.74609" lon="2.9701">
        <ele>957.470645</ele>
        <time>2021-07-06T16:41:16+0200</time>
      </trkpt>
      <trkpt lat="45.74603" lon="2.9701">
        <ele>958.326165</ele>
        <time>2021-07-06T16:41:18+0200</time>
      </trkpt>
      <trkpt lat="45.74597" lon="2.97009">
        <ele>958.166983</ele>
        <time>2021-07-06T16:41:20+0200</time>
      </trkpt>
      <trkpt lat="45.74591" lon="2.97008">
        <ele>958.338402</ele>
        <time>2021-07-06T16:41:22+0200</time>
      </trkpt>
      <trkpt lat="45.74586" lon="2.97007">
        <ele>958.300003</ele>
        <time>2021-07-06T16:41:24+0200</time>
      </trkpt>
      <trkpt lat="45.7458" lon="2.97005">
        <ele>958.609287</ele>
        <time>2021-07-06T16:41:26+0200</time>
      </trkpt>
      <trkpt lat="45.74574" lon="2.97004">
        <ele>958.661847</ele>
        <time>2021-07-06T16:41:28+0200</time>
      </trkpt>
      <trkpt lat="45.74567" lon="2.97002">
        <ele>959.35132</ele>
        <time>2021-07-06T16:41:31+0200</time>
      </trkpt>
      <trkpt lat="45.74561" lon="2.97001">
        <ele>959.816571</ele>
        <time>2021-07-06T16:41:33+0200</time>
      </trkpt>
      <trkpt lat="45.74555" lon="2.97">
        <ele>959.768809</ele>
        <time>2021-07-06T16:41:35+0200</time>
      </trkpt>
      <trkpt lat="45.74549" lon="2.96998">
        <ele>960.608772</ele>
        <time>2021-07-06T16:41:37+0200</time>
      </trkpt>
      <trkpt lat="45.74545" lon="2.96996">
        <ele>960.383502</ele>
        <time>2021-07-06T16:41:39+0200</time>
      </trkpt>
      <trkpt lat="45.74539" lon="2.96995">
        <ele>960.809414</ele>
        <time>2021-07-06T16:41:41+0200</time>
      </trkpt>
      <trkpt lat="45.74533" lon="2.96994">
        <ele>962.036492</ele>
        <time>2021-07-06T16:41:44+0200</time>
      </trkpt>
      <trkpt lat="45.74528" lon="2.96996">
        <ele>962.955011</ele>
        <time>2021-07-06T16:41:46+0200</time>
      </trkpt>
      <trkpt lat="45.74523" lon="2.96995">
        <ele>963.418163</ele>
        <time>2021-07-06T16:41:48+0200</time>
      </trkpt>
      <trkpt lat="45.74518" lon="2.96992">
        <ele>963.37308</ele>
        <time>2021-07-06T16:41:50+0200</time>
      </trkpt>
      <trkpt lat="45.74512" lon="2.96989">
        <ele>963.222405</ele>
        <time>2021-07-06T16:41:52+0200</time>
      </trkpt>
      <trkpt lat="45.74507" lon="2.96986">
        <ele>963.578775</ele>
        <time>2021-07-06T16:41:55+0200</time>
      </trkpt>
      <trkpt lat="45.74502" lon="2.96983">
        <ele>963.822679</ele>
        <time>2021-07-06T16:41:57+0200</time>
      </trkpt>
      <trkpt lat="45.74496" lon="2.96982">
        <ele>963.57954</ele>
        <time>2021-07-06T16:41:59+0200</time>
      </trkpt>
      <trkpt lat="45.74491" lon="2.96979">
        <ele>963.786938</ele>
        <time>2021-07-06T16:42:00+0200</time>
      </trkpt>
      <trkpt lat="45.74486" lon="2.96976">
        <ele>964.058172</ele>
        <time>2021-07-06T16:42:02+0200</time>
      </trkpt>
      <trkpt lat="45.7448" lon="2.96973">
        <ele>965.627415</ele>
        <time>2021-07-06T16:42:04+0200</time>
      </trkpt>
      <trkpt lat="45.74474" lon="2.96972">
        <ele>966.549497</ele>
        <time>2021-07-06T16:42:08+0200</time>
      </trkpt>
      <trkpt lat="45.74469" lon="2.96971">
        <ele>967.732302</ele>
        <time>2021-07-06T16:42:10+0200</time>
      </trkpt>
      <trkpt lat="45.74465" lon="2.96968">
        <ele>969.076029</ele>
        <time>2021-07-06T16:42:12+0200</time>
      </trkpt>
      <trkpt lat="45.7446" lon="2.96966">
        <ele>969.753651</ele>
        <time>2021-07-06T16:42:14+0200</time>
      </trkpt>
      <trkpt lat="45.74453" lon="2.96963">
        <ele>970.484898</ele>
        <time>2021-07-06T16:42:16+0200</time>
      </trkpt>
      <trkpt lat="45.74447" lon="2.9696">
        <ele>970.470544</ele>
        <time>2021-07-06T16:42:18+0200</time>
      </trkpt>
      <trkpt lat="45.74439" lon="2.96958">
        <ele>968.846329</ele>
        <time>2021-07-06T16:42:20+0200</time>
      </trkpt>
      <trkpt lat="45.74432" lon="2.96956">
        <ele>966.614544</ele>
        <time>2021-07-06T16:42:22+0200</time>
      </trkpt>
      <trkpt lat="45.74425" lon="2.96954">
        <ele>965.707412</ele>
        <time>2021-07-06T16:42:24+0200</time>
      </trkpt>
      <trkpt lat="45.7442" lon="2.9695">
        <ele>967.325961</ele>
        <time>2021-07-06T16:42:26+0200</time>
      </trkpt>
      <trkpt lat="45.74413" lon="2.96947">
        <ele>967.829396</ele>
        <time>2021-07-06T16:42:28+0200</time>
      </trkpt>
      <trkpt lat="45.74408" lon="2.96943">
        <ele>966.773475</ele>
        <time>2021-07-06T16:42:30+0200</time>
      </trkpt>
      <trkpt lat="45.74402" lon="2.96939">
        <ele>966.597456</ele>
        <time>2021-07-06T16:42:32+0200</time>
      </trkpt>
      <trkpt lat="45.74397" lon="2.96937">
        <ele>966.42631</ele>
        <time>2021-07-06T16:42:34+0200</time>
      </trkpt>
      <trkpt lat="45.74391" lon="2.96932">
        <ele>967.070616</ele>
        <time>2021-07-06T16:42:36+0200</time>
      </trkpt>
      <trkpt lat="45.74385" lon="2.96929">
        <ele>967.369247</ele>
        <time>2021-07-06T16:42:38+0200</time>
      </trkpt>
      <trkpt lat="45.74378" lon="2.96926">
        <ele>967.872088</ele>
        <time>2021-07-06T16:42:40+0200</time>
      </trkpt>
      <trkpt lat="45.74372" lon="2.96925">
        <ele>968.156565</ele>
        <time>2021-07-06T16:42:42+0200</time>
      </trkpt>
      <trkpt lat="45.74365" lon="2.96922">
        <ele>968.795145</ele>
        <time>2021-07-06T16:42:44+0200</time>
      </trkpt>
      <trkpt lat="45.74358" lon="2.96921">
        <ele>968.914731</ele>
        <time>2021-07-06T16:42:46+0200</time>
      </trkpt>
      <trkpt lat="45.74351" lon="2.96919">
        <ele>969.64202</ele>
        <time>2021-07-06T16:42:48+0200</time>
      </trkpt>
      <trkpt lat="45.74344" lon="2.96917">
        <ele>969.526554</ele>
        <time>2021-07-06T16:42:50+0200</time>
      </trkpt>
      <trkpt lat="45.74337" lon="2.96915">
        <ele>969.181824</ele>
        <time>2021-07-06T16:42:52+0200</time>
      </trkpt>
      <trkpt lat="45.7433" lon="2.96912">
        <ele>969.47963</ele>
        <time>2021-07-06T16:42:54+0200</time>
      </trkpt>
      <trkpt lat="45.74324" lon="2.96909">
        <ele>970.137988</ele>
        <time>2021-07-06T16:42:56+0200</time>
      </trkpt>
      <trkpt lat="45.74317" lon="2.96905">
        <ele>970.016335</ele>
        <time>2021-07-06T16:42:58+0200</time>
      </trkpt>
      <trkpt lat="45.74308" lon="2.96902">
        <ele>971.308842</ele>
        <time>2021-07-06T16:43:00+0200</time>
      </trkpt>
      <trkpt lat="45.74302" lon="2.969">
        <ele>972.435492</ele>
        <time>2021-07-06T16:43:02+0200</time>
      </trkpt>
      <trkpt lat="45.74297" lon="2.96898">
        <ele>973.295609</ele>
        <time>2021-07-06T16:43:03+0200</time>
      </trkpt>
      <trkpt lat="45.74292" lon="2.96892">
        <ele>972.571606</ele>
        <time>2021-07-06T16:43:05+0200</time>
      </trkpt>
      <trkpt lat="45.74286" lon="2.96885">
        <ele>972.474913</ele>
        <time>2021-07-06T16:43:07+0200</time>
      </trkpt>
      <trkpt lat="45.7428" lon="2.9688">
        <ele>972.174832</ele>
        <time>2021-07-06T16:43:09+0200</time>
      </trkpt>
      <trkpt lat="45.74274" lon="2.96875">
        <ele>972.407196</ele>
        <time>2021-07-06T16:43:11+0200</time>
      </trkpt>
      <trkpt lat="45.74269" lon="2.96871">
        <ele>972.82948</ele>
        <time>2021-07-06T16:43:13+0200</time>
      </trkpt>
      <trkpt lat="45.74264" lon="2.96866">
        <ele>972.556498</ele>
        <time>2021-07-06T16:43:15+0200</time>
      </trkpt>
      <trkpt lat="45.74259" lon="2.96861">
        <ele>972.438389</ele>
        <time>2021-07-06T16:43:17+0200</time>
      </trkpt>
      <trkpt lat="45.74253" lon="2.96854">
        <ele>972.270338</ele>
        <time>2021-07-06T16:43:19+0200</time>
      </trkpt>
      <trkpt lat="45.74246" lon="2.96849">
        <ele>972.977169</ele>
        <time>2021-07-06T16:43:21+0200</time>
      </trkpt>
      <trkpt lat="45.7424" lon="2.96843">
        <ele>973.195229</ele>
        <time>2021-07-06T16:43:23+0200</time>
      </trkpt>
      <trkpt lat="45.74234" lon="2.96839">
        <ele>973.362768</ele>
        <time>2021-07-06T16:43:25+0200</time>
      </trkpt>
      <trkpt lat="45.74227" lon="2.96833">
        <ele>973.232113</ele>
        <time>2021-07-06T16:43:27+0200</time>
      </trkpt>
      <trkpt lat="45.74221" lon="2.96827">
        <ele>973.264548</ele>
        <time>2021-07-06T16:43:29+0200</time>
      </trkpt>
      <trkpt lat="45.74215" lon="2.96821">
        <ele>973.02909</ele>
        <time>2021-07-06T16:43:31+0200</time>
      </trkpt>
      <trkpt lat="45.74209" lon="2.96816">
        <ele>972.973292</ele>
        <time>2021-07-06T16:43:33+0200</time>
      </trkpt>
      <trkpt lat="45.74203" lon="2.9681">
        <ele>973.21298</ele>
        <time>2021-07-06T16:43:35+0200</time>
      </trkpt>
      <trkpt lat="45.74197" lon="2.96804">
        <ele>973.355612</ele>
        <time>2021-07-06T16:43:37+0200</time>
      </trkpt>
      <trkpt lat="45.74192" lon="2.96799">
        <ele>973.863846</ele>
        <time>2021-07-06T16:43:39+0200</time>
      </trkpt>
      <trkpt lat="45.74185" lon="2.96795">
        <ele>973.816544</ele>
        <time>2021-07-06T16:43:41+0200</time>
      </trkpt>
      <trkpt lat="45.74179" lon="2.96791">
        <ele>974.433913</ele>
        <time>2021-07-06T16:43:43+0200</time>
      </trkpt>
      <trkpt lat="45.74172" lon="2.96786">
        <ele>975.053418</ele>
        <time>2021-07-06T16:43:45+0200</time>
      </trkpt>
      <trkpt lat="45.74165" lon="2.96783">
        <ele>976.363264</ele>
        <time>2021-07-06T16:43:47+0200</time>
      </trkpt>
      <trkpt lat="45.74158" lon="2.96782">
        <ele>978.887104</ele>
        <time>2021-07-06T16:43:49+0200</time>
      </trkpt>
      <trkpt lat="45.7415" lon="2.96781">
        <ele>979.31487</ele>
        <time>2021-07-06T16:43:51+0200</time>
      </trkpt>
      <trkpt lat="45.74144" lon="2.96777">
        <ele>977.701887</ele>
        <time>2021-07-06T16:43:53+0200</time>
      </trkpt>
      <trkpt lat="45.7414" lon="2.96768">
        <ele>975.850079</ele>
        <time>2021-07-06T16:43:55+0200</time>
      </trkpt>
      <trkpt lat="45.74137" lon="2.96762">
        <ele>975.964832</ele>
        <time>2021-07-06T16:43:57+0200</time>
      </trkpt>
      <trkpt lat="45.74135" lon="2.96752">
        <ele>976.912103</ele>
        <time>2021-07-06T16:43:59+0200</time>
      </trkpt>
      <trkpt lat="45.74131" lon="2.96744">
        <ele>977.877736</ele>
        <time>2021-07-06T16:44:01+0200</time>
      </trkpt>
      <trkpt lat="45.74128" lon="2.96736">
        <ele>977.554426</ele>
        <time>2021-07-06T16:44:03+0200</time>
      </trkpt>
      <trkpt lat="45.74125" lon="2.96727">
        <ele>978.255819</ele>
        <time>2021-07-06T16:44:05+0200</time>
      </trkpt>
      <trkpt lat="45.74122" lon="2.9672">
        <ele>979.541469</ele>
        <time>2021-07-06T16:44:07+0200</time>
      </trkpt>
      <trkpt lat="45.74118" lon="2.96713">
        <ele>979.928798</ele>
        <time>2021-07-06T16:44:09+0200</time>
      </trkpt>
      <trkpt lat="45.74115" lon="2.96705">
        <ele>980.93512</ele>
        <time>2021-07-06T16:44:11+0200</time>
      </trkpt>
      <trkpt lat="45.74111" lon="2.967">
        <ele>982.346769</ele>
        <time>2021-07-06T16:44:13+0200</time>
      </trkpt>
      <trkpt lat="45.74107" lon="2.96693">
        <ele>983.621978</ele>
        <time>2021-07-06T16:44:15+0200</time>
      </trkpt>
      <trkpt lat="45.74104" lon="2.96684">
        <ele>982.535461</ele>
        <time>2021-07-06T16:44:17+0200</time>
      </trkpt>
      <trkpt lat="45.741" lon="2.96675">
        <ele>980.770728</ele>
        <time>2021-07-06T16:44:19+0200</time>
      </trkpt>
      <trkpt lat="45.74096" lon="2.96667">
        <ele>981.616317</ele>
        <time>2021-07-06T16:44:21+0200</time>
      </trkpt>
      <trkpt lat="45.74091" lon="2.9666">
        <ele>981.754137</ele>
        <time>2021-07-06T16:44:23+0200</time>
      </trkpt>
      <trkpt lat="45.74088" lon="2.96654">
        <ele>982.404013</ele>
        <time>2021-07-06T16:44:25+0200</time>
      </trkpt>
      <trkpt lat="45.74085" lon="2.96648">
        <ele>981.622423</ele>
        <time>2021-07-06T16:44:26+0200</time>
      </trkpt>
      <trkpt lat="45.74083" lon="2.96641">
        <ele>981.780372</ele>
        <time>2021-07-06T16:44:28+0200</time>
      </trkpt>
      <trkpt lat="45.74081" lon="2.96634">
        <ele>984.12146</ele>
        <time>2021-07-06T16:44:30+0200</time>
      </trkpt>
      <trkpt lat="45.74077" lon="2.9663">
        <ele>985.137786</ele>
        <time>2021-07-06T16:44:31+0200</time>
      </trkpt>
      <trkpt lat="45.74074" lon="2.96624">
        <ele>983.181006</ele>
        <time>2021-07-06T16:44:33+0200</time>
      </trkpt>
      <trkpt lat="45.74072" lon="2.96616">
        <ele>983.962507</ele>
        <time>2021-07-06T16:44:35+0200</time>
      </trkpt>
      <trkpt lat="45.74071" lon="2.96609">
        <ele>982.496899</ele>
        <time>2021-07-06T16:44:36+0200</time>
      </trkpt>
      <trkpt lat="45.74068" lon="2.96597">
        <ele>982.407021</ele>
        <time>2021-07-06T16:44:38+0200</time>
      </trkpt>
      <trkpt lat="45.74066" lon="2.96588">
        <ele>981.400079</ele>
        <time>2021-07-06T16:44:40+0200</time>
      </trkpt>
      <trkpt lat="45.74067" lon="2.96579">
        <ele>980.396376</ele>
        <time>2021-07-06T16:44:42+0200</time>
      </trkpt>
      <trkpt lat="45.74068" lon="2.96571">
        <ele>980.712077</ele>
        <time>2021-07-06T16:44:44+0200</time>
      </trkpt>
      <trkpt lat="45.74069" lon="2.96562">
        <ele>980.974081</ele>
        <time>2021-07-06T16:44:46+0200</time>
      </trkpt>
      <trkpt lat="45.74072" lon="2.96554">
        <ele>980.854355</ele>
        <time>2021-07-06T16:44:48+0200</time>
      </trkpt>
      <trkpt lat="45.74076" lon="2.96547">
        <ele>980.401706</ele>
        <time>2021-07-06T16:44:50+0200</time>
      </trkpt>
      <trkpt lat="45.74079" lon="2.96539">
        <ele>980.330173</ele>
        <time>2021-07-06T16:44:52+0200</time>
      </trkpt>
      <trkpt lat="45.7408" lon="2.96532">
        <ele>979.917444</ele>
        <time>2021-07-06T16:44:55+0200</time>
      </trkpt>
      <trkpt lat="45.74081" lon="2.96521">
        <ele>979.990257</ele>
        <time>2021-07-06T16:44:58+0200</time>
      </trkpt>
      <trkpt lat="45.74084" lon="2.96515">
        <ele>980.077122</ele>
        <time>2021-07-06T16:45:00+0200</time>
      </trkpt>
      <trkpt lat="45.74087" lon="2.96508">
        <ele>980.7641</ele>
        <time>2021-07-06T16:45:02+0200</time>
      </trkpt>
      <trkpt lat="45.74091" lon="2.96502">
        <ele>980.748962</ele>
        <time>2021-07-06T16:45:04+0200</time>
      </trkpt>
      <trkpt lat="45.74089" lon="2.96493">
        <ele>983.681925</ele>
        <time>2021-07-06T16:45:06+0200</time>
      </trkpt>
      <trkpt lat="45.74085" lon="2.96488">
        <ele>984.131595</ele>
        <time>2021-07-06T16:45:08+0200</time>
      </trkpt>
      <trkpt lat="45.7408" lon="2.96484">
        <ele>985.438654</ele>
        <time>2021-07-06T16:45:10+0200</time>
      </trkpt>
      <trkpt lat="45.74073" lon="2.9648">
        <ele>985.329953</ele>
        <time>2021-07-06T16:45:13+0200</time>
      </trkpt>
      <trkpt lat="45.74067" lon="2.96479">
        <ele>985.195133</ele>
        <time>2021-07-06T16:45:15+0200</time>
      </trkpt>
      <trkpt lat="45.74061" lon="2.96474">
        <ele>986.331712</ele>
        <time>2021-07-06T16:45:17+0200</time>
      </trkpt>
      <trkpt lat="45.74056" lon="2.9647">
        <ele>986.802034</ele>
        <time>2021-07-06T16:45:19+0200</time>
      </trkpt>
      <trkpt lat="45.74051" lon="2.96467">
        <ele>987.343861</ele>
        <time>2021-07-06T16:45:21+0200</time>
      </trkpt>
      <trkpt lat="45.74044" lon="2.96463">
        <ele>988.084908</ele>
        <time>2021-07-06T16:45:23+0200</time>
      </trkpt>
      <trkpt lat="45.74039" lon="2.9646">
        <ele>987.846544</ele>
        <time>2021-07-06T16:45:25+0200</time>
      </trkpt>
      <trkpt lat="45.74034" lon="2.96456">
        <ele>989.008285</ele>
        <time>2021-07-06T16:45:27+0200</time>
      </trkpt>
      <trkpt lat="45.74029" lon="2.96454">
        <ele>989.647059</ele>
        <time>2021-07-06T16:45:29+0200</time>
      </trkpt>
      <trkpt lat="45.74025" lon="2.96447">
        <ele>988.992661</ele>
        <time>2021-07-06T16:45:32+0200</time>
      </trkpt>
      <trkpt lat="45.74026" lon="2.9644">
        <ele>987.67581</ele>
        <time>2021-07-06T16:45:34+0200</time>
      </trkpt>
      <trkpt lat="45.74029" lon="2.96435">
        <ele>984.092796</ele>
        <time>2021-07-06T16:45:39+0200</time>
      </trkpt>
    </trkseg>
  </trk>
</gpx>